<?xml version="1.0" encoding="UTF-8"?>
<gpx
  version="1.0"
  creator="GPSBabel - http://www.gpsbabel.org"
  xmlns:xsi="http://www.w3.org/2001/XMLSchema-instance"
  xmlns="http://www.topografix.com/GPX/1/0"
  xsi:schemaLocation="http://www.topografix.com/GPX/1/0 http://www.topografix.com/GPX/1/0/gpx.xsd">
<time>2011-08-20T10:25:29Z</time>
<bounds minlat="32.715370178" minlon="35.030006409" maxlat="32.751644135" maxlon="35.059001923"/>
<trk>
  <name>Holux2011/08/20_07:52</name>
<trkseg>
<trkpt lat="32.751419067" lon="35.048175812">
  <ele>374.924316</ele>
  <time>2011-08-20T04:52:27Z</time>
  <speed>0.180000</speed>
</trkpt>
<trkpt lat="32.751411438" lon="35.048175812">
  <ele>371.994629</ele>
  <time>2011-08-20T04:52:30Z</time>
  <speed>0.440000</speed>
</trkpt>
<trkpt lat="32.751380920" lon="35.048171997">
  <ele>372.439941</ele>
  <time>2011-08-20T04:52:32Z</time>
  <speed>0.050000</speed>
</trkpt>
<trkpt lat="32.751388550" lon="35.048175812">
  <ele>369.439941</ele>
  <time>2011-08-20T04:52:41Z</time>
  <speed>0.110000</speed>
</trkpt>
<trkpt lat="32.751419067" lon="35.048179626">
  <ele>369.486816</ele>
  <time>2011-08-20T04:52:45Z</time>
  <speed>1.090000</speed>
</trkpt>
<trkpt lat="32.751461029" lon="35.048175812">
  <ele>369.541504</ele>
  <time>2011-08-20T04:52:47Z</time>
  <speed>2.400000</speed>
</trkpt>
<trkpt lat="32.751525879" lon="35.048191071">
  <ele>369.471191</ele>
  <time>2011-08-20T04:52:49Z</time>
  <speed>4.850000</speed>
</trkpt>
<trkpt lat="32.751548767" lon="35.048225403">
  <ele>369.252441</ele>
  <time>2011-08-20T04:52:50Z</time>
  <speed>4.070000</speed>
</trkpt>
<trkpt lat="32.751579285" lon="35.048259735">
  <ele>368.955566</ele>
  <time>2011-08-20T04:52:51Z</time>
  <speed>4.790000</speed>
</trkpt>
<trkpt lat="32.751609802" lon="35.048294067">
  <ele>368.650879</ele>
  <time>2011-08-20T04:52:52Z</time>
  <speed>5.400000</speed>
</trkpt>
<trkpt lat="32.751636505" lon="35.048339844">
  <ele>368.346191</ele>
  <time>2011-08-20T04:52:53Z</time>
  <speed>5.220000</speed>
</trkpt>
<trkpt lat="32.751644135" lon="35.048385620">
  <ele>368.447754</ele>
  <time>2011-08-20T04:52:54Z</time>
  <speed>4.430000</speed>
</trkpt>
<trkpt lat="32.751621246" lon="35.048419952">
  <ele>368.471191</ele>
  <time>2011-08-20T04:52:55Z</time>
  <speed>4.000000</speed>
</trkpt>
<trkpt lat="32.751598358" lon="35.048458099">
  <ele>368.799316</ele>
  <time>2011-08-20T04:52:56Z</time>
  <speed>4.200000</speed>
</trkpt>
<trkpt lat="32.751571655" lon="35.048488617">
  <ele>368.510254</ele>
  <time>2011-08-20T04:52:57Z</time>
  <speed>3.920000</speed>
</trkpt>
<trkpt lat="32.751544952" lon="35.048519135">
  <ele>369.111816</ele>
  <time>2011-08-20T04:52:58Z</time>
  <speed>4.250000</speed>
</trkpt>
<trkpt lat="32.751522064" lon="35.048557281">
  <ele>368.518066</ele>
  <time>2011-08-20T04:52:59Z</time>
  <speed>4.010000</speed>
</trkpt>
<trkpt lat="32.751499176" lon="35.048595428">
  <ele>367.713379</ele>
  <time>2011-08-20T04:53:00Z</time>
  <speed>3.870000</speed>
</trkpt>
<trkpt lat="32.751472473" lon="35.048625946">
  <ele>366.979004</ele>
  <time>2011-08-20T04:53:01Z</time>
  <speed>3.750000</speed>
</trkpt>
<trkpt lat="32.751457214" lon="35.048664093">
  <ele>367.049316</ele>
  <time>2011-08-20T04:53:02Z</time>
  <speed>3.590000</speed>
</trkpt>
<trkpt lat="32.751438141" lon="35.048702240">
  <ele>367.189941</ele>
  <time>2011-08-20T04:53:03Z</time>
  <speed>3.800000</speed>
</trkpt>
<trkpt lat="32.751426697" lon="35.048740387">
  <ele>367.260254</ele>
  <time>2011-08-20T04:53:04Z</time>
  <speed>3.900000</speed>
</trkpt>
<trkpt lat="32.751415253" lon="35.048778534">
  <ele>367.135254</ele>
  <time>2011-08-20T04:53:05Z</time>
  <speed>3.910000</speed>
</trkpt>
<trkpt lat="32.751396179" lon="35.048816681">
  <ele>367.150879</ele>
  <time>2011-08-20T04:53:06Z</time>
  <speed>3.880000</speed>
</trkpt>
<trkpt lat="32.751380920" lon="35.048854828">
  <ele>367.080566</ele>
  <time>2011-08-20T04:53:07Z</time>
  <speed>3.750000</speed>
</trkpt>
<trkpt lat="32.751369476" lon="35.048892975">
  <ele>367.135254</ele>
  <time>2011-08-20T04:53:08Z</time>
  <speed>3.750000</speed>
</trkpt>
<trkpt lat="32.751346588" lon="35.048927307">
  <ele>367.377441</ele>
  <time>2011-08-20T04:53:09Z</time>
  <speed>3.940000</speed>
</trkpt>
<trkpt lat="32.751331329" lon="35.048965454">
  <ele>367.697754</ele>
  <time>2011-08-20T04:53:10Z</time>
  <speed>3.750000</speed>
</trkpt>
<trkpt lat="32.751316071" lon="35.049003601">
  <ele>367.947754</ele>
  <time>2011-08-20T04:53:11Z</time>
  <speed>3.810000</speed>
</trkpt>
<trkpt lat="32.751304626" lon="35.049041748">
  <ele>367.682129</ele>
  <time>2011-08-20T04:53:12Z</time>
  <speed>3.920000</speed>
</trkpt>
<trkpt lat="32.751285553" lon="35.049083710">
  <ele>367.674316</ele>
  <time>2011-08-20T04:53:13Z</time>
  <speed>3.950000</speed>
</trkpt>
<trkpt lat="32.751270294" lon="35.049121857">
  <ele>368.174316</ele>
  <time>2011-08-20T04:53:14Z</time>
  <speed>3.770000</speed>
</trkpt>
<trkpt lat="32.751262665" lon="35.049160004">
  <ele>368.557129</ele>
  <time>2011-08-20T04:53:15Z</time>
  <speed>3.940000</speed>
</trkpt>
<trkpt lat="32.751247406" lon="35.049198151">
  <ele>368.869629</ele>
  <time>2011-08-20T04:53:16Z</time>
  <speed>4.110000</speed>
</trkpt>
<trkpt lat="32.751232147" lon="35.049243927">
  <ele>369.533691</ele>
  <time>2011-08-20T04:53:17Z</time>
  <speed>3.680000</speed>
</trkpt>
<trkpt lat="32.751220703" lon="35.049278259">
  <ele>369.572754</ele>
  <time>2011-08-20T04:53:18Z</time>
  <speed>3.910000</speed>
</trkpt>
<trkpt lat="32.751205444" lon="35.049320221">
  <ele>370.104004</ele>
  <time>2011-08-20T04:53:19Z</time>
  <speed>3.570000</speed>
</trkpt>
<trkpt lat="32.751194000" lon="35.049354553">
  <ele>369.908691</ele>
  <time>2011-08-20T04:53:20Z</time>
  <speed>3.620000</speed>
</trkpt>
<trkpt lat="32.751178741" lon="35.049396515">
  <ele>370.518066</ele>
  <time>2011-08-20T04:53:21Z</time>
  <speed>3.610000</speed>
</trkpt>
<trkpt lat="32.751163483" lon="35.049434662">
  <ele>370.252441</ele>
  <time>2011-08-20T04:53:22Z</time>
  <speed>3.860000</speed>
</trkpt>
<trkpt lat="32.751155853" lon="35.049472809">
  <ele>370.408691</ele>
  <time>2011-08-20T04:53:23Z</time>
  <speed>3.780000</speed>
</trkpt>
<trkpt lat="32.751144409" lon="35.049510956">
  <ele>370.682129</ele>
  <time>2011-08-20T04:53:24Z</time>
  <speed>3.890000</speed>
</trkpt>
<trkpt lat="32.751132965" lon="35.049552917">
  <ele>370.627441</ele>
  <time>2011-08-20T04:53:25Z</time>
  <speed>3.760000</speed>
</trkpt>
<trkpt lat="32.751121521" lon="35.049594879">
  <ele>370.471191</ele>
  <time>2011-08-20T04:53:26Z</time>
  <speed>3.930000</speed>
</trkpt>
<trkpt lat="32.751110077" lon="35.049633026">
  <ele>370.541504</ele>
  <time>2011-08-20T04:53:27Z</time>
  <speed>3.750000</speed>
</trkpt>
<trkpt lat="32.751102448" lon="35.049671173">
  <ele>370.439941</ele>
  <time>2011-08-20T04:53:28Z</time>
  <speed>3.660000</speed>
</trkpt>
<trkpt lat="32.751094818" lon="35.049709320">
  <ele>370.268066</ele>
  <time>2011-08-20T04:53:29Z</time>
  <speed>3.850000</speed>
</trkpt>
<trkpt lat="32.751087189" lon="35.049751282">
  <ele>370.736816</ele>
  <time>2011-08-20T04:53:30Z</time>
  <speed>3.530000</speed>
</trkpt>
<trkpt lat="32.751075745" lon="35.049785614">
  <ele>370.564941</ele>
  <time>2011-08-20T04:53:31Z</time>
  <speed>3.420000</speed>
</trkpt>
<trkpt lat="32.751064301" lon="35.049816132">
  <ele>370.596191</ele>
  <time>2011-08-20T04:53:32Z</time>
  <speed>3.530000</speed>
</trkpt>
<trkpt lat="32.751052856" lon="35.049850464">
  <ele>370.502441</ele>
  <time>2011-08-20T04:53:33Z</time>
  <speed>3.510000</speed>
</trkpt>
<trkpt lat="32.751045227" lon="35.049884796">
  <ele>370.697754</ele>
  <time>2011-08-20T04:53:34Z</time>
  <speed>3.570000</speed>
</trkpt>
<trkpt lat="32.751029968" lon="35.049926758">
  <ele>370.666504</ele>
  <time>2011-08-20T04:53:35Z</time>
  <speed>3.760000</speed>
</trkpt>
<trkpt lat="32.751022339" lon="35.049961090">
  <ele>370.869629</ele>
  <time>2011-08-20T04:53:36Z</time>
  <speed>3.430000</speed>
</trkpt>
<trkpt lat="32.751014709" lon="35.049995422">
  <ele>371.111816</ele>
  <time>2011-08-20T04:53:37Z</time>
  <speed>3.640000</speed>
</trkpt>
<trkpt lat="32.751003265" lon="35.050029755">
  <ele>372.166504</ele>
  <time>2011-08-20T04:53:38Z</time>
  <speed>3.410000</speed>
</trkpt>
<trkpt lat="32.750991821" lon="35.050064087">
  <ele>371.830566</ele>
  <time>2011-08-20T04:53:39Z</time>
  <speed>3.710000</speed>
</trkpt>
<trkpt lat="32.750980377" lon="35.050102234">
  <ele>372.189941</ele>
  <time>2011-08-20T04:53:40Z</time>
  <speed>3.640000</speed>
</trkpt>
<trkpt lat="32.750968933" lon="35.050132751">
  <ele>371.916504</ele>
  <time>2011-08-20T04:53:41Z</time>
  <speed>3.410000</speed>
</trkpt>
<trkpt lat="32.750957489" lon="35.050170898">
  <ele>372.002441</ele>
  <time>2011-08-20T04:53:42Z</time>
  <speed>3.610000</speed>
</trkpt>
<trkpt lat="32.750946045" lon="35.050205231">
  <ele>371.932129</ele>
  <time>2011-08-20T04:53:43Z</time>
  <speed>3.380000</speed>
</trkpt>
<trkpt lat="32.750934601" lon="35.050239563">
  <ele>371.791504</ele>
  <time>2011-08-20T04:53:44Z</time>
  <speed>3.340000</speed>
</trkpt>
<trkpt lat="32.750926971" lon="35.050270081">
  <ele>371.596191</ele>
  <time>2011-08-20T04:53:45Z</time>
  <speed>3.490000</speed>
</trkpt>
<trkpt lat="32.750911713" lon="35.050308228">
  <ele>371.588379</ele>
  <time>2011-08-20T04:53:46Z</time>
  <speed>3.540000</speed>
</trkpt>
<trkpt lat="32.750900269" lon="35.050350189">
  <ele>371.807129</ele>
  <time>2011-08-20T04:53:47Z</time>
  <speed>3.730000</speed>
</trkpt>
<trkpt lat="32.750888824" lon="35.050388336">
  <ele>372.002441</ele>
  <time>2011-08-20T04:53:48Z</time>
  <speed>3.540000</speed>
</trkpt>
<trkpt lat="32.750877380" lon="35.050422668">
  <ele>372.619629</ele>
  <time>2011-08-20T04:53:49Z</time>
  <speed>3.640000</speed>
</trkpt>
<trkpt lat="32.750862122" lon="35.050460815">
  <ele>372.283691</ele>
  <time>2011-08-20T04:53:50Z</time>
  <speed>3.810000</speed>
</trkpt>
<trkpt lat="32.750854492" lon="35.050498962">
  <ele>372.619629</ele>
  <time>2011-08-20T04:53:51Z</time>
  <speed>3.550000</speed>
</trkpt>
<trkpt lat="32.750839233" lon="35.050533295">
  <ele>372.299316</ele>
  <time>2011-08-20T04:53:52Z</time>
  <speed>3.800000</speed>
</trkpt>
<trkpt lat="32.750831604" lon="35.050571442">
  <ele>372.455566</ele>
  <time>2011-08-20T04:53:53Z</time>
  <speed>3.660000</speed>
</trkpt>
<trkpt lat="32.750816345" lon="35.050605774">
  <ele>372.416504</ele>
  <time>2011-08-20T04:53:54Z</time>
  <speed>3.680000</speed>
</trkpt>
<trkpt lat="32.750804901" lon="35.050643921">
  <ele>372.385254</ele>
  <time>2011-08-20T04:53:55Z</time>
  <speed>3.460000</speed>
</trkpt>
<trkpt lat="32.750801086" lon="35.050682068">
  <ele>372.432129</ele>
  <time>2011-08-20T04:53:56Z</time>
  <speed>3.580000</speed>
</trkpt>
<trkpt lat="32.750789642" lon="35.050716400">
  <ele>372.830566</ele>
  <time>2011-08-20T04:53:57Z</time>
  <speed>3.690000</speed>
</trkpt>
<trkpt lat="32.750778198" lon="35.050754547">
  <ele>373.041504</ele>
  <time>2011-08-20T04:53:58Z</time>
  <speed>3.800000</speed>
</trkpt>
<trkpt lat="32.750766754" lon="35.050792694">
  <ele>373.260254</ele>
  <time>2011-08-20T04:53:59Z</time>
  <speed>3.630000</speed>
</trkpt>
<trkpt lat="32.750755310" lon="35.050827026">
  <ele>373.229004</ele>
  <time>2011-08-20T04:54:00Z</time>
  <speed>3.860000</speed>
</trkpt>
<trkpt lat="32.750743866" lon="35.050861359">
  <ele>372.861816</ele>
  <time>2011-08-20T04:54:01Z</time>
  <speed>3.490000</speed>
</trkpt>
<trkpt lat="32.750732422" lon="35.050899506">
  <ele>373.283691</ele>
  <time>2011-08-20T04:54:02Z</time>
  <speed>3.720000</speed>
</trkpt>
<trkpt lat="32.750720978" lon="35.050937653">
  <ele>373.611816</ele>
  <time>2011-08-20T04:54:03Z</time>
  <speed>3.730000</speed>
</trkpt>
<trkpt lat="32.750709534" lon="35.050975800">
  <ele>373.814941</ele>
  <time>2011-08-20T04:54:04Z</time>
  <speed>3.860000</speed>
</trkpt>
<trkpt lat="32.750698090" lon="35.051013947">
  <ele>373.658691</ele>
  <time>2011-08-20T04:54:05Z</time>
  <speed>3.780000</speed>
</trkpt>
<trkpt lat="32.750682831" lon="35.051048279">
  <ele>373.916504</ele>
  <time>2011-08-20T04:54:06Z</time>
  <speed>3.910000</speed>
</trkpt>
<trkpt lat="32.750671387" lon="35.051086426">
  <ele>374.025879</ele>
  <time>2011-08-20T04:54:07Z</time>
  <speed>4.040000</speed>
</trkpt>
<trkpt lat="32.750656128" lon="35.051120758">
  <ele>373.877441</ele>
  <time>2011-08-20T04:54:08Z</time>
  <speed>3.680000</speed>
</trkpt>
<trkpt lat="32.750640869" lon="35.051158905">
  <ele>373.955566</ele>
  <time>2011-08-20T04:54:09Z</time>
  <speed>3.890000</speed>
</trkpt>
<trkpt lat="32.750629425" lon="35.051197052">
  <ele>374.416504</ele>
  <time>2011-08-20T04:54:10Z</time>
  <speed>3.800000</speed>
</trkpt>
<trkpt lat="32.750617981" lon="35.051231384">
  <ele>374.135254</ele>
  <time>2011-08-20T04:54:11Z</time>
  <speed>3.680000</speed>
</trkpt>
<trkpt lat="32.750610352" lon="35.051269531">
  <ele>374.510254</ele>
  <time>2011-08-20T04:54:12Z</time>
  <speed>3.650000</speed>
</trkpt>
<trkpt lat="32.750598907" lon="35.051307678">
  <ele>374.346191</ele>
  <time>2011-08-20T04:54:13Z</time>
  <speed>3.880000</speed>
</trkpt>
<trkpt lat="32.750583649" lon="35.051349640">
  <ele>374.947754</ele>
  <time>2011-08-20T04:54:14Z</time>
  <speed>3.930000</speed>
</trkpt>
<trkpt lat="32.750572205" lon="35.051391602">
  <ele>375.166504</ele>
  <time>2011-08-20T04:54:15Z</time>
  <speed>3.710000</speed>
</trkpt>
<trkpt lat="32.750560760" lon="35.051429749">
  <ele>375.838379</ele>
  <time>2011-08-20T04:54:16Z</time>
  <speed>3.850000</speed>
</trkpt>
<trkpt lat="32.750549316" lon="35.051467896">
  <ele>376.369629</ele>
  <time>2011-08-20T04:54:17Z</time>
  <speed>3.680000</speed>
</trkpt>
<trkpt lat="32.750534058" lon="35.051498413">
  <ele>376.830566</ele>
  <time>2011-08-20T04:54:18Z</time>
  <speed>3.610000</speed>
</trkpt>
<trkpt lat="32.750522614" lon="35.051532745">
  <ele>377.119629</ele>
  <time>2011-08-20T04:54:19Z</time>
  <speed>3.580000</speed>
</trkpt>
<trkpt lat="32.750511169" lon="35.051570892">
  <ele>377.346191</ele>
  <time>2011-08-20T04:54:20Z</time>
  <speed>3.910000</speed>
</trkpt>
<trkpt lat="32.750499725" lon="35.051609039">
  <ele>377.361816</ele>
  <time>2011-08-20T04:54:21Z</time>
  <speed>3.780000</speed>
</trkpt>
<trkpt lat="32.750484467" lon="35.051647186">
  <ele>377.682129</ele>
  <time>2011-08-20T04:54:22Z</time>
  <speed>3.880000</speed>
</trkpt>
<trkpt lat="32.750469208" lon="35.051681519">
  <ele>377.783691</ele>
  <time>2011-08-20T04:54:23Z</time>
  <speed>3.630000</speed>
</trkpt>
<trkpt lat="32.750457764" lon="35.051719666">
  <ele>378.002441</ele>
  <time>2011-08-20T04:54:24Z</time>
  <speed>3.620000</speed>
</trkpt>
<trkpt lat="32.750446320" lon="35.051757813">
  <ele>378.369629</ele>
  <time>2011-08-20T04:54:25Z</time>
  <speed>3.740000</speed>
</trkpt>
<trkpt lat="32.750434875" lon="35.051795959">
  <ele>378.494629</ele>
  <time>2011-08-20T04:54:26Z</time>
  <speed>3.640000</speed>
</trkpt>
<trkpt lat="32.750423431" lon="35.051830292">
  <ele>378.830566</ele>
  <time>2011-08-20T04:54:27Z</time>
  <speed>3.660000</speed>
</trkpt>
<trkpt lat="32.750411987" lon="35.051868439">
  <ele>378.830566</ele>
  <time>2011-08-20T04:54:28Z</time>
  <speed>3.440000</speed>
</trkpt>
<trkpt lat="32.750400543" lon="35.051902771">
  <ele>379.283691</ele>
  <time>2011-08-20T04:54:29Z</time>
  <speed>3.620000</speed>
</trkpt>
<trkpt lat="32.750389099" lon="35.051937103">
  <ele>379.385254</ele>
  <time>2011-08-20T04:54:30Z</time>
  <speed>3.580000</speed>
</trkpt>
<trkpt lat="32.750377655" lon="35.051967621">
  <ele>379.580566</ele>
  <time>2011-08-20T04:54:31Z</time>
  <speed>3.540000</speed>
</trkpt>
<trkpt lat="32.750362396" lon="35.052001953">
  <ele>379.549316</ele>
  <time>2011-08-20T04:54:32Z</time>
  <speed>3.620000</speed>
</trkpt>
<trkpt lat="32.750350952" lon="35.052040100">
  <ele>379.736816</ele>
  <time>2011-08-20T04:54:33Z</time>
  <speed>3.500000</speed>
</trkpt>
<trkpt lat="32.750335693" lon="35.052078247">
  <ele>379.799316</ele>
  <time>2011-08-20T04:54:34Z</time>
  <speed>3.660000</speed>
</trkpt>
<trkpt lat="32.750328064" lon="35.052112579">
  <ele>380.033691</ele>
  <time>2011-08-20T04:54:35Z</time>
  <speed>3.560000</speed>
</trkpt>
<trkpt lat="32.750316620" lon="35.052146912">
  <ele>379.979004</ele>
  <time>2011-08-20T04:54:36Z</time>
  <speed>3.640000</speed>
</trkpt>
<trkpt lat="32.750308990" lon="35.052188873">
  <ele>379.893066</ele>
  <time>2011-08-20T04:54:37Z</time>
  <speed>3.640000</speed>
</trkpt>
<trkpt lat="32.750293732" lon="35.052223206">
  <ele>379.900879</ele>
  <time>2011-08-20T04:54:38Z</time>
  <speed>3.580000</speed>
</trkpt>
<trkpt lat="32.750286102" lon="35.052257538">
  <ele>379.721191</ele>
  <time>2011-08-20T04:54:39Z</time>
  <speed>3.660000</speed>
</trkpt>
<trkpt lat="32.750274658" lon="35.052295685">
  <ele>380.611816</ele>
  <time>2011-08-20T04:54:40Z</time>
  <speed>3.480000</speed>
</trkpt>
<trkpt lat="32.750263214" lon="35.052326202">
  <ele>380.650879</ele>
  <time>2011-08-20T04:54:41Z</time>
  <speed>3.720000</speed>
</trkpt>
<trkpt lat="32.750251770" lon="35.052368164">
  <ele>380.846191</ele>
  <time>2011-08-20T04:54:42Z</time>
  <speed>3.590000</speed>
</trkpt>
<trkpt lat="32.750240326" lon="35.052406311">
  <ele>380.752441</ele>
  <time>2011-08-20T04:54:43Z</time>
  <speed>3.680000</speed>
</trkpt>
<trkpt lat="32.750232697" lon="35.052440643">
  <ele>380.619629</ele>
  <time>2011-08-20T04:54:44Z</time>
  <speed>3.560000</speed>
</trkpt>
<trkpt lat="32.750221252" lon="35.052474976">
  <ele>380.533691</ele>
  <time>2011-08-20T04:54:45Z</time>
  <speed>3.650000</speed>
</trkpt>
<trkpt lat="32.750209808" lon="35.052513123">
  <ele>381.057129</ele>
  <time>2011-08-20T04:54:46Z</time>
  <speed>3.590000</speed>
</trkpt>
<trkpt lat="32.750198364" lon="35.052543640">
  <ele>380.947754</ele>
  <time>2011-08-20T04:54:47Z</time>
  <speed>3.320000</speed>
</trkpt>
<trkpt lat="32.750186920" lon="35.052574158">
  <ele>380.830566</ele>
  <time>2011-08-20T04:54:48Z</time>
  <speed>3.470000</speed>
</trkpt>
<trkpt lat="32.750175476" lon="35.052600861">
  <ele>380.400879</ele>
  <time>2011-08-20T04:54:49Z</time>
  <speed>3.410000</speed>
</trkpt>
<trkpt lat="32.750160217" lon="35.052635193">
  <ele>380.541504</ele>
  <time>2011-08-20T04:54:50Z</time>
  <speed>3.540000</speed>
</trkpt>
<trkpt lat="32.750148773" lon="35.052669525">
  <ele>380.666504</ele>
  <time>2011-08-20T04:54:51Z</time>
  <speed>3.380000</speed>
</trkpt>
<trkpt lat="32.750133514" lon="35.052700043">
  <ele>381.096191</ele>
  <time>2011-08-20T04:54:52Z</time>
  <speed>3.470000</speed>
</trkpt>
<trkpt lat="32.750118256" lon="35.052738190">
  <ele>381.369629</ele>
  <time>2011-08-20T04:54:53Z</time>
  <speed>3.430000</speed>
</trkpt>
<trkpt lat="32.750106812" lon="35.052772522">
  <ele>381.010254</ele>
  <time>2011-08-20T04:54:54Z</time>
  <speed>3.650000</speed>
</trkpt>
<trkpt lat="32.750087738" lon="35.052806854">
  <ele>381.494629</ele>
  <time>2011-08-20T04:54:55Z</time>
  <speed>3.730000</speed>
</trkpt>
<trkpt lat="32.750072479" lon="35.052841187">
  <ele>381.463379</ele>
  <time>2011-08-20T04:54:56Z</time>
  <speed>3.680000</speed>
</trkpt>
<trkpt lat="32.750053406" lon="35.052879333">
  <ele>382.104004</ele>
  <time>2011-08-20T04:54:57Z</time>
  <speed>3.890000</speed>
</trkpt>
<trkpt lat="32.750034332" lon="35.052913666">
  <ele>381.783691</ele>
  <time>2011-08-20T04:54:58Z</time>
  <speed>3.860000</speed>
</trkpt>
<trkpt lat="32.750019073" lon="35.052951813">
  <ele>382.229004</ele>
  <time>2011-08-20T04:54:59Z</time>
  <speed>3.900000</speed>
</trkpt>
<trkpt lat="32.750000000" lon="35.052986145">
  <ele>381.783691</ele>
  <time>2011-08-20T04:55:00Z</time>
  <speed>3.810000</speed>
</trkpt>
<trkpt lat="32.749980927" lon="35.053020477">
  <ele>382.486816</ele>
  <time>2011-08-20T04:55:01Z</time>
  <speed>3.970000</speed>
</trkpt>
<trkpt lat="32.749958038" lon="35.053058624">
  <ele>383.010254</ele>
  <time>2011-08-20T04:55:02Z</time>
  <speed>3.910000</speed>
</trkpt>
<trkpt lat="32.749938965" lon="35.053092957">
  <ele>383.424316</ele>
  <time>2011-08-20T04:55:03Z</time>
  <speed>3.990000</speed>
</trkpt>
<trkpt lat="32.749919891" lon="35.053131104">
  <ele>384.174316</ele>
  <time>2011-08-20T04:55:04Z</time>
  <speed>4.020000</speed>
</trkpt>
<trkpt lat="32.749904633" lon="35.053153992">
  <ele>382.893066</ele>
  <time>2011-08-20T04:55:05Z</time>
  <speed>3.630000</speed>
</trkpt>
<trkpt lat="32.749885559" lon="35.053188324">
  <ele>383.471191</ele>
  <time>2011-08-20T04:55:06Z</time>
  <speed>3.650000</speed>
</trkpt>
<trkpt lat="32.749866486" lon="35.053218842">
  <ele>383.307129</ele>
  <time>2011-08-20T04:55:07Z</time>
  <speed>3.870000</speed>
</trkpt>
<trkpt lat="32.749847412" lon="35.053256989">
  <ele>383.877441</ele>
  <time>2011-08-20T04:55:08Z</time>
  <speed>3.950000</speed>
</trkpt>
<trkpt lat="32.749832153" lon="35.053287506">
  <ele>383.416504</ele>
  <time>2011-08-20T04:55:09Z</time>
  <speed>3.980000</speed>
</trkpt>
<trkpt lat="32.749809265" lon="35.053321838">
  <ele>383.604004</ele>
  <time>2011-08-20T04:55:10Z</time>
  <speed>3.770000</speed>
</trkpt>
<trkpt lat="32.749790192" lon="35.053356171">
  <ele>383.205566</ele>
  <time>2011-08-20T04:55:11Z</time>
  <speed>3.900000</speed>
</trkpt>
<trkpt lat="32.749771118" lon="35.053394318">
  <ele>383.494629</ele>
  <time>2011-08-20T04:55:12Z</time>
  <speed>4.020000</speed>
</trkpt>
<trkpt lat="32.749748230" lon="35.053424835">
  <ele>384.033691</ele>
  <time>2011-08-20T04:55:13Z</time>
  <speed>3.930000</speed>
</trkpt>
<trkpt lat="32.749729156" lon="35.053459167">
  <ele>384.369629</ele>
  <time>2011-08-20T04:55:14Z</time>
  <speed>3.930000</speed>
</trkpt>
<trkpt lat="32.749702454" lon="35.053493500">
  <ele>384.096191</ele>
  <time>2011-08-20T04:55:15Z</time>
  <speed>4.210000</speed>
</trkpt>
<trkpt lat="32.749679565" lon="35.053524017">
  <ele>383.986816</ele>
  <time>2011-08-20T04:55:16Z</time>
  <speed>4.130000</speed>
</trkpt>
<trkpt lat="32.749652863" lon="35.053558350">
  <ele>384.049316</ele>
  <time>2011-08-20T04:55:17Z</time>
  <speed>4.140000</speed>
</trkpt>
<trkpt lat="32.749629974" lon="35.053588867">
  <ele>384.338379</ele>
  <time>2011-08-20T04:55:18Z</time>
  <speed>4.080000</speed>
</trkpt>
<trkpt lat="32.749607086" lon="35.053623199">
  <ele>384.330566</ele>
  <time>2011-08-20T04:55:19Z</time>
  <speed>4.240000</speed>
</trkpt>
<trkpt lat="32.749584198" lon="35.053657532">
  <ele>384.416504</ele>
  <time>2011-08-20T04:55:20Z</time>
  <speed>4.280000</speed>
</trkpt>
<trkpt lat="32.749557495" lon="35.053691864">
  <ele>384.471191</ele>
  <time>2011-08-20T04:55:21Z</time>
  <speed>4.180000</speed>
</trkpt>
<trkpt lat="32.749530792" lon="35.053722382">
  <ele>384.143066</ele>
  <time>2011-08-20T04:55:22Z</time>
  <speed>4.250000</speed>
</trkpt>
<trkpt lat="32.749507904" lon="35.053760529">
  <ele>384.307129</ele>
  <time>2011-08-20T04:55:23Z</time>
  <speed>4.250000</speed>
</trkpt>
<trkpt lat="32.749485016" lon="35.053787231">
  <ele>383.533691</ele>
  <time>2011-08-20T04:55:24Z</time>
  <speed>4.450000</speed>
</trkpt>
<trkpt lat="32.749458313" lon="35.053825378">
  <ele>383.479004</ele>
  <time>2011-08-20T04:55:25Z</time>
  <speed>4.320000</speed>
</trkpt>
<trkpt lat="32.749427795" lon="35.053859711">
  <ele>383.010254</ele>
  <time>2011-08-20T04:55:26Z</time>
  <speed>4.420000</speed>
</trkpt>
<trkpt lat="32.749404907" lon="35.053894043">
  <ele>382.775879</ele>
  <time>2011-08-20T04:55:27Z</time>
  <speed>4.380000</speed>
</trkpt>
<trkpt lat="32.749374390" lon="35.053928375">
  <ele>382.197754</ele>
  <time>2011-08-20T04:55:28Z</time>
  <speed>4.360000</speed>
</trkpt>
<trkpt lat="32.749351501" lon="35.053955078">
  <ele>381.361816</ele>
  <time>2011-08-20T04:55:29Z</time>
  <speed>4.590000</speed>
</trkpt>
<trkpt lat="32.749320984" lon="35.053993225">
  <ele>381.447754</ele>
  <time>2011-08-20T04:55:30Z</time>
  <speed>4.690000</speed>
</trkpt>
<trkpt lat="32.749294281" lon="35.054035187">
  <ele>381.643066</ele>
  <time>2011-08-20T04:55:31Z</time>
  <speed>4.500000</speed>
</trkpt>
<trkpt lat="32.749271393" lon="35.054077148">
  <ele>381.986816</ele>
  <time>2011-08-20T04:55:32Z</time>
  <speed>4.530000</speed>
</trkpt>
<trkpt lat="32.749248505" lon="35.054119110">
  <ele>381.729004</ele>
  <time>2011-08-20T04:55:33Z</time>
  <speed>4.570000</speed>
</trkpt>
<trkpt lat="32.749229431" lon="35.054164886">
  <ele>381.502441</ele>
  <time>2011-08-20T04:55:34Z</time>
  <speed>4.190000</speed>
</trkpt>
<trkpt lat="32.749202728" lon="35.054199219">
  <ele>381.025879</ele>
  <time>2011-08-20T04:55:35Z</time>
  <speed>4.320000</speed>
</trkpt>
<trkpt lat="32.749179840" lon="35.054233551">
  <ele>381.838379</ele>
  <time>2011-08-20T04:55:36Z</time>
  <speed>4.330000</speed>
</trkpt>
<trkpt lat="32.749156952" lon="35.054271698">
  <ele>382.080566</ele>
  <time>2011-08-20T04:55:37Z</time>
  <speed>4.290000</speed>
</trkpt>
<trkpt lat="32.749134064" lon="35.054309845">
  <ele>382.643066</ele>
  <time>2011-08-20T04:55:38Z</time>
  <speed>4.170000</speed>
</trkpt>
<trkpt lat="32.749103546" lon="35.054344177">
  <ele>382.236816</ele>
  <time>2011-08-20T04:55:39Z</time>
  <speed>4.230000</speed>
</trkpt>
<trkpt lat="32.749080658" lon="35.054378510">
  <ele>382.416504</ele>
  <time>2011-08-20T04:55:40Z</time>
  <speed>4.320000</speed>
</trkpt>
<trkpt lat="32.749050140" lon="35.054409027">
  <ele>381.619629</ele>
  <time>2011-08-20T04:55:41Z</time>
  <speed>4.410000</speed>
</trkpt>
<trkpt lat="32.749019623" lon="35.054443359">
  <ele>381.799316</ele>
  <time>2011-08-20T04:55:42Z</time>
  <speed>4.440000</speed>
</trkpt>
<trkpt lat="32.748992920" lon="35.054477692">
  <ele>382.088379</ele>
  <time>2011-08-20T04:55:43Z</time>
  <speed>4.530000</speed>
</trkpt>
<trkpt lat="32.748966217" lon="35.054512024">
  <ele>381.885254</ele>
  <time>2011-08-20T04:55:44Z</time>
  <speed>4.380000</speed>
</trkpt>
<trkpt lat="32.748935699" lon="35.054546356">
  <ele>382.439941</ele>
  <time>2011-08-20T04:55:45Z</time>
  <speed>4.450000</speed>
</trkpt>
<trkpt lat="32.748908997" lon="35.054580688">
  <ele>383.064941</ele>
  <time>2011-08-20T04:55:46Z</time>
  <speed>4.440000</speed>
</trkpt>
<trkpt lat="32.748878479" lon="35.054615021">
  <ele>383.705566</ele>
  <time>2011-08-20T04:55:47Z</time>
  <speed>4.460000</speed>
</trkpt>
<trkpt lat="32.748844147" lon="35.054641724">
  <ele>383.361816</ele>
  <time>2011-08-20T04:55:48Z</time>
  <speed>4.360000</speed>
</trkpt>
<trkpt lat="32.748813629" lon="35.054664612">
  <ele>383.197754</ele>
  <time>2011-08-20T04:55:49Z</time>
  <speed>4.000000</speed>
</trkpt>
<trkpt lat="32.748786926" lon="35.054691315">
  <ele>382.979004</ele>
  <time>2011-08-20T04:55:50Z</time>
  <speed>4.020000</speed>
</trkpt>
<trkpt lat="32.748756409" lon="35.054714203">
  <ele>382.721191</ele>
  <time>2011-08-20T04:55:51Z</time>
  <speed>3.930000</speed>
</trkpt>
<trkpt lat="32.748725891" lon="35.054737091">
  <ele>382.252441</ele>
  <time>2011-08-20T04:55:52Z</time>
  <speed>3.890000</speed>
</trkpt>
<trkpt lat="32.748699188" lon="35.054763794">
  <ele>381.893066</ele>
  <time>2011-08-20T04:55:53Z</time>
  <speed>4.030000</speed>
</trkpt>
<trkpt lat="32.748672485" lon="35.054794312">
  <ele>381.705566</ele>
  <time>2011-08-20T04:55:54Z</time>
  <speed>3.960000</speed>
</trkpt>
<trkpt lat="32.748641968" lon="35.054817200">
  <ele>381.400879</ele>
  <time>2011-08-20T04:55:55Z</time>
  <speed>4.160000</speed>
</trkpt>
<trkpt lat="32.748611450" lon="35.054851532">
  <ele>381.744629</ele>
  <time>2011-08-20T04:55:56Z</time>
  <speed>4.300000</speed>
</trkpt>
<trkpt lat="32.748580933" lon="35.054882050">
  <ele>382.221191</ele>
  <time>2011-08-20T04:55:57Z</time>
  <speed>4.160000</speed>
</trkpt>
<trkpt lat="32.748554230" lon="35.054908752">
  <ele>382.377441</ele>
  <time>2011-08-20T04:55:58Z</time>
  <speed>4.240000</speed>
</trkpt>
<trkpt lat="32.748527527" lon="35.054935455">
  <ele>382.158691</ele>
  <time>2011-08-20T04:55:59Z</time>
  <speed>3.970000</speed>
</trkpt>
<trkpt lat="32.748500824" lon="35.054958344">
  <ele>381.760254</ele>
  <time>2011-08-20T04:56:00Z</time>
  <speed>4.170000</speed>
</trkpt>
<trkpt lat="32.748470306" lon="35.054985046">
  <ele>382.463379</ele>
  <time>2011-08-20T04:56:01Z</time>
  <speed>4.070000</speed>
</trkpt>
<trkpt lat="32.748439789" lon="35.055004120">
  <ele>382.549316</ele>
  <time>2011-08-20T04:56:02Z</time>
  <speed>3.890000</speed>
</trkpt>
<trkpt lat="32.748409271" lon="35.055027008">
  <ele>382.580566</ele>
  <time>2011-08-20T04:56:03Z</time>
  <speed>3.980000</speed>
</trkpt>
<trkpt lat="32.748378754" lon="35.055046082">
  <ele>382.768066</ele>
  <time>2011-08-20T04:56:04Z</time>
  <speed>3.940000</speed>
</trkpt>
<trkpt lat="32.748344421" lon="35.055065155">
  <ele>381.932129</ele>
  <time>2011-08-20T04:56:05Z</time>
  <speed>3.910000</speed>
</trkpt>
<trkpt lat="32.748313904" lon="35.055088043">
  <ele>381.424316</ele>
  <time>2011-08-20T04:56:06Z</time>
  <speed>4.220000</speed>
</trkpt>
<trkpt lat="32.748275757" lon="35.055110931">
  <ele>380.854004</ele>
  <time>2011-08-20T04:56:07Z</time>
  <speed>4.390000</speed>
</trkpt>
<trkpt lat="32.748245239" lon="35.055137634">
  <ele>380.885254</ele>
  <time>2011-08-20T04:56:08Z</time>
  <speed>4.270000</speed>
</trkpt>
<trkpt lat="32.748210907" lon="35.055164337">
  <ele>380.838379</ele>
  <time>2011-08-20T04:56:09Z</time>
  <speed>4.270000</speed>
</trkpt>
<trkpt lat="32.748176575" lon="35.055187225">
  <ele>381.229004</ele>
  <time>2011-08-20T04:56:10Z</time>
  <speed>4.300000</speed>
</trkpt>
<trkpt lat="32.748142242" lon="35.055217743">
  <ele>381.010254</ele>
  <time>2011-08-20T04:56:11Z</time>
  <speed>4.580000</speed>
</trkpt>
<trkpt lat="32.748115540" lon="35.055248260">
  <ele>380.807129</ele>
  <time>2011-08-20T04:56:12Z</time>
  <speed>4.510000</speed>
</trkpt>
<trkpt lat="32.748081207" lon="35.055278778">
  <ele>381.104004</ele>
  <time>2011-08-20T04:56:13Z</time>
  <speed>4.730000</speed>
</trkpt>
<trkpt lat="32.748043060" lon="35.055309296">
  <ele>380.658691</ele>
  <time>2011-08-20T04:56:14Z</time>
  <speed>4.930000</speed>
</trkpt>
<trkpt lat="32.748012543" lon="35.055343628">
  <ele>381.494629</ele>
  <time>2011-08-20T04:56:15Z</time>
  <speed>4.890000</speed>
</trkpt>
<trkpt lat="32.747978210" lon="35.055381775">
  <ele>381.744629</ele>
  <time>2011-08-20T04:56:16Z</time>
  <speed>4.880000</speed>
</trkpt>
<trkpt lat="32.747943878" lon="35.055412292">
  <ele>381.580566</ele>
  <time>2011-08-20T04:56:17Z</time>
  <speed>4.900000</speed>
</trkpt>
<trkpt lat="32.747909546" lon="35.055442810">
  <ele>381.361816</ele>
  <time>2011-08-20T04:56:18Z</time>
  <speed>4.920000</speed>
</trkpt>
<trkpt lat="32.747875214" lon="35.055480957">
  <ele>381.674316</ele>
  <time>2011-08-20T04:56:19Z</time>
  <speed>4.900000</speed>
</trkpt>
<trkpt lat="32.747840881" lon="35.055515289">
  <ele>381.432129</ele>
  <time>2011-08-20T04:56:20Z</time>
  <speed>4.940000</speed>
</trkpt>
<trkpt lat="32.747810364" lon="35.055545807">
  <ele>381.721191</ele>
  <time>2011-08-20T04:56:21Z</time>
  <speed>4.850000</speed>
</trkpt>
<trkpt lat="32.747772217" lon="35.055572510">
  <ele>381.283691</ele>
  <time>2011-08-20T04:56:22Z</time>
  <speed>4.960000</speed>
</trkpt>
<trkpt lat="32.747734070" lon="35.055603027">
  <ele>381.182129</ele>
  <time>2011-08-20T04:56:23Z</time>
  <speed>4.960000</speed>
</trkpt>
<trkpt lat="32.747699738" lon="35.055637360">
  <ele>381.189941</ele>
  <time>2011-08-20T04:56:24Z</time>
  <speed>5.080000</speed>
</trkpt>
<trkpt lat="32.747657776" lon="35.055667877">
  <ele>380.486816</ele>
  <time>2011-08-20T04:56:25Z</time>
  <speed>5.080000</speed>
</trkpt>
<trkpt lat="32.747619629" lon="35.055694580">
  <ele>379.752441</ele>
  <time>2011-08-20T04:56:26Z</time>
  <speed>5.060000</speed>
</trkpt>
<trkpt lat="32.747581482" lon="35.055717468">
  <ele>379.572754</ele>
  <time>2011-08-20T04:56:27Z</time>
  <speed>4.870000</speed>
</trkpt>
<trkpt lat="32.747539520" lon="35.055736542">
  <ele>379.541504</ele>
  <time>2011-08-20T04:56:28Z</time>
  <speed>4.810000</speed>
</trkpt>
<trkpt lat="32.747493744" lon="35.055759430">
  <ele>379.385254</ele>
  <time>2011-08-20T04:56:29Z</time>
  <speed>5.270000</speed>
</trkpt>
<trkpt lat="32.747447968" lon="35.055774689">
  <ele>379.174316</ele>
  <time>2011-08-20T04:56:30Z</time>
  <speed>5.600000</speed>
</trkpt>
<trkpt lat="32.747394562" lon="35.055786133">
  <ele>379.518066</ele>
  <time>2011-08-20T04:56:31Z</time>
  <speed>5.470000</speed>
</trkpt>
<trkpt lat="32.747352600" lon="35.055805206">
  <ele>379.510254</ele>
  <time>2011-08-20T04:56:32Z</time>
  <speed>5.340000</speed>
</trkpt>
<trkpt lat="32.747306824" lon="35.055820465">
  <ele>378.846191</ele>
  <time>2011-08-20T04:56:33Z</time>
  <speed>5.230000</speed>
</trkpt>
<trkpt lat="32.747261047" lon="35.055839539">
  <ele>378.510254</ele>
  <time>2011-08-20T04:56:34Z</time>
  <speed>5.000000</speed>
</trkpt>
<trkpt lat="32.747219086" lon="35.055858612">
  <ele>378.354004</ele>
  <time>2011-08-20T04:56:35Z</time>
  <speed>4.850000</speed>
</trkpt>
<trkpt lat="32.747180939" lon="35.055881500">
  <ele>378.635254</ele>
  <time>2011-08-20T04:56:36Z</time>
  <speed>4.630000</speed>
</trkpt>
<trkpt lat="32.747138977" lon="35.055896759">
  <ele>378.502441</ele>
  <time>2011-08-20T04:56:37Z</time>
  <speed>4.640000</speed>
</trkpt>
<trkpt lat="32.747097015" lon="35.055908203">
  <ele>377.338379</ele>
  <time>2011-08-20T04:56:38Z</time>
  <speed>4.250000</speed>
</trkpt>
<trkpt lat="32.747058868" lon="35.055923462">
  <ele>376.799316</ele>
  <time>2011-08-20T04:56:39Z</time>
  <speed>4.340000</speed>
</trkpt>
<trkpt lat="32.747028351" lon="35.055942535">
  <ele>377.549316</ele>
  <time>2011-08-20T04:56:40Z</time>
  <speed>4.200000</speed>
</trkpt>
<trkpt lat="32.746990204" lon="35.055961609">
  <ele>377.877441</ele>
  <time>2011-08-20T04:56:41Z</time>
  <speed>4.480000</speed>
</trkpt>
<trkpt lat="32.746948242" lon="35.055980682">
  <ele>378.650879</ele>
  <time>2011-08-20T04:56:42Z</time>
  <speed>4.550000</speed>
</trkpt>
<trkpt lat="32.746910095" lon="35.055995941">
  <ele>379.088379</ele>
  <time>2011-08-20T04:56:43Z</time>
  <speed>4.610000</speed>
</trkpt>
<trkpt lat="32.746871948" lon="35.056011200">
  <ele>378.939941</ele>
  <time>2011-08-20T04:56:44Z</time>
  <speed>4.660000</speed>
</trkpt>
<trkpt lat="32.746829987" lon="35.056026459">
  <ele>378.549316</ele>
  <time>2011-08-20T04:56:45Z</time>
  <speed>4.700000</speed>
</trkpt>
<trkpt lat="32.746784210" lon="35.056045532">
  <ele>379.932129</ele>
  <time>2011-08-20T04:56:46Z</time>
  <speed>4.870000</speed>
</trkpt>
<trkpt lat="32.746742249" lon="35.056049347">
  <ele>379.400879</ele>
  <time>2011-08-20T04:56:47Z</time>
  <speed>4.640000</speed>
</trkpt>
<trkpt lat="32.746696472" lon="35.056064606">
  <ele>380.018066</ele>
  <time>2011-08-20T04:56:48Z</time>
  <speed>4.620000</speed>
</trkpt>
<trkpt lat="32.746650696" lon="35.056076050">
  <ele>379.885254</ele>
  <time>2011-08-20T04:56:49Z</time>
  <speed>4.650000</speed>
</trkpt>
<trkpt lat="32.746608734" lon="35.056091309">
  <ele>381.479004</ele>
  <time>2011-08-20T04:56:50Z</time>
  <speed>4.710000</speed>
</trkpt>
<trkpt lat="32.746570587" lon="35.056091309">
  <ele>381.150879</ele>
  <time>2011-08-20T04:56:51Z</time>
  <speed>4.380000</speed>
</trkpt>
<trkpt lat="32.746532440" lon="35.056095123">
  <ele>381.619629</ele>
  <time>2011-08-20T04:56:52Z</time>
  <speed>4.330000</speed>
</trkpt>
<trkpt lat="32.746490479" lon="35.056098938">
  <ele>381.463379</ele>
  <time>2011-08-20T04:56:53Z</time>
  <speed>4.560000</speed>
</trkpt>
<trkpt lat="32.746444702" lon="35.056102753">
  <ele>381.299316</ele>
  <time>2011-08-20T04:56:54Z</time>
  <speed>4.450000</speed>
</trkpt>
<trkpt lat="32.746398926" lon="35.056098938">
  <ele>380.791504</ele>
  <time>2011-08-20T04:56:55Z</time>
  <speed>4.600000</speed>
</trkpt>
<trkpt lat="32.746356964" lon="35.056091309">
  <ele>380.283691</ele>
  <time>2011-08-20T04:56:56Z</time>
  <speed>4.590000</speed>
</trkpt>
<trkpt lat="32.746318817" lon="35.056087494">
  <ele>380.361816</ele>
  <time>2011-08-20T04:56:57Z</time>
  <speed>4.360000</speed>
</trkpt>
<trkpt lat="32.746276855" lon="35.056079865">
  <ele>380.994629</ele>
  <time>2011-08-20T04:56:58Z</time>
  <speed>4.400000</speed>
</trkpt>
<trkpt lat="32.746234894" lon="35.056076050">
  <ele>381.221191</ele>
  <time>2011-08-20T04:56:59Z</time>
  <speed>4.540000</speed>
</trkpt>
<trkpt lat="32.746192932" lon="35.056072235">
  <ele>381.721191</ele>
  <time>2011-08-20T04:57:00Z</time>
  <speed>4.500000</speed>
</trkpt>
<trkpt lat="32.746154785" lon="35.056068420">
  <ele>381.650879</ele>
  <time>2011-08-20T04:57:01Z</time>
  <speed>4.570000</speed>
</trkpt>
<trkpt lat="32.746116638" lon="35.056064606">
  <ele>381.619629</ele>
  <time>2011-08-20T04:57:02Z</time>
  <speed>4.210000</speed>
</trkpt>
<trkpt lat="32.746074677" lon="35.056068420">
  <ele>383.674316</ele>
  <time>2011-08-20T04:57:03Z</time>
  <speed>4.110000</speed>
</trkpt>
<trkpt lat="32.746028900" lon="35.056068420">
  <ele>385.025879</ele>
  <time>2011-08-20T04:57:04Z</time>
  <speed>4.320000</speed>
</trkpt>
<trkpt lat="32.746002197" lon="35.056068420">
  <ele>386.416504</ele>
  <time>2011-08-20T04:57:05Z</time>
  <speed>3.910000</speed>
</trkpt>
<trkpt lat="32.745960236" lon="35.056064606">
  <ele>386.205566</ele>
  <time>2011-08-20T04:57:06Z</time>
  <speed>3.870000</speed>
</trkpt>
<trkpt lat="32.745929718" lon="35.056056976">
  <ele>386.150879</ele>
  <time>2011-08-20T04:57:07Z</time>
  <speed>3.830000</speed>
</trkpt>
<trkpt lat="32.745895386" lon="35.056060791">
  <ele>386.814941</ele>
  <time>2011-08-20T04:57:08Z</time>
  <speed>3.480000</speed>
</trkpt>
<trkpt lat="32.745864868" lon="35.056068420">
  <ele>387.369629</ele>
  <time>2011-08-20T04:57:09Z</time>
  <speed>3.430000</speed>
</trkpt>
<trkpt lat="32.745834351" lon="35.056072235">
  <ele>386.580566</ele>
  <time>2011-08-20T04:57:10Z</time>
  <speed>3.610000</speed>
</trkpt>
<trkpt lat="32.745800018" lon="35.056079865">
  <ele>385.900879</ele>
  <time>2011-08-20T04:57:11Z</time>
  <speed>3.310000</speed>
</trkpt>
<trkpt lat="32.745765686" lon="35.056087494">
  <ele>385.924316</ele>
  <time>2011-08-20T04:57:12Z</time>
  <speed>3.020000</speed>
</trkpt>
<trkpt lat="32.745712280" lon="35.056106567">
  <ele>386.674316</ele>
  <time>2011-08-20T04:57:14Z</time>
  <speed>3.050000</speed>
</trkpt>
<trkpt lat="32.745685577" lon="35.056121826">
  <ele>386.486816</ele>
  <time>2011-08-20T04:57:15Z</time>
  <speed>3.190000</speed>
</trkpt>
<trkpt lat="32.745655060" lon="35.056133270">
  <ele>386.713379</ele>
  <time>2011-08-20T04:57:16Z</time>
  <speed>3.100000</speed>
</trkpt>
<trkpt lat="32.745628357" lon="35.056140900">
  <ele>386.166504</ele>
  <time>2011-08-20T04:57:17Z</time>
  <speed>3.200000</speed>
</trkpt>
<trkpt lat="32.745601654" lon="35.056144714">
  <ele>384.979004</ele>
  <time>2011-08-20T04:57:18Z</time>
  <speed>2.870000</speed>
</trkpt>
<trkpt lat="32.745571136" lon="35.056156158">
  <ele>384.916504</ele>
  <time>2011-08-20T04:57:19Z</time>
  <speed>3.360000</speed>
</trkpt>
<trkpt lat="32.745517731" lon="35.056171417">
  <ele>384.455566</ele>
  <time>2011-08-20T04:57:21Z</time>
  <speed>2.940000</speed>
</trkpt>
<trkpt lat="32.745491028" lon="35.056175232">
  <ele>384.400879</ele>
  <time>2011-08-20T04:57:22Z</time>
  <speed>3.060000</speed>
</trkpt>
<trkpt lat="32.745441437" lon="35.056182861">
  <ele>384.088379</ele>
  <time>2011-08-20T04:57:24Z</time>
  <speed>2.740000</speed>
</trkpt>
<trkpt lat="32.745414734" lon="35.056186676">
  <ele>384.713379</ele>
  <time>2011-08-20T04:57:25Z</time>
  <speed>2.890000</speed>
</trkpt>
<trkpt lat="32.745388031" lon="35.056190491">
  <ele>384.846191</ele>
  <time>2011-08-20T04:57:26Z</time>
  <speed>2.900000</speed>
</trkpt>
<trkpt lat="32.745361328" lon="35.056198120">
  <ele>385.721191</ele>
  <time>2011-08-20T04:57:27Z</time>
  <speed>2.360000</speed>
</trkpt>
<trkpt lat="32.745311737" lon="35.056209564">
  <ele>386.697754</ele>
  <time>2011-08-20T04:57:29Z</time>
  <speed>2.670000</speed>
</trkpt>
<trkpt lat="32.745246887" lon="35.056232452">
  <ele>388.814941</ele>
  <time>2011-08-20T04:57:31Z</time>
  <speed>2.710000</speed>
</trkpt>
<trkpt lat="32.745197296" lon="35.056228638">
  <ele>388.283691</ele>
  <time>2011-08-20T04:57:33Z</time>
  <speed>2.830000</speed>
</trkpt>
<trkpt lat="32.745143890" lon="35.056221008">
  <ele>388.197754</ele>
  <time>2011-08-20T04:57:35Z</time>
  <speed>2.610000</speed>
</trkpt>
<trkpt lat="32.745117188" lon="35.056221008">
  <ele>387.721191</ele>
  <time>2011-08-20T04:57:36Z</time>
  <speed>2.820000</speed>
</trkpt>
<trkpt lat="32.745063782" lon="35.056217194">
  <ele>388.104004</ele>
  <time>2011-08-20T04:57:38Z</time>
  <speed>2.690000</speed>
</trkpt>
<trkpt lat="32.745014191" lon="35.056213379">
  <ele>387.658691</ele>
  <time>2011-08-20T04:57:40Z</time>
  <speed>2.560000</speed>
</trkpt>
<trkpt lat="32.744968414" lon="35.056213379">
  <ele>388.330566</ele>
  <time>2011-08-20T04:57:42Z</time>
  <speed>2.470000</speed>
</trkpt>
<trkpt lat="32.744922638" lon="35.056213379">
  <ele>388.088379</ele>
  <time>2011-08-20T04:57:44Z</time>
  <speed>2.780000</speed>
</trkpt>
<trkpt lat="32.744876862" lon="35.056224823">
  <ele>388.525879</ele>
  <time>2011-08-20T04:57:46Z</time>
  <speed>2.510000</speed>
</trkpt>
<trkpt lat="32.744850159" lon="35.056232452">
  <ele>388.619629</ele>
  <time>2011-08-20T04:57:47Z</time>
  <speed>2.600000</speed>
</trkpt>
<trkpt lat="32.744800568" lon="35.056240082">
  <ele>387.916504</ele>
  <time>2011-08-20T04:57:49Z</time>
  <speed>2.770000</speed>
</trkpt>
<trkpt lat="32.744754791" lon="35.056266785">
  <ele>389.369629</ele>
  <time>2011-08-20T04:57:51Z</time>
  <speed>2.810000</speed>
</trkpt>
<trkpt lat="32.744728088" lon="35.056278229">
  <ele>390.393066</ele>
  <time>2011-08-20T04:57:52Z</time>
  <speed>2.860000</speed>
</trkpt>
<trkpt lat="32.744689941" lon="35.056297302">
  <ele>391.393066</ele>
  <time>2011-08-20T04:57:54Z</time>
  <speed>2.520000</speed>
</trkpt>
<trkpt lat="32.744644165" lon="35.056312561">
  <ele>392.111816</ele>
  <time>2011-08-20T04:57:56Z</time>
  <speed>2.550000</speed>
</trkpt>
<trkpt lat="32.744621277" lon="35.056320190">
  <ele>393.400879</ele>
  <time>2011-08-20T04:57:57Z</time>
  <speed>2.750000</speed>
</trkpt>
<trkpt lat="32.744594574" lon="35.056335449">
  <ele>392.244629</ele>
  <time>2011-08-20T04:57:58Z</time>
  <speed>2.650000</speed>
</trkpt>
<trkpt lat="32.744548798" lon="35.056362152">
  <ele>392.572754</ele>
  <time>2011-08-20T04:58:00Z</time>
  <speed>2.590000</speed>
</trkpt>
<trkpt lat="32.744503021" lon="35.056381226">
  <ele>392.846191</ele>
  <time>2011-08-20T04:58:02Z</time>
  <speed>2.430000</speed>
</trkpt>
<trkpt lat="32.744449615" lon="35.056392670">
  <ele>392.916504</ele>
  <time>2011-08-20T04:58:04Z</time>
  <speed>2.820000</speed>
</trkpt>
<trkpt lat="32.744400024" lon="35.056404114">
  <ele>393.439941</ele>
  <time>2011-08-20T04:58:06Z</time>
  <speed>2.350000</speed>
</trkpt>
<trkpt lat="32.744358063" lon="35.056404114">
  <ele>394.244629</ele>
  <time>2011-08-20T04:58:08Z</time>
  <speed>2.550000</speed>
</trkpt>
<trkpt lat="32.744308472" lon="35.056423187">
  <ele>395.330566</ele>
  <time>2011-08-20T04:58:10Z</time>
  <speed>2.270000</speed>
</trkpt>
<trkpt lat="32.744270325" lon="35.056430817">
  <ele>395.643066</ele>
  <time>2011-08-20T04:58:12Z</time>
  <speed>2.480000</speed>
</trkpt>
<trkpt lat="32.744220734" lon="35.056434631">
  <ele>395.611816</ele>
  <time>2011-08-20T04:58:14Z</time>
  <speed>2.560000</speed>
</trkpt>
<trkpt lat="32.744174957" lon="35.056453705">
  <ele>396.729004</ele>
  <time>2011-08-20T04:58:16Z</time>
  <speed>2.200000</speed>
</trkpt>
<trkpt lat="32.744129181" lon="35.056472778">
  <ele>396.736816</ele>
  <time>2011-08-20T04:58:18Z</time>
  <speed>2.180000</speed>
</trkpt>
<trkpt lat="32.744087219" lon="35.056488037">
  <ele>396.479004</ele>
  <time>2011-08-20T04:58:20Z</time>
  <speed>1.900000</speed>
</trkpt>
<trkpt lat="32.744056702" lon="35.056488037">
  <ele>395.900879</ele>
  <time>2011-08-20T04:58:21Z</time>
  <speed>2.310000</speed>
</trkpt>
<trkpt lat="32.744022369" lon="35.056488037">
  <ele>394.432129</ele>
  <time>2011-08-20T04:58:23Z</time>
  <speed>1.980000</speed>
</trkpt>
<trkpt lat="32.743988037" lon="35.056484222">
  <ele>395.104004</ele>
  <time>2011-08-20T04:58:25Z</time>
  <speed>2.080000</speed>
</trkpt>
<trkpt lat="32.743949890" lon="35.056484222">
  <ele>394.963379</ele>
  <time>2011-08-20T04:58:27Z</time>
  <speed>2.090000</speed>
</trkpt>
<trkpt lat="32.743915558" lon="35.056499481">
  <ele>397.111816</ele>
  <time>2011-08-20T04:58:29Z</time>
  <speed>1.820000</speed>
</trkpt>
<trkpt lat="32.743885040" lon="35.056518555">
  <ele>397.299316</ele>
  <time>2011-08-20T04:58:31Z</time>
  <speed>1.630000</speed>
</trkpt>
<trkpt lat="32.743854523" lon="35.056533813">
  <ele>397.854004</ele>
  <time>2011-08-20T04:58:33Z</time>
  <speed>1.550000</speed>
</trkpt>
<trkpt lat="32.743816376" lon="35.056556702">
  <ele>399.674316</ele>
  <time>2011-08-20T04:58:35Z</time>
  <speed>1.600000</speed>
</trkpt>
<trkpt lat="32.743778229" lon="35.056556702">
  <ele>399.869629</ele>
  <time>2011-08-20T04:58:37Z</time>
  <speed>1.760000</speed>
</trkpt>
<trkpt lat="32.743743896" lon="35.056560516">
  <ele>400.221191</ele>
  <time>2011-08-20T04:58:39Z</time>
  <speed>1.960000</speed>
</trkpt>
<trkpt lat="32.743705750" lon="35.056560516">
  <ele>400.658691</ele>
  <time>2011-08-20T04:58:41Z</time>
  <speed>1.830000</speed>
</trkpt>
<trkpt lat="32.743663788" lon="35.056571960">
  <ele>401.189941</ele>
  <time>2011-08-20T04:58:43Z</time>
  <speed>2.110000</speed>
</trkpt>
<trkpt lat="32.743633270" lon="35.056568146">
  <ele>401.510254</ele>
  <time>2011-08-20T04:58:45Z</time>
  <speed>1.820000</speed>
</trkpt>
<trkpt lat="32.743602753" lon="35.056571960">
  <ele>401.908691</ele>
  <time>2011-08-20T04:58:47Z</time>
  <speed>1.830000</speed>
</trkpt>
<trkpt lat="32.743564606" lon="35.056583405">
  <ele>402.658691</ele>
  <time>2011-08-20T04:58:49Z</time>
  <speed>1.530000</speed>
</trkpt>
<trkpt lat="32.743526459" lon="35.056587219">
  <ele>402.330566</ele>
  <time>2011-08-20T04:58:51Z</time>
  <speed>2.100000</speed>
</trkpt>
<trkpt lat="32.743492126" lon="35.056591034">
  <ele>402.119629</ele>
  <time>2011-08-20T04:58:53Z</time>
  <speed>1.920000</speed>
</trkpt>
<trkpt lat="32.743453979" lon="35.056587219">
  <ele>401.854004</ele>
  <time>2011-08-20T04:58:55Z</time>
  <speed>1.890000</speed>
</trkpt>
<trkpt lat="32.743419647" lon="35.056587219">
  <ele>401.814941</ele>
  <time>2011-08-20T04:58:57Z</time>
  <speed>1.720000</speed>
</trkpt>
<trkpt lat="32.743385315" lon="35.056591034">
  <ele>401.666504</ele>
  <time>2011-08-20T04:58:59Z</time>
  <speed>1.850000</speed>
</trkpt>
<trkpt lat="32.743347168" lon="35.056591034">
  <ele>401.604004</ele>
  <time>2011-08-20T04:59:01Z</time>
  <speed>2.140000</speed>
</trkpt>
<trkpt lat="32.743305206" lon="35.056602478">
  <ele>401.721191</ele>
  <time>2011-08-20T04:59:03Z</time>
  <speed>1.860000</speed>
</trkpt>
<trkpt lat="32.743278503" lon="35.056594849">
  <ele>402.455566</ele>
  <time>2011-08-20T04:59:05Z</time>
  <speed>1.670000</speed>
</trkpt>
<trkpt lat="32.743244171" lon="35.056606293">
  <ele>403.197754</ele>
  <time>2011-08-20T04:59:07Z</time>
  <speed>1.770000</speed>
</trkpt>
<trkpt lat="32.743206024" lon="35.056606293">
  <ele>402.932129</ele>
  <time>2011-08-20T04:59:09Z</time>
  <speed>1.810000</speed>
</trkpt>
<trkpt lat="32.743175507" lon="35.056598663">
  <ele>402.924316</ele>
  <time>2011-08-20T04:59:11Z</time>
  <speed>1.620000</speed>
</trkpt>
<trkpt lat="32.743137360" lon="35.056591034">
  <ele>403.025879</ele>
  <time>2011-08-20T04:59:13Z</time>
  <speed>1.900000</speed>
</trkpt>
<trkpt lat="32.743103027" lon="35.056583405">
  <ele>403.205566</ele>
  <time>2011-08-20T04:59:15Z</time>
  <speed>1.730000</speed>
</trkpt>
<trkpt lat="32.743072510" lon="35.056568146">
  <ele>404.221191</ele>
  <time>2011-08-20T04:59:17Z</time>
  <speed>1.810000</speed>
</trkpt>
<trkpt lat="32.743072510" lon="35.056529999">
  <ele>403.564941</ele>
  <time>2011-08-20T04:59:19Z</time>
  <speed>1.350000</speed>
</trkpt>
<trkpt lat="32.743080139" lon="35.056484222">
  <ele>403.658691</ele>
  <time>2011-08-20T04:59:21Z</time>
  <speed>1.630000</speed>
</trkpt>
<trkpt lat="32.743103027" lon="35.056449890">
  <ele>405.057129</ele>
  <time>2011-08-20T04:59:23Z</time>
  <speed>1.620000</speed>
</trkpt>
<trkpt lat="32.743129730" lon="35.056434631">
  <ele>405.455566</ele>
  <time>2011-08-20T04:59:25Z</time>
  <speed>1.680000</speed>
</trkpt>
<trkpt lat="32.743164063" lon="35.056419373">
  <ele>406.088379</ele>
  <time>2011-08-20T04:59:27Z</time>
  <speed>1.900000</speed>
</trkpt>
<trkpt lat="32.743198395" lon="35.056407928">
  <ele>406.361816</ele>
  <time>2011-08-20T04:59:29Z</time>
  <speed>1.440000</speed>
</trkpt>
<trkpt lat="32.743228912" lon="35.056388855">
  <ele>406.244629</ele>
  <time>2011-08-20T04:59:31Z</time>
  <speed>1.710000</speed>
</trkpt>
<trkpt lat="32.743251801" lon="35.056365967">
  <ele>406.775879</ele>
  <time>2011-08-20T04:59:33Z</time>
  <speed>1.520000</speed>
</trkpt>
<trkpt lat="32.743286133" lon="35.056339264">
  <ele>407.283691</ele>
  <time>2011-08-20T04:59:35Z</time>
  <speed>1.820000</speed>
</trkpt>
<trkpt lat="32.743312836" lon="35.056327820">
  <ele>407.549316</ele>
  <time>2011-08-20T04:59:36Z</time>
  <speed>2.060000</speed>
</trkpt>
<trkpt lat="32.743347168" lon="35.056297302">
  <ele>408.002441</ele>
  <time>2011-08-20T04:59:38Z</time>
  <speed>1.880000</speed>
</trkpt>
<trkpt lat="32.743370056" lon="35.056278229">
  <ele>408.463379</ele>
  <time>2011-08-20T04:59:40Z</time>
  <speed>1.570000</speed>
</trkpt>
<trkpt lat="32.743396759" lon="35.056262970">
  <ele>408.791504</ele>
  <time>2011-08-20T04:59:42Z</time>
  <speed>1.490000</speed>
</trkpt>
<trkpt lat="32.743423462" lon="35.056243896">
  <ele>408.846191</ele>
  <time>2011-08-20T04:59:44Z</time>
  <speed>1.830000</speed>
</trkpt>
<trkpt lat="32.743446350" lon="35.056224823">
  <ele>409.346191</ele>
  <time>2011-08-20T04:59:46Z</time>
  <speed>1.380000</speed>
</trkpt>
<trkpt lat="32.743473053" lon="35.056201935">
  <ele>411.041504</ele>
  <time>2011-08-20T04:59:48Z</time>
  <speed>1.460000</speed>
</trkpt>
<trkpt lat="32.743515015" lon="35.056194305">
  <ele>410.729004</ele>
  <time>2011-08-20T04:59:50Z</time>
  <speed>1.680000</speed>
</trkpt>
<trkpt lat="32.743537903" lon="35.056171417">
  <ele>411.424316</ele>
  <time>2011-08-20T04:59:52Z</time>
  <speed>1.330000</speed>
</trkpt>
<trkpt lat="32.743572235" lon="35.056144714">
  <ele>412.588379</ele>
  <time>2011-08-20T04:59:54Z</time>
  <speed>1.430000</speed>
</trkpt>
<trkpt lat="32.743602753" lon="35.056114197">
  <ele>413.768066</ele>
  <time>2011-08-20T04:59:56Z</time>
  <speed>1.330000</speed>
</trkpt>
<trkpt lat="32.743625641" lon="35.056095123">
  <ele>413.604004</ele>
  <time>2011-08-20T04:59:58Z</time>
  <speed>1.530000</speed>
</trkpt>
<trkpt lat="32.743656158" lon="35.056079865">
  <ele>413.580566</ele>
  <time>2011-08-20T05:00:00Z</time>
  <speed>1.930000</speed>
</trkpt>
<trkpt lat="32.743686676" lon="35.056064606">
  <ele>413.486816</ele>
  <time>2011-08-20T05:00:02Z</time>
  <speed>1.570000</speed>
</trkpt>
<trkpt lat="32.743732452" lon="35.056049347">
  <ele>414.088379</ele>
  <time>2011-08-20T05:00:04Z</time>
  <speed>1.830000</speed>
</trkpt>
<trkpt lat="32.743759155" lon="35.056056976">
  <ele>415.072754</ele>
  <time>2011-08-20T05:00:05Z</time>
  <speed>1.820000</speed>
</trkpt>
<trkpt lat="32.743797302" lon="35.056018829">
  <ele>414.291504</ele>
  <time>2011-08-20T05:00:07Z</time>
  <speed>2.280000</speed>
</trkpt>
<trkpt lat="32.743839264" lon="35.055995941">
  <ele>415.275879</ele>
  <time>2011-08-20T05:00:09Z</time>
  <speed>2.330000</speed>
</trkpt>
<trkpt lat="32.743877411" lon="35.055976868">
  <ele>415.869629</ele>
  <time>2011-08-20T05:00:11Z</time>
  <speed>2.210000</speed>
</trkpt>
<trkpt lat="32.743911743" lon="35.055953979">
  <ele>415.275879</ele>
  <time>2011-08-20T05:00:13Z</time>
  <speed>2.280000</speed>
</trkpt>
<trkpt lat="32.743942261" lon="35.055915833">
  <ele>415.572754</ele>
  <time>2011-08-20T05:00:15Z</time>
  <speed>2.560000</speed>
</trkpt>
<trkpt lat="32.743976593" lon="35.055885315">
  <ele>415.197754</ele>
  <time>2011-08-20T05:00:17Z</time>
  <speed>2.110000</speed>
</trkpt>
<trkpt lat="32.744007111" lon="35.055854797">
  <ele>415.541504</ele>
  <time>2011-08-20T05:00:19Z</time>
  <speed>2.280000</speed>
</trkpt>
<trkpt lat="32.744041443" lon="35.055812836">
  <ele>416.807129</ele>
  <time>2011-08-20T05:00:21Z</time>
  <speed>2.170000</speed>
</trkpt>
<trkpt lat="32.744079590" lon="35.055774689">
  <ele>417.799316</ele>
  <time>2011-08-20T05:00:23Z</time>
  <speed>2.480000</speed>
</trkpt>
<trkpt lat="32.744106293" lon="35.055732727">
  <ele>418.955566</ele>
  <time>2011-08-20T05:00:25Z</time>
  <speed>2.300000</speed>
</trkpt>
<trkpt lat="32.744129181" lon="35.055690765">
  <ele>420.080566</ele>
  <time>2011-08-20T05:00:27Z</time>
  <speed>2.070000</speed>
</trkpt>
<trkpt lat="32.744155884" lon="35.055648804">
  <ele>420.041504</ele>
  <time>2011-08-20T05:00:29Z</time>
  <speed>2.110000</speed>
</trkpt>
<trkpt lat="32.744174957" lon="35.055603027">
  <ele>420.182129</ele>
  <time>2011-08-20T05:00:31Z</time>
  <speed>1.990000</speed>
</trkpt>
<trkpt lat="32.744197845" lon="35.055561066">
  <ele>419.736816</ele>
  <time>2011-08-20T05:00:33Z</time>
  <speed>1.990000</speed>
</trkpt>
<trkpt lat="32.744228363" lon="35.055541992">
  <ele>419.783691</ele>
  <time>2011-08-20T05:00:35Z</time>
  <speed>2.180000</speed>
</trkpt>
<trkpt lat="32.744251251" lon="35.055522919">
  <ele>420.182129</ele>
  <time>2011-08-20T05:00:36Z</time>
  <speed>2.270000</speed>
</trkpt>
<trkpt lat="32.744289398" lon="35.055480957">
  <ele>421.424316</ele>
  <time>2011-08-20T05:00:38Z</time>
  <speed>2.490000</speed>
</trkpt>
<trkpt lat="32.744327545" lon="35.055442810">
  <ele>420.682129</ele>
  <time>2011-08-20T05:00:40Z</time>
  <speed>2.190000</speed>
</trkpt>
<trkpt lat="32.744358063" lon="35.055416107">
  <ele>420.986816</ele>
  <time>2011-08-20T05:00:42Z</time>
  <speed>2.140000</speed>
</trkpt>
<trkpt lat="32.744384766" lon="35.055377960">
  <ele>421.643066</ele>
  <time>2011-08-20T05:00:44Z</time>
  <speed>2.160000</speed>
</trkpt>
<trkpt lat="32.744411469" lon="35.055335999">
  <ele>421.432129</ele>
  <time>2011-08-20T05:00:46Z</time>
  <speed>2.400000</speed>
</trkpt>
<trkpt lat="32.744438171" lon="35.055297852">
  <ele>420.611816</ele>
  <time>2011-08-20T05:00:48Z</time>
  <speed>2.230000</speed>
</trkpt>
<trkpt lat="32.744464874" lon="35.055255890">
  <ele>421.322754</ele>
  <time>2011-08-20T05:00:50Z</time>
  <speed>2.240000</speed>
</trkpt>
<trkpt lat="32.744499207" lon="35.055213928">
  <ele>421.283691</ele>
  <time>2011-08-20T05:00:52Z</time>
  <speed>2.000000</speed>
</trkpt>
<trkpt lat="32.744529724" lon="35.055175781">
  <ele>420.908691</ele>
  <time>2011-08-20T05:00:54Z</time>
  <speed>2.210000</speed>
</trkpt>
<trkpt lat="32.744564056" lon="35.055137634">
  <ele>419.736816</ele>
  <time>2011-08-20T05:00:56Z</time>
  <speed>2.210000</speed>
</trkpt>
<trkpt lat="32.744590759" lon="35.055091858">
  <ele>420.861816</ele>
  <time>2011-08-20T05:00:58Z</time>
  <speed>1.690000</speed>
</trkpt>
<trkpt lat="32.744609833" lon="35.055049896">
  <ele>421.346191</ele>
  <time>2011-08-20T05:01:00Z</time>
  <speed>2.120000</speed>
</trkpt>
<trkpt lat="32.744625092" lon="35.055023193">
  <ele>422.064941</ele>
  <time>2011-08-20T05:01:01Z</time>
  <speed>2.110000</speed>
</trkpt>
<trkpt lat="32.744647980" lon="35.054988861">
  <ele>421.471191</ele>
  <time>2011-08-20T05:01:03Z</time>
  <speed>2.230000</speed>
</trkpt>
<trkpt lat="32.744689941" lon="35.054950714">
  <ele>422.174316</ele>
  <time>2011-08-20T05:01:05Z</time>
  <speed>2.580000</speed>
</trkpt>
<trkpt lat="32.744709015" lon="35.054927826">
  <ele>422.229004</ele>
  <time>2011-08-20T05:01:06Z</time>
  <speed>2.280000</speed>
</trkpt>
<trkpt lat="32.744724274" lon="35.054901123">
  <ele>423.213379</ele>
  <time>2011-08-20T05:01:07Z</time>
  <speed>2.240000</speed>
</trkpt>
<trkpt lat="32.744754791" lon="35.054859161">
  <ele>423.838379</ele>
  <time>2011-08-20T05:01:09Z</time>
  <speed>2.490000</speed>
</trkpt>
<trkpt lat="32.744785309" lon="35.054817200">
  <ele>424.400879</ele>
  <time>2011-08-20T05:01:11Z</time>
  <speed>2.240000</speed>
</trkpt>
<trkpt lat="32.744827271" lon="35.054779053">
  <ele>425.002441</ele>
  <time>2011-08-20T05:01:13Z</time>
  <speed>2.480000</speed>
</trkpt>
<trkpt lat="32.744869232" lon="35.054752350">
  <ele>424.518066</ele>
  <time>2011-08-20T05:01:15Z</time>
  <speed>2.690000</speed>
</trkpt>
<trkpt lat="32.744911194" lon="35.054737091">
  <ele>424.963379</ele>
  <time>2011-08-20T05:01:17Z</time>
  <speed>2.230000</speed>
</trkpt>
<trkpt lat="32.744941711" lon="35.054706573">
  <ele>424.588379</ele>
  <time>2011-08-20T05:01:19Z</time>
  <speed>2.560000</speed>
</trkpt>
<trkpt lat="32.744976044" lon="35.054668427">
  <ele>424.283691</ele>
  <time>2011-08-20T05:01:21Z</time>
  <speed>2.240000</speed>
</trkpt>
<trkpt lat="32.745002747" lon="35.054630280">
  <ele>424.932129</ele>
  <time>2011-08-20T05:01:23Z</time>
  <speed>2.370000</speed>
</trkpt>
<trkpt lat="32.745014191" lon="35.054595947">
  <ele>425.361816</ele>
  <time>2011-08-20T05:01:24Z</time>
  <speed>2.170000</speed>
</trkpt>
<trkpt lat="32.745040894" lon="35.054553986">
  <ele>425.283691</ele>
  <time>2011-08-20T05:01:26Z</time>
  <speed>2.230000</speed>
</trkpt>
<trkpt lat="32.745063782" lon="35.054508209">
  <ele>425.104004</ele>
  <time>2011-08-20T05:01:28Z</time>
  <speed>2.410000</speed>
</trkpt>
<trkpt lat="32.745086670" lon="35.054470062">
  <ele>424.971191</ele>
  <time>2011-08-20T05:01:30Z</time>
  <speed>2.110000</speed>
</trkpt>
<trkpt lat="32.745109558" lon="35.054416656">
  <ele>426.486816</ele>
  <time>2011-08-20T05:01:32Z</time>
  <speed>2.000000</speed>
</trkpt>
<trkpt lat="32.745121002" lon="35.054370880">
  <ele>426.674316</ele>
  <time>2011-08-20T05:01:34Z</time>
  <speed>2.160000</speed>
</trkpt>
<trkpt lat="32.745128632" lon="35.054321289">
  <ele>426.900879</ele>
  <time>2011-08-20T05:01:36Z</time>
  <speed>2.210000</speed>
</trkpt>
<trkpt lat="32.745136261" lon="35.054267883">
  <ele>426.877441</ele>
  <time>2011-08-20T05:01:38Z</time>
  <speed>2.500000</speed>
</trkpt>
<trkpt lat="32.745147705" lon="35.054218292">
  <ele>426.791504</ele>
  <time>2011-08-20T05:01:40Z</time>
  <speed>2.110000</speed>
</trkpt>
<trkpt lat="32.745151520" lon="35.054164886">
  <ele>426.580566</ele>
  <time>2011-08-20T05:01:42Z</time>
  <speed>2.200000</speed>
</trkpt>
<trkpt lat="32.745159149" lon="35.054115295">
  <ele>426.229004</ele>
  <time>2011-08-20T05:01:44Z</time>
  <speed>2.200000</speed>
</trkpt>
<trkpt lat="32.745174408" lon="35.054069519">
  <ele>426.455566</ele>
  <time>2011-08-20T05:01:46Z</time>
  <speed>1.920000</speed>
</trkpt>
<trkpt lat="32.745185852" lon="35.054035187">
  <ele>426.189941</ele>
  <time>2011-08-20T05:01:48Z</time>
  <speed>1.590000</speed>
</trkpt>
<trkpt lat="32.745220184" lon="35.054008484">
  <ele>427.135254</ele>
  <time>2011-08-20T05:01:50Z</time>
  <speed>2.090000</speed>
</trkpt>
<trkpt lat="32.745243073" lon="35.053997040">
  <ele>426.650879</ele>
  <time>2011-08-20T05:01:51Z</time>
  <speed>2.190000</speed>
</trkpt>
<trkpt lat="32.745296478" lon="35.053981781">
  <ele>425.963379</ele>
  <time>2011-08-20T05:01:53Z</time>
  <speed>2.140000</speed>
</trkpt>
<trkpt lat="32.745334625" lon="35.053974152">
  <ele>426.291504</ele>
  <time>2011-08-20T05:01:55Z</time>
  <speed>2.050000</speed>
</trkpt>
<trkpt lat="32.745368958" lon="35.053966522">
  <ele>427.111816</ele>
  <time>2011-08-20T05:01:57Z</time>
  <speed>1.870000</speed>
</trkpt>
<trkpt lat="32.745410919" lon="35.053970337">
  <ele>426.994629</ele>
  <time>2011-08-20T05:01:59Z</time>
  <speed>1.850000</speed>
</trkpt>
<trkpt lat="32.745449066" lon="35.053970337">
  <ele>427.424316</ele>
  <time>2011-08-20T05:02:01Z</time>
  <speed>1.970000</speed>
</trkpt>
<trkpt lat="32.745475769" lon="35.053970337">
  <ele>426.971191</ele>
  <time>2011-08-20T05:02:02Z</time>
  <speed>2.010000</speed>
</trkpt>
<trkpt lat="32.745510101" lon="35.053970337">
  <ele>429.486816</ele>
  <time>2011-08-20T05:02:04Z</time>
  <speed>1.490000</speed>
</trkpt>
<trkpt lat="32.745548248" lon="35.053962708">
  <ele>429.533691</ele>
  <time>2011-08-20T05:02:06Z</time>
  <speed>1.570000</speed>
</trkpt>
<trkpt lat="32.745582581" lon="35.053958893">
  <ele>430.494629</ele>
  <time>2011-08-20T05:02:08Z</time>
  <speed>1.400000</speed>
</trkpt>
<trkpt lat="32.745609283" lon="35.053955078">
  <ele>431.252441</ele>
  <time>2011-08-20T05:02:09Z</time>
  <speed>2.200000</speed>
</trkpt>
<trkpt lat="32.745639801" lon="35.053955078">
  <ele>430.963379</ele>
  <time>2011-08-20T05:02:10Z</time>
  <speed>2.250000</speed>
</trkpt>
<trkpt lat="32.745685577" lon="35.053958893">
  <ele>431.596191</ele>
  <time>2011-08-20T05:02:12Z</time>
  <speed>2.320000</speed>
</trkpt>
<trkpt lat="32.745723724" lon="35.053943634">
  <ele>430.369629</ele>
  <time>2011-08-20T05:02:14Z</time>
  <speed>1.990000</speed>
</trkpt>
<trkpt lat="32.745765686" lon="35.053936005">
  <ele>432.510254</ele>
  <time>2011-08-20T05:02:16Z</time>
  <speed>2.220000</speed>
</trkpt>
<trkpt lat="32.745803833" lon="35.053936005">
  <ele>435.166504</ele>
  <time>2011-08-20T05:02:18Z</time>
  <speed>2.020000</speed>
</trkpt>
<trkpt lat="32.745853424" lon="35.053936005">
  <ele>433.268066</ele>
  <time>2011-08-20T05:02:20Z</time>
  <speed>2.240000</speed>
</trkpt>
<trkpt lat="32.745891571" lon="35.053928375">
  <ele>433.369629</ele>
  <time>2011-08-20T05:02:22Z</time>
  <speed>2.060000</speed>
</trkpt>
<trkpt lat="32.745929718" lon="35.053924561">
  <ele>433.299316</ele>
  <time>2011-08-20T05:02:24Z</time>
  <speed>2.320000</speed>
</trkpt>
<trkpt lat="32.745979309" lon="35.053924561">
  <ele>431.963379</ele>
  <time>2011-08-20T05:02:26Z</time>
  <speed>2.490000</speed>
</trkpt>
<trkpt lat="32.746025085" lon="35.053920746">
  <ele>432.463379</ele>
  <time>2011-08-20T05:02:28Z</time>
  <speed>2.200000</speed>
</trkpt>
<trkpt lat="32.746059418" lon="35.053905487">
  <ele>432.947754</ele>
  <time>2011-08-20T05:02:30Z</time>
  <speed>1.910000</speed>
</trkpt>
<trkpt lat="32.746101379" lon="35.053894043">
  <ele>432.619629</ele>
  <time>2011-08-20T05:02:32Z</time>
  <speed>1.700000</speed>
</trkpt>
<trkpt lat="32.746135712" lon="35.053871155">
  <ele>432.682129</ele>
  <time>2011-08-20T05:02:34Z</time>
  <speed>1.910000</speed>
</trkpt>
<trkpt lat="32.746177673" lon="35.053859711">
  <ele>431.947754</ele>
  <time>2011-08-20T05:02:36Z</time>
  <speed>2.340000</speed>
</trkpt>
<trkpt lat="32.746223450" lon="35.053859711">
  <ele>431.877441</ele>
  <time>2011-08-20T05:02:38Z</time>
  <speed>2.130000</speed>
</trkpt>
<trkpt lat="32.746265411" lon="35.053852081">
  <ele>433.557129</ele>
  <time>2011-08-20T05:02:40Z</time>
  <speed>2.370000</speed>
</trkpt>
<trkpt lat="32.746303558" lon="35.053848267">
  <ele>435.174316</ele>
  <time>2011-08-20T05:02:42Z</time>
  <speed>2.090000</speed>
</trkpt>
<trkpt lat="32.746345520" lon="35.053848267">
  <ele>435.260254</ele>
  <time>2011-08-20T05:02:44Z</time>
  <speed>2.410000</speed>
</trkpt>
<trkpt lat="32.746383667" lon="35.053844452">
  <ele>436.104004</ele>
  <time>2011-08-20T05:02:46Z</time>
  <speed>1.780000</speed>
</trkpt>
<trkpt lat="32.746414185" lon="35.053833008">
  <ele>437.479004</ele>
  <time>2011-08-20T05:02:48Z</time>
  <speed>1.940000</speed>
</trkpt>
<trkpt lat="32.746459961" lon="35.053833008">
  <ele>436.236816</ele>
  <time>2011-08-20T05:02:50Z</time>
  <speed>1.890000</speed>
</trkpt>
<trkpt lat="32.746490479" lon="35.053829193">
  <ele>438.455566</ele>
  <time>2011-08-20T05:02:52Z</time>
  <speed>1.870000</speed>
</trkpt>
<trkpt lat="32.746532440" lon="35.053829193">
  <ele>439.791504</ele>
  <time>2011-08-20T05:02:54Z</time>
  <speed>2.150000</speed>
</trkpt>
<trkpt lat="32.746574402" lon="35.053829193">
  <ele>440.518066</ele>
  <time>2011-08-20T05:02:56Z</time>
  <speed>2.310000</speed>
</trkpt>
<trkpt lat="32.746620178" lon="35.053833008">
  <ele>440.486816</ele>
  <time>2011-08-20T05:02:58Z</time>
  <speed>2.050000</speed>
</trkpt>
<trkpt lat="32.746665955" lon="35.053833008">
  <ele>440.018066</ele>
  <time>2011-08-20T05:03:00Z</time>
  <speed>2.140000</speed>
</trkpt>
<trkpt lat="32.746711731" lon="35.053836823">
  <ele>440.268066</ele>
  <time>2011-08-20T05:03:02Z</time>
  <speed>1.890000</speed>
</trkpt>
<trkpt lat="32.746753693" lon="35.053840637">
  <ele>439.635254</ele>
  <time>2011-08-20T05:03:04Z</time>
  <speed>1.990000</speed>
</trkpt>
<trkpt lat="32.746791840" lon="35.053840637">
  <ele>439.861816</ele>
  <time>2011-08-20T05:03:06Z</time>
  <speed>2.220000</speed>
</trkpt>
<trkpt lat="32.746833801" lon="35.053855896">
  <ele>440.119629</ele>
  <time>2011-08-20T05:03:08Z</time>
  <speed>2.270000</speed>
</trkpt>
<trkpt lat="32.746871948" lon="35.053863525">
  <ele>441.057129</ele>
  <time>2011-08-20T05:03:10Z</time>
  <speed>2.170000</speed>
</trkpt>
<trkpt lat="32.746910095" lon="35.053867340">
  <ele>441.479004</ele>
  <time>2011-08-20T05:03:12Z</time>
  <speed>2.170000</speed>
</trkpt>
<trkpt lat="32.746948242" lon="35.053871155">
  <ele>441.369629</ele>
  <time>2011-08-20T05:03:14Z</time>
  <speed>2.130000</speed>
</trkpt>
<trkpt lat="32.746990204" lon="35.053874969">
  <ele>441.244629</ele>
  <time>2011-08-20T05:03:16Z</time>
  <speed>2.050000</speed>
</trkpt>
<trkpt lat="32.747028351" lon="35.053871155">
  <ele>441.236816</ele>
  <time>2011-08-20T05:03:18Z</time>
  <speed>2.400000</speed>
</trkpt>
<trkpt lat="32.747074127" lon="35.053855896">
  <ele>440.236816</ele>
  <time>2011-08-20T05:03:20Z</time>
  <speed>2.120000</speed>
</trkpt>
<trkpt lat="32.747116089" lon="35.053848267">
  <ele>440.557129</ele>
  <time>2011-08-20T05:03:22Z</time>
  <speed>2.310000</speed>
</trkpt>
<trkpt lat="32.747150421" lon="35.053836823">
  <ele>440.299316</ele>
  <time>2011-08-20T05:03:24Z</time>
  <speed>2.000000</speed>
</trkpt>
<trkpt lat="32.747177124" lon="35.053817749">
  <ele>441.236816</ele>
  <time>2011-08-20T05:03:26Z</time>
  <speed>2.220000</speed>
</trkpt>
<trkpt lat="32.747222900" lon="35.053794861">
  <ele>440.939941</ele>
  <time>2011-08-20T05:03:28Z</time>
  <speed>2.130000</speed>
</trkpt>
<trkpt lat="32.747241974" lon="35.053775787">
  <ele>443.127441</ele>
  <time>2011-08-20T05:03:30Z</time>
  <speed>2.380000</speed>
</trkpt>
<trkpt lat="32.747276306" lon="35.053749084">
  <ele>442.713379</ele>
  <time>2011-08-20T05:03:32Z</time>
  <speed>2.370000</speed>
</trkpt>
<trkpt lat="32.747314453" lon="35.053737640">
  <ele>442.572754</ele>
  <time>2011-08-20T05:03:34Z</time>
  <speed>2.150000</speed>
</trkpt>
<trkpt lat="32.747352600" lon="35.053722382">
  <ele>443.127441</ele>
  <time>2011-08-20T05:03:36Z</time>
  <speed>2.340000</speed>
</trkpt>
<trkpt lat="32.747386932" lon="35.053703308">
  <ele>443.830566</ele>
  <time>2011-08-20T05:03:38Z</time>
  <speed>2.450000</speed>
</trkpt>
<trkpt lat="32.747425079" lon="35.053680420">
  <ele>444.213379</ele>
  <time>2011-08-20T05:03:40Z</time>
  <speed>2.110000</speed>
</trkpt>
<trkpt lat="32.747447968" lon="35.053642273">
  <ele>443.541504</ele>
  <time>2011-08-20T05:03:42Z</time>
  <speed>2.310000</speed>
</trkpt>
<trkpt lat="32.747478485" lon="35.053600311">
  <ele>443.596191</ele>
  <time>2011-08-20T05:03:44Z</time>
  <speed>2.270000</speed>
</trkpt>
<trkpt lat="32.747501373" lon="35.053562164">
  <ele>444.127441</ele>
  <time>2011-08-20T05:03:46Z</time>
  <speed>2.270000</speed>
</trkpt>
<trkpt lat="32.747520447" lon="35.053512573">
  <ele>443.854004</ele>
  <time>2011-08-20T05:03:48Z</time>
  <speed>2.370000</speed>
</trkpt>
<trkpt lat="32.747524261" lon="35.053482056">
  <ele>444.549316</ele>
  <time>2011-08-20T05:03:49Z</time>
  <speed>2.250000</speed>
</trkpt>
<trkpt lat="32.747528076" lon="35.053436279">
  <ele>445.111816</ele>
  <time>2011-08-20T05:03:51Z</time>
  <speed>2.390000</speed>
</trkpt>
<trkpt lat="32.747524261" lon="35.053379059">
  <ele>445.666504</ele>
  <time>2011-08-20T05:03:53Z</time>
  <speed>2.200000</speed>
</trkpt>
<trkpt lat="32.747512817" lon="35.053325653">
  <ele>446.158691</ele>
  <time>2011-08-20T05:03:55Z</time>
  <speed>2.450000</speed>
</trkpt>
<trkpt lat="32.747501373" lon="35.053291321">
  <ele>446.307129</ele>
  <time>2011-08-20T05:03:56Z</time>
  <speed>2.360000</speed>
</trkpt>
<trkpt lat="32.747486115" lon="35.053256989">
  <ele>446.861816</ele>
  <time>2011-08-20T05:03:58Z</time>
  <speed>2.390000</speed>
</trkpt>
<trkpt lat="32.747455597" lon="35.053218842">
  <ele>447.189941</ele>
  <time>2011-08-20T05:04:00Z</time>
  <speed>2.320000</speed>
</trkpt>
<trkpt lat="32.747413635" lon="35.053184509">
  <ele>447.604004</ele>
  <time>2011-08-20T05:04:02Z</time>
  <speed>2.370000</speed>
</trkpt>
<trkpt lat="32.747375488" lon="35.053146362">
  <ele>447.971191</ele>
  <time>2011-08-20T05:04:04Z</time>
  <speed>2.370000</speed>
</trkpt>
<trkpt lat="32.747344971" lon="35.053115845">
  <ele>448.158691</ele>
  <time>2011-08-20T05:04:06Z</time>
  <speed>2.490000</speed>
</trkpt>
<trkpt lat="32.747306824" lon="35.053089142">
  <ele>448.424316</ele>
  <time>2011-08-20T05:04:08Z</time>
  <speed>2.580000</speed>
</trkpt>
<trkpt lat="32.747272491" lon="35.053089142">
  <ele>448.494629</ele>
  <time>2011-08-20T05:04:09Z</time>
  <speed>2.510000</speed>
</trkpt>
<trkpt lat="32.747230530" lon="35.053066254">
  <ele>448.283691</ele>
  <time>2011-08-20T05:04:11Z</time>
  <speed>2.510000</speed>
</trkpt>
<trkpt lat="32.747188568" lon="35.053047180">
  <ele>448.424316</ele>
  <time>2011-08-20T05:04:13Z</time>
  <speed>2.550000</speed>
</trkpt>
<trkpt lat="32.747142792" lon="35.053043365">
  <ele>448.275879</ele>
  <time>2011-08-20T05:04:15Z</time>
  <speed>2.280000</speed>
</trkpt>
<trkpt lat="32.747093201" lon="35.053024292">
  <ele>446.689941</ele>
  <time>2011-08-20T05:04:17Z</time>
  <speed>2.410000</speed>
</trkpt>
<trkpt lat="32.747066498" lon="35.053016663">
  <ele>446.604004</ele>
  <time>2011-08-20T05:04:18Z</time>
  <speed>2.730000</speed>
</trkpt>
<trkpt lat="32.747016907" lon="35.053005219">
  <ele>446.768066</ele>
  <time>2011-08-20T05:04:20Z</time>
  <speed>2.660000</speed>
</trkpt>
<trkpt lat="32.746974945" lon="35.052993774">
  <ele>446.760254</ele>
  <time>2011-08-20T05:04:22Z</time>
  <speed>2.470000</speed>
</trkpt>
<trkpt lat="32.746932983" lon="35.052986145">
  <ele>448.822754</ele>
  <time>2011-08-20T05:04:24Z</time>
  <speed>2.250000</speed>
</trkpt>
<trkpt lat="32.746883392" lon="35.052970886">
  <ele>447.752441</ele>
  <time>2011-08-20T05:04:26Z</time>
  <speed>2.220000</speed>
</trkpt>
<trkpt lat="32.746841431" lon="35.052963257">
  <ele>449.174316</ele>
  <time>2011-08-20T05:04:28Z</time>
  <speed>2.410000</speed>
</trkpt>
<trkpt lat="32.746795654" lon="35.052944183">
  <ele>448.572754</ele>
  <time>2011-08-20T05:04:30Z</time>
  <speed>2.420000</speed>
</trkpt>
<trkpt lat="32.746753693" lon="35.052936554">
  <ele>448.791504</ele>
  <time>2011-08-20T05:04:32Z</time>
  <speed>2.460000</speed>
</trkpt>
<trkpt lat="32.746707916" lon="35.052925110">
  <ele>448.400879</ele>
  <time>2011-08-20T05:04:34Z</time>
  <speed>2.270000</speed>
</trkpt>
<trkpt lat="32.746665955" lon="35.052925110">
  <ele>447.939941</ele>
  <time>2011-08-20T05:04:36Z</time>
  <speed>2.160000</speed>
</trkpt>
<trkpt lat="32.746616364" lon="35.052936554">
  <ele>448.643066</ele>
  <time>2011-08-20T05:04:38Z</time>
  <speed>2.160000</speed>
</trkpt>
<trkpt lat="32.746578217" lon="35.052951813">
  <ele>447.752441</ele>
  <time>2011-08-20T05:04:40Z</time>
  <speed>2.080000</speed>
</trkpt>
<trkpt lat="32.746536255" lon="35.052955627">
  <ele>447.385254</ele>
  <time>2011-08-20T05:04:42Z</time>
  <speed>2.200000</speed>
</trkpt>
<trkpt lat="32.746494293" lon="35.052963257">
  <ele>446.604004</ele>
  <time>2011-08-20T05:04:44Z</time>
  <speed>2.100000</speed>
</trkpt>
<trkpt lat="32.746459961" lon="35.052978516">
  <ele>447.775879</ele>
  <time>2011-08-20T05:04:46Z</time>
  <speed>1.980000</speed>
</trkpt>
<trkpt lat="32.746417999" lon="35.052982330">
  <ele>447.619629</ele>
  <time>2011-08-20T05:04:48Z</time>
  <speed>2.250000</speed>
</trkpt>
<trkpt lat="32.746376038" lon="35.052982330">
  <ele>447.596191</ele>
  <time>2011-08-20T05:04:50Z</time>
  <speed>2.460000</speed>
</trkpt>
<trkpt lat="32.746334076" lon="35.052993774">
  <ele>448.525879</ele>
  <time>2011-08-20T05:04:52Z</time>
  <speed>2.190000</speed>
</trkpt>
<trkpt lat="32.746292114" lon="35.053005219">
  <ele>449.158691</ele>
  <time>2011-08-20T05:04:54Z</time>
  <speed>2.160000</speed>
</trkpt>
<trkpt lat="32.746250153" lon="35.053012848">
  <ele>450.135254</ele>
  <time>2011-08-20T05:04:56Z</time>
  <speed>2.240000</speed>
</trkpt>
<trkpt lat="32.746212006" lon="35.053031921">
  <ele>450.971191</ele>
  <time>2011-08-20T05:04:58Z</time>
  <speed>2.240000</speed>
</trkpt>
<trkpt lat="32.746170044" lon="35.053043365">
  <ele>452.658691</ele>
  <time>2011-08-20T05:05:00Z</time>
  <speed>2.040000</speed>
</trkpt>
<trkpt lat="32.746139526" lon="35.053050995">
  <ele>453.604004</ele>
  <time>2011-08-20T05:05:01Z</time>
  <speed>2.240000</speed>
</trkpt>
<trkpt lat="32.746097565" lon="35.053047180">
  <ele>454.221191</ele>
  <time>2011-08-20T05:05:03Z</time>
  <speed>2.170000</speed>
</trkpt>
<trkpt lat="32.746067047" lon="35.053047180">
  <ele>453.135254</ele>
  <time>2011-08-20T05:05:04Z</time>
  <speed>2.360000</speed>
</trkpt>
<trkpt lat="32.746025085" lon="35.053043365">
  <ele>453.463379</ele>
  <time>2011-08-20T05:05:06Z</time>
  <speed>2.090000</speed>
</trkpt>
<trkpt lat="32.745986938" lon="35.053039551">
  <ele>453.854004</ele>
  <time>2011-08-20T05:05:08Z</time>
  <speed>2.100000</speed>
</trkpt>
<trkpt lat="32.745948792" lon="35.053047180">
  <ele>454.900879</ele>
  <time>2011-08-20T05:05:10Z</time>
  <speed>2.030000</speed>
</trkpt>
<trkpt lat="32.745925903" lon="35.053058624">
  <ele>456.143066</ele>
  <time>2011-08-20T05:05:11Z</time>
  <speed>2.010000</speed>
</trkpt>
<trkpt lat="32.745887756" lon="35.053058624">
  <ele>457.111816</ele>
  <time>2011-08-20T05:05:13Z</time>
  <speed>2.020000</speed>
</trkpt>
<trkpt lat="32.745853424" lon="35.053035736">
  <ele>456.424316</ele>
  <time>2011-08-20T05:05:15Z</time>
  <speed>1.910000</speed>
</trkpt>
<trkpt lat="32.745819092" lon="35.053028107">
  <ele>456.080566</ele>
  <time>2011-08-20T05:05:17Z</time>
  <speed>2.080000</speed>
</trkpt>
<trkpt lat="32.745780945" lon="35.053012848">
  <ele>455.947754</ele>
  <time>2011-08-20T05:05:19Z</time>
  <speed>1.870000</speed>
</trkpt>
<trkpt lat="32.745746613" lon="35.052997589">
  <ele>456.354004</ele>
  <time>2011-08-20T05:05:21Z</time>
  <speed>2.140000</speed>
</trkpt>
<trkpt lat="32.745716095" lon="35.052974701">
  <ele>457.221191</ele>
  <time>2011-08-20T05:05:23Z</time>
  <speed>1.580000</speed>
</trkpt>
<trkpt lat="32.745689392" lon="35.052967072">
  <ele>457.213379</ele>
  <time>2011-08-20T05:05:25Z</time>
  <speed>1.870000</speed>
</trkpt>
<trkpt lat="32.745655060" lon="35.052947998">
  <ele>457.596191</ele>
  <time>2011-08-20T05:05:27Z</time>
  <speed>1.920000</speed>
</trkpt>
<trkpt lat="32.745624542" lon="35.052928925">
  <ele>457.768066</ele>
  <time>2011-08-20T05:05:29Z</time>
  <speed>1.950000</speed>
</trkpt>
<trkpt lat="32.745590210" lon="35.052898407">
  <ele>457.885254</ele>
  <time>2011-08-20T05:05:31Z</time>
  <speed>1.950000</speed>
</trkpt>
<trkpt lat="32.745559692" lon="35.052879333">
  <ele>457.893066</ele>
  <time>2011-08-20T05:05:33Z</time>
  <speed>1.940000</speed>
</trkpt>
<trkpt lat="32.745525360" lon="35.052860260">
  <ele>458.002441</ele>
  <time>2011-08-20T05:05:35Z</time>
  <speed>1.730000</speed>
</trkpt>
<trkpt lat="32.745502472" lon="35.052837372">
  <ele>457.932129</ele>
  <time>2011-08-20T05:05:37Z</time>
  <speed>1.820000</speed>
</trkpt>
<trkpt lat="32.745475769" lon="35.052814484">
  <ele>457.783691</ele>
  <time>2011-08-20T05:05:39Z</time>
  <speed>1.360000</speed>
</trkpt>
<trkpt lat="32.745449066" lon="35.052791595">
  <ele>457.729004</ele>
  <time>2011-08-20T05:05:41Z</time>
  <speed>1.600000</speed>
</trkpt>
<trkpt lat="32.745426178" lon="35.052768707">
  <ele>458.354004</ele>
  <time>2011-08-20T05:05:43Z</time>
  <speed>1.750000</speed>
</trkpt>
<trkpt lat="32.745391846" lon="35.052749634">
  <ele>458.611816</ele>
  <time>2011-08-20T05:05:45Z</time>
  <speed>1.600000</speed>
</trkpt>
<trkpt lat="32.745365143" lon="35.052726746">
  <ele>458.744629</ele>
  <time>2011-08-20T05:05:47Z</time>
  <speed>1.650000</speed>
</trkpt>
<trkpt lat="32.745323181" lon="35.052692413">
  <ele>459.619629</ele>
  <time>2011-08-20T05:05:49Z</time>
  <speed>1.700000</speed>
</trkpt>
<trkpt lat="32.745300293" lon="35.052661896">
  <ele>459.885254</ele>
  <time>2011-08-20T05:05:51Z</time>
  <speed>1.520000</speed>
</trkpt>
<trkpt lat="32.745277405" lon="35.052639008">
  <ele>460.541504</ele>
  <time>2011-08-20T05:05:53Z</time>
  <speed>1.680000</speed>
</trkpt>
<trkpt lat="32.745254517" lon="35.052616119">
  <ele>460.869629</ele>
  <time>2011-08-20T05:05:55Z</time>
  <speed>1.770000</speed>
</trkpt>
<trkpt lat="32.745269775" lon="35.052570343">
  <ele>459.916504</ele>
  <time>2011-08-20T05:05:56Z</time>
  <speed>1.690000</speed>
</trkpt>
<trkpt lat="32.745235443" lon="35.052555084">
  <ele>460.541504</ele>
  <time>2011-08-20T05:05:58Z</time>
  <speed>1.470000</speed>
</trkpt>
<trkpt lat="32.745208740" lon="35.052532196">
  <ele>459.947754</ele>
  <time>2011-08-20T05:06:00Z</time>
  <speed>1.680000</speed>
</trkpt>
<trkpt lat="32.745178223" lon="35.052516937">
  <ele>459.525879</ele>
  <time>2011-08-20T05:06:02Z</time>
  <speed>1.690000</speed>
</trkpt>
<trkpt lat="32.745143890" lon="35.052505493">
  <ele>459.588379</ele>
  <time>2011-08-20T05:06:04Z</time>
  <speed>1.710000</speed>
</trkpt>
<trkpt lat="32.745098114" lon="35.052501678">
  <ele>459.900879</ele>
  <time>2011-08-20T05:06:06Z</time>
  <speed>1.910000</speed>
</trkpt>
<trkpt lat="32.745063782" lon="35.052494049">
  <ele>460.330566</ele>
  <time>2011-08-20T05:06:08Z</time>
  <speed>1.640000</speed>
</trkpt>
<trkpt lat="32.745025635" lon="35.052490234">
  <ele>460.533691</ele>
  <time>2011-08-20T05:06:10Z</time>
  <speed>1.610000</speed>
</trkpt>
<trkpt lat="32.744991302" lon="35.052478790">
  <ele>460.932129</ele>
  <time>2011-08-20T05:06:12Z</time>
  <speed>1.760000</speed>
</trkpt>
<trkpt lat="32.744956970" lon="35.052478790">
  <ele>461.439941</ele>
  <time>2011-08-20T05:06:14Z</time>
  <speed>1.710000</speed>
</trkpt>
<trkpt lat="32.744922638" lon="35.052478790">
  <ele>461.486816</ele>
  <time>2011-08-20T05:06:16Z</time>
  <speed>1.560000</speed>
</trkpt>
<trkpt lat="32.744895935" lon="35.052486420">
  <ele>461.713379</ele>
  <time>2011-08-20T05:06:18Z</time>
  <speed>1.590000</speed>
</trkpt>
<trkpt lat="32.744869232" lon="35.052497864">
  <ele>461.986816</ele>
  <time>2011-08-20T05:06:20Z</time>
  <speed>1.540000</speed>
</trkpt>
<trkpt lat="32.744834900" lon="35.052501678">
  <ele>461.611816</ele>
  <time>2011-08-20T05:06:22Z</time>
  <speed>1.740000</speed>
</trkpt>
<trkpt lat="32.744796753" lon="35.052513123">
  <ele>461.807129</ele>
  <time>2011-08-20T05:06:24Z</time>
  <speed>1.580000</speed>
</trkpt>
<trkpt lat="32.744762421" lon="35.052524567">
  <ele>461.752441</ele>
  <time>2011-08-20T05:06:27Z</time>
  <speed>1.180000</speed>
</trkpt>
<trkpt lat="32.744735718" lon="35.052536011">
  <ele>461.963379</ele>
  <time>2011-08-20T05:06:29Z</time>
  <speed>1.410000</speed>
</trkpt>
<trkpt lat="32.744705200" lon="35.052536011">
  <ele>461.854004</ele>
  <time>2011-08-20T05:06:31Z</time>
  <speed>1.660000</speed>
</trkpt>
<trkpt lat="32.744663239" lon="35.052547455">
  <ele>462.322754</ele>
  <time>2011-08-20T05:06:33Z</time>
  <speed>1.910000</speed>
</trkpt>
<trkpt lat="32.744632721" lon="35.052558899">
  <ele>462.182129</ele>
  <time>2011-08-20T05:06:35Z</time>
  <speed>1.680000</speed>
</trkpt>
<trkpt lat="32.744602203" lon="35.052566528">
  <ele>462.057129</ele>
  <time>2011-08-20T05:06:37Z</time>
  <speed>1.560000</speed>
</trkpt>
<trkpt lat="32.744567871" lon="35.052574158">
  <ele>461.869629</ele>
  <time>2011-08-20T05:06:39Z</time>
  <speed>1.550000</speed>
</trkpt>
<trkpt lat="32.744533539" lon="35.052581787">
  <ele>461.799316</ele>
  <time>2011-08-20T05:06:41Z</time>
  <speed>1.490000</speed>
</trkpt>
<trkpt lat="32.744503021" lon="35.052585602">
  <ele>461.322754</ele>
  <time>2011-08-20T05:06:43Z</time>
  <speed>1.380000</speed>
</trkpt>
<trkpt lat="32.744468689" lon="35.052589417">
  <ele>461.283691</ele>
  <time>2011-08-20T05:06:45Z</time>
  <speed>1.620000</speed>
</trkpt>
<trkpt lat="32.744441986" lon="35.052597046">
  <ele>461.236816</ele>
  <time>2011-08-20T05:06:47Z</time>
  <speed>1.560000</speed>
</trkpt>
<trkpt lat="32.744411469" lon="35.052604675">
  <ele>460.744629</ele>
  <time>2011-08-20T05:06:49Z</time>
  <speed>1.480000</speed>
</trkpt>
<trkpt lat="32.744377136" lon="35.052608490">
  <ele>461.018066</ele>
  <time>2011-08-20T05:06:51Z</time>
  <speed>1.360000</speed>
</trkpt>
<trkpt lat="32.744346619" lon="35.052616119">
  <ele>460.791504</ele>
  <time>2011-08-20T05:06:53Z</time>
  <speed>1.600000</speed>
</trkpt>
<trkpt lat="32.744308472" lon="35.052619934">
  <ele>460.791504</ele>
  <time>2011-08-20T05:06:56Z</time>
  <speed>1.470000</speed>
</trkpt>
<trkpt lat="32.744274139" lon="35.052612305">
  <ele>460.729004</ele>
  <time>2011-08-20T05:06:58Z</time>
  <speed>1.800000</speed>
</trkpt>
<trkpt lat="32.744235992" lon="35.052619934">
  <ele>461.182129</ele>
  <time>2011-08-20T05:07:00Z</time>
  <speed>1.720000</speed>
</trkpt>
<trkpt lat="32.744205475" lon="35.052616119">
  <ele>460.752441</ele>
  <time>2011-08-20T05:07:02Z</time>
  <speed>1.680000</speed>
</trkpt>
<trkpt lat="32.744174957" lon="35.052608490">
  <ele>460.713379</ele>
  <time>2011-08-20T05:07:04Z</time>
  <speed>1.750000</speed>
</trkpt>
<trkpt lat="32.744140625" lon="35.052608490">
  <ele>460.229004</ele>
  <time>2011-08-20T05:07:06Z</time>
  <speed>1.630000</speed>
</trkpt>
<trkpt lat="32.744106293" lon="35.052608490">
  <ele>460.439941</ele>
  <time>2011-08-20T05:07:08Z</time>
  <speed>1.570000</speed>
</trkpt>
<trkpt lat="32.744060516" lon="35.052597046">
  <ele>460.752441</ele>
  <time>2011-08-20T05:07:11Z</time>
  <speed>1.850000</speed>
</trkpt>
<trkpt lat="32.744026184" lon="35.052593231">
  <ele>460.658691</ele>
  <time>2011-08-20T05:07:13Z</time>
  <speed>1.960000</speed>
</trkpt>
<trkpt lat="32.743991852" lon="35.052585602">
  <ele>460.924316</ele>
  <time>2011-08-20T05:07:15Z</time>
  <speed>1.620000</speed>
</trkpt>
<trkpt lat="32.743949890" lon="35.052589417">
  <ele>462.299316</ele>
  <time>2011-08-20T05:07:18Z</time>
  <speed>1.950000</speed>
</trkpt>
<trkpt lat="32.743919373" lon="35.052585602">
  <ele>461.564941</ele>
  <time>2011-08-20T05:07:20Z</time>
  <speed>1.320000</speed>
</trkpt>
<trkpt lat="32.743888855" lon="35.052581787">
  <ele>461.729004</ele>
  <time>2011-08-20T05:07:22Z</time>
  <speed>1.870000</speed>
</trkpt>
<trkpt lat="32.743858337" lon="35.052570343">
  <ele>461.986816</ele>
  <time>2011-08-20T05:07:24Z</time>
  <speed>1.760000</speed>
</trkpt>
<trkpt lat="32.743793488" lon="35.052627563">
  <ele>465.393066</ele>
  <time>2011-08-20T05:07:26Z</time>
  <speed>1.570000</speed>
</trkpt>
<trkpt lat="32.743747711" lon="35.052627563">
  <ele>466.635254</ele>
  <time>2011-08-20T05:07:29Z</time>
  <speed>1.550000</speed>
</trkpt>
<trkpt lat="32.743724823" lon="35.052608490">
  <ele>468.432129</ele>
  <time>2011-08-20T05:07:31Z</time>
  <speed>1.700000</speed>
</trkpt>
<trkpt lat="32.743709564" lon="35.052577972">
  <ele>468.533691</ele>
  <time>2011-08-20T05:07:33Z</time>
  <speed>1.920000</speed>
</trkpt>
<trkpt lat="32.743686676" lon="35.052558899">
  <ele>470.354004</ele>
  <time>2011-08-20T05:07:35Z</time>
  <speed>1.840000</speed>
</trkpt>
<trkpt lat="32.743656158" lon="35.052543640">
  <ele>471.213379</ele>
  <time>2011-08-20T05:07:37Z</time>
  <speed>1.900000</speed>
</trkpt>
<trkpt lat="32.743621826" lon="35.052536011">
  <ele>472.760254</ele>
  <time>2011-08-20T05:07:39Z</time>
  <speed>1.920000</speed>
</trkpt>
<trkpt lat="32.743591309" lon="35.052528381">
  <ele>473.447754</ele>
  <time>2011-08-20T05:07:41Z</time>
  <speed>2.000000</speed>
</trkpt>
<trkpt lat="32.743556976" lon="35.052520752">
  <ele>473.861816</ele>
  <time>2011-08-20T05:07:43Z</time>
  <speed>1.560000</speed>
</trkpt>
<trkpt lat="32.743526459" lon="35.052513123">
  <ele>473.994629</ele>
  <time>2011-08-20T05:07:45Z</time>
  <speed>1.830000</speed>
</trkpt>
<trkpt lat="32.743495941" lon="35.052501678">
  <ele>474.127441</ele>
  <time>2011-08-20T05:07:47Z</time>
  <speed>1.560000</speed>
</trkpt>
<trkpt lat="32.743469238" lon="35.052501678">
  <ele>474.033691</ele>
  <time>2011-08-20T05:07:49Z</time>
  <speed>1.510000</speed>
</trkpt>
<trkpt lat="32.743431091" lon="35.052505493">
  <ele>474.127441</ele>
  <time>2011-08-20T05:07:52Z</time>
  <speed>1.680000</speed>
</trkpt>
<trkpt lat="32.743389130" lon="35.052501678">
  <ele>474.072754</ele>
  <time>2011-08-20T05:07:55Z</time>
  <speed>1.530000</speed>
</trkpt>
<trkpt lat="32.743362427" lon="35.052497864">
  <ele>474.033691</ele>
  <time>2011-08-20T05:07:57Z</time>
  <speed>1.800000</speed>
</trkpt>
<trkpt lat="32.743328094" lon="35.052490234">
  <ele>473.783691</ele>
  <time>2011-08-20T05:07:59Z</time>
  <speed>1.600000</speed>
</trkpt>
<trkpt lat="32.743297577" lon="35.052482605">
  <ele>473.604004</ele>
  <time>2011-08-20T05:08:01Z</time>
  <speed>1.620000</speed>
</trkpt>
<trkpt lat="32.743270874" lon="35.052486420">
  <ele>473.244629</ele>
  <time>2011-08-20T05:08:03Z</time>
  <speed>1.500000</speed>
</trkpt>
<trkpt lat="32.743244171" lon="35.052482605">
  <ele>473.135254</ele>
  <time>2011-08-20T05:08:05Z</time>
  <speed>1.340000</speed>
</trkpt>
<trkpt lat="32.743198395" lon="35.052494049">
  <ele>473.182129</ele>
  <time>2011-08-20T05:08:08Z</time>
  <speed>1.320000</speed>
</trkpt>
<trkpt lat="32.743171692" lon="35.052516937">
  <ele>473.604004</ele>
  <time>2011-08-20T05:08:09Z</time>
  <speed>1.380000</speed>
</trkpt>
<trkpt lat="32.743144989" lon="35.052528381">
  <ele>473.604004</ele>
  <time>2011-08-20T05:08:11Z</time>
  <speed>1.530000</speed>
</trkpt>
<trkpt lat="32.743106842" lon="35.052528381">
  <ele>473.494629</ele>
  <time>2011-08-20T05:08:13Z</time>
  <speed>1.730000</speed>
</trkpt>
<trkpt lat="32.743064880" lon="35.052532196">
  <ele>473.564941</ele>
  <time>2011-08-20T05:08:15Z</time>
  <speed>1.680000</speed>
</trkpt>
<trkpt lat="32.743038177" lon="35.052536011">
  <ele>473.658691</ele>
  <time>2011-08-20T05:08:17Z</time>
  <speed>1.300000</speed>
</trkpt>
<trkpt lat="32.743011475" lon="35.052524567">
  <ele>474.939941</ele>
  <time>2011-08-20T05:08:19Z</time>
  <speed>1.790000</speed>
</trkpt>
<trkpt lat="32.742980957" lon="35.052520752">
  <ele>475.236816</ele>
  <time>2011-08-20T05:08:21Z</time>
  <speed>1.450000</speed>
</trkpt>
<trkpt lat="32.742942810" lon="35.052528381">
  <ele>475.541504</ele>
  <time>2011-08-20T05:08:23Z</time>
  <speed>1.650000</speed>
</trkpt>
<trkpt lat="32.742912292" lon="35.052524567">
  <ele>476.197754</ele>
  <time>2011-08-20T05:08:25Z</time>
  <speed>1.280000</speed>
</trkpt>
<trkpt lat="32.742874146" lon="35.052524567">
  <ele>477.439941</ele>
  <time>2011-08-20T05:08:28Z</time>
  <speed>1.490000</speed>
</trkpt>
<trkpt lat="32.742847443" lon="35.052524567">
  <ele>477.283691</ele>
  <time>2011-08-20T05:08:30Z</time>
  <speed>1.720000</speed>
</trkpt>
<trkpt lat="32.742813110" lon="35.052528381">
  <ele>477.643066</ele>
  <time>2011-08-20T05:08:32Z</time>
  <speed>1.440000</speed>
</trkpt>
<trkpt lat="32.742778778" lon="35.052524567">
  <ele>477.314941</ele>
  <time>2011-08-20T05:08:34Z</time>
  <speed>1.820000</speed>
</trkpt>
<trkpt lat="32.742748260" lon="35.052524567">
  <ele>477.408691</ele>
  <time>2011-08-20T05:08:36Z</time>
  <speed>1.820000</speed>
</trkpt>
<trkpt lat="32.742725372" lon="35.052536011">
  <ele>478.291504</ele>
  <time>2011-08-20T05:08:37Z</time>
  <speed>1.720000</speed>
</trkpt>
<trkpt lat="32.742687225" lon="35.052532196">
  <ele>479.275879</ele>
  <time>2011-08-20T05:08:39Z</time>
  <speed>1.520000</speed>
</trkpt>
<trkpt lat="32.742652893" lon="35.052524567">
  <ele>479.697754</ele>
  <time>2011-08-20T05:08:41Z</time>
  <speed>1.480000</speed>
</trkpt>
<trkpt lat="32.742622375" lon="35.052516937">
  <ele>480.174316</ele>
  <time>2011-08-20T05:08:44Z</time>
  <speed>1.610000</speed>
</trkpt>
<trkpt lat="32.742591858" lon="35.052543640">
  <ele>483.064941</ele>
  <time>2011-08-20T05:08:45Z</time>
  <speed>1.410000</speed>
</trkpt>
<trkpt lat="32.742557526" lon="35.052543640">
  <ele>482.838379</ele>
  <time>2011-08-20T05:08:47Z</time>
  <speed>1.840000</speed>
</trkpt>
<trkpt lat="32.742523193" lon="35.052536011">
  <ele>482.580566</ele>
  <time>2011-08-20T05:08:49Z</time>
  <speed>1.720000</speed>
</trkpt>
<trkpt lat="32.742500305" lon="35.052555084">
  <ele>481.869629</ele>
  <time>2011-08-20T05:08:50Z</time>
  <speed>1.810000</speed>
</trkpt>
<trkpt lat="32.742473602" lon="35.052539825">
  <ele>481.744629</ele>
  <time>2011-08-20T05:08:52Z</time>
  <speed>1.530000</speed>
</trkpt>
<trkpt lat="32.742439270" lon="35.052539825">
  <ele>481.424316</ele>
  <time>2011-08-20T05:08:54Z</time>
  <speed>1.880000</speed>
</trkpt>
<trkpt lat="32.742408752" lon="35.052536011">
  <ele>481.658691</ele>
  <time>2011-08-20T05:08:56Z</time>
  <speed>1.500000</speed>
</trkpt>
<trkpt lat="32.742385864" lon="35.052513123">
  <ele>481.916504</ele>
  <time>2011-08-20T05:08:58Z</time>
  <speed>1.540000</speed>
</trkpt>
<trkpt lat="32.742355347" lon="35.052505493">
  <ele>482.158691</ele>
  <time>2011-08-20T05:09:00Z</time>
  <speed>1.620000</speed>
</trkpt>
<trkpt lat="32.742313385" lon="35.052490234">
  <ele>482.502441</ele>
  <time>2011-08-20T05:09:03Z</time>
  <speed>1.310000</speed>
</trkpt>
<trkpt lat="32.742286682" lon="35.052478790">
  <ele>482.713379</ele>
  <time>2011-08-20T05:09:05Z</time>
  <speed>1.360000</speed>
</trkpt>
<trkpt lat="32.742259979" lon="35.052463531">
  <ele>482.854004</ele>
  <time>2011-08-20T05:09:07Z</time>
  <speed>1.190000</speed>
</trkpt>
<trkpt lat="32.742229462" lon="35.052463531">
  <ele>483.182129</ele>
  <time>2011-08-20T05:09:09Z</time>
  <speed>1.240000</speed>
</trkpt>
<trkpt lat="32.742195129" lon="35.052452087">
  <ele>483.533691</ele>
  <time>2011-08-20T05:09:12Z</time>
  <speed>1.630000</speed>
</trkpt>
<trkpt lat="32.742156982" lon="35.052448273">
  <ele>483.572754</ele>
  <time>2011-08-20T05:09:14Z</time>
  <speed>1.620000</speed>
</trkpt>
<trkpt lat="32.742118835" lon="35.052436829">
  <ele>484.010254</ele>
  <time>2011-08-20T05:09:17Z</time>
  <speed>1.480000</speed>
</trkpt>
<trkpt lat="32.742088318" lon="35.052406311">
  <ele>485.447754</ele>
  <time>2011-08-20T05:09:19Z</time>
  <speed>1.560000</speed>
</trkpt>
<trkpt lat="32.742061615" lon="35.052391052">
  <ele>486.229004</ele>
  <time>2011-08-20T05:09:22Z</time>
  <speed>1.480000</speed>
</trkpt>
<trkpt lat="32.742019653" lon="35.052387238">
  <ele>485.963379</ele>
  <time>2011-08-20T05:09:25Z</time>
  <speed>1.630000</speed>
</trkpt>
<trkpt lat="32.741992950" lon="35.052360535">
  <ele>486.291504</ele>
  <time>2011-08-20T05:09:27Z</time>
  <speed>1.780000</speed>
</trkpt>
<trkpt lat="32.741962433" lon="35.052352905">
  <ele>487.322754</ele>
  <time>2011-08-20T05:09:29Z</time>
  <speed>1.820000</speed>
</trkpt>
<trkpt lat="32.741920471" lon="35.052341461">
  <ele>487.580566</ele>
  <time>2011-08-20T05:09:31Z</time>
  <speed>2.310000</speed>
</trkpt>
<trkpt lat="32.741878510" lon="35.052341461">
  <ele>489.018066</ele>
  <time>2011-08-20T05:09:33Z</time>
  <speed>2.150000</speed>
</trkpt>
<trkpt lat="32.741840363" lon="35.052337646">
  <ele>490.283691</ele>
  <time>2011-08-20T05:09:35Z</time>
  <speed>2.150000</speed>
</trkpt>
<trkpt lat="32.741806030" lon="35.052337646">
  <ele>490.877441</ele>
  <time>2011-08-20T05:09:37Z</time>
  <speed>1.520000</speed>
</trkpt>
<trkpt lat="32.741775513" lon="35.052341461">
  <ele>491.564941</ele>
  <time>2011-08-20T05:09:39Z</time>
  <speed>1.350000</speed>
</trkpt>
<trkpt lat="32.741748810" lon="35.052322388">
  <ele>492.260254</ele>
  <time>2011-08-20T05:09:41Z</time>
  <speed>1.310000</speed>
</trkpt>
<trkpt lat="32.741714478" lon="35.052314758">
  <ele>492.854004</ele>
  <time>2011-08-20T05:09:43Z</time>
  <speed>1.750000</speed>
</trkpt>
<trkpt lat="32.741687775" lon="35.052303314">
  <ele>493.838379</ele>
  <time>2011-08-20T05:09:44Z</time>
  <speed>1.630000</speed>
</trkpt>
<trkpt lat="32.741664886" lon="35.052276611">
  <ele>495.182129</ele>
  <time>2011-08-20T05:09:46Z</time>
  <speed>1.230000</speed>
</trkpt>
<trkpt lat="32.741630554" lon="35.052272797">
  <ele>495.666504</ele>
  <time>2011-08-20T05:09:49Z</time>
  <speed>1.290000</speed>
</trkpt>
<trkpt lat="32.741596222" lon="35.052295685">
  <ele>495.869629</ele>
  <time>2011-08-20T05:09:51Z</time>
  <speed>1.020000</speed>
</trkpt>
<trkpt lat="32.741569519" lon="35.052303314">
  <ele>496.807129</ele>
  <time>2011-08-20T05:09:53Z</time>
  <speed>1.520000</speed>
</trkpt>
<trkpt lat="32.741539001" lon="35.052303314">
  <ele>498.252441</ele>
  <time>2011-08-20T05:09:56Z</time>
  <speed>0.610000</speed>
</trkpt>
<trkpt lat="32.741519928" lon="35.052284241">
  <ele>499.502441</ele>
  <time>2011-08-20T05:10:01Z</time>
  <speed>0.570000</speed>
</trkpt>
<trkpt lat="32.741497040" lon="35.052261353">
  <ele>501.205566</ele>
  <time>2011-08-20T05:10:05Z</time>
  <speed>0.600000</speed>
</trkpt>
<trkpt lat="32.741485596" lon="35.052234650">
  <ele>501.908691</ele>
  <time>2011-08-20T05:10:07Z</time>
  <speed>1.010000</speed>
</trkpt>
<trkpt lat="32.741466522" lon="35.052207947">
  <ele>502.635254</ele>
  <time>2011-08-20T05:10:10Z</time>
  <speed>0.930000</speed>
</trkpt>
<trkpt lat="32.741451263" lon="35.052169800">
  <ele>503.557129</ele>
  <time>2011-08-20T05:10:14Z</time>
  <speed>0.850000</speed>
</trkpt>
<trkpt lat="32.741432190" lon="35.052139282">
  <ele>504.080566</ele>
  <time>2011-08-20T05:10:17Z</time>
  <speed>0.800000</speed>
</trkpt>
<trkpt lat="32.741405487" lon="35.052112579">
  <ele>504.799316</ele>
  <time>2011-08-20T05:10:20Z</time>
  <speed>0.860000</speed>
</trkpt>
<trkpt lat="32.741397858" lon="35.052074432">
  <ele>505.143066</ele>
  <time>2011-08-20T05:10:22Z</time>
  <speed>0.890000</speed>
</trkpt>
<trkpt lat="32.741367340" lon="35.052043915">
  <ele>506.361816</ele>
  <time>2011-08-20T05:10:26Z</time>
  <speed>0.790000</speed>
</trkpt>
<trkpt lat="32.741359711" lon="35.052005768">
  <ele>506.197754</ele>
  <time>2011-08-20T05:10:29Z</time>
  <speed>0.700000</speed>
</trkpt>
<trkpt lat="32.741317749" lon="35.051982880">
  <ele>506.814941</ele>
  <time>2011-08-20T05:10:32Z</time>
  <speed>1.040000</speed>
</trkpt>
<trkpt lat="32.741294861" lon="35.051956177">
  <ele>507.525879</ele>
  <time>2011-08-20T05:10:35Z</time>
  <speed>0.910000</speed>
</trkpt>
<trkpt lat="32.741249084" lon="35.051944733">
  <ele>507.385254</ele>
  <time>2011-08-20T05:10:38Z</time>
  <speed>1.050000</speed>
</trkpt>
<trkpt lat="32.741226196" lon="35.051918030">
  <ele>507.689941</ele>
  <time>2011-08-20T05:10:41Z</time>
  <speed>1.160000</speed>
</trkpt>
<trkpt lat="32.741218567" lon="35.051883698">
  <ele>508.486816</ele>
  <time>2011-08-20T05:10:45Z</time>
  <speed>1.080000</speed>
</trkpt>
<trkpt lat="32.741199493" lon="35.051856995">
  <ele>508.596191</ele>
  <time>2011-08-20T05:10:48Z</time>
  <speed>1.090000</speed>
</trkpt>
<trkpt lat="32.741168976" lon="35.051841736">
  <ele>508.729004</ele>
  <time>2011-08-20T05:10:51Z</time>
  <speed>1.120000</speed>
</trkpt>
<trkpt lat="32.741130829" lon="35.051834106">
  <ele>509.189941</ele>
  <time>2011-08-20T05:10:54Z</time>
  <speed>1.120000</speed>
</trkpt>
<trkpt lat="32.741104126" lon="35.051837921">
  <ele>509.057129</ele>
  <time>2011-08-20T05:10:56Z</time>
  <speed>1.030000</speed>
</trkpt>
<trkpt lat="32.741077423" lon="35.051856995">
  <ele>508.908691</ele>
  <time>2011-08-20T05:10:58Z</time>
  <speed>1.150000</speed>
</trkpt>
<trkpt lat="32.741046906" lon="35.051864624">
  <ele>508.439941</ele>
  <time>2011-08-20T05:11:00Z</time>
  <speed>0.940000</speed>
</trkpt>
<trkpt lat="32.741020203" lon="35.051868439">
  <ele>509.682129</ele>
  <time>2011-08-20T05:11:02Z</time>
  <speed>0.850000</speed>
</trkpt>
<trkpt lat="32.740993500" lon="35.051887512">
  <ele>510.635254</ele>
  <time>2011-08-20T05:11:06Z</time>
  <speed>1.010000</speed>
</trkpt>
<trkpt lat="32.740970612" lon="35.051918030">
  <ele>511.010254</ele>
  <time>2011-08-20T05:11:09Z</time>
  <speed>0.930000</speed>
</trkpt>
<trkpt lat="32.740936279" lon="35.051933289">
  <ele>512.379883</ele>
  <time>2011-08-20T05:11:13Z</time>
  <speed>1.580000</speed>
</trkpt>
<trkpt lat="32.740898132" lon="35.051944733">
  <ele>513.458008</ele>
  <time>2011-08-20T05:11:16Z</time>
  <speed>1.310000</speed>
</trkpt>
<trkpt lat="32.740863800" lon="35.051956177">
  <ele>513.629883</ele>
  <time>2011-08-20T05:11:20Z</time>
  <speed>1.330000</speed>
</trkpt>
<trkpt lat="32.740837097" lon="35.051979065">
  <ele>514.348633</ele>
  <time>2011-08-20T05:11:23Z</time>
  <speed>1.150000</speed>
</trkpt>
<trkpt lat="32.740802765" lon="35.051979065">
  <ele>515.286133</ele>
  <time>2011-08-20T05:11:26Z</time>
  <speed>1.210000</speed>
</trkpt>
<trkpt lat="32.740776062" lon="35.051975250">
  <ele>516.426758</ele>
  <time>2011-08-20T05:11:29Z</time>
  <speed>1.180000</speed>
</trkpt>
<trkpt lat="32.740741730" lon="35.051979065">
  <ele>516.067383</ele>
  <time>2011-08-20T05:11:32Z</time>
  <speed>1.040000</speed>
</trkpt>
<trkpt lat="32.740707397" lon="35.051986694">
  <ele>517.286133</ele>
  <time>2011-08-20T05:11:35Z</time>
  <speed>0.970000</speed>
</trkpt>
<trkpt lat="32.740680695" lon="35.052009583">
  <ele>517.176758</ele>
  <time>2011-08-20T05:11:38Z</time>
  <speed>1.140000</speed>
</trkpt>
<trkpt lat="32.740661621" lon="35.052047729">
  <ele>516.114258</ele>
  <time>2011-08-20T05:11:40Z</time>
  <speed>1.390000</speed>
</trkpt>
<trkpt lat="32.740684509" lon="35.052074432">
  <ele>516.817383</ele>
  <time>2011-08-20T05:11:44Z</time>
  <speed>0.540000</speed>
</trkpt>
<trkpt lat="32.740718842" lon="35.052062988">
  <ele>516.817383</ele>
  <time>2011-08-20T05:11:46Z</time>
  <speed>1.180000</speed>
</trkpt>
<trkpt lat="32.740745544" lon="35.052047729">
  <ele>516.848633</ele>
  <time>2011-08-20T05:11:48Z</time>
  <speed>1.620000</speed>
</trkpt>
<trkpt lat="32.740772247" lon="35.052047729">
  <ele>517.598633</ele>
  <time>2011-08-20T05:11:50Z</time>
  <speed>1.470000</speed>
</trkpt>
<trkpt lat="32.740806580" lon="35.052066803">
  <ele>517.895508</ele>
  <time>2011-08-20T05:11:53Z</time>
  <speed>0.940000</speed>
</trkpt>
<trkpt lat="32.740829468" lon="35.052047729">
  <ele>517.161133</ele>
  <time>2011-08-20T05:11:56Z</time>
  <speed>1.350000</speed>
</trkpt>
<trkpt lat="32.740863800" lon="35.052028656">
  <ele>517.239258</ele>
  <time>2011-08-20T05:11:58Z</time>
  <speed>1.840000</speed>
</trkpt>
<trkpt lat="32.740901947" lon="35.052017212">
  <ele>517.098633</ele>
  <time>2011-08-20T05:12:00Z</time>
  <speed>1.870000</speed>
</trkpt>
<trkpt lat="32.740936279" lon="35.052024841">
  <ele>516.973633</ele>
  <time>2011-08-20T05:12:02Z</time>
  <speed>1.970000</speed>
</trkpt>
<trkpt lat="32.740978241" lon="35.052036285">
  <ele>517.364258</ele>
  <time>2011-08-20T05:12:04Z</time>
  <speed>2.020000</speed>
</trkpt>
<trkpt lat="32.741004944" lon="35.052017212">
  <ele>517.692383</ele>
  <time>2011-08-20T05:12:06Z</time>
  <speed>1.280000</speed>
</trkpt>
<trkpt lat="32.741024017" lon="35.051986694">
  <ele>517.786133</ele>
  <time>2011-08-20T05:12:08Z</time>
  <speed>1.440000</speed>
</trkpt>
<trkpt lat="32.741031647" lon="35.051952362">
  <ele>518.458008</ele>
  <time>2011-08-20T05:12:10Z</time>
  <speed>1.060000</speed>
</trkpt>
<trkpt lat="32.741031647" lon="35.051921844">
  <ele>519.395508</ele>
  <time>2011-08-20T05:12:13Z</time>
  <speed>0.110000</speed>
</trkpt>
<trkpt lat="32.741031647" lon="35.051891327">
  <ele>518.317383</ele>
  <time>2011-08-20T05:12:30Z</time>
  <speed>1.080000</speed>
</trkpt>
<trkpt lat="32.741020203" lon="35.051841736">
  <ele>518.895508</ele>
  <time>2011-08-20T05:12:32Z</time>
  <speed>1.720000</speed>
</trkpt>
<trkpt lat="32.741016388" lon="35.051795959">
  <ele>519.801758</ele>
  <time>2011-08-20T05:12:33Z</time>
  <speed>1.770000</speed>
</trkpt>
<trkpt lat="32.741008759" lon="35.051761627">
  <ele>519.614258</ele>
  <time>2011-08-20T05:12:35Z</time>
  <speed>1.170000</speed>
</trkpt>
<trkpt lat="32.740982056" lon="35.051753998">
  <ele>520.786133</ele>
  <time>2011-08-20T05:12:39Z</time>
  <speed>0.010000</speed>
</trkpt>
<trkpt lat="32.740943909" lon="35.051719666">
  <ele>519.567383</ele>
  <time>2011-08-20T05:14:38Z</time>
  <speed>1.670000</speed>
</trkpt>
<trkpt lat="32.740913391" lon="35.051708221">
  <ele>519.379883</ele>
  <time>2011-08-20T05:14:39Z</time>
  <speed>3.100000</speed>
</trkpt>
<trkpt lat="32.740879059" lon="35.051670074">
  <ele>518.864258</ele>
  <time>2011-08-20T05:14:40Z</time>
  <speed>4.700000</speed>
</trkpt>
<trkpt lat="32.740856171" lon="35.051609039">
  <ele>518.942383</ele>
  <time>2011-08-20T05:14:41Z</time>
  <speed>5.930000</speed>
</trkpt>
<trkpt lat="32.740844727" lon="35.051548004">
  <ele>518.567383</ele>
  <time>2011-08-20T05:14:42Z</time>
  <speed>5.260000</speed>
</trkpt>
<trkpt lat="32.740829468" lon="35.051486969">
  <ele>517.629883</ele>
  <time>2011-08-20T05:14:43Z</time>
  <speed>4.760000</speed>
</trkpt>
<trkpt lat="32.740810394" lon="35.051429749">
  <ele>517.129883</ele>
  <time>2011-08-20T05:14:44Z</time>
  <speed>5.300000</speed>
</trkpt>
<trkpt lat="32.740779877" lon="35.051361084">
  <ele>517.176758</ele>
  <time>2011-08-20T05:14:45Z</time>
  <speed>5.300000</speed>
</trkpt>
<trkpt lat="32.740749359" lon="35.051303864">
  <ele>516.395508</ele>
  <time>2011-08-20T05:14:46Z</time>
  <speed>5.460000</speed>
</trkpt>
<trkpt lat="32.740730286" lon="35.051250458">
  <ele>515.911133</ele>
  <time>2011-08-20T05:14:47Z</time>
  <speed>5.050000</speed>
</trkpt>
<trkpt lat="32.740711212" lon="35.051200867">
  <ele>516.270508</ele>
  <time>2011-08-20T05:14:48Z</time>
  <speed>4.440000</speed>
</trkpt>
<trkpt lat="32.740703583" lon="35.051158905">
  <ele>515.926758</ele>
  <time>2011-08-20T05:14:49Z</time>
  <speed>3.730000</speed>
</trkpt>
<trkpt lat="32.740695953" lon="35.051120758">
  <ele>515.989258</ele>
  <time>2011-08-20T05:14:50Z</time>
  <speed>3.440000</speed>
</trkpt>
<trkpt lat="32.740692139" lon="35.051086426">
  <ele>515.629883</ele>
  <time>2011-08-20T05:14:51Z</time>
  <speed>3.230000</speed>
</trkpt>
<trkpt lat="32.740688324" lon="35.051052094">
  <ele>515.676758</ele>
  <time>2011-08-20T05:14:52Z</time>
  <speed>3.080000</speed>
</trkpt>
<trkpt lat="32.740673065" lon="35.051002502">
  <ele>515.254883</ele>
  <time>2011-08-20T05:14:54Z</time>
  <speed>2.200000</speed>
</trkpt>
<trkpt lat="32.740669250" lon="35.050968170">
  <ele>514.629883</ele>
  <time>2011-08-20T05:14:56Z</time>
  <speed>1.770000</speed>
</trkpt>
<trkpt lat="32.740665436" lon="35.050933838">
  <ele>513.958008</ele>
  <time>2011-08-20T05:14:57Z</time>
  <speed>2.020000</speed>
</trkpt>
<trkpt lat="32.740661621" lon="35.050876617">
  <ele>513.489258</ele>
  <time>2011-08-20T05:14:59Z</time>
  <speed>2.120000</speed>
</trkpt>
<trkpt lat="32.740642548" lon="35.050830841">
  <ele>512.817383</ele>
  <time>2011-08-20T05:15:01Z</time>
  <speed>2.260000</speed>
</trkpt>
<trkpt lat="32.740634918" lon="35.050796509">
  <ele>511.979004</ele>
  <time>2011-08-20T05:15:02Z</time>
  <speed>2.360000</speed>
</trkpt>
<trkpt lat="32.740627289" lon="35.050758362">
  <ele>510.916504</ele>
  <time>2011-08-20T05:15:03Z</time>
  <speed>2.790000</speed>
</trkpt>
<trkpt lat="32.740615845" lon="35.050720215">
  <ele>509.658691</ele>
  <time>2011-08-20T05:15:04Z</time>
  <speed>3.560000</speed>
</trkpt>
<trkpt lat="32.740596771" lon="35.050662994">
  <ele>507.900879</ele>
  <time>2011-08-20T05:15:05Z</time>
  <speed>3.530000</speed>
</trkpt>
<trkpt lat="32.740570068" lon="35.050594330">
  <ele>505.033691</ele>
  <time>2011-08-20T05:15:06Z</time>
  <speed>3.290000</speed>
</trkpt>
<trkpt lat="32.740570068" lon="35.050552368">
  <ele>503.760254</ele>
  <time>2011-08-20T05:15:07Z</time>
  <speed>2.620000</speed>
</trkpt>
<trkpt lat="32.740566254" lon="35.050514221">
  <ele>502.322754</ele>
  <time>2011-08-20T05:15:08Z</time>
  <speed>2.090000</speed>
</trkpt>
<trkpt lat="32.740612030" lon="35.050457001">
  <ele>500.596191</ele>
  <time>2011-08-20T05:15:10Z</time>
  <speed>3.990000</speed>
</trkpt>
<trkpt lat="32.740623474" lon="35.050415039">
  <ele>500.033691</ele>
  <time>2011-08-20T05:15:11Z</time>
  <speed>4.350000</speed>
</trkpt>
<trkpt lat="32.740623474" lon="35.050373077">
  <ele>499.775879</ele>
  <time>2011-08-20T05:15:12Z</time>
  <speed>2.970000</speed>
</trkpt>
<trkpt lat="32.740615845" lon="35.050338745">
  <ele>498.025879</ele>
  <time>2011-08-20T05:15:13Z</time>
  <speed>2.460000</speed>
</trkpt>
<trkpt lat="32.740646362" lon="35.050319672">
  <ele>496.400879</ele>
  <time>2011-08-20T05:15:15Z</time>
  <speed>2.610000</speed>
</trkpt>
<trkpt lat="32.740669250" lon="35.050304413">
  <ele>494.486816</ele>
  <time>2011-08-20T05:15:16Z</time>
  <speed>2.770000</speed>
</trkpt>
<trkpt lat="32.740692139" lon="35.050289154">
  <ele>493.549316</ele>
  <time>2011-08-20T05:15:17Z</time>
  <speed>2.480000</speed>
</trkpt>
<trkpt lat="32.740726471" lon="35.050243378">
  <ele>494.361816</ele>
  <time>2011-08-20T05:15:18Z</time>
  <speed>3.920000</speed>
</trkpt>
<trkpt lat="32.740741730" lon="35.050209045">
  <ele>493.596191</ele>
  <time>2011-08-20T05:15:19Z</time>
  <speed>2.900000</speed>
</trkpt>
<trkpt lat="32.740749359" lon="35.050174713">
  <ele>492.744629</ele>
  <time>2011-08-20T05:15:20Z</time>
  <speed>2.780000</speed>
</trkpt>
<trkpt lat="32.740772247" lon="35.050167084">
  <ele>490.307129</ele>
  <time>2011-08-20T05:15:22Z</time>
  <speed>1.880000</speed>
</trkpt>
<trkpt lat="32.740791321" lon="35.050186157">
  <ele>489.557129</ele>
  <time>2011-08-20T05:15:23Z</time>
  <speed>2.670000</speed>
</trkpt>
<trkpt lat="32.740825653" lon="35.050193787">
  <ele>488.775879</ele>
  <time>2011-08-20T05:15:24Z</time>
  <speed>3.780000</speed>
</trkpt>
<trkpt lat="32.740863800" lon="35.050186157">
  <ele>487.963379</ele>
  <time>2011-08-20T05:15:25Z</time>
  <speed>3.110000</speed>
</trkpt>
<trkpt lat="32.740882874" lon="35.050163269">
  <ele>486.619629</ele>
  <time>2011-08-20T05:15:26Z</time>
  <speed>3.160000</speed>
</trkpt>
<trkpt lat="32.740921021" lon="35.050155640">
  <ele>483.932129</ele>
  <time>2011-08-20T05:15:28Z</time>
  <speed>2.690000</speed>
</trkpt>
<trkpt lat="32.740947723" lon="35.050163269">
  <ele>483.049316</ele>
  <time>2011-08-20T05:15:29Z</time>
  <speed>3.460000</speed>
</trkpt>
<trkpt lat="32.740993500" lon="35.050159454">
  <ele>482.627441</ele>
  <time>2011-08-20T05:15:31Z</time>
  <speed>2.460000</speed>
</trkpt>
<trkpt lat="32.741031647" lon="35.050113678">
  <ele>481.072754</ele>
  <time>2011-08-20T05:15:33Z</time>
  <speed>3.710000</speed>
</trkpt>
<trkpt lat="32.741069794" lon="35.050098419">
  <ele>480.354004</ele>
  <time>2011-08-20T05:15:34Z</time>
  <speed>4.320000</speed>
</trkpt>
<trkpt lat="32.741111755" lon="35.050083160">
  <ele>479.354004</ele>
  <time>2011-08-20T05:15:35Z</time>
  <speed>4.510000</speed>
</trkpt>
<trkpt lat="32.741149902" lon="35.050067902">
  <ele>478.752441</ele>
  <time>2011-08-20T05:15:36Z</time>
  <speed>4.530000</speed>
</trkpt>
<trkpt lat="32.741188049" lon="35.050048828">
  <ele>478.025879</ele>
  <time>2011-08-20T05:15:37Z</time>
  <speed>4.070000</speed>
</trkpt>
<trkpt lat="32.741222382" lon="35.050033569">
  <ele>477.354004</ele>
  <time>2011-08-20T05:15:38Z</time>
  <speed>3.970000</speed>
</trkpt>
<trkpt lat="32.741245270" lon="35.050010681">
  <ele>476.939941</ele>
  <time>2011-08-20T05:15:39Z</time>
  <speed>3.280000</speed>
</trkpt>
<trkpt lat="32.741264343" lon="35.049991608">
  <ele>476.322754</ele>
  <time>2011-08-20T05:15:40Z</time>
  <speed>2.550000</speed>
</trkpt>
<trkpt lat="32.741291046" lon="35.049980164">
  <ele>475.713379</ele>
  <time>2011-08-20T05:15:41Z</time>
  <speed>2.850000</speed>
</trkpt>
<trkpt lat="32.741325378" lon="35.049972534">
  <ele>475.268066</ele>
  <time>2011-08-20T05:15:42Z</time>
  <speed>3.450000</speed>
</trkpt>
<trkpt lat="32.741367340" lon="35.049961090">
  <ele>474.689941</ele>
  <time>2011-08-20T05:15:43Z</time>
  <speed>4.210000</speed>
</trkpt>
<trkpt lat="32.741424561" lon="35.049919128">
  <ele>474.143066</ele>
  <time>2011-08-20T05:15:44Z</time>
  <speed>4.820000</speed>
</trkpt>
<trkpt lat="32.741455078" lon="35.049900055">
  <ele>473.604004</ele>
  <time>2011-08-20T05:15:45Z</time>
  <speed>3.310000</speed>
</trkpt>
<trkpt lat="32.741497040" lon="35.049888611">
  <ele>473.486816</ele>
  <time>2011-08-20T05:15:46Z</time>
  <speed>3.440000</speed>
</trkpt>
<trkpt lat="32.741527557" lon="35.049877167">
  <ele>473.104004</ele>
  <time>2011-08-20T05:15:47Z</time>
  <speed>3.880000</speed>
</trkpt>
<trkpt lat="32.741558075" lon="35.049850464">
  <ele>472.830566</ele>
  <time>2011-08-20T05:15:48Z</time>
  <speed>3.490000</speed>
</trkpt>
<trkpt lat="32.741588593" lon="35.049850464">
  <ele>472.174316</ele>
  <time>2011-08-20T05:15:49Z</time>
  <speed>2.720000</speed>
</trkpt>
<trkpt lat="32.741630554" lon="35.049846649">
  <ele>472.025879</ele>
  <time>2011-08-20T05:15:50Z</time>
  <speed>3.730000</speed>
</trkpt>
<trkpt lat="32.741664886" lon="35.049827576">
  <ele>471.744629</ele>
  <time>2011-08-20T05:15:51Z</time>
  <speed>3.200000</speed>
</trkpt>
<trkpt lat="32.741691589" lon="35.049793243">
  <ele>471.924316</ele>
  <time>2011-08-20T05:15:52Z</time>
  <speed>3.270000</speed>
</trkpt>
<trkpt lat="32.741718292" lon="35.049785614">
  <ele>471.143066</ele>
  <time>2011-08-20T05:15:53Z</time>
  <speed>3.020000</speed>
</trkpt>
<trkpt lat="32.741752625" lon="35.049774170">
  <ele>470.424316</ele>
  <time>2011-08-20T05:15:54Z</time>
  <speed>4.050000</speed>
</trkpt>
<trkpt lat="32.741786957" lon="35.049758911">
  <ele>469.705566</ele>
  <time>2011-08-20T05:15:55Z</time>
  <speed>4.330000</speed>
</trkpt>
<trkpt lat="32.741828918" lon="35.049743652">
  <ele>468.705566</ele>
  <time>2011-08-20T05:15:56Z</time>
  <speed>4.230000</speed>
</trkpt>
<trkpt lat="32.741863251" lon="35.049713135">
  <ele>468.041504</ele>
  <time>2011-08-20T05:15:57Z</time>
  <speed>4.730000</speed>
</trkpt>
<trkpt lat="32.741901398" lon="35.049690247">
  <ele>467.439941</ele>
  <time>2011-08-20T05:15:58Z</time>
  <speed>4.760000</speed>
</trkpt>
<trkpt lat="32.741958618" lon="35.049663544">
  <ele>466.807129</ele>
  <time>2011-08-20T05:15:59Z</time>
  <speed>5.430000</speed>
</trkpt>
<trkpt lat="32.742012024" lon="35.049629211">
  <ele>466.064941</ele>
  <time>2011-08-20T05:16:00Z</time>
  <speed>5.460000</speed>
</trkpt>
<trkpt lat="32.742057800" lon="35.049610138">
  <ele>465.471191</ele>
  <time>2011-08-20T05:16:01Z</time>
  <speed>4.760000</speed>
</trkpt>
<trkpt lat="32.742099762" lon="35.049602509">
  <ele>464.416504</ele>
  <time>2011-08-20T05:16:02Z</time>
  <speed>4.070000</speed>
</trkpt>
<trkpt lat="32.742141724" lon="35.049587250">
  <ele>463.197754</ele>
  <time>2011-08-20T05:16:03Z</time>
  <speed>4.510000</speed>
</trkpt>
<trkpt lat="32.742176056" lon="35.049560547">
  <ele>462.533691</ele>
  <time>2011-08-20T05:16:04Z</time>
  <speed>4.520000</speed>
</trkpt>
<trkpt lat="32.742210388" lon="35.049522400">
  <ele>461.744629</ele>
  <time>2011-08-20T05:16:05Z</time>
  <speed>4.670000</speed>
</trkpt>
<trkpt lat="32.742237091" lon="35.049484253">
  <ele>460.861816</ele>
  <time>2011-08-20T05:16:06Z</time>
  <speed>4.620000</speed>
</trkpt>
<trkpt lat="32.742294312" lon="35.049446106">
  <ele>460.025879</ele>
  <time>2011-08-20T05:16:07Z</time>
  <speed>3.750000</speed>
</trkpt>
<trkpt lat="32.742321014" lon="35.049434662">
  <ele>458.666504</ele>
  <time>2011-08-20T05:16:08Z</time>
  <speed>3.190000</speed>
</trkpt>
<trkpt lat="32.742347717" lon="35.049430847">
  <ele>457.424316</ele>
  <time>2011-08-20T05:16:09Z</time>
  <speed>2.710000</speed>
</trkpt>
<trkpt lat="32.742397308" lon="35.049411774">
  <ele>455.791504</ele>
  <time>2011-08-20T05:16:11Z</time>
  <speed>3.360000</speed>
</trkpt>
<trkpt lat="32.742450714" lon="35.049392700">
  <ele>455.119629</ele>
  <time>2011-08-20T05:16:12Z</time>
  <speed>4.110000</speed>
</trkpt>
<trkpt lat="32.742485046" lon="35.049385071">
  <ele>454.104004</ele>
  <time>2011-08-20T05:16:13Z</time>
  <speed>3.270000</speed>
</trkpt>
<trkpt lat="32.742511749" lon="35.049373627">
  <ele>453.205566</ele>
  <time>2011-08-20T05:16:14Z</time>
  <speed>2.850000</speed>
</trkpt>
<trkpt lat="32.742542267" lon="35.049381256">
  <ele>451.463379</ele>
  <time>2011-08-20T05:16:16Z</time>
  <speed>2.180000</speed>
</trkpt>
<trkpt lat="32.742565155" lon="35.049373627">
  <ele>450.346191</ele>
  <time>2011-08-20T05:16:17Z</time>
  <speed>3.190000</speed>
</trkpt>
<trkpt lat="32.742599487" lon="35.049369812">
  <ele>449.307129</ele>
  <time>2011-08-20T05:16:18Z</time>
  <speed>3.330000</speed>
</trkpt>
<trkpt lat="32.742633820" lon="35.049369812">
  <ele>448.104004</ele>
  <time>2011-08-20T05:16:19Z</time>
  <speed>4.000000</speed>
</trkpt>
<trkpt lat="32.742671967" lon="35.049369812">
  <ele>446.783691</ele>
  <time>2011-08-20T05:16:20Z</time>
  <speed>4.260000</speed>
</trkpt>
<trkpt lat="32.742729187" lon="35.049358368">
  <ele>445.986816</ele>
  <time>2011-08-20T05:16:21Z</time>
  <speed>4.090000</speed>
</trkpt>
<trkpt lat="32.742767334" lon="35.049350739">
  <ele>446.143066</ele>
  <time>2011-08-20T05:16:22Z</time>
  <speed>3.680000</speed>
</trkpt>
<trkpt lat="32.742801666" lon="35.049362183">
  <ele>443.447754</ele>
  <time>2011-08-20T05:16:23Z</time>
  <speed>3.680000</speed>
</trkpt>
<trkpt lat="32.742847443" lon="35.049377441">
  <ele>441.635254</ele>
  <time>2011-08-20T05:16:24Z</time>
  <speed>4.190000</speed>
</trkpt>
<trkpt lat="32.742889404" lon="35.049373627">
  <ele>441.033691</ele>
  <time>2011-08-20T05:16:25Z</time>
  <speed>4.030000</speed>
</trkpt>
<trkpt lat="32.742938995" lon="35.049373627">
  <ele>439.533691</ele>
  <time>2011-08-20T05:16:26Z</time>
  <speed>4.800000</speed>
</trkpt>
<trkpt lat="32.742988586" lon="35.049385071">
  <ele>438.229004</ele>
  <time>2011-08-20T05:16:27Z</time>
  <speed>4.760000</speed>
</trkpt>
<trkpt lat="32.743049622" lon="35.049392700">
  <ele>437.986816</ele>
  <time>2011-08-20T05:16:28Z</time>
  <speed>5.000000</speed>
</trkpt>
<trkpt lat="32.743106842" lon="35.049396515">
  <ele>438.072754</ele>
  <time>2011-08-20T05:16:29Z</time>
  <speed>4.590000</speed>
</trkpt>
<trkpt lat="32.743152618" lon="35.049396515">
  <ele>437.119629</ele>
  <time>2011-08-20T05:16:30Z</time>
  <speed>4.610000</speed>
</trkpt>
<trkpt lat="32.743183136" lon="35.049404144">
  <ele>436.158691</ele>
  <time>2011-08-20T05:16:31Z</time>
  <speed>3.640000</speed>
</trkpt>
<trkpt lat="32.743244171" lon="35.049419403">
  <ele>435.838379</ele>
  <time>2011-08-20T05:16:33Z</time>
  <speed>4.030000</speed>
</trkpt>
<trkpt lat="32.743278503" lon="35.049430847">
  <ele>434.721191</ele>
  <time>2011-08-20T05:16:34Z</time>
  <speed>3.760000</speed>
</trkpt>
<trkpt lat="32.743316650" lon="35.049434662">
  <ele>433.736816</ele>
  <time>2011-08-20T05:16:35Z</time>
  <speed>4.130000</speed>
</trkpt>
<trkpt lat="32.743354797" lon="35.049430847">
  <ele>432.697754</ele>
  <time>2011-08-20T05:16:36Z</time>
  <speed>4.320000</speed>
</trkpt>
<trkpt lat="32.743396759" lon="35.049430847">
  <ele>431.924316</ele>
  <time>2011-08-20T05:16:37Z</time>
  <speed>4.730000</speed>
</trkpt>
<trkpt lat="32.743450165" lon="35.049438477">
  <ele>431.416504</ele>
  <time>2011-08-20T05:16:38Z</time>
  <speed>4.820000</speed>
</trkpt>
<trkpt lat="32.743503571" lon="35.049434662">
  <ele>431.557129</ele>
  <time>2011-08-20T05:16:39Z</time>
  <speed>4.330000</speed>
</trkpt>
<trkpt lat="32.743534088" lon="35.049423218">
  <ele>432.650879</ele>
  <time>2011-08-20T05:16:40Z</time>
  <speed>3.120000</speed>
</trkpt>
<trkpt lat="32.743572235" lon="35.049419403">
  <ele>432.822754</ele>
  <time>2011-08-20T05:16:41Z</time>
  <speed>3.950000</speed>
</trkpt>
<trkpt lat="32.743618011" lon="35.049404144">
  <ele>433.244629</ele>
  <time>2011-08-20T05:16:42Z</time>
  <speed>4.220000</speed>
</trkpt>
<trkpt lat="32.743652344" lon="35.049388885">
  <ele>432.861816</ele>
  <time>2011-08-20T05:16:43Z</time>
  <speed>3.820000</speed>
</trkpt>
<trkpt lat="32.743682861" lon="35.049362183">
  <ele>432.877441</ele>
  <time>2011-08-20T05:16:44Z</time>
  <speed>2.550000</speed>
</trkpt>
<trkpt lat="32.743682861" lon="35.049297333">
  <ele>433.010254</ele>
  <time>2011-08-20T05:16:46Z</time>
  <speed>2.830000</speed>
</trkpt>
<trkpt lat="32.743671417" lon="35.049270630">
  <ele>431.963379</ele>
  <time>2011-08-20T05:16:47Z</time>
  <speed>2.840000</speed>
</trkpt>
<trkpt lat="32.743659973" lon="35.049232483">
  <ele>432.533691</ele>
  <time>2011-08-20T05:16:48Z</time>
  <speed>3.230000</speed>
</trkpt>
<trkpt lat="32.743644714" lon="35.049190521">
  <ele>431.854004</ele>
  <time>2011-08-20T05:16:49Z</time>
  <speed>3.270000</speed>
</trkpt>
<trkpt lat="32.743640900" lon="35.049156189">
  <ele>431.463379</ele>
  <time>2011-08-20T05:16:50Z</time>
  <speed>2.940000</speed>
</trkpt>
<trkpt lat="32.743633270" lon="35.049118042">
  <ele>430.939941</ele>
  <time>2011-08-20T05:16:51Z</time>
  <speed>2.960000</speed>
</trkpt>
<trkpt lat="32.743629456" lon="35.049087524">
  <ele>431.072754</ele>
  <time>2011-08-20T05:16:52Z</time>
  <speed>2.670000</speed>
</trkpt>
<trkpt lat="32.743640900" lon="35.049030304">
  <ele>430.799316</ele>
  <time>2011-08-20T05:16:54Z</time>
  <speed>1.910000</speed>
</trkpt>
<trkpt lat="32.743633270" lon="35.048988342">
  <ele>430.361816</ele>
  <time>2011-08-20T05:16:56Z</time>
  <speed>1.470000</speed>
</trkpt>
<trkpt lat="32.743640900" lon="35.048950195">
  <ele>430.018066</ele>
  <time>2011-08-20T05:16:58Z</time>
  <speed>1.820000</speed>
</trkpt>
<trkpt lat="32.743644714" lon="35.048900604">
  <ele>430.299316</ele>
  <time>2011-08-20T05:17:00Z</time>
  <speed>2.420000</speed>
</trkpt>
<trkpt lat="32.743663788" lon="35.048851013">
  <ele>430.650879</ele>
  <time>2011-08-20T05:17:02Z</time>
  <speed>2.520000</speed>
</trkpt>
<trkpt lat="32.743682861" lon="35.048816681">
  <ele>429.174316</ele>
  <time>2011-08-20T05:17:04Z</time>
  <speed>2.180000</speed>
</trkpt>
<trkpt lat="32.743705750" lon="35.048782349">
  <ele>427.502441</ele>
  <time>2011-08-20T05:17:06Z</time>
  <speed>2.570000</speed>
</trkpt>
<trkpt lat="32.743732452" lon="35.048748016">
  <ele>426.658691</ele>
  <time>2011-08-20T05:17:08Z</time>
  <speed>2.020000</speed>
</trkpt>
<trkpt lat="32.743755341" lon="35.048706055">
  <ele>426.229004</ele>
  <time>2011-08-20T05:17:10Z</time>
  <speed>2.850000</speed>
</trkpt>
<trkpt lat="32.743770599" lon="35.048675537">
  <ele>425.385254</ele>
  <time>2011-08-20T05:17:11Z</time>
  <speed>3.290000</speed>
</trkpt>
<trkpt lat="32.743785858" lon="35.048645020">
  <ele>424.846191</ele>
  <time>2011-08-20T05:17:12Z</time>
  <speed>3.520000</speed>
</trkpt>
<trkpt lat="32.743812561" lon="35.048622131">
  <ele>424.377441</ele>
  <time>2011-08-20T05:17:13Z</time>
  <speed>3.670000</speed>
</trkpt>
<trkpt lat="32.743835449" lon="35.048587799">
  <ele>424.283691</ele>
  <time>2011-08-20T05:17:14Z</time>
  <speed>3.550000</speed>
</trkpt>
<trkpt lat="32.743846893" lon="35.048542023">
  <ele>423.033691</ele>
  <time>2011-08-20T05:17:16Z</time>
  <speed>2.230000</speed>
</trkpt>
<trkpt lat="32.743843079" lon="35.048484802">
  <ele>422.557129</ele>
  <time>2011-08-20T05:17:18Z</time>
  <speed>2.620000</speed>
</trkpt>
<trkpt lat="32.743850708" lon="35.048416138">
  <ele>421.916504</ele>
  <time>2011-08-20T05:17:20Z</time>
  <speed>3.290000</speed>
</trkpt>
<trkpt lat="32.743862152" lon="35.048381805">
  <ele>421.635254</ele>
  <time>2011-08-20T05:17:21Z</time>
  <speed>3.360000</speed>
</trkpt>
<trkpt lat="32.743865967" lon="35.048347473">
  <ele>421.252441</ele>
  <time>2011-08-20T05:17:22Z</time>
  <speed>3.380000</speed>
</trkpt>
<trkpt lat="32.743877411" lon="35.048309326">
  <ele>421.018066</ele>
  <time>2011-08-20T05:17:23Z</time>
  <speed>3.230000</speed>
</trkpt>
<trkpt lat="32.743892670" lon="35.048274994">
  <ele>420.752441</ele>
  <time>2011-08-20T05:17:24Z</time>
  <speed>3.380000</speed>
</trkpt>
<trkpt lat="32.743904114" lon="35.048244476">
  <ele>420.283691</ele>
  <time>2011-08-20T05:17:25Z</time>
  <speed>2.990000</speed>
</trkpt>
<trkpt lat="32.743911743" lon="35.048213959">
  <ele>420.104004</ele>
  <time>2011-08-20T05:17:26Z</time>
  <speed>2.520000</speed>
</trkpt>
<trkpt lat="32.743942261" lon="35.048160553">
  <ele>419.846191</ele>
  <time>2011-08-20T05:17:28Z</time>
  <speed>2.960000</speed>
</trkpt>
<trkpt lat="32.743957520" lon="35.048130035">
  <ele>419.713379</ele>
  <time>2011-08-20T05:17:29Z</time>
  <speed>3.770000</speed>
</trkpt>
<trkpt lat="32.743965149" lon="35.048095703">
  <ele>419.205566</ele>
  <time>2011-08-20T05:17:30Z</time>
  <speed>3.020000</speed>
</trkpt>
<trkpt lat="32.743949890" lon="35.048038483">
  <ele>418.705566</ele>
  <time>2011-08-20T05:17:32Z</time>
  <speed>2.850000</speed>
</trkpt>
<trkpt lat="32.743942261" lon="35.048004150">
  <ele>418.869629</ele>
  <time>2011-08-20T05:17:33Z</time>
  <speed>3.080000</speed>
</trkpt>
<trkpt lat="32.743919373" lon="35.047943115">
  <ele>419.682129</ele>
  <time>2011-08-20T05:17:35Z</time>
  <speed>2.980000</speed>
</trkpt>
<trkpt lat="32.743904114" lon="35.047882080">
  <ele>420.096191</ele>
  <time>2011-08-20T05:17:37Z</time>
  <speed>2.380000</speed>
</trkpt>
<trkpt lat="32.743892670" lon="35.047843933">
  <ele>421.197754</ele>
  <time>2011-08-20T05:17:39Z</time>
  <speed>1.880000</speed>
</trkpt>
<trkpt lat="32.743892670" lon="35.047801971">
  <ele>421.939941</ele>
  <time>2011-08-20T05:17:41Z</time>
  <speed>2.250000</speed>
</trkpt>
<trkpt lat="32.743877411" lon="35.047756195">
  <ele>422.486816</ele>
  <time>2011-08-20T05:17:43Z</time>
  <speed>2.200000</speed>
</trkpt>
<trkpt lat="32.743850708" lon="35.047729492">
  <ele>423.947754</ele>
  <time>2011-08-20T05:17:46Z</time>
  <speed>1.640000</speed>
</trkpt>
<trkpt lat="32.743839264" lon="35.047702789">
  <ele>424.424316</ele>
  <time>2011-08-20T05:17:48Z</time>
  <speed>1.820000</speed>
</trkpt>
<trkpt lat="32.743824005" lon="35.047668457">
  <ele>424.549316</ele>
  <time>2011-08-20T05:17:50Z</time>
  <speed>1.890000</speed>
</trkpt>
<trkpt lat="32.743820190" lon="35.047630310">
  <ele>425.150879</ele>
  <time>2011-08-20T05:17:52Z</time>
  <speed>1.870000</speed>
</trkpt>
<trkpt lat="32.743820190" lon="35.047592163">
  <ele>425.158691</ele>
  <time>2011-08-20T05:17:54Z</time>
  <speed>1.950000</speed>
</trkpt>
<trkpt lat="32.743816376" lon="35.047546387">
  <ele>425.150879</ele>
  <time>2011-08-20T05:17:56Z</time>
  <speed>1.860000</speed>
</trkpt>
<trkpt lat="32.743812561" lon="35.047512054">
  <ele>425.994629</ele>
  <time>2011-08-20T05:17:58Z</time>
  <speed>2.100000</speed>
</trkpt>
<trkpt lat="32.743804932" lon="35.047481537">
  <ele>426.299316</ele>
  <time>2011-08-20T05:17:59Z</time>
  <speed>2.250000</speed>
</trkpt>
<trkpt lat="32.743801117" lon="35.047435760">
  <ele>426.275879</ele>
  <time>2011-08-20T05:18:01Z</time>
  <speed>1.990000</speed>
</trkpt>
<trkpt lat="32.743797302" lon="35.047401428">
  <ele>427.150879</ele>
  <time>2011-08-20T05:18:03Z</time>
  <speed>1.810000</speed>
</trkpt>
<trkpt lat="32.743789673" lon="35.047359467">
  <ele>426.963379</ele>
  <time>2011-08-20T05:18:05Z</time>
  <speed>2.360000</speed>
</trkpt>
<trkpt lat="32.743782043" lon="35.047313690">
  <ele>427.158691</ele>
  <time>2011-08-20T05:18:07Z</time>
  <speed>2.210000</speed>
</trkpt>
<trkpt lat="32.743762970" lon="35.047267914">
  <ele>427.932129</ele>
  <time>2011-08-20T05:18:09Z</time>
  <speed>2.410000</speed>
</trkpt>
<trkpt lat="32.743736267" lon="35.047237396">
  <ele>428.119629</ele>
  <time>2011-08-20T05:18:11Z</time>
  <speed>2.270000</speed>
</trkpt>
<trkpt lat="32.743701935" lon="35.047206879">
  <ele>429.182129</ele>
  <time>2011-08-20T05:18:13Z</time>
  <speed>2.210000</speed>
</trkpt>
<trkpt lat="32.743675232" lon="35.047176361">
  <ele>429.150879</ele>
  <time>2011-08-20T05:18:15Z</time>
  <speed>2.340000</speed>
</trkpt>
<trkpt lat="32.743652344" lon="35.047138214">
  <ele>429.604004</ele>
  <time>2011-08-20T05:18:17Z</time>
  <speed>2.020000</speed>
</trkpt>
<trkpt lat="32.743637085" lon="35.047084808">
  <ele>429.955566</ele>
  <time>2011-08-20T05:18:19Z</time>
  <speed>2.920000</speed>
</trkpt>
<trkpt lat="32.743618011" lon="35.047031403">
  <ele>429.424316</ele>
  <time>2011-08-20T05:18:21Z</time>
  <speed>2.360000</speed>
</trkpt>
<trkpt lat="32.743595123" lon="35.046989441">
  <ele>429.494629</ele>
  <time>2011-08-20T05:18:23Z</time>
  <speed>2.520000</speed>
</trkpt>
<trkpt lat="32.743564606" lon="35.046947479">
  <ele>429.479004</ele>
  <time>2011-08-20T05:18:25Z</time>
  <speed>2.470000</speed>
</trkpt>
<trkpt lat="32.743534088" lon="35.046905518">
  <ele>430.510254</ele>
  <time>2011-08-20T05:18:27Z</time>
  <speed>2.320000</speed>
</trkpt>
<trkpt lat="32.743499756" lon="35.046871185">
  <ele>431.182129</ele>
  <time>2011-08-20T05:18:29Z</time>
  <speed>2.550000</speed>
</trkpt>
<trkpt lat="32.743473053" lon="35.046852112">
  <ele>430.682129</ele>
  <time>2011-08-20T05:18:30Z</time>
  <speed>2.370000</speed>
</trkpt>
<trkpt lat="32.743438721" lon="35.046817780">
  <ele>430.354004</ele>
  <time>2011-08-20T05:18:32Z</time>
  <speed>2.290000</speed>
</trkpt>
<trkpt lat="32.743404388" lon="35.046791077">
  <ele>431.041504</ele>
  <time>2011-08-20T05:18:34Z</time>
  <speed>2.050000</speed>
</trkpt>
<trkpt lat="32.743385315" lon="35.046752930">
  <ele>431.064941</ele>
  <time>2011-08-20T05:18:36Z</time>
  <speed>1.870000</speed>
</trkpt>
<trkpt lat="32.743377686" lon="35.046707153">
  <ele>431.502441</ele>
  <time>2011-08-20T05:18:38Z</time>
  <speed>1.490000</speed>
</trkpt>
<trkpt lat="32.743362427" lon="35.046680450">
  <ele>432.127441</ele>
  <time>2011-08-20T05:18:40Z</time>
  <speed>1.940000</speed>
</trkpt>
<trkpt lat="32.743347168" lon="35.046630859">
  <ele>433.252441</ele>
  <time>2011-08-20T05:18:42Z</time>
  <speed>2.100000</speed>
</trkpt>
<trkpt lat="32.743324280" lon="35.046592712">
  <ele>434.182129</ele>
  <time>2011-08-20T05:18:44Z</time>
  <speed>2.120000</speed>
</trkpt>
<trkpt lat="32.743293762" lon="35.046558380">
  <ele>434.541504</ele>
  <time>2011-08-20T05:18:46Z</time>
  <speed>2.400000</speed>
</trkpt>
<trkpt lat="32.743263245" lon="35.046543121">
  <ele>434.939941</ele>
  <time>2011-08-20T05:18:48Z</time>
  <speed>1.780000</speed>
</trkpt>
<trkpt lat="32.743225098" lon="35.046520233">
  <ele>434.525879</ele>
  <time>2011-08-20T05:18:50Z</time>
  <speed>2.390000</speed>
</trkpt>
<trkpt lat="32.743190765" lon="35.046493530">
  <ele>434.604004</ele>
  <time>2011-08-20T05:18:52Z</time>
  <speed>2.400000</speed>
</trkpt>
<trkpt lat="32.743137360" lon="35.046493530">
  <ele>435.010254</ele>
  <time>2011-08-20T05:18:54Z</time>
  <speed>2.470000</speed>
</trkpt>
<trkpt lat="32.743095398" lon="35.046482086">
  <ele>435.549316</ele>
  <time>2011-08-20T05:18:56Z</time>
  <speed>2.370000</speed>
</trkpt>
<trkpt lat="32.743049622" lon="35.046470642">
  <ele>435.236816</ele>
  <time>2011-08-20T05:18:58Z</time>
  <speed>2.150000</speed>
</trkpt>
<trkpt lat="32.743007660" lon="35.046466827">
  <ele>435.658691</ele>
  <time>2011-08-20T05:19:00Z</time>
  <speed>2.290000</speed>
</trkpt>
<trkpt lat="32.742973328" lon="35.046447754">
  <ele>435.814941</ele>
  <time>2011-08-20T05:19:02Z</time>
  <speed>2.110000</speed>
</trkpt>
<trkpt lat="32.742931366" lon="35.046443939">
  <ele>435.729004</ele>
  <time>2011-08-20T05:19:04Z</time>
  <speed>2.080000</speed>
</trkpt>
<trkpt lat="32.742885590" lon="35.046440125">
  <ele>435.924316</ele>
  <time>2011-08-20T05:19:06Z</time>
  <speed>2.200000</speed>
</trkpt>
<trkpt lat="32.742832184" lon="35.046459198">
  <ele>436.268066</ele>
  <time>2011-08-20T05:19:08Z</time>
  <speed>1.730000</speed>
</trkpt>
<trkpt lat="32.742797852" lon="35.046440125">
  <ele>436.369629</ele>
  <time>2011-08-20T05:19:10Z</time>
  <speed>1.730000</speed>
</trkpt>
<trkpt lat="32.742759705" lon="35.046432495">
  <ele>436.471191</ele>
  <time>2011-08-20T05:19:12Z</time>
  <speed>1.870000</speed>
</trkpt>
<trkpt lat="32.742721558" lon="35.046421051">
  <ele>436.408691</ele>
  <time>2011-08-20T05:19:14Z</time>
  <speed>2.430000</speed>
</trkpt>
<trkpt lat="32.742679596" lon="35.046440125">
  <ele>436.346191</ele>
  <time>2011-08-20T05:19:16Z</time>
  <speed>2.370000</speed>
</trkpt>
<trkpt lat="32.742645264" lon="35.046451569">
  <ele>436.627441</ele>
  <time>2011-08-20T05:19:19Z</time>
  <speed>1.150000</speed>
</trkpt>
<trkpt lat="32.742614746" lon="35.046463013">
  <ele>436.689941</ele>
  <time>2011-08-20T05:19:21Z</time>
  <speed>1.190000</speed>
</trkpt>
<trkpt lat="32.742588043" lon="35.046482086">
  <ele>437.283691</ele>
  <time>2011-08-20T05:19:22Z</time>
  <speed>0.860000</speed>
</trkpt>
<trkpt lat="32.742561340" lon="35.046497345">
  <ele>438.518066</ele>
  <time>2011-08-20T05:19:24Z</time>
  <speed>0.910000</speed>
</trkpt>
<trkpt lat="32.742538452" lon="35.046512604">
  <ele>438.541504</ele>
  <time>2011-08-20T05:19:26Z</time>
  <speed>0.950000</speed>
</trkpt>
<trkpt lat="32.742496490" lon="35.046508789">
  <ele>439.596191</ele>
  <time>2011-08-20T05:19:29Z</time>
  <speed>1.700000</speed>
</trkpt>
<trkpt lat="32.742462158" lon="35.046493530">
  <ele>439.760254</ele>
  <time>2011-08-20T05:19:31Z</time>
  <speed>1.910000</speed>
</trkpt>
<trkpt lat="32.742424011" lon="35.046501160">
  <ele>439.658691</ele>
  <time>2011-08-20T05:19:33Z</time>
  <speed>1.620000</speed>
</trkpt>
<trkpt lat="32.742385864" lon="35.046501160">
  <ele>439.822754</ele>
  <time>2011-08-20T05:19:35Z</time>
  <speed>1.790000</speed>
</trkpt>
<trkpt lat="32.742355347" lon="35.046512604">
  <ele>440.377441</ele>
  <time>2011-08-20T05:19:37Z</time>
  <speed>1.460000</speed>
</trkpt>
<trkpt lat="32.742317200" lon="35.046497345">
  <ele>440.518066</ele>
  <time>2011-08-20T05:19:39Z</time>
  <speed>1.600000</speed>
</trkpt>
<trkpt lat="32.742271423" lon="35.046531677">
  <ele>440.768066</ele>
  <time>2011-08-20T05:19:40Z</time>
  <speed>1.580000</speed>
</trkpt>
<trkpt lat="32.742244720" lon="35.046535492">
  <ele>441.564941</ele>
  <time>2011-08-20T05:19:42Z</time>
  <speed>1.960000</speed>
</trkpt>
<trkpt lat="32.742218018" lon="35.046527863">
  <ele>441.908691</ele>
  <time>2011-08-20T05:19:44Z</time>
  <speed>1.480000</speed>
</trkpt>
<trkpt lat="32.742191315" lon="35.046512604">
  <ele>442.111816</ele>
  <time>2011-08-20T05:19:46Z</time>
  <speed>2.010000</speed>
</trkpt>
<trkpt lat="32.742160797" lon="35.046516418">
  <ele>442.432129</ele>
  <time>2011-08-20T05:19:48Z</time>
  <speed>1.750000</speed>
</trkpt>
<trkpt lat="32.742122650" lon="35.046516418">
  <ele>442.314941</ele>
  <time>2011-08-20T05:19:50Z</time>
  <speed>1.720000</speed>
</trkpt>
<trkpt lat="32.742099762" lon="35.046485901">
  <ele>441.713379</ele>
  <time>2011-08-20T05:19:51Z</time>
  <speed>1.790000</speed>
</trkpt>
<trkpt lat="32.742073059" lon="35.046470642">
  <ele>441.705566</ele>
  <time>2011-08-20T05:19:53Z</time>
  <speed>1.180000</speed>
</trkpt>
<trkpt lat="32.742038727" lon="35.046485901">
  <ele>441.877441</ele>
  <time>2011-08-20T05:19:55Z</time>
  <speed>1.380000</speed>
</trkpt>
<trkpt lat="32.742008209" lon="35.046493530">
  <ele>442.072754</ele>
  <time>2011-08-20T05:19:57Z</time>
  <speed>1.640000</speed>
</trkpt>
<trkpt lat="32.741973877" lon="35.046520233">
  <ele>441.979004</ele>
  <time>2011-08-20T05:19:59Z</time>
  <speed>1.670000</speed>
</trkpt>
<trkpt lat="32.741939545" lon="35.046531677">
  <ele>441.791504</ele>
  <time>2011-08-20T05:20:01Z</time>
  <speed>1.500000</speed>
</trkpt>
<trkpt lat="32.741893768" lon="35.046550751">
  <ele>441.744629</ele>
  <time>2011-08-20T05:20:03Z</time>
  <speed>1.820000</speed>
</trkpt>
<trkpt lat="32.741851807" lon="35.046562195">
  <ele>441.447754</ele>
  <time>2011-08-20T05:20:05Z</time>
  <speed>2.410000</speed>
</trkpt>
<trkpt lat="32.741817474" lon="35.046573639">
  <ele>441.229004</ele>
  <time>2011-08-20T05:20:06Z</time>
  <speed>2.530000</speed>
</trkpt>
<trkpt lat="32.741786957" lon="35.046573639">
  <ele>441.057129</ele>
  <time>2011-08-20T05:20:07Z</time>
  <speed>2.860000</speed>
</trkpt>
<trkpt lat="32.741756439" lon="35.046607971">
  <ele>440.674316</ele>
  <time>2011-08-20T05:20:08Z</time>
  <speed>3.120000</speed>
</trkpt>
<trkpt lat="32.741718292" lon="35.046619415">
  <ele>440.854004</ele>
  <time>2011-08-20T05:20:09Z</time>
  <speed>3.400000</speed>
</trkpt>
<trkpt lat="32.741683960" lon="35.046619415">
  <ele>441.041504</ele>
  <time>2011-08-20T05:20:10Z</time>
  <speed>3.980000</speed>
</trkpt>
<trkpt lat="32.741641998" lon="35.046607971">
  <ele>440.760254</ele>
  <time>2011-08-20T05:20:11Z</time>
  <speed>4.400000</speed>
</trkpt>
<trkpt lat="32.741603851" lon="35.046604156">
  <ele>440.697754</ele>
  <time>2011-08-20T05:20:12Z</time>
  <speed>4.260000</speed>
</trkpt>
<trkpt lat="32.741550446" lon="35.046615601">
  <ele>440.635254</ele>
  <time>2011-08-20T05:20:13Z</time>
  <speed>3.770000</speed>
</trkpt>
<trkpt lat="32.741516113" lon="35.046630859">
  <ele>440.752441</ele>
  <time>2011-08-20T05:20:14Z</time>
  <speed>3.680000</speed>
</trkpt>
<trkpt lat="32.741470337" lon="35.046661377">
  <ele>440.932129</ele>
  <time>2011-08-20T05:20:15Z</time>
  <speed>3.540000</speed>
</trkpt>
<trkpt lat="32.741439819" lon="35.046676636">
  <ele>440.979004</ele>
  <time>2011-08-20T05:20:16Z</time>
  <speed>3.600000</speed>
</trkpt>
<trkpt lat="32.741409302" lon="35.046684265">
  <ele>440.674316</ele>
  <time>2011-08-20T05:20:17Z</time>
  <speed>3.080000</speed>
</trkpt>
<trkpt lat="32.741382599" lon="35.046699524">
  <ele>440.932129</ele>
  <time>2011-08-20T05:20:18Z</time>
  <speed>2.240000</speed>
</trkpt>
<trkpt lat="32.741340637" lon="35.046680450">
  <ele>440.455566</ele>
  <time>2011-08-20T05:20:20Z</time>
  <speed>2.530000</speed>
</trkpt>
<trkpt lat="32.741310120" lon="35.046672821">
  <ele>439.971191</ele>
  <time>2011-08-20T05:20:21Z</time>
  <speed>2.540000</speed>
</trkpt>
<trkpt lat="32.741260529" lon="35.046665192">
  <ele>439.744629</ele>
  <time>2011-08-20T05:20:23Z</time>
  <speed>2.650000</speed>
</trkpt>
<trkpt lat="32.741233826" lon="35.046676636">
  <ele>439.822754</ele>
  <time>2011-08-20T05:20:24Z</time>
  <speed>2.620000</speed>
</trkpt>
<trkpt lat="32.741184235" lon="35.046714783">
  <ele>439.932129</ele>
  <time>2011-08-20T05:20:25Z</time>
  <speed>2.720000</speed>
</trkpt>
<trkpt lat="32.741134644" lon="35.046722412">
  <ele>439.393066</ele>
  <time>2011-08-20T05:20:27Z</time>
  <speed>2.450000</speed>
</trkpt>
<trkpt lat="32.741085052" lon="35.046745300">
  <ele>438.666504</ele>
  <time>2011-08-20T05:20:29Z</time>
  <speed>2.460000</speed>
</trkpt>
<trkpt lat="32.741058350" lon="35.046749115">
  <ele>438.533691</ele>
  <time>2011-08-20T05:20:30Z</time>
  <speed>2.530000</speed>
</trkpt>
<trkpt lat="32.741012573" lon="35.046760559">
  <ele>437.697754</ele>
  <time>2011-08-20T05:20:32Z</time>
  <speed>2.270000</speed>
</trkpt>
<trkpt lat="32.740959167" lon="35.046779633">
  <ele>437.627441</ele>
  <time>2011-08-20T05:20:34Z</time>
  <speed>2.720000</speed>
</trkpt>
<trkpt lat="32.740932465" lon="35.046779633">
  <ele>437.447754</ele>
  <time>2011-08-20T05:20:35Z</time>
  <speed>2.750000</speed>
</trkpt>
<trkpt lat="32.740905762" lon="35.046783447">
  <ele>437.260254</ele>
  <time>2011-08-20T05:20:36Z</time>
  <speed>2.570000</speed>
</trkpt>
<trkpt lat="32.740863800" lon="35.046791077">
  <ele>437.268066</ele>
  <time>2011-08-20T05:20:38Z</time>
  <speed>2.210000</speed>
</trkpt>
<trkpt lat="32.740829468" lon="35.046787262">
  <ele>436.744629</ele>
  <time>2011-08-20T05:20:40Z</time>
  <speed>1.340000</speed>
</trkpt>
<trkpt lat="32.740791321" lon="35.046798706">
  <ele>436.869629</ele>
  <time>2011-08-20T05:20:42Z</time>
  <speed>1.700000</speed>
</trkpt>
<trkpt lat="32.740745544" lon="35.046844482">
  <ele>437.072754</ele>
  <time>2011-08-20T05:20:44Z</time>
  <speed>1.630000</speed>
</trkpt>
<trkpt lat="32.740680695" lon="35.046871185">
  <ele>437.010254</ele>
  <time>2011-08-20T05:20:46Z</time>
  <speed>2.760000</speed>
</trkpt>
<trkpt lat="32.740650177" lon="35.046894073">
  <ele>436.768066</ele>
  <time>2011-08-20T05:20:47Z</time>
  <speed>2.580000</speed>
</trkpt>
<trkpt lat="32.740615845" lon="35.046916962">
  <ele>436.338379</ele>
  <time>2011-08-20T05:20:48Z</time>
  <speed>2.930000</speed>
</trkpt>
<trkpt lat="32.740581512" lon="35.046924591">
  <ele>436.682129</ele>
  <time>2011-08-20T05:20:49Z</time>
  <speed>3.350000</speed>
</trkpt>
<trkpt lat="32.740547180" lon="35.046936035">
  <ele>436.650879</ele>
  <time>2011-08-20T05:20:50Z</time>
  <speed>3.250000</speed>
</trkpt>
<trkpt lat="32.740512848" lon="35.046943665">
  <ele>436.588379</ele>
  <time>2011-08-20T05:20:51Z</time>
  <speed>3.460000</speed>
</trkpt>
<trkpt lat="32.740470886" lon="35.046947479">
  <ele>435.916504</ele>
  <time>2011-08-20T05:20:52Z</time>
  <speed>4.530000</speed>
</trkpt>
<trkpt lat="32.740421295" lon="35.046970367">
  <ele>436.049316</ele>
  <time>2011-08-20T05:20:53Z</time>
  <speed>4.550000</speed>
</trkpt>
<trkpt lat="32.740352631" lon="35.047031403">
  <ele>435.947754</ele>
  <time>2011-08-20T05:20:54Z</time>
  <speed>5.300000</speed>
</trkpt>
<trkpt lat="32.740306854" lon="35.047061920">
  <ele>435.947754</ele>
  <time>2011-08-20T05:20:55Z</time>
  <speed>5.250000</speed>
</trkpt>
<trkpt lat="32.740257263" lon="35.047065735">
  <ele>436.096191</ele>
  <time>2011-08-20T05:20:56Z</time>
  <speed>3.190000</speed>
</trkpt>
<trkpt lat="32.740215302" lon="35.047092438">
  <ele>436.283691</ele>
  <time>2011-08-20T05:20:58Z</time>
  <speed>2.320000</speed>
</trkpt>
<trkpt lat="32.740165710" lon="35.047126770">
  <ele>436.033691</ele>
  <time>2011-08-20T05:21:00Z</time>
  <speed>2.980000</speed>
</trkpt>
<trkpt lat="32.740142822" lon="35.047142029">
  <ele>436.018066</ele>
  <time>2011-08-20T05:21:01Z</time>
  <speed>2.690000</speed>
</trkpt>
<trkpt lat="32.740123749" lon="35.047172546">
  <ele>435.432129</ele>
  <time>2011-08-20T05:21:02Z</time>
  <speed>3.030000</speed>
</trkpt>
<trkpt lat="32.740085602" lon="35.047203064">
  <ele>435.244629</ele>
  <time>2011-08-20T05:21:03Z</time>
  <speed>4.600000</speed>
</trkpt>
<trkpt lat="32.740047455" lon="35.047214508">
  <ele>435.752441</ele>
  <time>2011-08-20T05:21:04Z</time>
  <speed>4.420000</speed>
</trkpt>
<trkpt lat="32.740020752" lon="35.047233582">
  <ele>435.799316</ele>
  <time>2011-08-20T05:21:05Z</time>
  <speed>2.610000</speed>
</trkpt>
<trkpt lat="32.739971161" lon="35.047279358">
  <ele>436.166504</ele>
  <time>2011-08-20T05:21:06Z</time>
  <speed>4.620000</speed>
</trkpt>
<trkpt lat="32.739933014" lon="35.047294617">
  <ele>436.721191</ele>
  <time>2011-08-20T05:21:07Z</time>
  <speed>4.480000</speed>
</trkpt>
<trkpt lat="32.739894867" lon="35.047302246">
  <ele>436.158691</ele>
  <time>2011-08-20T05:21:08Z</time>
  <speed>4.640000</speed>
</trkpt>
<trkpt lat="32.739849091" lon="35.047321320">
  <ele>436.494629</ele>
  <time>2011-08-20T05:21:09Z</time>
  <speed>4.600000</speed>
</trkpt>
<trkpt lat="32.739818573" lon="35.047321320">
  <ele>436.611816</ele>
  <time>2011-08-20T05:21:10Z</time>
  <speed>3.770000</speed>
</trkpt>
<trkpt lat="32.739788055" lon="35.047332764">
  <ele>435.916504</ele>
  <time>2011-08-20T05:21:11Z</time>
  <speed>3.630000</speed>
</trkpt>
<trkpt lat="32.739753723" lon="35.047351837">
  <ele>435.877441</ele>
  <time>2011-08-20T05:21:12Z</time>
  <speed>3.660000</speed>
</trkpt>
<trkpt lat="32.739719391" lon="35.047370911">
  <ele>436.166504</ele>
  <time>2011-08-20T05:21:13Z</time>
  <speed>3.920000</speed>
</trkpt>
<trkpt lat="32.739685059" lon="35.047386169">
  <ele>436.025879</ele>
  <time>2011-08-20T05:21:14Z</time>
  <speed>3.820000</speed>
</trkpt>
<trkpt lat="32.739650726" lon="35.047389984">
  <ele>435.486816</ele>
  <time>2011-08-20T05:21:15Z</time>
  <speed>3.710000</speed>
</trkpt>
<trkpt lat="32.739616394" lon="35.047389984">
  <ele>435.291504</ele>
  <time>2011-08-20T05:21:16Z</time>
  <speed>4.010000</speed>
</trkpt>
<trkpt lat="32.739578247" lon="35.047397614">
  <ele>435.018066</ele>
  <time>2011-08-20T05:21:17Z</time>
  <speed>4.500000</speed>
</trkpt>
<trkpt lat="32.739536285" lon="35.047409058">
  <ele>435.494629</ele>
  <time>2011-08-20T05:21:18Z</time>
  <speed>4.110000</speed>
</trkpt>
<trkpt lat="32.739498138" lon="35.047412872">
  <ele>435.127441</ele>
  <time>2011-08-20T05:21:19Z</time>
  <speed>3.500000</speed>
</trkpt>
<trkpt lat="32.739452362" lon="35.047424316">
  <ele>435.541504</ele>
  <time>2011-08-20T05:21:21Z</time>
  <speed>2.610000</speed>
</trkpt>
<trkpt lat="32.739421844" lon="35.047431946">
  <ele>435.385254</ele>
  <time>2011-08-20T05:21:22Z</time>
  <speed>3.260000</speed>
</trkpt>
<trkpt lat="32.739368439" lon="35.047439575">
  <ele>435.127441</ele>
  <time>2011-08-20T05:21:24Z</time>
  <speed>2.800000</speed>
</trkpt>
<trkpt lat="32.739337921" lon="35.047435760">
  <ele>435.064941</ele>
  <time>2011-08-20T05:21:25Z</time>
  <speed>3.390000</speed>
</trkpt>
<trkpt lat="32.739307404" lon="35.047428131">
  <ele>435.518066</ele>
  <time>2011-08-20T05:21:26Z</time>
  <speed>3.420000</speed>
</trkpt>
<trkpt lat="32.739273071" lon="35.047431946">
  <ele>435.768066</ele>
  <time>2011-08-20T05:21:27Z</time>
  <speed>3.480000</speed>
</trkpt>
<trkpt lat="32.739238739" lon="35.047435760">
  <ele>435.986816</ele>
  <time>2011-08-20T05:21:28Z</time>
  <speed>3.750000</speed>
</trkpt>
<trkpt lat="32.739204407" lon="35.047443390">
  <ele>435.643066</ele>
  <time>2011-08-20T05:21:29Z</time>
  <speed>3.460000</speed>
</trkpt>
<trkpt lat="32.739173889" lon="35.047428131">
  <ele>436.049316</ele>
  <time>2011-08-20T05:21:30Z</time>
  <speed>3.520000</speed>
</trkpt>
<trkpt lat="32.739147186" lon="35.047409058">
  <ele>436.439941</ele>
  <time>2011-08-20T05:21:31Z</time>
  <speed>3.410000</speed>
</trkpt>
<trkpt lat="32.739131927" lon="35.047382355">
  <ele>437.174316</ele>
  <time>2011-08-20T05:21:32Z</time>
  <speed>2.580000</speed>
</trkpt>
<trkpt lat="32.739124298" lon="35.047344208">
  <ele>437.955566</ele>
  <time>2011-08-20T05:21:33Z</time>
  <speed>2.600000</speed>
</trkpt>
<trkpt lat="32.739116669" lon="35.047309875">
  <ele>438.783691</ele>
  <time>2011-08-20T05:21:34Z</time>
  <speed>2.920000</speed>
</trkpt>
<trkpt lat="32.739116669" lon="35.047267914">
  <ele>438.643066</ele>
  <time>2011-08-20T05:21:35Z</time>
  <speed>2.780000</speed>
</trkpt>
<trkpt lat="32.739139557" lon="35.047199249">
  <ele>438.838379</ele>
  <time>2011-08-20T05:21:37Z</time>
  <speed>3.580000</speed>
</trkpt>
<trkpt lat="32.739147186" lon="35.047161102">
  <ele>438.557129</ele>
  <time>2011-08-20T05:21:38Z</time>
  <speed>3.440000</speed>
</trkpt>
<trkpt lat="32.739158630" lon="35.047126770">
  <ele>438.752441</ele>
  <time>2011-08-20T05:21:39Z</time>
  <speed>3.550000</speed>
</trkpt>
<trkpt lat="32.739177704" lon="35.047092438">
  <ele>438.502441</ele>
  <time>2011-08-20T05:21:40Z</time>
  <speed>3.580000</speed>
</trkpt>
<trkpt lat="32.739192963" lon="35.047058105">
  <ele>438.525879</ele>
  <time>2011-08-20T05:21:41Z</time>
  <speed>3.640000</speed>
</trkpt>
<trkpt lat="32.739200592" lon="35.047016144">
  <ele>438.869629</ele>
  <time>2011-08-20T05:21:42Z</time>
  <speed>3.960000</speed>
</trkpt>
<trkpt lat="32.739212036" lon="35.046977997">
  <ele>438.822754</ele>
  <time>2011-08-20T05:21:43Z</time>
  <speed>4.000000</speed>
</trkpt>
<trkpt lat="32.739227295" lon="35.046939850">
  <ele>438.799316</ele>
  <time>2011-08-20T05:21:44Z</time>
  <speed>4.340000</speed>
</trkpt>
<trkpt lat="32.739250183" lon="35.046897888">
  <ele>438.525879</ele>
  <time>2011-08-20T05:21:45Z</time>
  <speed>4.330000</speed>
</trkpt>
<trkpt lat="32.739269257" lon="35.046855927">
  <ele>438.385254</ele>
  <time>2011-08-20T05:21:46Z</time>
  <speed>4.460000</speed>
</trkpt>
<trkpt lat="32.739284515" lon="35.046821594">
  <ele>437.314941</ele>
  <time>2011-08-20T05:21:47Z</time>
  <speed>4.600000</speed>
</trkpt>
<trkpt lat="32.739299774" lon="35.046775818">
  <ele>437.221191</ele>
  <time>2011-08-20T05:21:48Z</time>
  <speed>4.810000</speed>
</trkpt>
<trkpt lat="32.739318848" lon="35.046722412">
  <ele>437.135254</ele>
  <time>2011-08-20T05:21:49Z</time>
  <speed>5.000000</speed>
</trkpt>
<trkpt lat="32.739341736" lon="35.046669006">
  <ele>436.775879</ele>
  <time>2011-08-20T05:21:50Z</time>
  <speed>5.280000</speed>
</trkpt>
<trkpt lat="32.739353180" lon="35.046611786">
  <ele>436.580566</ele>
  <time>2011-08-20T05:21:51Z</time>
  <speed>5.400000</speed>
</trkpt>
<trkpt lat="32.739372253" lon="35.046554565">
  <ele>436.104004</ele>
  <time>2011-08-20T05:21:52Z</time>
  <speed>5.310000</speed>
</trkpt>
<trkpt lat="32.739379883" lon="35.046489716">
  <ele>435.947754</ele>
  <time>2011-08-20T05:21:53Z</time>
  <speed>5.580000</speed>
</trkpt>
<trkpt lat="32.739383698" lon="35.046424866">
  <ele>435.924316</ele>
  <time>2011-08-20T05:21:54Z</time>
  <speed>5.730000</speed>
</trkpt>
<trkpt lat="32.739379883" lon="35.046360016">
  <ele>435.877441</ele>
  <time>2011-08-20T05:21:55Z</time>
  <speed>5.980000</speed>
</trkpt>
<trkpt lat="32.739383698" lon="35.046295166">
  <ele>435.541504</ele>
  <time>2011-08-20T05:21:56Z</time>
  <speed>6.130000</speed>
</trkpt>
<trkpt lat="32.739383698" lon="35.046215057">
  <ele>435.510254</ele>
  <time>2011-08-20T05:21:57Z</time>
  <speed>6.140000</speed>
</trkpt>
<trkpt lat="32.739383698" lon="35.046154022">
  <ele>435.205566</ele>
  <time>2011-08-20T05:21:58Z</time>
  <speed>6.210000</speed>
</trkpt>
<trkpt lat="32.739372253" lon="35.046085358">
  <ele>435.229004</ele>
  <time>2011-08-20T05:21:59Z</time>
  <speed>6.220000</speed>
</trkpt>
<trkpt lat="32.739353180" lon="35.046005249">
  <ele>435.244629</ele>
  <time>2011-08-20T05:22:00Z</time>
  <speed>7.500000</speed>
</trkpt>
<trkpt lat="32.739334106" lon="35.045925140">
  <ele>435.197754</ele>
  <time>2011-08-20T05:22:01Z</time>
  <speed>7.580000</speed>
</trkpt>
<trkpt lat="32.739318848" lon="35.045841217">
  <ele>435.119629</ele>
  <time>2011-08-20T05:22:02Z</time>
  <speed>7.900000</speed>
</trkpt>
<trkpt lat="32.739307404" lon="35.045749664">
  <ele>435.119629</ele>
  <time>2011-08-20T05:22:03Z</time>
  <speed>7.820000</speed>
</trkpt>
<trkpt lat="32.739295959" lon="35.045661926">
  <ele>435.072754</ele>
  <time>2011-08-20T05:22:04Z</time>
  <speed>7.750000</speed>
</trkpt>
<trkpt lat="32.739284515" lon="35.045589447">
  <ele>434.955566</ele>
  <time>2011-08-20T05:22:05Z</time>
  <speed>7.140000</speed>
</trkpt>
<trkpt lat="32.739269257" lon="35.045516968">
  <ele>434.814941</ele>
  <time>2011-08-20T05:22:06Z</time>
  <speed>6.690000</speed>
</trkpt>
<trkpt lat="32.739234924" lon="35.045429230">
  <ele>434.963379</ele>
  <time>2011-08-20T05:22:07Z</time>
  <speed>7.520000</speed>
</trkpt>
<trkpt lat="32.739227295" lon="35.045356750">
  <ele>434.752441</ele>
  <time>2011-08-20T05:22:08Z</time>
  <speed>6.890000</speed>
</trkpt>
<trkpt lat="32.739208221" lon="35.045288086">
  <ele>434.518066</ele>
  <time>2011-08-20T05:22:09Z</time>
  <speed>6.540000</speed>
</trkpt>
<trkpt lat="32.739185333" lon="35.045227051">
  <ele>434.525879</ele>
  <time>2011-08-20T05:22:10Z</time>
  <speed>6.040000</speed>
</trkpt>
<trkpt lat="32.739154816" lon="35.045166016">
  <ele>434.572754</ele>
  <time>2011-08-20T05:22:11Z</time>
  <speed>5.820000</speed>
</trkpt>
<trkpt lat="32.739128113" lon="35.045112610">
  <ele>434.650879</ele>
  <time>2011-08-20T05:22:12Z</time>
  <speed>5.410000</speed>
</trkpt>
<trkpt lat="32.739101410" lon="35.045059204">
  <ele>434.643066</ele>
  <time>2011-08-20T05:22:13Z</time>
  <speed>5.350000</speed>
</trkpt>
<trkpt lat="32.739074707" lon="35.045005798">
  <ele>434.463379</ele>
  <time>2011-08-20T05:22:14Z</time>
  <speed>5.310000</speed>
</trkpt>
<trkpt lat="32.739048004" lon="35.044960022">
  <ele>434.400879</ele>
  <time>2011-08-20T05:22:15Z</time>
  <speed>5.200000</speed>
</trkpt>
<trkpt lat="32.739021301" lon="35.044914246">
  <ele>434.322754</ele>
  <time>2011-08-20T05:22:16Z</time>
  <speed>5.170000</speed>
</trkpt>
<trkpt lat="32.738990784" lon="35.044876099">
  <ele>433.994629</ele>
  <time>2011-08-20T05:22:17Z</time>
  <speed>5.220000</speed>
</trkpt>
<trkpt lat="32.738960266" lon="35.044834137">
  <ele>433.838379</ele>
  <time>2011-08-20T05:22:18Z</time>
  <speed>4.750000</speed>
</trkpt>
<trkpt lat="32.738933563" lon="35.044803619">
  <ele>433.705566</ele>
  <time>2011-08-20T05:22:19Z</time>
  <speed>4.360000</speed>
</trkpt>
<trkpt lat="32.738899231" lon="35.044795990">
  <ele>433.361816</ele>
  <time>2011-08-20T05:22:20Z</time>
  <speed>4.080000</speed>
</trkpt>
<trkpt lat="32.738868713" lon="35.044773102">
  <ele>433.408691</ele>
  <time>2011-08-20T05:22:21Z</time>
  <speed>3.360000</speed>
</trkpt>
<trkpt lat="32.738849640" lon="35.044742584">
  <ele>433.400879</ele>
  <time>2011-08-20T05:22:22Z</time>
  <speed>3.210000</speed>
</trkpt>
<trkpt lat="32.738826752" lon="35.044696808">
  <ele>433.541504</ele>
  <time>2011-08-20T05:22:24Z</time>
  <speed>2.490000</speed>
</trkpt>
<trkpt lat="32.738800049" lon="35.044651031">
  <ele>433.861816</ele>
  <time>2011-08-20T05:22:26Z</time>
  <speed>2.390000</speed>
</trkpt>
<trkpt lat="32.738765717" lon="35.044609070">
  <ele>434.104004</ele>
  <time>2011-08-20T05:22:28Z</time>
  <speed>2.750000</speed>
</trkpt>
<trkpt lat="32.738742828" lon="35.044563293">
  <ele>434.307129</ele>
  <time>2011-08-20T05:22:30Z</time>
  <speed>2.440000</speed>
</trkpt>
<trkpt lat="32.738719940" lon="35.044525146">
  <ele>434.471191</ele>
  <time>2011-08-20T05:22:32Z</time>
  <speed>2.190000</speed>
</trkpt>
<trkpt lat="32.738708496" lon="35.044487000">
  <ele>435.018066</ele>
  <time>2011-08-20T05:22:34Z</time>
  <speed>2.370000</speed>
</trkpt>
<trkpt lat="32.738681793" lon="35.044433594">
  <ele>434.861816</ele>
  <time>2011-08-20T05:22:36Z</time>
  <speed>3.310000</speed>
</trkpt>
<trkpt lat="32.738666534" lon="35.044406891">
  <ele>433.854004</ele>
  <time>2011-08-20T05:22:37Z</time>
  <speed>3.660000</speed>
</trkpt>
<trkpt lat="32.738632202" lon="35.044342041">
  <ele>432.736816</ele>
  <time>2011-08-20T05:22:39Z</time>
  <speed>3.750000</speed>
</trkpt>
<trkpt lat="32.738605499" lon="35.044307709">
  <ele>432.916504</ele>
  <time>2011-08-20T05:22:40Z</time>
  <speed>3.280000</speed>
</trkpt>
<trkpt lat="32.738586426" lon="35.044273376">
  <ele>432.775879</ele>
  <time>2011-08-20T05:22:41Z</time>
  <speed>3.100000</speed>
</trkpt>
<trkpt lat="32.738567352" lon="35.044246674">
  <ele>433.330566</ele>
  <time>2011-08-20T05:22:42Z</time>
  <speed>3.240000</speed>
</trkpt>
<trkpt lat="32.738544464" lon="35.044197083">
  <ele>432.807129</ele>
  <time>2011-08-20T05:22:44Z</time>
  <speed>2.960000</speed>
</trkpt>
<trkpt lat="32.738525391" lon="35.044170380">
  <ele>433.252441</ele>
  <time>2011-08-20T05:22:45Z</time>
  <speed>2.930000</speed>
</trkpt>
<trkpt lat="32.738506317" lon="35.044113159">
  <ele>433.307129</ele>
  <time>2011-08-20T05:22:47Z</time>
  <speed>2.780000</speed>
</trkpt>
<trkpt lat="32.738491058" lon="35.044055939">
  <ele>432.822754</ele>
  <time>2011-08-20T05:22:49Z</time>
  <speed>2.910000</speed>
</trkpt>
<trkpt lat="32.738468170" lon="35.044006348">
  <ele>433.393066</ele>
  <time>2011-08-20T05:22:51Z</time>
  <speed>2.530000</speed>
</trkpt>
<trkpt lat="32.738445282" lon="35.043960571">
  <ele>433.564941</ele>
  <time>2011-08-20T05:22:53Z</time>
  <speed>2.690000</speed>
</trkpt>
<trkpt lat="32.738418579" lon="35.043910980">
  <ele>433.986816</ele>
  <time>2011-08-20T05:22:55Z</time>
  <speed>2.710000</speed>
</trkpt>
<trkpt lat="32.738395691" lon="35.043857574">
  <ele>433.838379</ele>
  <time>2011-08-20T05:22:57Z</time>
  <speed>3.450000</speed>
</trkpt>
<trkpt lat="32.738361359" lon="35.043796539">
  <ele>434.166504</ele>
  <time>2011-08-20T05:22:59Z</time>
  <speed>3.530000</speed>
</trkpt>
<trkpt lat="32.738338470" lon="35.043762207">
  <ele>434.057129</ele>
  <time>2011-08-20T05:23:00Z</time>
  <speed>4.120000</speed>
</trkpt>
<trkpt lat="32.738315582" lon="35.043727875">
  <ele>433.955566</ele>
  <time>2011-08-20T05:23:01Z</time>
  <speed>4.180000</speed>
</trkpt>
<trkpt lat="32.738296509" lon="35.043685913">
  <ele>434.174316</ele>
  <time>2011-08-20T05:23:02Z</time>
  <speed>4.090000</speed>
</trkpt>
<trkpt lat="32.738288879" lon="35.043640137">
  <ele>434.268066</ele>
  <time>2011-08-20T05:23:03Z</time>
  <speed>3.410000</speed>
</trkpt>
<trkpt lat="32.738281250" lon="35.043594360">
  <ele>433.854004</ele>
  <time>2011-08-20T05:23:05Z</time>
  <speed>2.590000</speed>
</trkpt>
<trkpt lat="32.738285065" lon="35.043548584">
  <ele>433.705566</ele>
  <time>2011-08-20T05:23:07Z</time>
  <speed>1.730000</speed>
</trkpt>
<trkpt lat="32.738285065" lon="35.043498993">
  <ele>433.080566</ele>
  <time>2011-08-20T05:23:10Z</time>
  <speed>1.930000</speed>
</trkpt>
<trkpt lat="32.738288879" lon="35.043464661">
  <ele>432.408691</ele>
  <time>2011-08-20T05:23:12Z</time>
  <speed>1.350000</speed>
</trkpt>
<trkpt lat="32.738281250" lon="35.043434143">
  <ele>431.994629</ele>
  <time>2011-08-20T05:23:14Z</time>
  <speed>1.360000</speed>
</trkpt>
<trkpt lat="32.738281250" lon="35.043399811">
  <ele>431.447754</ele>
  <time>2011-08-20T05:23:16Z</time>
  <speed>1.340000</speed>
</trkpt>
<trkpt lat="32.738273621" lon="35.043357849">
  <ele>429.939941</ele>
  <time>2011-08-20T05:23:18Z</time>
  <speed>1.900000</speed>
</trkpt>
<trkpt lat="32.738277435" lon="35.043315887">
  <ele>429.463379</ele>
  <time>2011-08-20T05:23:20Z</time>
  <speed>1.620000</speed>
</trkpt>
<trkpt lat="32.738288879" lon="35.043277740">
  <ele>429.088379</ele>
  <time>2011-08-20T05:23:22Z</time>
  <speed>1.300000</speed>
</trkpt>
<trkpt lat="32.738296509" lon="35.043216705">
  <ele>428.799316</ele>
  <time>2011-08-20T05:23:24Z</time>
  <speed>1.780000</speed>
</trkpt>
<trkpt lat="32.738292694" lon="35.043178558">
  <ele>428.604004</ele>
  <time>2011-08-20T05:23:26Z</time>
  <speed>0.930000</speed>
</trkpt>
<trkpt lat="32.738296509" lon="35.043144226">
  <ele>427.861816</ele>
  <time>2011-08-20T05:23:29Z</time>
  <speed>0.420000</speed>
</trkpt>
<trkpt lat="32.738334656" lon="35.043144226">
  <ele>428.064941</ele>
  <time>2011-08-20T05:23:42Z</time>
  <speed>1.090000</speed>
</trkpt>
<trkpt lat="32.738346100" lon="35.043174744">
  <ele>428.619629</ele>
  <time>2011-08-20T05:23:45Z</time>
  <speed>1.180000</speed>
</trkpt>
<trkpt lat="32.738380432" lon="35.043201447">
  <ele>428.502441</ele>
  <time>2011-08-20T05:23:48Z</time>
  <speed>1.220000</speed>
</trkpt>
<trkpt lat="32.738395691" lon="35.043243408">
  <ele>428.502441</ele>
  <time>2011-08-20T05:23:51Z</time>
  <speed>1.350000</speed>
</trkpt>
<trkpt lat="32.738422394" lon="35.043273926">
  <ele>429.471191</ele>
  <time>2011-08-20T05:23:53Z</time>
  <speed>1.340000</speed>
</trkpt>
<trkpt lat="32.738441467" lon="35.043292999">
  <ele>430.424316</ele>
  <time>2011-08-20T05:23:55Z</time>
  <speed>1.530000</speed>
</trkpt>
<trkpt lat="32.738475800" lon="35.043304443">
  <ele>431.330566</ele>
  <time>2011-08-20T05:23:57Z</time>
  <speed>1.540000</speed>
</trkpt>
<trkpt lat="32.738471985" lon="35.043357849">
  <ele>432.330566</ele>
  <time>2011-08-20T05:23:59Z</time>
  <speed>1.760000</speed>
</trkpt>
<trkpt lat="32.738487244" lon="35.043388367">
  <ele>433.736816</ele>
  <time>2011-08-20T05:24:01Z</time>
  <speed>1.700000</speed>
</trkpt>
<trkpt lat="32.738506317" lon="35.043426514">
  <ele>434.346191</ele>
  <time>2011-08-20T05:24:03Z</time>
  <speed>1.910000</speed>
</trkpt>
<trkpt lat="32.738521576" lon="35.043468475">
  <ele>435.197754</ele>
  <time>2011-08-20T05:24:05Z</time>
  <speed>1.880000</speed>
</trkpt>
<trkpt lat="32.738536835" lon="35.043506622">
  <ele>435.369629</ele>
  <time>2011-08-20T05:24:07Z</time>
  <speed>1.920000</speed>
</trkpt>
<trkpt lat="32.738552094" lon="35.043556213">
  <ele>436.088379</ele>
  <time>2011-08-20T05:24:09Z</time>
  <speed>2.180000</speed>
</trkpt>
<trkpt lat="32.738574982" lon="35.043598175">
  <ele>436.658691</ele>
  <time>2011-08-20T05:24:11Z</time>
  <speed>2.410000</speed>
</trkpt>
<trkpt lat="32.738594055" lon="35.043651581">
  <ele>437.838379</ele>
  <time>2011-08-20T05:24:13Z</time>
  <speed>2.610000</speed>
</trkpt>
<trkpt lat="32.738609314" lon="35.043682098">
  <ele>437.963379</ele>
  <time>2011-08-20T05:24:14Z</time>
  <speed>2.660000</speed>
</trkpt>
<trkpt lat="32.738620758" lon="35.043712616">
  <ele>438.307129</ele>
  <time>2011-08-20T05:24:15Z</time>
  <speed>2.570000</speed>
</trkpt>
<trkpt lat="32.738658905" lon="35.043754578">
  <ele>439.799316</ele>
  <time>2011-08-20T05:24:17Z</time>
  <speed>2.710000</speed>
</trkpt>
<trkpt lat="32.738693237" lon="35.043800354">
  <ele>440.736816</ele>
  <time>2011-08-20T05:24:19Z</time>
  <speed>2.980000</speed>
</trkpt>
<trkpt lat="32.738731384" lon="35.043846130">
  <ele>441.189941</ele>
  <time>2011-08-20T05:24:21Z</time>
  <speed>2.880000</speed>
</trkpt>
<trkpt lat="32.738758087" lon="35.043869019">
  <ele>441.877441</ele>
  <time>2011-08-20T05:24:22Z</time>
  <speed>2.990000</speed>
</trkpt>
<trkpt lat="32.738780975" lon="35.043888092">
  <ele>441.900879</ele>
  <time>2011-08-20T05:24:23Z</time>
  <speed>2.750000</speed>
</trkpt>
<trkpt lat="32.738819122" lon="35.043933868">
  <ele>442.041504</ele>
  <time>2011-08-20T05:24:25Z</time>
  <speed>2.970000</speed>
</trkpt>
<trkpt lat="32.738838196" lon="35.043956757">
  <ele>442.275879</ele>
  <time>2011-08-20T05:24:26Z</time>
  <speed>3.180000</speed>
</trkpt>
<trkpt lat="32.738864899" lon="35.043987274">
  <ele>442.947754</ele>
  <time>2011-08-20T05:24:27Z</time>
  <speed>3.450000</speed>
</trkpt>
<trkpt lat="32.738887787" lon="35.044017792">
  <ele>443.041504</ele>
  <time>2011-08-20T05:24:28Z</time>
  <speed>3.510000</speed>
</trkpt>
<trkpt lat="32.738914490" lon="35.044044495">
  <ele>443.002441</ele>
  <time>2011-08-20T05:24:29Z</time>
  <speed>3.260000</speed>
</trkpt>
<trkpt lat="32.738945007" lon="35.044055939">
  <ele>443.002441</ele>
  <time>2011-08-20T05:24:30Z</time>
  <speed>3.340000</speed>
</trkpt>
<trkpt lat="32.738971710" lon="35.044078827">
  <ele>442.799316</ele>
  <time>2011-08-20T05:24:31Z</time>
  <speed>2.870000</speed>
</trkpt>
<trkpt lat="32.739013672" lon="35.044116974">
  <ele>442.791504</ele>
  <time>2011-08-20T05:24:33Z</time>
  <speed>2.290000</speed>
</trkpt>
<trkpt lat="32.739048004" lon="35.044155121">
  <ele>444.244629</ele>
  <time>2011-08-20T05:24:35Z</time>
  <speed>2.870000</speed>
</trkpt>
<trkpt lat="32.739093781" lon="35.044185638">
  <ele>444.932129</ele>
  <time>2011-08-20T05:24:37Z</time>
  <speed>2.870000</speed>
</trkpt>
<trkpt lat="32.739135742" lon="35.044216156">
  <ele>445.846191</ele>
  <time>2011-08-20T05:24:39Z</time>
  <speed>2.540000</speed>
</trkpt>
<trkpt lat="32.739185333" lon="35.044242859">
  <ele>446.471191</ele>
  <time>2011-08-20T05:24:41Z</time>
  <speed>2.360000</speed>
</trkpt>
<trkpt lat="32.739227295" lon="35.044265747">
  <ele>446.627441</ele>
  <time>2011-08-20T05:24:43Z</time>
  <speed>1.950000</speed>
</trkpt>
<trkpt lat="32.739253998" lon="35.044300079">
  <ele>447.033691</ele>
  <time>2011-08-20T05:24:45Z</time>
  <speed>2.250000</speed>
</trkpt>
<trkpt lat="32.739288330" lon="35.044319153">
  <ele>446.924316</ele>
  <time>2011-08-20T05:24:47Z</time>
  <speed>2.200000</speed>
</trkpt>
<trkpt lat="32.739318848" lon="35.044345856">
  <ele>447.533691</ele>
  <time>2011-08-20T05:24:49Z</time>
  <speed>1.960000</speed>
</trkpt>
<trkpt lat="32.739356995" lon="35.044364929">
  <ele>448.643066</ele>
  <time>2011-08-20T05:24:51Z</time>
  <speed>2.030000</speed>
</trkpt>
<trkpt lat="32.739379883" lon="35.044406891">
  <ele>449.322754</ele>
  <time>2011-08-20T05:24:53Z</time>
  <speed>2.190000</speed>
</trkpt>
<trkpt lat="32.739406586" lon="35.044445038">
  <ele>449.705566</ele>
  <time>2011-08-20T05:24:55Z</time>
  <speed>2.280000</speed>
</trkpt>
<trkpt lat="32.739444733" lon="35.044471741">
  <ele>450.025879</ele>
  <time>2011-08-20T05:24:57Z</time>
  <speed>2.360000</speed>
</trkpt>
<trkpt lat="32.739486694" lon="35.044513702">
  <ele>450.846191</ele>
  <time>2011-08-20T05:24:59Z</time>
  <speed>3.160000</speed>
</trkpt>
<trkpt lat="32.739513397" lon="35.044521332">
  <ele>450.564941</ele>
  <time>2011-08-20T05:25:00Z</time>
  <speed>3.140000</speed>
</trkpt>
<trkpt lat="32.739559174" lon="35.044551849">
  <ele>451.611816</ele>
  <time>2011-08-20T05:25:02Z</time>
  <speed>2.540000</speed>
</trkpt>
<trkpt lat="32.739589691" lon="35.044593811">
  <ele>452.572754</ele>
  <time>2011-08-20T05:25:04Z</time>
  <speed>2.730000</speed>
</trkpt>
<trkpt lat="32.739616394" lon="35.044612885">
  <ele>452.916504</ele>
  <time>2011-08-20T05:25:05Z</time>
  <speed>2.620000</speed>
</trkpt>
<trkpt lat="32.739662170" lon="35.044635773">
  <ele>452.307129</ele>
  <time>2011-08-20T05:25:07Z</time>
  <speed>2.980000</speed>
</trkpt>
<trkpt lat="32.739688873" lon="35.044651031">
  <ele>452.791504</ele>
  <time>2011-08-20T05:25:08Z</time>
  <speed>2.780000</speed>
</trkpt>
<trkpt lat="32.739727020" lon="35.044670105">
  <ele>452.705566</ele>
  <time>2011-08-20T05:25:10Z</time>
  <speed>2.180000</speed>
</trkpt>
<trkpt lat="32.739761353" lon="35.044692993">
  <ele>453.455566</ele>
  <time>2011-08-20T05:25:12Z</time>
  <speed>2.510000</speed>
</trkpt>
<trkpt lat="32.739784241" lon="35.044712067">
  <ele>454.377441</ele>
  <time>2011-08-20T05:25:13Z</time>
  <speed>2.690000</speed>
</trkpt>
<trkpt lat="32.739810944" lon="35.044719696">
  <ele>454.135254</ele>
  <time>2011-08-20T05:25:14Z</time>
  <speed>2.880000</speed>
</trkpt>
<trkpt lat="32.739837646" lon="35.044731140">
  <ele>453.729004</ele>
  <time>2011-08-20T05:25:15Z</time>
  <speed>2.850000</speed>
</trkpt>
<trkpt lat="32.739860535" lon="35.044750214">
  <ele>453.822754</ele>
  <time>2011-08-20T05:25:16Z</time>
  <speed>2.870000</speed>
</trkpt>
<trkpt lat="32.739887238" lon="35.044765472">
  <ele>453.666504</ele>
  <time>2011-08-20T05:25:17Z</time>
  <speed>2.880000</speed>
</trkpt>
<trkpt lat="32.739906311" lon="35.044788361">
  <ele>453.666504</ele>
  <time>2011-08-20T05:25:18Z</time>
  <speed>2.980000</speed>
</trkpt>
<trkpt lat="32.739963531" lon="35.044815063">
  <ele>452.869629</ele>
  <time>2011-08-20T05:25:20Z</time>
  <speed>3.320000</speed>
</trkpt>
<trkpt lat="32.739990234" lon="35.044841766">
  <ele>453.822754</ele>
  <time>2011-08-20T05:25:21Z</time>
  <speed>3.490000</speed>
</trkpt>
<trkpt lat="32.740020752" lon="35.044860840">
  <ele>454.049316</ele>
  <time>2011-08-20T05:25:22Z</time>
  <speed>3.670000</speed>
</trkpt>
<trkpt lat="32.740055084" lon="35.044872284">
  <ele>453.627441</ele>
  <time>2011-08-20T05:25:23Z</time>
  <speed>4.080000</speed>
</trkpt>
<trkpt lat="32.740093231" lon="35.044887543">
  <ele>453.689941</ele>
  <time>2011-08-20T05:25:24Z</time>
  <speed>4.550000</speed>
</trkpt>
<trkpt lat="32.740139008" lon="35.044910431">
  <ele>453.713379</ele>
  <time>2011-08-20T05:25:25Z</time>
  <speed>4.610000</speed>
</trkpt>
<trkpt lat="32.740169525" lon="35.044937134">
  <ele>453.729004</ele>
  <time>2011-08-20T05:25:26Z</time>
  <speed>4.260000</speed>
</trkpt>
<trkpt lat="32.740196228" lon="35.044963837">
  <ele>453.627441</ele>
  <time>2011-08-20T05:25:27Z</time>
  <speed>4.020000</speed>
</trkpt>
<trkpt lat="32.740226746" lon="35.044986725">
  <ele>453.088379</ele>
  <time>2011-08-20T05:25:28Z</time>
  <speed>3.600000</speed>
</trkpt>
<trkpt lat="32.740253448" lon="35.045013428">
  <ele>453.314941</ele>
  <time>2011-08-20T05:25:29Z</time>
  <speed>3.450000</speed>
</trkpt>
<trkpt lat="32.740280151" lon="35.045021057">
  <ele>452.572754</ele>
  <time>2011-08-20T05:25:30Z</time>
  <speed>3.200000</speed>
</trkpt>
<trkpt lat="32.740303040" lon="35.045036316">
  <ele>452.979004</ele>
  <time>2011-08-20T05:25:31Z</time>
  <speed>3.110000</speed>
</trkpt>
<trkpt lat="32.740325928" lon="35.045059204">
  <ele>453.744629</ele>
  <time>2011-08-20T05:25:32Z</time>
  <speed>3.180000</speed>
</trkpt>
<trkpt lat="32.740375519" lon="35.045082092">
  <ele>453.268066</ele>
  <time>2011-08-20T05:25:34Z</time>
  <speed>3.420000</speed>
</trkpt>
<trkpt lat="32.740409851" lon="35.045104980">
  <ele>453.752441</ele>
  <time>2011-08-20T05:25:35Z</time>
  <speed>3.800000</speed>
</trkpt>
<trkpt lat="32.740444183" lon="35.045124054">
  <ele>453.939941</ele>
  <time>2011-08-20T05:25:36Z</time>
  <speed>4.080000</speed>
</trkpt>
<trkpt lat="32.740482330" lon="35.045139313">
  <ele>453.877441</ele>
  <time>2011-08-20T05:25:37Z</time>
  <speed>3.740000</speed>
</trkpt>
<trkpt lat="32.740516663" lon="35.045158386">
  <ele>453.963379</ele>
  <time>2011-08-20T05:25:38Z</time>
  <speed>3.630000</speed>
</trkpt>
<trkpt lat="32.740547180" lon="35.045181274">
  <ele>454.182129</ele>
  <time>2011-08-20T05:25:39Z</time>
  <speed>3.410000</speed>
</trkpt>
<trkpt lat="32.740573883" lon="35.045188904">
  <ele>453.705566</ele>
  <time>2011-08-20T05:25:40Z</time>
  <speed>3.350000</speed>
</trkpt>
<trkpt lat="32.740600586" lon="35.045207977">
  <ele>453.822754</ele>
  <time>2011-08-20T05:25:41Z</time>
  <speed>3.170000</speed>
</trkpt>
<trkpt lat="32.740627289" lon="35.045219421">
  <ele>453.760254</ele>
  <time>2011-08-20T05:25:42Z</time>
  <speed>3.100000</speed>
</trkpt>
<trkpt lat="32.740657806" lon="35.045219421">
  <ele>453.252441</ele>
  <time>2011-08-20T05:25:43Z</time>
  <speed>3.130000</speed>
</trkpt>
<trkpt lat="32.740711212" lon="35.045207977">
  <ele>452.096191</ele>
  <time>2011-08-20T05:25:45Z</time>
  <speed>3.780000</speed>
</trkpt>
<trkpt lat="32.740745544" lon="35.045219421">
  <ele>451.564941</ele>
  <time>2011-08-20T05:25:46Z</time>
  <speed>3.560000</speed>
</trkpt>
<trkpt lat="32.740776062" lon="35.045234680">
  <ele>451.549316</ele>
  <time>2011-08-20T05:25:47Z</time>
  <speed>3.810000</speed>
</trkpt>
<trkpt lat="32.740810394" lon="35.045242310">
  <ele>450.588379</ele>
  <time>2011-08-20T05:25:48Z</time>
  <speed>3.980000</speed>
</trkpt>
<trkpt lat="32.740852356" lon="35.045207977">
  <ele>446.979004</ele>
  <time>2011-08-20T05:25:49Z</time>
  <speed>3.910000</speed>
</trkpt>
<trkpt lat="32.740886688" lon="35.045215607">
  <ele>446.971191</ele>
  <time>2011-08-20T05:25:50Z</time>
  <speed>3.660000</speed>
</trkpt>
<trkpt lat="32.740921021" lon="35.045219421">
  <ele>446.588379</ele>
  <time>2011-08-20T05:25:51Z</time>
  <speed>3.900000</speed>
</trkpt>
<trkpt lat="32.740966797" lon="35.045219421">
  <ele>446.025879</ele>
  <time>2011-08-20T05:25:52Z</time>
  <speed>4.080000</speed>
</trkpt>
<trkpt lat="32.741001129" lon="35.045223236">
  <ele>446.361816</ele>
  <time>2011-08-20T05:25:53Z</time>
  <speed>3.880000</speed>
</trkpt>
<trkpt lat="32.741039276" lon="35.045223236">
  <ele>445.783691</ele>
  <time>2011-08-20T05:25:54Z</time>
  <speed>3.960000</speed>
</trkpt>
<trkpt lat="32.741077423" lon="35.045219421">
  <ele>444.674316</ele>
  <time>2011-08-20T05:25:55Z</time>
  <speed>3.790000</speed>
</trkpt>
<trkpt lat="32.741111755" lon="35.045215607">
  <ele>444.947754</ele>
  <time>2011-08-20T05:25:56Z</time>
  <speed>4.270000</speed>
</trkpt>
<trkpt lat="32.741153717" lon="35.045204163">
  <ele>443.713379</ele>
  <time>2011-08-20T05:25:57Z</time>
  <speed>4.310000</speed>
</trkpt>
<trkpt lat="32.741188049" lon="35.045204163">
  <ele>443.369629</ele>
  <time>2011-08-20T05:25:58Z</time>
  <speed>4.430000</speed>
</trkpt>
<trkpt lat="32.741230011" lon="35.045188904">
  <ele>442.033691</ele>
  <time>2011-08-20T05:25:59Z</time>
  <speed>4.650000</speed>
</trkpt>
<trkpt lat="32.741271973" lon="35.045162201">
  <ele>439.557129</ele>
  <time>2011-08-20T05:26:00Z</time>
  <speed>4.380000</speed>
</trkpt>
<trkpt lat="32.741306305" lon="35.045135498">
  <ele>439.010254</ele>
  <time>2011-08-20T05:26:01Z</time>
  <speed>4.670000</speed>
</trkpt>
<trkpt lat="32.741344452" lon="35.045120239">
  <ele>439.189941</ele>
  <time>2011-08-20T05:26:02Z</time>
  <speed>4.890000</speed>
</trkpt>
<trkpt lat="32.741382599" lon="35.045093536">
  <ele>438.799316</ele>
  <time>2011-08-20T05:26:03Z</time>
  <speed>5.130000</speed>
</trkpt>
<trkpt lat="32.741428375" lon="35.045070648">
  <ele>438.236816</ele>
  <time>2011-08-20T05:26:04Z</time>
  <speed>5.520000</speed>
</trkpt>
<trkpt lat="32.741462708" lon="35.045028687">
  <ele>436.768066</ele>
  <time>2011-08-20T05:26:05Z</time>
  <speed>5.390000</speed>
</trkpt>
<trkpt lat="32.741497040" lon="35.044994354">
  <ele>436.502441</ele>
  <time>2011-08-20T05:26:06Z</time>
  <speed>5.030000</speed>
</trkpt>
<trkpt lat="32.741527557" lon="35.044956207">
  <ele>435.635254</ele>
  <time>2011-08-20T05:26:07Z</time>
  <speed>4.820000</speed>
</trkpt>
<trkpt lat="32.741561890" lon="35.044910431">
  <ele>434.557129</ele>
  <time>2011-08-20T05:26:08Z</time>
  <speed>4.960000</speed>
</trkpt>
<trkpt lat="32.741588593" lon="35.044860840">
  <ele>434.674316</ele>
  <time>2011-08-20T05:26:09Z</time>
  <speed>4.400000</speed>
</trkpt>
<trkpt lat="32.741607666" lon="35.044822693">
  <ele>434.283691</ele>
  <time>2011-08-20T05:26:10Z</time>
  <speed>4.070000</speed>
</trkpt>
<trkpt lat="32.741622925" lon="35.044784546">
  <ele>433.814941</ele>
  <time>2011-08-20T05:26:11Z</time>
  <speed>3.250000</speed>
</trkpt>
<trkpt lat="32.741611481" lon="35.044727325">
  <ele>434.229004</ele>
  <time>2011-08-20T05:26:13Z</time>
  <speed>2.100000</speed>
</trkpt>
<trkpt lat="32.741615295" lon="35.044681549">
  <ele>433.557129</ele>
  <time>2011-08-20T05:26:15Z</time>
  <speed>1.720000</speed>
</trkpt>
<trkpt lat="32.741622925" lon="35.044639587">
  <ele>432.939941</ele>
  <time>2011-08-20T05:26:17Z</time>
  <speed>2.030000</speed>
</trkpt>
<trkpt lat="32.741611481" lon="35.044586182">
  <ele>432.861816</ele>
  <time>2011-08-20T05:26:19Z</time>
  <speed>2.370000</speed>
</trkpt>
<trkpt lat="32.741611481" lon="35.044551849">
  <ele>432.463379</ele>
  <time>2011-08-20T05:26:20Z</time>
  <speed>2.610000</speed>
</trkpt>
<trkpt lat="32.741615295" lon="35.044521332">
  <ele>431.744629</ele>
  <time>2011-08-20T05:26:21Z</time>
  <speed>2.970000</speed>
</trkpt>
<trkpt lat="32.741622925" lon="35.044456482">
  <ele>430.533691</ele>
  <time>2011-08-20T05:26:23Z</time>
  <speed>2.960000</speed>
</trkpt>
<trkpt lat="32.741619110" lon="35.044399261">
  <ele>429.861816</ele>
  <time>2011-08-20T05:26:25Z</time>
  <speed>2.650000</speed>
</trkpt>
<trkpt lat="32.741619110" lon="35.044361115">
  <ele>429.393066</ele>
  <time>2011-08-20T05:26:26Z</time>
  <speed>2.550000</speed>
</trkpt>
<trkpt lat="32.741622925" lon="35.044292450">
  <ele>428.369629</ele>
  <time>2011-08-20T05:26:28Z</time>
  <speed>2.690000</speed>
</trkpt>
<trkpt lat="32.741619110" lon="35.044250488">
  <ele>429.010254</ele>
  <time>2011-08-20T05:26:29Z</time>
  <speed>2.870000</speed>
</trkpt>
<trkpt lat="32.741619110" lon="35.044185638">
  <ele>427.854004</ele>
  <time>2011-08-20T05:26:31Z</time>
  <speed>2.790000</speed>
</trkpt>
<trkpt lat="32.741619110" lon="35.044151306">
  <ele>426.900879</ele>
  <time>2011-08-20T05:26:32Z</time>
  <speed>2.760000</speed>
</trkpt>
<trkpt lat="32.741626740" lon="35.044094086">
  <ele>426.049316</ele>
  <time>2011-08-20T05:26:34Z</time>
  <speed>2.470000</speed>
</trkpt>
<trkpt lat="32.741641998" lon="35.044059753">
  <ele>426.885254</ele>
  <time>2011-08-20T05:26:35Z</time>
  <speed>2.760000</speed>
</trkpt>
<trkpt lat="32.741664886" lon="35.044029236">
  <ele>426.354004</ele>
  <time>2011-08-20T05:26:36Z</time>
  <speed>2.790000</speed>
</trkpt>
<trkpt lat="32.741687775" lon="35.044002533">
  <ele>426.072754</ele>
  <time>2011-08-20T05:26:37Z</time>
  <speed>2.890000</speed>
</trkpt>
<trkpt lat="32.741710663" lon="35.043972015">
  <ele>427.627441</ele>
  <time>2011-08-20T05:26:38Z</time>
  <speed>2.620000</speed>
</trkpt>
<trkpt lat="32.741733551" lon="35.043949127">
  <ele>427.635254</ele>
  <time>2011-08-20T05:26:39Z</time>
  <speed>2.750000</speed>
</trkpt>
<trkpt lat="32.741760254" lon="35.043933868">
  <ele>428.096191</ele>
  <time>2011-08-20T05:26:40Z</time>
  <speed>2.610000</speed>
</trkpt>
<trkpt lat="32.741798401" lon="35.043914795">
  <ele>429.104004</ele>
  <time>2011-08-20T05:26:41Z</time>
  <speed>2.740000</speed>
</trkpt>
<trkpt lat="32.741828918" lon="35.043899536">
  <ele>429.439941</ele>
  <time>2011-08-20T05:26:42Z</time>
  <speed>2.660000</speed>
</trkpt>
<trkpt lat="32.741859436" lon="35.043891907">
  <ele>429.572754</ele>
  <time>2011-08-20T05:26:43Z</time>
  <speed>2.900000</speed>
</trkpt>
<trkpt lat="32.741897583" lon="35.043872833">
  <ele>430.088379</ele>
  <time>2011-08-20T05:26:44Z</time>
  <speed>2.800000</speed>
</trkpt>
<trkpt lat="32.741924286" lon="35.043857574">
  <ele>430.760254</ele>
  <time>2011-08-20T05:26:45Z</time>
  <speed>2.800000</speed>
</trkpt>
<trkpt lat="32.741950989" lon="35.043842316">
  <ele>431.260254</ele>
  <time>2011-08-20T05:26:46Z</time>
  <speed>2.970000</speed>
</trkpt>
<trkpt lat="32.741981506" lon="35.043830872">
  <ele>431.221191</ele>
  <time>2011-08-20T05:26:47Z</time>
  <speed>2.780000</speed>
</trkpt>
<trkpt lat="32.742004395" lon="35.043811798">
  <ele>431.557129</ele>
  <time>2011-08-20T05:26:48Z</time>
  <speed>2.550000</speed>
</trkpt>
<trkpt lat="32.742027283" lon="35.043792725">
  <ele>432.189941</ele>
  <time>2011-08-20T05:26:49Z</time>
  <speed>3.090000</speed>
</trkpt>
<trkpt lat="32.742053986" lon="35.043777466">
  <ele>432.236816</ele>
  <time>2011-08-20T05:26:50Z</time>
  <speed>2.580000</speed>
</trkpt>
<trkpt lat="32.742092133" lon="35.043743134">
  <ele>432.150879</ele>
  <time>2011-08-20T05:26:52Z</time>
  <speed>2.920000</speed>
</trkpt>
<trkpt lat="32.742118835" lon="35.043727875">
  <ele>432.299316</ele>
  <time>2011-08-20T05:26:53Z</time>
  <speed>2.880000</speed>
</trkpt>
<trkpt lat="32.742168427" lon="35.043708801">
  <ele>432.291504</ele>
  <time>2011-08-20T05:26:55Z</time>
  <speed>2.890000</speed>
</trkpt>
<trkpt lat="32.742202759" lon="35.043701172">
  <ele>432.471191</ele>
  <time>2011-08-20T05:26:56Z</time>
  <speed>3.600000</speed>
</trkpt>
<trkpt lat="32.742252350" lon="35.043731689">
  <ele>432.807129</ele>
  <time>2011-08-20T05:26:58Z</time>
  <speed>3.370000</speed>
</trkpt>
<trkpt lat="32.742275238" lon="35.043762207">
  <ele>432.666504</ele>
  <time>2011-08-20T05:26:59Z</time>
  <speed>4.370000</speed>
</trkpt>
<trkpt lat="32.742298126" lon="35.043804169">
  <ele>432.158691</ele>
  <time>2011-08-20T05:27:00Z</time>
  <speed>4.440000</speed>
</trkpt>
<trkpt lat="32.742313385" lon="35.043853760">
  <ele>432.033691</ele>
  <time>2011-08-20T05:27:01Z</time>
  <speed>4.410000</speed>
</trkpt>
<trkpt lat="32.742321014" lon="35.043907166">
  <ele>432.158691</ele>
  <time>2011-08-20T05:27:02Z</time>
  <speed>5.450000</speed>
</trkpt>
<trkpt lat="32.742336273" lon="35.043968201">
  <ele>431.869629</ele>
  <time>2011-08-20T05:27:03Z</time>
  <speed>5.740000</speed>
</trkpt>
<trkpt lat="32.742362976" lon="35.044029236">
  <ele>433.135254</ele>
  <time>2011-08-20T05:27:04Z</time>
  <speed>6.310000</speed>
</trkpt>
<trkpt lat="32.742389679" lon="35.044082642">
  <ele>432.783691</ele>
  <time>2011-08-20T05:27:05Z</time>
  <speed>5.920000</speed>
</trkpt>
<trkpt lat="32.742408752" lon="35.044132233">
  <ele>432.510254</ele>
  <time>2011-08-20T05:27:06Z</time>
  <speed>5.110000</speed>
</trkpt>
<trkpt lat="32.742439270" lon="35.044166565">
  <ele>432.564941</ele>
  <time>2011-08-20T05:27:07Z</time>
  <speed>4.260000</speed>
</trkpt>
<trkpt lat="32.742458344" lon="35.044197083">
  <ele>432.893066</ele>
  <time>2011-08-20T05:27:08Z</time>
  <speed>3.330000</speed>
</trkpt>
<trkpt lat="32.742492676" lon="35.044235229">
  <ele>433.854004</ele>
  <time>2011-08-20T05:27:10Z</time>
  <speed>2.010000</speed>
</trkpt>
<trkpt lat="32.742515564" lon="35.044269562">
  <ele>434.096191</ele>
  <time>2011-08-20T05:27:12Z</time>
  <speed>2.000000</speed>
</trkpt>
<trkpt lat="32.742546082" lon="35.044307709">
  <ele>434.721191</ele>
  <time>2011-08-20T05:27:14Z</time>
  <speed>1.990000</speed>
</trkpt>
<trkpt lat="32.742572784" lon="35.044342041">
  <ele>434.932129</ele>
  <time>2011-08-20T05:27:16Z</time>
  <speed>2.350000</speed>
</trkpt>
<trkpt lat="32.742607117" lon="35.044372559">
  <ele>435.947754</ele>
  <time>2011-08-20T05:27:18Z</time>
  <speed>2.110000</speed>
</trkpt>
<trkpt lat="32.742633820" lon="35.044414520">
  <ele>437.072754</ele>
  <time>2011-08-20T05:27:20Z</time>
  <speed>2.240000</speed>
</trkpt>
<trkpt lat="32.742664337" lon="35.044445038">
  <ele>437.682129</ele>
  <time>2011-08-20T05:27:22Z</time>
  <speed>2.420000</speed>
</trkpt>
<trkpt lat="32.742679596" lon="35.044475555">
  <ele>439.174316</ele>
  <time>2011-08-20T05:27:23Z</time>
  <speed>2.550000</speed>
</trkpt>
<trkpt lat="32.742717743" lon="35.044506073">
  <ele>440.182129</ele>
  <time>2011-08-20T05:27:25Z</time>
  <speed>2.560000</speed>
</trkpt>
<trkpt lat="32.742744446" lon="35.044521332">
  <ele>440.275879</ele>
  <time>2011-08-20T05:27:26Z</time>
  <speed>2.750000</speed>
</trkpt>
<trkpt lat="32.742786407" lon="35.044563293">
  <ele>440.775879</ele>
  <time>2011-08-20T05:27:28Z</time>
  <speed>2.700000</speed>
</trkpt>
<trkpt lat="32.742835999" lon="35.044589996">
  <ele>441.471191</ele>
  <time>2011-08-20T05:27:30Z</time>
  <speed>2.980000</speed>
</trkpt>
<trkpt lat="32.742862701" lon="35.044597626">
  <ele>441.588379</ele>
  <time>2011-08-20T05:27:31Z</time>
  <speed>2.810000</speed>
</trkpt>
<trkpt lat="32.742908478" lon="35.044616699">
  <ele>442.807129</ele>
  <time>2011-08-20T05:27:33Z</time>
  <speed>2.280000</speed>
</trkpt>
<trkpt lat="32.742931366" lon="35.044628143">
  <ele>443.947754</ele>
  <time>2011-08-20T05:27:34Z</time>
  <speed>2.370000</speed>
</trkpt>
<trkpt lat="32.742958069" lon="35.044639587">
  <ele>444.697754</ele>
  <time>2011-08-20T05:27:35Z</time>
  <speed>2.390000</speed>
</trkpt>
<trkpt lat="32.742984772" lon="35.044654846">
  <ele>445.502441</ele>
  <time>2011-08-20T05:27:36Z</time>
  <speed>2.390000</speed>
</trkpt>
<trkpt lat="32.743007660" lon="35.044666290">
  <ele>446.111816</ele>
  <time>2011-08-20T05:27:37Z</time>
  <speed>2.580000</speed>
</trkpt>
<trkpt lat="32.743038177" lon="35.044662476">
  <ele>445.885254</ele>
  <time>2011-08-20T05:27:38Z</time>
  <speed>2.770000</speed>
</trkpt>
<trkpt lat="32.743061066" lon="35.044666290">
  <ele>447.119629</ele>
  <time>2011-08-20T05:27:39Z</time>
  <speed>2.820000</speed>
</trkpt>
<trkpt lat="32.743091583" lon="35.044670105">
  <ele>447.041504</ele>
  <time>2011-08-20T05:27:40Z</time>
  <speed>3.050000</speed>
</trkpt>
<trkpt lat="32.743129730" lon="35.044662476">
  <ele>446.768066</ele>
  <time>2011-08-20T05:27:41Z</time>
  <speed>2.710000</speed>
</trkpt>
<trkpt lat="32.743183136" lon="35.044677734">
  <ele>447.135254</ele>
  <time>2011-08-20T05:27:43Z</time>
  <speed>3.210000</speed>
</trkpt>
<trkpt lat="32.743228912" lon="35.044700623">
  <ele>447.260254</ele>
  <time>2011-08-20T05:27:45Z</time>
  <speed>3.360000</speed>
</trkpt>
<trkpt lat="32.743263245" lon="35.044715881">
  <ele>447.986816</ele>
  <time>2011-08-20T05:27:46Z</time>
  <speed>3.640000</speed>
</trkpt>
<trkpt lat="32.743305206" lon="35.044715881">
  <ele>447.822754</ele>
  <time>2011-08-20T05:27:47Z</time>
  <speed>4.060000</speed>
</trkpt>
<trkpt lat="32.743343353" lon="35.044723511">
  <ele>447.760254</ele>
  <time>2011-08-20T05:27:48Z</time>
  <speed>3.920000</speed>
</trkpt>
<trkpt lat="32.743377686" lon="35.044750214">
  <ele>448.650879</ele>
  <time>2011-08-20T05:27:49Z</time>
  <speed>4.080000</speed>
</trkpt>
<trkpt lat="32.743408203" lon="35.044765472">
  <ele>448.650879</ele>
  <time>2011-08-20T05:27:50Z</time>
  <speed>3.750000</speed>
</trkpt>
<trkpt lat="32.743442535" lon="35.044769287">
  <ele>448.088379</ele>
  <time>2011-08-20T05:27:51Z</time>
  <speed>3.490000</speed>
</trkpt>
<trkpt lat="32.743465424" lon="35.044780731">
  <ele>448.533691</ele>
  <time>2011-08-20T05:27:52Z</time>
  <speed>2.590000</speed>
</trkpt>
<trkpt lat="32.743507385" lon="35.044799805">
  <ele>449.018066</ele>
  <time>2011-08-20T05:27:54Z</time>
  <speed>2.370000</speed>
</trkpt>
<trkpt lat="32.743553162" lon="35.044795990">
  <ele>448.057129</ele>
  <time>2011-08-20T05:27:56Z</time>
  <speed>2.850000</speed>
</trkpt>
<trkpt lat="32.743583679" lon="35.044803619">
  <ele>448.471191</ele>
  <time>2011-08-20T05:27:57Z</time>
  <speed>3.000000</speed>
</trkpt>
<trkpt lat="32.743614197" lon="35.044795990">
  <ele>447.744629</ele>
  <time>2011-08-20T05:27:58Z</time>
  <speed>3.190000</speed>
</trkpt>
<trkpt lat="32.743644714" lon="35.044807434">
  <ele>448.689941</ele>
  <time>2011-08-20T05:27:59Z</time>
  <speed>3.110000</speed>
</trkpt>
<trkpt lat="32.743690491" lon="35.044811249">
  <ele>449.463379</ele>
  <time>2011-08-20T05:28:01Z</time>
  <speed>2.620000</speed>
</trkpt>
<trkpt lat="32.743732452" lon="35.044815063">
  <ele>451.182129</ele>
  <time>2011-08-20T05:28:03Z</time>
  <speed>2.710000</speed>
</trkpt>
<trkpt lat="32.743770599" lon="35.044822693">
  <ele>451.049316</ele>
  <time>2011-08-20T05:28:05Z</time>
  <speed>2.420000</speed>
</trkpt>
<trkpt lat="32.743824005" lon="35.044822693">
  <ele>450.705566</ele>
  <time>2011-08-20T05:28:07Z</time>
  <speed>2.480000</speed>
</trkpt>
<trkpt lat="32.743854523" lon="35.044807434">
  <ele>449.908691</ele>
  <time>2011-08-20T05:28:08Z</time>
  <speed>2.490000</speed>
</trkpt>
<trkpt lat="32.743907928" lon="35.044792175">
  <ele>450.596191</ele>
  <time>2011-08-20T05:28:10Z</time>
  <speed>2.710000</speed>
</trkpt>
<trkpt lat="32.743942261" lon="35.044773102">
  <ele>449.424316</ele>
  <time>2011-08-20T05:28:11Z</time>
  <speed>2.610000</speed>
</trkpt>
<trkpt lat="32.743976593" lon="35.044750214">
  <ele>447.205566</ele>
  <time>2011-08-20T05:28:12Z</time>
  <speed>2.550000</speed>
</trkpt>
<trkpt lat="32.744022369" lon="35.044742584">
  <ele>446.697754</ele>
  <time>2011-08-20T05:28:14Z</time>
  <speed>2.730000</speed>
</trkpt>
<trkpt lat="32.744060516" lon="35.044738770">
  <ele>448.525879</ele>
  <time>2011-08-20T05:28:16Z</time>
  <speed>2.680000</speed>
</trkpt>
<trkpt lat="32.744094849" lon="35.044715881">
  <ele>449.150879</ele>
  <time>2011-08-20T05:28:18Z</time>
  <speed>2.090000</speed>
</trkpt>
<trkpt lat="32.744136810" lon="35.044692993">
  <ele>448.486816</ele>
  <time>2011-08-20T05:28:20Z</time>
  <speed>2.510000</speed>
</trkpt>
<trkpt lat="32.744174957" lon="35.044673920">
  <ele>449.635254</ele>
  <time>2011-08-20T05:28:22Z</time>
  <speed>2.380000</speed>
</trkpt>
<trkpt lat="32.744216919" lon="35.044654846">
  <ele>448.627441</ele>
  <time>2011-08-20T05:28:24Z</time>
  <speed>2.170000</speed>
</trkpt>
<trkpt lat="32.744247437" lon="35.044647217">
  <ele>447.158691</ele>
  <time>2011-08-20T05:28:26Z</time>
  <speed>2.380000</speed>
</trkpt>
<trkpt lat="32.744270325" lon="35.044635773">
  <ele>445.861816</ele>
  <time>2011-08-20T05:28:27Z</time>
  <speed>2.220000</speed>
</trkpt>
<trkpt lat="32.744293213" lon="35.044620514">
  <ele>444.900879</ele>
  <time>2011-08-20T05:28:28Z</time>
  <speed>2.340000</speed>
</trkpt>
<trkpt lat="32.744335175" lon="35.044601440">
  <ele>445.119629</ele>
  <time>2011-08-20T05:28:30Z</time>
  <speed>2.540000</speed>
</trkpt>
<trkpt lat="32.744380951" lon="35.044593811">
  <ele>445.143066</ele>
  <time>2011-08-20T05:28:32Z</time>
  <speed>2.300000</speed>
</trkpt>
<trkpt lat="32.744407654" lon="35.044582367">
  <ele>446.127441</ele>
  <time>2011-08-20T05:28:33Z</time>
  <speed>2.360000</speed>
</trkpt>
<trkpt lat="32.744449615" lon="35.044567108">
  <ele>447.947754</ele>
  <time>2011-08-20T05:28:35Z</time>
  <speed>2.020000</speed>
</trkpt>
<trkpt lat="32.744487762" lon="35.044548035">
  <ele>447.400879</ele>
  <time>2011-08-20T05:28:37Z</time>
  <speed>2.610000</speed>
</trkpt>
<trkpt lat="32.744537354" lon="35.044528961">
  <ele>447.299316</ele>
  <time>2011-08-20T05:28:39Z</time>
  <speed>2.440000</speed>
</trkpt>
<trkpt lat="32.744560242" lon="35.044513702">
  <ele>445.611816</ele>
  <time>2011-08-20T05:28:40Z</time>
  <speed>2.340000</speed>
</trkpt>
<trkpt lat="32.744590759" lon="35.044475555">
  <ele>444.752441</ele>
  <time>2011-08-20T05:28:42Z</time>
  <speed>2.310000</speed>
</trkpt>
<trkpt lat="32.744621277" lon="35.044429779">
  <ele>444.088379</ele>
  <time>2011-08-20T05:28:44Z</time>
  <speed>2.500000</speed>
</trkpt>
<trkpt lat="32.744625092" lon="35.044399261">
  <ele>444.674316</ele>
  <time>2011-08-20T05:28:45Z</time>
  <speed>2.260000</speed>
</trkpt>
<trkpt lat="32.744632721" lon="35.044368744">
  <ele>444.971191</ele>
  <time>2011-08-20T05:28:46Z</time>
  <speed>2.010000</speed>
</trkpt>
<trkpt lat="32.744640350" lon="35.044334412">
  <ele>445.330566</ele>
  <time>2011-08-20T05:28:47Z</time>
  <speed>2.520000</speed>
</trkpt>
<trkpt lat="32.744644165" lon="35.044277191">
  <ele>445.377441</ele>
  <time>2011-08-20T05:28:49Z</time>
  <speed>2.570000</speed>
</trkpt>
<trkpt lat="32.744651794" lon="35.044223785">
  <ele>445.877441</ele>
  <time>2011-08-20T05:28:51Z</time>
  <speed>2.290000</speed>
</trkpt>
<trkpt lat="32.744659424" lon="35.044166565">
  <ele>446.502441</ele>
  <time>2011-08-20T05:28:53Z</time>
  <speed>2.370000</speed>
</trkpt>
<trkpt lat="32.744647980" lon="35.044113159">
  <ele>446.010254</ele>
  <time>2011-08-20T05:28:55Z</time>
  <speed>2.250000</speed>
</trkpt>
<trkpt lat="32.744640350" lon="35.044078827">
  <ele>445.658691</ele>
  <time>2011-08-20T05:28:56Z</time>
  <speed>2.650000</speed>
</trkpt>
<trkpt lat="32.744640350" lon="35.044033051">
  <ele>445.127441</ele>
  <time>2011-08-20T05:28:58Z</time>
  <speed>2.040000</speed>
</trkpt>
<trkpt lat="32.744644165" lon="35.043983459">
  <ele>444.713379</ele>
  <time>2011-08-20T05:29:00Z</time>
  <speed>2.190000</speed>
</trkpt>
<trkpt lat="32.744647980" lon="35.043933868">
  <ele>444.557129</ele>
  <time>2011-08-20T05:29:02Z</time>
  <speed>2.100000</speed>
</trkpt>
<trkpt lat="32.744667053" lon="35.043888092">
  <ele>444.299316</ele>
  <time>2011-08-20T05:29:04Z</time>
  <speed>2.240000</speed>
</trkpt>
<trkpt lat="32.744697571" lon="35.043846130">
  <ele>444.354004</ele>
  <time>2011-08-20T05:29:06Z</time>
  <speed>2.080000</speed>
</trkpt>
<trkpt lat="32.744720459" lon="35.043823242">
  <ele>444.268066</ele>
  <time>2011-08-20T05:29:07Z</time>
  <speed>2.260000</speed>
</trkpt>
<trkpt lat="32.744743347" lon="35.043800354">
  <ele>444.619629</ele>
  <time>2011-08-20T05:29:08Z</time>
  <speed>2.230000</speed>
</trkpt>
<trkpt lat="32.744781494" lon="35.043766022">
  <ele>445.299316</ele>
  <time>2011-08-20T05:29:10Z</time>
  <speed>2.550000</speed>
</trkpt>
<trkpt lat="32.744804382" lon="35.043746948">
  <ele>445.908691</ele>
  <time>2011-08-20T05:29:11Z</time>
  <speed>2.460000</speed>
</trkpt>
<trkpt lat="32.744834900" lon="35.043743134">
  <ele>446.252441</ele>
  <time>2011-08-20T05:29:12Z</time>
  <speed>2.540000</speed>
</trkpt>
<trkpt lat="32.744861603" lon="35.043758392">
  <ele>445.924316</ele>
  <time>2011-08-20T05:29:13Z</time>
  <speed>2.790000</speed>
</trkpt>
<trkpt lat="32.744888306" lon="35.043762207">
  <ele>446.018066</ele>
  <time>2011-08-20T05:29:14Z</time>
  <speed>3.180000</speed>
</trkpt>
<trkpt lat="32.744918823" lon="35.043781281">
  <ele>446.338379</ele>
  <time>2011-08-20T05:29:15Z</time>
  <speed>3.890000</speed>
</trkpt>
<trkpt lat="32.744956970" lon="35.043800354">
  <ele>446.416504</ele>
  <time>2011-08-20T05:29:16Z</time>
  <speed>4.300000</speed>
</trkpt>
<trkpt lat="32.744995117" lon="35.043823242">
  <ele>446.174316</ele>
  <time>2011-08-20T05:29:17Z</time>
  <speed>4.520000</speed>
</trkpt>
<trkpt lat="32.745037079" lon="35.043834686">
  <ele>446.549316</ele>
  <time>2011-08-20T05:29:18Z</time>
  <speed>4.920000</speed>
</trkpt>
<trkpt lat="32.745082855" lon="35.043853760">
  <ele>447.361816</ele>
  <time>2011-08-20T05:29:19Z</time>
  <speed>5.060000</speed>
</trkpt>
<trkpt lat="32.745143890" lon="35.043865204">
  <ele>448.361816</ele>
  <time>2011-08-20T05:29:20Z</time>
  <speed>4.910000</speed>
</trkpt>
<trkpt lat="32.745189667" lon="35.043865204">
  <ele>449.252441</ele>
  <time>2011-08-20T05:29:21Z</time>
  <speed>4.580000</speed>
</trkpt>
<trkpt lat="32.745227814" lon="35.043884277">
  <ele>449.393066</ele>
  <time>2011-08-20T05:29:22Z</time>
  <speed>4.020000</speed>
</trkpt>
<trkpt lat="32.745265961" lon="35.043891907">
  <ele>449.729004</ele>
  <time>2011-08-20T05:29:23Z</time>
  <speed>3.660000</speed>
</trkpt>
<trkpt lat="32.745288849" lon="35.043910980">
  <ele>450.424316</ele>
  <time>2011-08-20T05:29:24Z</time>
  <speed>2.970000</speed>
</trkpt>
<trkpt lat="32.745334625" lon="35.043930054">
  <ele>451.213379</ele>
  <time>2011-08-20T05:29:26Z</time>
  <speed>2.810000</speed>
</trkpt>
<trkpt lat="32.745365143" lon="35.043941498">
  <ele>452.479004</ele>
  <time>2011-08-20T05:29:27Z</time>
  <speed>3.080000</speed>
</trkpt>
<trkpt lat="32.745391846" lon="35.043945313">
  <ele>452.518066</ele>
  <time>2011-08-20T05:29:28Z</time>
  <speed>2.950000</speed>
</trkpt>
<trkpt lat="32.745426178" lon="35.043956757">
  <ele>453.221191</ele>
  <time>2011-08-20T05:29:29Z</time>
  <speed>3.110000</speed>
</trkpt>
<trkpt lat="32.745479584" lon="35.043972015">
  <ele>453.697754</ele>
  <time>2011-08-20T05:29:31Z</time>
  <speed>2.660000</speed>
</trkpt>
<trkpt lat="32.745513916" lon="35.043972015">
  <ele>453.682129</ele>
  <time>2011-08-20T05:29:33Z</time>
  <speed>1.550000</speed>
</trkpt>
<trkpt lat="32.745552063" lon="35.043987274">
  <ele>453.854004</ele>
  <time>2011-08-20T05:29:36Z</time>
  <speed>2.080000</speed>
</trkpt>
<trkpt lat="32.745590210" lon="35.043983459">
  <ele>453.775879</ele>
  <time>2011-08-20T05:29:38Z</time>
  <speed>1.660000</speed>
</trkpt>
<trkpt lat="32.745628357" lon="35.043972015">
  <ele>454.705566</ele>
  <time>2011-08-20T05:29:40Z</time>
  <speed>1.900000</speed>
</trkpt>
<trkpt lat="32.745666504" lon="35.043960571">
  <ele>455.307129</ele>
  <time>2011-08-20T05:29:42Z</time>
  <speed>1.610000</speed>
</trkpt>
<trkpt lat="32.745693207" lon="35.043949127">
  <ele>455.393066</ele>
  <time>2011-08-20T05:29:44Z</time>
  <speed>1.650000</speed>
</trkpt>
<trkpt lat="32.745719910" lon="35.043945313">
  <ele>455.307129</ele>
  <time>2011-08-20T05:29:46Z</time>
  <speed>1.890000</speed>
</trkpt>
<trkpt lat="32.745750427" lon="35.043937683">
  <ele>455.494629</ele>
  <time>2011-08-20T05:29:48Z</time>
  <speed>1.880000</speed>
</trkpt>
<trkpt lat="32.745773315" lon="35.043910980">
  <ele>455.971191</ele>
  <time>2011-08-20T05:29:50Z</time>
  <speed>1.980000</speed>
</trkpt>
<trkpt lat="32.745807648" lon="35.043884277">
  <ele>456.244629</ele>
  <time>2011-08-20T05:29:52Z</time>
  <speed>2.040000</speed>
</trkpt>
<trkpt lat="32.745834351" lon="35.043857574">
  <ele>456.994629</ele>
  <time>2011-08-20T05:29:54Z</time>
  <speed>1.790000</speed>
</trkpt>
<trkpt lat="32.745868683" lon="35.043834686">
  <ele>457.838379</ele>
  <time>2011-08-20T05:29:57Z</time>
  <speed>1.560000</speed>
</trkpt>
<trkpt lat="32.745891571" lon="35.043804169">
  <ele>458.986816</ele>
  <time>2011-08-20T05:29:59Z</time>
  <speed>2.210000</speed>
</trkpt>
<trkpt lat="32.745914459" lon="35.043762207">
  <ele>459.455566</ele>
  <time>2011-08-20T05:30:01Z</time>
  <speed>1.760000</speed>
</trkpt>
<trkpt lat="32.745922089" lon="35.043716431">
  <ele>460.713379</ele>
  <time>2011-08-20T05:30:03Z</time>
  <speed>1.870000</speed>
</trkpt>
<trkpt lat="32.745929718" lon="35.043678284">
  <ele>461.072754</ele>
  <time>2011-08-20T05:30:05Z</time>
  <speed>1.580000</speed>
</trkpt>
<trkpt lat="32.745941162" lon="35.043647766">
  <ele>462.127441</ele>
  <time>2011-08-20T05:30:07Z</time>
  <speed>1.650000</speed>
</trkpt>
<trkpt lat="32.745952606" lon="35.043617249">
  <ele>463.252441</ele>
  <time>2011-08-20T05:30:09Z</time>
  <speed>1.390000</speed>
</trkpt>
<trkpt lat="32.745971680" lon="35.043594360">
  <ele>464.471191</ele>
  <time>2011-08-20T05:30:11Z</time>
  <speed>1.300000</speed>
</trkpt>
<trkpt lat="32.745986938" lon="35.043563843">
  <ele>465.447754</ele>
  <time>2011-08-20T05:30:13Z</time>
  <speed>1.350000</speed>
</trkpt>
<trkpt lat="32.746002197" lon="35.043533325">
  <ele>466.299316</ele>
  <time>2011-08-20T05:30:15Z</time>
  <speed>1.600000</speed>
</trkpt>
<trkpt lat="32.746013641" lon="35.043506622">
  <ele>466.549316</ele>
  <time>2011-08-20T05:30:17Z</time>
  <speed>1.510000</speed>
</trkpt>
<trkpt lat="32.746017456" lon="35.043460846">
  <ele>467.533691</ele>
  <time>2011-08-20T05:30:19Z</time>
  <speed>1.830000</speed>
</trkpt>
<trkpt lat="32.746028900" lon="35.043418884">
  <ele>467.400879</ele>
  <time>2011-08-20T05:30:22Z</time>
  <speed>1.310000</speed>
</trkpt>
<trkpt lat="32.746032715" lon="35.043376923">
  <ele>467.158691</ele>
  <time>2011-08-20T05:30:24Z</time>
  <speed>1.620000</speed>
</trkpt>
<trkpt lat="32.746036530" lon="35.043346405">
  <ele>467.057129</ele>
  <time>2011-08-20T05:30:26Z</time>
  <speed>1.620000</speed>
</trkpt>
<trkpt lat="32.746044159" lon="35.043308258">
  <ele>467.479004</ele>
  <time>2011-08-20T05:30:29Z</time>
  <speed>1.580000</speed>
</trkpt>
<trkpt lat="32.746044159" lon="35.043273926">
  <ele>467.900879</ele>
  <time>2011-08-20T05:30:31Z</time>
  <speed>1.380000</speed>
</trkpt>
<trkpt lat="32.746036530" lon="35.043231964">
  <ele>468.127441</ele>
  <time>2011-08-20T05:30:34Z</time>
  <speed>1.360000</speed>
</trkpt>
<trkpt lat="32.746040344" lon="35.043190002">
  <ele>468.549316</ele>
  <time>2011-08-20T05:30:37Z</time>
  <speed>1.460000</speed>
</trkpt>
<trkpt lat="32.746047974" lon="35.043155670">
  <ele>469.080566</ele>
  <time>2011-08-20T05:30:39Z</time>
  <speed>1.440000</speed>
</trkpt>
<trkpt lat="32.746055603" lon="35.043121338">
  <ele>469.283691</ele>
  <time>2011-08-20T05:30:41Z</time>
  <speed>1.470000</speed>
</trkpt>
<trkpt lat="32.746051788" lon="35.043083191">
  <ele>469.775879</ele>
  <time>2011-08-20T05:30:44Z</time>
  <speed>1.250000</speed>
</trkpt>
<trkpt lat="32.746055603" lon="35.043033600">
  <ele>470.354004</ele>
  <time>2011-08-20T05:30:47Z</time>
  <speed>1.490000</speed>
</trkpt>
<trkpt lat="32.746063232" lon="35.042995453">
  <ele>470.799316</ele>
  <time>2011-08-20T05:30:49Z</time>
  <speed>1.340000</speed>
</trkpt>
<trkpt lat="32.746063232" lon="35.042953491">
  <ele>471.674316</ele>
  <time>2011-08-20T05:30:52Z</time>
  <speed>1.180000</speed>
</trkpt>
<trkpt lat="32.746070862" lon="35.042911530">
  <ele>471.713379</ele>
  <time>2011-08-20T05:30:55Z</time>
  <speed>1.290000</speed>
</trkpt>
<trkpt lat="32.746067047" lon="35.042877197">
  <ele>471.393066</ele>
  <time>2011-08-20T05:30:57Z</time>
  <speed>1.390000</speed>
</trkpt>
<trkpt lat="32.746074677" lon="35.042842865">
  <ele>471.518066</ele>
  <time>2011-08-20T05:30:59Z</time>
  <speed>1.530000</speed>
</trkpt>
<trkpt lat="32.746063232" lon="35.042793274">
  <ele>471.744629</ele>
  <time>2011-08-20T05:31:02Z</time>
  <speed>1.490000</speed>
</trkpt>
<trkpt lat="32.746059418" lon="35.042758942">
  <ele>472.221191</ele>
  <time>2011-08-20T05:31:04Z</time>
  <speed>1.430000</speed>
</trkpt>
<trkpt lat="32.746059418" lon="35.042716980">
  <ele>472.689941</ele>
  <time>2011-08-20T05:31:07Z</time>
  <speed>1.300000</speed>
</trkpt>
<trkpt lat="32.746047974" lon="35.042686462">
  <ele>473.658691</ele>
  <time>2011-08-20T05:31:09Z</time>
  <speed>1.120000</speed>
</trkpt>
<trkpt lat="32.746047974" lon="35.042655945">
  <ele>473.643066</ele>
  <time>2011-08-20T05:31:11Z</time>
  <speed>1.460000</speed>
</trkpt>
<trkpt lat="32.746059418" lon="35.042617798">
  <ele>473.814941</ele>
  <time>2011-08-20T05:31:14Z</time>
  <speed>1.180000</speed>
</trkpt>
<trkpt lat="32.746051788" lon="35.042587280">
  <ele>474.635254</ele>
  <time>2011-08-20T05:31:16Z</time>
  <speed>1.220000</speed>
</trkpt>
<trkpt lat="32.746051788" lon="35.042552948">
  <ele>474.604004</ele>
  <time>2011-08-20T05:31:18Z</time>
  <speed>1.430000</speed>
</trkpt>
<trkpt lat="32.746055603" lon="35.042518616">
  <ele>475.104004</ele>
  <time>2011-08-20T05:31:20Z</time>
  <speed>1.260000</speed>
</trkpt>
<trkpt lat="32.746051788" lon="35.042480469">
  <ele>475.541504</ele>
  <time>2011-08-20T05:31:23Z</time>
  <speed>1.070000</speed>
</trkpt>
<trkpt lat="32.746044159" lon="35.042449951">
  <ele>475.322754</ele>
  <time>2011-08-20T05:31:25Z</time>
  <speed>1.420000</speed>
</trkpt>
<trkpt lat="32.746047974" lon="35.042411804">
  <ele>476.158691</ele>
  <time>2011-08-20T05:31:27Z</time>
  <speed>1.670000</speed>
</trkpt>
<trkpt lat="32.746040344" lon="35.042373657">
  <ele>477.143066</ele>
  <time>2011-08-20T05:31:29Z</time>
  <speed>1.400000</speed>
</trkpt>
<trkpt lat="32.746032715" lon="35.042343140">
  <ele>477.713379</ele>
  <time>2011-08-20T05:31:31Z</time>
  <speed>1.340000</speed>
</trkpt>
<trkpt lat="32.746025085" lon="35.042304993">
  <ele>477.650879</ele>
  <time>2011-08-20T05:31:34Z</time>
  <speed>1.370000</speed>
</trkpt>
<trkpt lat="32.746013641" lon="35.042270660">
  <ele>479.229004</ele>
  <time>2011-08-20T05:31:37Z</time>
  <speed>1.260000</speed>
</trkpt>
<trkpt lat="32.745998383" lon="35.042243958">
  <ele>479.877441</ele>
  <time>2011-08-20T05:31:39Z</time>
  <speed>1.140000</speed>
</trkpt>
<trkpt lat="32.745967865" lon="35.042232513">
  <ele>480.111816</ele>
  <time>2011-08-20T05:31:41Z</time>
  <speed>1.480000</speed>
</trkpt>
<trkpt lat="32.745929718" lon="35.042247772">
  <ele>481.361816</ele>
  <time>2011-08-20T05:31:44Z</time>
  <speed>1.090000</speed>
</trkpt>
<trkpt lat="32.745891571" lon="35.042255402">
  <ele>482.025879</ele>
  <time>2011-08-20T05:31:47Z</time>
  <speed>1.110000</speed>
</trkpt>
<trkpt lat="32.745864868" lon="35.042251587">
  <ele>482.939941</ele>
  <time>2011-08-20T05:31:49Z</time>
  <speed>1.290000</speed>
</trkpt>
<trkpt lat="32.745838165" lon="35.042297363">
  <ele>483.229004</ele>
  <time>2011-08-20T05:31:52Z</time>
  <speed>1.450000</speed>
</trkpt>
<trkpt lat="32.745830536" lon="35.042327881">
  <ele>483.533691</ele>
  <time>2011-08-20T05:31:54Z</time>
  <speed>1.300000</speed>
</trkpt>
<trkpt lat="32.745819092" lon="35.042366028">
  <ele>484.057129</ele>
  <time>2011-08-20T05:31:56Z</time>
  <speed>1.630000</speed>
</trkpt>
<trkpt lat="32.745800018" lon="35.042407990">
  <ele>483.822754</ele>
  <time>2011-08-20T05:31:59Z</time>
  <speed>1.060000</speed>
</trkpt>
<trkpt lat="32.745784760" lon="35.042442322">
  <ele>483.346191</ele>
  <time>2011-08-20T05:32:01Z</time>
  <speed>1.850000</speed>
</trkpt>
<trkpt lat="32.745765686" lon="35.042469025">
  <ele>483.197754</ele>
  <time>2011-08-20T05:32:03Z</time>
  <speed>1.380000</speed>
</trkpt>
<trkpt lat="32.745754242" lon="35.042495728">
  <ele>484.049316</ele>
  <time>2011-08-20T05:32:05Z</time>
  <speed>0.910000</speed>
</trkpt>
<trkpt lat="32.745727539" lon="35.042514801">
  <ele>483.525879</ele>
  <time>2011-08-20T05:32:08Z</time>
  <speed>1.340000</speed>
</trkpt>
<trkpt lat="32.745700836" lon="35.042537689">
  <ele>483.924316</ele>
  <time>2011-08-20T05:32:11Z</time>
  <speed>1.230000</speed>
</trkpt>
<trkpt lat="32.745662689" lon="35.042564392">
  <ele>483.697754</ele>
  <time>2011-08-20T05:32:14Z</time>
  <speed>1.650000</speed>
</trkpt>
<trkpt lat="32.745655060" lon="35.042594910">
  <ele>485.135254</ele>
  <time>2011-08-20T05:32:16Z</time>
  <speed>1.490000</speed>
</trkpt>
<trkpt lat="32.745624542" lon="35.042621613">
  <ele>485.010254</ele>
  <time>2011-08-20T05:32:19Z</time>
  <speed>1.350000</speed>
</trkpt>
<trkpt lat="32.745597839" lon="35.042644501">
  <ele>484.182129</ele>
  <time>2011-08-20T05:32:22Z</time>
  <speed>1.580000</speed>
</trkpt>
<trkpt lat="32.745578766" lon="35.042671204">
  <ele>483.713379</ele>
  <time>2011-08-20T05:32:24Z</time>
  <speed>1.590000</speed>
</trkpt>
<trkpt lat="32.745571136" lon="35.042713165">
  <ele>482.650879</ele>
  <time>2011-08-20T05:32:26Z</time>
  <speed>1.830000</speed>
</trkpt>
<trkpt lat="32.745555878" lon="35.042743683">
  <ele>482.682129</ele>
  <time>2011-08-20T05:32:28Z</time>
  <speed>1.560000</speed>
</trkpt>
<trkpt lat="32.745540619" lon="35.042770386">
  <ele>482.494629</ele>
  <time>2011-08-20T05:32:30Z</time>
  <speed>1.760000</speed>
</trkpt>
<trkpt lat="32.745517731" lon="35.042804718">
  <ele>481.760254</ele>
  <time>2011-08-20T05:32:32Z</time>
  <speed>1.940000</speed>
</trkpt>
<trkpt lat="32.745491028" lon="35.042835236">
  <ele>481.768066</ele>
  <time>2011-08-20T05:32:34Z</time>
  <speed>2.090000</speed>
</trkpt>
<trkpt lat="32.745464325" lon="35.042881012">
  <ele>481.627441</ele>
  <time>2011-08-20T05:32:36Z</time>
  <speed>2.700000</speed>
</trkpt>
<trkpt lat="32.745433807" lon="35.042934418">
  <ele>481.908691</ele>
  <time>2011-08-20T05:32:38Z</time>
  <speed>3.110000</speed>
</trkpt>
<trkpt lat="32.745395660" lon="35.042972565">
  <ele>482.104004</ele>
  <time>2011-08-20T05:32:40Z</time>
  <speed>2.820000</speed>
</trkpt>
<trkpt lat="32.745361328" lon="35.043006897">
  <ele>482.150879</ele>
  <time>2011-08-20T05:32:42Z</time>
  <speed>1.830000</speed>
</trkpt>
<trkpt lat="32.745330811" lon="35.043025970">
  <ele>482.275879</ele>
  <time>2011-08-20T05:32:44Z</time>
  <speed>1.990000</speed>
</trkpt>
<trkpt lat="32.745288849" lon="35.043033600">
  <ele>482.432129</ele>
  <time>2011-08-20T05:32:47Z</time>
  <speed>2.150000</speed>
</trkpt>
<trkpt lat="32.745243073" lon="35.043052673">
  <ele>482.369629</ele>
  <time>2011-08-20T05:32:49Z</time>
  <speed>2.250000</speed>
</trkpt>
<trkpt lat="32.745204926" lon="35.043060303">
  <ele>482.650879</ele>
  <time>2011-08-20T05:32:51Z</time>
  <speed>2.190000</speed>
</trkpt>
<trkpt lat="32.745166779" lon="35.043060303">
  <ele>482.807129</ele>
  <time>2011-08-20T05:32:53Z</time>
  <speed>2.160000</speed>
</trkpt>
<trkpt lat="32.745124817" lon="35.043067932">
  <ele>483.244629</ele>
  <time>2011-08-20T05:32:55Z</time>
  <speed>2.200000</speed>
</trkpt>
<trkpt lat="32.745101929" lon="35.043087006">
  <ele>484.502441</ele>
  <time>2011-08-20T05:32:56Z</time>
  <speed>2.390000</speed>
</trkpt>
<trkpt lat="32.745063782" lon="35.043090820">
  <ele>484.354004</ele>
  <time>2011-08-20T05:32:58Z</time>
  <speed>2.330000</speed>
</trkpt>
<trkpt lat="32.745021820" lon="35.043098450">
  <ele>484.611816</ele>
  <time>2011-08-20T05:33:00Z</time>
  <speed>2.080000</speed>
</trkpt>
<trkpt lat="32.744983673" lon="35.043102264">
  <ele>485.307129</ele>
  <time>2011-08-20T05:33:02Z</time>
  <speed>2.280000</speed>
</trkpt>
<trkpt lat="32.744941711" lon="35.043102264">
  <ele>486.119629</ele>
  <time>2011-08-20T05:33:04Z</time>
  <speed>2.460000</speed>
</trkpt>
<trkpt lat="32.744892120" lon="35.043090820">
  <ele>485.869629</ele>
  <time>2011-08-20T05:33:06Z</time>
  <speed>2.230000</speed>
</trkpt>
<trkpt lat="32.744850159" lon="35.043090820">
  <ele>486.736816</ele>
  <time>2011-08-20T05:33:08Z</time>
  <speed>2.210000</speed>
</trkpt>
<trkpt lat="32.744815826" lon="35.043083191">
  <ele>487.369629</ele>
  <time>2011-08-20T05:33:10Z</time>
  <speed>2.120000</speed>
</trkpt>
<trkpt lat="32.744773865" lon="35.043071747">
  <ele>488.393066</ele>
  <time>2011-08-20T05:33:12Z</time>
  <speed>2.300000</speed>
</trkpt>
<trkpt lat="32.744739532" lon="35.043052673">
  <ele>488.807129</ele>
  <time>2011-08-20T05:33:14Z</time>
  <speed>1.900000</speed>
</trkpt>
<trkpt lat="32.744705200" lon="35.043045044">
  <ele>489.635254</ele>
  <time>2011-08-20T05:33:16Z</time>
  <speed>1.680000</speed>
</trkpt>
<trkpt lat="32.744674683" lon="35.043037415">
  <ele>490.775879</ele>
  <time>2011-08-20T05:33:18Z</time>
  <speed>1.760000</speed>
</trkpt>
<trkpt lat="32.744644165" lon="35.043033600">
  <ele>490.619629</ele>
  <time>2011-08-20T05:33:20Z</time>
  <speed>1.490000</speed>
</trkpt>
<trkpt lat="32.744609833" lon="35.043037415">
  <ele>490.064941</ele>
  <time>2011-08-20T05:33:22Z</time>
  <speed>1.720000</speed>
</trkpt>
<trkpt lat="32.744575500" lon="35.043033600">
  <ele>490.791504</ele>
  <time>2011-08-20T05:33:24Z</time>
  <speed>1.830000</speed>
</trkpt>
<trkpt lat="32.744537354" lon="35.043022156">
  <ele>491.307129</ele>
  <time>2011-08-20T05:33:26Z</time>
  <speed>1.730000</speed>
</trkpt>
<trkpt lat="32.744510651" lon="35.043006897">
  <ele>491.877441</ele>
  <time>2011-08-20T05:33:28Z</time>
  <speed>1.850000</speed>
</trkpt>
<trkpt lat="32.744483948" lon="35.042995453">
  <ele>492.611816</ele>
  <time>2011-08-20T05:33:30Z</time>
  <speed>1.540000</speed>
</trkpt>
<trkpt lat="32.744457245" lon="35.042987823">
  <ele>493.689941</ele>
  <time>2011-08-20T05:33:32Z</time>
  <speed>1.980000</speed>
</trkpt>
<trkpt lat="32.744422913" lon="35.042984009">
  <ele>494.424316</ele>
  <time>2011-08-20T05:33:34Z</time>
  <speed>1.740000</speed>
</trkpt>
<trkpt lat="32.744396210" lon="35.042972565">
  <ele>494.744629</ele>
  <time>2011-08-20T05:33:36Z</time>
  <speed>1.580000</speed>
</trkpt>
<trkpt lat="32.744365692" lon="35.042980194">
  <ele>494.580566</ele>
  <time>2011-08-20T05:33:38Z</time>
  <speed>1.560000</speed>
</trkpt>
<trkpt lat="32.744338989" lon="35.042999268">
  <ele>494.533691</ele>
  <time>2011-08-20T05:33:40Z</time>
  <speed>1.720000</speed>
</trkpt>
<trkpt lat="32.744312286" lon="35.043022156">
  <ele>494.260254</ele>
  <time>2011-08-20T05:33:42Z</time>
  <speed>1.730000</speed>
</trkpt>
<trkpt lat="32.744293213" lon="35.043067932">
  <ele>493.354004</ele>
  <time>2011-08-20T05:33:44Z</time>
  <speed>1.790000</speed>
</trkpt>
<trkpt lat="32.744281769" lon="35.043098450">
  <ele>493.986816</ele>
  <time>2011-08-20T05:33:45Z</time>
  <speed>1.740000</speed>
</trkpt>
<trkpt lat="32.744274139" lon="35.043128967">
  <ele>494.268066</ele>
  <time>2011-08-20T05:33:47Z</time>
  <speed>1.780000</speed>
</trkpt>
<trkpt lat="32.744266510" lon="35.043163300">
  <ele>493.924316</ele>
  <time>2011-08-20T05:33:49Z</time>
  <speed>2.090000</speed>
</trkpt>
<trkpt lat="32.744262695" lon="35.043209076">
  <ele>494.127441</ele>
  <time>2011-08-20T05:33:51Z</time>
  <speed>2.140000</speed>
</trkpt>
<trkpt lat="32.744251251" lon="35.043254852">
  <ele>494.252441</ele>
  <time>2011-08-20T05:33:53Z</time>
  <speed>1.930000</speed>
</trkpt>
<trkpt lat="32.744243622" lon="35.043296814">
  <ele>494.346191</ele>
  <time>2011-08-20T05:33:55Z</time>
  <speed>1.990000</speed>
</trkpt>
<trkpt lat="32.744239807" lon="35.043350220">
  <ele>495.064941</ele>
  <time>2011-08-20T05:33:57Z</time>
  <speed>2.060000</speed>
</trkpt>
<trkpt lat="32.744232178" lon="35.043384552">
  <ele>494.713379</ele>
  <time>2011-08-20T05:33:59Z</time>
  <speed>2.110000</speed>
</trkpt>
<trkpt lat="32.744213104" lon="35.043434143">
  <ele>494.307129</ele>
  <time>2011-08-20T05:34:01Z</time>
  <speed>2.080000</speed>
</trkpt>
<trkpt lat="32.744197845" lon="35.043472290">
  <ele>494.650879</ele>
  <time>2011-08-20T05:34:03Z</time>
  <speed>1.710000</speed>
</trkpt>
<trkpt lat="32.744186401" lon="35.043518066">
  <ele>495.400879</ele>
  <time>2011-08-20T05:34:05Z</time>
  <speed>1.990000</speed>
</trkpt>
<trkpt lat="32.744171143" lon="35.043571472">
  <ele>496.174316</ele>
  <time>2011-08-20T05:34:07Z</time>
  <speed>2.020000</speed>
</trkpt>
<trkpt lat="32.744152069" lon="35.043609619">
  <ele>496.244629</ele>
  <time>2011-08-20T05:34:09Z</time>
  <speed>1.970000</speed>
</trkpt>
<trkpt lat="32.744129181" lon="35.043636322">
  <ele>496.205566</ele>
  <time>2011-08-20T05:34:11Z</time>
  <speed>1.880000</speed>
</trkpt>
<trkpt lat="32.744102478" lon="35.043655396">
  <ele>496.064941</ele>
  <time>2011-08-20T05:34:13Z</time>
  <speed>2.000000</speed>
</trkpt>
<trkpt lat="32.744071960" lon="35.043674469">
  <ele>496.518066</ele>
  <time>2011-08-20T05:34:15Z</time>
  <speed>1.850000</speed>
</trkpt>
<trkpt lat="32.744041443" lon="35.043678284">
  <ele>496.580566</ele>
  <time>2011-08-20T05:34:17Z</time>
  <speed>1.740000</speed>
</trkpt>
<trkpt lat="32.744003296" lon="35.043678284">
  <ele>496.596191</ele>
  <time>2011-08-20T05:34:19Z</time>
  <speed>2.070000</speed>
</trkpt>
<trkpt lat="32.743972778" lon="35.043674469">
  <ele>496.979004</ele>
  <time>2011-08-20T05:34:21Z</time>
  <speed>1.690000</speed>
</trkpt>
<trkpt lat="32.743942261" lon="35.043674469">
  <ele>497.963379</ele>
  <time>2011-08-20T05:34:23Z</time>
  <speed>1.400000</speed>
</trkpt>
<trkpt lat="32.743900299" lon="35.043659210">
  <ele>498.822754</ele>
  <time>2011-08-20T05:34:26Z</time>
  <speed>1.780000</speed>
</trkpt>
<trkpt lat="32.743869781" lon="35.043643951">
  <ele>499.135254</ele>
  <time>2011-08-20T05:34:28Z</time>
  <speed>1.310000</speed>
</trkpt>
<trkpt lat="32.743846893" lon="35.043617249">
  <ele>499.369629</ele>
  <time>2011-08-20T05:34:31Z</time>
  <speed>1.220000</speed>
</trkpt>
<trkpt lat="32.743820190" lon="35.043613434">
  <ele>500.229004</ele>
  <time>2011-08-20T05:34:34Z</time>
  <speed>1.600000</speed>
</trkpt>
<trkpt lat="32.743789673" lon="35.043601990">
  <ele>500.885254</ele>
  <time>2011-08-20T05:34:36Z</time>
  <speed>1.830000</speed>
</trkpt>
<trkpt lat="32.743766785" lon="35.043575287">
  <ele>501.080566</ele>
  <time>2011-08-20T05:34:38Z</time>
  <speed>1.500000</speed>
</trkpt>
<trkpt lat="32.743751526" lon="35.043544769">
  <ele>501.182129</ele>
  <time>2011-08-20T05:34:40Z</time>
  <speed>1.750000</speed>
</trkpt>
<trkpt lat="32.743740082" lon="35.043510437">
  <ele>501.166504</ele>
  <time>2011-08-20T05:34:42Z</time>
  <speed>1.530000</speed>
</trkpt>
<trkpt lat="32.743717194" lon="35.043472290">
  <ele>501.307129</ele>
  <time>2011-08-20T05:34:45Z</time>
  <speed>1.730000</speed>
</trkpt>
<trkpt lat="32.743701935" lon="35.043445587">
  <ele>501.900879</ele>
  <time>2011-08-20T05:34:47Z</time>
  <speed>1.140000</speed>
</trkpt>
<trkpt lat="32.743686676" lon="35.043407440">
  <ele>502.252441</ele>
  <time>2011-08-20T05:34:50Z</time>
  <speed>1.540000</speed>
</trkpt>
<trkpt lat="32.743671417" lon="35.043369293">
  <ele>502.518066</ele>
  <time>2011-08-20T05:34:53Z</time>
  <speed>1.230000</speed>
</trkpt>
<trkpt lat="32.743648529" lon="35.043350220">
  <ele>503.760254</ele>
  <time>2011-08-20T05:34:56Z</time>
  <speed>1.270000</speed>
</trkpt>
<trkpt lat="32.743625641" lon="35.043323517">
  <ele>504.322754</ele>
  <time>2011-08-20T05:34:58Z</time>
  <speed>1.340000</speed>
</trkpt>
<trkpt lat="32.743598938" lon="35.043292999">
  <ele>504.447754</ele>
  <time>2011-08-20T05:35:01Z</time>
  <speed>1.300000</speed>
</trkpt>
<trkpt lat="32.743572235" lon="35.043262482">
  <ele>504.783691</ele>
  <time>2011-08-20T05:35:04Z</time>
  <speed>1.340000</speed>
</trkpt>
<trkpt lat="32.743549347" lon="35.043247223">
  <ele>505.174316</ele>
  <time>2011-08-20T05:35:06Z</time>
  <speed>1.420000</speed>
</trkpt>
<trkpt lat="32.743530273" lon="35.043220520">
  <ele>505.588379</ele>
  <time>2011-08-20T05:35:09Z</time>
  <speed>1.400000</speed>
</trkpt>
<trkpt lat="32.743499756" lon="35.043193817">
  <ele>506.439941</ele>
  <time>2011-08-20T05:35:12Z</time>
  <speed>1.280000</speed>
</trkpt>
<trkpt lat="32.743480682" lon="35.043155670">
  <ele>506.479004</ele>
  <time>2011-08-20T05:35:15Z</time>
  <speed>1.270000</speed>
</trkpt>
<trkpt lat="32.743457794" lon="35.043128967">
  <ele>506.627441</ele>
  <time>2011-08-20T05:35:18Z</time>
  <speed>1.080000</speed>
</trkpt>
<trkpt lat="32.743442535" lon="35.043094635">
  <ele>506.760254</ele>
  <time>2011-08-20T05:35:21Z</time>
  <speed>1.310000</speed>
</trkpt>
<trkpt lat="32.743434906" lon="35.043056488">
  <ele>508.252441</ele>
  <time>2011-08-20T05:35:24Z</time>
  <speed>1.070000</speed>
</trkpt>
<trkpt lat="32.743423462" lon="35.043018341">
  <ele>507.705566</ele>
  <time>2011-08-20T05:35:27Z</time>
  <speed>1.300000</speed>
</trkpt>
<trkpt lat="32.743408203" lon="35.042976379">
  <ele>507.549316</ele>
  <time>2011-08-20T05:35:30Z</time>
  <speed>1.260000</speed>
</trkpt>
<trkpt lat="32.743392944" lon="35.042949677">
  <ele>507.775879</ele>
  <time>2011-08-20T05:35:32Z</time>
  <speed>1.070000</speed>
</trkpt>
<trkpt lat="32.743373871" lon="35.042922974">
  <ele>507.744629</ele>
  <time>2011-08-20T05:35:34Z</time>
  <speed>1.340000</speed>
</trkpt>
<trkpt lat="32.743366241" lon="35.042892456">
  <ele>508.291504</ele>
  <time>2011-08-20T05:35:36Z</time>
  <speed>1.360000</speed>
</trkpt>
<trkpt lat="32.743358612" lon="35.042850494">
  <ele>508.814941</ele>
  <time>2011-08-20T05:35:40Z</time>
  <speed>1.370000</speed>
</trkpt>
<trkpt lat="32.743362427" lon="35.042816162">
  <ele>508.885254</ele>
  <time>2011-08-20T05:35:42Z</time>
  <speed>1.340000</speed>
</trkpt>
<trkpt lat="32.743354797" lon="35.042778015">
  <ele>508.338379</ele>
  <time>2011-08-20T05:35:45Z</time>
  <speed>1.130000</speed>
</trkpt>
<trkpt lat="32.743350983" lon="35.042736053">
  <ele>508.955566</ele>
  <time>2011-08-20T05:35:48Z</time>
  <speed>1.040000</speed>
</trkpt>
<trkpt lat="32.743347168" lon="35.042694092">
  <ele>509.322754</ele>
  <time>2011-08-20T05:35:51Z</time>
  <speed>1.380000</speed>
</trkpt>
<trkpt lat="32.743354797" lon="35.042655945">
  <ele>509.635254</ele>
  <time>2011-08-20T05:35:54Z</time>
  <speed>1.170000</speed>
</trkpt>
<trkpt lat="32.743354797" lon="35.042621613">
  <ele>511.033691</ele>
  <time>2011-08-20T05:35:57Z</time>
  <speed>1.000000</speed>
</trkpt>
<trkpt lat="32.743350983" lon="35.042579651">
  <ele>512.551758</ele>
  <time>2011-08-20T05:36:00Z</time>
  <speed>1.280000</speed>
</trkpt>
<trkpt lat="32.743350983" lon="35.042537689">
  <ele>512.895508</ele>
  <time>2011-08-20T05:36:03Z</time>
  <speed>1.410000</speed>
</trkpt>
<trkpt lat="32.743347168" lon="35.042495728">
  <ele>513.661133</ele>
  <time>2011-08-20T05:36:06Z</time>
  <speed>1.190000</speed>
</trkpt>
<trkpt lat="32.743358612" lon="35.042457581">
  <ele>514.520508</ele>
  <time>2011-08-20T05:36:09Z</time>
  <speed>0.910000</speed>
</trkpt>
<trkpt lat="32.743362427" lon="35.042423248">
  <ele>515.895508</ele>
  <time>2011-08-20T05:36:12Z</time>
  <speed>1.480000</speed>
</trkpt>
<trkpt lat="32.743370056" lon="35.042385101">
  <ele>516.426758</ele>
  <time>2011-08-20T05:36:15Z</time>
  <speed>1.250000</speed>
</trkpt>
<trkpt lat="32.743373871" lon="35.042335510">
  <ele>516.583008</ele>
  <time>2011-08-20T05:36:18Z</time>
  <speed>1.510000</speed>
</trkpt>
<trkpt lat="32.743377686" lon="35.042301178">
  <ele>516.786133</ele>
  <time>2011-08-20T05:36:21Z</time>
  <speed>0.980000</speed>
</trkpt>
<trkpt lat="32.743396759" lon="35.042263031">
  <ele>516.817383</ele>
  <time>2011-08-20T05:36:24Z</time>
  <speed>1.090000</speed>
</trkpt>
<trkpt lat="32.743389130" lon="35.042213440">
  <ele>516.801758</ele>
  <time>2011-08-20T05:36:26Z</time>
  <speed>1.190000</speed>
</trkpt>
<trkpt lat="32.743404388" lon="35.042179108">
  <ele>516.083008</ele>
  <time>2011-08-20T05:36:29Z</time>
  <speed>1.430000</speed>
</trkpt>
<trkpt lat="32.743412018" lon="35.042137146">
  <ele>516.317383</ele>
  <time>2011-08-20T05:36:31Z</time>
  <speed>1.260000</speed>
</trkpt>
<trkpt lat="32.743415833" lon="35.042106628">
  <ele>516.004883</ele>
  <time>2011-08-20T05:36:34Z</time>
  <speed>1.350000</speed>
</trkpt>
<trkpt lat="32.743404388" lon="35.042076111">
  <ele>516.754883</ele>
  <time>2011-08-20T05:36:36Z</time>
  <speed>1.520000</speed>
</trkpt>
<trkpt lat="32.743389130" lon="35.042049408">
  <ele>517.051758</ele>
  <time>2011-08-20T05:36:38Z</time>
  <speed>1.150000</speed>
</trkpt>
<trkpt lat="32.743362427" lon="35.042007446">
  <ele>517.254883</ele>
  <time>2011-08-20T05:36:41Z</time>
  <speed>1.350000</speed>
</trkpt>
<trkpt lat="32.743339539" lon="35.041969299">
  <ele>518.536133</ele>
  <time>2011-08-20T05:36:44Z</time>
  <speed>1.770000</speed>
</trkpt>
<trkpt lat="32.743312836" lon="35.041946411">
  <ele>518.864258</ele>
  <time>2011-08-20T05:36:46Z</time>
  <speed>1.580000</speed>
</trkpt>
<trkpt lat="32.743282318" lon="35.041919708">
  <ele>519.926758</ele>
  <time>2011-08-20T05:36:48Z</time>
  <speed>1.960000</speed>
</trkpt>
<trkpt lat="32.743255615" lon="35.041893005">
  <ele>519.333008</ele>
  <time>2011-08-20T05:36:50Z</time>
  <speed>2.490000</speed>
</trkpt>
<trkpt lat="32.743221283" lon="35.041843414">
  <ele>518.333008</ele>
  <time>2011-08-20T05:36:52Z</time>
  <speed>3.260000</speed>
</trkpt>
<trkpt lat="32.743194580" lon="35.041820526">
  <ele>518.583008</ele>
  <time>2011-08-20T05:36:53Z</time>
  <speed>3.620000</speed>
</trkpt>
<trkpt lat="32.743175507" lon="35.041786194">
  <ele>518.614258</ele>
  <time>2011-08-20T05:36:54Z</time>
  <speed>3.980000</speed>
</trkpt>
<trkpt lat="32.743152618" lon="35.041748047">
  <ele>518.004883</ele>
  <time>2011-08-20T05:36:55Z</time>
  <speed>4.480000</speed>
</trkpt>
<trkpt lat="32.743129730" lon="35.041706085">
  <ele>517.864258</ele>
  <time>2011-08-20T05:36:56Z</time>
  <speed>4.750000</speed>
</trkpt>
<trkpt lat="32.743103027" lon="35.041664124">
  <ele>517.629883</ele>
  <time>2011-08-20T05:36:57Z</time>
  <speed>4.890000</speed>
</trkpt>
<trkpt lat="32.743072510" lon="35.041625977">
  <ele>517.426758</ele>
  <time>2011-08-20T05:36:58Z</time>
  <speed>5.070000</speed>
</trkpt>
<trkpt lat="32.743038177" lon="35.041584015">
  <ele>517.051758</ele>
  <time>2011-08-20T05:36:59Z</time>
  <speed>4.910000</speed>
</trkpt>
<trkpt lat="32.743007660" lon="35.041557312">
  <ele>516.801758</ele>
  <time>2011-08-20T05:37:00Z</time>
  <speed>4.620000</speed>
</trkpt>
<trkpt lat="32.742969513" lon="35.041522980">
  <ele>516.833008</ele>
  <time>2011-08-20T05:37:01Z</time>
  <speed>4.530000</speed>
</trkpt>
<trkpt lat="32.742935181" lon="35.041500092">
  <ele>516.989258</ele>
  <time>2011-08-20T05:37:02Z</time>
  <speed>4.170000</speed>
</trkpt>
<trkpt lat="32.742904663" lon="35.041481018">
  <ele>517.051758</ele>
  <time>2011-08-20T05:37:03Z</time>
  <speed>3.710000</speed>
</trkpt>
<trkpt lat="32.742874146" lon="35.041454315">
  <ele>516.958008</ele>
  <time>2011-08-20T05:37:04Z</time>
  <speed>3.270000</speed>
</trkpt>
<trkpt lat="32.742839813" lon="35.041419983">
  <ele>517.036133</ele>
  <time>2011-08-20T05:37:06Z</time>
  <speed>2.180000</speed>
</trkpt>
<trkpt lat="32.742801666" lon="35.041397095">
  <ele>517.083008</ele>
  <time>2011-08-20T05:37:08Z</time>
  <speed>1.800000</speed>
</trkpt>
<trkpt lat="32.742763519" lon="35.041381836">
  <ele>517.770508</ele>
  <time>2011-08-20T05:37:10Z</time>
  <speed>2.020000</speed>
</trkpt>
<trkpt lat="32.742729187" lon="35.041358948">
  <ele>517.614258</ele>
  <time>2011-08-20T05:37:12Z</time>
  <speed>2.040000</speed>
</trkpt>
<trkpt lat="32.742698669" lon="35.041347504">
  <ele>518.129883</ele>
  <time>2011-08-20T05:37:14Z</time>
  <speed>1.980000</speed>
</trkpt>
<trkpt lat="32.742656708" lon="35.041328430">
  <ele>519.004883</ele>
  <time>2011-08-20T05:37:16Z</time>
  <speed>2.190000</speed>
</trkpt>
<trkpt lat="32.742618561" lon="35.041313171">
  <ele>519.708008</ele>
  <time>2011-08-20T05:37:18Z</time>
  <speed>1.900000</speed>
</trkpt>
<trkpt lat="32.742588043" lon="35.041290283">
  <ele>519.661133</ele>
  <time>2011-08-20T05:37:20Z</time>
  <speed>1.740000</speed>
</trkpt>
<trkpt lat="32.742553711" lon="35.041275024">
  <ele>519.504883</ele>
  <time>2011-08-20T05:37:22Z</time>
  <speed>1.930000</speed>
</trkpt>
<trkpt lat="32.742527008" lon="35.041259766">
  <ele>519.286133</ele>
  <time>2011-08-20T05:37:24Z</time>
  <speed>1.660000</speed>
</trkpt>
<trkpt lat="32.742500305" lon="35.041248322">
  <ele>519.770508</ele>
  <time>2011-08-20T05:37:26Z</time>
  <speed>1.840000</speed>
</trkpt>
<trkpt lat="32.742473602" lon="35.041240692">
  <ele>520.301758</ele>
  <time>2011-08-20T05:37:28Z</time>
  <speed>1.700000</speed>
</trkpt>
<trkpt lat="32.742446899" lon="35.041233063">
  <ele>519.754883</ele>
  <time>2011-08-20T05:37:30Z</time>
  <speed>1.920000</speed>
</trkpt>
<trkpt lat="32.742420197" lon="35.041213989">
  <ele>520.161133</ele>
  <time>2011-08-20T05:37:32Z</time>
  <speed>1.990000</speed>
</trkpt>
<trkpt lat="32.742393494" lon="35.041202545">
  <ele>520.473633</ele>
  <time>2011-08-20T05:37:34Z</time>
  <speed>1.770000</speed>
</trkpt>
<trkpt lat="32.742351532" lon="35.041194916">
  <ele>520.754883</ele>
  <time>2011-08-20T05:37:37Z</time>
  <speed>1.730000</speed>
</trkpt>
<trkpt lat="32.742321014" lon="35.041191101">
  <ele>520.442383</ele>
  <time>2011-08-20T05:37:39Z</time>
  <speed>1.410000</speed>
</trkpt>
<trkpt lat="32.742286682" lon="35.041187286">
  <ele>520.239258</ele>
  <time>2011-08-20T05:37:41Z</time>
  <speed>1.910000</speed>
</trkpt>
<trkpt lat="32.742256165" lon="35.041191101">
  <ele>520.786133</ele>
  <time>2011-08-20T05:37:43Z</time>
  <speed>1.950000</speed>
</trkpt>
<trkpt lat="32.742225647" lon="35.041187286">
  <ele>520.676758</ele>
  <time>2011-08-20T05:37:45Z</time>
  <speed>1.640000</speed>
</trkpt>
<trkpt lat="32.742187500" lon="35.041187286">
  <ele>521.020508</ele>
  <time>2011-08-20T05:37:47Z</time>
  <speed>1.840000</speed>
</trkpt>
<trkpt lat="32.742156982" lon="35.041183472">
  <ele>521.223633</ele>
  <time>2011-08-20T05:37:49Z</time>
  <speed>1.820000</speed>
</trkpt>
<trkpt lat="32.742115021" lon="35.041191101">
  <ele>521.567383</ele>
  <time>2011-08-20T05:37:51Z</time>
  <speed>1.680000</speed>
</trkpt>
<trkpt lat="32.742084503" lon="35.041191101">
  <ele>521.614258</ele>
  <time>2011-08-20T05:37:53Z</time>
  <speed>1.730000</speed>
</trkpt>
<trkpt lat="32.742053986" lon="35.041191101">
  <ele>521.536133</ele>
  <time>2011-08-20T05:37:55Z</time>
  <speed>1.780000</speed>
</trkpt>
<trkpt lat="32.742023468" lon="35.041194916">
  <ele>521.833008</ele>
  <time>2011-08-20T05:37:57Z</time>
  <speed>1.660000</speed>
</trkpt>
<trkpt lat="32.741985321" lon="35.041194916">
  <ele>522.317383</ele>
  <time>2011-08-20T05:37:59Z</time>
  <speed>1.580000</speed>
</trkpt>
<trkpt lat="32.741954803" lon="35.041191101">
  <ele>522.348633</ele>
  <time>2011-08-20T05:38:01Z</time>
  <speed>1.740000</speed>
</trkpt>
<trkpt lat="32.741920471" lon="35.041198730">
  <ele>522.239258</ele>
  <time>2011-08-20T05:38:03Z</time>
  <speed>1.910000</speed>
</trkpt>
<trkpt lat="32.741889954" lon="35.041198730">
  <ele>522.598633</ele>
  <time>2011-08-20T05:38:05Z</time>
  <speed>1.790000</speed>
</trkpt>
<trkpt lat="32.741859436" lon="35.041202545">
  <ele>522.739258</ele>
  <time>2011-08-20T05:38:07Z</time>
  <speed>1.610000</speed>
</trkpt>
<trkpt lat="32.741828918" lon="35.041202545">
  <ele>523.395508</ele>
  <time>2011-08-20T05:38:09Z</time>
  <speed>1.810000</speed>
</trkpt>
<trkpt lat="32.741802216" lon="35.041202545">
  <ele>523.739258</ele>
  <time>2011-08-20T05:38:11Z</time>
  <speed>1.730000</speed>
</trkpt>
<trkpt lat="32.741771698" lon="35.041202545">
  <ele>524.598633</ele>
  <time>2011-08-20T05:38:13Z</time>
  <speed>1.700000</speed>
</trkpt>
<trkpt lat="32.741748810" lon="35.041194916">
  <ele>525.395508</ele>
  <time>2011-08-20T05:38:15Z</time>
  <speed>1.690000</speed>
</trkpt>
<trkpt lat="32.741710663" lon="35.041198730">
  <ele>526.270508</ele>
  <time>2011-08-20T05:38:17Z</time>
  <speed>1.770000</speed>
</trkpt>
<trkpt lat="32.741676331" lon="35.041187286">
  <ele>526.817383</ele>
  <time>2011-08-20T05:38:19Z</time>
  <speed>1.890000</speed>
</trkpt>
<trkpt lat="32.741653442" lon="35.041160583">
  <ele>526.864258</ele>
  <time>2011-08-20T05:38:21Z</time>
  <speed>1.530000</speed>
</trkpt>
<trkpt lat="32.741622925" lon="35.041141510">
  <ele>527.848633</ele>
  <time>2011-08-20T05:38:24Z</time>
  <speed>1.580000</speed>
</trkpt>
<trkpt lat="32.741603851" lon="35.041110992">
  <ele>527.083008</ele>
  <time>2011-08-20T05:38:26Z</time>
  <speed>1.490000</speed>
</trkpt>
<trkpt lat="32.741580963" lon="35.041095734">
  <ele>527.551758</ele>
  <time>2011-08-20T05:38:28Z</time>
  <speed>1.580000</speed>
</trkpt>
<trkpt lat="32.741554260" lon="35.041080475">
  <ele>528.317383</ele>
  <time>2011-08-20T05:38:30Z</time>
  <speed>1.420000</speed>
</trkpt>
<trkpt lat="32.741527557" lon="35.041053772">
  <ele>528.192383</ele>
  <time>2011-08-20T05:38:32Z</time>
  <speed>1.560000</speed>
</trkpt>
<trkpt lat="32.741512299" lon="35.041019440">
  <ele>528.036133</ele>
  <time>2011-08-20T05:38:35Z</time>
  <speed>1.270000</speed>
</trkpt>
<trkpt lat="32.741500854" lon="35.040988922">
  <ele>527.583008</ele>
  <time>2011-08-20T05:38:37Z</time>
  <speed>1.470000</speed>
</trkpt>
<trkpt lat="32.741481781" lon="35.040962219">
  <ele>527.551758</ele>
  <time>2011-08-20T05:38:39Z</time>
  <speed>1.420000</speed>
</trkpt>
<trkpt lat="32.741462708" lon="35.040927887">
  <ele>527.614258</ele>
  <time>2011-08-20T05:38:41Z</time>
  <speed>1.510000</speed>
</trkpt>
<trkpt lat="32.741447449" lon="35.040901184">
  <ele>527.676758</ele>
  <time>2011-08-20T05:38:43Z</time>
  <speed>1.700000</speed>
</trkpt>
<trkpt lat="32.741428375" lon="35.040874481">
  <ele>527.848633</ele>
  <time>2011-08-20T05:38:45Z</time>
  <speed>1.560000</speed>
</trkpt>
<trkpt lat="32.741394043" lon="35.040847778">
  <ele>528.083008</ele>
  <time>2011-08-20T05:38:48Z</time>
  <speed>1.560000</speed>
</trkpt>
<trkpt lat="32.741371155" lon="35.040824890">
  <ele>528.317383</ele>
  <time>2011-08-20T05:38:50Z</time>
  <speed>1.630000</speed>
</trkpt>
<trkpt lat="32.741355896" lon="35.040794373">
  <ele>528.598633</ele>
  <time>2011-08-20T05:38:52Z</time>
  <speed>1.610000</speed>
</trkpt>
<trkpt lat="32.741344452" lon="35.040763855">
  <ele>528.551758</ele>
  <time>2011-08-20T05:38:54Z</time>
  <speed>1.790000</speed>
</trkpt>
<trkpt lat="32.741329193" lon="35.040729523">
  <ele>528.239258</ele>
  <time>2011-08-20T05:38:56Z</time>
  <speed>1.730000</speed>
</trkpt>
<trkpt lat="32.741310120" lon="35.040695190">
  <ele>527.676758</ele>
  <time>2011-08-20T05:38:58Z</time>
  <speed>2.270000</speed>
</trkpt>
<trkpt lat="32.741283417" lon="35.040653229">
  <ele>526.911133</ele>
  <time>2011-08-20T05:39:00Z</time>
  <speed>2.610000</speed>
</trkpt>
<trkpt lat="32.741271973" lon="35.040622711">
  <ele>526.692383</ele>
  <time>2011-08-20T05:39:01Z</time>
  <speed>2.880000</speed>
</trkpt>
<trkpt lat="32.741237640" lon="35.040576935">
  <ele>526.348633</ele>
  <time>2011-08-20T05:39:03Z</time>
  <speed>3.200000</speed>
</trkpt>
<trkpt lat="32.741222382" lon="35.040542603">
  <ele>525.942383</ele>
  <time>2011-08-20T05:39:04Z</time>
  <speed>3.710000</speed>
</trkpt>
<trkpt lat="32.741203308" lon="35.040500641">
  <ele>525.239258</ele>
  <time>2011-08-20T05:39:05Z</time>
  <speed>4.210000</speed>
</trkpt>
<trkpt lat="32.741180420" lon="35.040458679">
  <ele>524.817383</ele>
  <time>2011-08-20T05:39:06Z</time>
  <speed>4.870000</speed>
</trkpt>
<trkpt lat="32.741153717" lon="35.040420532">
  <ele>524.473633</ele>
  <time>2011-08-20T05:39:07Z</time>
  <speed>5.120000</speed>
</trkpt>
<trkpt lat="32.741130829" lon="35.040374756">
  <ele>524.708008</ele>
  <time>2011-08-20T05:39:08Z</time>
  <speed>5.160000</speed>
</trkpt>
<trkpt lat="32.741107941" lon="35.040321350">
  <ele>524.145508</ele>
  <time>2011-08-20T05:39:09Z</time>
  <speed>5.380000</speed>
</trkpt>
<trkpt lat="32.741085052" lon="35.040267944">
  <ele>523.942383</ele>
  <time>2011-08-20T05:39:10Z</time>
  <speed>5.610000</speed>
</trkpt>
<trkpt lat="32.741062164" lon="35.040214539">
  <ele>524.067383</ele>
  <time>2011-08-20T05:39:11Z</time>
  <speed>5.820000</speed>
</trkpt>
<trkpt lat="32.741031647" lon="35.040153503">
  <ele>524.145508</ele>
  <time>2011-08-20T05:39:12Z</time>
  <speed>6.630000</speed>
</trkpt>
<trkpt lat="32.740997314" lon="35.040096283">
  <ele>523.645508</ele>
  <time>2011-08-20T05:39:13Z</time>
  <speed>6.560000</speed>
</trkpt>
<trkpt lat="32.740962982" lon="35.040039063">
  <ele>522.723633</ele>
  <time>2011-08-20T05:39:14Z</time>
  <speed>6.840000</speed>
</trkpt>
<trkpt lat="32.740932465" lon="35.039974213">
  <ele>522.348633</ele>
  <time>2011-08-20T05:39:15Z</time>
  <speed>7.220000</speed>
</trkpt>
<trkpt lat="32.740898132" lon="35.039905548">
  <ele>521.426758</ele>
  <time>2011-08-20T05:39:16Z</time>
  <speed>7.240000</speed>
</trkpt>
<trkpt lat="32.740859985" lon="35.039836884">
  <ele>521.004883</ele>
  <time>2011-08-20T05:39:17Z</time>
  <speed>7.940000</speed>
</trkpt>
<trkpt lat="32.740821838" lon="35.039756775">
  <ele>520.723633</ele>
  <time>2011-08-20T05:39:18Z</time>
  <speed>7.990000</speed>
</trkpt>
<trkpt lat="32.740776062" lon="35.039695740">
  <ele>520.067383</ele>
  <time>2011-08-20T05:39:19Z</time>
  <speed>7.770000</speed>
</trkpt>
<trkpt lat="32.740734100" lon="35.039630890">
  <ele>520.145508</ele>
  <time>2011-08-20T05:39:20Z</time>
  <speed>7.980000</speed>
</trkpt>
<trkpt lat="32.740695953" lon="35.039550781">
  <ele>519.676758</ele>
  <time>2011-08-20T05:39:21Z</time>
  <speed>7.880000</speed>
</trkpt>
<trkpt lat="32.740665436" lon="35.039478302">
  <ele>519.364258</ele>
  <time>2011-08-20T05:39:22Z</time>
  <speed>7.830000</speed>
</trkpt>
<trkpt lat="32.740634918" lon="35.039398193">
  <ele>519.036133</ele>
  <time>2011-08-20T05:39:23Z</time>
  <speed>7.930000</speed>
</trkpt>
<trkpt lat="32.740619659" lon="35.039321899">
  <ele>518.723633</ele>
  <time>2011-08-20T05:39:24Z</time>
  <speed>7.730000</speed>
</trkpt>
<trkpt lat="32.740619659" lon="35.039245605">
  <ele>518.317383</ele>
  <time>2011-08-20T05:39:25Z</time>
  <speed>7.410000</speed>
</trkpt>
<trkpt lat="32.740623474" lon="35.039165497">
  <ele>518.020508</ele>
  <time>2011-08-20T05:39:26Z</time>
  <speed>6.920000</speed>
</trkpt>
<trkpt lat="32.740631104" lon="35.039096832">
  <ele>518.973633</ele>
  <time>2011-08-20T05:39:27Z</time>
  <speed>6.340000</speed>
</trkpt>
<trkpt lat="32.740638733" lon="35.039031982">
  <ele>519.629883</ele>
  <time>2011-08-20T05:39:28Z</time>
  <speed>5.830000</speed>
</trkpt>
<trkpt lat="32.740642548" lon="35.038970947">
  <ele>519.645508</ele>
  <time>2011-08-20T05:39:29Z</time>
  <speed>5.520000</speed>
</trkpt>
<trkpt lat="32.740646362" lon="35.038909912">
  <ele>520.129883</ele>
  <time>2011-08-20T05:39:30Z</time>
  <speed>5.090000</speed>
</trkpt>
<trkpt lat="32.740653992" lon="35.038852692">
  <ele>519.551758</ele>
  <time>2011-08-20T05:39:31Z</time>
  <speed>4.840000</speed>
</trkpt>
<trkpt lat="32.740661621" lon="35.038799286">
  <ele>519.161133</ele>
  <time>2011-08-20T05:39:32Z</time>
  <speed>4.880000</speed>
</trkpt>
<trkpt lat="32.740669250" lon="35.038745880">
  <ele>518.692383</ele>
  <time>2011-08-20T05:39:33Z</time>
  <speed>4.600000</speed>
</trkpt>
<trkpt lat="32.740676880" lon="35.038696289">
  <ele>518.567383</ele>
  <time>2011-08-20T05:39:34Z</time>
  <speed>4.580000</speed>
</trkpt>
<trkpt lat="32.740684509" lon="35.038650513">
  <ele>518.317383</ele>
  <time>2011-08-20T05:39:35Z</time>
  <speed>4.410000</speed>
</trkpt>
<trkpt lat="32.740688324" lon="35.038604736">
  <ele>518.286133</ele>
  <time>2011-08-20T05:39:36Z</time>
  <speed>4.210000</speed>
</trkpt>
<trkpt lat="32.740695953" lon="35.038562775">
  <ele>518.489258</ele>
  <time>2011-08-20T05:39:37Z</time>
  <speed>4.250000</speed>
</trkpt>
<trkpt lat="32.740692139" lon="35.038509369">
  <ele>518.754883</ele>
  <time>2011-08-20T05:39:38Z</time>
  <speed>4.460000</speed>
</trkpt>
<trkpt lat="32.740688324" lon="35.038463593">
  <ele>518.801758</ele>
  <time>2011-08-20T05:39:39Z</time>
  <speed>4.500000</speed>
</trkpt>
<trkpt lat="32.740676880" lon="35.038421631">
  <ele>518.317383</ele>
  <time>2011-08-20T05:39:40Z</time>
  <speed>4.690000</speed>
</trkpt>
<trkpt lat="32.740657806" lon="35.038379669">
  <ele>518.520508</ele>
  <time>2011-08-20T05:39:41Z</time>
  <speed>4.520000</speed>
</trkpt>
<trkpt lat="32.740634918" lon="35.038345337">
  <ele>518.364258</ele>
  <time>2011-08-20T05:39:42Z</time>
  <speed>4.530000</speed>
</trkpt>
<trkpt lat="32.740608215" lon="35.038322449">
  <ele>517.926758</ele>
  <time>2011-08-20T05:39:43Z</time>
  <speed>4.010000</speed>
</trkpt>
<trkpt lat="32.740577698" lon="35.038299561">
  <ele>518.192383</ele>
  <time>2011-08-20T05:39:44Z</time>
  <speed>3.990000</speed>
</trkpt>
<trkpt lat="32.740547180" lon="35.038284302">
  <ele>518.536133</ele>
  <time>2011-08-20T05:39:45Z</time>
  <speed>4.190000</speed>
</trkpt>
<trkpt lat="32.740509033" lon="35.038272858">
  <ele>518.551758</ele>
  <time>2011-08-20T05:39:46Z</time>
  <speed>4.130000</speed>
</trkpt>
<trkpt lat="32.740470886" lon="35.038257599">
  <ele>518.411133</ele>
  <time>2011-08-20T05:39:47Z</time>
  <speed>4.070000</speed>
</trkpt>
<trkpt lat="32.740428925" lon="35.038246155">
  <ele>518.520508</ele>
  <time>2011-08-20T05:39:48Z</time>
  <speed>4.010000</speed>
</trkpt>
<trkpt lat="32.740398407" lon="35.038227081">
  <ele>518.520508</ele>
  <time>2011-08-20T05:39:49Z</time>
  <speed>4.000000</speed>
</trkpt>
<trkpt lat="32.740367889" lon="35.038204193">
  <ele>518.817383</ele>
  <time>2011-08-20T05:39:50Z</time>
  <speed>3.900000</speed>
</trkpt>
<trkpt lat="32.740345001" lon="35.038173676">
  <ele>518.723633</ele>
  <time>2011-08-20T05:39:51Z</time>
  <speed>4.200000</speed>
</trkpt>
<trkpt lat="32.740322113" lon="35.038135529">
  <ele>518.583008</ele>
  <time>2011-08-20T05:39:52Z</time>
  <speed>4.430000</speed>
</trkpt>
<trkpt lat="32.740295410" lon="35.038105011">
  <ele>519.067383</ele>
  <time>2011-08-20T05:39:53Z</time>
  <speed>4.120000</speed>
</trkpt>
<trkpt lat="32.740268707" lon="35.038074493">
  <ele>518.864258</ele>
  <time>2011-08-20T05:39:54Z</time>
  <speed>4.100000</speed>
</trkpt>
<trkpt lat="32.740245819" lon="35.038043976">
  <ele>517.801758</ele>
  <time>2011-08-20T05:39:55Z</time>
  <speed>3.830000</speed>
</trkpt>
<trkpt lat="32.740226746" lon="35.038013458">
  <ele>517.708008</ele>
  <time>2011-08-20T05:39:56Z</time>
  <speed>3.930000</speed>
</trkpt>
<trkpt lat="32.740203857" lon="35.037979126">
  <ele>517.473633</ele>
  <time>2011-08-20T05:39:57Z</time>
  <speed>4.020000</speed>
</trkpt>
<trkpt lat="32.740177155" lon="35.037948608">
  <ele>516.879883</ele>
  <time>2011-08-20T05:39:58Z</time>
  <speed>4.280000</speed>
</trkpt>
<trkpt lat="32.740150452" lon="35.037914276">
  <ele>516.489258</ele>
  <time>2011-08-20T05:39:59Z</time>
  <speed>4.640000</speed>
</trkpt>
<trkpt lat="32.740112305" lon="35.037879944">
  <ele>515.801758</ele>
  <time>2011-08-20T05:40:00Z</time>
  <speed>4.890000</speed>
</trkpt>
<trkpt lat="32.740081787" lon="35.037837982">
  <ele>514.848633</ele>
  <time>2011-08-20T05:40:01Z</time>
  <speed>5.360000</speed>
</trkpt>
<trkpt lat="32.740047455" lon="35.037796021">
  <ele>514.504883</ele>
  <time>2011-08-20T05:40:02Z</time>
  <speed>5.870000</speed>
</trkpt>
<trkpt lat="32.740005493" lon="35.037750244">
  <ele>514.520508</ele>
  <time>2011-08-20T05:40:03Z</time>
  <speed>6.140000</speed>
</trkpt>
<trkpt lat="32.739952087" lon="35.037719727">
  <ele>515.692383</ele>
  <time>2011-08-20T05:40:04Z</time>
  <speed>6.500000</speed>
</trkpt>
<trkpt lat="32.739902496" lon="35.037677765">
  <ele>515.645508</ele>
  <time>2011-08-20T05:40:05Z</time>
  <speed>6.870000</speed>
</trkpt>
<trkpt lat="32.739849091" lon="35.037631989">
  <ele>515.708008</ele>
  <time>2011-08-20T05:40:06Z</time>
  <speed>7.370000</speed>
</trkpt>
<trkpt lat="32.739799500" lon="35.037582397">
  <ele>515.036133</ele>
  <time>2011-08-20T05:40:07Z</time>
  <speed>7.250000</speed>
</trkpt>
<trkpt lat="32.739753723" lon="35.037525177">
  <ele>514.458008</ele>
  <time>2011-08-20T05:40:08Z</time>
  <speed>7.400000</speed>
</trkpt>
<trkpt lat="32.739704132" lon="35.037464142">
  <ele>513.114258</ele>
  <time>2011-08-20T05:40:09Z</time>
  <speed>7.900000</speed>
</trkpt>
<trkpt lat="32.739658356" lon="35.037399292">
  <ele>512.098633</ele>
  <time>2011-08-20T05:40:10Z</time>
  <speed>8.000000</speed>
</trkpt>
<trkpt lat="32.739612579" lon="35.037330627">
  <ele>511.697754</ele>
  <time>2011-08-20T05:40:11Z</time>
  <speed>8.750000</speed>
</trkpt>
<trkpt lat="32.739566803" lon="35.037254333">
  <ele>510.510254</ele>
  <time>2011-08-20T05:40:12Z</time>
  <speed>9.000000</speed>
</trkpt>
<trkpt lat="32.739517212" lon="35.037178040">
  <ele>509.494629</ele>
  <time>2011-08-20T05:40:13Z</time>
  <speed>8.450000</speed>
</trkpt>
<trkpt lat="32.739471436" lon="35.037097931">
  <ele>508.658691</ele>
  <time>2011-08-20T05:40:14Z</time>
  <speed>8.320000</speed>
</trkpt>
<trkpt lat="32.739429474" lon="35.037033081">
  <ele>507.752441</ele>
  <time>2011-08-20T05:40:15Z</time>
  <speed>7.490000</speed>
</trkpt>
<trkpt lat="32.739383698" lon="35.036979675">
  <ele>507.322754</ele>
  <time>2011-08-20T05:40:16Z</time>
  <speed>6.770000</speed>
</trkpt>
<trkpt lat="32.739345551" lon="35.036926270">
  <ele>506.416504</ele>
  <time>2011-08-20T05:40:17Z</time>
  <speed>6.320000</speed>
</trkpt>
<trkpt lat="32.739307404" lon="35.036891937">
  <ele>505.338379</ele>
  <time>2011-08-20T05:40:18Z</time>
  <speed>4.930000</speed>
</trkpt>
<trkpt lat="32.739265442" lon="35.036884308">
  <ele>505.643066</ele>
  <time>2011-08-20T05:40:19Z</time>
  <speed>4.980000</speed>
</trkpt>
<trkpt lat="32.739219666" lon="35.036869049">
  <ele>504.768066</ele>
  <time>2011-08-20T05:40:20Z</time>
  <speed>5.100000</speed>
</trkpt>
<trkpt lat="32.739173889" lon="35.036846161">
  <ele>503.611816</ele>
  <time>2011-08-20T05:40:21Z</time>
  <speed>4.680000</speed>
</trkpt>
<trkpt lat="32.739135742" lon="35.036830902">
  <ele>503.119629</ele>
  <time>2011-08-20T05:40:22Z</time>
  <speed>4.640000</speed>
</trkpt>
<trkpt lat="32.739097595" lon="35.036819458">
  <ele>502.205566</ele>
  <time>2011-08-20T05:40:23Z</time>
  <speed>4.950000</speed>
</trkpt>
<trkpt lat="32.739048004" lon="35.036815643">
  <ele>502.424316</ele>
  <time>2011-08-20T05:40:24Z</time>
  <speed>5.430000</speed>
</trkpt>
<trkpt lat="32.738994598" lon="35.036808014">
  <ele>502.072754</ele>
  <time>2011-08-20T05:40:25Z</time>
  <speed>6.150000</speed>
</trkpt>
<trkpt lat="32.738937378" lon="35.036800385">
  <ele>502.158691</ele>
  <time>2011-08-20T05:40:26Z</time>
  <speed>6.070000</speed>
</trkpt>
<trkpt lat="32.738872528" lon="35.036796570">
  <ele>503.080566</ele>
  <time>2011-08-20T05:40:27Z</time>
  <speed>6.080000</speed>
</trkpt>
<trkpt lat="32.738811493" lon="35.036788940">
  <ele>502.705566</ele>
  <time>2011-08-20T05:40:28Z</time>
  <speed>6.600000</speed>
</trkpt>
<trkpt lat="32.738746643" lon="35.036781311">
  <ele>502.260254</ele>
  <time>2011-08-20T05:40:29Z</time>
  <speed>6.940000</speed>
</trkpt>
<trkpt lat="32.738685608" lon="35.036769867">
  <ele>501.955566</ele>
  <time>2011-08-20T05:40:30Z</time>
  <speed>6.580000</speed>
</trkpt>
<trkpt lat="32.738620758" lon="35.036777496">
  <ele>501.322754</ele>
  <time>2011-08-20T05:40:31Z</time>
  <speed>6.870000</speed>
</trkpt>
<trkpt lat="32.738555908" lon="35.036792755">
  <ele>500.502441</ele>
  <time>2011-08-20T05:40:32Z</time>
  <speed>7.110000</speed>
</trkpt>
<trkpt lat="32.738491058" lon="35.036811829">
  <ele>500.635254</ele>
  <time>2011-08-20T05:40:33Z</time>
  <speed>7.510000</speed>
</trkpt>
<trkpt lat="32.738422394" lon="35.036823273">
  <ele>499.041504</ele>
  <time>2011-08-20T05:40:34Z</time>
  <speed>7.490000</speed>
</trkpt>
<trkpt lat="32.738353729" lon="35.036834717">
  <ele>498.252441</ele>
  <time>2011-08-20T05:40:35Z</time>
  <speed>7.420000</speed>
</trkpt>
<trkpt lat="32.738288879" lon="35.036838531">
  <ele>497.838379</ele>
  <time>2011-08-20T05:40:36Z</time>
  <speed>7.520000</speed>
</trkpt>
<trkpt lat="32.738220215" lon="35.036838531">
  <ele>497.494629</ele>
  <time>2011-08-20T05:40:37Z</time>
  <speed>7.440000</speed>
</trkpt>
<trkpt lat="32.738155365" lon="35.036842346">
  <ele>496.924316</ele>
  <time>2011-08-20T05:40:38Z</time>
  <speed>7.140000</speed>
</trkpt>
<trkpt lat="32.738090515" lon="35.036846161">
  <ele>496.471191</ele>
  <time>2011-08-20T05:40:39Z</time>
  <speed>7.000000</speed>
</trkpt>
<trkpt lat="32.738029480" lon="35.036849976">
  <ele>496.135254</ele>
  <time>2011-08-20T05:40:40Z</time>
  <speed>6.740000</speed>
</trkpt>
<trkpt lat="32.737968445" lon="35.036853790">
  <ele>496.205566</ele>
  <time>2011-08-20T05:40:41Z</time>
  <speed>6.410000</speed>
</trkpt>
<trkpt lat="32.737915039" lon="35.036857605">
  <ele>496.455566</ele>
  <time>2011-08-20T05:40:42Z</time>
  <speed>5.800000</speed>
</trkpt>
<trkpt lat="32.737861633" lon="35.036853790">
  <ele>496.439941</ele>
  <time>2011-08-20T05:40:43Z</time>
  <speed>5.220000</speed>
</trkpt>
<trkpt lat="32.737812042" lon="35.036849976">
  <ele>496.650879</ele>
  <time>2011-08-20T05:40:44Z</time>
  <speed>5.020000</speed>
</trkpt>
<trkpt lat="32.737777710" lon="35.036827087">
  <ele>496.471191</ele>
  <time>2011-08-20T05:40:45Z</time>
  <speed>4.090000</speed>
</trkpt>
<trkpt lat="32.737735748" lon="35.036811829">
  <ele>496.189941</ele>
  <time>2011-08-20T05:40:47Z</time>
  <speed>2.550000</speed>
</trkpt>
<trkpt lat="32.737693787" lon="35.036819458">
  <ele>495.932129</ele>
  <time>2011-08-20T05:40:49Z</time>
  <speed>2.610000</speed>
</trkpt>
<trkpt lat="32.737644196" lon="35.036830902">
  <ele>494.635254</ele>
  <time>2011-08-20T05:40:51Z</time>
  <speed>2.970000</speed>
</trkpt>
<trkpt lat="32.737594604" lon="35.036842346">
  <ele>493.189941</ele>
  <time>2011-08-20T05:40:53Z</time>
  <speed>2.900000</speed>
</trkpt>
<trkpt lat="32.737552643" lon="35.036819458">
  <ele>491.658691</ele>
  <time>2011-08-20T05:40:55Z</time>
  <speed>2.750000</speed>
</trkpt>
<trkpt lat="32.737503052" lon="35.036819458">
  <ele>490.869629</ele>
  <time>2011-08-20T05:40:57Z</time>
  <speed>2.660000</speed>
</trkpt>
<trkpt lat="32.737453461" lon="35.036823273">
  <ele>489.994629</ele>
  <time>2011-08-20T05:40:59Z</time>
  <speed>2.930000</speed>
</trkpt>
<trkpt lat="32.737388611" lon="35.036827087">
  <ele>489.932129</ele>
  <time>2011-08-20T05:41:01Z</time>
  <speed>3.270000</speed>
</trkpt>
<trkpt lat="32.737354279" lon="35.036827087">
  <ele>490.221191</ele>
  <time>2011-08-20T05:41:02Z</time>
  <speed>3.010000</speed>
</trkpt>
<trkpt lat="32.737323761" lon="35.036830902">
  <ele>490.307129</ele>
  <time>2011-08-20T05:41:03Z</time>
  <speed>2.870000</speed>
</trkpt>
<trkpt lat="32.737297058" lon="35.036838531">
  <ele>490.502441</ele>
  <time>2011-08-20T05:41:04Z</time>
  <speed>2.910000</speed>
</trkpt>
<trkpt lat="32.737266541" lon="35.036838531">
  <ele>490.455566</ele>
  <time>2011-08-20T05:41:05Z</time>
  <speed>3.200000</speed>
</trkpt>
<trkpt lat="32.737239838" lon="35.036834717">
  <ele>490.314941</ele>
  <time>2011-08-20T05:41:06Z</time>
  <speed>3.290000</speed>
</trkpt>
<trkpt lat="32.737209320" lon="35.036830902">
  <ele>490.275879</ele>
  <time>2011-08-20T05:41:07Z</time>
  <speed>3.370000</speed>
</trkpt>
<trkpt lat="32.737174988" lon="35.036827087">
  <ele>490.244629</ele>
  <time>2011-08-20T05:41:08Z</time>
  <speed>3.340000</speed>
</trkpt>
<trkpt lat="32.737140656" lon="35.036834717">
  <ele>491.127441</ele>
  <time>2011-08-20T05:41:09Z</time>
  <speed>3.550000</speed>
</trkpt>
<trkpt lat="32.737110138" lon="35.036827087">
  <ele>491.049316</ele>
  <time>2011-08-20T05:41:10Z</time>
  <speed>3.400000</speed>
</trkpt>
<trkpt lat="32.737079620" lon="35.036827087">
  <ele>491.010254</ele>
  <time>2011-08-20T05:41:11Z</time>
  <speed>3.450000</speed>
</trkpt>
<trkpt lat="32.737041473" lon="35.036819458">
  <ele>491.322754</ele>
  <time>2011-08-20T05:41:12Z</time>
  <speed>3.870000</speed>
</trkpt>
<trkpt lat="32.737007141" lon="35.036819458">
  <ele>491.775879</ele>
  <time>2011-08-20T05:41:13Z</time>
  <speed>3.930000</speed>
</trkpt>
<trkpt lat="32.736968994" lon="35.036823273">
  <ele>491.885254</ele>
  <time>2011-08-20T05:41:14Z</time>
  <speed>3.830000</speed>
</trkpt>
<trkpt lat="32.736930847" lon="35.036819458">
  <ele>491.971191</ele>
  <time>2011-08-20T05:41:15Z</time>
  <speed>4.020000</speed>
</trkpt>
<trkpt lat="32.736896515" lon="35.036815643">
  <ele>491.549316</ele>
  <time>2011-08-20T05:41:16Z</time>
  <speed>3.840000</speed>
</trkpt>
<trkpt lat="32.736858368" lon="35.036808014">
  <ele>492.377441</ele>
  <time>2011-08-20T05:41:17Z</time>
  <speed>3.940000</speed>
</trkpt>
<trkpt lat="32.736824036" lon="35.036796570">
  <ele>491.713379</ele>
  <time>2011-08-20T05:41:18Z</time>
  <speed>4.240000</speed>
</trkpt>
<trkpt lat="32.736785889" lon="35.036781311">
  <ele>491.643066</ele>
  <time>2011-08-20T05:41:19Z</time>
  <speed>4.190000</speed>
</trkpt>
<trkpt lat="32.736751556" lon="35.036773682">
  <ele>491.783691</ele>
  <time>2011-08-20T05:41:20Z</time>
  <speed>4.050000</speed>
</trkpt>
<trkpt lat="32.736713409" lon="35.036777496">
  <ele>492.283691</ele>
  <time>2011-08-20T05:41:21Z</time>
  <speed>3.760000</speed>
</trkpt>
<trkpt lat="32.736679077" lon="35.036781311">
  <ele>492.908691</ele>
  <time>2011-08-20T05:41:22Z</time>
  <speed>3.470000</speed>
</trkpt>
<trkpt lat="32.736640930" lon="35.036781311">
  <ele>493.291504</ele>
  <time>2011-08-20T05:41:23Z</time>
  <speed>3.410000</speed>
</trkpt>
<trkpt lat="32.736610413" lon="35.036773682">
  <ele>492.932129</ele>
  <time>2011-08-20T05:41:24Z</time>
  <speed>3.370000</speed>
</trkpt>
<trkpt lat="32.736579895" lon="35.036762238">
  <ele>493.197754</ele>
  <time>2011-08-20T05:41:25Z</time>
  <speed>3.300000</speed>
</trkpt>
<trkpt lat="32.736557007" lon="35.036750793">
  <ele>493.299316</ele>
  <time>2011-08-20T05:41:26Z</time>
  <speed>3.070000</speed>
</trkpt>
<trkpt lat="32.736530304" lon="35.036739349">
  <ele>493.510254</ele>
  <time>2011-08-20T05:41:27Z</time>
  <speed>3.220000</speed>
</trkpt>
<trkpt lat="32.736480713" lon="35.036735535">
  <ele>493.502441</ele>
  <time>2011-08-20T05:41:29Z</time>
  <speed>3.320000</speed>
</trkpt>
<trkpt lat="32.736423492" lon="35.036735535">
  <ele>493.932129</ele>
  <time>2011-08-20T05:41:31Z</time>
  <speed>3.300000</speed>
</trkpt>
<trkpt lat="32.736396790" lon="35.036739349">
  <ele>494.330566</ele>
  <time>2011-08-20T05:41:32Z</time>
  <speed>3.110000</speed>
</trkpt>
<trkpt lat="32.736366272" lon="35.036735535">
  <ele>494.377441</ele>
  <time>2011-08-20T05:41:33Z</time>
  <speed>3.060000</speed>
</trkpt>
<trkpt lat="32.736339569" lon="35.036735535">
  <ele>495.354004</ele>
  <time>2011-08-20T05:41:34Z</time>
  <speed>3.230000</speed>
</trkpt>
<trkpt lat="32.736309052" lon="35.036727905">
  <ele>495.119629</ele>
  <time>2011-08-20T05:41:35Z</time>
  <speed>2.870000</speed>
</trkpt>
<trkpt lat="32.736251831" lon="35.036731720">
  <ele>495.088379</ele>
  <time>2011-08-20T05:41:37Z</time>
  <speed>2.980000</speed>
</trkpt>
<trkpt lat="32.736221313" lon="35.036739349">
  <ele>495.096191</ele>
  <time>2011-08-20T05:41:38Z</time>
  <speed>2.740000</speed>
</trkpt>
<trkpt lat="32.736194611" lon="35.036746979">
  <ele>495.549316</ele>
  <time>2011-08-20T05:41:39Z</time>
  <speed>3.100000</speed>
</trkpt>
<trkpt lat="32.736133575" lon="35.036746979">
  <ele>495.354004</ele>
  <time>2011-08-20T05:41:41Z</time>
  <speed>3.320000</speed>
</trkpt>
<trkpt lat="32.736072540" lon="35.036739349">
  <ele>495.385254</ele>
  <time>2011-08-20T05:41:43Z</time>
  <speed>3.140000</speed>
</trkpt>
<trkpt lat="32.736045837" lon="35.036743164">
  <ele>494.744629</ele>
  <time>2011-08-20T05:41:44Z</time>
  <speed>2.990000</speed>
</trkpt>
<trkpt lat="32.736015320" lon="35.036743164">
  <ele>494.635254</ele>
  <time>2011-08-20T05:41:45Z</time>
  <speed>3.220000</speed>
</trkpt>
<trkpt lat="32.735988617" lon="35.036750793">
  <ele>494.057129</ele>
  <time>2011-08-20T05:41:46Z</time>
  <speed>3.120000</speed>
</trkpt>
<trkpt lat="32.735954285" lon="35.036762238">
  <ele>494.564941</ele>
  <time>2011-08-20T05:41:47Z</time>
  <speed>2.970000</speed>
</trkpt>
<trkpt lat="32.735908508" lon="35.036762238">
  <ele>493.744629</ele>
  <time>2011-08-20T05:41:49Z</time>
  <speed>2.900000</speed>
</trkpt>
<trkpt lat="32.735881805" lon="35.036762238">
  <ele>494.236816</ele>
  <time>2011-08-20T05:41:50Z</time>
  <speed>2.990000</speed>
</trkpt>
<trkpt lat="32.735836029" lon="35.036762238">
  <ele>494.604004</ele>
  <time>2011-08-20T05:41:52Z</time>
  <speed>2.500000</speed>
</trkpt>
<trkpt lat="32.735801697" lon="35.036773682">
  <ele>493.986816</ele>
  <time>2011-08-20T05:41:54Z</time>
  <speed>1.510000</speed>
</trkpt>
<trkpt lat="32.735771179" lon="35.036792755">
  <ele>493.947754</ele>
  <time>2011-08-20T05:41:56Z</time>
  <speed>1.320000</speed>
</trkpt>
<trkpt lat="32.735744476" lon="35.036777496">
  <ele>492.143066</ele>
  <time>2011-08-20T05:41:58Z</time>
  <speed>1.950000</speed>
</trkpt>
<trkpt lat="32.735710144" lon="35.036804199">
  <ele>491.658691</ele>
  <time>2011-08-20T05:42:00Z</time>
  <speed>1.500000</speed>
</trkpt>
<trkpt lat="32.735683441" lon="35.036842346">
  <ele>491.408691</ele>
  <time>2011-08-20T05:42:02Z</time>
  <speed>1.490000</speed>
</trkpt>
<trkpt lat="32.735656738" lon="35.036869049">
  <ele>490.861816</ele>
  <time>2011-08-20T05:42:04Z</time>
  <speed>2.070000</speed>
</trkpt>
<trkpt lat="32.735630035" lon="35.036918640">
  <ele>490.549316</ele>
  <time>2011-08-20T05:42:06Z</time>
  <speed>2.880000</speed>
</trkpt>
<trkpt lat="32.735610962" lon="35.036952972">
  <ele>491.658691</ele>
  <time>2011-08-20T05:42:07Z</time>
  <speed>3.020000</speed>
</trkpt>
<trkpt lat="32.735595703" lon="35.036979675">
  <ele>491.463379</ele>
  <time>2011-08-20T05:42:08Z</time>
  <speed>3.340000</speed>
</trkpt>
<trkpt lat="32.735576630" lon="35.037017822">
  <ele>492.799316</ele>
  <time>2011-08-20T05:42:09Z</time>
  <speed>3.030000</speed>
</trkpt>
<trkpt lat="32.735553741" lon="35.037044525">
  <ele>492.666504</ele>
  <time>2011-08-20T05:42:10Z</time>
  <speed>2.670000</speed>
</trkpt>
<trkpt lat="32.735534668" lon="35.037063599">
  <ele>492.369629</ele>
  <time>2011-08-20T05:42:11Z</time>
  <speed>3.040000</speed>
</trkpt>
<trkpt lat="32.735523224" lon="35.037094116">
  <ele>492.393066</ele>
  <time>2011-08-20T05:42:12Z</time>
  <speed>2.880000</speed>
</trkpt>
<trkpt lat="32.735500336" lon="35.037147522">
  <ele>492.846191</ele>
  <time>2011-08-20T05:42:14Z</time>
  <speed>2.710000</speed>
</trkpt>
<trkpt lat="32.735481262" lon="35.037181854">
  <ele>493.143066</ele>
  <time>2011-08-20T05:42:15Z</time>
  <speed>2.810000</speed>
</trkpt>
<trkpt lat="32.735469818" lon="35.037208557">
  <ele>493.525879</ele>
  <time>2011-08-20T05:42:16Z</time>
  <speed>2.950000</speed>
</trkpt>
<trkpt lat="32.735462189" lon="35.037242889">
  <ele>493.955566</ele>
  <time>2011-08-20T05:42:17Z</time>
  <speed>2.800000</speed>
</trkpt>
<trkpt lat="32.735454559" lon="35.037300110">
  <ele>494.260254</ele>
  <time>2011-08-20T05:42:19Z</time>
  <speed>2.320000</speed>
</trkpt>
<trkpt lat="32.735439301" lon="35.037345886">
  <ele>494.791504</ele>
  <time>2011-08-20T05:42:21Z</time>
  <speed>2.630000</speed>
</trkpt>
<trkpt lat="32.735424042" lon="35.037395477">
  <ele>495.400879</ele>
  <time>2011-08-20T05:42:23Z</time>
  <speed>2.370000</speed>
</trkpt>
<trkpt lat="32.735416412" lon="35.037452698">
  <ele>495.400879</ele>
  <time>2011-08-20T05:42:25Z</time>
  <speed>2.590000</speed>
</trkpt>
<trkpt lat="32.735412598" lon="35.037506104">
  <ele>495.799316</ele>
  <time>2011-08-20T05:42:27Z</time>
  <speed>2.460000</speed>
</trkpt>
<trkpt lat="32.735397339" lon="35.037555695">
  <ele>495.596191</ele>
  <time>2011-08-20T05:42:29Z</time>
  <speed>2.450000</speed>
</trkpt>
<trkpt lat="32.735378265" lon="35.037609100">
  <ele>496.979004</ele>
  <time>2011-08-20T05:42:31Z</time>
  <speed>2.340000</speed>
</trkpt>
<trkpt lat="32.735359192" lon="35.037647247">
  <ele>497.885254</ele>
  <time>2011-08-20T05:42:33Z</time>
  <speed>1.970000</speed>
</trkpt>
<trkpt lat="32.735347748" lon="35.037685394">
  <ele>498.463379</ele>
  <time>2011-08-20T05:42:35Z</time>
  <speed>2.080000</speed>
</trkpt>
<trkpt lat="32.735340118" lon="35.037738800">
  <ele>498.400879</ele>
  <time>2011-08-20T05:42:37Z</time>
  <speed>2.120000</speed>
</trkpt>
<trkpt lat="32.735332489" lon="35.037788391">
  <ele>499.307129</ele>
  <time>2011-08-20T05:42:39Z</time>
  <speed>2.260000</speed>
</trkpt>
<trkpt lat="32.735328674" lon="35.037834167">
  <ele>498.822754</ele>
  <time>2011-08-20T05:42:41Z</time>
  <speed>2.090000</speed>
</trkpt>
<trkpt lat="32.735328674" lon="35.037876129">
  <ele>498.549316</ele>
  <time>2011-08-20T05:42:43Z</time>
  <speed>1.910000</speed>
</trkpt>
<trkpt lat="32.735324860" lon="35.037914276">
  <ele>498.416504</ele>
  <time>2011-08-20T05:42:45Z</time>
  <speed>1.810000</speed>
</trkpt>
<trkpt lat="32.735324860" lon="35.037956238">
  <ele>497.486816</ele>
  <time>2011-08-20T05:42:47Z</time>
  <speed>1.960000</speed>
</trkpt>
<trkpt lat="32.735317230" lon="35.038009644">
  <ele>498.143066</ele>
  <time>2011-08-20T05:42:49Z</time>
  <speed>3.010000</speed>
</trkpt>
<trkpt lat="32.735313416" lon="35.038047791">
  <ele>497.775879</ele>
  <time>2011-08-20T05:42:50Z</time>
  <speed>3.040000</speed>
</trkpt>
<trkpt lat="32.735301971" lon="35.038085938">
  <ele>497.572754</ele>
  <time>2011-08-20T05:42:51Z</time>
  <speed>3.670000</speed>
</trkpt>
<trkpt lat="32.735290527" lon="35.038124084">
  <ele>497.596191</ele>
  <time>2011-08-20T05:42:52Z</time>
  <speed>3.580000</speed>
</trkpt>
<trkpt lat="32.735279083" lon="35.038154602">
  <ele>496.650879</ele>
  <time>2011-08-20T05:42:53Z</time>
  <speed>3.330000</speed>
</trkpt>
<trkpt lat="32.735263824" lon="35.038188934">
  <ele>496.338379</ele>
  <time>2011-08-20T05:42:54Z</time>
  <speed>3.310000</speed>
</trkpt>
<trkpt lat="32.735252380" lon="35.038230896">
  <ele>496.174316</ele>
  <time>2011-08-20T05:42:55Z</time>
  <speed>3.840000</speed>
</trkpt>
<trkpt lat="32.735244751" lon="35.038269043">
  <ele>496.393066</ele>
  <time>2011-08-20T05:42:56Z</time>
  <speed>3.620000</speed>
</trkpt>
<trkpt lat="32.735229492" lon="35.038303375">
  <ele>495.869629</ele>
  <time>2011-08-20T05:42:57Z</time>
  <speed>3.580000</speed>
</trkpt>
<trkpt lat="32.735210419" lon="35.038337708">
  <ele>495.580566</ele>
  <time>2011-08-20T05:42:58Z</time>
  <speed>4.130000</speed>
</trkpt>
<trkpt lat="32.735191345" lon="35.038372040">
  <ele>495.307129</ele>
  <time>2011-08-20T05:42:59Z</time>
  <speed>3.810000</speed>
</trkpt>
<trkpt lat="32.735176086" lon="35.038402557">
  <ele>495.127441</ele>
  <time>2011-08-20T05:43:00Z</time>
  <speed>3.330000</speed>
</trkpt>
<trkpt lat="32.735157013" lon="35.038436890">
  <ele>494.752441</ele>
  <time>2011-08-20T05:43:01Z</time>
  <speed>3.790000</speed>
</trkpt>
<trkpt lat="32.735134125" lon="35.038467407">
  <ele>494.330566</ele>
  <time>2011-08-20T05:43:02Z</time>
  <speed>3.440000</speed>
</trkpt>
<trkpt lat="32.735122681" lon="35.038497925">
  <ele>494.682129</ele>
  <time>2011-08-20T05:43:03Z</time>
  <speed>3.280000</speed>
</trkpt>
<trkpt lat="32.735099792" lon="35.038570404">
  <ele>495.104004</ele>
  <time>2011-08-20T05:43:05Z</time>
  <speed>3.500000</speed>
</trkpt>
<trkpt lat="32.735092163" lon="35.038608551">
  <ele>495.127441</ele>
  <time>2011-08-20T05:43:06Z</time>
  <speed>3.670000</speed>
</trkpt>
<trkpt lat="32.735076904" lon="35.038646698">
  <ele>495.455566</ele>
  <time>2011-08-20T05:43:07Z</time>
  <speed>3.380000</speed>
</trkpt>
<trkpt lat="32.735065460" lon="35.038681030">
  <ele>495.760254</ele>
  <time>2011-08-20T05:43:08Z</time>
  <speed>2.950000</speed>
</trkpt>
<trkpt lat="32.735054016" lon="35.038715363">
  <ele>496.072754</ele>
  <time>2011-08-20T05:43:09Z</time>
  <speed>2.800000</speed>
</trkpt>
<trkpt lat="32.735031128" lon="35.038764954">
  <ele>495.447754</ele>
  <time>2011-08-20T05:43:11Z</time>
  <speed>2.700000</speed>
</trkpt>
<trkpt lat="32.735008240" lon="35.038818359">
  <ele>495.080566</ele>
  <time>2011-08-20T05:43:13Z</time>
  <speed>2.840000</speed>
</trkpt>
<trkpt lat="32.734973907" lon="35.038864136">
  <ele>495.150879</ele>
  <time>2011-08-20T05:43:15Z</time>
  <speed>2.760000</speed>
</trkpt>
<trkpt lat="32.734943390" lon="35.038906097">
  <ele>494.846191</ele>
  <time>2011-08-20T05:43:17Z</time>
  <speed>2.300000</speed>
</trkpt>
<trkpt lat="32.734924316" lon="35.038940430">
  <ele>494.775879</ele>
  <time>2011-08-20T05:43:19Z</time>
  <speed>1.920000</speed>
</trkpt>
<trkpt lat="32.734901428" lon="35.038986206">
  <ele>494.588379</ele>
  <time>2011-08-20T05:43:21Z</time>
  <speed>2.270000</speed>
</trkpt>
<trkpt lat="32.734882355" lon="35.039016724">
  <ele>494.018066</ele>
  <time>2011-08-20T05:43:22Z</time>
  <speed>2.560000</speed>
</trkpt>
<trkpt lat="32.734859467" lon="35.039070129">
  <ele>493.939941</ele>
  <time>2011-08-20T05:43:24Z</time>
  <speed>2.580000</speed>
</trkpt>
<trkpt lat="32.734840393" lon="35.039119720">
  <ele>492.986816</ele>
  <time>2011-08-20T05:43:26Z</time>
  <speed>2.200000</speed>
</trkpt>
<trkpt lat="32.734813690" lon="35.039180756">
  <ele>492.768066</ele>
  <time>2011-08-20T05:43:28Z</time>
  <speed>2.820000</speed>
</trkpt>
<trkpt lat="32.734794617" lon="35.039234161">
  <ele>494.166504</ele>
  <time>2011-08-20T05:43:30Z</time>
  <speed>2.660000</speed>
</trkpt>
<trkpt lat="32.734779358" lon="35.039264679">
  <ele>494.252441</ele>
  <time>2011-08-20T05:43:31Z</time>
  <speed>2.730000</speed>
</trkpt>
<trkpt lat="32.734756470" lon="35.039321899">
  <ele>494.432129</ele>
  <time>2011-08-20T05:43:33Z</time>
  <speed>2.810000</speed>
</trkpt>
<trkpt lat="32.734741211" lon="35.039356232">
  <ele>495.682129</ele>
  <time>2011-08-20T05:43:34Z</time>
  <speed>2.740000</speed>
</trkpt>
<trkpt lat="32.734729767" lon="35.039402008">
  <ele>496.791504</ele>
  <time>2011-08-20T05:43:35Z</time>
  <speed>3.130000</speed>
</trkpt>
<trkpt lat="32.734699249" lon="35.039451599">
  <ele>496.361816</ele>
  <time>2011-08-20T05:43:37Z</time>
  <speed>2.800000</speed>
</trkpt>
<trkpt lat="32.734683990" lon="35.039478302">
  <ele>496.854004</ele>
  <time>2011-08-20T05:43:38Z</time>
  <speed>2.810000</speed>
</trkpt>
<trkpt lat="32.734664917" lon="35.039508820">
  <ele>497.447754</ele>
  <time>2011-08-20T05:43:39Z</time>
  <speed>2.780000</speed>
</trkpt>
<trkpt lat="32.734638214" lon="35.039558411">
  <ele>498.041504</ele>
  <time>2011-08-20T05:43:41Z</time>
  <speed>2.550000</speed>
</trkpt>
<trkpt lat="32.734626770" lon="35.039585114">
  <ele>499.627441</ele>
  <time>2011-08-20T05:43:42Z</time>
  <speed>2.380000</speed>
</trkpt>
<trkpt lat="32.734611511" lon="35.039619446">
  <ele>499.932129</ele>
  <time>2011-08-20T05:43:44Z</time>
  <speed>1.870000</speed>
</trkpt>
<trkpt lat="32.734584808" lon="35.039657593">
  <ele>500.588379</ele>
  <time>2011-08-20T05:43:46Z</time>
  <speed>2.540000</speed>
</trkpt>
<trkpt lat="32.734554291" lon="35.039695740">
  <ele>501.471191</ele>
  <time>2011-08-20T05:43:48Z</time>
  <speed>2.440000</speed>
</trkpt>
<trkpt lat="32.734531403" lon="35.039733887">
  <ele>500.783691</ele>
  <time>2011-08-20T05:43:50Z</time>
  <speed>2.510000</speed>
</trkpt>
<trkpt lat="32.734512329" lon="35.039775848">
  <ele>500.080566</ele>
  <time>2011-08-20T05:43:52Z</time>
  <speed>2.160000</speed>
</trkpt>
<trkpt lat="32.734500885" lon="35.039813995">
  <ele>498.939941</ele>
  <time>2011-08-20T05:43:54Z</time>
  <speed>1.630000</speed>
</trkpt>
<trkpt lat="32.734485626" lon="35.039848328">
  <ele>498.611816</ele>
  <time>2011-08-20T05:43:56Z</time>
  <speed>1.840000</speed>
</trkpt>
<trkpt lat="32.734455109" lon="35.039859772">
  <ele>499.557129</ele>
  <time>2011-08-20T05:43:58Z</time>
  <speed>1.510000</speed>
</trkpt>
<trkpt lat="32.734428406" lon="35.039855957">
  <ele>500.229004</ele>
  <time>2011-08-20T05:44:00Z</time>
  <speed>1.630000</speed>
</trkpt>
<trkpt lat="32.734401703" lon="35.039863586">
  <ele>501.400879</ele>
  <time>2011-08-20T05:44:02Z</time>
  <speed>1.200000</speed>
</trkpt>
<trkpt lat="32.734382629" lon="35.039901733">
  <ele>501.760254</ele>
  <time>2011-08-20T05:44:05Z</time>
  <speed>1.230000</speed>
</trkpt>
<trkpt lat="32.734375000" lon="35.039932251">
  <ele>501.658691</ele>
  <time>2011-08-20T05:44:07Z</time>
  <speed>1.720000</speed>
</trkpt>
<trkpt lat="32.734386444" lon="35.039974213">
  <ele>501.822754</ele>
  <time>2011-08-20T05:44:09Z</time>
  <speed>1.900000</speed>
</trkpt>
<trkpt lat="32.734405518" lon="35.040019989">
  <ele>502.744629</ele>
  <time>2011-08-20T05:44:11Z</time>
  <speed>2.170000</speed>
</trkpt>
<trkpt lat="32.734424591" lon="35.040065765">
  <ele>503.064941</ele>
  <time>2011-08-20T05:44:13Z</time>
  <speed>2.450000</speed>
</trkpt>
<trkpt lat="32.734436035" lon="35.040096283">
  <ele>503.666504</ele>
  <time>2011-08-20T05:44:14Z</time>
  <speed>2.440000</speed>
</trkpt>
<trkpt lat="32.734455109" lon="35.040149689">
  <ele>503.283691</ele>
  <time>2011-08-20T05:44:16Z</time>
  <speed>2.610000</speed>
</trkpt>
<trkpt lat="32.734458923" lon="35.040199280">
  <ele>503.299316</ele>
  <time>2011-08-20T05:44:18Z</time>
  <speed>2.380000</speed>
</trkpt>
<trkpt lat="32.734436035" lon="35.040229797">
  <ele>503.525879</ele>
  <time>2011-08-20T05:44:20Z</time>
  <speed>2.310000</speed>
</trkpt>
<trkpt lat="32.734394073" lon="35.040267944">
  <ele>503.260254</ele>
  <time>2011-08-20T05:44:22Z</time>
  <speed>2.510000</speed>
</trkpt>
<trkpt lat="32.734367371" lon="35.040306091">
  <ele>503.447754</ele>
  <time>2011-08-20T05:44:24Z</time>
  <speed>2.380000</speed>
</trkpt>
<trkpt lat="32.734344482" lon="35.040348053">
  <ele>502.580566</ele>
  <time>2011-08-20T05:44:26Z</time>
  <speed>2.140000</speed>
</trkpt>
<trkpt lat="32.734325409" lon="35.040397644">
  <ele>502.439941</ele>
  <time>2011-08-20T05:44:28Z</time>
  <speed>2.120000</speed>
</trkpt>
<trkpt lat="32.734306335" lon="35.040435791">
  <ele>502.393066</ele>
  <time>2011-08-20T05:44:30Z</time>
  <speed>2.200000</speed>
</trkpt>
<trkpt lat="32.734279633" lon="35.040470123">
  <ele>502.447754</ele>
  <time>2011-08-20T05:44:32Z</time>
  <speed>2.250000</speed>
</trkpt>
<trkpt lat="32.734249115" lon="35.040504456">
  <ele>501.611816</ele>
  <time>2011-08-20T05:44:34Z</time>
  <speed>2.400000</speed>
</trkpt>
<trkpt lat="32.734207153" lon="35.040523529">
  <ele>500.869629</ele>
  <time>2011-08-20T05:44:36Z</time>
  <speed>2.240000</speed>
</trkpt>
<trkpt lat="32.734172821" lon="35.040534973">
  <ele>501.533691</ele>
  <time>2011-08-20T05:44:38Z</time>
  <speed>1.560000</speed>
</trkpt>
<trkpt lat="32.734142303" lon="35.040550232">
  <ele>501.197754</ele>
  <time>2011-08-20T05:44:40Z</time>
  <speed>2.010000</speed>
</trkpt>
<trkpt lat="32.734111786" lon="35.040554047">
  <ele>501.143066</ele>
  <time>2011-08-20T05:44:42Z</time>
  <speed>1.690000</speed>
</trkpt>
<trkpt lat="32.734081268" lon="35.040561676">
  <ele>501.658691</ele>
  <time>2011-08-20T05:44:44Z</time>
  <speed>1.750000</speed>
</trkpt>
<trkpt lat="32.734050751" lon="35.040546417">
  <ele>501.635254</ele>
  <time>2011-08-20T05:44:46Z</time>
  <speed>2.030000</speed>
</trkpt>
<trkpt lat="32.734016418" lon="35.040515900">
  <ele>502.385254</ele>
  <time>2011-08-20T05:44:48Z</time>
  <speed>2.040000</speed>
</trkpt>
<trkpt lat="32.733997345" lon="35.040489197">
  <ele>501.564941</ele>
  <time>2011-08-20T05:44:50Z</time>
  <speed>1.790000</speed>
</trkpt>
<trkpt lat="32.733966827" lon="35.040466309">
  <ele>501.393066</ele>
  <time>2011-08-20T05:44:52Z</time>
  <speed>1.870000</speed>
</trkpt>
<trkpt lat="32.733951569" lon="35.040428162">
  <ele>501.963379</ele>
  <time>2011-08-20T05:44:54Z</time>
  <speed>2.030000</speed>
</trkpt>
<trkpt lat="32.733940125" lon="35.040397644">
  <ele>502.682129</ele>
  <time>2011-08-20T05:44:56Z</time>
  <speed>1.860000</speed>
</trkpt>
<trkpt lat="32.733936310" lon="35.040355682">
  <ele>502.674316</ele>
  <time>2011-08-20T05:44:58Z</time>
  <speed>2.090000</speed>
</trkpt>
<trkpt lat="32.733932495" lon="35.040309906">
  <ele>502.955566</ele>
  <time>2011-08-20T05:45:00Z</time>
  <speed>1.880000</speed>
</trkpt>
<trkpt lat="32.733936310" lon="35.040267944">
  <ele>503.197754</ele>
  <time>2011-08-20T05:45:02Z</time>
  <speed>1.880000</speed>
</trkpt>
<trkpt lat="32.733928680" lon="35.040225983">
  <ele>502.619629</ele>
  <time>2011-08-20T05:45:04Z</time>
  <speed>1.710000</speed>
</trkpt>
<trkpt lat="32.733917236" lon="35.040187836">
  <ele>502.525879</ele>
  <time>2011-08-20T05:45:06Z</time>
  <speed>1.400000</speed>
</trkpt>
<trkpt lat="32.733901978" lon="35.040149689">
  <ele>502.049316</ele>
  <time>2011-08-20T05:45:09Z</time>
  <speed>1.080000</speed>
</trkpt>
<trkpt lat="32.733879089" lon="35.040145874">
  <ele>500.236816</ele>
  <time>2011-08-20T05:48:14Z</time>
</trkpt>
<trkpt lat="32.733898163" lon="35.040180206">
  <ele>500.557129</ele>
  <time>2011-08-20T05:50:19Z</time>
  <speed>0.280000</speed>
</trkpt>
<trkpt lat="32.733913422" lon="35.040210724">
  <ele>501.104004</ele>
  <time>2011-08-20T05:50:25Z</time>
  <speed>0.650000</speed>
</trkpt>
<trkpt lat="32.733928680" lon="35.040245056">
  <ele>501.682129</ele>
  <time>2011-08-20T05:50:28Z</time>
  <speed>0.380000</speed>
</trkpt>
<trkpt lat="32.733932495" lon="35.040283203">
  <ele>502.432129</ele>
  <time>2011-08-20T05:50:31Z</time>
  <speed>0.890000</speed>
</trkpt>
<trkpt lat="32.733943939" lon="35.040317535">
  <ele>502.861816</ele>
  <time>2011-08-20T05:50:33Z</time>
  <speed>2.300000</speed>
</trkpt>
<trkpt lat="32.733989716" lon="35.040363312">
  <ele>502.869629</ele>
  <time>2011-08-20T05:50:35Z</time>
  <speed>3.330000</speed>
</trkpt>
<trkpt lat="32.734016418" lon="35.040386200">
  <ele>502.932129</ele>
  <time>2011-08-20T05:50:36Z</time>
  <speed>3.670000</speed>
</trkpt>
<trkpt lat="32.734046936" lon="35.040405273">
  <ele>503.033691</ele>
  <time>2011-08-20T05:50:37Z</time>
  <speed>3.510000</speed>
</trkpt>
<trkpt lat="32.734077454" lon="35.040431976">
  <ele>503.424316</ele>
  <time>2011-08-20T05:50:38Z</time>
  <speed>3.750000</speed>
</trkpt>
<trkpt lat="32.734107971" lon="35.040454865">
  <ele>503.330566</ele>
  <time>2011-08-20T05:50:39Z</time>
  <speed>4.340000</speed>
</trkpt>
<trkpt lat="32.734142303" lon="35.040481567">
  <ele>502.955566</ele>
  <time>2011-08-20T05:50:40Z</time>
  <speed>4.570000</speed>
</trkpt>
<trkpt lat="32.734172821" lon="35.040512085">
  <ele>502.213379</ele>
  <time>2011-08-20T05:50:41Z</time>
  <speed>4.760000</speed>
</trkpt>
<trkpt lat="32.734195709" lon="35.040550232">
  <ele>501.275879</ele>
  <time>2011-08-20T05:50:42Z</time>
  <speed>5.110000</speed>
</trkpt>
<trkpt lat="32.734226227" lon="35.040596008">
  <ele>500.486816</ele>
  <time>2011-08-20T05:50:43Z</time>
  <speed>4.890000</speed>
</trkpt>
<trkpt lat="32.734260559" lon="35.040641785">
  <ele>500.174316</ele>
  <time>2011-08-20T05:50:44Z</time>
  <speed>4.970000</speed>
</trkpt>
<trkpt lat="32.734294891" lon="35.040679932">
  <ele>498.635254</ele>
  <time>2011-08-20T05:50:45Z</time>
  <speed>5.300000</speed>
</trkpt>
<trkpt lat="32.734329224" lon="35.040733337">
  <ele>498.369629</ele>
  <time>2011-08-20T05:50:46Z</time>
  <speed>5.480000</speed>
</trkpt>
<trkpt lat="32.734363556" lon="35.040767670">
  <ele>498.025879</ele>
  <time>2011-08-20T05:50:47Z</time>
  <speed>5.120000</speed>
</trkpt>
<trkpt lat="32.734386444" lon="35.040805817">
  <ele>496.814941</ele>
  <time>2011-08-20T05:50:48Z</time>
  <speed>4.260000</speed>
</trkpt>
<trkpt lat="32.734397888" lon="35.040843964">
  <ele>496.174316</ele>
  <time>2011-08-20T05:50:49Z</time>
  <speed>3.350000</speed>
</trkpt>
<trkpt lat="32.734405518" lon="35.040878296">
  <ele>494.908691</ele>
  <time>2011-08-20T05:50:50Z</time>
  <speed>3.690000</speed>
</trkpt>
<trkpt lat="32.734401703" lon="35.040912628">
  <ele>494.174316</ele>
  <time>2011-08-20T05:50:51Z</time>
  <speed>3.050000</speed>
</trkpt>
<trkpt lat="32.734375000" lon="35.040962219">
  <ele>493.424316</ele>
  <time>2011-08-20T05:50:53Z</time>
  <speed>2.520000</speed>
</trkpt>
<trkpt lat="32.734363556" lon="35.041015625">
  <ele>492.432129</ele>
  <time>2011-08-20T05:50:55Z</time>
  <speed>2.130000</speed>
</trkpt>
<trkpt lat="32.734352112" lon="35.041069031">
  <ele>490.541504</ele>
  <time>2011-08-20T05:50:57Z</time>
  <speed>2.720000</speed>
</trkpt>
<trkpt lat="32.734336853" lon="35.041091919">
  <ele>489.471191</ele>
  <time>2011-08-20T05:50:58Z</time>
  <speed>3.060000</speed>
</trkpt>
<trkpt lat="32.734317780" lon="35.041126251">
  <ele>488.518066</ele>
  <time>2011-08-20T05:50:59Z</time>
  <speed>4.070000</speed>
</trkpt>
<trkpt lat="32.734298706" lon="35.041160583">
  <ele>487.596191</ele>
  <time>2011-08-20T05:51:00Z</time>
  <speed>3.630000</speed>
</trkpt>
<trkpt lat="32.734275818" lon="35.041187286">
  <ele>486.775879</ele>
  <time>2011-08-20T05:51:01Z</time>
  <speed>3.700000</speed>
</trkpt>
<trkpt lat="32.734241486" lon="35.041210175">
  <ele>485.713379</ele>
  <time>2011-08-20T05:51:02Z</time>
  <speed>4.220000</speed>
</trkpt>
<trkpt lat="32.734199524" lon="35.041229248">
  <ele>484.361816</ele>
  <time>2011-08-20T05:51:03Z</time>
  <speed>4.460000</speed>
</trkpt>
<trkpt lat="32.734153748" lon="35.041240692">
  <ele>482.846191</ele>
  <time>2011-08-20T05:51:04Z</time>
  <speed>5.080000</speed>
</trkpt>
<trkpt lat="32.734107971" lon="35.041263580">
  <ele>481.775879</ele>
  <time>2011-08-20T05:51:05Z</time>
  <speed>5.340000</speed>
</trkpt>
<trkpt lat="32.734062195" lon="35.041286469">
  <ele>480.885254</ele>
  <time>2011-08-20T05:51:06Z</time>
  <speed>5.560000</speed>
</trkpt>
<trkpt lat="32.734012604" lon="35.041309357">
  <ele>479.979004</ele>
  <time>2011-08-20T05:51:07Z</time>
  <speed>5.920000</speed>
</trkpt>
<trkpt lat="32.733963013" lon="35.041324615">
  <ele>479.229004</ele>
  <time>2011-08-20T05:51:08Z</time>
  <speed>5.220000</speed>
</trkpt>
<trkpt lat="32.733913422" lon="35.041336060">
  <ele>478.268066</ele>
  <time>2011-08-20T05:51:09Z</time>
  <speed>4.830000</speed>
</trkpt>
<trkpt lat="32.733875275" lon="35.041355133">
  <ele>477.924316</ele>
  <time>2011-08-20T05:51:10Z</time>
  <speed>2.980000</speed>
</trkpt>
<trkpt lat="32.733837128" lon="35.041381836">
  <ele>476.861816</ele>
  <time>2011-08-20T05:51:12Z</time>
  <speed>2.600000</speed>
</trkpt>
<trkpt lat="32.733787537" lon="35.041408539">
  <ele>475.354004</ele>
  <time>2011-08-20T05:51:14Z</time>
  <speed>3.770000</speed>
</trkpt>
<trkpt lat="32.733753204" lon="35.041427612">
  <ele>474.814941</ele>
  <time>2011-08-20T05:51:15Z</time>
  <speed>4.400000</speed>
</trkpt>
<trkpt lat="32.733715057" lon="35.041439056">
  <ele>474.119629</ele>
  <time>2011-08-20T05:51:16Z</time>
  <speed>4.360000</speed>
</trkpt>
<trkpt lat="32.733669281" lon="35.041450500">
  <ele>474.400879</ele>
  <time>2011-08-20T05:51:17Z</time>
  <speed>4.940000</speed>
</trkpt>
<trkpt lat="32.733619690" lon="35.041450500">
  <ele>473.994629</ele>
  <time>2011-08-20T05:51:18Z</time>
  <speed>4.760000</speed>
</trkpt>
<trkpt lat="32.733573914" lon="35.041461945">
  <ele>473.314941</ele>
  <time>2011-08-20T05:51:19Z</time>
  <speed>4.550000</speed>
</trkpt>
<trkpt lat="32.733531952" lon="35.041481018">
  <ele>472.111816</ele>
  <time>2011-08-20T05:51:20Z</time>
  <speed>4.260000</speed>
</trkpt>
<trkpt lat="32.733497620" lon="35.041500092">
  <ele>471.182129</ele>
  <time>2011-08-20T05:51:21Z</time>
  <speed>4.640000</speed>
</trkpt>
<trkpt lat="32.733459473" lon="35.041526794">
  <ele>470.252441</ele>
  <time>2011-08-20T05:51:22Z</time>
  <speed>5.120000</speed>
</trkpt>
<trkpt lat="32.733413696" lon="35.041545868">
  <ele>469.400879</ele>
  <time>2011-08-20T05:51:23Z</time>
  <speed>5.440000</speed>
</trkpt>
<trkpt lat="32.733364105" lon="35.041561127">
  <ele>469.018066</ele>
  <time>2011-08-20T05:51:24Z</time>
  <speed>4.960000</speed>
</trkpt>
<trkpt lat="32.733318329" lon="35.041561127">
  <ele>468.432129</ele>
  <time>2011-08-20T05:51:25Z</time>
  <speed>5.130000</speed>
</trkpt>
<trkpt lat="32.733264923" lon="35.041561127">
  <ele>467.846191</ele>
  <time>2011-08-20T05:51:26Z</time>
  <speed>5.790000</speed>
</trkpt>
<trkpt lat="32.733211517" lon="35.041564941">
  <ele>467.010254</ele>
  <time>2011-08-20T05:51:27Z</time>
  <speed>5.290000</speed>
</trkpt>
<trkpt lat="32.733173370" lon="35.041568756">
  <ele>465.854004</ele>
  <time>2011-08-20T05:51:28Z</time>
  <speed>4.200000</speed>
</trkpt>
<trkpt lat="32.733131409" lon="35.041568756">
  <ele>465.096191</ele>
  <time>2011-08-20T05:51:29Z</time>
  <speed>4.720000</speed>
</trkpt>
<trkpt lat="32.733081818" lon="35.041557312">
  <ele>465.650879</ele>
  <time>2011-08-20T05:51:30Z</time>
  <speed>4.920000</speed>
</trkpt>
<trkpt lat="32.733047485" lon="35.041526794">
  <ele>464.658691</ele>
  <time>2011-08-20T05:51:31Z</time>
  <speed>4.530000</speed>
</trkpt>
<trkpt lat="32.733009338" lon="35.041507721">
  <ele>464.025879</ele>
  <time>2011-08-20T05:51:32Z</time>
  <speed>4.430000</speed>
</trkpt>
<trkpt lat="32.732975006" lon="35.041500092">
  <ele>463.275879</ele>
  <time>2011-08-20T05:51:33Z</time>
  <speed>2.800000</speed>
</trkpt>
<trkpt lat="32.732929230" lon="35.041511536">
  <ele>463.096191</ele>
  <time>2011-08-20T05:51:35Z</time>
  <speed>2.320000</speed>
</trkpt>
<trkpt lat="32.732872009" lon="35.041488647">
  <ele>462.971191</ele>
  <time>2011-08-20T05:51:37Z</time>
  <speed>3.600000</speed>
</trkpt>
<trkpt lat="32.732841492" lon="35.041469574">
  <ele>462.557129</ele>
  <time>2011-08-20T05:51:38Z</time>
  <speed>4.580000</speed>
</trkpt>
<trkpt lat="32.732810974" lon="35.041442871">
  <ele>461.783691</ele>
  <time>2011-08-20T05:51:39Z</time>
  <speed>4.740000</speed>
</trkpt>
<trkpt lat="32.732765198" lon="35.041419983">
  <ele>461.752441</ele>
  <time>2011-08-20T05:51:40Z</time>
  <speed>4.240000</speed>
</trkpt>
<trkpt lat="32.732727051" lon="35.041404724">
  <ele>461.838379</ele>
  <time>2011-08-20T05:51:41Z</time>
  <speed>4.320000</speed>
</trkpt>
<trkpt lat="32.732681274" lon="35.041400909">
  <ele>461.432129</ele>
  <time>2011-08-20T05:51:42Z</time>
  <speed>3.850000</speed>
</trkpt>
<trkpt lat="32.732643127" lon="35.041404724">
  <ele>460.533691</ele>
  <time>2011-08-20T05:51:43Z</time>
  <speed>3.790000</speed>
</trkpt>
<trkpt lat="32.732608795" lon="35.041400909">
  <ele>460.174316</ele>
  <time>2011-08-20T05:51:44Z</time>
  <speed>3.480000</speed>
</trkpt>
<trkpt lat="32.732582092" lon="35.041400909">
  <ele>459.361816</ele>
  <time>2011-08-20T05:51:45Z</time>
  <speed>3.060000</speed>
</trkpt>
<trkpt lat="32.732543945" lon="35.041400909">
  <ele>457.775879</ele>
  <time>2011-08-20T05:51:47Z</time>
  <speed>2.130000</speed>
</trkpt>
<trkpt lat="32.732501984" lon="35.041397095">
  <ele>456.814941</ele>
  <time>2011-08-20T05:51:49Z</time>
  <speed>3.190000</speed>
</trkpt>
<trkpt lat="32.732467651" lon="35.041419983">
  <ele>458.150879</ele>
  <time>2011-08-20T05:51:50Z</time>
  <speed>3.350000</speed>
</trkpt>
<trkpt lat="32.732433319" lon="35.041431427">
  <ele>458.330566</ele>
  <time>2011-08-20T05:51:51Z</time>
  <speed>2.660000</speed>
</trkpt>
<trkpt lat="32.732391357" lon="35.041412354">
  <ele>456.885254</ele>
  <time>2011-08-20T05:51:53Z</time>
  <speed>2.710000</speed>
</trkpt>
<trkpt lat="32.732357025" lon="35.041378021">
  <ele>455.416504</ele>
  <time>2011-08-20T05:51:55Z</time>
  <speed>1.770000</speed>
</trkpt>
<trkpt lat="32.732318878" lon="35.041389465">
  <ele>454.385254</ele>
  <time>2011-08-20T05:51:57Z</time>
  <speed>2.590000</speed>
</trkpt>
<trkpt lat="32.732261658" lon="35.041412354">
  <ele>453.275879</ele>
  <time>2011-08-20T05:51:59Z</time>
  <speed>3.650000</speed>
</trkpt>
<trkpt lat="32.732227325" lon="35.041408539">
  <ele>452.924316</ele>
  <time>2011-08-20T05:52:00Z</time>
  <speed>3.520000</speed>
</trkpt>
<trkpt lat="32.732196808" lon="35.041393280">
  <ele>452.674316</ele>
  <time>2011-08-20T05:52:01Z</time>
  <speed>3.480000</speed>
</trkpt>
<trkpt lat="32.732170105" lon="35.041366577">
  <ele>452.197754</ele>
  <time>2011-08-20T05:52:02Z</time>
  <speed>4.250000</speed>
</trkpt>
<trkpt lat="32.732143402" lon="35.041332245">
  <ele>451.877441</ele>
  <time>2011-08-20T05:52:03Z</time>
  <speed>3.920000</speed>
</trkpt>
<trkpt lat="32.732116699" lon="35.041305542">
  <ele>452.221191</ele>
  <time>2011-08-20T05:52:04Z</time>
  <speed>4.480000</speed>
</trkpt>
<trkpt lat="32.732070923" lon="35.041259766">
  <ele>450.486816</ele>
  <time>2011-08-20T05:52:05Z</time>
  <speed>4.780000</speed>
</trkpt>
<trkpt lat="32.732032776" lon="35.041225433">
  <ele>450.104004</ele>
  <time>2011-08-20T05:52:06Z</time>
  <speed>4.420000</speed>
</trkpt>
<trkpt lat="32.731998444" lon="35.041198730">
  <ele>449.518066</ele>
  <time>2011-08-20T05:52:07Z</time>
  <speed>3.940000</speed>
</trkpt>
<trkpt lat="32.731967926" lon="35.041187286">
  <ele>448.947754</ele>
  <time>2011-08-20T05:52:08Z</time>
  <speed>3.530000</speed>
</trkpt>
<trkpt lat="32.731925964" lon="35.041175842">
  <ele>448.611816</ele>
  <time>2011-08-20T05:52:09Z</time>
  <speed>3.590000</speed>
</trkpt>
<trkpt lat="32.731891632" lon="35.041183472">
  <ele>448.275879</ele>
  <time>2011-08-20T05:52:10Z</time>
  <speed>3.820000</speed>
</trkpt>
<trkpt lat="32.731864929" lon="35.041156769">
  <ele>447.166504</ele>
  <time>2011-08-20T05:52:11Z</time>
  <speed>3.730000</speed>
</trkpt>
<trkpt lat="32.731842041" lon="35.041126251">
  <ele>446.424316</ele>
  <time>2011-08-20T05:52:12Z</time>
  <speed>4.210000</speed>
</trkpt>
<trkpt lat="32.731819153" lon="35.041091919">
  <ele>445.721191</ele>
  <time>2011-08-20T05:52:13Z</time>
  <speed>4.380000</speed>
</trkpt>
<trkpt lat="32.731788635" lon="35.041057587">
  <ele>445.346191</ele>
  <time>2011-08-20T05:52:14Z</time>
  <speed>4.640000</speed>
</trkpt>
<trkpt lat="32.731754303" lon="35.041027069">
  <ele>445.463379</ele>
  <time>2011-08-20T05:52:15Z</time>
  <speed>4.820000</speed>
</trkpt>
<trkpt lat="32.731719971" lon="35.040988922">
  <ele>445.447754</ele>
  <time>2011-08-20T05:52:16Z</time>
  <speed>4.730000</speed>
</trkpt>
<trkpt lat="32.731697083" lon="35.040954590">
  <ele>445.143066</ele>
  <time>2011-08-20T05:52:17Z</time>
  <speed>3.940000</speed>
</trkpt>
<trkpt lat="32.731681824" lon="35.040920258">
  <ele>444.744629</ele>
  <time>2011-08-20T05:52:18Z</time>
  <speed>3.450000</speed>
</trkpt>
<trkpt lat="32.731647491" lon="35.040863037">
  <ele>445.627441</ele>
  <time>2011-08-20T05:52:20Z</time>
  <speed>3.420000</speed>
</trkpt>
<trkpt lat="32.731624603" lon="35.040828705">
  <ele>445.502441</ele>
  <time>2011-08-20T05:52:21Z</time>
  <speed>3.590000</speed>
</trkpt>
<trkpt lat="32.731609344" lon="35.040779114">
  <ele>446.080566</ele>
  <time>2011-08-20T05:52:22Z</time>
  <speed>4.190000</speed>
</trkpt>
<trkpt lat="32.731597900" lon="35.040733337">
  <ele>445.877441</ele>
  <time>2011-08-20T05:52:23Z</time>
  <speed>4.850000</speed>
</trkpt>
<trkpt lat="32.731590271" lon="35.040683746">
  <ele>446.666504</ele>
  <time>2011-08-20T05:52:24Z</time>
  <speed>5.160000</speed>
</trkpt>
<trkpt lat="32.731567383" lon="35.040618896">
  <ele>447.010254</ele>
  <time>2011-08-20T05:52:25Z</time>
  <speed>5.720000</speed>
</trkpt>
<trkpt lat="32.731552124" lon="35.040561676">
  <ele>447.158691</ele>
  <time>2011-08-20T05:52:26Z</time>
  <speed>5.900000</speed>
</trkpt>
<trkpt lat="32.731533051" lon="35.040500641">
  <ele>447.049316</ele>
  <time>2011-08-20T05:52:27Z</time>
  <speed>6.320000</speed>
</trkpt>
<trkpt lat="32.731506348" lon="35.040435791">
  <ele>446.979004</ele>
  <time>2011-08-20T05:52:28Z</time>
  <speed>6.520000</speed>
</trkpt>
<trkpt lat="32.731487274" lon="35.040378571">
  <ele>446.854004</ele>
  <time>2011-08-20T05:52:29Z</time>
  <speed>6.160000</speed>
</trkpt>
<trkpt lat="32.731449127" lon="35.040321350">
  <ele>446.885254</ele>
  <time>2011-08-20T05:52:30Z</time>
  <speed>6.280000</speed>
</trkpt>
<trkpt lat="32.731418610" lon="35.040264130">
  <ele>446.861816</ele>
  <time>2011-08-20T05:52:31Z</time>
  <speed>6.200000</speed>
</trkpt>
<trkpt lat="32.731384277" lon="35.040210724">
  <ele>446.643066</ele>
  <time>2011-08-20T05:52:32Z</time>
  <speed>6.230000</speed>
</trkpt>
<trkpt lat="32.731353760" lon="35.040153503">
  <ele>446.377441</ele>
  <time>2011-08-20T05:52:33Z</time>
  <speed>5.890000</speed>
</trkpt>
<trkpt lat="32.731323242" lon="35.040103912">
  <ele>446.088379</ele>
  <time>2011-08-20T05:52:34Z</time>
  <speed>5.690000</speed>
</trkpt>
<trkpt lat="32.731288910" lon="35.040058136">
  <ele>446.025879</ele>
  <time>2011-08-20T05:52:35Z</time>
  <speed>5.470000</speed>
</trkpt>
<trkpt lat="32.731258392" lon="35.040016174">
  <ele>445.885254</ele>
  <time>2011-08-20T05:52:36Z</time>
  <speed>5.420000</speed>
</trkpt>
<trkpt lat="32.731224060" lon="35.039974213">
  <ele>445.619629</ele>
  <time>2011-08-20T05:52:37Z</time>
  <speed>5.370000</speed>
</trkpt>
<trkpt lat="32.731189728" lon="35.039924622">
  <ele>445.471191</ele>
  <time>2011-08-20T05:52:38Z</time>
  <speed>5.300000</speed>
</trkpt>
<trkpt lat="32.731155396" lon="35.039886475">
  <ele>445.143066</ele>
  <time>2011-08-20T05:52:39Z</time>
  <speed>4.970000</speed>
</trkpt>
<trkpt lat="32.731128693" lon="35.039844513">
  <ele>444.838379</ele>
  <time>2011-08-20T05:52:40Z</time>
  <speed>4.870000</speed>
</trkpt>
<trkpt lat="32.731101990" lon="35.039806366">
  <ele>444.455566</ele>
  <time>2011-08-20T05:52:41Z</time>
  <speed>4.710000</speed>
</trkpt>
<trkpt lat="32.731075287" lon="35.039764404">
  <ele>443.947754</ele>
  <time>2011-08-20T05:52:42Z</time>
  <speed>4.810000</speed>
</trkpt>
<trkpt lat="32.731033325" lon="35.039749146">
  <ele>443.502441</ele>
  <time>2011-08-20T05:52:43Z</time>
  <speed>4.590000</speed>
</trkpt>
<trkpt lat="32.730983734" lon="35.039749146">
  <ele>443.486816</ele>
  <time>2011-08-20T05:52:44Z</time>
  <speed>4.390000</speed>
</trkpt>
<trkpt lat="32.730964661" lon="35.039714813">
  <ele>443.088379</ele>
  <time>2011-08-20T05:52:45Z</time>
  <speed>3.510000</speed>
</trkpt>
<trkpt lat="32.730937958" lon="35.039661407">
  <ele>442.424316</ele>
  <time>2011-08-20T05:52:47Z</time>
  <speed>2.780000</speed>
</trkpt>
<trkpt lat="32.730911255" lon="35.039642334">
  <ele>442.041504</ele>
  <time>2011-08-20T05:52:48Z</time>
  <speed>2.290000</speed>
</trkpt>
<trkpt lat="32.730873108" lon="35.039634705">
  <ele>441.088379</ele>
  <time>2011-08-20T05:52:50Z</time>
  <speed>1.840000</speed>
</trkpt>
<trkpt lat="32.730850220" lon="35.039585114">
  <ele>439.939941</ele>
  <time>2011-08-20T05:52:52Z</time>
  <speed>2.790000</speed>
</trkpt>
<trkpt lat="32.730838776" lon="35.039524078">
  <ele>439.033691</ele>
  <time>2011-08-20T05:52:54Z</time>
  <speed>3.310000</speed>
</trkpt>
<trkpt lat="32.730823517" lon="35.039489746">
  <ele>438.619629</ele>
  <time>2011-08-20T05:52:55Z</time>
  <speed>2.980000</speed>
</trkpt>
<trkpt lat="32.730773926" lon="35.039470673">
  <ele>438.025879</ele>
  <time>2011-08-20T05:52:57Z</time>
  <speed>2.160000</speed>
</trkpt>
<trkpt lat="32.730735779" lon="35.039463043">
  <ele>437.010254</ele>
  <time>2011-08-20T05:52:59Z</time>
  <speed>1.890000</speed>
</trkpt>
<trkpt lat="32.730705261" lon="35.039459229">
  <ele>435.580566</ele>
  <time>2011-08-20T05:53:01Z</time>
  <speed>1.120000</speed>
</trkpt>
<trkpt lat="32.730674744" lon="35.039447784">
  <ele>434.377441</ele>
  <time>2011-08-20T05:53:04Z</time>
  <speed>1.080000</speed>
</trkpt>
<trkpt lat="32.730636597" lon="35.039474487">
  <ele>434.596191</ele>
  <time>2011-08-20T05:53:06Z</time>
  <speed>1.700000</speed>
</trkpt>
<trkpt lat="32.730609894" lon="35.039451599">
  <ele>434.080566</ele>
  <time>2011-08-20T05:53:08Z</time>
  <speed>1.550000</speed>
</trkpt>
<trkpt lat="32.730587006" lon="35.039417267">
  <ele>433.330566</ele>
  <time>2011-08-20T05:53:10Z</time>
  <speed>1.710000</speed>
</trkpt>
<trkpt lat="32.730545044" lon="35.039382935">
  <ele>432.744629</ele>
  <time>2011-08-20T05:53:12Z</time>
  <speed>2.060000</speed>
</trkpt>
<trkpt lat="32.730529785" lon="35.039333344">
  <ele>432.189941</ele>
  <time>2011-08-20T05:53:14Z</time>
  <speed>1.860000</speed>
</trkpt>
<trkpt lat="32.730548859" lon="35.039299011">
  <ele>432.166504</ele>
  <time>2011-08-20T05:53:15Z</time>
  <speed>2.760000</speed>
</trkpt>
<trkpt lat="32.730564117" lon="35.039253235">
  <ele>431.518066</ele>
  <time>2011-08-20T05:53:17Z</time>
  <speed>1.870000</speed>
</trkpt>
<trkpt lat="32.730548859" lon="35.039215088">
  <ele>430.424316</ele>
  <time>2011-08-20T05:53:19Z</time>
  <speed>1.890000</speed>
</trkpt>
<trkpt lat="32.730525970" lon="35.039173126">
  <ele>429.721191</ele>
  <time>2011-08-20T05:53:21Z</time>
  <speed>2.310000</speed>
</trkpt>
<trkpt lat="32.730514526" lon="35.039142609">
  <ele>429.408691</ele>
  <time>2011-08-20T05:53:22Z</time>
  <speed>2.380000</speed>
</trkpt>
<trkpt lat="32.730495453" lon="35.039115906">
  <ele>429.033691</ele>
  <time>2011-08-20T05:53:23Z</time>
  <speed>3.070000</speed>
</trkpt>
<trkpt lat="32.730464935" lon="35.039089203">
  <ele>428.510254</ele>
  <time>2011-08-20T05:53:24Z</time>
  <speed>3.470000</speed>
</trkpt>
<trkpt lat="32.730426788" lon="35.039081573">
  <ele>428.018066</ele>
  <time>2011-08-20T05:53:25Z</time>
  <speed>3.930000</speed>
</trkpt>
<trkpt lat="32.730392456" lon="35.039073944">
  <ele>427.596191</ele>
  <time>2011-08-20T05:53:26Z</time>
  <speed>4.240000</speed>
</trkpt>
<trkpt lat="32.730354309" lon="35.039043427">
  <ele>427.814941</ele>
  <time>2011-08-20T05:53:27Z</time>
  <speed>3.530000</speed>
</trkpt>
<trkpt lat="32.730331421" lon="35.039016724">
  <ele>427.854004</ele>
  <time>2011-08-20T05:53:28Z</time>
  <speed>2.610000</speed>
</trkpt>
<trkpt lat="32.730304718" lon="35.038974762">
  <ele>427.283691</ele>
  <time>2011-08-20T05:53:30Z</time>
  <speed>2.290000</speed>
</trkpt>
<trkpt lat="32.730289459" lon="35.038921356">
  <ele>426.580566</ele>
  <time>2011-08-20T05:53:32Z</time>
  <speed>2.860000</speed>
</trkpt>
<trkpt lat="32.730278015" lon="35.038890839">
  <ele>426.104004</ele>
  <time>2011-08-20T05:53:33Z</time>
  <speed>3.280000</speed>
</trkpt>
<trkpt lat="32.730251312" lon="35.038833618">
  <ele>425.697754</ele>
  <time>2011-08-20T05:53:35Z</time>
  <speed>3.290000</speed>
</trkpt>
<trkpt lat="32.730232239" lon="35.038803101">
  <ele>425.150879</ele>
  <time>2011-08-20T05:53:36Z</time>
  <speed>4.080000</speed>
</trkpt>
<trkpt lat="32.730209351" lon="35.038761139">
  <ele>424.791504</ele>
  <time>2011-08-20T05:53:37Z</time>
  <speed>4.340000</speed>
</trkpt>
<trkpt lat="32.730182648" lon="35.038726807">
  <ele>424.291504</ele>
  <time>2011-08-20T05:53:38Z</time>
  <speed>4.220000</speed>
</trkpt>
<trkpt lat="32.730152130" lon="35.038688660">
  <ele>424.002441</ele>
  <time>2011-08-20T05:53:39Z</time>
  <speed>4.650000</speed>
</trkpt>
<trkpt lat="32.730125427" lon="35.038654327">
  <ele>423.799316</ele>
  <time>2011-08-20T05:53:40Z</time>
  <speed>4.670000</speed>
</trkpt>
<trkpt lat="32.730094910" lon="35.038604736">
  <ele>423.611816</ele>
  <time>2011-08-20T05:53:41Z</time>
  <speed>4.700000</speed>
</trkpt>
<trkpt lat="32.730060577" lon="35.038558960">
  <ele>423.408691</ele>
  <time>2011-08-20T05:53:42Z</time>
  <speed>4.850000</speed>
</trkpt>
<trkpt lat="32.730014801" lon="35.038516998">
  <ele>423.393066</ele>
  <time>2011-08-20T05:53:43Z</time>
  <speed>4.500000</speed>
</trkpt>
<trkpt lat="32.729972839" lon="35.038490295">
  <ele>423.229004</ele>
  <time>2011-08-20T05:53:44Z</time>
  <speed>4.540000</speed>
</trkpt>
<trkpt lat="32.729934692" lon="35.038463593">
  <ele>422.432129</ele>
  <time>2011-08-20T05:53:45Z</time>
  <speed>4.430000</speed>
</trkpt>
<trkpt lat="32.729900360" lon="35.038436890">
  <ele>421.752441</ele>
  <time>2011-08-20T05:53:46Z</time>
  <speed>4.680000</speed>
</trkpt>
<trkpt lat="32.729866028" lon="35.038398743">
  <ele>421.002441</ele>
  <time>2011-08-20T05:53:47Z</time>
  <speed>5.120000</speed>
</trkpt>
<trkpt lat="32.729827881" lon="35.038356781">
  <ele>419.596191</ele>
  <time>2011-08-20T05:53:48Z</time>
  <speed>5.760000</speed>
</trkpt>
<trkpt lat="32.729789734" lon="35.038311005">
  <ele>418.705566</ele>
  <time>2011-08-20T05:53:49Z</time>
  <speed>5.880000</speed>
</trkpt>
<trkpt lat="32.729755402" lon="35.038257599">
  <ele>417.955566</ele>
  <time>2011-08-20T05:53:50Z</time>
  <speed>5.770000</speed>
</trkpt>
<trkpt lat="32.729713440" lon="35.038204193">
  <ele>417.135254</ele>
  <time>2011-08-20T05:53:51Z</time>
  <speed>6.770000</speed>
</trkpt>
<trkpt lat="32.729675293" lon="35.038146973">
  <ele>416.424316</ele>
  <time>2011-08-20T05:53:52Z</time>
  <speed>6.320000</speed>
</trkpt>
<trkpt lat="32.729633331" lon="35.038097382">
  <ele>415.057129</ele>
  <time>2011-08-20T05:53:53Z</time>
  <speed>6.010000</speed>
</trkpt>
<trkpt lat="32.729602814" lon="35.038043976">
  <ele>414.127441</ele>
  <time>2011-08-20T05:53:54Z</time>
  <speed>5.950000</speed>
</trkpt>
<trkpt lat="32.729564667" lon="35.037990570">
  <ele>413.275879</ele>
  <time>2011-08-20T05:53:55Z</time>
  <speed>6.200000</speed>
</trkpt>
<trkpt lat="32.729526520" lon="35.037940979">
  <ele>412.658691</ele>
  <time>2011-08-20T05:53:56Z</time>
  <speed>6.560000</speed>
</trkpt>
<trkpt lat="32.729480743" lon="35.037899017">
  <ele>411.939941</ele>
  <time>2011-08-20T05:53:57Z</time>
  <speed>6.760000</speed>
</trkpt>
<trkpt lat="32.729431152" lon="35.037853241">
  <ele>412.010254</ele>
  <time>2011-08-20T05:53:58Z</time>
  <speed>4.230000</speed>
</trkpt>
<trkpt lat="32.729400635" lon="35.037830353">
  <ele>411.408691</ele>
  <time>2011-08-20T05:53:59Z</time>
  <speed>3.710000</speed>
</trkpt>
<trkpt lat="32.729373932" lon="35.037807465">
  <ele>410.721191</ele>
  <time>2011-08-20T05:54:00Z</time>
  <speed>4.000000</speed>
</trkpt>
<trkpt lat="32.729331970" lon="35.037788391">
  <ele>410.822754</ele>
  <time>2011-08-20T05:54:01Z</time>
  <speed>4.410000</speed>
</trkpt>
<trkpt lat="32.729293823" lon="35.037765503">
  <ele>410.400879</ele>
  <time>2011-08-20T05:54:02Z</time>
  <speed>4.330000</speed>
</trkpt>
<trkpt lat="32.729259491" lon="35.037746429">
  <ele>409.760254</ele>
  <time>2011-08-20T05:54:03Z</time>
  <speed>4.010000</speed>
</trkpt>
<trkpt lat="32.729232788" lon="35.037731171">
  <ele>409.143066</ele>
  <time>2011-08-20T05:54:04Z</time>
  <speed>2.720000</speed>
</trkpt>
<trkpt lat="32.729209900" lon="35.037700653">
  <ele>407.385254</ele>
  <time>2011-08-20T05:54:06Z</time>
  <speed>2.500000</speed>
</trkpt>
<trkpt lat="32.729164124" lon="35.037662506">
  <ele>405.932129</ele>
  <time>2011-08-20T05:54:08Z</time>
  <speed>4.170000</speed>
</trkpt>
<trkpt lat="32.729129791" lon="35.037643433">
  <ele>405.002441</ele>
  <time>2011-08-20T05:54:09Z</time>
  <speed>4.640000</speed>
</trkpt>
<trkpt lat="32.729076385" lon="35.037616730">
  <ele>404.799316</ele>
  <time>2011-08-20T05:54:10Z</time>
  <speed>5.410000</speed>
</trkpt>
<trkpt lat="32.729026794" lon="35.037586212">
  <ele>404.338379</ele>
  <time>2011-08-20T05:54:11Z</time>
  <speed>5.590000</speed>
</trkpt>
<trkpt lat="32.728965759" lon="35.037574768">
  <ele>403.057129</ele>
  <time>2011-08-20T05:54:12Z</time>
  <speed>6.480000</speed>
</trkpt>
<trkpt lat="32.728916168" lon="35.037548065">
  <ele>401.979004</ele>
  <time>2011-08-20T05:54:13Z</time>
  <speed>5.970000</speed>
</trkpt>
<trkpt lat="32.728851318" lon="35.037517548">
  <ele>401.252441</ele>
  <time>2011-08-20T05:54:14Z</time>
  <speed>5.880000</speed>
</trkpt>
<trkpt lat="32.728797913" lon="35.037494659">
  <ele>401.291504</ele>
  <time>2011-08-20T05:54:15Z</time>
  <speed>5.050000</speed>
</trkpt>
<trkpt lat="32.728748322" lon="35.037487030">
  <ele>401.221191</ele>
  <time>2011-08-20T05:54:16Z</time>
  <speed>4.680000</speed>
</trkpt>
<trkpt lat="32.728710175" lon="35.037475586">
  <ele>400.627441</ele>
  <time>2011-08-20T05:54:17Z</time>
  <speed>4.260000</speed>
</trkpt>
<trkpt lat="32.728668213" lon="35.037464142">
  <ele>400.260254</ele>
  <time>2011-08-20T05:54:18Z</time>
  <speed>3.950000</speed>
</trkpt>
<trkpt lat="32.728630066" lon="35.037464142">
  <ele>400.791504</ele>
  <time>2011-08-20T05:54:19Z</time>
  <speed>3.550000</speed>
</trkpt>
<trkpt lat="32.728599548" lon="35.037448883">
  <ele>400.502441</ele>
  <time>2011-08-20T05:54:20Z</time>
  <speed>3.370000</speed>
</trkpt>
<trkpt lat="32.728580475" lon="35.037429810">
  <ele>399.471191</ele>
  <time>2011-08-20T05:54:21Z</time>
  <speed>3.400000</speed>
</trkpt>
<trkpt lat="32.728549957" lon="35.037403107">
  <ele>398.791504</ele>
  <time>2011-08-20T05:54:22Z</time>
  <speed>4.260000</speed>
</trkpt>
<trkpt lat="32.728519440" lon="35.037395477">
  <ele>398.010254</ele>
  <time>2011-08-20T05:54:23Z</time>
  <speed>4.280000</speed>
</trkpt>
<trkpt lat="32.728481293" lon="35.037368774">
  <ele>397.400879</ele>
  <time>2011-08-20T05:54:24Z</time>
  <speed>4.920000</speed>
</trkpt>
<trkpt lat="32.728439331" lon="35.037345886">
  <ele>396.986816</ele>
  <time>2011-08-20T05:54:25Z</time>
  <speed>5.430000</speed>
</trkpt>
<trkpt lat="32.728389740" lon="35.037326813">
  <ele>396.111816</ele>
  <time>2011-08-20T05:54:26Z</time>
  <speed>6.150000</speed>
</trkpt>
<trkpt lat="32.728336334" lon="35.037303925">
  <ele>395.916504</ele>
  <time>2011-08-20T05:54:27Z</time>
  <speed>5.980000</speed>
</trkpt>
<trkpt lat="32.728290558" lon="35.037273407">
  <ele>395.432129</ele>
  <time>2011-08-20T05:54:28Z</time>
  <speed>5.750000</speed>
</trkpt>
<trkpt lat="32.728244781" lon="35.037235260">
  <ele>394.791504</ele>
  <time>2011-08-20T05:54:29Z</time>
  <speed>6.110000</speed>
</trkpt>
<trkpt lat="32.728191376" lon="35.037216187">
  <ele>394.166504</ele>
  <time>2011-08-20T05:54:30Z</time>
  <speed>6.710000</speed>
</trkpt>
<trkpt lat="32.728122711" lon="35.037204742">
  <ele>393.760254</ele>
  <time>2011-08-20T05:54:31Z</time>
  <speed>6.480000</speed>
</trkpt>
<trkpt lat="32.728069305" lon="35.037189484">
  <ele>393.197754</ele>
  <time>2011-08-20T05:54:32Z</time>
  <speed>6.190000</speed>
</trkpt>
<trkpt lat="32.728019714" lon="35.037162781">
  <ele>392.229004</ele>
  <time>2011-08-20T05:54:33Z</time>
  <speed>5.480000</speed>
</trkpt>
<trkpt lat="32.727989197" lon="35.037120819">
  <ele>391.682129</ele>
  <time>2011-08-20T05:54:34Z</time>
  <speed>5.020000</speed>
</trkpt>
<trkpt lat="32.727958679" lon="35.037078857">
  <ele>391.166504</ele>
  <time>2011-08-20T05:54:35Z</time>
  <speed>5.300000</speed>
</trkpt>
<trkpt lat="32.727931976" lon="35.037036896">
  <ele>390.479004</ele>
  <time>2011-08-20T05:54:36Z</time>
  <speed>5.260000</speed>
</trkpt>
<trkpt lat="32.727886200" lon="35.037002563">
  <ele>389.908691</ele>
  <time>2011-08-20T05:54:37Z</time>
  <speed>5.490000</speed>
</trkpt>
<trkpt lat="32.727832794" lon="35.036972046">
  <ele>390.713379</ele>
  <time>2011-08-20T05:54:38Z</time>
  <speed>6.120000</speed>
</trkpt>
<trkpt lat="32.727771759" lon="35.036945343">
  <ele>391.119629</ele>
  <time>2011-08-20T05:54:39Z</time>
  <speed>6.450000</speed>
</trkpt>
<trkpt lat="32.727722168" lon="35.036926270">
  <ele>390.439941</ele>
  <time>2011-08-20T05:54:40Z</time>
  <speed>6.060000</speed>
</trkpt>
<trkpt lat="32.727661133" lon="35.036907196">
  <ele>390.463379</ele>
  <time>2011-08-20T05:54:41Z</time>
  <speed>6.230000</speed>
</trkpt>
<trkpt lat="32.727603912" lon="35.036884308">
  <ele>390.893066</ele>
  <time>2011-08-20T05:54:42Z</time>
  <speed>6.110000</speed>
</trkpt>
<trkpt lat="32.727554321" lon="35.036857605">
  <ele>390.643066</ele>
  <time>2011-08-20T05:54:43Z</time>
  <speed>5.750000</speed>
</trkpt>
<trkpt lat="32.727500916" lon="35.036846161">
  <ele>390.939941</ele>
  <time>2011-08-20T05:54:44Z</time>
  <speed>5.740000</speed>
</trkpt>
<trkpt lat="32.727451324" lon="35.036838531">
  <ele>390.963379</ele>
  <time>2011-08-20T05:54:45Z</time>
  <speed>5.450000</speed>
</trkpt>
<trkpt lat="32.727401733" lon="35.036823273">
  <ele>391.338379</ele>
  <time>2011-08-20T05:54:46Z</time>
  <speed>5.660000</speed>
</trkpt>
<trkpt lat="32.727352142" lon="35.036800385">
  <ele>392.697754</ele>
  <time>2011-08-20T05:54:47Z</time>
  <speed>5.490000</speed>
</trkpt>
<trkpt lat="32.727313995" lon="35.036766052">
  <ele>393.018066</ele>
  <time>2011-08-20T05:54:48Z</time>
  <speed>5.220000</speed>
</trkpt>
<trkpt lat="32.727279663" lon="35.036746979">
  <ele>393.908691</ele>
  <time>2011-08-20T05:54:49Z</time>
  <speed>4.340000</speed>
</trkpt>
<trkpt lat="32.727252960" lon="35.036712646">
  <ele>394.338379</ele>
  <time>2011-08-20T05:54:50Z</time>
  <speed>3.910000</speed>
</trkpt>
<trkpt lat="32.727230072" lon="35.036685944">
  <ele>394.549316</ele>
  <time>2011-08-20T05:54:51Z</time>
  <speed>3.150000</speed>
</trkpt>
<trkpt lat="32.727210999" lon="35.036651611">
  <ele>394.213379</ele>
  <time>2011-08-20T05:54:52Z</time>
  <speed>3.450000</speed>
</trkpt>
<trkpt lat="32.727180481" lon="35.036594391">
  <ele>392.674316</ele>
  <time>2011-08-20T05:54:54Z</time>
  <speed>3.800000</speed>
</trkpt>
<trkpt lat="32.727161407" lon="35.036563873">
  <ele>392.346191</ele>
  <time>2011-08-20T05:54:55Z</time>
  <speed>3.880000</speed>
</trkpt>
<trkpt lat="32.727127075" lon="35.036533356">
  <ele>392.736816</ele>
  <time>2011-08-20T05:54:56Z</time>
  <speed>4.150000</speed>
</trkpt>
<trkpt lat="32.727096558" lon="35.036510468">
  <ele>392.775879</ele>
  <time>2011-08-20T05:54:57Z</time>
  <speed>4.360000</speed>
</trkpt>
<trkpt lat="32.727058411" lon="35.036491394">
  <ele>392.518066</ele>
  <time>2011-08-20T05:54:58Z</time>
  <speed>4.940000</speed>
</trkpt>
<trkpt lat="32.727016449" lon="35.036479950">
  <ele>391.057129</ele>
  <time>2011-08-20T05:54:59Z</time>
  <speed>5.090000</speed>
</trkpt>
<trkpt lat="32.726959229" lon="35.036479950">
  <ele>391.135254</ele>
  <time>2011-08-20T05:55:00Z</time>
  <speed>5.550000</speed>
</trkpt>
<trkpt lat="32.726909637" lon="35.036472321">
  <ele>391.064941</ele>
  <time>2011-08-20T05:55:01Z</time>
  <speed>5.460000</speed>
</trkpt>
<trkpt lat="32.726863861" lon="35.036460876">
  <ele>390.580566</ele>
  <time>2011-08-20T05:55:02Z</time>
  <speed>5.280000</speed>
</trkpt>
<trkpt lat="32.726818085" lon="35.036445618">
  <ele>390.143066</ele>
  <time>2011-08-20T05:55:03Z</time>
  <speed>5.680000</speed>
</trkpt>
<trkpt lat="32.726760864" lon="35.036430359">
  <ele>389.900879</ele>
  <time>2011-08-20T05:55:04Z</time>
  <speed>5.880000</speed>
</trkpt>
<trkpt lat="32.726711273" lon="35.036426544">
  <ele>388.955566</ele>
  <time>2011-08-20T05:55:05Z</time>
  <speed>5.660000</speed>
</trkpt>
<trkpt lat="32.726650238" lon="35.036422729">
  <ele>388.666504</ele>
  <time>2011-08-20T05:55:06Z</time>
  <speed>5.670000</speed>
</trkpt>
<trkpt lat="32.726596832" lon="35.036415100">
  <ele>387.955566</ele>
  <time>2011-08-20T05:55:07Z</time>
  <speed>5.630000</speed>
</trkpt>
<trkpt lat="32.726551056" lon="35.036399841">
  <ele>386.658691</ele>
  <time>2011-08-20T05:55:08Z</time>
  <speed>5.420000</speed>
</trkpt>
<trkpt lat="32.726505280" lon="35.036388397">
  <ele>385.299316</ele>
  <time>2011-08-20T05:55:09Z</time>
  <speed>4.870000</speed>
</trkpt>
<trkpt lat="32.726474762" lon="35.036365509">
  <ele>384.627441</ele>
  <time>2011-08-20T05:55:10Z</time>
  <speed>3.570000</speed>
</trkpt>
<trkpt lat="32.726448059" lon="35.036350250">
  <ele>384.197754</ele>
  <time>2011-08-20T05:55:11Z</time>
  <speed>3.360000</speed>
</trkpt>
<trkpt lat="32.726421356" lon="35.036334991">
  <ele>383.893066</ele>
  <time>2011-08-20T05:55:12Z</time>
  <speed>2.880000</speed>
</trkpt>
<trkpt lat="32.726375580" lon="35.036312103">
  <ele>383.088379</ele>
  <time>2011-08-20T05:55:14Z</time>
  <speed>2.470000</speed>
</trkpt>
<trkpt lat="32.726333618" lon="35.036289215">
  <ele>382.588379</ele>
  <time>2011-08-20T05:55:16Z</time>
  <speed>2.790000</speed>
</trkpt>
<trkpt lat="32.726303101" lon="35.036243439">
  <ele>381.838379</ele>
  <time>2011-08-20T05:55:18Z</time>
  <speed>3.130000</speed>
</trkpt>
<trkpt lat="32.726287842" lon="35.036205292">
  <ele>381.541504</ele>
  <time>2011-08-20T05:55:19Z</time>
  <speed>4.090000</speed>
</trkpt>
<trkpt lat="32.726276398" lon="35.036159515">
  <ele>380.979004</ele>
  <time>2011-08-20T05:55:20Z</time>
  <speed>4.050000</speed>
</trkpt>
<trkpt lat="32.726253510" lon="35.036128998">
  <ele>380.760254</ele>
  <time>2011-08-20T05:55:21Z</time>
  <speed>3.460000</speed>
</trkpt>
<trkpt lat="32.726234436" lon="35.036098480">
  <ele>380.283691</ele>
  <time>2011-08-20T05:55:22Z</time>
  <speed>3.740000</speed>
</trkpt>
<trkpt lat="32.726211548" lon="35.036064148">
  <ele>378.877441</ele>
  <time>2011-08-20T05:55:23Z</time>
  <speed>3.850000</speed>
</trkpt>
<trkpt lat="32.726169586" lon="35.036037445">
  <ele>378.799316</ele>
  <time>2011-08-20T05:55:24Z</time>
  <speed>3.950000</speed>
</trkpt>
<trkpt lat="32.726150513" lon="35.036006927">
  <ele>378.088379</ele>
  <time>2011-08-20T05:55:25Z</time>
  <speed>3.540000</speed>
</trkpt>
<trkpt lat="32.726135254" lon="35.035972595">
  <ele>377.619629</ele>
  <time>2011-08-20T05:55:26Z</time>
  <speed>3.320000</speed>
</trkpt>
<trkpt lat="32.726097107" lon="35.035919189">
  <ele>376.580566</ele>
  <time>2011-08-20T05:55:28Z</time>
  <speed>3.400000</speed>
</trkpt>
<trkpt lat="32.726081848" lon="35.035877228">
  <ele>376.025879</ele>
  <time>2011-08-20T05:55:29Z</time>
  <speed>3.030000</speed>
</trkpt>
<trkpt lat="32.726066589" lon="35.035850525">
  <ele>375.189941</ele>
  <time>2011-08-20T05:55:30Z</time>
  <speed>2.950000</speed>
</trkpt>
<trkpt lat="32.726051331" lon="35.035823822">
  <ele>374.807129</ele>
  <time>2011-08-20T05:55:31Z</time>
  <speed>3.170000</speed>
</trkpt>
<trkpt lat="32.726024628" lon="35.035789490">
  <ele>373.213379</ele>
  <time>2011-08-20T05:55:32Z</time>
  <speed>4.380000</speed>
</trkpt>
<trkpt lat="32.725997925" lon="35.035758972">
  <ele>372.510254</ele>
  <time>2011-08-20T05:55:33Z</time>
  <speed>4.260000</speed>
</trkpt>
<trkpt lat="32.725978851" lon="35.035724640">
  <ele>371.580566</ele>
  <time>2011-08-20T05:55:34Z</time>
  <speed>4.830000</speed>
</trkpt>
<trkpt lat="32.725952148" lon="35.035682678">
  <ele>371.400879</ele>
  <time>2011-08-20T05:55:35Z</time>
  <speed>4.480000</speed>
</trkpt>
<trkpt lat="32.725936890" lon="35.035652161">
  <ele>370.479004</ele>
  <time>2011-08-20T05:55:36Z</time>
  <speed>4.170000</speed>
</trkpt>
<trkpt lat="32.725917816" lon="35.035614014">
  <ele>369.979004</ele>
  <time>2011-08-20T05:55:37Z</time>
  <speed>3.440000</speed>
</trkpt>
<trkpt lat="32.725902557" lon="35.035579681">
  <ele>369.322754</ele>
  <time>2011-08-20T05:55:38Z</time>
  <speed>2.930000</speed>
</trkpt>
<trkpt lat="32.725872040" lon="35.035552979">
  <ele>367.736816</ele>
  <time>2011-08-20T05:55:40Z</time>
  <speed>2.140000</speed>
</trkpt>
<trkpt lat="32.725830078" lon="35.035533905">
  <ele>365.650879</ele>
  <time>2011-08-20T05:55:42Z</time>
  <speed>2.660000</speed>
</trkpt>
<trkpt lat="32.725788116" lon="35.035503387">
  <ele>364.768066</ele>
  <time>2011-08-20T05:55:44Z</time>
  <speed>2.410000</speed>
</trkpt>
<trkpt lat="32.725753784" lon="35.035469055">
  <ele>364.205566</ele>
  <time>2011-08-20T05:55:46Z</time>
  <speed>2.100000</speed>
</trkpt>
<trkpt lat="32.725723267" lon="35.035449982">
  <ele>362.979004</ele>
  <time>2011-08-20T05:55:48Z</time>
  <speed>2.190000</speed>
</trkpt>
<trkpt lat="32.725673676" lon="35.035461426">
  <ele>362.307129</ele>
  <time>2011-08-20T05:55:50Z</time>
  <speed>3.260000</speed>
</trkpt>
<trkpt lat="32.725643158" lon="35.035457611">
  <ele>362.338379</ele>
  <time>2011-08-20T05:55:51Z</time>
  <speed>2.850000</speed>
</trkpt>
<trkpt lat="32.725597382" lon="35.035438538">
  <ele>361.182129</ele>
  <time>2011-08-20T05:55:53Z</time>
  <speed>3.340000</speed>
</trkpt>
<trkpt lat="32.725563049" lon="35.035408020">
  <ele>360.814941</ele>
  <time>2011-08-20T05:55:54Z</time>
  <speed>4.670000</speed>
</trkpt>
<trkpt lat="32.725532532" lon="35.035366058">
  <ele>360.064941</ele>
  <time>2011-08-20T05:55:55Z</time>
  <speed>4.970000</speed>
</trkpt>
<trkpt lat="32.725502014" lon="35.035324097">
  <ele>359.604004</ele>
  <time>2011-08-20T05:55:56Z</time>
  <speed>5.260000</speed>
</trkpt>
<trkpt lat="32.725479126" lon="35.035274506">
  <ele>359.455566</ele>
  <time>2011-08-20T05:55:57Z</time>
  <speed>5.200000</speed>
</trkpt>
<trkpt lat="32.725456238" lon="35.035224915">
  <ele>358.666504</ele>
  <time>2011-08-20T05:55:58Z</time>
  <speed>4.710000</speed>
</trkpt>
<trkpt lat="32.725440979" lon="35.035179138">
  <ele>358.182129</ele>
  <time>2011-08-20T05:55:59Z</time>
  <speed>4.330000</speed>
</trkpt>
<trkpt lat="32.725421906" lon="35.035137177">
  <ele>358.088379</ele>
  <time>2011-08-20T05:56:00Z</time>
  <speed>3.870000</speed>
</trkpt>
<trkpt lat="32.725402832" lon="35.035095215">
  <ele>357.580566</ele>
  <time>2011-08-20T05:56:01Z</time>
  <speed>3.910000</speed>
</trkpt>
<trkpt lat="32.725391388" lon="35.035053253">
  <ele>357.541504</ele>
  <time>2011-08-20T05:56:02Z</time>
  <speed>4.060000</speed>
</trkpt>
<trkpt lat="32.725372314" lon="35.035011292">
  <ele>357.213379</ele>
  <time>2011-08-20T05:56:03Z</time>
  <speed>4.420000</speed>
</trkpt>
<trkpt lat="32.725360870" lon="35.034969330">
  <ele>357.213379</ele>
  <time>2011-08-20T05:56:04Z</time>
  <speed>4.850000</speed>
</trkpt>
<trkpt lat="32.725341797" lon="35.034923553">
  <ele>357.604004</ele>
  <time>2011-08-20T05:56:05Z</time>
  <speed>4.940000</speed>
</trkpt>
<trkpt lat="32.725326538" lon="35.034873962">
  <ele>357.752441</ele>
  <time>2011-08-20T05:56:06Z</time>
  <speed>4.140000</speed>
</trkpt>
<trkpt lat="32.725311279" lon="35.034835815">
  <ele>357.439941</ele>
  <time>2011-08-20T05:56:07Z</time>
  <speed>3.690000</speed>
</trkpt>
<trkpt lat="32.725288391" lon="35.034797668">
  <ele>357.400879</ele>
  <time>2011-08-20T05:56:08Z</time>
  <speed>3.480000</speed>
</trkpt>
<trkpt lat="32.725254059" lon="35.034774780">
  <ele>357.416504</ele>
  <time>2011-08-20T05:56:09Z</time>
  <speed>3.870000</speed>
</trkpt>
<trkpt lat="32.725227356" lon="35.034748077">
  <ele>356.885254</ele>
  <time>2011-08-20T05:56:10Z</time>
  <speed>4.050000</speed>
</trkpt>
<trkpt lat="32.725189209" lon="35.034717560">
  <ele>357.338379</ele>
  <time>2011-08-20T05:56:11Z</time>
  <speed>4.710000</speed>
</trkpt>
<trkpt lat="32.725147247" lon="35.034690857">
  <ele>357.416504</ele>
  <time>2011-08-20T05:56:12Z</time>
  <speed>5.180000</speed>
</trkpt>
<trkpt lat="32.725112915" lon="35.034656525">
  <ele>356.564941</ele>
  <time>2011-08-20T05:56:13Z</time>
  <speed>5.100000</speed>
</trkpt>
<trkpt lat="32.725078583" lon="35.034626007">
  <ele>356.143066</ele>
  <time>2011-08-20T05:56:14Z</time>
  <speed>5.170000</speed>
</trkpt>
<trkpt lat="32.725044250" lon="35.034595490">
  <ele>355.580566</ele>
  <time>2011-08-20T05:56:15Z</time>
  <speed>5.280000</speed>
</trkpt>
<trkpt lat="32.725006104" lon="35.034568787">
  <ele>355.275879</ele>
  <time>2011-08-20T05:56:16Z</time>
  <speed>4.900000</speed>
</trkpt>
<trkpt lat="32.724967957" lon="35.034538269">
  <ele>355.197754</ele>
  <time>2011-08-20T05:56:17Z</time>
  <speed>4.300000</speed>
</trkpt>
<trkpt lat="32.724933624" lon="35.034515381">
  <ele>355.479004</ele>
  <time>2011-08-20T05:56:18Z</time>
  <speed>4.440000</speed>
</trkpt>
<trkpt lat="32.724903107" lon="35.034488678">
  <ele>355.580566</ele>
  <time>2011-08-20T05:56:19Z</time>
  <speed>4.620000</speed>
</trkpt>
<trkpt lat="32.724872589" lon="35.034465790">
  <ele>355.432129</ele>
  <time>2011-08-20T05:56:20Z</time>
  <speed>4.050000</speed>
</trkpt>
<trkpt lat="32.724842072" lon="35.034450531">
  <ele>353.689941</ele>
  <time>2011-08-20T05:56:21Z</time>
  <speed>4.290000</speed>
</trkpt>
<trkpt lat="32.724807739" lon="35.034427643">
  <ele>353.174316</ele>
  <time>2011-08-20T05:56:22Z</time>
  <speed>4.410000</speed>
</trkpt>
<trkpt lat="32.724784851" lon="35.034397125">
  <ele>352.189941</ele>
  <time>2011-08-20T05:56:23Z</time>
  <speed>4.180000</speed>
</trkpt>
<trkpt lat="32.724761963" lon="35.034358978">
  <ele>351.307129</ele>
  <time>2011-08-20T05:56:24Z</time>
  <speed>4.390000</speed>
</trkpt>
<trkpt lat="32.724739075" lon="35.034328461">
  <ele>351.416504</ele>
  <time>2011-08-20T05:56:25Z</time>
  <speed>3.800000</speed>
</trkpt>
<trkpt lat="32.724716187" lon="35.034297943">
  <ele>351.330566</ele>
  <time>2011-08-20T05:56:26Z</time>
  <speed>4.140000</speed>
</trkpt>
<trkpt lat="32.724693298" lon="35.034271240">
  <ele>351.299316</ele>
  <time>2011-08-20T05:56:27Z</time>
  <speed>3.890000</speed>
</trkpt>
<trkpt lat="32.724666595" lon="35.034240723">
  <ele>350.963379</ele>
  <time>2011-08-20T05:56:28Z</time>
  <speed>3.960000</speed>
</trkpt>
<trkpt lat="32.724636078" lon="35.034210205">
  <ele>350.650879</ele>
  <time>2011-08-20T05:56:29Z</time>
  <speed>4.180000</speed>
</trkpt>
<trkpt lat="32.724613190" lon="35.034179688">
  <ele>350.025879</ele>
  <time>2011-08-20T05:56:30Z</time>
  <speed>4.230000</speed>
</trkpt>
<trkpt lat="32.724586487" lon="35.034160614">
  <ele>349.080566</ele>
  <time>2011-08-20T05:56:31Z</time>
  <speed>4.130000</speed>
</trkpt>
<trkpt lat="32.724548340" lon="35.034122467">
  <ele>348.979004</ele>
  <time>2011-08-20T05:56:32Z</time>
  <speed>4.280000</speed>
</trkpt>
<trkpt lat="32.724521637" lon="35.034095764">
  <ele>348.377441</ele>
  <time>2011-08-20T05:56:33Z</time>
  <speed>3.790000</speed>
</trkpt>
<trkpt lat="32.724494934" lon="35.034076691">
  <ele>348.174316</ele>
  <time>2011-08-20T05:56:34Z</time>
  <speed>3.370000</speed>
</trkpt>
<trkpt lat="32.724468231" lon="35.034061432">
  <ele>348.064941</ele>
  <time>2011-08-20T05:56:35Z</time>
  <speed>2.840000</speed>
</trkpt>
<trkpt lat="32.724437714" lon="35.034046173">
  <ele>348.205566</ele>
  <time>2011-08-20T05:56:36Z</time>
  <speed>2.600000</speed>
</trkpt>
<trkpt lat="32.724403381" lon="35.034023285">
  <ele>347.369629</ele>
  <time>2011-08-20T05:56:38Z</time>
  <speed>2.060000</speed>
</trkpt>
<trkpt lat="32.724384308" lon="35.033996582">
  <ele>346.689941</ele>
  <time>2011-08-20T05:56:40Z</time>
  <speed>2.260000</speed>
</trkpt>
<trkpt lat="32.724361420" lon="35.033966064">
  <ele>346.322754</ele>
  <time>2011-08-20T05:56:42Z</time>
  <speed>1.930000</speed>
</trkpt>
<trkpt lat="32.724319458" lon="35.033950806">
  <ele>345.455566</ele>
  <time>2011-08-20T05:56:44Z</time>
  <speed>2.720000</speed>
</trkpt>
<trkpt lat="32.724277496" lon="35.033916473">
  <ele>345.182129</ele>
  <time>2011-08-20T05:56:46Z</time>
  <speed>2.940000</speed>
</trkpt>
<trkpt lat="32.724250793" lon="35.033897400">
  <ele>344.721191</ele>
  <time>2011-08-20T05:56:47Z</time>
  <speed>3.060000</speed>
</trkpt>
<trkpt lat="32.724224091" lon="35.033878326">
  <ele>344.291504</ele>
  <time>2011-08-20T05:56:48Z</time>
  <speed>3.350000</speed>
</trkpt>
<trkpt lat="32.724205017" lon="35.033851624">
  <ele>342.869629</ele>
  <time>2011-08-20T05:56:49Z</time>
  <speed>4.050000</speed>
</trkpt>
<trkpt lat="32.724170685" lon="35.033824921">
  <ele>342.799316</ele>
  <time>2011-08-20T05:56:50Z</time>
  <speed>3.820000</speed>
</trkpt>
<trkpt lat="32.724140167" lon="35.033798218">
  <ele>343.471191</ele>
  <time>2011-08-20T05:56:51Z</time>
  <speed>3.610000</speed>
</trkpt>
<trkpt lat="32.724124908" lon="35.033763885">
  <ele>343.346191</ele>
  <time>2011-08-20T05:56:52Z</time>
  <speed>3.520000</speed>
</trkpt>
<trkpt lat="32.724109650" lon="35.033729553">
  <ele>342.908691</ele>
  <time>2011-08-20T05:56:53Z</time>
  <speed>3.180000</speed>
</trkpt>
<trkpt lat="32.724090576" lon="35.033706665">
  <ele>343.299316</ele>
  <time>2011-08-20T05:56:54Z</time>
  <speed>2.940000</speed>
</trkpt>
<trkpt lat="32.724082947" lon="35.033645630">
  <ele>342.783691</ele>
  <time>2011-08-20T05:56:56Z</time>
  <speed>2.430000</speed>
</trkpt>
<trkpt lat="32.724067688" lon="35.033599854">
  <ele>342.963379</ele>
  <time>2011-08-20T05:56:58Z</time>
  <speed>1.750000</speed>
</trkpt>
<trkpt lat="32.724048615" lon="35.033561707">
  <ele>342.182129</ele>
  <time>2011-08-20T05:57:00Z</time>
  <speed>2.060000</speed>
</trkpt>
<trkpt lat="32.724014282" lon="35.033523560">
  <ele>341.736816</ele>
  <time>2011-08-20T05:57:02Z</time>
  <speed>3.140000</speed>
</trkpt>
<trkpt lat="32.723983765" lon="35.033500671">
  <ele>341.432129</ele>
  <time>2011-08-20T05:57:03Z</time>
  <speed>3.550000</speed>
</trkpt>
<trkpt lat="32.723949432" lon="35.033477783">
  <ele>341.088379</ele>
  <time>2011-08-20T05:57:04Z</time>
  <speed>4.240000</speed>
</trkpt>
<trkpt lat="32.723911285" lon="35.033447266">
  <ele>340.369629</ele>
  <time>2011-08-20T05:57:05Z</time>
  <speed>4.710000</speed>
</trkpt>
<trkpt lat="32.723880768" lon="35.033416748">
  <ele>339.768066</ele>
  <time>2011-08-20T05:57:06Z</time>
  <speed>5.300000</speed>
</trkpt>
<trkpt lat="32.723838806" lon="35.033382416">
  <ele>339.494629</ele>
  <time>2011-08-20T05:57:07Z</time>
  <speed>4.860000</speed>
</trkpt>
<trkpt lat="32.723800659" lon="35.033348083">
  <ele>338.072754</ele>
  <time>2011-08-20T05:57:08Z</time>
  <speed>4.800000</speed>
</trkpt>
<trkpt lat="32.723766327" lon="35.033321381">
  <ele>337.588379</ele>
  <time>2011-08-20T05:57:09Z</time>
  <speed>4.290000</speed>
</trkpt>
<trkpt lat="32.723731995" lon="35.033294678">
  <ele>337.416504</ele>
  <time>2011-08-20T05:57:10Z</time>
  <speed>3.980000</speed>
</trkpt>
<trkpt lat="32.723701477" lon="35.033264160">
  <ele>336.502441</ele>
  <time>2011-08-20T05:57:11Z</time>
  <speed>4.160000</speed>
</trkpt>
<trkpt lat="32.723674774" lon="35.033229828">
  <ele>335.979004</ele>
  <time>2011-08-20T05:57:12Z</time>
  <speed>4.600000</speed>
</trkpt>
<trkpt lat="32.723632813" lon="35.033199310">
  <ele>336.291504</ele>
  <time>2011-08-20T05:57:13Z</time>
  <speed>4.770000</speed>
</trkpt>
<trkpt lat="32.723594666" lon="35.033168793">
  <ele>336.471191</ele>
  <time>2011-08-20T05:57:14Z</time>
  <speed>4.580000</speed>
</trkpt>
<trkpt lat="32.723575592" lon="35.033126831">
  <ele>335.729004</ele>
  <time>2011-08-20T05:57:15Z</time>
  <speed>4.500000</speed>
</trkpt>
<trkpt lat="32.723556519" lon="35.033081055">
  <ele>335.689941</ele>
  <time>2011-08-20T05:57:16Z</time>
  <speed>4.310000</speed>
</trkpt>
<trkpt lat="32.723545074" lon="35.033042908">
  <ele>335.955566</ele>
  <time>2011-08-20T05:57:17Z</time>
  <speed>3.170000</speed>
</trkpt>
<trkpt lat="32.723533630" lon="35.033008575">
  <ele>335.205566</ele>
  <time>2011-08-20T05:57:18Z</time>
  <speed>3.160000</speed>
</trkpt>
<trkpt lat="32.723506927" lon="35.032978058">
  <ele>335.861816</ele>
  <time>2011-08-20T05:57:19Z</time>
  <speed>4.020000</speed>
</trkpt>
<trkpt lat="32.723480225" lon="35.032939911">
  <ele>335.885254</ele>
  <time>2011-08-20T05:57:20Z</time>
  <speed>4.530000</speed>
</trkpt>
<trkpt lat="32.723449707" lon="35.032894135">
  <ele>335.463379</ele>
  <time>2011-08-20T05:57:21Z</time>
  <speed>5.250000</speed>
</trkpt>
<trkpt lat="32.723423004" lon="35.032859802">
  <ele>335.119629</ele>
  <time>2011-08-20T05:57:22Z</time>
  <speed>3.600000</speed>
</trkpt>
<trkpt lat="32.723407745" lon="35.032825470">
  <ele>334.643066</ele>
  <time>2011-08-20T05:57:23Z</time>
  <speed>4.030000</speed>
</trkpt>
<trkpt lat="32.723388672" lon="35.032791138">
  <ele>334.252441</ele>
  <time>2011-08-20T05:57:24Z</time>
  <speed>3.950000</speed>
</trkpt>
<trkpt lat="32.723361969" lon="35.032764435">
  <ele>333.502441</ele>
  <time>2011-08-20T05:57:25Z</time>
  <speed>4.180000</speed>
</trkpt>
<trkpt lat="32.723327637" lon="35.032733917">
  <ele>332.752441</ele>
  <time>2011-08-20T05:57:26Z</time>
  <speed>5.130000</speed>
</trkpt>
<trkpt lat="32.723281860" lon="35.032699585">
  <ele>332.439941</ele>
  <time>2011-08-20T05:57:27Z</time>
  <speed>5.430000</speed>
</trkpt>
<trkpt lat="32.723247528" lon="35.032653809">
  <ele>332.025879</ele>
  <time>2011-08-20T05:57:28Z</time>
  <speed>5.790000</speed>
</trkpt>
<trkpt lat="32.723224640" lon="35.032600403">
  <ele>331.385254</ele>
  <time>2011-08-20T05:57:29Z</time>
  <speed>6.160000</speed>
</trkpt>
<trkpt lat="32.723190308" lon="35.032543182">
  <ele>330.689941</ele>
  <time>2011-08-20T05:57:30Z</time>
  <speed>6.650000</speed>
</trkpt>
<trkpt lat="32.723152161" lon="35.032485962">
  <ele>329.877441</ele>
  <time>2011-08-20T05:57:31Z</time>
  <speed>7.050000</speed>
</trkpt>
<trkpt lat="32.723110199" lon="35.032424927">
  <ele>329.354004</ele>
  <time>2011-08-20T05:57:32Z</time>
  <speed>7.190000</speed>
</trkpt>
<trkpt lat="32.723064423" lon="35.032371521">
  <ele>328.697754</ele>
  <time>2011-08-20T05:57:33Z</time>
  <speed>6.880000</speed>
</trkpt>
<trkpt lat="32.723022461" lon="35.032321930">
  <ele>328.104004</ele>
  <time>2011-08-20T05:57:34Z</time>
  <speed>6.570000</speed>
</trkpt>
<trkpt lat="32.722984314" lon="35.032264709">
  <ele>327.486816</ele>
  <time>2011-08-20T05:57:35Z</time>
  <speed>6.640000</speed>
</trkpt>
<trkpt lat="32.722949982" lon="35.032207489">
  <ele>326.908691</ele>
  <time>2011-08-20T05:57:36Z</time>
  <speed>6.440000</speed>
</trkpt>
<trkpt lat="32.722919464" lon="35.032150269">
  <ele>326.182129</ele>
  <time>2011-08-20T05:57:37Z</time>
  <speed>6.630000</speed>
</trkpt>
<trkpt lat="32.722892761" lon="35.032093048">
  <ele>325.338379</ele>
  <time>2011-08-20T05:57:38Z</time>
  <speed>6.250000</speed>
</trkpt>
<trkpt lat="32.722869873" lon="35.032032013">
  <ele>324.768066</ele>
  <time>2011-08-20T05:57:39Z</time>
  <speed>6.310000</speed>
</trkpt>
<trkpt lat="32.722846985" lon="35.031974792">
  <ele>324.346191</ele>
  <time>2011-08-20T05:57:40Z</time>
  <speed>5.560000</speed>
</trkpt>
<trkpt lat="32.722827911" lon="35.031925201">
  <ele>324.104004</ele>
  <time>2011-08-20T05:57:41Z</time>
  <speed>5.140000</speed>
</trkpt>
<trkpt lat="32.722805023" lon="35.031883240">
  <ele>323.861816</ele>
  <time>2011-08-20T05:57:42Z</time>
  <speed>4.610000</speed>
</trkpt>
<trkpt lat="32.722782135" lon="35.031845093">
  <ele>323.666504</ele>
  <time>2011-08-20T05:57:43Z</time>
  <speed>3.700000</speed>
</trkpt>
<trkpt lat="32.722766876" lon="35.031787872">
  <ele>323.088379</ele>
  <time>2011-08-20T05:57:45Z</time>
  <speed>3.190000</speed>
</trkpt>
<trkpt lat="32.722759247" lon="35.031749725">
  <ele>323.033691</ele>
  <time>2011-08-20T05:57:46Z</time>
  <speed>3.080000</speed>
</trkpt>
<trkpt lat="32.722747803" lon="35.031719208">
  <ele>322.885254</ele>
  <time>2011-08-20T05:57:47Z</time>
  <speed>3.040000</speed>
</trkpt>
<trkpt lat="32.722713470" lon="35.031673431">
  <ele>322.346191</ele>
  <time>2011-08-20T05:57:49Z</time>
  <speed>3.220000</speed>
</trkpt>
<trkpt lat="32.722686768" lon="35.031646729">
  <ele>321.939941</ele>
  <time>2011-08-20T05:57:50Z</time>
  <speed>4.460000</speed>
</trkpt>
<trkpt lat="32.722640991" lon="35.031623840">
  <ele>321.338379</ele>
  <time>2011-08-20T05:57:51Z</time>
  <speed>4.810000</speed>
</trkpt>
<trkpt lat="32.722587585" lon="35.031616211">
  <ele>320.752441</ele>
  <time>2011-08-20T05:57:52Z</time>
  <speed>5.680000</speed>
</trkpt>
<trkpt lat="32.722530365" lon="35.031616211">
  <ele>320.049316</ele>
  <time>2011-08-20T05:57:53Z</time>
  <speed>6.300000</speed>
</trkpt>
<trkpt lat="32.722465515" lon="35.031620026">
  <ele>319.127441</ele>
  <time>2011-08-20T05:57:54Z</time>
  <speed>7.000000</speed>
</trkpt>
<trkpt lat="32.722393036" lon="35.031623840">
  <ele>318.479004</ele>
  <time>2011-08-20T05:57:55Z</time>
  <speed>7.690000</speed>
</trkpt>
<trkpt lat="32.722320557" lon="35.031631470">
  <ele>317.650879</ele>
  <time>2011-08-20T05:57:56Z</time>
  <speed>7.390000</speed>
</trkpt>
<trkpt lat="32.722248077" lon="35.031635284">
  <ele>317.127441</ele>
  <time>2011-08-20T05:57:57Z</time>
  <speed>7.760000</speed>
</trkpt>
<trkpt lat="32.722179413" lon="35.031646729">
  <ele>316.674316</ele>
  <time>2011-08-20T05:57:58Z</time>
  <speed>7.450000</speed>
</trkpt>
<trkpt lat="32.722110748" lon="35.031654358">
  <ele>316.354004</ele>
  <time>2011-08-20T05:57:59Z</time>
  <speed>7.350000</speed>
</trkpt>
<trkpt lat="32.722057343" lon="35.031635284">
  <ele>315.236816</ele>
  <time>2011-08-20T05:58:00Z</time>
  <speed>6.650000</speed>
</trkpt>
<trkpt lat="32.722007751" lon="35.031593323">
  <ele>315.088379</ele>
  <time>2011-08-20T05:58:01Z</time>
  <speed>6.430000</speed>
</trkpt>
<trkpt lat="32.721973419" lon="35.031532288">
  <ele>314.604004</ele>
  <time>2011-08-20T05:58:02Z</time>
  <speed>7.130000</speed>
</trkpt>
<trkpt lat="32.721935272" lon="35.031467438">
  <ele>313.768066</ele>
  <time>2011-08-20T05:58:03Z</time>
  <speed>7.230000</speed>
</trkpt>
<trkpt lat="32.721897125" lon="35.031398773">
  <ele>312.650879</ele>
  <time>2011-08-20T05:58:04Z</time>
  <speed>7.420000</speed>
</trkpt>
<trkpt lat="32.721847534" lon="35.031337738">
  <ele>312.252441</ele>
  <time>2011-08-20T05:58:05Z</time>
  <speed>7.880000</speed>
</trkpt>
<trkpt lat="32.721794128" lon="35.031280518">
  <ele>311.689941</ele>
  <time>2011-08-20T05:58:06Z</time>
  <speed>7.330000</speed>
</trkpt>
<trkpt lat="32.721744537" lon="35.031230927">
  <ele>311.291504</ele>
  <time>2011-08-20T05:58:07Z</time>
  <speed>6.960000</speed>
</trkpt>
<trkpt lat="32.721698761" lon="35.031177521">
  <ele>312.564941</ele>
  <time>2011-08-20T05:58:08Z</time>
  <speed>7.020000</speed>
</trkpt>
<trkpt lat="32.721660614" lon="35.031116486">
  <ele>311.424316</ele>
  <time>2011-08-20T05:58:09Z</time>
  <speed>6.440000</speed>
</trkpt>
<trkpt lat="32.721630096" lon="35.031059265">
  <ele>311.143066</ele>
  <time>2011-08-20T05:58:10Z</time>
  <speed>6.330000</speed>
</trkpt>
<trkpt lat="32.721603394" lon="35.031002045">
  <ele>310.979004</ele>
  <time>2011-08-20T05:58:11Z</time>
  <speed>6.260000</speed>
</trkpt>
<trkpt lat="32.721580505" lon="35.030929565">
  <ele>310.799316</ele>
  <time>2011-08-20T05:58:12Z</time>
  <speed>6.490000</speed>
</trkpt>
<trkpt lat="32.721565247" lon="35.030864716">
  <ele>310.135254</ele>
  <time>2011-08-20T05:58:13Z</time>
  <speed>6.410000</speed>
</trkpt>
<trkpt lat="32.721549988" lon="35.030799866">
  <ele>309.760254</ele>
  <time>2011-08-20T05:58:14Z</time>
  <speed>6.180000</speed>
</trkpt>
<trkpt lat="32.721538544" lon="35.030738831">
  <ele>309.799316</ele>
  <time>2011-08-20T05:58:15Z</time>
  <speed>5.770000</speed>
</trkpt>
<trkpt lat="32.721527100" lon="35.030681610">
  <ele>309.471191</ele>
  <time>2011-08-20T05:58:16Z</time>
  <speed>6.090000</speed>
</trkpt>
<trkpt lat="32.721508026" lon="35.030628204">
  <ele>309.189941</ele>
  <time>2011-08-20T05:58:17Z</time>
  <speed>5.270000</speed>
</trkpt>
<trkpt lat="32.721488953" lon="35.030578613">
  <ele>308.955566</ele>
  <time>2011-08-20T05:58:18Z</time>
  <speed>4.830000</speed>
</trkpt>
<trkpt lat="32.721466064" lon="35.030536652">
  <ele>308.775879</ele>
  <time>2011-08-20T05:58:19Z</time>
  <speed>4.580000</speed>
</trkpt>
<trkpt lat="32.721443176" lon="35.030494690">
  <ele>308.861816</ele>
  <time>2011-08-20T05:58:20Z</time>
  <speed>4.630000</speed>
</trkpt>
<trkpt lat="32.721416473" lon="35.030448914">
  <ele>309.088379</ele>
  <time>2011-08-20T05:58:21Z</time>
  <speed>4.520000</speed>
</trkpt>
<trkpt lat="32.721393585" lon="35.030406952">
  <ele>309.518066</ele>
  <time>2011-08-20T05:58:22Z</time>
  <speed>4.420000</speed>
</trkpt>
<trkpt lat="32.721374512" lon="35.030361176">
  <ele>309.471191</ele>
  <time>2011-08-20T05:58:23Z</time>
  <speed>3.960000</speed>
</trkpt>
<trkpt lat="32.721355438" lon="35.030326843">
  <ele>309.283691</ele>
  <time>2011-08-20T05:58:24Z</time>
  <speed>3.850000</speed>
</trkpt>
<trkpt lat="32.721340179" lon="35.030292511">
  <ele>309.307129</ele>
  <time>2011-08-20T05:58:25Z</time>
  <speed>3.640000</speed>
</trkpt>
<trkpt lat="32.721317291" lon="35.030261993">
  <ele>309.471191</ele>
  <time>2011-08-20T05:58:26Z</time>
  <speed>3.540000</speed>
</trkpt>
<trkpt lat="32.721302032" lon="35.030231476">
  <ele>309.260254</ele>
  <time>2011-08-20T05:58:27Z</time>
  <speed>3.560000</speed>
</trkpt>
<trkpt lat="32.721286774" lon="35.030197144">
  <ele>309.244629</ele>
  <time>2011-08-20T05:58:28Z</time>
  <speed>3.630000</speed>
</trkpt>
<trkpt lat="32.721275330" lon="35.030162811">
  <ele>308.986816</ele>
  <time>2011-08-20T05:58:29Z</time>
  <speed>3.380000</speed>
</trkpt>
<trkpt lat="32.721271515" lon="35.030128479">
  <ele>308.643066</ele>
  <time>2011-08-20T05:58:30Z</time>
  <speed>3.840000</speed>
</trkpt>
<trkpt lat="32.721263885" lon="35.030090332">
  <ele>308.666504</ele>
  <time>2011-08-20T05:58:31Z</time>
  <speed>3.720000</speed>
</trkpt>
<trkpt lat="32.721248627" lon="35.030052185">
  <ele>308.861816</ele>
  <time>2011-08-20T05:58:32Z</time>
  <speed>3.990000</speed>
</trkpt>
<trkpt lat="32.721233368" lon="35.030025482">
  <ele>308.697754</ele>
  <time>2011-08-20T05:58:33Z</time>
  <speed>3.130000</speed>
</trkpt>
<trkpt lat="32.721210480" lon="35.030006409">
  <ele>308.041504</ele>
  <time>2011-08-20T05:58:34Z</time>
  <speed>2.920000</speed>
</trkpt>
<trkpt lat="32.721179962" lon="35.030017853">
  <ele>307.025879</ele>
  <time>2011-08-20T05:58:36Z</time>
  <speed>1.330000</speed>
</trkpt>
<trkpt lat="32.721172333" lon="35.030052185">
  <ele>307.635254</ele>
  <time>2011-08-20T05:58:38Z</time>
  <speed>0.250000</speed>
</trkpt>
<trkpt lat="32.721153259" lon="35.030075073">
  <ele>306.494629</ele>
  <time>2011-08-20T06:00:12Z</time>
  <speed>0.050000</speed>
</trkpt>
<trkpt lat="32.721130371" lon="35.030082703">
  <ele>307.744629</ele>
  <time>2011-08-20T06:00:19Z</time>
  <speed>0.030000</speed>
</trkpt>
<trkpt lat="32.721096039" lon="35.030075073">
  <ele>306.744629</ele>
  <time>2011-08-20T06:00:56Z</time>
  <speed>1.640000</speed>
</trkpt>
<trkpt lat="32.721065521" lon="35.030097961">
  <ele>306.689941</ele>
  <time>2011-08-20T06:00:58Z</time>
  <speed>2.080000</speed>
</trkpt>
<trkpt lat="32.721023560" lon="35.030124664">
  <ele>307.338379</ele>
  <time>2011-08-20T06:01:00Z</time>
  <speed>2.340000</speed>
</trkpt>
<trkpt lat="32.720985413" lon="35.030139923">
  <ele>307.166504</ele>
  <time>2011-08-20T06:01:02Z</time>
  <speed>2.330000</speed>
</trkpt>
<trkpt lat="32.720962524" lon="35.030170441">
  <ele>307.307129</ele>
  <time>2011-08-20T06:01:04Z</time>
  <speed>2.030000</speed>
</trkpt>
<trkpt lat="32.720939636" lon="35.030204773">
  <ele>306.908691</ele>
  <time>2011-08-20T06:01:06Z</time>
  <speed>2.620000</speed>
</trkpt>
<trkpt lat="32.720920563" lon="35.030227661">
  <ele>307.369629</ele>
  <time>2011-08-20T06:01:07Z</time>
  <speed>2.730000</speed>
</trkpt>
<trkpt lat="32.720893860" lon="35.030273438">
  <ele>306.955566</ele>
  <time>2011-08-20T06:01:09Z</time>
  <speed>2.520000</speed>
</trkpt>
<trkpt lat="32.720863342" lon="35.030311584">
  <ele>307.275879</ele>
  <time>2011-08-20T06:01:11Z</time>
  <speed>2.340000</speed>
</trkpt>
<trkpt lat="32.720836639" lon="35.030349731">
  <ele>306.947754</ele>
  <time>2011-08-20T06:01:13Z</time>
  <speed>2.720000</speed>
</trkpt>
<trkpt lat="32.720798492" lon="35.030391693">
  <ele>306.557129</ele>
  <time>2011-08-20T06:01:15Z</time>
  <speed>3.250000</speed>
</trkpt>
<trkpt lat="32.720775604" lon="35.030410767">
  <ele>306.674316</ele>
  <time>2011-08-20T06:01:16Z</time>
  <speed>2.880000</speed>
</trkpt>
<trkpt lat="32.720733643" lon="35.030445099">
  <ele>306.822754</ele>
  <time>2011-08-20T06:01:18Z</time>
  <speed>2.970000</speed>
</trkpt>
<trkpt lat="32.720687866" lon="35.030479431">
  <ele>307.049316</ele>
  <time>2011-08-20T06:01:20Z</time>
  <speed>3.130000</speed>
</trkpt>
<trkpt lat="32.720664978" lon="35.030498505">
  <ele>307.541504</ele>
  <time>2011-08-20T06:01:21Z</time>
  <speed>3.180000</speed>
</trkpt>
<trkpt lat="32.720642090" lon="35.030517578">
  <ele>306.854004</ele>
  <time>2011-08-20T06:01:22Z</time>
  <speed>3.080000</speed>
</trkpt>
<trkpt lat="32.720619202" lon="35.030540466">
  <ele>307.104004</ele>
  <time>2011-08-20T06:01:23Z</time>
  <speed>2.930000</speed>
</trkpt>
<trkpt lat="32.720600128" lon="35.030563354">
  <ele>307.338379</ele>
  <time>2011-08-20T06:01:24Z</time>
  <speed>3.030000</speed>
</trkpt>
<trkpt lat="32.720577240" lon="35.030586243">
  <ele>307.150879</ele>
  <time>2011-08-20T06:01:25Z</time>
  <speed>3.220000</speed>
</trkpt>
<trkpt lat="32.720531464" lon="35.030620575">
  <ele>308.064941</ele>
  <time>2011-08-20T06:01:27Z</time>
  <speed>2.980000</speed>
</trkpt>
<trkpt lat="32.720500946" lon="35.030639648">
  <ele>307.541504</ele>
  <time>2011-08-20T06:01:28Z</time>
  <speed>3.320000</speed>
</trkpt>
<trkpt lat="32.720470428" lon="35.030651093">
  <ele>307.275879</ele>
  <time>2011-08-20T06:01:29Z</time>
  <speed>3.130000</speed>
</trkpt>
<trkpt lat="32.720443726" lon="35.030666351">
  <ele>307.572754</ele>
  <time>2011-08-20T06:01:30Z</time>
  <speed>3.340000</speed>
</trkpt>
<trkpt lat="32.720417023" lon="35.030681610">
  <ele>307.385254</ele>
  <time>2011-08-20T06:01:31Z</time>
  <speed>3.250000</speed>
</trkpt>
<trkpt lat="32.720390320" lon="35.030700684">
  <ele>307.221191</ele>
  <time>2011-08-20T06:01:32Z</time>
  <speed>3.350000</speed>
</trkpt>
<trkpt lat="32.720367432" lon="35.030719757">
  <ele>307.127441</ele>
  <time>2011-08-20T06:01:33Z</time>
  <speed>3.610000</speed>
</trkpt>
<trkpt lat="32.720344543" lon="35.030742645">
  <ele>307.518066</ele>
  <time>2011-08-20T06:01:34Z</time>
  <speed>3.230000</speed>
</trkpt>
<trkpt lat="32.720321655" lon="35.030765533">
  <ele>307.650879</ele>
  <time>2011-08-20T06:01:35Z</time>
  <speed>3.190000</speed>
</trkpt>
<trkpt lat="32.720294952" lon="35.030776978">
  <ele>307.041504</ele>
  <time>2011-08-20T06:01:36Z</time>
  <speed>2.950000</speed>
</trkpt>
<trkpt lat="32.720256805" lon="35.030815125">
  <ele>306.346191</ele>
  <time>2011-08-20T06:01:38Z</time>
  <speed>2.680000</speed>
</trkpt>
<trkpt lat="32.720237732" lon="35.030853271">
  <ele>306.877441</ele>
  <time>2011-08-20T06:01:39Z</time>
  <speed>3.070000</speed>
</trkpt>
<trkpt lat="32.720226288" lon="35.030883789">
  <ele>307.713379</ele>
  <time>2011-08-20T06:01:40Z</time>
  <speed>3.330000</speed>
</trkpt>
<trkpt lat="32.720207214" lon="35.030910492">
  <ele>306.908691</ele>
  <time>2011-08-20T06:01:41Z</time>
  <speed>3.390000</speed>
</trkpt>
<trkpt lat="32.720188141" lon="35.030933380">
  <ele>307.439941</ele>
  <time>2011-08-20T06:01:42Z</time>
  <speed>3.330000</speed>
</trkpt>
<trkpt lat="32.720169067" lon="35.030956268">
  <ele>307.080566</ele>
  <time>2011-08-20T06:01:43Z</time>
  <speed>3.320000</speed>
</trkpt>
<trkpt lat="32.720123291" lon="35.030998230">
  <ele>307.197754</ele>
  <time>2011-08-20T06:01:45Z</time>
  <speed>3.310000</speed>
</trkpt>
<trkpt lat="32.720100403" lon="35.031024933">
  <ele>307.041504</ele>
  <time>2011-08-20T06:01:46Z</time>
  <speed>3.290000</speed>
</trkpt>
<trkpt lat="32.720077515" lon="35.031047821">
  <ele>306.807129</ele>
  <time>2011-08-20T06:01:47Z</time>
  <speed>3.260000</speed>
</trkpt>
<trkpt lat="32.720054626" lon="35.031066895">
  <ele>306.885254</ele>
  <time>2011-08-20T06:01:48Z</time>
  <speed>3.210000</speed>
</trkpt>
<trkpt lat="32.720027924" lon="35.031078339">
  <ele>306.557129</ele>
  <time>2011-08-20T06:01:49Z</time>
  <speed>3.190000</speed>
</trkpt>
<trkpt lat="32.719997406" lon="35.031093597">
  <ele>306.385254</ele>
  <time>2011-08-20T06:01:50Z</time>
  <speed>3.360000</speed>
</trkpt>
<trkpt lat="32.719974518" lon="35.031112671">
  <ele>306.189941</ele>
  <time>2011-08-20T06:01:51Z</time>
  <speed>3.200000</speed>
</trkpt>
<trkpt lat="32.719944000" lon="35.031127930">
  <ele>306.463379</ele>
  <time>2011-08-20T06:01:52Z</time>
  <speed>3.200000</speed>
</trkpt>
<trkpt lat="32.719894409" lon="35.031158447">
  <ele>307.385254</ele>
  <time>2011-08-20T06:01:54Z</time>
  <speed>3.200000</speed>
</trkpt>
<trkpt lat="32.719867706" lon="35.031166077">
  <ele>307.393066</ele>
  <time>2011-08-20T06:01:55Z</time>
  <speed>3.370000</speed>
</trkpt>
<trkpt lat="32.719833374" lon="35.031181335">
  <ele>308.064941</ele>
  <time>2011-08-20T06:01:56Z</time>
  <speed>3.370000</speed>
</trkpt>
<trkpt lat="32.719806671" lon="35.031196594">
  <ele>307.744629</ele>
  <time>2011-08-20T06:01:57Z</time>
  <speed>3.260000</speed>
</trkpt>
<trkpt lat="32.719779968" lon="35.031208038">
  <ele>307.447754</ele>
  <time>2011-08-20T06:01:58Z</time>
  <speed>3.340000</speed>
</trkpt>
<trkpt lat="32.719753265" lon="35.031230927">
  <ele>307.783691</ele>
  <time>2011-08-20T06:01:59Z</time>
  <speed>3.270000</speed>
</trkpt>
<trkpt lat="32.719703674" lon="35.031265259">
  <ele>307.229004</ele>
  <time>2011-08-20T06:02:01Z</time>
  <speed>3.320000</speed>
</trkpt>
<trkpt lat="32.719680786" lon="35.031280518">
  <ele>307.377441</ele>
  <time>2011-08-20T06:02:02Z</time>
  <speed>3.130000</speed>
</trkpt>
<trkpt lat="32.719635010" lon="35.031322479">
  <ele>307.807129</ele>
  <time>2011-08-20T06:02:04Z</time>
  <speed>3.280000</speed>
</trkpt>
<trkpt lat="32.719608307" lon="35.031337738">
  <ele>307.752441</ele>
  <time>2011-08-20T06:02:05Z</time>
  <speed>3.150000</speed>
</trkpt>
<trkpt lat="32.719562531" lon="35.031372070">
  <ele>307.791504</ele>
  <time>2011-08-20T06:02:07Z</time>
  <speed>3.200000</speed>
</trkpt>
<trkpt lat="32.719516754" lon="35.031414032">
  <ele>307.627441</ele>
  <time>2011-08-20T06:02:09Z</time>
  <speed>3.490000</speed>
</trkpt>
<trkpt lat="32.719493866" lon="35.031440735">
  <ele>308.127441</ele>
  <time>2011-08-20T06:02:10Z</time>
  <speed>3.680000</speed>
</trkpt>
<trkpt lat="32.719467163" lon="35.031463623">
  <ele>308.369629</ele>
  <time>2011-08-20T06:02:11Z</time>
  <speed>3.450000</speed>
</trkpt>
<trkpt lat="32.719436646" lon="35.031482697">
  <ele>308.861816</ele>
  <time>2011-08-20T06:02:12Z</time>
  <speed>3.520000</speed>
</trkpt>
<trkpt lat="32.719406128" lon="35.031494141">
  <ele>308.252441</ele>
  <time>2011-08-20T06:02:13Z</time>
  <speed>3.450000</speed>
</trkpt>
<trkpt lat="32.719375610" lon="35.031505585">
  <ele>308.650879</ele>
  <time>2011-08-20T06:02:14Z</time>
  <speed>3.400000</speed>
</trkpt>
<trkpt lat="32.719348907" lon="35.031513214">
  <ele>308.799316</ele>
  <time>2011-08-20T06:02:15Z</time>
  <speed>3.300000</speed>
</trkpt>
<trkpt lat="32.719318390" lon="35.031524658">
  <ele>308.494629</ele>
  <time>2011-08-20T06:02:16Z</time>
  <speed>3.180000</speed>
</trkpt>
<trkpt lat="32.719295502" lon="35.031539917">
  <ele>308.072754</ele>
  <time>2011-08-20T06:02:17Z</time>
  <speed>3.130000</speed>
</trkpt>
<trkpt lat="32.719268799" lon="35.031555176">
  <ele>308.814941</ele>
  <time>2011-08-20T06:02:18Z</time>
  <speed>3.160000</speed>
</trkpt>
<trkpt lat="32.719242096" lon="35.031566620">
  <ele>309.010254</ele>
  <time>2011-08-20T06:02:19Z</time>
  <speed>2.930000</speed>
</trkpt>
<trkpt lat="32.719192505" lon="35.031589508">
  <ele>309.564941</ele>
  <time>2011-08-20T06:02:21Z</time>
  <speed>2.980000</speed>
</trkpt>
<trkpt lat="32.719169617" lon="35.031604767">
  <ele>310.064941</ele>
  <time>2011-08-20T06:02:22Z</time>
  <speed>3.060000</speed>
</trkpt>
<trkpt lat="32.719142914" lon="35.031620026">
  <ele>310.197754</ele>
  <time>2011-08-20T06:02:23Z</time>
  <speed>3.020000</speed>
</trkpt>
<trkpt lat="32.719100952" lon="35.031650543">
  <ele>310.135254</ele>
  <time>2011-08-20T06:02:25Z</time>
  <speed>2.880000</speed>
</trkpt>
<trkpt lat="32.719051361" lon="35.031677246">
  <ele>310.361816</ele>
  <time>2011-08-20T06:02:27Z</time>
  <speed>2.950000</speed>
</trkpt>
<trkpt lat="32.719024658" lon="35.031684875">
  <ele>310.049316</ele>
  <time>2011-08-20T06:02:28Z</time>
  <speed>3.150000</speed>
</trkpt>
<trkpt lat="32.719001770" lon="35.031696320">
  <ele>310.104004</ele>
  <time>2011-08-20T06:02:29Z</time>
  <speed>2.990000</speed>
</trkpt>
<trkpt lat="32.718975067" lon="35.031707764">
  <ele>310.721191</ele>
  <time>2011-08-20T06:02:30Z</time>
  <speed>2.730000</speed>
</trkpt>
<trkpt lat="32.718933105" lon="35.031723022">
  <ele>311.221191</ele>
  <time>2011-08-20T06:02:32Z</time>
  <speed>1.890000</speed>
</trkpt>
<trkpt lat="32.718891144" lon="35.031753540">
  <ele>311.361816</ele>
  <time>2011-08-20T06:02:35Z</time>
  <speed>2.370000</speed>
</trkpt>
<trkpt lat="32.718841553" lon="35.031780243">
  <ele>312.549316</ele>
  <time>2011-08-20T06:02:37Z</time>
  <speed>2.610000</speed>
</trkpt>
<trkpt lat="32.718803406" lon="35.031806946">
  <ele>312.330566</ele>
  <time>2011-08-20T06:02:39Z</time>
  <speed>2.820000</speed>
</trkpt>
<trkpt lat="32.718776703" lon="35.031822205">
  <ele>312.283691</ele>
  <time>2011-08-20T06:02:40Z</time>
  <speed>2.940000</speed>
</trkpt>
<trkpt lat="32.718730927" lon="35.031848907">
  <ele>311.791504</ele>
  <time>2011-08-20T06:02:42Z</time>
  <speed>2.930000</speed>
</trkpt>
<trkpt lat="32.718688965" lon="35.031887054">
  <ele>311.744629</ele>
  <time>2011-08-20T06:02:44Z</time>
  <speed>2.980000</speed>
</trkpt>
<trkpt lat="32.718666077" lon="35.031909943">
  <ele>311.783691</ele>
  <time>2011-08-20T06:02:45Z</time>
  <speed>3.180000</speed>
</trkpt>
<trkpt lat="32.718635559" lon="35.031925201">
  <ele>312.033691</ele>
  <time>2011-08-20T06:02:46Z</time>
  <speed>3.250000</speed>
</trkpt>
<trkpt lat="32.718612671" lon="35.031951904">
  <ele>312.393066</ele>
  <time>2011-08-20T06:02:47Z</time>
  <speed>3.160000</speed>
</trkpt>
<trkpt lat="32.718593597" lon="35.031974792">
  <ele>312.189941</ele>
  <time>2011-08-20T06:02:48Z</time>
  <speed>3.140000</speed>
</trkpt>
<trkpt lat="32.718570709" lon="35.031997681">
  <ele>312.244629</ele>
  <time>2011-08-20T06:02:49Z</time>
  <speed>3.210000</speed>
</trkpt>
<trkpt lat="32.718532562" lon="35.032039642">
  <ele>312.252441</ele>
  <time>2011-08-20T06:02:51Z</time>
  <speed>3.280000</speed>
</trkpt>
<trkpt lat="32.718509674" lon="35.032058716">
  <ele>311.916504</ele>
  <time>2011-08-20T06:02:52Z</time>
  <speed>3.230000</speed>
</trkpt>
<trkpt lat="32.718482971" lon="35.032077789">
  <ele>311.807129</ele>
  <time>2011-08-20T06:02:53Z</time>
  <speed>3.180000</speed>
</trkpt>
<trkpt lat="32.718460083" lon="35.032100677">
  <ele>312.611816</ele>
  <time>2011-08-20T06:02:54Z</time>
  <speed>3.190000</speed>
</trkpt>
<trkpt lat="32.718437195" lon="35.032123566">
  <ele>312.674316</ele>
  <time>2011-08-20T06:02:55Z</time>
  <speed>3.200000</speed>
</trkpt>
<trkpt lat="32.718414307" lon="35.032142639">
  <ele>312.627441</ele>
  <time>2011-08-20T06:02:56Z</time>
  <speed>3.150000</speed>
</trkpt>
<trkpt lat="32.718391418" lon="35.032165527">
  <ele>313.104004</ele>
  <time>2011-08-20T06:02:57Z</time>
  <speed>3.060000</speed>
</trkpt>
<trkpt lat="32.718368530" lon="35.032184601">
  <ele>312.986816</ele>
  <time>2011-08-20T06:02:58Z</time>
  <speed>3.190000</speed>
</trkpt>
<trkpt lat="32.718341827" lon="35.032196045">
  <ele>313.213379</ele>
  <time>2011-08-20T06:02:59Z</time>
  <speed>3.420000</speed>
</trkpt>
<trkpt lat="32.718311310" lon="35.032207489">
  <ele>313.135254</ele>
  <time>2011-08-20T06:03:00Z</time>
  <speed>3.340000</speed>
</trkpt>
<trkpt lat="32.718280792" lon="35.032222748">
  <ele>312.971191</ele>
  <time>2011-08-20T06:03:01Z</time>
  <speed>3.500000</speed>
</trkpt>
<trkpt lat="32.718254089" lon="35.032238007">
  <ele>312.916504</ele>
  <time>2011-08-20T06:03:02Z</time>
  <speed>3.240000</speed>
</trkpt>
<trkpt lat="32.718231201" lon="35.032253265">
  <ele>312.549316</ele>
  <time>2011-08-20T06:03:03Z</time>
  <speed>3.200000</speed>
</trkpt>
<trkpt lat="32.718204498" lon="35.032272339">
  <ele>312.533691</ele>
  <time>2011-08-20T06:03:04Z</time>
  <speed>3.400000</speed>
</trkpt>
<trkpt lat="32.718177795" lon="35.032287598">
  <ele>312.455566</ele>
  <time>2011-08-20T06:03:05Z</time>
  <speed>3.300000</speed>
</trkpt>
<trkpt lat="32.718151093" lon="35.032302856">
  <ele>312.486816</ele>
  <time>2011-08-20T06:03:06Z</time>
  <speed>3.370000</speed>
</trkpt>
<trkpt lat="32.718120575" lon="35.032318115">
  <ele>312.877441</ele>
  <time>2011-08-20T06:03:07Z</time>
  <speed>3.360000</speed>
</trkpt>
<trkpt lat="32.718093872" lon="35.032333374">
  <ele>313.041504</ele>
  <time>2011-08-20T06:03:08Z</time>
  <speed>3.140000</speed>
</trkpt>
<trkpt lat="32.718067169" lon="35.032348633">
  <ele>313.354004</ele>
  <time>2011-08-20T06:03:09Z</time>
  <speed>3.250000</speed>
</trkpt>
<trkpt lat="32.718040466" lon="35.032363892">
  <ele>313.533691</ele>
  <time>2011-08-20T06:03:10Z</time>
  <speed>3.210000</speed>
</trkpt>
<trkpt lat="32.718017578" lon="35.032382965">
  <ele>314.291504</ele>
  <time>2011-08-20T06:03:11Z</time>
  <speed>3.290000</speed>
</trkpt>
<trkpt lat="32.717994690" lon="35.032405853">
  <ele>314.721191</ele>
  <time>2011-08-20T06:03:12Z</time>
  <speed>3.220000</speed>
</trkpt>
<trkpt lat="32.717967987" lon="35.032421112">
  <ele>315.182129</ele>
  <time>2011-08-20T06:03:13Z</time>
  <speed>3.180000</speed>
</trkpt>
<trkpt lat="32.717941284" lon="35.032436371">
  <ele>315.408691</ele>
  <time>2011-08-20T06:03:14Z</time>
  <speed>3.240000</speed>
</trkpt>
<trkpt lat="32.717914581" lon="35.032455444">
  <ele>315.947754</ele>
  <time>2011-08-20T06:03:15Z</time>
  <speed>3.090000</speed>
</trkpt>
<trkpt lat="32.717891693" lon="35.032478333">
  <ele>316.377441</ele>
  <time>2011-08-20T06:03:16Z</time>
  <speed>3.300000</speed>
</trkpt>
<trkpt lat="32.717864990" lon="35.032497406">
  <ele>316.252441</ele>
  <time>2011-08-20T06:03:17Z</time>
  <speed>3.340000</speed>
</trkpt>
<trkpt lat="32.717838287" lon="35.032520294">
  <ele>316.268066</ele>
  <time>2011-08-20T06:03:18Z</time>
  <speed>3.100000</speed>
</trkpt>
<trkpt lat="32.717811584" lon="35.032531738">
  <ele>315.744629</ele>
  <time>2011-08-20T06:03:19Z</time>
  <speed>3.350000</speed>
</trkpt>
<trkpt lat="32.717781067" lon="35.032543182">
  <ele>315.361816</ele>
  <time>2011-08-20T06:03:20Z</time>
  <speed>3.160000</speed>
</trkpt>
<trkpt lat="32.717754364" lon="35.032554626">
  <ele>315.096191</ele>
  <time>2011-08-20T06:03:21Z</time>
  <speed>3.250000</speed>
</trkpt>
<trkpt lat="32.717731476" lon="35.032577515">
  <ele>315.260254</ele>
  <time>2011-08-20T06:03:22Z</time>
  <speed>3.110000</speed>
</trkpt>
<trkpt lat="32.717685699" lon="35.032615662">
  <ele>315.283691</ele>
  <time>2011-08-20T06:03:24Z</time>
  <speed>3.170000</speed>
</trkpt>
<trkpt lat="32.717658997" lon="35.032630920">
  <ele>314.908691</ele>
  <time>2011-08-20T06:03:25Z</time>
  <speed>3.140000</speed>
</trkpt>
<trkpt lat="32.717636108" lon="35.032649994">
  <ele>315.088379</ele>
  <time>2011-08-20T06:03:26Z</time>
  <speed>3.330000</speed>
</trkpt>
<trkpt lat="32.717613220" lon="35.032672882">
  <ele>314.908691</ele>
  <time>2011-08-20T06:03:27Z</time>
  <speed>3.380000</speed>
</trkpt>
<trkpt lat="32.717594147" lon="35.032699585">
  <ele>314.799316</ele>
  <time>2011-08-20T06:03:28Z</time>
  <speed>3.300000</speed>
</trkpt>
<trkpt lat="32.717571259" lon="35.032718658">
  <ele>314.986816</ele>
  <time>2011-08-20T06:03:29Z</time>
  <speed>3.350000</speed>
</trkpt>
<trkpt lat="32.717544556" lon="35.032741547">
  <ele>315.143066</ele>
  <time>2011-08-20T06:03:30Z</time>
  <speed>3.420000</speed>
</trkpt>
<trkpt lat="32.717517853" lon="35.032756805">
  <ele>315.150879</ele>
  <time>2011-08-20T06:03:31Z</time>
  <speed>3.220000</speed>
</trkpt>
<trkpt lat="32.717494965" lon="35.032775879">
  <ele>315.010254</ele>
  <time>2011-08-20T06:03:32Z</time>
  <speed>3.100000</speed>
</trkpt>
<trkpt lat="32.717472076" lon="35.032798767">
  <ele>314.760254</ele>
  <time>2011-08-20T06:03:33Z</time>
  <speed>3.180000</speed>
</trkpt>
<trkpt lat="32.717437744" lon="35.032848358">
  <ele>314.244629</ele>
  <time>2011-08-20T06:03:35Z</time>
  <speed>3.190000</speed>
</trkpt>
<trkpt lat="32.717418671" lon="35.032871246">
  <ele>314.604004</ele>
  <time>2011-08-20T06:03:36Z</time>
  <speed>3.320000</speed>
</trkpt>
<trkpt lat="32.717395782" lon="35.032894135">
  <ele>314.283691</ele>
  <time>2011-08-20T06:03:37Z</time>
  <speed>3.220000</speed>
</trkpt>
<trkpt lat="32.717372894" lon="35.032920837">
  <ele>314.307129</ele>
  <time>2011-08-20T06:03:38Z</time>
  <speed>3.240000</speed>
</trkpt>
<trkpt lat="32.717353821" lon="35.032943726">
  <ele>314.416504</ele>
  <time>2011-08-20T06:03:39Z</time>
  <speed>3.150000</speed>
</trkpt>
<trkpt lat="32.717334747" lon="35.032970428">
  <ele>314.127441</ele>
  <time>2011-08-20T06:03:40Z</time>
  <speed>3.210000</speed>
</trkpt>
<trkpt lat="32.717311859" lon="35.032993317">
  <ele>314.150879</ele>
  <time>2011-08-20T06:03:41Z</time>
  <speed>3.270000</speed>
</trkpt>
<trkpt lat="32.717292786" lon="35.033016205">
  <ele>314.346191</ele>
  <time>2011-08-20T06:03:42Z</time>
  <speed>3.120000</speed>
</trkpt>
<trkpt lat="32.717269897" lon="35.033042908">
  <ele>314.291504</ele>
  <time>2011-08-20T06:03:43Z</time>
  <speed>3.340000</speed>
</trkpt>
<trkpt lat="32.717250824" lon="35.033073425">
  <ele>314.635254</ele>
  <time>2011-08-20T06:03:44Z</time>
  <speed>3.220000</speed>
</trkpt>
<trkpt lat="32.717227936" lon="35.033096313">
  <ele>314.221191</ele>
  <time>2011-08-20T06:03:45Z</time>
  <speed>3.180000</speed>
</trkpt>
<trkpt lat="32.717212677" lon="35.033123016">
  <ele>314.611816</ele>
  <time>2011-08-20T06:03:46Z</time>
  <speed>3.310000</speed>
</trkpt>
<trkpt lat="32.717182159" lon="35.033145905">
  <ele>314.705566</ele>
  <time>2011-08-20T06:03:47Z</time>
  <speed>3.300000</speed>
</trkpt>
<trkpt lat="32.717166901" lon="35.033172607">
  <ele>314.791504</ele>
  <time>2011-08-20T06:03:48Z</time>
  <speed>3.220000</speed>
</trkpt>
<trkpt lat="32.717144012" lon="35.033195496">
  <ele>314.932129</ele>
  <time>2011-08-20T06:03:49Z</time>
  <speed>3.370000</speed>
</trkpt>
<trkpt lat="32.717124939" lon="35.033222198">
  <ele>315.182129</ele>
  <time>2011-08-20T06:03:50Z</time>
  <speed>3.070000</speed>
</trkpt>
<trkpt lat="32.717105865" lon="35.033245087">
  <ele>315.088379</ele>
  <time>2011-08-20T06:03:51Z</time>
  <speed>3.110000</speed>
</trkpt>
<trkpt lat="32.717086792" lon="35.033271790">
  <ele>315.424316</ele>
  <time>2011-08-20T06:03:52Z</time>
  <speed>3.200000</speed>
</trkpt>
<trkpt lat="32.717067719" lon="35.033294678">
  <ele>315.416504</ele>
  <time>2011-08-20T06:03:53Z</time>
  <speed>3.280000</speed>
</trkpt>
<trkpt lat="32.717044830" lon="35.033321381">
  <ele>315.721191</ele>
  <time>2011-08-20T06:03:54Z</time>
  <speed>3.210000</speed>
</trkpt>
<trkpt lat="32.717010498" lon="35.033367157">
  <ele>315.049316</ele>
  <time>2011-08-20T06:03:56Z</time>
  <speed>3.200000</speed>
</trkpt>
<trkpt lat="32.716972351" lon="35.033412933">
  <ele>315.096191</ele>
  <time>2011-08-20T06:03:58Z</time>
  <speed>3.190000</speed>
</trkpt>
<trkpt lat="32.716953278" lon="35.033443451">
  <ele>315.072754</ele>
  <time>2011-08-20T06:03:59Z</time>
  <speed>3.230000</speed>
</trkpt>
<trkpt lat="32.716938019" lon="35.033473969">
  <ele>315.627441</ele>
  <time>2011-08-20T06:04:00Z</time>
  <speed>3.710000</speed>
</trkpt>
<trkpt lat="32.716918945" lon="35.033508301">
  <ele>315.416504</ele>
  <time>2011-08-20T06:04:01Z</time>
  <speed>3.760000</speed>
</trkpt>
<trkpt lat="32.716896057" lon="35.033542633">
  <ele>315.916504</ele>
  <time>2011-08-20T06:04:02Z</time>
  <speed>3.910000</speed>
</trkpt>
<trkpt lat="32.716880798" lon="35.033573151">
  <ele>316.471191</ele>
  <time>2011-08-20T06:04:03Z</time>
  <speed>3.700000</speed>
</trkpt>
<trkpt lat="32.716861725" lon="35.033607483">
  <ele>317.119629</ele>
  <time>2011-08-20T06:04:04Z</time>
  <speed>3.420000</speed>
</trkpt>
<trkpt lat="32.716842651" lon="35.033634186">
  <ele>317.135254</ele>
  <time>2011-08-20T06:04:05Z</time>
  <speed>3.300000</speed>
</trkpt>
<trkpt lat="32.716827393" lon="35.033660889">
  <ele>317.807129</ele>
  <time>2011-08-20T06:04:06Z</time>
  <speed>3.110000</speed>
</trkpt>
<trkpt lat="32.716819763" lon="35.033691406">
  <ele>318.111816</ele>
  <time>2011-08-20T06:04:07Z</time>
  <speed>3.100000</speed>
</trkpt>
<trkpt lat="32.716800690" lon="35.033752441">
  <ele>318.596191</ele>
  <time>2011-08-20T06:04:09Z</time>
  <speed>2.960000</speed>
</trkpt>
<trkpt lat="32.716773987" lon="35.033809662">
  <ele>319.252441</ele>
  <time>2011-08-20T06:04:11Z</time>
  <speed>2.970000</speed>
</trkpt>
<trkpt lat="32.716743469" lon="35.033859253">
  <ele>320.635254</ele>
  <time>2011-08-20T06:04:13Z</time>
  <speed>2.740000</speed>
</trkpt>
<trkpt lat="32.716720581" lon="35.033908844">
  <ele>321.197754</ele>
  <time>2011-08-20T06:04:15Z</time>
  <speed>2.950000</speed>
</trkpt>
<trkpt lat="32.716701508" lon="35.033935547">
  <ele>321.557129</ele>
  <time>2011-08-20T06:04:16Z</time>
  <speed>2.910000</speed>
</trkpt>
<trkpt lat="32.716686249" lon="35.033962250">
  <ele>321.643066</ele>
  <time>2011-08-20T06:04:17Z</time>
  <speed>3.010000</speed>
</trkpt>
<trkpt lat="32.716651917" lon="35.034008026">
  <ele>321.713379</ele>
  <time>2011-08-20T06:04:19Z</time>
  <speed>2.940000</speed>
</trkpt>
<trkpt lat="32.716617584" lon="35.034053802">
  <ele>321.596191</ele>
  <time>2011-08-20T06:04:21Z</time>
  <speed>2.970000</speed>
</trkpt>
<trkpt lat="32.716598511" lon="35.034076691">
  <ele>321.104004</ele>
  <time>2011-08-20T06:04:22Z</time>
  <speed>3.040000</speed>
</trkpt>
<trkpt lat="32.716564178" lon="35.034122467">
  <ele>320.338379</ele>
  <time>2011-08-20T06:04:24Z</time>
  <speed>3.140000</speed>
</trkpt>
<trkpt lat="32.716545105" lon="35.034145355">
  <ele>320.510254</ele>
  <time>2011-08-20T06:04:25Z</time>
  <speed>3.020000</speed>
</trkpt>
<trkpt lat="32.716510773" lon="35.034191132">
  <ele>320.408691</ele>
  <time>2011-08-20T06:04:27Z</time>
  <speed>3.110000</speed>
</trkpt>
<trkpt lat="32.716472626" lon="35.034236908">
  <ele>320.049316</ele>
  <time>2011-08-20T06:04:29Z</time>
  <speed>3.150000</speed>
</trkpt>
<trkpt lat="32.716453552" lon="35.034263611">
  <ele>320.072754</ele>
  <time>2011-08-20T06:04:30Z</time>
  <speed>3.090000</speed>
</trkpt>
<trkpt lat="32.716438293" lon="35.034294128">
  <ele>320.080566</ele>
  <time>2011-08-20T06:04:31Z</time>
  <speed>3.150000</speed>
</trkpt>
<trkpt lat="32.716426849" lon="35.034320831">
  <ele>319.822754</ele>
  <time>2011-08-20T06:04:32Z</time>
  <speed>3.060000</speed>
</trkpt>
<trkpt lat="32.716407776" lon="35.034347534">
  <ele>319.924316</ele>
  <time>2011-08-20T06:04:33Z</time>
  <speed>3.150000</speed>
</trkpt>
<trkpt lat="32.716388702" lon="35.034378052">
  <ele>320.393066</ele>
  <time>2011-08-20T06:04:34Z</time>
  <speed>3.160000</speed>
</trkpt>
<trkpt lat="32.716373444" lon="35.034404755">
  <ele>320.439941</ele>
  <time>2011-08-20T06:04:35Z</time>
  <speed>3.160000</speed>
</trkpt>
<trkpt lat="32.716358185" lon="35.034435272">
  <ele>320.455566</ele>
  <time>2011-08-20T06:04:36Z</time>
  <speed>3.180000</speed>
</trkpt>
<trkpt lat="32.716339111" lon="35.034458160">
  <ele>320.619629</ele>
  <time>2011-08-20T06:04:37Z</time>
  <speed>2.840000</speed>
</trkpt>
<trkpt lat="32.716304779" lon="35.034507751">
  <ele>321.314941</ele>
  <time>2011-08-20T06:04:39Z</time>
  <speed>2.950000</speed>
</trkpt>
<trkpt lat="32.716285706" lon="35.034530640">
  <ele>321.385254</ele>
  <time>2011-08-20T06:04:40Z</time>
  <speed>2.740000</speed>
</trkpt>
<trkpt lat="32.716255188" lon="35.034568787">
  <ele>320.572754</ele>
  <time>2011-08-20T06:04:42Z</time>
  <speed>2.190000</speed>
</trkpt>
<trkpt lat="32.716224670" lon="35.034614563">
  <ele>320.244629</ele>
  <time>2011-08-20T06:04:44Z</time>
  <speed>2.860000</speed>
</trkpt>
<trkpt lat="32.716201782" lon="35.034637451">
  <ele>320.838379</ele>
  <time>2011-08-20T06:04:45Z</time>
  <speed>3.140000</speed>
</trkpt>
<trkpt lat="32.716182709" lon="35.034660339">
  <ele>321.111816</ele>
  <time>2011-08-20T06:04:46Z</time>
  <speed>3.070000</speed>
</trkpt>
<trkpt lat="32.716144562" lon="35.034702301">
  <ele>321.002441</ele>
  <time>2011-08-20T06:04:48Z</time>
  <speed>3.070000</speed>
</trkpt>
<trkpt lat="32.716106415" lon="35.034748077">
  <ele>320.619629</ele>
  <time>2011-08-20T06:04:50Z</time>
  <speed>3.070000</speed>
</trkpt>
<trkpt lat="32.716072083" lon="35.034793854">
  <ele>320.408691</ele>
  <time>2011-08-20T06:04:52Z</time>
  <speed>3.060000</speed>
</trkpt>
<trkpt lat="32.716033936" lon="35.034839630">
  <ele>320.525879</ele>
  <time>2011-08-20T06:04:54Z</time>
  <speed>3.120000</speed>
</trkpt>
<trkpt lat="32.716018677" lon="35.034866333">
  <ele>320.611816</ele>
  <time>2011-08-20T06:04:55Z</time>
  <speed>3.210000</speed>
</trkpt>
<trkpt lat="32.715999603" lon="35.034896851">
  <ele>320.713379</ele>
  <time>2011-08-20T06:04:56Z</time>
  <speed>3.260000</speed>
</trkpt>
<trkpt lat="32.715980530" lon="35.034923553">
  <ele>321.049316</ele>
  <time>2011-08-20T06:04:57Z</time>
  <speed>3.020000</speed>
</trkpt>
<trkpt lat="32.715950012" lon="35.034973145">
  <ele>321.041504</ele>
  <time>2011-08-20T06:04:59Z</time>
  <speed>3.090000</speed>
</trkpt>
<trkpt lat="32.715911865" lon="35.035018921">
  <ele>321.361816</ele>
  <time>2011-08-20T06:05:01Z</time>
  <speed>2.970000</speed>
</trkpt>
<trkpt lat="32.715881348" lon="35.035072327">
  <ele>321.869629</ele>
  <time>2011-08-20T06:05:03Z</time>
  <speed>2.900000</speed>
</trkpt>
<trkpt lat="32.715847015" lon="35.035121918">
  <ele>322.611816</ele>
  <time>2011-08-20T06:05:05Z</time>
  <speed>3.040000</speed>
</trkpt>
<trkpt lat="32.715827942" lon="35.035144806">
  <ele>322.385254</ele>
  <time>2011-08-20T06:05:06Z</time>
  <speed>3.040000</speed>
</trkpt>
<trkpt lat="32.715808868" lon="35.035171509">
  <ele>322.416504</ele>
  <time>2011-08-20T06:05:07Z</time>
  <speed>3.120000</speed>
</trkpt>
<trkpt lat="32.715789795" lon="35.035198212">
  <ele>322.807129</ele>
  <time>2011-08-20T06:05:08Z</time>
  <speed>3.190000</speed>
</trkpt>
<trkpt lat="32.715774536" lon="35.035221100">
  <ele>322.939941</ele>
  <time>2011-08-20T06:05:09Z</time>
  <speed>3.000000</speed>
</trkpt>
<trkpt lat="32.715732574" lon="35.035263062">
  <ele>323.393066</ele>
  <time>2011-08-20T06:05:11Z</time>
  <speed>3.080000</speed>
</trkpt>
<trkpt lat="32.715709686" lon="35.035282135">
  <ele>323.268066</ele>
  <time>2011-08-20T06:05:12Z</time>
  <speed>2.950000</speed>
</trkpt>
<trkpt lat="32.715667725" lon="35.035320282">
  <ele>323.408691</ele>
  <time>2011-08-20T06:05:14Z</time>
  <speed>2.860000</speed>
</trkpt>
<trkpt lat="32.715629578" lon="35.035366058">
  <ele>323.900879</ele>
  <time>2011-08-20T06:05:16Z</time>
  <speed>3.050000</speed>
</trkpt>
<trkpt lat="32.715606689" lon="35.035385132">
  <ele>324.150879</ele>
  <time>2011-08-20T06:05:17Z</time>
  <speed>2.980000</speed>
</trkpt>
<trkpt lat="32.715572357" lon="35.035430908">
  <ele>323.814941</ele>
  <time>2011-08-20T06:05:19Z</time>
  <speed>2.880000</speed>
</trkpt>
<trkpt lat="32.715549469" lon="35.035449982">
  <ele>323.557129</ele>
  <time>2011-08-20T06:05:20Z</time>
  <speed>3.050000</speed>
</trkpt>
<trkpt lat="32.715526581" lon="35.035472870">
  <ele>323.830566</ele>
  <time>2011-08-20T06:05:21Z</time>
  <speed>2.930000</speed>
</trkpt>
<trkpt lat="32.715507507" lon="35.035491943">
  <ele>323.674316</ele>
  <time>2011-08-20T06:05:22Z</time>
  <speed>2.840000</speed>
</trkpt>
<trkpt lat="32.715476990" lon="35.035533905">
  <ele>322.541504</ele>
  <time>2011-08-20T06:05:24Z</time>
  <speed>2.660000</speed>
</trkpt>
<trkpt lat="32.715446472" lon="35.035579681">
  <ele>323.244629</ele>
  <time>2011-08-20T06:05:26Z</time>
  <speed>2.880000</speed>
</trkpt>
<trkpt lat="32.715431213" lon="35.035606384">
  <ele>323.408691</ele>
  <time>2011-08-20T06:05:27Z</time>
  <speed>2.820000</speed>
</trkpt>
<trkpt lat="32.715412140" lon="35.035640717">
  <ele>324.205566</ele>
  <time>2011-08-20T06:05:28Z</time>
  <speed>2.980000</speed>
</trkpt>
<trkpt lat="32.715400696" lon="35.035667419">
  <ele>324.189941</ele>
  <time>2011-08-20T06:05:29Z</time>
  <speed>2.930000</speed>
</trkpt>
<trkpt lat="32.715393066" lon="35.035697937">
  <ele>324.432129</ele>
  <time>2011-08-20T06:05:30Z</time>
  <speed>2.860000</speed>
</trkpt>
<trkpt lat="32.715373993" lon="35.035758972">
  <ele>324.916504</ele>
  <time>2011-08-20T06:05:32Z</time>
  <speed>2.930000</speed>
</trkpt>
<trkpt lat="32.715370178" lon="35.035812378">
  <ele>325.416504</ele>
  <time>2011-08-20T06:05:34Z</time>
  <speed>2.770000</speed>
</trkpt>
<trkpt lat="32.715385437" lon="35.035842896">
  <ele>325.479004</ele>
  <time>2011-08-20T06:05:35Z</time>
  <speed>2.750000</speed>
</trkpt>
<trkpt lat="32.715400696" lon="35.035873413">
  <ele>324.455566</ele>
  <time>2011-08-20T06:05:36Z</time>
  <speed>3.040000</speed>
</trkpt>
<trkpt lat="32.715415955" lon="35.035903931">
  <ele>324.002441</ele>
  <time>2011-08-20T06:05:37Z</time>
  <speed>2.980000</speed>
</trkpt>
<trkpt lat="32.715431213" lon="35.035934448">
  <ele>323.971191</ele>
  <time>2011-08-20T06:05:38Z</time>
  <speed>2.790000</speed>
</trkpt>
<trkpt lat="32.715461731" lon="35.035980225">
  <ele>324.721191</ele>
  <time>2011-08-20T06:05:40Z</time>
  <speed>2.950000</speed>
</trkpt>
<trkpt lat="32.715476990" lon="35.036006927">
  <ele>324.080566</ele>
  <time>2011-08-20T06:05:41Z</time>
  <speed>3.180000</speed>
</trkpt>
<trkpt lat="32.715496063" lon="35.036033630">
  <ele>324.729004</ele>
  <time>2011-08-20T06:05:42Z</time>
  <speed>3.080000</speed>
</trkpt>
<trkpt lat="32.715534210" lon="35.036067963">
  <ele>324.705566</ele>
  <time>2011-08-20T06:05:44Z</time>
  <speed>2.380000</speed>
</trkpt>
<trkpt lat="32.715572357" lon="35.036094666">
  <ele>324.736816</ele>
  <time>2011-08-20T06:05:46Z</time>
  <speed>2.450000</speed>
</trkpt>
<trkpt lat="32.715614319" lon="35.036132813">
  <ele>324.205566</ele>
  <time>2011-08-20T06:05:48Z</time>
  <speed>2.840000</speed>
</trkpt>
<trkpt lat="32.715644836" lon="35.036178589">
  <ele>323.814941</ele>
  <time>2011-08-20T06:05:50Z</time>
  <speed>2.780000</speed>
</trkpt>
<trkpt lat="32.715682983" lon="35.036209106">
  <ele>323.939941</ele>
  <time>2011-08-20T06:05:52Z</time>
  <speed>2.480000</speed>
</trkpt>
<trkpt lat="32.715713501" lon="35.036239624">
  <ele>325.049316</ele>
  <time>2011-08-20T06:05:54Z</time>
  <speed>2.600000</speed>
</trkpt>
<trkpt lat="32.715747833" lon="35.036273956">
  <ele>325.197754</ele>
  <time>2011-08-20T06:05:56Z</time>
  <speed>2.450000</speed>
</trkpt>
<trkpt lat="32.715789795" lon="35.036312103">
  <ele>326.322754</ele>
  <time>2011-08-20T06:05:58Z</time>
  <speed>2.500000</speed>
</trkpt>
<trkpt lat="32.715816498" lon="35.036331177">
  <ele>326.744629</ele>
  <time>2011-08-20T06:05:59Z</time>
  <speed>2.470000</speed>
</trkpt>
<trkpt lat="32.715839386" lon="35.036350250">
  <ele>327.002441</ele>
  <time>2011-08-20T06:06:00Z</time>
  <speed>2.440000</speed>
</trkpt>
<trkpt lat="32.715873718" lon="35.036380768">
  <ele>326.783691</ele>
  <time>2011-08-20T06:06:02Z</time>
  <speed>2.680000</speed>
</trkpt>
<trkpt lat="32.715896606" lon="35.036403656">
  <ele>327.307129</ele>
  <time>2011-08-20T06:06:03Z</time>
  <speed>2.540000</speed>
</trkpt>
<trkpt lat="32.715930939" lon="35.036437988">
  <ele>327.088379</ele>
  <time>2011-08-20T06:06:05Z</time>
  <speed>2.230000</speed>
</trkpt>
<trkpt lat="32.715965271" lon="35.036457062">
  <ele>326.939941</ele>
  <time>2011-08-20T06:06:07Z</time>
  <speed>1.900000</speed>
</trkpt>
<trkpt lat="32.716003418" lon="35.036460876">
  <ele>327.041504</ele>
  <time>2011-08-20T06:06:09Z</time>
  <speed>2.330000</speed>
</trkpt>
<trkpt lat="32.716026306" lon="35.036476135">
  <ele>325.643066</ele>
  <time>2011-08-20T06:06:10Z</time>
  <speed>2.090000</speed>
</trkpt>
<trkpt lat="32.716041565" lon="35.036518097">
  <ele>325.158691</ele>
  <time>2011-08-20T06:06:12Z</time>
  <speed>2.330000</speed>
</trkpt>
<trkpt lat="32.716064453" lon="35.036563873">
  <ele>325.658691</ele>
  <time>2011-08-20T06:06:14Z</time>
  <speed>2.010000</speed>
</trkpt>
<trkpt lat="32.716114044" lon="35.036579132">
  <ele>326.400879</ele>
  <time>2011-08-20T06:06:16Z</time>
  <speed>2.130000</speed>
</trkpt>
<trkpt lat="32.716144562" lon="35.036598206">
  <ele>326.018066</ele>
  <time>2011-08-20T06:06:18Z</time>
  <speed>2.440000</speed>
</trkpt>
<trkpt lat="32.716186523" lon="35.036590576">
  <ele>326.877441</ele>
  <time>2011-08-20T06:06:20Z</time>
  <speed>2.320000</speed>
</trkpt>
<trkpt lat="32.716236115" lon="35.036579132">
  <ele>326.611816</ele>
  <time>2011-08-20T06:06:22Z</time>
  <speed>2.230000</speed>
</trkpt>
<trkpt lat="32.716274261" lon="35.036579132">
  <ele>326.838379</ele>
  <time>2011-08-20T06:06:24Z</time>
  <speed>2.150000</speed>
</trkpt>
<trkpt lat="32.716308594" lon="35.036560059">
  <ele>327.455566</ele>
  <time>2011-08-20T06:06:26Z</time>
  <speed>1.780000</speed>
</trkpt>
<trkpt lat="32.716323853" lon="35.036525726">
  <ele>327.369629</ele>
  <time>2011-08-20T06:06:28Z</time>
  <speed>1.710000</speed>
</trkpt>
<trkpt lat="32.716342926" lon="35.036491394">
  <ele>327.939941</ele>
  <time>2011-08-20T06:06:30Z</time>
  <speed>1.570000</speed>
</trkpt>
<trkpt lat="32.716354370" lon="35.036460876">
  <ele>328.182129</ele>
  <time>2011-08-20T06:06:32Z</time>
  <speed>1.480000</speed>
</trkpt>
<trkpt lat="32.716350555" lon="35.036426544">
  <ele>328.400879</ele>
  <time>2011-08-20T06:06:34Z</time>
  <speed>1.380000</speed>
</trkpt>
<trkpt lat="32.716342926" lon="35.036396027">
  <ele>328.588379</ele>
  <time>2011-08-20T06:06:36Z</time>
  <speed>1.600000</speed>
</trkpt>
<trkpt lat="32.716339111" lon="35.036361694">
  <ele>328.072754</ele>
  <time>2011-08-20T06:06:38Z</time>
  <speed>1.830000</speed>
</trkpt>
<trkpt lat="32.716346741" lon="35.036331177">
  <ele>328.244629</ele>
  <time>2011-08-20T06:06:40Z</time>
  <speed>1.260000</speed>
</trkpt>
<trkpt lat="32.716342926" lon="35.036296844">
  <ele>328.627441</ele>
  <time>2011-08-20T06:06:42Z</time>
  <speed>1.470000</speed>
</trkpt>
<trkpt lat="32.716331482" lon="35.036254883">
  <ele>329.455566</ele>
  <time>2011-08-20T06:06:45Z</time>
  <speed>1.550000</speed>
</trkpt>
<trkpt lat="32.716320038" lon="35.036205292">
  <ele>329.768066</ele>
  <time>2011-08-20T06:06:47Z</time>
  <speed>1.560000</speed>
</trkpt>
<trkpt lat="32.716304779" lon="35.036159515">
  <ele>330.541504</ele>
  <time>2011-08-20T06:06:49Z</time>
  <speed>1.800000</speed>
</trkpt>
<trkpt lat="32.716297150" lon="35.036121368">
  <ele>330.838379</ele>
  <time>2011-08-20T06:06:51Z</time>
  <speed>1.830000</speed>
</trkpt>
<trkpt lat="32.716293335" lon="35.036090851">
  <ele>330.502441</ele>
  <time>2011-08-20T06:06:53Z</time>
  <speed>1.620000</speed>
</trkpt>
<trkpt lat="32.716289520" lon="35.036056519">
  <ele>331.033691</ele>
  <time>2011-08-20T06:06:55Z</time>
  <speed>1.760000</speed>
</trkpt>
<trkpt lat="32.716285706" lon="35.036026001">
  <ele>332.252441</ele>
  <time>2011-08-20T06:06:57Z</time>
  <speed>1.520000</speed>
</trkpt>
<trkpt lat="32.716289520" lon="35.035991669">
  <ele>333.072754</ele>
  <time>2011-08-20T06:06:59Z</time>
  <speed>1.620000</speed>
</trkpt>
<trkpt lat="32.716297150" lon="35.035949707">
  <ele>334.307129</ele>
  <time>2011-08-20T06:07:01Z</time>
  <speed>1.690000</speed>
</trkpt>
<trkpt lat="32.716300964" lon="35.035915375">
  <ele>334.682129</ele>
  <time>2011-08-20T06:07:03Z</time>
  <speed>1.780000</speed>
</trkpt>
<trkpt lat="32.716312408" lon="35.035865784">
  <ele>335.439941</ele>
  <time>2011-08-20T06:07:05Z</time>
  <speed>1.790000</speed>
</trkpt>
<trkpt lat="32.716327667" lon="35.035827637">
  <ele>336.471191</ele>
  <time>2011-08-20T06:07:07Z</time>
  <speed>1.720000</speed>
</trkpt>
<trkpt lat="32.716346741" lon="35.035800934">
  <ele>337.182129</ele>
  <time>2011-08-20T06:07:09Z</time>
  <speed>1.820000</speed>
</trkpt>
<trkpt lat="32.716369629" lon="35.035766602">
  <ele>338.393066</ele>
  <time>2011-08-20T06:07:11Z</time>
  <speed>1.770000</speed>
</trkpt>
<trkpt lat="32.716392517" lon="35.035739899">
  <ele>339.213379</ele>
  <time>2011-08-20T06:07:13Z</time>
  <speed>1.770000</speed>
</trkpt>
<trkpt lat="32.716423035" lon="35.035724640">
  <ele>339.471191</ele>
  <time>2011-08-20T06:07:15Z</time>
  <speed>1.850000</speed>
</trkpt>
<trkpt lat="32.716445923" lon="35.035705566">
  <ele>340.385254</ele>
  <time>2011-08-20T06:07:17Z</time>
  <speed>1.620000</speed>
</trkpt>
<trkpt lat="32.716476440" lon="35.035686493">
  <ele>341.307129</ele>
  <time>2011-08-20T06:07:19Z</time>
  <speed>1.690000</speed>
</trkpt>
<trkpt lat="32.716506958" lon="35.035671234">
  <ele>341.721191</ele>
  <time>2011-08-20T06:07:21Z</time>
  <speed>1.600000</speed>
</trkpt>
<trkpt lat="32.716529846" lon="35.035659790">
  <ele>342.627441</ele>
  <time>2011-08-20T06:07:23Z</time>
  <speed>1.380000</speed>
</trkpt>
<trkpt lat="32.716567993" lon="35.035648346">
  <ele>343.994629</ele>
  <time>2011-08-20T06:07:26Z</time>
  <speed>1.420000</speed>
</trkpt>
<trkpt lat="32.716606140" lon="35.035644531">
  <ele>345.377441</ele>
  <time>2011-08-20T06:07:29Z</time>
  <speed>1.600000</speed>
</trkpt>
<trkpt lat="32.716640472" lon="35.035636902">
  <ele>345.838379</ele>
  <time>2011-08-20T06:07:31Z</time>
  <speed>1.790000</speed>
</trkpt>
<trkpt lat="32.716674805" lon="35.035633087">
  <ele>345.643066</ele>
  <time>2011-08-20T06:07:33Z</time>
  <speed>1.670000</speed>
</trkpt>
<trkpt lat="32.716697693" lon="35.035621643">
  <ele>346.119629</ele>
  <time>2011-08-20T06:07:35Z</time>
  <speed>2.000000</speed>
</trkpt>
<trkpt lat="32.716728210" lon="35.035610199">
  <ele>346.057129</ele>
  <time>2011-08-20T06:07:37Z</time>
  <speed>1.560000</speed>
</trkpt>
<trkpt lat="32.716766357" lon="35.035610199">
  <ele>346.252441</ele>
  <time>2011-08-20T06:07:40Z</time>
  <speed>1.450000</speed>
</trkpt>
<trkpt lat="32.716793060" lon="35.035602570">
  <ele>347.174316</ele>
  <time>2011-08-20T06:07:42Z</time>
  <speed>1.510000</speed>
</trkpt>
<trkpt lat="32.716819763" lon="35.035583496">
  <ele>347.775879</ele>
  <time>2011-08-20T06:07:45Z</time>
  <speed>1.390000</speed>
</trkpt>
<trkpt lat="32.716857910" lon="35.035591125">
  <ele>347.283691</ele>
  <time>2011-08-20T06:07:48Z</time>
  <speed>1.200000</speed>
</trkpt>
<trkpt lat="32.716896057" lon="35.035621643">
  <ele>347.143066</ele>
  <time>2011-08-20T06:07:51Z</time>
  <speed>1.610000</speed>
</trkpt>
<trkpt lat="32.716922760" lon="35.035633087">
  <ele>347.080566</ele>
  <time>2011-08-20T06:07:53Z</time>
  <speed>1.550000</speed>
</trkpt>
<trkpt lat="32.716953278" lon="35.035648346">
  <ele>348.807129</ele>
  <time>2011-08-20T06:07:56Z</time>
  <speed>1.490000</speed>
</trkpt>
<trkpt lat="32.716983795" lon="35.035659790">
  <ele>349.268066</ele>
  <time>2011-08-20T06:07:58Z</time>
  <speed>1.040000</speed>
</trkpt>
<trkpt lat="32.717021942" lon="35.035678864">
  <ele>349.400879</ele>
  <time>2011-08-20T06:08:01Z</time>
  <speed>1.350000</speed>
</trkpt>
<trkpt lat="32.717048645" lon="35.035690308">
  <ele>349.494629</ele>
  <time>2011-08-20T06:08:04Z</time>
  <speed>1.230000</speed>
</trkpt>
<trkpt lat="32.717079163" lon="35.035675049">
  <ele>349.705566</ele>
  <time>2011-08-20T06:08:06Z</time>
  <speed>1.260000</speed>
</trkpt>
<trkpt lat="32.717109680" lon="35.035678864">
  <ele>350.338379</ele>
  <time>2011-08-20T06:08:09Z</time>
  <speed>1.230000</speed>
</trkpt>
<trkpt lat="32.717136383" lon="35.035697937">
  <ele>350.838379</ele>
  <time>2011-08-20T06:08:12Z</time>
  <speed>1.000000</speed>
</trkpt>
<trkpt lat="32.717166901" lon="35.035720825">
  <ele>351.439941</ele>
  <time>2011-08-20T06:08:15Z</time>
  <speed>1.390000</speed>
</trkpt>
<trkpt lat="32.717193604" lon="35.035732269">
  <ele>352.064941</ele>
  <time>2011-08-20T06:08:17Z</time>
  <speed>1.450000</speed>
</trkpt>
<trkpt lat="32.717220306" lon="35.035762787">
  <ele>352.783691</ele>
  <time>2011-08-20T06:08:20Z</time>
  <speed>1.310000</speed>
</trkpt>
<trkpt lat="32.717243195" lon="35.035781860">
  <ele>353.822754</ele>
  <time>2011-08-20T06:08:22Z</time>
  <speed>1.470000</speed>
</trkpt>
<trkpt lat="32.717269897" lon="35.035793304">
  <ele>354.635254</ele>
  <time>2011-08-20T06:08:24Z</time>
  <speed>1.510000</speed>
</trkpt>
<trkpt lat="32.717292786" lon="35.035831451">
  <ele>354.971191</ele>
  <time>2011-08-20T06:08:26Z</time>
  <speed>1.590000</speed>
</trkpt>
<trkpt lat="32.717315674" lon="35.035858154">
  <ele>356.150879</ele>
  <time>2011-08-20T06:08:29Z</time>
  <speed>1.220000</speed>
</trkpt>
<trkpt lat="32.717338562" lon="35.035896301">
  <ele>356.510254</ele>
  <time>2011-08-20T06:08:32Z</time>
  <speed>1.080000</speed>
</trkpt>
<trkpt lat="32.717346191" lon="35.035938263">
  <ele>357.057129</ele>
  <time>2011-08-20T06:08:36Z</time>
  <speed>1.180000</speed>
</trkpt>
<trkpt lat="32.717361450" lon="35.035976410">
  <ele>357.455566</ele>
  <time>2011-08-20T06:08:43Z</time>
  <speed>0.670000</speed>
</trkpt>
<trkpt lat="32.717353821" lon="35.036014557">
  <ele>357.666504</ele>
  <time>2011-08-20T06:08:46Z</time>
  <speed>0.900000</speed>
</trkpt>
<trkpt lat="32.717330933" lon="35.036033630">
  <ele>357.744629</ele>
  <time>2011-08-20T06:08:50Z</time>
  <speed>0.230000</speed>
</trkpt>
<trkpt lat="32.717311859" lon="35.036052704">
  <ele>359.236816</ele>
  <time>2011-08-20T06:08:55Z</time>
  <speed>0.050000</speed>
</trkpt>
<trkpt lat="32.717288971" lon="35.036079407">
  <ele>360.877441</ele>
  <time>2011-08-20T06:09:10Z</time>
  <speed>0.560000</speed>
</trkpt>
<trkpt lat="32.717281342" lon="35.036121368">
  <ele>360.635254</ele>
  <time>2011-08-20T06:09:14Z</time>
  <speed>0.910000</speed>
</trkpt>
<trkpt lat="32.717285156" lon="35.036170959">
  <ele>360.182129</ele>
  <time>2011-08-20T06:09:18Z</time>
  <speed>1.690000</speed>
</trkpt>
<trkpt lat="32.717288971" lon="35.036209106">
  <ele>359.986816</ele>
  <time>2011-08-20T06:09:20Z</time>
  <speed>1.560000</speed>
</trkpt>
<trkpt lat="32.717285156" lon="35.036247253">
  <ele>360.127441</ele>
  <time>2011-08-20T06:09:22Z</time>
  <speed>1.530000</speed>
</trkpt>
<trkpt lat="32.717304230" lon="35.036289215">
  <ele>360.463379</ele>
  <time>2011-08-20T06:09:25Z</time>
  <speed>1.610000</speed>
</trkpt>
<trkpt lat="32.717308044" lon="35.036319733">
  <ele>359.807129</ele>
  <time>2011-08-20T06:09:27Z</time>
  <speed>1.670000</speed>
</trkpt>
<trkpt lat="32.717323303" lon="35.036350250">
  <ele>360.080566</ele>
  <time>2011-08-20T06:09:29Z</time>
  <speed>1.540000</speed>
</trkpt>
<trkpt lat="32.717342377" lon="35.036384583">
  <ele>360.189941</ele>
  <time>2011-08-20T06:09:31Z</time>
  <speed>1.410000</speed>
</trkpt>
<trkpt lat="32.717372894" lon="35.036403656">
  <ele>359.588379</ele>
  <time>2011-08-20T06:09:33Z</time>
  <speed>1.540000</speed>
</trkpt>
<trkpt lat="32.717403412" lon="35.036422729">
  <ele>359.768066</ele>
  <time>2011-08-20T06:09:35Z</time>
  <speed>1.510000</speed>
</trkpt>
<trkpt lat="32.717426300" lon="35.036460876">
  <ele>359.768066</ele>
  <time>2011-08-20T06:09:38Z</time>
  <speed>1.410000</speed>
</trkpt>
<trkpt lat="32.717445374" lon="35.036502838">
  <ele>358.807129</ele>
  <time>2011-08-20T06:09:41Z</time>
  <speed>1.240000</speed>
</trkpt>
<trkpt lat="32.717468262" lon="35.036544800">
  <ele>359.002441</ele>
  <time>2011-08-20T06:09:44Z</time>
  <speed>1.410000</speed>
</trkpt>
<trkpt lat="32.717494965" lon="35.036563873">
  <ele>358.916504</ele>
  <time>2011-08-20T06:09:46Z</time>
  <speed>1.410000</speed>
</trkpt>
<trkpt lat="32.717514038" lon="35.036594391">
  <ele>358.471191</ele>
  <time>2011-08-20T06:09:49Z</time>
  <speed>1.390000</speed>
</trkpt>
<trkpt lat="32.717529297" lon="35.036636353">
  <ele>359.057129</ele>
  <time>2011-08-20T06:09:52Z</time>
  <speed>1.560000</speed>
</trkpt>
<trkpt lat="32.717536926" lon="35.036678314">
  <ele>359.541504</ele>
  <time>2011-08-20T06:09:54Z</time>
  <speed>1.810000</speed>
</trkpt>
<trkpt lat="32.717548370" lon="35.036712646">
  <ele>359.791504</ele>
  <time>2011-08-20T06:09:56Z</time>
  <speed>1.770000</speed>
</trkpt>
<trkpt lat="32.717563629" lon="35.036743164">
  <ele>359.775879</ele>
  <time>2011-08-20T06:09:58Z</time>
  <speed>1.800000</speed>
</trkpt>
<trkpt lat="32.717582703" lon="35.036769867">
  <ele>360.416504</ele>
  <time>2011-08-20T06:10:00Z</time>
  <speed>1.740000</speed>
</trkpt>
<trkpt lat="32.717597961" lon="35.036796570">
  <ele>359.775879</ele>
  <time>2011-08-20T06:10:02Z</time>
  <speed>1.610000</speed>
</trkpt>
<trkpt lat="32.717617035" lon="35.036827087">
  <ele>360.400879</ele>
  <time>2011-08-20T06:10:04Z</time>
  <speed>1.480000</speed>
</trkpt>
<trkpt lat="32.717636108" lon="35.036846161">
  <ele>360.244629</ele>
  <time>2011-08-20T06:10:06Z</time>
  <speed>1.470000</speed>
</trkpt>
<trkpt lat="32.717658997" lon="35.036872864">
  <ele>360.994629</ele>
  <time>2011-08-20T06:10:08Z</time>
  <speed>1.690000</speed>
</trkpt>
<trkpt lat="32.717685699" lon="35.036895752">
  <ele>360.932129</ele>
  <time>2011-08-20T06:10:10Z</time>
  <speed>1.400000</speed>
</trkpt>
<trkpt lat="32.717708588" lon="35.036926270">
  <ele>361.861816</ele>
  <time>2011-08-20T06:10:12Z</time>
  <speed>1.690000</speed>
</trkpt>
<trkpt lat="32.717720032" lon="35.036956787">
  <ele>362.361816</ele>
  <time>2011-08-20T06:10:14Z</time>
  <speed>1.560000</speed>
</trkpt>
<trkpt lat="32.717735291" lon="35.036994934">
  <ele>362.346191</ele>
  <time>2011-08-20T06:10:16Z</time>
  <speed>2.070000</speed>
</trkpt>
<trkpt lat="32.717746735" lon="35.037033081">
  <ele>363.385254</ele>
  <time>2011-08-20T06:10:19Z</time>
  <speed>1.500000</speed>
</trkpt>
<trkpt lat="32.717765808" lon="35.037055969">
  <ele>363.822754</ele>
  <time>2011-08-20T06:10:21Z</time>
  <speed>1.420000</speed>
</trkpt>
<trkpt lat="32.717781067" lon="35.037082672">
  <ele>364.150879</ele>
  <time>2011-08-20T06:10:23Z</time>
  <speed>1.410000</speed>
</trkpt>
<trkpt lat="32.717788696" lon="35.037124634">
  <ele>364.330566</ele>
  <time>2011-08-20T06:10:26Z</time>
  <speed>1.320000</speed>
</trkpt>
<trkpt lat="32.717796326" lon="35.037162781">
  <ele>365.135254</ele>
  <time>2011-08-20T06:10:29Z</time>
  <speed>1.320000</speed>
</trkpt>
<trkpt lat="32.717792511" lon="35.037204742">
  <ele>365.916504</ele>
  <time>2011-08-20T06:10:32Z</time>
  <speed>1.490000</speed>
</trkpt>
<trkpt lat="32.717803955" lon="35.037235260">
  <ele>366.275879</ele>
  <time>2011-08-20T06:10:34Z</time>
  <speed>1.410000</speed>
</trkpt>
<trkpt lat="32.717807770" lon="35.037269592">
  <ele>367.174316</ele>
  <time>2011-08-20T06:10:36Z</time>
  <speed>1.570000</speed>
</trkpt>
<trkpt lat="32.717838287" lon="35.037296295">
  <ele>367.150879</ele>
  <time>2011-08-20T06:10:39Z</time>
  <speed>1.730000</speed>
</trkpt>
<trkpt lat="32.717864990" lon="35.037322998">
  <ele>367.463379</ele>
  <time>2011-08-20T06:10:41Z</time>
  <speed>1.720000</speed>
</trkpt>
<trkpt lat="32.717895508" lon="35.037334442">
  <ele>367.510254</ele>
  <time>2011-08-20T06:10:43Z</time>
  <speed>1.340000</speed>
</trkpt>
<trkpt lat="32.717918396" lon="35.037357330">
  <ele>367.760254</ele>
  <time>2011-08-20T06:10:45Z</time>
  <speed>1.610000</speed>
</trkpt>
<trkpt lat="32.717941284" lon="35.037380219">
  <ele>367.689941</ele>
  <time>2011-08-20T06:10:47Z</time>
  <speed>1.430000</speed>
</trkpt>
<trkpt lat="32.717971802" lon="35.037399292">
  <ele>368.213379</ele>
  <time>2011-08-20T06:10:49Z</time>
  <speed>1.710000</speed>
</trkpt>
<trkpt lat="32.717994690" lon="35.037418365">
  <ele>368.729004</ele>
  <time>2011-08-20T06:10:51Z</time>
  <speed>1.440000</speed>
</trkpt>
<trkpt lat="32.718029022" lon="35.037441254">
  <ele>369.830566</ele>
  <time>2011-08-20T06:10:53Z</time>
  <speed>1.740000</speed>
</trkpt>
<trkpt lat="32.718070984" lon="35.037464142">
  <ele>370.533691</ele>
  <time>2011-08-20T06:10:56Z</time>
  <speed>1.220000</speed>
</trkpt>
<trkpt lat="32.718093872" lon="35.037490845">
  <ele>371.939941</ele>
  <time>2011-08-20T06:10:59Z</time>
  <speed>1.320000</speed>
</trkpt>
<trkpt lat="32.718116760" lon="35.037509918">
  <ele>371.439941</ele>
  <time>2011-08-20T06:11:02Z</time>
  <speed>1.160000</speed>
</trkpt>
<trkpt lat="32.718143463" lon="35.037540436">
  <ele>372.432129</ele>
  <time>2011-08-20T06:11:05Z</time>
  <speed>1.660000</speed>
</trkpt>
<trkpt lat="32.718170166" lon="35.037563324">
  <ele>372.346191</ele>
  <time>2011-08-20T06:11:08Z</time>
  <speed>1.220000</speed>
</trkpt>
<trkpt lat="32.718196869" lon="35.037570953">
  <ele>372.760254</ele>
  <time>2011-08-20T06:11:10Z</time>
  <speed>1.330000</speed>
</trkpt>
<trkpt lat="32.718227386" lon="35.037574768">
  <ele>372.572754</ele>
  <time>2011-08-20T06:11:12Z</time>
  <speed>0.940000</speed>
</trkpt>
<trkpt lat="32.718254089" lon="35.037578583">
  <ele>373.471191</ele>
  <time>2011-08-20T06:11:15Z</time>
  <speed>1.180000</speed>
</trkpt>
<trkpt lat="32.718276978" lon="35.037597656">
  <ele>374.494629</ele>
  <time>2011-08-20T06:11:18Z</time>
  <speed>0.850000</speed>
</trkpt>
<trkpt lat="32.718303680" lon="35.037605286">
  <ele>374.838379</ele>
  <time>2011-08-20T06:11:21Z</time>
  <speed>1.310000</speed>
</trkpt>
<trkpt lat="32.718341827" lon="35.037609100">
  <ele>375.572754</ele>
  <time>2011-08-20T06:11:24Z</time>
  <speed>1.330000</speed>
</trkpt>
<trkpt lat="32.718372345" lon="35.037620544">
  <ele>376.525879</ele>
  <time>2011-08-20T06:11:27Z</time>
  <speed>1.330000</speed>
</trkpt>
<trkpt lat="32.718406677" lon="35.037631989">
  <ele>377.150879</ele>
  <time>2011-08-20T06:11:30Z</time>
  <speed>1.300000</speed>
</trkpt>
<trkpt lat="32.718441010" lon="35.037639618">
  <ele>376.697754</ele>
  <time>2011-08-20T06:11:33Z</time>
  <speed>1.210000</speed>
</trkpt>
<trkpt lat="32.718463898" lon="35.037654877">
  <ele>377.205566</ele>
  <time>2011-08-20T06:11:36Z</time>
  <speed>1.560000</speed>
</trkpt>
<trkpt lat="32.718490601" lon="35.037670135">
  <ele>376.854004</ele>
  <time>2011-08-20T06:11:38Z</time>
  <speed>1.500000</speed>
</trkpt>
<trkpt lat="32.718517303" lon="35.037677765">
  <ele>377.908691</ele>
  <time>2011-08-20T06:11:40Z</time>
  <speed>1.330000</speed>
</trkpt>
<trkpt lat="32.718536377" lon="35.037696838">
  <ele>378.979004</ele>
  <time>2011-08-20T06:11:42Z</time>
  <speed>1.480000</speed>
</trkpt>
<trkpt lat="32.718555450" lon="35.037723541">
  <ele>379.439941</ele>
  <time>2011-08-20T06:11:44Z</time>
  <speed>1.380000</speed>
</trkpt>
<trkpt lat="32.718570709" lon="35.037750244">
  <ele>379.947754</ele>
  <time>2011-08-20T06:11:47Z</time>
  <speed>1.200000</speed>
</trkpt>
<trkpt lat="32.718589783" lon="35.037776947">
  <ele>379.877441</ele>
  <time>2011-08-20T06:11:49Z</time>
  <speed>1.180000</speed>
</trkpt>
<trkpt lat="32.718616486" lon="35.037811279">
  <ele>379.752441</ele>
  <time>2011-08-20T06:11:52Z</time>
  <speed>1.350000</speed>
</trkpt>
<trkpt lat="32.718639374" lon="35.037845612">
  <ele>379.291504</ele>
  <time>2011-08-20T06:11:55Z</time>
  <speed>1.220000</speed>
</trkpt>
<trkpt lat="32.718669891" lon="35.037868500">
  <ele>377.979004</ele>
  <time>2011-08-20T06:11:58Z</time>
  <speed>1.200000</speed>
</trkpt>
<trkpt lat="32.718700409" lon="35.037887573">
  <ele>377.666504</ele>
  <time>2011-08-20T06:12:01Z</time>
  <speed>1.230000</speed>
</trkpt>
<trkpt lat="32.718730927" lon="35.037902832">
  <ele>377.549316</ele>
  <time>2011-08-20T06:12:03Z</time>
  <speed>1.620000</speed>
</trkpt>
<trkpt lat="32.718769073" lon="35.037914276">
  <ele>377.760254</ele>
  <time>2011-08-20T06:12:06Z</time>
  <speed>1.450000</speed>
</trkpt>
<trkpt lat="32.718795776" lon="35.037925720">
  <ele>379.361816</ele>
  <time>2011-08-20T06:12:09Z</time>
  <speed>1.360000</speed>
</trkpt>
<trkpt lat="32.718818665" lon="35.037944794">
  <ele>379.979004</ele>
  <time>2011-08-20T06:12:11Z</time>
  <speed>1.250000</speed>
</trkpt>
<trkpt lat="32.718856812" lon="35.037956238">
  <ele>380.471191</ele>
  <time>2011-08-20T06:12:14Z</time>
  <speed>1.210000</speed>
</trkpt>
<trkpt lat="32.718898773" lon="35.037971497">
  <ele>380.432129</ele>
  <time>2011-08-20T06:12:16Z</time>
  <speed>1.450000</speed>
</trkpt>
<trkpt lat="32.718921661" lon="35.037982941">
  <ele>381.408691</ele>
  <time>2011-08-20T06:12:18Z</time>
  <speed>1.610000</speed>
</trkpt>
<trkpt lat="32.718948364" lon="35.038005829">
  <ele>382.283691</ele>
  <time>2011-08-20T06:12:21Z</time>
  <speed>1.570000</speed>
</trkpt>
<trkpt lat="32.718975067" lon="35.038032532">
  <ele>382.830566</ele>
  <time>2011-08-20T06:12:23Z</time>
  <speed>1.770000</speed>
</trkpt>
<trkpt lat="32.719001770" lon="35.038059235">
  <ele>383.627441</ele>
  <time>2011-08-20T06:12:25Z</time>
  <speed>1.620000</speed>
</trkpt>
<trkpt lat="32.719009399" lon="35.038101196">
  <ele>383.885254</ele>
  <time>2011-08-20T06:12:31Z</time>
  <speed>0.720000</speed>
</trkpt>
<trkpt lat="32.718994141" lon="35.038135529">
  <ele>384.268066</ele>
  <time>2011-08-20T06:12:35Z</time>
  <speed>0.850000</speed>
</trkpt>
<trkpt lat="32.718975067" lon="35.038158417">
  <ele>384.455566</ele>
  <time>2011-08-20T06:12:38Z</time>
  <speed>0.680000</speed>
</trkpt>
<trkpt lat="32.718959808" lon="35.038192749">
  <ele>384.846191</ele>
  <time>2011-08-20T06:12:43Z</time>
  <speed>0.740000</speed>
</trkpt>
<trkpt lat="32.718925476" lon="35.038192749">
  <ele>385.299316</ele>
  <time>2011-08-20T06:12:47Z</time>
  <speed>1.370000</speed>
</trkpt>
<trkpt lat="32.718891144" lon="35.038188934">
  <ele>385.588379</ele>
  <time>2011-08-20T06:12:50Z</time>
  <speed>1.240000</speed>
</trkpt>
<trkpt lat="32.718860626" lon="35.038188934">
  <ele>386.135254</ele>
  <time>2011-08-20T06:12:52Z</time>
  <speed>1.300000</speed>
</trkpt>
<trkpt lat="32.718830109" lon="35.038192749">
  <ele>386.447754</ele>
  <time>2011-08-20T06:12:54Z</time>
  <speed>1.150000</speed>
</trkpt>
<trkpt lat="32.718791962" lon="35.038196564">
  <ele>387.564941</ele>
  <time>2011-08-20T06:12:56Z</time>
  <speed>1.220000</speed>
</trkpt>
<trkpt lat="32.718765259" lon="35.038196564">
  <ele>387.939941</ele>
  <time>2011-08-20T06:12:58Z</time>
  <speed>1.280000</speed>
</trkpt>
<trkpt lat="32.718734741" lon="35.038208008">
  <ele>388.408691</ele>
  <time>2011-08-20T06:13:01Z</time>
  <speed>1.130000</speed>
</trkpt>
<trkpt lat="32.718700409" lon="35.038215637">
  <ele>389.791504</ele>
  <time>2011-08-20T06:13:03Z</time>
  <speed>1.580000</speed>
</trkpt>
<trkpt lat="32.718666077" lon="35.038230896">
  <ele>391.236816</ele>
  <time>2011-08-20T06:13:05Z</time>
  <speed>1.450000</speed>
</trkpt>
<trkpt lat="32.718639374" lon="35.038261414">
  <ele>391.564941</ele>
  <time>2011-08-20T06:13:08Z</time>
  <speed>1.410000</speed>
</trkpt>
<trkpt lat="32.718601227" lon="35.038257599">
  <ele>391.814941</ele>
  <time>2011-08-20T06:13:12Z</time>
  <speed>1.290000</speed>
</trkpt>
<trkpt lat="32.718578339" lon="35.038272858">
  <ele>392.541504</ele>
  <time>2011-08-20T06:13:14Z</time>
  <speed>1.520000</speed>
</trkpt>
<trkpt lat="32.718547821" lon="35.038272858">
  <ele>392.814941</ele>
  <time>2011-08-20T06:13:16Z</time>
  <speed>1.660000</speed>
</trkpt>
<trkpt lat="32.718521118" lon="35.038288116">
  <ele>392.713379</ele>
  <time>2011-08-20T06:13:18Z</time>
  <speed>1.350000</speed>
</trkpt>
<trkpt lat="32.718486786" lon="35.038314819">
  <ele>392.760254</ele>
  <time>2011-08-20T06:13:21Z</time>
  <speed>1.310000</speed>
</trkpt>
<trkpt lat="32.718463898" lon="35.038352966">
  <ele>393.822754</ele>
  <time>2011-08-20T06:13:23Z</time>
  <speed>1.600000</speed>
</trkpt>
<trkpt lat="32.718460083" lon="35.038394928">
  <ele>394.291504</ele>
  <time>2011-08-20T06:13:25Z</time>
  <speed>1.630000</speed>
</trkpt>
<trkpt lat="32.718444824" lon="35.038429260">
  <ele>395.541504</ele>
  <time>2011-08-20T06:13:27Z</time>
  <speed>1.690000</speed>
</trkpt>
<trkpt lat="32.718441010" lon="35.038463593">
  <ele>396.229004</ele>
  <time>2011-08-20T06:13:29Z</time>
  <speed>1.390000</speed>
</trkpt>
<trkpt lat="32.718437195" lon="35.038501740">
  <ele>397.025879</ele>
  <time>2011-08-20T06:13:31Z</time>
  <speed>1.360000</speed>
</trkpt>
<trkpt lat="32.718444824" lon="35.038532257">
  <ele>397.721191</ele>
  <time>2011-08-20T06:13:33Z</time>
  <speed>1.230000</speed>
</trkpt>
<trkpt lat="32.718460083" lon="35.038562775">
  <ele>397.135254</ele>
  <time>2011-08-20T06:13:35Z</time>
  <speed>1.380000</speed>
</trkpt>
<trkpt lat="32.718479156" lon="35.038597107">
  <ele>396.830566</ele>
  <time>2011-08-20T06:13:38Z</time>
  <speed>1.610000</speed>
</trkpt>
<trkpt lat="32.718494415" lon="35.038631439">
  <ele>396.416504</ele>
  <time>2011-08-20T06:13:40Z</time>
  <speed>1.430000</speed>
</trkpt>
<trkpt lat="32.718502045" lon="35.038665771">
  <ele>395.322754</ele>
  <time>2011-08-20T06:13:42Z</time>
  <speed>1.690000</speed>
</trkpt>
<trkpt lat="32.718517303" lon="35.038711548">
  <ele>395.432129</ele>
  <time>2011-08-20T06:13:44Z</time>
  <speed>1.870000</speed>
</trkpt>
<trkpt lat="32.718524933" lon="35.038749695">
  <ele>395.213379</ele>
  <time>2011-08-20T06:13:46Z</time>
  <speed>1.910000</speed>
</trkpt>
<trkpt lat="32.718536377" lon="35.038784027">
  <ele>395.338379</ele>
  <time>2011-08-20T06:13:48Z</time>
  <speed>1.610000</speed>
</trkpt>
<trkpt lat="32.718540192" lon="35.038818359">
  <ele>394.807129</ele>
  <time>2011-08-20T06:13:50Z</time>
  <speed>1.770000</speed>
</trkpt>
<trkpt lat="32.718547821" lon="35.038848877">
  <ele>395.979004</ele>
  <time>2011-08-20T06:13:52Z</time>
  <speed>1.780000</speed>
</trkpt>
<trkpt lat="32.718551636" lon="35.038887024">
  <ele>396.354004</ele>
  <time>2011-08-20T06:13:54Z</time>
  <speed>1.700000</speed>
</trkpt>
<trkpt lat="32.718555450" lon="35.038925171">
  <ele>397.947754</ele>
  <time>2011-08-20T06:13:56Z</time>
  <speed>1.530000</speed>
</trkpt>
<trkpt lat="32.718559265" lon="35.038959503">
  <ele>398.611816</ele>
  <time>2011-08-20T06:13:58Z</time>
  <speed>1.540000</speed>
</trkpt>
<trkpt lat="32.718559265" lon="35.038990021">
  <ele>399.064941</ele>
  <time>2011-08-20T06:14:00Z</time>
  <speed>1.520000</speed>
</trkpt>
<trkpt lat="32.718563080" lon="35.039035797">
  <ele>400.338379</ele>
  <time>2011-08-20T06:14:03Z</time>
  <speed>1.620000</speed>
</trkpt>
<trkpt lat="32.718574524" lon="35.039081573">
  <ele>401.299316</ele>
  <time>2011-08-20T06:14:06Z</time>
  <speed>1.760000</speed>
</trkpt>
<trkpt lat="32.718593597" lon="35.039119720">
  <ele>402.775879</ele>
  <time>2011-08-20T06:14:08Z</time>
  <speed>1.730000</speed>
</trkpt>
<trkpt lat="32.718608856" lon="35.039146423">
  <ele>403.158691</ele>
  <time>2011-08-20T06:14:10Z</time>
  <speed>1.540000</speed>
</trkpt>
<trkpt lat="32.718627930" lon="35.039176941">
  <ele>403.502441</ele>
  <time>2011-08-20T06:14:13Z</time>
  <speed>1.030000</speed>
</trkpt>
<trkpt lat="32.718643188" lon="35.039226532">
  <ele>403.119629</ele>
  <time>2011-08-20T06:14:16Z</time>
  <speed>1.320000</speed>
</trkpt>
<trkpt lat="32.718666077" lon="35.039257050">
  <ele>403.049316</ele>
  <time>2011-08-20T06:14:19Z</time>
  <speed>1.230000</speed>
</trkpt>
<trkpt lat="32.718685150" lon="35.039287567">
  <ele>402.814941</ele>
  <time>2011-08-20T06:14:22Z</time>
  <speed>1.330000</speed>
</trkpt>
<trkpt lat="32.718700409" lon="35.039318085">
  <ele>402.721191</ele>
  <time>2011-08-20T06:14:25Z</time>
  <speed>1.170000</speed>
</trkpt>
<trkpt lat="32.718715668" lon="35.039360046">
  <ele>402.893066</ele>
  <time>2011-08-20T06:14:28Z</time>
  <speed>1.540000</speed>
</trkpt>
<trkpt lat="32.718723297" lon="35.039390564">
  <ele>403.455566</ele>
  <time>2011-08-20T06:14:30Z</time>
  <speed>1.250000</speed>
</trkpt>
<trkpt lat="32.718730927" lon="35.039436340">
  <ele>404.588379</ele>
  <time>2011-08-20T06:14:33Z</time>
  <speed>1.280000</speed>
</trkpt>
<trkpt lat="32.718727112" lon="35.039466858">
  <ele>405.111816</ele>
  <time>2011-08-20T06:14:36Z</time>
  <speed>1.330000</speed>
</trkpt>
<trkpt lat="32.718715668" lon="35.039505005">
  <ele>405.135254</ele>
  <time>2011-08-20T06:14:38Z</time>
  <speed>1.340000</speed>
</trkpt>
<trkpt lat="32.718708038" lon="35.039546967">
  <ele>404.713379</ele>
  <time>2011-08-20T06:14:41Z</time>
  <speed>1.440000</speed>
</trkpt>
<trkpt lat="32.718723297" lon="35.039592743">
  <ele>404.307129</ele>
  <time>2011-08-20T06:14:44Z</time>
  <speed>1.940000</speed>
</trkpt>
<trkpt lat="32.718738556" lon="35.039630890">
  <ele>403.533691</ele>
  <time>2011-08-20T06:14:46Z</time>
  <speed>1.780000</speed>
</trkpt>
<trkpt lat="32.718750000" lon="35.039669037">
  <ele>403.002441</ele>
  <time>2011-08-20T06:14:48Z</time>
  <speed>1.790000</speed>
</trkpt>
<trkpt lat="32.718753815" lon="35.039710999">
  <ele>402.572754</ele>
  <time>2011-08-20T06:14:50Z</time>
  <speed>1.700000</speed>
</trkpt>
<trkpt lat="32.718769073" lon="35.039749146">
  <ele>402.533691</ele>
  <time>2011-08-20T06:14:52Z</time>
  <speed>2.110000</speed>
</trkpt>
<trkpt lat="32.718776703" lon="35.039787292">
  <ele>402.697754</ele>
  <time>2011-08-20T06:14:54Z</time>
  <speed>1.760000</speed>
</trkpt>
<trkpt lat="32.718791962" lon="35.039817810">
  <ele>402.197754</ele>
  <time>2011-08-20T06:14:56Z</time>
  <speed>1.620000</speed>
</trkpt>
<trkpt lat="32.718811035" lon="35.039852142">
  <ele>402.369629</ele>
  <time>2011-08-20T06:14:58Z</time>
  <speed>1.720000</speed>
</trkpt>
<trkpt lat="32.718826294" lon="35.039890289">
  <ele>402.150879</ele>
  <time>2011-08-20T06:15:00Z</time>
  <speed>1.880000</speed>
</trkpt>
<trkpt lat="32.718830109" lon="35.039936066">
  <ele>402.799316</ele>
  <time>2011-08-20T06:15:02Z</time>
  <speed>2.230000</speed>
</trkpt>
<trkpt lat="32.718852997" lon="35.039985657">
  <ele>402.127441</ele>
  <time>2011-08-20T06:15:04Z</time>
  <speed>3.430000</speed>
</trkpt>
<trkpt lat="32.718856812" lon="35.040019989">
  <ele>401.908691</ele>
  <time>2011-08-20T06:15:05Z</time>
  <speed>3.580000</speed>
</trkpt>
<trkpt lat="32.718868256" lon="35.040058136">
  <ele>401.932129</ele>
  <time>2011-08-20T06:15:06Z</time>
  <speed>3.770000</speed>
</trkpt>
<trkpt lat="32.718883514" lon="35.040100098">
  <ele>401.963379</ele>
  <time>2011-08-20T06:15:07Z</time>
  <speed>3.880000</speed>
</trkpt>
<trkpt lat="32.718891144" lon="35.040138245">
  <ele>401.947754</ele>
  <time>2011-08-20T06:15:08Z</time>
  <speed>3.820000</speed>
</trkpt>
<trkpt lat="32.718894958" lon="35.040176392">
  <ele>400.799316</ele>
  <time>2011-08-20T06:15:09Z</time>
  <speed>3.510000</speed>
</trkpt>
<trkpt lat="32.718902588" lon="35.040214539">
  <ele>400.564941</ele>
  <time>2011-08-20T06:15:10Z</time>
  <speed>3.120000</speed>
</trkpt>
<trkpt lat="32.718917847" lon="35.040248871">
  <ele>400.564941</ele>
  <time>2011-08-20T06:15:11Z</time>
  <speed>2.940000</speed>
</trkpt>
<trkpt lat="32.718925476" lon="35.040279388">
  <ele>399.830566</ele>
  <time>2011-08-20T06:15:12Z</time>
  <speed>2.480000</speed>
</trkpt>
<trkpt lat="32.718936920" lon="35.040321350">
  <ele>399.736816</ele>
  <time>2011-08-20T06:15:14Z</time>
  <speed>2.020000</speed>
</trkpt>
<trkpt lat="32.718955994" lon="35.040359497">
  <ele>400.533691</ele>
  <time>2011-08-20T06:15:16Z</time>
  <speed>1.850000</speed>
</trkpt>
<trkpt lat="32.718959808" lon="35.040405273">
  <ele>401.088379</ele>
  <time>2011-08-20T06:15:18Z</time>
  <speed>1.850000</speed>
</trkpt>
<trkpt lat="32.718978882" lon="35.040439606">
  <ele>402.096191</ele>
  <time>2011-08-20T06:15:20Z</time>
  <speed>1.960000</speed>
</trkpt>
<trkpt lat="32.718986511" lon="35.040485382">
  <ele>403.471191</ele>
  <time>2011-08-20T06:15:22Z</time>
  <speed>1.830000</speed>
</trkpt>
<trkpt lat="32.718997955" lon="35.040531158">
  <ele>403.033691</ele>
  <time>2011-08-20T06:15:25Z</time>
  <speed>1.700000</speed>
</trkpt>
<trkpt lat="32.719024658" lon="35.040576935">
  <ele>403.268066</ele>
  <time>2011-08-20T06:15:27Z</time>
  <speed>2.030000</speed>
</trkpt>
<trkpt lat="32.719055176" lon="35.040607452">
  <ele>402.596191</ele>
  <time>2011-08-20T06:15:29Z</time>
  <speed>1.630000</speed>
</trkpt>
<trkpt lat="32.719070435" lon="35.040630341">
  <ele>403.150879</ele>
  <time>2011-08-20T06:15:31Z</time>
  <speed>1.730000</speed>
</trkpt>
<trkpt lat="32.719093323" lon="35.040664673">
  <ele>403.455566</ele>
  <time>2011-08-20T06:15:33Z</time>
  <speed>1.940000</speed>
</trkpt>
<trkpt lat="32.719116211" lon="35.040687561">
  <ele>403.627441</ele>
  <time>2011-08-20T06:15:35Z</time>
  <speed>1.550000</speed>
</trkpt>
<trkpt lat="32.719135284" lon="35.040718079">
  <ele>403.197754</ele>
  <time>2011-08-20T06:15:37Z</time>
  <speed>1.600000</speed>
</trkpt>
<trkpt lat="32.719158173" lon="35.040760040">
  <ele>403.205566</ele>
  <time>2011-08-20T06:15:40Z</time>
  <speed>1.480000</speed>
</trkpt>
<trkpt lat="32.719184875" lon="35.040798187">
  <ele>404.721191</ele>
  <time>2011-08-20T06:15:43Z</time>
  <speed>1.760000</speed>
</trkpt>
<trkpt lat="32.719207764" lon="35.040821075">
  <ele>405.791504</ele>
  <time>2011-08-20T06:15:45Z</time>
  <speed>1.440000</speed>
</trkpt>
<trkpt lat="32.719238281" lon="35.040855408">
  <ele>406.439941</ele>
  <time>2011-08-20T06:15:48Z</time>
  <speed>1.670000</speed>
</trkpt>
<trkpt lat="32.719261169" lon="35.040889740">
  <ele>406.025879</ele>
  <time>2011-08-20T06:15:51Z</time>
  <speed>1.400000</speed>
</trkpt>
<trkpt lat="32.719276428" lon="35.040924072">
  <ele>407.182129</ele>
  <time>2011-08-20T06:15:53Z</time>
  <speed>1.780000</speed>
</trkpt>
<trkpt lat="32.719295502" lon="35.040946960">
  <ele>406.893066</ele>
  <time>2011-08-20T06:15:55Z</time>
  <speed>2.030000</speed>
</trkpt>
<trkpt lat="32.719322205" lon="35.040977478">
  <ele>406.807129</ele>
  <time>2011-08-20T06:15:57Z</time>
  <speed>1.720000</speed>
</trkpt>
<trkpt lat="32.719341278" lon="35.041015625">
  <ele>406.635254</ele>
  <time>2011-08-20T06:15:59Z</time>
  <speed>1.920000</speed>
</trkpt>
<trkpt lat="32.719356537" lon="35.041049957">
  <ele>407.088379</ele>
  <time>2011-08-20T06:16:01Z</time>
  <speed>1.740000</speed>
</trkpt>
<trkpt lat="32.719375610" lon="35.041080475">
  <ele>407.119629</ele>
  <time>2011-08-20T06:16:03Z</time>
  <speed>1.770000</speed>
</trkpt>
<trkpt lat="32.719406128" lon="35.041110992">
  <ele>406.791504</ele>
  <time>2011-08-20T06:16:05Z</time>
  <speed>1.680000</speed>
</trkpt>
<trkpt lat="32.719425201" lon="35.041145325">
  <ele>407.119629</ele>
  <time>2011-08-20T06:16:07Z</time>
  <speed>1.770000</speed>
</trkpt>
<trkpt lat="32.719440460" lon="35.041175842">
  <ele>406.885254</ele>
  <time>2011-08-20T06:16:09Z</time>
  <speed>1.890000</speed>
</trkpt>
<trkpt lat="32.719455719" lon="35.041210175">
  <ele>406.791504</ele>
  <time>2011-08-20T06:16:11Z</time>
  <speed>1.650000</speed>
</trkpt>
<trkpt lat="32.719463348" lon="35.041240692">
  <ele>407.150879</ele>
  <time>2011-08-20T06:16:13Z</time>
  <speed>1.690000</speed>
</trkpt>
<trkpt lat="32.719478607" lon="35.041267395">
  <ele>406.760254</ele>
  <time>2011-08-20T06:16:15Z</time>
  <speed>1.730000</speed>
</trkpt>
<trkpt lat="32.719497681" lon="35.041301727">
  <ele>406.760254</ele>
  <time>2011-08-20T06:16:17Z</time>
  <speed>1.780000</speed>
</trkpt>
<trkpt lat="32.719520569" lon="35.041336060">
  <ele>406.979004</ele>
  <time>2011-08-20T06:16:20Z</time>
  <speed>1.690000</speed>
</trkpt>
<trkpt lat="32.719539642" lon="35.041366577">
  <ele>407.533691</ele>
  <time>2011-08-20T06:16:22Z</time>
  <speed>1.720000</speed>
</trkpt>
<trkpt lat="32.719558716" lon="35.041412354">
  <ele>407.666504</ele>
  <time>2011-08-20T06:16:25Z</time>
  <speed>1.930000</speed>
</trkpt>
<trkpt lat="32.719562531" lon="35.041465759">
  <ele>407.697754</ele>
  <time>2011-08-20T06:16:27Z</time>
  <speed>3.290000</speed>
</trkpt>
<trkpt lat="32.719566345" lon="35.041507721">
  <ele>407.713379</ele>
  <time>2011-08-20T06:16:28Z</time>
  <speed>4.110000</speed>
</trkpt>
<trkpt lat="32.719577789" lon="35.041557312">
  <ele>407.729004</ele>
  <time>2011-08-20T06:16:29Z</time>
  <speed>4.850000</speed>
</trkpt>
<trkpt lat="32.719589233" lon="35.041603088">
  <ele>407.658691</ele>
  <time>2011-08-20T06:16:30Z</time>
  <speed>4.620000</speed>
</trkpt>
<trkpt lat="32.719608307" lon="35.041648865">
  <ele>406.924316</ele>
  <time>2011-08-20T06:16:31Z</time>
  <speed>4.700000</speed>
</trkpt>
<trkpt lat="32.719631195" lon="35.041694641">
  <ele>406.611816</ele>
  <time>2011-08-20T06:16:32Z</time>
  <speed>4.670000</speed>
</trkpt>
<trkpt lat="32.719669342" lon="35.041721344">
  <ele>406.189941</ele>
  <time>2011-08-20T06:16:33Z</time>
  <speed>4.980000</speed>
</trkpt>
<trkpt lat="32.719715118" lon="35.041740417">
  <ele>405.658691</ele>
  <time>2011-08-20T06:16:34Z</time>
  <speed>5.740000</speed>
</trkpt>
<trkpt lat="32.719768524" lon="35.041755676">
  <ele>405.283691</ele>
  <time>2011-08-20T06:16:35Z</time>
  <speed>6.330000</speed>
</trkpt>
<trkpt lat="32.719837189" lon="35.041759491">
  <ele>405.244629</ele>
  <time>2011-08-20T06:16:36Z</time>
  <speed>6.770000</speed>
</trkpt>
<trkpt lat="32.719894409" lon="35.041767120">
  <ele>405.088379</ele>
  <time>2011-08-20T06:16:37Z</time>
  <speed>6.000000</speed>
</trkpt>
<trkpt lat="32.719947815" lon="35.041790009">
  <ele>404.541504</ele>
  <time>2011-08-20T06:16:38Z</time>
  <speed>6.450000</speed>
</trkpt>
<trkpt lat="32.719985962" lon="35.041831970">
  <ele>403.916504</ele>
  <time>2011-08-20T06:16:39Z</time>
  <speed>5.290000</speed>
</trkpt>
<trkpt lat="32.720005035" lon="35.041885376">
  <ele>403.307129</ele>
  <time>2011-08-20T06:16:40Z</time>
  <speed>5.300000</speed>
</trkpt>
<trkpt lat="32.720020294" lon="35.041942596">
  <ele>402.627441</ele>
  <time>2011-08-20T06:16:41Z</time>
  <speed>5.350000</speed>
</trkpt>
<trkpt lat="32.720020294" lon="35.042003632">
  <ele>402.322754</ele>
  <time>2011-08-20T06:16:42Z</time>
  <speed>5.830000</speed>
</trkpt>
<trkpt lat="32.720035553" lon="35.042068481">
  <ele>401.541504</ele>
  <time>2011-08-20T06:16:43Z</time>
  <speed>5.810000</speed>
</trkpt>
<trkpt lat="32.720062256" lon="35.042121887">
  <ele>400.799316</ele>
  <time>2011-08-20T06:16:44Z</time>
  <speed>5.850000</speed>
</trkpt>
<trkpt lat="32.720096588" lon="35.042171478">
  <ele>400.588379</ele>
  <time>2011-08-20T06:16:45Z</time>
  <speed>6.150000</speed>
</trkpt>
<trkpt lat="32.720138550" lon="35.042217255">
  <ele>399.986816</ele>
  <time>2011-08-20T06:16:46Z</time>
  <speed>6.220000</speed>
</trkpt>
<trkpt lat="32.720195770" lon="35.042255402">
  <ele>398.947754</ele>
  <time>2011-08-20T06:16:47Z</time>
  <speed>6.280000</speed>
</trkpt>
<trkpt lat="32.720237732" lon="35.042293549">
  <ele>398.604004</ele>
  <time>2011-08-20T06:16:48Z</time>
  <speed>5.810000</speed>
</trkpt>
<trkpt lat="32.720272064" lon="35.042335510">
  <ele>398.143066</ele>
  <time>2011-08-20T06:16:49Z</time>
  <speed>5.770000</speed>
</trkpt>
<trkpt lat="32.720317841" lon="35.042381287">
  <ele>398.174316</ele>
  <time>2011-08-20T06:16:50Z</time>
  <speed>5.820000</speed>
</trkpt>
<trkpt lat="32.720348358" lon="35.042427063">
  <ele>397.393066</ele>
  <time>2011-08-20T06:16:51Z</time>
  <speed>5.120000</speed>
</trkpt>
<trkpt lat="32.720375061" lon="35.042472839">
  <ele>397.283691</ele>
  <time>2011-08-20T06:16:52Z</time>
  <speed>4.660000</speed>
</trkpt>
<trkpt lat="32.720401764" lon="35.042507172">
  <ele>396.564941</ele>
  <time>2011-08-20T06:16:53Z</time>
  <speed>4.270000</speed>
</trkpt>
<trkpt lat="32.720428467" lon="35.042537689">
  <ele>396.354004</ele>
  <time>2011-08-20T06:16:54Z</time>
  <speed>4.260000</speed>
</trkpt>
<trkpt lat="32.720451355" lon="35.042575836">
  <ele>395.729004</ele>
  <time>2011-08-20T06:16:55Z</time>
  <speed>3.720000</speed>
</trkpt>
<trkpt lat="32.720481873" lon="35.042606354">
  <ele>395.221191</ele>
  <time>2011-08-20T06:16:56Z</time>
  <speed>3.280000</speed>
</trkpt>
<trkpt lat="32.720497131" lon="35.042633057">
  <ele>396.447754</ele>
  <time>2011-08-20T06:16:57Z</time>
  <speed>2.770000</speed>
</trkpt>
<trkpt lat="32.720520020" lon="35.042663574">
  <ele>396.104004</ele>
  <time>2011-08-20T06:16:59Z</time>
  <speed>2.400000</speed>
</trkpt>
<trkpt lat="32.720542908" lon="35.042701721">
  <ele>396.643066</ele>
  <time>2011-08-20T06:17:01Z</time>
  <speed>2.520000</speed>
</trkpt>
<trkpt lat="32.720569611" lon="35.042743683">
  <ele>396.986816</ele>
  <time>2011-08-20T06:17:03Z</time>
  <speed>2.070000</speed>
</trkpt>
<trkpt lat="32.720588684" lon="35.042781830">
  <ele>397.213379</ele>
  <time>2011-08-20T06:17:05Z</time>
  <speed>1.830000</speed>
</trkpt>
<trkpt lat="32.720596313" lon="35.042827606">
  <ele>397.822754</ele>
  <time>2011-08-20T06:17:07Z</time>
  <speed>1.900000</speed>
</trkpt>
<trkpt lat="32.720600128" lon="35.042858124">
  <ele>398.721191</ele>
  <time>2011-08-20T06:17:09Z</time>
  <speed>1.910000</speed>
</trkpt>
<trkpt lat="32.720619202" lon="35.042884827">
  <ele>399.088379</ele>
  <time>2011-08-20T06:17:11Z</time>
  <speed>1.600000</speed>
</trkpt>
<trkpt lat="32.720642090" lon="35.042915344">
  <ele>399.338379</ele>
  <time>2011-08-20T06:17:13Z</time>
  <speed>1.640000</speed>
</trkpt>
<trkpt lat="32.720676422" lon="35.042953491">
  <ele>401.393066</ele>
  <time>2011-08-20T06:17:15Z</time>
  <speed>1.970000</speed>
</trkpt>
<trkpt lat="32.720699310" lon="35.042984009">
  <ele>401.947754</ele>
  <time>2011-08-20T06:17:17Z</time>
  <speed>1.670000</speed>
</trkpt>
<trkpt lat="32.720726013" lon="35.043006897">
  <ele>402.830566</ele>
  <time>2011-08-20T06:17:19Z</time>
  <speed>1.610000</speed>
</trkpt>
<trkpt lat="32.720764160" lon="35.043033600">
  <ele>402.486816</ele>
  <time>2011-08-20T06:17:22Z</time>
  <speed>1.880000</speed>
</trkpt>
<trkpt lat="32.720775604" lon="35.043064117">
  <ele>403.104004</ele>
  <time>2011-08-20T06:17:24Z</time>
  <speed>1.620000</speed>
</trkpt>
<trkpt lat="32.720802307" lon="35.043087006">
  <ele>404.197754</ele>
  <time>2011-08-20T06:17:27Z</time>
  <speed>1.660000</speed>
</trkpt>
<trkpt lat="32.720836639" lon="35.043102264">
  <ele>405.424316</ele>
  <time>2011-08-20T06:17:29Z</time>
  <speed>1.630000</speed>
</trkpt>
<trkpt lat="32.720863342" lon="35.043144226">
  <ele>406.416504</ele>
  <time>2011-08-20T06:17:31Z</time>
  <speed>1.610000</speed>
</trkpt>
<trkpt lat="32.720882416" lon="35.043170929">
  <ele>406.924316</ele>
  <time>2011-08-20T06:17:33Z</time>
  <speed>1.180000</speed>
</trkpt>
<trkpt lat="32.720905304" lon="35.043197632">
  <ele>407.229004</ele>
  <time>2011-08-20T06:17:36Z</time>
  <speed>1.130000</speed>
</trkpt>
<trkpt lat="32.720924377" lon="35.043220520">
  <ele>407.260254</ele>
  <time>2011-08-20T06:17:38Z</time>
  <speed>1.500000</speed>
</trkpt>
<trkpt lat="32.720947266" lon="35.043239594">
  <ele>407.830566</ele>
  <time>2011-08-20T06:17:40Z</time>
  <speed>1.480000</speed>
</trkpt>
<trkpt lat="32.720970154" lon="35.043262482">
  <ele>407.924316</ele>
  <time>2011-08-20T06:17:42Z</time>
  <speed>1.870000</speed>
</trkpt>
<trkpt lat="32.721015930" lon="35.043277740">
  <ele>408.096191</ele>
  <time>2011-08-20T06:17:44Z</time>
  <speed>1.990000</speed>
</trkpt>
<trkpt lat="32.721038818" lon="35.043304443">
  <ele>408.510254</ele>
  <time>2011-08-20T06:17:46Z</time>
  <speed>2.170000</speed>
</trkpt>
<trkpt lat="32.721073151" lon="35.043323517">
  <ele>408.361816</ele>
  <time>2011-08-20T06:17:48Z</time>
  <speed>2.000000</speed>
</trkpt>
<trkpt lat="32.721111298" lon="35.043331146">
  <ele>407.854004</ele>
  <time>2011-08-20T06:17:50Z</time>
  <speed>2.040000</speed>
</trkpt>
<trkpt lat="32.721138000" lon="35.043354034">
  <ele>407.861816</ele>
  <time>2011-08-20T06:17:52Z</time>
  <speed>2.290000</speed>
</trkpt>
<trkpt lat="32.721172333" lon="35.043376923">
  <ele>408.346191</ele>
  <time>2011-08-20T06:17:54Z</time>
  <speed>2.510000</speed>
</trkpt>
<trkpt lat="32.721206665" lon="35.043411255">
  <ele>408.268066</ele>
  <time>2011-08-20T06:17:56Z</time>
  <speed>2.380000</speed>
</trkpt>
<trkpt lat="32.721229553" lon="35.043426514">
  <ele>408.189941</ele>
  <time>2011-08-20T06:17:57Z</time>
  <speed>2.310000</speed>
</trkpt>
<trkpt lat="32.721263885" lon="35.043449402">
  <ele>407.221191</ele>
  <time>2011-08-20T06:17:59Z</time>
  <speed>2.180000</speed>
</trkpt>
<trkpt lat="32.721302032" lon="35.043468475">
  <ele>407.252441</ele>
  <time>2011-08-20T06:18:01Z</time>
  <speed>2.110000</speed>
</trkpt>
<trkpt lat="32.721332550" lon="35.043495178">
  <ele>406.736816</ele>
  <time>2011-08-20T06:18:03Z</time>
  <speed>2.220000</speed>
</trkpt>
<trkpt lat="32.721366882" lon="35.043518066">
  <ele>405.869629</ele>
  <time>2011-08-20T06:18:05Z</time>
  <speed>2.560000</speed>
</trkpt>
<trkpt lat="32.721401215" lon="35.043560028">
  <ele>405.143066</ele>
  <time>2011-08-20T06:18:07Z</time>
  <speed>2.630000</speed>
</trkpt>
<trkpt lat="32.721424103" lon="35.043571472">
  <ele>404.768066</ele>
  <time>2011-08-20T06:18:08Z</time>
  <speed>2.630000</speed>
</trkpt>
<trkpt lat="32.721454620" lon="35.043586731">
  <ele>404.596191</ele>
  <time>2011-08-20T06:18:09Z</time>
  <speed>2.620000</speed>
</trkpt>
<trkpt lat="32.721488953" lon="35.043617249">
  <ele>404.189941</ele>
  <time>2011-08-20T06:18:11Z</time>
  <speed>2.710000</speed>
</trkpt>
<trkpt lat="32.721530914" lon="35.043643951">
  <ele>404.775879</ele>
  <time>2011-08-20T06:18:13Z</time>
  <speed>2.650000</speed>
</trkpt>
<trkpt lat="32.721565247" lon="35.043670654">
  <ele>404.580566</ele>
  <time>2011-08-20T06:18:15Z</time>
  <speed>2.490000</speed>
</trkpt>
<trkpt lat="32.721607208" lon="35.043693542">
  <ele>405.408691</ele>
  <time>2011-08-20T06:18:17Z</time>
  <speed>2.170000</speed>
</trkpt>
<trkpt lat="32.721633911" lon="35.043704987">
  <ele>404.861816</ele>
  <time>2011-08-20T06:18:18Z</time>
  <speed>2.720000</speed>
</trkpt>
<trkpt lat="32.721672058" lon="35.043731689">
  <ele>405.650879</ele>
  <time>2011-08-20T06:18:20Z</time>
  <speed>2.430000</speed>
</trkpt>
<trkpt lat="32.721710205" lon="35.043754578">
  <ele>406.619629</ele>
  <time>2011-08-20T06:18:22Z</time>
  <speed>2.460000</speed>
</trkpt>
<trkpt lat="32.721736908" lon="35.043758392">
  <ele>406.455566</ele>
  <time>2011-08-20T06:18:23Z</time>
  <speed>2.440000</speed>
</trkpt>
<trkpt lat="32.721778870" lon="35.043785095">
  <ele>407.072754</ele>
  <time>2011-08-20T06:18:25Z</time>
  <speed>2.540000</speed>
</trkpt>
<trkpt lat="32.721813202" lon="35.043800354">
  <ele>408.080566</ele>
  <time>2011-08-20T06:18:26Z</time>
  <speed>2.640000</speed>
</trkpt>
<trkpt lat="32.721862793" lon="35.043834686">
  <ele>409.439941</ele>
  <time>2011-08-20T06:18:28Z</time>
  <speed>2.730000</speed>
</trkpt>
<trkpt lat="32.721900940" lon="35.043861389">
  <ele>410.064941</ele>
  <time>2011-08-20T06:18:30Z</time>
  <speed>2.580000</speed>
</trkpt>
<trkpt lat="32.721935272" lon="35.043891907">
  <ele>410.244629</ele>
  <time>2011-08-20T06:18:32Z</time>
  <speed>2.240000</speed>
</trkpt>
<trkpt lat="32.721965790" lon="35.043918610">
  <ele>409.713379</ele>
  <time>2011-08-20T06:18:34Z</time>
  <speed>2.280000</speed>
</trkpt>
<trkpt lat="32.721981049" lon="35.043952942">
  <ele>410.932129</ele>
  <time>2011-08-20T06:18:36Z</time>
  <speed>1.970000</speed>
</trkpt>
<trkpt lat="32.722011566" lon="35.043975830">
  <ele>411.314941</ele>
  <time>2011-08-20T06:18:38Z</time>
  <speed>2.030000</speed>
</trkpt>
<trkpt lat="32.722049713" lon="35.044006348">
  <ele>412.439941</ele>
  <time>2011-08-20T06:18:40Z</time>
  <speed>2.240000</speed>
</trkpt>
<trkpt lat="32.722064972" lon="35.044029236">
  <ele>412.893066</ele>
  <time>2011-08-20T06:18:41Z</time>
  <speed>2.330000</speed>
</trkpt>
<trkpt lat="32.722099304" lon="35.044059753">
  <ele>412.752441</ele>
  <time>2011-08-20T06:18:43Z</time>
  <speed>2.040000</speed>
</trkpt>
<trkpt lat="32.722129822" lon="35.044082642">
  <ele>412.744629</ele>
  <time>2011-08-20T06:18:45Z</time>
  <speed>2.080000</speed>
</trkpt>
<trkpt lat="32.722160339" lon="35.044116974">
  <ele>414.088379</ele>
  <time>2011-08-20T06:18:47Z</time>
  <speed>2.130000</speed>
</trkpt>
<trkpt lat="32.722183228" lon="35.044147491">
  <ele>413.854004</ele>
  <time>2011-08-20T06:18:49Z</time>
  <speed>2.270000</speed>
</trkpt>
<trkpt lat="32.722202301" lon="35.044185638">
  <ele>414.947754</ele>
  <time>2011-08-20T06:18:51Z</time>
  <speed>2.100000</speed>
</trkpt>
<trkpt lat="32.722221375" lon="35.044231415">
  <ele>414.299316</ele>
  <time>2011-08-20T06:18:53Z</time>
  <speed>2.360000</speed>
</trkpt>
<trkpt lat="32.722244263" lon="35.044265747">
  <ele>415.033691</ele>
  <time>2011-08-20T06:18:55Z</time>
  <speed>1.820000</speed>
</trkpt>
<trkpt lat="32.722278595" lon="35.044296265">
  <ele>415.721191</ele>
  <time>2011-08-20T06:18:57Z</time>
  <speed>2.070000</speed>
</trkpt>
<trkpt lat="32.722301483" lon="35.044326782">
  <ele>416.369629</ele>
  <time>2011-08-20T06:18:59Z</time>
  <speed>1.970000</speed>
</trkpt>
<trkpt lat="32.722312927" lon="35.044364929">
  <ele>417.611816</ele>
  <time>2011-08-20T06:19:01Z</time>
  <speed>1.940000</speed>
</trkpt>
<trkpt lat="32.722324371" lon="35.044403076">
  <ele>418.330566</ele>
  <time>2011-08-20T06:19:03Z</time>
  <speed>1.890000</speed>
</trkpt>
<trkpt lat="32.722343445" lon="35.044445038">
  <ele>417.979004</ele>
  <time>2011-08-20T06:19:05Z</time>
  <speed>1.560000</speed>
</trkpt>
<trkpt lat="32.722362518" lon="35.044479370">
  <ele>418.416504</ele>
  <time>2011-08-20T06:19:07Z</time>
  <speed>1.850000</speed>
</trkpt>
<trkpt lat="32.722381592" lon="35.044517517">
  <ele>418.518066</ele>
  <time>2011-08-20T06:19:09Z</time>
  <speed>1.940000</speed>
</trkpt>
<trkpt lat="32.722393036" lon="35.044555664">
  <ele>418.471191</ele>
  <time>2011-08-20T06:19:11Z</time>
  <speed>1.940000</speed>
</trkpt>
<trkpt lat="32.722396851" lon="35.044589996">
  <ele>418.635254</ele>
  <time>2011-08-20T06:19:13Z</time>
  <speed>1.840000</speed>
</trkpt>
<trkpt lat="32.722415924" lon="35.044628143">
  <ele>418.432129</ele>
  <time>2011-08-20T06:19:15Z</time>
  <speed>1.790000</speed>
</trkpt>
<trkpt lat="32.722423553" lon="35.044666290">
  <ele>418.463379</ele>
  <time>2011-08-20T06:19:17Z</time>
  <speed>1.910000</speed>
</trkpt>
<trkpt lat="32.722442627" lon="35.044696808">
  <ele>418.666504</ele>
  <time>2011-08-20T06:19:19Z</time>
  <speed>2.000000</speed>
</trkpt>
<trkpt lat="32.722465515" lon="35.044734955">
  <ele>418.354004</ele>
  <time>2011-08-20T06:19:21Z</time>
  <speed>2.150000</speed>
</trkpt>
<trkpt lat="32.722488403" lon="35.044769287">
  <ele>418.791504</ele>
  <time>2011-08-20T06:19:23Z</time>
  <speed>2.120000</speed>
</trkpt>
<trkpt lat="32.722511292" lon="35.044799805">
  <ele>417.697754</ele>
  <time>2011-08-20T06:19:25Z</time>
  <speed>2.220000</speed>
</trkpt>
<trkpt lat="32.722541809" lon="35.044849396">
  <ele>418.283691</ele>
  <time>2011-08-20T06:19:27Z</time>
  <speed>2.270000</speed>
</trkpt>
<trkpt lat="32.722560883" lon="35.044891357">
  <ele>418.807129</ele>
  <time>2011-08-20T06:19:29Z</time>
  <speed>2.070000</speed>
</trkpt>
<trkpt lat="32.722579956" lon="35.044929504">
  <ele>418.775879</ele>
  <time>2011-08-20T06:19:31Z</time>
  <speed>1.900000</speed>
</trkpt>
<trkpt lat="32.722587585" lon="35.044975281">
  <ele>419.010254</ele>
  <time>2011-08-20T06:19:34Z</time>
  <speed>1.450000</speed>
</trkpt>
<trkpt lat="32.722606659" lon="35.045009613">
  <ele>419.385254</ele>
  <time>2011-08-20T06:19:36Z</time>
  <speed>1.770000</speed>
</trkpt>
<trkpt lat="32.722637177" lon="35.045017242">
  <ele>419.822754</ele>
  <time>2011-08-20T06:19:37Z</time>
  <speed>1.400000</speed>
</trkpt>
<trkpt lat="32.722660065" lon="35.045036316">
  <ele>420.369629</ele>
  <time>2011-08-20T06:19:39Z</time>
  <speed>1.800000</speed>
</trkpt>
<trkpt lat="32.722686768" lon="35.045059204">
  <ele>420.791504</ele>
  <time>2011-08-20T06:19:41Z</time>
  <speed>1.770000</speed>
</trkpt>
<trkpt lat="32.722698212" lon="35.045097351">
  <ele>421.682129</ele>
  <time>2011-08-20T06:19:43Z</time>
  <speed>1.290000</speed>
</trkpt>
<trkpt lat="32.722724915" lon="35.045112610">
  <ele>421.650879</ele>
  <time>2011-08-20T06:19:45Z</time>
  <speed>1.670000</speed>
</trkpt>
<trkpt lat="32.722759247" lon="35.045127869">
  <ele>422.385254</ele>
  <time>2011-08-20T06:19:47Z</time>
  <speed>2.210000</speed>
</trkpt>
<trkpt lat="32.722793579" lon="35.045146942">
  <ele>422.799316</ele>
  <time>2011-08-20T06:19:49Z</time>
  <speed>1.770000</speed>
</trkpt>
<trkpt lat="32.722812653" lon="35.045173645">
  <ele>422.979004</ele>
  <time>2011-08-20T06:19:51Z</time>
  <speed>1.480000</speed>
</trkpt>
<trkpt lat="32.722835541" lon="35.045185089">
  <ele>422.752441</ele>
  <time>2011-08-20T06:19:53Z</time>
  <speed>1.360000</speed>
</trkpt>
<trkpt lat="32.722869873" lon="35.045169830">
  <ele>423.455566</ele>
  <time>2011-08-20T06:19:55Z</time>
  <speed>1.960000</speed>
</trkpt>
<trkpt lat="32.722888947" lon="35.045146942">
  <ele>423.721191</ele>
  <time>2011-08-20T06:19:57Z</time>
  <speed>1.560000</speed>
</trkpt>
<trkpt lat="32.722896576" lon="35.045112610">
  <ele>424.400879</ele>
  <time>2011-08-20T06:19:59Z</time>
  <speed>1.920000</speed>
</trkpt>
<trkpt lat="32.722908020" lon="35.045066833">
  <ele>425.025879</ele>
  <time>2011-08-20T06:20:01Z</time>
  <speed>1.610000</speed>
</trkpt>
<trkpt lat="32.722915649" lon="35.045036316">
  <ele>426.408691</ele>
  <time>2011-08-20T06:20:03Z</time>
  <speed>1.430000</speed>
</trkpt>
<trkpt lat="32.722919464" lon="35.044990540">
  <ele>426.869629</ele>
  <time>2011-08-20T06:20:05Z</time>
  <speed>1.600000</speed>
</trkpt>
<trkpt lat="32.722923279" lon="35.044956207">
  <ele>427.104004</ele>
  <time>2011-08-20T06:20:07Z</time>
  <speed>1.710000</speed>
</trkpt>
<trkpt lat="32.722938538" lon="35.044918060">
  <ele>427.447754</ele>
  <time>2011-08-20T06:20:09Z</time>
  <speed>1.900000</speed>
</trkpt>
<trkpt lat="32.722934723" lon="35.044872284">
  <ele>427.947754</ele>
  <time>2011-08-20T06:20:11Z</time>
  <speed>1.790000</speed>
</trkpt>
<trkpt lat="32.722930908" lon="35.044834137">
  <ele>428.096191</ele>
  <time>2011-08-20T06:20:13Z</time>
  <speed>1.450000</speed>
</trkpt>
<trkpt lat="32.722930908" lon="35.044799805">
  <ele>429.510254</ele>
  <time>2011-08-20T06:20:16Z</time>
  <speed>1.230000</speed>
</trkpt>
<trkpt lat="32.722965240" lon="35.044807434">
  <ele>429.486816</ele>
  <time>2011-08-20T06:20:20Z</time>
  <speed>1.490000</speed>
</trkpt>
<trkpt lat="32.722969055" lon="35.044845581">
  <ele>428.658691</ele>
  <time>2011-08-20T06:20:22Z</time>
  <speed>2.150000</speed>
</trkpt>
<trkpt lat="32.722969055" lon="35.044898987">
  <ele>428.400879</ele>
  <time>2011-08-20T06:20:24Z</time>
  <speed>2.740000</speed>
</trkpt>
<trkpt lat="32.722961426" lon="35.044940948">
  <ele>428.924316</ele>
  <time>2011-08-20T06:20:26Z</time>
  <speed>1.440000</speed>
</trkpt>
<trkpt lat="32.722980499" lon="35.044975281">
  <ele>429.580566</ele>
  <time>2011-08-20T06:20:29Z</time>
  <speed>1.330000</speed>
</trkpt>
<trkpt lat="32.722988129" lon="35.045028687">
  <ele>429.525879</ele>
  <time>2011-08-20T06:20:32Z</time>
  <speed>1.640000</speed>
</trkpt>
<trkpt lat="32.723014832" lon="35.045063019">
  <ele>429.877441</ele>
  <time>2011-08-20T06:20:34Z</time>
  <speed>1.460000</speed>
</trkpt>
<trkpt lat="32.723030090" lon="35.045097351">
  <ele>430.252441</ele>
  <time>2011-08-20T06:20:36Z</time>
  <speed>1.430000</speed>
</trkpt>
<trkpt lat="32.723045349" lon="35.045131683">
  <ele>430.596191</ele>
  <time>2011-08-20T06:20:38Z</time>
  <speed>1.450000</speed>
</trkpt>
<trkpt lat="32.723052979" lon="35.045162201">
  <ele>430.713379</ele>
  <time>2011-08-20T06:20:40Z</time>
  <speed>1.720000</speed>
</trkpt>
<trkpt lat="32.723072052" lon="35.045192719">
  <ele>430.916504</ele>
  <time>2011-08-20T06:20:42Z</time>
  <speed>1.400000</speed>
</trkpt>
<trkpt lat="32.723091125" lon="35.045223236">
  <ele>431.416504</ele>
  <time>2011-08-20T06:20:44Z</time>
  <speed>1.350000</speed>
</trkpt>
<trkpt lat="32.723094940" lon="35.045257568">
  <ele>431.783691</ele>
  <time>2011-08-20T06:20:46Z</time>
  <speed>1.460000</speed>
</trkpt>
<trkpt lat="32.723117828" lon="35.045288086">
  <ele>431.174316</ele>
  <time>2011-08-20T06:20:49Z</time>
  <speed>1.980000</speed>
</trkpt>
<trkpt lat="32.723125458" lon="35.045318604">
  <ele>431.463379</ele>
  <time>2011-08-20T06:20:51Z</time>
  <speed>1.620000</speed>
</trkpt>
<trkpt lat="32.723144531" lon="35.045356750">
  <ele>431.869629</ele>
  <time>2011-08-20T06:20:54Z</time>
  <speed>1.410000</speed>
</trkpt>
<trkpt lat="32.723167419" lon="35.045387268">
  <ele>431.291504</ele>
  <time>2011-08-20T06:20:57Z</time>
  <speed>1.320000</speed>
</trkpt>
<trkpt lat="32.723190308" lon="35.045417786">
  <ele>431.729004</ele>
  <time>2011-08-20T06:21:00Z</time>
  <speed>1.290000</speed>
</trkpt>
<trkpt lat="32.723220825" lon="35.045417786">
  <ele>431.143066</ele>
  <time>2011-08-20T06:21:01Z</time>
  <speed>1.110000</speed>
</trkpt>
<trkpt lat="32.723236084" lon="35.045463562">
  <ele>431.838379</ele>
  <time>2011-08-20T06:21:04Z</time>
  <speed>1.220000</speed>
</trkpt>
<trkpt lat="32.723255157" lon="35.045497894">
  <ele>432.596191</ele>
  <time>2011-08-20T06:21:07Z</time>
  <speed>1.270000</speed>
</trkpt>
<trkpt lat="32.723289490" lon="35.045505524">
  <ele>432.549316</ele>
  <time>2011-08-20T06:21:10Z</time>
  <speed>1.510000</speed>
</trkpt>
<trkpt lat="32.723327637" lon="35.045520782">
  <ele>432.596191</ele>
  <time>2011-08-20T06:21:12Z</time>
  <speed>1.570000</speed>
</trkpt>
<trkpt lat="32.723335266" lon="35.045558929">
  <ele>433.947754</ele>
  <time>2011-08-20T06:21:14Z</time>
  <speed>1.610000</speed>
</trkpt>
<trkpt lat="32.723361969" lon="35.045589447">
  <ele>434.627441</ele>
  <time>2011-08-20T06:21:17Z</time>
  <speed>1.230000</speed>
</trkpt>
<trkpt lat="32.723369598" lon="35.045627594">
  <ele>435.213379</ele>
  <time>2011-08-20T06:21:20Z</time>
  <speed>1.610000</speed>
</trkpt>
<trkpt lat="32.723392487" lon="35.045654297">
  <ele>435.658691</ele>
  <time>2011-08-20T06:21:22Z</time>
  <speed>1.700000</speed>
</trkpt>
<trkpt lat="32.723415375" lon="35.045677185">
  <ele>437.158691</ele>
  <time>2011-08-20T06:21:24Z</time>
  <speed>1.710000</speed>
</trkpt>
<trkpt lat="32.723445892" lon="35.045703888">
  <ele>437.986816</ele>
  <time>2011-08-20T06:21:27Z</time>
  <speed>1.120000</speed>
</trkpt>
<trkpt lat="32.723464966" lon="35.045742035">
  <ele>438.439941</ele>
  <time>2011-08-20T06:21:30Z</time>
  <speed>1.750000</speed>
</trkpt>
<trkpt lat="32.723499298" lon="35.045764923">
  <ele>439.533691</ele>
  <time>2011-08-20T06:21:33Z</time>
  <speed>1.280000</speed>
</trkpt>
<trkpt lat="32.723529816" lon="35.045780182">
  <ele>438.932129</ele>
  <time>2011-08-20T06:21:35Z</time>
  <speed>1.180000</speed>
</trkpt>
<trkpt lat="32.723556519" lon="35.045810699">
  <ele>440.158691</ele>
  <time>2011-08-20T06:21:38Z</time>
  <speed>1.440000</speed>
</trkpt>
<trkpt lat="32.723575592" lon="35.045833588">
  <ele>440.432129</ele>
  <time>2011-08-20T06:21:40Z</time>
  <speed>1.360000</speed>
</trkpt>
<trkpt lat="32.723602295" lon="35.045856476">
  <ele>440.900879</ele>
  <time>2011-08-20T06:21:43Z</time>
  <speed>1.080000</speed>
</trkpt>
<trkpt lat="32.723628998" lon="35.045867920">
  <ele>440.510254</ele>
  <time>2011-08-20T06:21:45Z</time>
  <speed>1.370000</speed>
</trkpt>
<trkpt lat="32.723655701" lon="35.045890808">
  <ele>441.150879</ele>
  <time>2011-08-20T06:21:47Z</time>
  <speed>1.130000</speed>
</trkpt>
<trkpt lat="32.723690033" lon="35.045909882">
  <ele>441.229004</ele>
  <time>2011-08-20T06:21:50Z</time>
  <speed>1.420000</speed>
</trkpt>
<trkpt lat="32.723709106" lon="35.045944214">
  <ele>441.666504</ele>
  <time>2011-08-20T06:21:53Z</time>
  <speed>1.270000</speed>
</trkpt>
<trkpt lat="32.723735809" lon="35.045970917">
  <ele>443.057129</ele>
  <time>2011-08-20T06:21:56Z</time>
  <speed>1.250000</speed>
</trkpt>
<trkpt lat="32.723762512" lon="35.045997620">
  <ele>443.564941</ele>
  <time>2011-08-20T06:21:59Z</time>
  <speed>1.280000</speed>
</trkpt>
<trkpt lat="32.723781586" lon="35.046024323">
  <ele>444.291504</ele>
  <time>2011-08-20T06:22:02Z</time>
  <speed>1.440000</speed>
</trkpt>
<trkpt lat="32.723800659" lon="35.046054840">
  <ele>444.346191</ele>
  <time>2011-08-20T06:22:04Z</time>
  <speed>1.220000</speed>
</trkpt>
<trkpt lat="32.723827362" lon="35.046081543">
  <ele>444.268066</ele>
  <time>2011-08-20T06:22:07Z</time>
  <speed>1.320000</speed>
</trkpt>
<trkpt lat="32.723854065" lon="35.046104431">
  <ele>444.307129</ele>
  <time>2011-08-20T06:22:10Z</time>
  <speed>1.310000</speed>
</trkpt>
<trkpt lat="32.723880768" lon="35.046127319">
  <ele>443.900879</ele>
  <time>2011-08-20T06:22:13Z</time>
  <speed>1.400000</speed>
</trkpt>
<trkpt lat="32.723903656" lon="35.046150208">
  <ele>443.955566</ele>
  <time>2011-08-20T06:22:15Z</time>
  <speed>1.300000</speed>
</trkpt>
<trkpt lat="32.723945618" lon="35.046161652">
  <ele>443.713379</ele>
  <time>2011-08-20T06:22:18Z</time>
  <speed>1.020000</speed>
</trkpt>
<trkpt lat="32.723968506" lon="35.046188354">
  <ele>443.752441</ele>
  <time>2011-08-20T06:22:21Z</time>
  <speed>1.360000</speed>
</trkpt>
<trkpt lat="32.723995209" lon="35.046222687">
  <ele>443.939941</ele>
  <time>2011-08-20T06:22:24Z</time>
  <speed>1.450000</speed>
</trkpt>
<trkpt lat="32.724014282" lon="35.046249390">
  <ele>443.533691</ele>
  <time>2011-08-20T06:22:26Z</time>
  <speed>1.670000</speed>
</trkpt>
<trkpt lat="32.724037170" lon="35.046276093">
  <ele>444.018066</ele>
  <time>2011-08-20T06:22:28Z</time>
  <speed>1.310000</speed>
</trkpt>
<trkpt lat="32.724060059" lon="35.046295166">
  <ele>443.783691</ele>
  <time>2011-08-20T06:22:30Z</time>
  <speed>1.730000</speed>
</trkpt>
<trkpt lat="32.724082947" lon="35.046310425">
  <ele>443.760254</ele>
  <time>2011-08-20T06:22:32Z</time>
  <speed>1.360000</speed>
</trkpt>
<trkpt lat="32.724117279" lon="35.046333313">
  <ele>444.049316</ele>
  <time>2011-08-20T06:22:35Z</time>
  <speed>1.190000</speed>
</trkpt>
<trkpt lat="32.724147797" lon="35.046356201">
  <ele>444.721191</ele>
  <time>2011-08-20T06:22:38Z</time>
  <speed>1.370000</speed>
</trkpt>
<trkpt lat="32.724182129" lon="35.046371460">
  <ele>444.627441</ele>
  <time>2011-08-20T06:22:40Z</time>
  <speed>1.450000</speed>
</trkpt>
<trkpt lat="32.724216461" lon="35.046394348">
  <ele>445.174316</ele>
  <time>2011-08-20T06:22:43Z</time>
  <speed>1.440000</speed>
</trkpt>
<trkpt lat="32.724250793" lon="35.046409607">
  <ele>446.127441</ele>
  <time>2011-08-20T06:22:45Z</time>
  <speed>1.490000</speed>
</trkpt>
<trkpt lat="32.724277496" lon="35.046443939">
  <ele>446.783691</ele>
  <time>2011-08-20T06:22:48Z</time>
  <speed>1.280000</speed>
</trkpt>
<trkpt lat="32.724304199" lon="35.046455383">
  <ele>446.541504</ele>
  <time>2011-08-20T06:22:50Z</time>
  <speed>1.280000</speed>
</trkpt>
<trkpt lat="32.724323273" lon="35.046482086">
  <ele>447.697754</ele>
  <time>2011-08-20T06:22:52Z</time>
  <speed>1.360000</speed>
</trkpt>
<trkpt lat="32.724353790" lon="35.046485901">
  <ele>447.689941</ele>
  <time>2011-08-20T06:22:54Z</time>
  <speed>1.460000</speed>
</trkpt>
<trkpt lat="32.724380493" lon="35.046504974">
  <ele>447.799316</ele>
  <time>2011-08-20T06:22:56Z</time>
  <speed>1.160000</speed>
</trkpt>
<trkpt lat="32.724407196" lon="35.046520233">
  <ele>448.463379</ele>
  <time>2011-08-20T06:22:58Z</time>
  <speed>1.430000</speed>
</trkpt>
<trkpt lat="32.724433899" lon="35.046543121">
  <ele>449.393066</ele>
  <time>2011-08-20T06:23:00Z</time>
  <speed>1.850000</speed>
</trkpt>
<trkpt lat="32.724464417" lon="35.046554565">
  <ele>449.346191</ele>
  <time>2011-08-20T06:23:02Z</time>
  <speed>1.470000</speed>
</trkpt>
<trkpt lat="32.724487305" lon="35.046569824">
  <ele>450.549316</ele>
  <time>2011-08-20T06:23:04Z</time>
  <speed>1.500000</speed>
</trkpt>
<trkpt lat="32.724517822" lon="35.046573639">
  <ele>449.916504</ele>
  <time>2011-08-20T06:23:07Z</time>
  <speed>1.140000</speed>
</trkpt>
<trkpt lat="32.724555969" lon="35.046562195">
  <ele>449.510254</ele>
  <time>2011-08-20T06:23:10Z</time>
  <speed>1.160000</speed>
</trkpt>
<trkpt lat="32.724586487" lon="35.046566010">
  <ele>450.119629</ele>
  <time>2011-08-20T06:23:12Z</time>
  <speed>1.200000</speed>
</trkpt>
<trkpt lat="32.724609375" lon="35.046588898">
  <ele>450.354004</ele>
  <time>2011-08-20T06:23:14Z</time>
  <speed>1.050000</speed>
</trkpt>
<trkpt lat="32.724632263" lon="35.046604156">
  <ele>451.143066</ele>
  <time>2011-08-20T06:23:17Z</time>
  <speed>0.940000</speed>
</trkpt>
<trkpt lat="32.724658966" lon="35.046627045">
  <ele>451.721191</ele>
  <time>2011-08-20T06:23:20Z</time>
  <speed>0.850000</speed>
</trkpt>
<trkpt lat="32.724697113" lon="35.046634674">
  <ele>451.588379</ele>
  <time>2011-08-20T06:23:23Z</time>
  <speed>1.050000</speed>
</trkpt>
<trkpt lat="32.724723816" lon="35.046661377">
  <ele>452.064941</ele>
  <time>2011-08-20T06:23:26Z</time>
  <speed>1.200000</speed>
</trkpt>
<trkpt lat="32.724742889" lon="35.046703339">
  <ele>453.689941</ele>
  <time>2011-08-20T06:23:29Z</time>
  <speed>1.500000</speed>
</trkpt>
<trkpt lat="32.724769592" lon="35.046726227">
  <ele>454.604004</ele>
  <time>2011-08-20T06:23:31Z</time>
  <speed>1.650000</speed>
</trkpt>
<trkpt lat="32.724792480" lon="35.046745300">
  <ele>455.010254</ele>
  <time>2011-08-20T06:23:33Z</time>
  <speed>1.420000</speed>
</trkpt>
<trkpt lat="32.724811554" lon="35.046783447">
  <ele>455.291504</ele>
  <time>2011-08-20T06:23:36Z</time>
  <speed>1.790000</speed>
</trkpt>
<trkpt lat="32.724830627" lon="35.046810150">
  <ele>455.752441</ele>
  <time>2011-08-20T06:23:38Z</time>
  <speed>1.880000</speed>
</trkpt>
<trkpt lat="32.724861145" lon="35.046840668">
  <ele>454.854004</ele>
  <time>2011-08-20T06:23:40Z</time>
  <speed>2.080000</speed>
</trkpt>
<trkpt lat="32.724887848" lon="35.046875000">
  <ele>455.127441</ele>
  <time>2011-08-20T06:23:42Z</time>
  <speed>2.510000</speed>
</trkpt>
<trkpt lat="32.724918365" lon="35.046924591">
  <ele>454.830566</ele>
  <time>2011-08-20T06:23:44Z</time>
  <speed>2.830000</speed>
</trkpt>
<trkpt lat="32.724933624" lon="35.046955109">
  <ele>454.580566</ele>
  <time>2011-08-20T06:23:45Z</time>
  <speed>3.160000</speed>
</trkpt>
<trkpt lat="32.724948883" lon="35.046981812">
  <ele>454.416504</ele>
  <time>2011-08-20T06:23:46Z</time>
  <speed>3.330000</speed>
</trkpt>
<trkpt lat="32.724967957" lon="35.047008514">
  <ele>454.213379</ele>
  <time>2011-08-20T06:23:47Z</time>
  <speed>2.800000</speed>
</trkpt>
<trkpt lat="32.724987030" lon="35.047035217">
  <ele>453.729004</ele>
  <time>2011-08-20T06:23:48Z</time>
  <speed>2.790000</speed>
</trkpt>
<trkpt lat="32.725021362" lon="35.047077179">
  <ele>453.479004</ele>
  <time>2011-08-20T06:23:50Z</time>
  <speed>2.050000</speed>
</trkpt>
<trkpt lat="32.725036621" lon="35.047107697">
  <ele>452.385254</ele>
  <time>2011-08-20T06:23:52Z</time>
  <speed>1.850000</speed>
</trkpt>
<trkpt lat="32.725067139" lon="35.047130585">
  <ele>452.385254</ele>
  <time>2011-08-20T06:23:53Z</time>
  <speed>1.890000</speed>
</trkpt>
<trkpt lat="32.725086212" lon="35.047161102">
  <ele>451.611816</ele>
  <time>2011-08-20T06:23:55Z</time>
  <speed>1.860000</speed>
</trkpt>
<trkpt lat="32.725090027" lon="35.047203064">
  <ele>452.033691</ele>
  <time>2011-08-20T06:23:57Z</time>
  <speed>1.920000</speed>
</trkpt>
<trkpt lat="32.725093842" lon="35.047233582">
  <ele>452.104004</ele>
  <time>2011-08-20T06:23:59Z</time>
  <speed>1.490000</speed>
</trkpt>
<trkpt lat="32.725097656" lon="35.047271729">
  <ele>452.369629</ele>
  <time>2011-08-20T06:24:02Z</time>
  <speed>1.390000</speed>
</trkpt>
<trkpt lat="32.725105286" lon="35.047317505">
  <ele>452.916504</ele>
  <time>2011-08-20T06:24:05Z</time>
  <speed>1.490000</speed>
</trkpt>
<trkpt lat="32.725120544" lon="35.047363281">
  <ele>453.479004</ele>
  <time>2011-08-20T06:24:08Z</time>
  <speed>1.470000</speed>
</trkpt>
<trkpt lat="32.725116730" lon="35.047397614">
  <ele>454.408691</ele>
  <time>2011-08-20T06:24:10Z</time>
  <speed>1.440000</speed>
</trkpt>
<trkpt lat="32.725135803" lon="35.047428131">
  <ele>453.869629</ele>
  <time>2011-08-20T06:24:12Z</time>
  <speed>1.380000</speed>
</trkpt>
<trkpt lat="32.725154877" lon="35.047454834">
  <ele>454.283691</ele>
  <time>2011-08-20T06:24:14Z</time>
  <speed>1.780000</speed>
</trkpt>
<trkpt lat="32.725177765" lon="35.047481537">
  <ele>454.861816</ele>
  <time>2011-08-20T06:24:16Z</time>
  <speed>1.810000</speed>
</trkpt>
<trkpt lat="32.725208282" lon="35.047508240">
  <ele>454.338379</ele>
  <time>2011-08-20T06:24:18Z</time>
  <speed>1.560000</speed>
</trkpt>
<trkpt lat="32.725208282" lon="35.047557831">
  <ele>454.986816</ele>
  <time>2011-08-20T06:24:21Z</time>
  <speed>1.570000</speed>
</trkpt>
<trkpt lat="32.725223541" lon="35.047592163">
  <ele>455.080566</ele>
  <time>2011-08-20T06:24:23Z</time>
  <speed>1.780000</speed>
</trkpt>
<trkpt lat="32.725227356" lon="35.047634125">
  <ele>455.814941</ele>
  <time>2011-08-20T06:24:25Z</time>
  <speed>2.420000</speed>
</trkpt>
<trkpt lat="32.725227356" lon="35.047687531">
  <ele>455.658691</ele>
  <time>2011-08-20T06:24:27Z</time>
  <speed>2.380000</speed>
</trkpt>
<trkpt lat="32.725231171" lon="35.047721863">
  <ele>455.455566</ele>
  <time>2011-08-20T06:24:28Z</time>
  <speed>3.010000</speed>
</trkpt>
<trkpt lat="32.725238800" lon="35.047752380">
  <ele>455.385254</ele>
  <time>2011-08-20T06:24:29Z</time>
  <speed>2.830000</speed>
</trkpt>
<trkpt lat="32.725242615" lon="35.047786713">
  <ele>454.979004</ele>
  <time>2011-08-20T06:24:30Z</time>
  <speed>3.310000</speed>
</trkpt>
<trkpt lat="32.725254059" lon="35.047817230">
  <ele>455.111816</ele>
  <time>2011-08-20T06:24:31Z</time>
  <speed>3.210000</speed>
</trkpt>
<trkpt lat="32.725261688" lon="35.047847748">
  <ele>454.893066</ele>
  <time>2011-08-20T06:24:32Z</time>
  <speed>2.800000</speed>
</trkpt>
<trkpt lat="32.725265503" lon="35.047882080">
  <ele>454.791504</ele>
  <time>2011-08-20T06:24:33Z</time>
  <speed>2.850000</speed>
</trkpt>
<trkpt lat="32.725276947" lon="35.047916412">
  <ele>454.807129</ele>
  <time>2011-08-20T06:24:34Z</time>
  <speed>2.580000</speed>
</trkpt>
<trkpt lat="32.725288391" lon="35.047958374">
  <ele>454.361816</ele>
  <time>2011-08-20T06:24:36Z</time>
  <speed>1.800000</speed>
</trkpt>
<trkpt lat="32.725307465" lon="35.047988892">
  <ele>454.635254</ele>
  <time>2011-08-20T06:24:38Z</time>
  <speed>1.630000</speed>
</trkpt>
<trkpt lat="32.725341797" lon="35.048007965">
  <ele>455.299316</ele>
  <time>2011-08-20T06:24:40Z</time>
  <speed>1.780000</speed>
</trkpt>
<trkpt lat="32.725353241" lon="35.048038483">
  <ele>455.314941</ele>
  <time>2011-08-20T06:24:42Z</time>
  <speed>1.820000</speed>
</trkpt>
<trkpt lat="32.725395203" lon="35.048065186">
  <ele>456.010254</ele>
  <time>2011-08-20T06:24:44Z</time>
  <speed>1.450000</speed>
</trkpt>
<trkpt lat="32.725414276" lon="35.048103333">
  <ele>456.408691</ele>
  <time>2011-08-20T06:24:47Z</time>
  <speed>1.560000</speed>
</trkpt>
<trkpt lat="32.725440979" lon="35.048137665">
  <ele>456.166504</ele>
  <time>2011-08-20T06:24:50Z</time>
  <speed>1.420000</speed>
</trkpt>
<trkpt lat="32.725460052" lon="35.048168182">
  <ele>455.549316</ele>
  <time>2011-08-20T06:24:52Z</time>
  <speed>1.730000</speed>
</trkpt>
<trkpt lat="32.725471497" lon="35.048202515">
  <ele>455.861816</ele>
  <time>2011-08-20T06:24:54Z</time>
  <speed>1.690000</speed>
</trkpt>
<trkpt lat="32.725482941" lon="35.048236847">
  <ele>456.213379</ele>
  <time>2011-08-20T06:24:56Z</time>
  <speed>1.740000</speed>
</trkpt>
<trkpt lat="32.725479126" lon="35.048274994">
  <ele>455.979004</ele>
  <time>2011-08-20T06:24:58Z</time>
  <speed>1.450000</speed>
</trkpt>
<trkpt lat="32.725502014" lon="35.048294067">
  <ele>456.377441</ele>
  <time>2011-08-20T06:25:00Z</time>
  <speed>1.600000</speed>
</trkpt>
<trkpt lat="32.725536346" lon="35.048313141">
  <ele>456.486816</ele>
  <time>2011-08-20T06:25:02Z</time>
  <speed>1.730000</speed>
</trkpt>
<trkpt lat="32.725559235" lon="35.048343658">
  <ele>457.260254</ele>
  <time>2011-08-20T06:25:04Z</time>
  <speed>1.400000</speed>
</trkpt>
<trkpt lat="32.725585938" lon="35.048370361">
  <ele>459.182129</ele>
  <time>2011-08-20T06:25:06Z</time>
  <speed>1.910000</speed>
</trkpt>
<trkpt lat="32.725624084" lon="35.048400879">
  <ele>460.041504</ele>
  <time>2011-08-20T06:25:08Z</time>
  <speed>1.640000</speed>
</trkpt>
<trkpt lat="32.725650787" lon="35.048416138">
  <ele>460.369629</ele>
  <time>2011-08-20T06:25:10Z</time>
  <speed>1.280000</speed>
</trkpt>
<trkpt lat="32.725677490" lon="35.048442841">
  <ele>461.408691</ele>
  <time>2011-08-20T06:25:13Z</time>
  <speed>1.130000</speed>
</trkpt>
<trkpt lat="32.725681305" lon="35.048492432">
  <ele>461.580566</ele>
  <time>2011-08-20T06:25:16Z</time>
  <speed>1.250000</speed>
</trkpt>
<trkpt lat="32.725708008" lon="35.048526764">
  <ele>461.814941</ele>
  <time>2011-08-20T06:25:19Z</time>
  <speed>1.340000</speed>
</trkpt>
<trkpt lat="32.725738525" lon="35.048534393">
  <ele>462.221191</ele>
  <time>2011-08-20T06:25:21Z</time>
  <speed>1.330000</speed>
</trkpt>
<trkpt lat="32.725769043" lon="35.048545837">
  <ele>462.346191</ele>
  <time>2011-08-20T06:25:23Z</time>
  <speed>1.400000</speed>
</trkpt>
<trkpt lat="32.725780487" lon="35.048580170">
  <ele>462.900879</ele>
  <time>2011-08-20T06:25:26Z</time>
  <speed>0.680000</speed>
</trkpt>
<trkpt lat="32.725807190" lon="35.048583984">
  <ele>463.314941</ele>
  <time>2011-08-20T06:25:28Z</time>
  <speed>0.710000</speed>
</trkpt>
<trkpt lat="32.725852966" lon="35.048580170">
  <ele>463.385254</ele>
  <time>2011-08-20T06:25:29Z</time>
  <speed>0.590000</speed>
</trkpt>
<trkpt lat="32.725910187" lon="35.048603058">
  <ele>463.775879</ele>
  <time>2011-08-20T06:25:32Z</time>
  <speed>0.730000</speed>
</trkpt>
<trkpt lat="32.725929260" lon="35.048652649">
  <ele>464.627441</ele>
  <time>2011-08-20T06:25:35Z</time>
  <speed>1.030000</speed>
</trkpt>
<trkpt lat="32.725959778" lon="35.048656464">
  <ele>464.807129</ele>
  <time>2011-08-20T06:25:37Z</time>
  <speed>0.940000</speed>
</trkpt>
<trkpt lat="32.725990295" lon="35.048679352">
  <ele>465.033691</ele>
  <time>2011-08-20T06:25:39Z</time>
  <speed>0.960000</speed>
</trkpt>
<trkpt lat="32.726028442" lon="35.048683167">
  <ele>465.033691</ele>
  <time>2011-08-20T06:25:40Z</time>
  <speed>0.850000</speed>
</trkpt>
<trkpt lat="32.726062775" lon="35.048706055">
  <ele>465.354004</ele>
  <time>2011-08-20T06:25:43Z</time>
  <speed>1.020000</speed>
</trkpt>
<trkpt lat="32.726093292" lon="35.048725128">
  <ele>466.025879</ele>
  <time>2011-08-20T06:25:46Z</time>
  <speed>0.980000</speed>
</trkpt>
<trkpt lat="32.726116180" lon="35.048740387">
  <ele>467.127441</ele>
  <time>2011-08-20T06:25:49Z</time>
  <speed>1.000000</speed>
</trkpt>
<trkpt lat="32.726142883" lon="35.048759460">
  <ele>468.721191</ele>
  <time>2011-08-20T06:25:52Z</time>
  <speed>1.460000</speed>
</trkpt>
<trkpt lat="32.726173401" lon="35.048786163">
  <ele>469.182129</ele>
  <time>2011-08-20T06:25:55Z</time>
  <speed>1.240000</speed>
</trkpt>
<trkpt lat="32.726200104" lon="35.048805237">
  <ele>469.033691</ele>
  <time>2011-08-20T06:25:58Z</time>
  <speed>1.310000</speed>
</trkpt>
<trkpt lat="32.726222992" lon="35.048824310">
  <ele>469.971191</ele>
  <time>2011-08-20T06:26:01Z</time>
  <speed>1.130000</speed>
</trkpt>
<trkpt lat="32.726245880" lon="35.048843384">
  <ele>470.760254</ele>
  <time>2011-08-20T06:26:04Z</time>
  <speed>1.320000</speed>
</trkpt>
<trkpt lat="32.726272583" lon="35.048881531">
  <ele>471.236816</ele>
  <time>2011-08-20T06:26:07Z</time>
  <speed>1.340000</speed>
</trkpt>
<trkpt lat="32.726291656" lon="35.048904419">
  <ele>471.572754</ele>
  <time>2011-08-20T06:26:10Z</time>
  <speed>1.290000</speed>
</trkpt>
<trkpt lat="32.726322174" lon="35.048927307">
  <ele>472.010254</ele>
  <time>2011-08-20T06:26:13Z</time>
  <speed>1.250000</speed>
</trkpt>
<trkpt lat="32.726341248" lon="35.048950195">
  <ele>471.447754</ele>
  <time>2011-08-20T06:26:15Z</time>
  <speed>1.480000</speed>
</trkpt>
<trkpt lat="32.726371765" lon="35.048973083">
  <ele>472.205566</ele>
  <time>2011-08-20T06:26:18Z</time>
  <speed>1.430000</speed>
</trkpt>
<trkpt lat="32.726390839" lon="35.049007416">
  <ele>471.846191</ele>
  <time>2011-08-20T06:26:20Z</time>
  <speed>1.140000</speed>
</trkpt>
<trkpt lat="32.726409912" lon="35.049041748">
  <ele>471.611816</ele>
  <time>2011-08-20T06:26:23Z</time>
  <speed>1.180000</speed>
</trkpt>
<trkpt lat="32.726444244" lon="35.049060822">
  <ele>471.658691</ele>
  <time>2011-08-20T06:26:26Z</time>
  <speed>0.920000</speed>
</trkpt>
<trkpt lat="32.726463318" lon="35.049083710">
  <ele>471.877441</ele>
  <time>2011-08-20T06:26:29Z</time>
  <speed>1.460000</speed>
</trkpt>
<trkpt lat="32.726490021" lon="35.049102783">
  <ele>472.166504</ele>
  <time>2011-08-20T06:26:31Z</time>
  <speed>1.200000</speed>
</trkpt>
<trkpt lat="32.726512909" lon="35.049125671">
  <ele>473.252441</ele>
  <time>2011-08-20T06:26:34Z</time>
  <speed>0.940000</speed>
</trkpt>
<trkpt lat="32.726531982" lon="35.049148560">
  <ele>472.713379</ele>
  <time>2011-08-20T06:26:36Z</time>
  <speed>1.180000</speed>
</trkpt>
<trkpt lat="32.726554871" lon="35.049179077">
  <ele>473.322754</ele>
  <time>2011-08-20T06:26:39Z</time>
  <speed>1.300000</speed>
</trkpt>
<trkpt lat="32.726600647" lon="35.049209595">
  <ele>473.963379</ele>
  <time>2011-08-20T06:26:42Z</time>
  <speed>1.330000</speed>
</trkpt>
<trkpt lat="32.726634979" lon="35.049236298">
  <ele>474.393066</ele>
  <time>2011-08-20T06:26:45Z</time>
  <speed>1.440000</speed>
</trkpt>
<trkpt lat="32.726661682" lon="35.049251556">
  <ele>474.893066</ele>
  <time>2011-08-20T06:26:47Z</time>
  <speed>1.500000</speed>
</trkpt>
<trkpt lat="32.726680756" lon="35.049285889">
  <ele>475.822754</ele>
  <time>2011-08-20T06:26:50Z</time>
  <speed>1.330000</speed>
</trkpt>
<trkpt lat="32.726696014" lon="35.049320221">
  <ele>476.416504</ele>
  <time>2011-08-20T06:26:53Z</time>
  <speed>1.140000</speed>
</trkpt>
<trkpt lat="32.726715088" lon="35.049350739">
  <ele>478.947754</ele>
  <time>2011-08-20T06:26:56Z</time>
  <speed>1.210000</speed>
</trkpt>
<trkpt lat="32.726730347" lon="35.049381256">
  <ele>478.861816</ele>
  <time>2011-08-20T06:26:58Z</time>
  <speed>1.360000</speed>
</trkpt>
<trkpt lat="32.726745605" lon="35.049404144">
  <ele>478.775879</ele>
  <time>2011-08-20T06:27:00Z</time>
  <speed>1.300000</speed>
</trkpt>
<trkpt lat="32.726768494" lon="35.049430847">
  <ele>478.939941</ele>
  <time>2011-08-20T06:27:02Z</time>
  <speed>1.720000</speed>
</trkpt>
<trkpt lat="32.726802826" lon="35.049465179">
  <ele>480.518066</ele>
  <time>2011-08-20T06:27:05Z</time>
  <speed>1.610000</speed>
</trkpt>
<trkpt lat="32.726821899" lon="35.049503326">
  <ele>481.049316</ele>
  <time>2011-08-20T06:27:07Z</time>
  <speed>1.650000</speed>
</trkpt>
<trkpt lat="32.726840973" lon="35.049537659">
  <ele>481.955566</ele>
  <time>2011-08-20T06:27:09Z</time>
  <speed>1.640000</speed>
</trkpt>
<trkpt lat="32.726867676" lon="35.049564362">
  <ele>480.635254</ele>
  <time>2011-08-20T06:27:12Z</time>
  <speed>1.410000</speed>
</trkpt>
<trkpt lat="32.726898193" lon="35.049594879">
  <ele>481.408691</ele>
  <time>2011-08-20T06:27:15Z</time>
  <speed>1.570000</speed>
</trkpt>
<trkpt lat="32.726940155" lon="35.049598694">
  <ele>481.432129</ele>
  <time>2011-08-20T06:27:17Z</time>
  <speed>1.230000</speed>
</trkpt>
<trkpt lat="32.726959229" lon="35.049621582">
  <ele>481.088379</ele>
  <time>2011-08-20T06:27:19Z</time>
  <speed>1.370000</speed>
</trkpt>
<trkpt lat="32.726989746" lon="35.049648285">
  <ele>481.619629</ele>
  <time>2011-08-20T06:27:22Z</time>
  <speed>1.520000</speed>
</trkpt>
<trkpt lat="32.727005005" lon="35.049678802">
  <ele>482.197754</ele>
  <time>2011-08-20T06:27:24Z</time>
  <speed>0.860000</speed>
</trkpt>
<trkpt lat="32.727016449" lon="35.049709320">
  <ele>481.885254</ele>
  <time>2011-08-20T06:27:26Z</time>
  <speed>0.890000</speed>
</trkpt>
<trkpt lat="32.727062225" lon="35.049716949">
  <ele>481.549316</ele>
  <time>2011-08-20T06:27:29Z</time>
  <speed>0.940000</speed>
</trkpt>
<trkpt lat="32.727081299" lon="35.049755096">
  <ele>482.150879</ele>
  <time>2011-08-20T06:27:33Z</time>
  <speed>1.440000</speed>
</trkpt>
<trkpt lat="32.727111816" lon="35.049777985">
  <ele>482.432129</ele>
  <time>2011-08-20T06:27:35Z</time>
  <speed>1.450000</speed>
</trkpt>
<trkpt lat="32.727134705" lon="35.049804688">
  <ele>481.033691</ele>
  <time>2011-08-20T06:27:38Z</time>
  <speed>1.510000</speed>
</trkpt>
<trkpt lat="32.727165222" lon="35.049831390">
  <ele>482.650879</ele>
  <time>2011-08-20T06:27:41Z</time>
  <speed>1.380000</speed>
</trkpt>
<trkpt lat="32.727188110" lon="35.049842834">
  <ele>482.689941</ele>
  <time>2011-08-20T06:27:43Z</time>
  <speed>1.230000</speed>
</trkpt>
<trkpt lat="32.727210999" lon="35.049869537">
  <ele>482.744629</ele>
  <time>2011-08-20T06:27:46Z</time>
  <speed>1.040000</speed>
</trkpt>
<trkpt lat="32.727241516" lon="35.049888611">
  <ele>483.143066</ele>
  <time>2011-08-20T06:27:48Z</time>
  <speed>1.600000</speed>
</trkpt>
<trkpt lat="32.727275848" lon="35.049903870">
  <ele>483.439941</ele>
  <time>2011-08-20T06:27:50Z</time>
  <speed>1.270000</speed>
</trkpt>
<trkpt lat="32.727313995" lon="35.049903870">
  <ele>483.775879</ele>
  <time>2011-08-20T06:27:52Z</time>
  <speed>1.130000</speed>
</trkpt>
<trkpt lat="32.727344513" lon="35.049911499">
  <ele>483.807129</ele>
  <time>2011-08-20T06:27:54Z</time>
  <speed>1.540000</speed>
</trkpt>
<trkpt lat="32.727386475" lon="35.049934387">
  <ele>482.979004</ele>
  <time>2011-08-20T06:27:57Z</time>
  <speed>0.900000</speed>
</trkpt>
<trkpt lat="32.727420807" lon="35.049953461">
  <ele>483.307129</ele>
  <time>2011-08-20T06:28:01Z</time>
  <speed>1.060000</speed>
</trkpt>
<trkpt lat="32.727443695" lon="35.049968719">
  <ele>483.369629</ele>
  <time>2011-08-20T06:28:04Z</time>
  <speed>1.270000</speed>
</trkpt>
<trkpt lat="32.727478027" lon="35.049987793">
  <ele>482.869629</ele>
  <time>2011-08-20T06:28:06Z</time>
  <speed>1.160000</speed>
</trkpt>
<trkpt lat="32.727504730" lon="35.050003052">
  <ele>483.330566</ele>
  <time>2011-08-20T06:28:08Z</time>
  <speed>1.280000</speed>
</trkpt>
<trkpt lat="32.727531433" lon="35.050029755">
  <ele>482.361816</ele>
  <time>2011-08-20T06:28:11Z</time>
  <speed>1.230000</speed>
</trkpt>
<trkpt lat="32.727565765" lon="35.050052643">
  <ele>482.166504</ele>
  <time>2011-08-20T06:28:14Z</time>
  <speed>1.150000</speed>
</trkpt>
<trkpt lat="32.727588654" lon="35.050071716">
  <ele>482.322754</ele>
  <time>2011-08-20T06:28:16Z</time>
  <speed>1.450000</speed>
</trkpt>
<trkpt lat="32.727615356" lon="35.050094604">
  <ele>483.025879</ele>
  <time>2011-08-20T06:28:18Z</time>
  <speed>1.210000</speed>
</trkpt>
<trkpt lat="32.727649689" lon="35.050094604">
  <ele>482.424316</ele>
  <time>2011-08-20T06:28:20Z</time>
  <speed>1.070000</speed>
</trkpt>
<trkpt lat="32.727676392" lon="35.050090790">
  <ele>483.330566</ele>
  <time>2011-08-20T06:28:24Z</time>
  <speed>0.750000</speed>
</trkpt>
<trkpt lat="32.727706909" lon="35.050090790">
  <ele>483.799316</ele>
  <time>2011-08-20T06:28:26Z</time>
  <speed>1.080000</speed>
</trkpt>
<trkpt lat="32.727741241" lon="35.050098419">
  <ele>484.213379</ele>
  <time>2011-08-20T06:28:28Z</time>
  <speed>1.150000</speed>
</trkpt>
<trkpt lat="32.727767944" lon="35.050094604">
  <ele>485.463379</ele>
  <time>2011-08-20T06:28:31Z</time>
  <speed>0.910000</speed>
</trkpt>
<trkpt lat="32.727794647" lon="35.050109863">
  <ele>485.463379</ele>
  <time>2011-08-20T06:28:34Z</time>
  <speed>1.040000</speed>
</trkpt>
<trkpt lat="32.727821350" lon="35.050128937">
  <ele>486.619629</ele>
  <time>2011-08-20T06:28:37Z</time>
  <speed>0.990000</speed>
</trkpt>
<trkpt lat="32.727844238" lon="35.050140381">
  <ele>487.033691</ele>
  <time>2011-08-20T06:28:39Z</time>
  <speed>1.060000</speed>
</trkpt>
<trkpt lat="32.727870941" lon="35.050159454">
  <ele>487.416504</ele>
  <time>2011-08-20T06:28:41Z</time>
  <speed>1.080000</speed>
</trkpt>
<trkpt lat="32.727893829" lon="35.050182343">
  <ele>487.713379</ele>
  <time>2011-08-20T06:28:43Z</time>
  <speed>1.090000</speed>
</trkpt>
<trkpt lat="32.727924347" lon="35.050189972">
  <ele>488.658691</ele>
  <time>2011-08-20T06:28:45Z</time>
  <speed>1.110000</speed>
</trkpt>
<trkpt lat="32.727951050" lon="35.050216675">
  <ele>489.822754</ele>
  <time>2011-08-20T06:28:48Z</time>
  <speed>0.890000</speed>
</trkpt>
<trkpt lat="32.727977753" lon="35.050251007">
  <ele>490.666504</ele>
  <time>2011-08-20T06:28:50Z</time>
  <speed>1.050000</speed>
</trkpt>
<trkpt lat="32.727996826" lon="35.050277710">
  <ele>490.682129</ele>
  <time>2011-08-20T06:28:52Z</time>
  <speed>1.180000</speed>
</trkpt>
<trkpt lat="32.728038788" lon="35.050292969">
  <ele>491.072754</ele>
  <time>2011-08-20T06:28:55Z</time>
  <speed>1.290000</speed>
</trkpt>
<trkpt lat="32.728050232" lon="35.050327301">
  <ele>491.002441</ele>
  <time>2011-08-20T06:28:57Z</time>
  <speed>1.270000</speed>
</trkpt>
<trkpt lat="32.728069305" lon="35.050354004">
  <ele>491.018066</ele>
  <time>2011-08-20T06:28:59Z</time>
  <speed>1.600000</speed>
</trkpt>
<trkpt lat="32.728092194" lon="35.050380707">
  <ele>491.775879</ele>
  <time>2011-08-20T06:29:01Z</time>
  <speed>1.440000</speed>
</trkpt>
<trkpt lat="32.728111267" lon="35.050403595">
  <ele>492.033691</ele>
  <time>2011-08-20T06:29:03Z</time>
  <speed>1.530000</speed>
</trkpt>
<trkpt lat="32.728145599" lon="35.050411224">
  <ele>492.900879</ele>
  <time>2011-08-20T06:29:06Z</time>
  <speed>1.190000</speed>
</trkpt>
<trkpt lat="32.728172302" lon="35.050449371">
  <ele>492.635254</ele>
  <time>2011-08-20T06:29:09Z</time>
  <speed>1.440000</speed>
</trkpt>
<trkpt lat="32.728179932" lon="35.050479889">
  <ele>492.893066</ele>
  <time>2011-08-20T06:29:11Z</time>
  <speed>1.190000</speed>
</trkpt>
<trkpt lat="32.728199005" lon="35.050506592">
  <ele>493.361816</ele>
  <time>2011-08-20T06:29:13Z</time>
  <speed>1.350000</speed>
</trkpt>
<trkpt lat="32.728221893" lon="35.050529480">
  <ele>493.674316</ele>
  <time>2011-08-20T06:29:15Z</time>
  <speed>1.260000</speed>
</trkpt>
<trkpt lat="32.728240967" lon="35.050559998">
  <ele>493.979004</ele>
  <time>2011-08-20T06:29:17Z</time>
  <speed>1.430000</speed>
</trkpt>
<trkpt lat="32.728267670" lon="35.050601959">
  <ele>493.916504</ele>
  <time>2011-08-20T06:29:20Z</time>
  <speed>1.400000</speed>
</trkpt>
<trkpt lat="32.728313446" lon="35.050621033">
  <ele>494.182129</ele>
  <time>2011-08-20T06:29:23Z</time>
  <speed>1.320000</speed>
</trkpt>
<trkpt lat="32.728355408" lon="35.050628662">
  <ele>494.580566</ele>
  <time>2011-08-20T06:29:25Z</time>
  <speed>1.370000</speed>
</trkpt>
<trkpt lat="32.728374481" lon="35.050659180">
  <ele>494.791504</ele>
  <time>2011-08-20T06:29:28Z</time>
  <speed>1.060000</speed>
</trkpt>
<trkpt lat="32.728393555" lon="35.050689697">
  <ele>494.666504</ele>
  <time>2011-08-20T06:29:30Z</time>
  <speed>1.430000</speed>
</trkpt>
<trkpt lat="32.728431702" lon="35.050708771">
  <ele>494.377441</ele>
  <time>2011-08-20T06:29:33Z</time>
  <speed>1.450000</speed>
</trkpt>
<trkpt lat="32.728462219" lon="35.050735474">
  <ele>494.400879</ele>
  <time>2011-08-20T06:29:35Z</time>
  <speed>1.360000</speed>
</trkpt>
<trkpt lat="32.728485107" lon="35.050769806">
  <ele>494.611816</ele>
  <time>2011-08-20T06:29:38Z</time>
  <speed>1.260000</speed>
</trkpt>
<trkpt lat="32.728519440" lon="35.050800323">
  <ele>494.033691</ele>
  <time>2011-08-20T06:29:41Z</time>
  <speed>1.290000</speed>
</trkpt>
<trkpt lat="32.728561401" lon="35.050819397">
  <ele>494.549316</ele>
  <time>2011-08-20T06:29:44Z</time>
  <speed>1.230000</speed>
</trkpt>
<trkpt lat="32.728584290" lon="35.050846100">
  <ele>495.525879</ele>
  <time>2011-08-20T06:29:47Z</time>
  <speed>1.100000</speed>
</trkpt>
<trkpt lat="32.728607178" lon="35.050865173">
  <ele>495.385254</ele>
  <time>2011-08-20T06:29:50Z</time>
  <speed>1.160000</speed>
</trkpt>
<trkpt lat="32.728630066" lon="35.050899506">
  <ele>496.205566</ele>
  <time>2011-08-20T06:29:54Z</time>
  <speed>0.780000</speed>
</trkpt>
<trkpt lat="32.728652954" lon="35.050910950">
  <ele>497.408691</ele>
  <time>2011-08-20T06:29:57Z</time>
  <speed>0.790000</speed>
</trkpt>
<trkpt lat="32.728675842" lon="35.050937653">
  <ele>497.572754</ele>
  <time>2011-08-20T06:30:00Z</time>
  <speed>0.890000</speed>
</trkpt>
<trkpt lat="32.728687286" lon="35.050968170">
  <ele>497.830566</ele>
  <time>2011-08-20T06:30:03Z</time>
  <speed>0.730000</speed>
</trkpt>
<trkpt lat="32.728721619" lon="35.050979614">
  <ele>498.213379</ele>
  <time>2011-08-20T06:30:05Z</time>
  <speed>0.860000</speed>
</trkpt>
<trkpt lat="32.728763580" lon="35.050979614">
  <ele>498.377441</ele>
  <time>2011-08-20T06:30:07Z</time>
  <speed>1.050000</speed>
</trkpt>
<trkpt lat="32.728797913" lon="35.051010132">
  <ele>498.814941</ele>
  <time>2011-08-20T06:30:09Z</time>
  <speed>1.460000</speed>
</trkpt>
<trkpt lat="32.728824615" lon="35.051029205">
  <ele>498.830566</ele>
  <time>2011-08-20T06:30:11Z</time>
  <speed>1.310000</speed>
</trkpt>
<trkpt lat="32.728847504" lon="35.051063538">
  <ele>499.564941</ele>
  <time>2011-08-20T06:30:14Z</time>
  <speed>1.430000</speed>
</trkpt>
<trkpt lat="32.728881836" lon="35.051086426">
  <ele>500.307129</ele>
  <time>2011-08-20T06:30:16Z</time>
  <speed>1.470000</speed>
</trkpt>
<trkpt lat="32.728912354" lon="35.051090240">
  <ele>500.611816</ele>
  <time>2011-08-20T06:30:17Z</time>
  <speed>1.390000</speed>
</trkpt>
<trkpt lat="32.728935242" lon="35.051109314">
  <ele>501.354004</ele>
  <time>2011-08-20T06:30:19Z</time>
  <speed>1.380000</speed>
</trkpt>
<trkpt lat="32.728965759" lon="35.051128387">
  <ele>501.463379</ele>
  <time>2011-08-20T06:30:21Z</time>
  <speed>1.190000</speed>
</trkpt>
<trkpt lat="32.728996277" lon="35.051132202">
  <ele>504.166504</ele>
  <time>2011-08-20T06:30:25Z</time>
  <speed>0.900000</speed>
</trkpt>
<trkpt lat="32.729026794" lon="35.051155090">
  <ele>505.049316</ele>
  <time>2011-08-20T06:30:29Z</time>
  <speed>0.720000</speed>
</trkpt>
<trkpt lat="32.729049683" lon="35.051166534">
  <ele>505.416504</ele>
  <time>2011-08-20T06:30:30Z</time>
  <speed>0.810000</speed>
</trkpt>
<trkpt lat="32.729076385" lon="35.051181793">
  <ele>506.197754</ele>
  <time>2011-08-20T06:30:32Z</time>
  <speed>1.290000</speed>
</trkpt>
<trkpt lat="32.729110718" lon="35.051200867">
  <ele>506.322754</ele>
  <time>2011-08-20T06:30:35Z</time>
  <speed>0.770000</speed>
</trkpt>
<trkpt lat="32.729137421" lon="35.051231384">
  <ele>506.611816</ele>
  <time>2011-08-20T06:30:38Z</time>
  <speed>1.220000</speed>
</trkpt>
<trkpt lat="32.729167938" lon="35.051250458">
  <ele>506.877441</ele>
  <time>2011-08-20T06:30:40Z</time>
  <speed>1.500000</speed>
</trkpt>
<trkpt lat="32.729198456" lon="35.051265717">
  <ele>506.510254</ele>
  <time>2011-08-20T06:30:42Z</time>
  <speed>1.630000</speed>
</trkpt>
<trkpt lat="32.729217529" lon="35.051292419">
  <ele>507.174316</ele>
  <time>2011-08-20T06:30:44Z</time>
  <speed>1.270000</speed>
</trkpt>
<trkpt lat="32.729244232" lon="35.051307678">
  <ele>507.682129</ele>
  <time>2011-08-20T06:30:47Z</time>
  <speed>0.970000</speed>
</trkpt>
<trkpt lat="32.729274750" lon="35.051322937">
  <ele>509.369629</ele>
  <time>2011-08-20T06:30:50Z</time>
  <speed>1.100000</speed>
</trkpt>
<trkpt lat="32.729297638" lon="35.051353455">
  <ele>509.963379</ele>
  <time>2011-08-20T06:30:52Z</time>
  <speed>1.350000</speed>
</trkpt>
<trkpt lat="32.729312897" lon="35.051387787">
  <ele>510.932129</ele>
  <time>2011-08-20T06:30:55Z</time>
  <speed>1.190000</speed>
</trkpt>
<trkpt lat="32.729320526" lon="35.051422119">
  <ele>512.379883</ele>
  <time>2011-08-20T06:30:58Z</time>
  <speed>0.880000</speed>
</trkpt>
<trkpt lat="32.729351044" lon="35.051437378">
  <ele>512.754883</ele>
  <time>2011-08-20T06:31:00Z</time>
  <speed>1.230000</speed>
</trkpt>
<trkpt lat="32.729381561" lon="35.051452637">
  <ele>512.254883</ele>
  <time>2011-08-20T06:31:02Z</time>
  <speed>1.090000</speed>
</trkpt>
<trkpt lat="32.729408264" lon="35.051441193">
  <ele>513.911133</ele>
  <time>2011-08-20T06:31:06Z</time>
  <speed>1.050000</speed>
</trkpt>
<trkpt lat="32.729438782" lon="35.051456451">
  <ele>514.879883</ele>
  <time>2011-08-20T06:31:09Z</time>
  <speed>0.950000</speed>
</trkpt>
<trkpt lat="32.729473114" lon="35.051490784">
  <ele>516.301758</ele>
  <time>2011-08-20T06:31:14Z</time>
  <speed>1.140000</speed>
</trkpt>
<trkpt lat="32.729492188" lon="35.051509857">
  <ele>517.536133</ele>
  <time>2011-08-20T06:31:16Z</time>
  <speed>1.190000</speed>
</trkpt>
<trkpt lat="32.729515076" lon="35.051536560">
  <ele>517.583008</ele>
  <time>2011-08-20T06:31:19Z</time>
  <speed>0.870000</speed>
</trkpt>
<trkpt lat="32.729537964" lon="35.051563263">
  <ele>517.942383</ele>
  <time>2011-08-20T06:31:21Z</time>
  <speed>1.020000</speed>
</trkpt>
<trkpt lat="32.729560852" lon="35.051578522">
  <ele>518.161133</ele>
  <time>2011-08-20T06:31:23Z</time>
  <speed>1.460000</speed>
</trkpt>
<trkpt lat="32.729587555" lon="35.051593781">
  <ele>518.036133</ele>
  <time>2011-08-20T06:31:25Z</time>
  <speed>1.030000</speed>
</trkpt>
<trkpt lat="32.729610443" lon="35.051616669">
  <ele>519.129883</ele>
  <time>2011-08-20T06:31:28Z</time>
  <speed>0.860000</speed>
</trkpt>
<trkpt lat="32.729637146" lon="35.051631927">
  <ele>519.598633</ele>
  <time>2011-08-20T06:31:30Z</time>
  <speed>0.890000</speed>
</trkpt>
<trkpt lat="32.729652405" lon="35.051662445">
  <ele>519.551758</ele>
  <time>2011-08-20T06:31:33Z</time>
  <speed>1.200000</speed>
</trkpt>
<trkpt lat="32.729671478" lon="35.051689148">
  <ele>519.442383</ele>
  <time>2011-08-20T06:31:35Z</time>
  <speed>1.240000</speed>
</trkpt>
<trkpt lat="32.729694366" lon="35.051708221">
  <ele>519.551758</ele>
  <time>2011-08-20T06:31:37Z</time>
  <speed>1.030000</speed>
</trkpt>
<trkpt lat="32.729705811" lon="35.051753998">
  <ele>519.176758</ele>
  <time>2011-08-20T06:31:40Z</time>
  <speed>1.300000</speed>
</trkpt>
<trkpt lat="32.729728699" lon="35.051780701">
  <ele>519.520508</ele>
  <time>2011-08-20T06:31:42Z</time>
  <speed>1.120000</speed>
</trkpt>
<trkpt lat="32.729728699" lon="35.051811218">
  <ele>519.786133</ele>
  <time>2011-08-20T06:31:45Z</time>
  <speed>1.220000</speed>
</trkpt>
<trkpt lat="32.729736328" lon="35.051849365">
  <ele>519.973633</ele>
  <time>2011-08-20T06:31:48Z</time>
  <speed>1.180000</speed>
</trkpt>
<trkpt lat="32.729736328" lon="35.051895142">
  <ele>519.754883</ele>
  <time>2011-08-20T06:31:50Z</time>
  <speed>1.740000</speed>
</trkpt>
<trkpt lat="32.729736328" lon="35.051940918">
  <ele>519.629883</ele>
  <time>2011-08-20T06:31:52Z</time>
  <speed>1.730000</speed>
</trkpt>
<trkpt lat="32.729724884" lon="35.051982880">
  <ele>519.411133</ele>
  <time>2011-08-20T06:31:54Z</time>
  <speed>1.800000</speed>
</trkpt>
<trkpt lat="32.729705811" lon="35.052021027">
  <ele>518.926758</ele>
  <time>2011-08-20T06:31:57Z</time>
  <speed>1.410000</speed>
</trkpt>
<trkpt lat="32.729679108" lon="35.052051544">
  <ele>518.817383</ele>
  <time>2011-08-20T06:31:59Z</time>
  <speed>1.500000</speed>
</trkpt>
<trkpt lat="32.729660034" lon="35.052078247">
  <ele>518.473633</ele>
  <time>2011-08-20T06:32:01Z</time>
  <speed>1.420000</speed>
</trkpt>
<trkpt lat="32.729629517" lon="35.052104950">
  <ele>519.223633</ele>
  <time>2011-08-20T06:32:04Z</time>
  <speed>1.460000</speed>
</trkpt>
<trkpt lat="32.729633331" lon="35.052139282">
  <ele>519.395508</ele>
  <time>2011-08-20T06:32:06Z</time>
  <speed>1.070000</speed>
</trkpt>
<trkpt lat="32.729621887" lon="35.052173615">
  <ele>520.270508</ele>
  <time>2011-08-20T06:32:09Z</time>
  <speed>1.140000</speed>
</trkpt>
<trkpt lat="32.729621887" lon="35.052204132">
  <ele>520.520508</ele>
  <time>2011-08-20T06:32:11Z</time>
  <speed>0.460000</speed>
</trkpt>
<trkpt lat="32.729637146" lon="35.052234650">
  <ele>520.911133</ele>
  <time>2011-08-20T06:32:51Z</time>
  <speed>0.060000</speed>
</trkpt>
<trkpt lat="32.729602814" lon="35.052261353">
  <ele>520.895508</ele>
  <time>2011-08-20T06:34:05Z</time>
  <speed>1.260000</speed>
</trkpt>
<trkpt lat="32.729568481" lon="35.052280426">
  <ele>521.817383</ele>
  <time>2011-08-20T06:34:07Z</time>
  <speed>1.060000</speed>
</trkpt>
<trkpt lat="32.729541779" lon="35.052295685">
  <ele>522.817383</ele>
  <time>2011-08-20T06:34:09Z</time>
  <speed>0.970000</speed>
</trkpt>
<trkpt lat="32.729515076" lon="35.052330017">
  <ele>523.817383</ele>
  <time>2011-08-20T06:34:11Z</time>
  <speed>1.400000</speed>
</trkpt>
<trkpt lat="32.729503632" lon="35.052360535">
  <ele>523.708008</ele>
  <time>2011-08-20T06:34:13Z</time>
  <speed>1.330000</speed>
</trkpt>
<trkpt lat="32.729511261" lon="35.052394867">
  <ele>523.833008</ele>
  <time>2011-08-20T06:34:16Z</time>
  <speed>0.190000</speed>
</trkpt>
<trkpt lat="32.729496002" lon="35.052421570">
  <ele>523.426758</ele>
  <time>2011-08-20T06:34:53Z</time>
  <speed>1.460000</speed>
</trkpt>
<trkpt lat="32.729461670" lon="35.052440643">
  <ele>523.176758</ele>
  <time>2011-08-20T06:34:55Z</time>
  <speed>1.300000</speed>
</trkpt>
<trkpt lat="32.729423523" lon="35.052448273">
  <ele>523.051758</ele>
  <time>2011-08-20T06:34:58Z</time>
  <speed>0.910000</speed>
</trkpt>
<trkpt lat="32.729400635" lon="35.052467346">
  <ele>522.661133</ele>
  <time>2011-08-20T06:35:00Z</time>
  <speed>1.200000</speed>
</trkpt>
<trkpt lat="32.729373932" lon="35.052490234">
  <ele>522.676758</ele>
  <time>2011-08-20T06:35:02Z</time>
  <speed>1.460000</speed>
</trkpt>
<trkpt lat="32.729347229" lon="35.052516937">
  <ele>522.958008</ele>
  <time>2011-08-20T06:35:04Z</time>
  <speed>1.710000</speed>
</trkpt>
<trkpt lat="32.729316711" lon="35.052539825">
  <ele>522.739258</ele>
  <time>2011-08-20T06:35:07Z</time>
  <speed>1.430000</speed>
</trkpt>
<trkpt lat="32.729293823" lon="35.052574158">
  <ele>523.145508</ele>
  <time>2011-08-20T06:35:09Z</time>
  <speed>1.580000</speed>
</trkpt>
<trkpt lat="32.729270935" lon="35.052600861">
  <ele>522.848633</ele>
  <time>2011-08-20T06:35:11Z</time>
  <speed>1.510000</speed>
</trkpt>
<trkpt lat="32.729251862" lon="35.052623749">
  <ele>522.520508</ele>
  <time>2011-08-20T06:35:13Z</time>
  <speed>1.340000</speed>
</trkpt>
<trkpt lat="32.729236603" lon="35.052654266">
  <ele>524.333008</ele>
  <time>2011-08-20T06:35:15Z</time>
  <speed>1.250000</speed>
</trkpt>
<trkpt lat="32.729221344" lon="35.052680969">
  <ele>524.129883</ele>
  <time>2011-08-20T06:35:17Z</time>
  <speed>1.470000</speed>
</trkpt>
<trkpt lat="32.729209900" lon="35.052715302">
  <ele>524.583008</ele>
  <time>2011-08-20T06:35:19Z</time>
  <speed>1.280000</speed>
</trkpt>
<trkpt lat="32.729198456" lon="35.052745819">
  <ele>525.379883</ele>
  <time>2011-08-20T06:35:22Z</time>
  <speed>1.050000</speed>
</trkpt>
<trkpt lat="32.729171753" lon="35.052776337">
  <ele>525.254883</ele>
  <time>2011-08-20T06:35:25Z</time>
  <speed>1.390000</speed>
</trkpt>
<trkpt lat="32.729160309" lon="35.052829742">
  <ele>526.348633</ele>
  <time>2011-08-20T06:35:28Z</time>
  <speed>1.090000</speed>
</trkpt>
<trkpt lat="32.729187012" lon="35.052845001">
  <ele>525.239258</ele>
  <time>2011-08-20T06:35:30Z</time>
  <speed>1.140000</speed>
</trkpt>
<trkpt lat="32.729213715" lon="35.052841187">
  <ele>524.051758</ele>
  <time>2011-08-20T06:35:31Z</time>
  <speed>1.300000</speed>
</trkpt>
<trkpt lat="32.729248047" lon="35.052814484">
  <ele>522.317383</ele>
  <time>2011-08-20T06:35:33Z</time>
  <speed>2.000000</speed>
</trkpt>
<trkpt lat="32.729282379" lon="35.052772522">
  <ele>520.879883</ele>
  <time>2011-08-20T06:35:35Z</time>
  <speed>2.320000</speed>
</trkpt>
<trkpt lat="32.729301453" lon="35.052745819">
  <ele>520.770508</ele>
  <time>2011-08-20T06:35:36Z</time>
  <speed>2.400000</speed>
</trkpt>
<trkpt lat="32.729339600" lon="35.052703857">
  <ele>519.770508</ele>
  <time>2011-08-20T06:35:38Z</time>
  <speed>2.310000</speed>
</trkpt>
<trkpt lat="32.729373932" lon="35.052677155">
  <ele>519.520508</ele>
  <time>2011-08-20T06:35:40Z</time>
  <speed>2.340000</speed>
</trkpt>
<trkpt lat="32.729412079" lon="35.052646637">
  <ele>519.708008</ele>
  <time>2011-08-20T06:35:42Z</time>
  <speed>2.340000</speed>
</trkpt>
<trkpt lat="32.729446411" lon="35.052612305">
  <ele>520.051758</ele>
  <time>2011-08-20T06:35:44Z</time>
  <speed>2.530000</speed>
</trkpt>
<trkpt lat="32.729488373" lon="35.052585602">
  <ele>520.661133</ele>
  <time>2011-08-20T06:35:46Z</time>
  <speed>2.680000</speed>
</trkpt>
<trkpt lat="32.729534149" lon="35.052551270">
  <ele>521.208008</ele>
  <time>2011-08-20T06:35:48Z</time>
  <speed>2.710000</speed>
</trkpt>
<trkpt lat="32.729572296" lon="35.052524567">
  <ele>520.489258</ele>
  <time>2011-08-20T06:35:50Z</time>
  <speed>2.630000</speed>
</trkpt>
<trkpt lat="32.729610443" lon="35.052490234">
  <ele>520.098633</ele>
  <time>2011-08-20T06:35:52Z</time>
  <speed>2.610000</speed>
</trkpt>
<trkpt lat="32.729652405" lon="35.052467346">
  <ele>520.098633</ele>
  <time>2011-08-20T06:35:54Z</time>
  <speed>2.250000</speed>
</trkpt>
<trkpt lat="32.729690552" lon="35.052429199">
  <ele>519.770508</ele>
  <time>2011-08-20T06:35:56Z</time>
  <speed>2.400000</speed>
</trkpt>
<trkpt lat="32.729724884" lon="35.052410126">
  <ele>518.723633</ele>
  <time>2011-08-20T06:35:58Z</time>
  <speed>2.180000</speed>
</trkpt>
<trkpt lat="32.729766846" lon="35.052394867">
  <ele>518.864258</ele>
  <time>2011-08-20T06:36:00Z</time>
  <speed>2.290000</speed>
</trkpt>
<trkpt lat="32.729782104" lon="35.052341461">
  <ele>520.364258</ele>
  <time>2011-08-20T06:36:02Z</time>
  <speed>2.140000</speed>
</trkpt>
<trkpt lat="32.729812622" lon="35.052318573">
  <ele>521.161133</ele>
  <time>2011-08-20T06:36:04Z</time>
  <speed>1.610000</speed>
</trkpt>
<trkpt lat="32.729839325" lon="35.052303314">
  <ele>521.989258</ele>
  <time>2011-08-20T06:36:06Z</time>
  <speed>1.460000</speed>
</trkpt>
<trkpt lat="32.729862213" lon="35.052288055">
  <ele>521.583008</ele>
  <time>2011-08-20T06:36:08Z</time>
  <speed>1.270000</speed>
</trkpt>
<trkpt lat="32.729896545" lon="35.052268982">
  <ele>520.942383</ele>
  <time>2011-08-20T06:36:10Z</time>
  <speed>1.680000</speed>
</trkpt>
<trkpt lat="32.729923248" lon="35.052242279">
  <ele>521.629883</ele>
  <time>2011-08-20T06:36:12Z</time>
  <speed>1.790000</speed>
</trkpt>
<trkpt lat="32.729949951" lon="35.052261353">
  <ele>521.192383</ele>
  <time>2011-08-20T06:36:13Z</time>
  <speed>3.220000</speed>
</trkpt>
<trkpt lat="32.729980469" lon="35.052288055">
  <ele>521.067383</ele>
  <time>2011-08-20T06:36:14Z</time>
  <speed>3.540000</speed>
</trkpt>
<trkpt lat="32.730007172" lon="35.052314758">
  <ele>521.426758</ele>
  <time>2011-08-20T06:36:15Z</time>
  <speed>3.260000</speed>
</trkpt>
<trkpt lat="32.730030060" lon="35.052337646">
  <ele>521.489258</ele>
  <time>2011-08-20T06:36:16Z</time>
  <speed>2.900000</speed>
</trkpt>
<trkpt lat="32.730056763" lon="35.052364349">
  <ele>521.379883</ele>
  <time>2011-08-20T06:36:17Z</time>
  <speed>2.260000</speed>
</trkpt>
<trkpt lat="32.730087280" lon="35.052413940">
  <ele>521.942383</ele>
  <time>2011-08-20T06:36:19Z</time>
  <speed>2.570000</speed>
</trkpt>
<trkpt lat="32.730110168" lon="35.052463531">
  <ele>520.926758</ele>
  <time>2011-08-20T06:36:21Z</time>
  <speed>2.120000</speed>
</trkpt>
<trkpt lat="32.730136871" lon="35.052486420">
  <ele>521.473633</ele>
  <time>2011-08-20T06:36:22Z</time>
  <speed>2.040000</speed>
</trkpt>
<trkpt lat="32.730152130" lon="35.052532196">
  <ele>520.895508</ele>
  <time>2011-08-20T06:36:24Z</time>
  <speed>2.070000</speed>
</trkpt>
<trkpt lat="32.730167389" lon="35.052574158">
  <ele>520.536133</ele>
  <time>2011-08-20T06:36:26Z</time>
  <speed>2.050000</speed>
</trkpt>
<trkpt lat="32.730190277" lon="35.052608490">
  <ele>519.536133</ele>
  <time>2011-08-20T06:36:28Z</time>
  <speed>1.870000</speed>
</trkpt>
<trkpt lat="32.730213165" lon="35.052646637">
  <ele>519.817383</ele>
  <time>2011-08-20T06:36:30Z</time>
  <speed>1.860000</speed>
</trkpt>
<trkpt lat="32.730243683" lon="35.052677155">
  <ele>520.083008</ele>
  <time>2011-08-20T06:36:32Z</time>
  <speed>1.900000</speed>
</trkpt>
<trkpt lat="32.730274200" lon="35.052692413">
  <ele>520.708008</ele>
  <time>2011-08-20T06:36:34Z</time>
  <speed>1.920000</speed>
</trkpt>
<trkpt lat="32.730304718" lon="35.052715302">
  <ele>521.239258</ele>
  <time>2011-08-20T06:36:36Z</time>
  <speed>1.920000</speed>
</trkpt>
<trkpt lat="32.730346680" lon="35.052726746">
  <ele>521.817383</ele>
  <time>2011-08-20T06:36:38Z</time>
  <speed>1.500000</speed>
</trkpt>
<trkpt lat="32.730381012" lon="35.052742004">
  <ele>521.926758</ele>
  <time>2011-08-20T06:36:40Z</time>
  <speed>1.840000</speed>
</trkpt>
<trkpt lat="32.730422974" lon="35.052738190">
  <ele>522.708008</ele>
  <time>2011-08-20T06:36:43Z</time>
  <speed>1.860000</speed>
</trkpt>
<trkpt lat="32.730457306" lon="35.052719116">
  <ele>523.536133</ele>
  <time>2011-08-20T06:36:45Z</time>
  <speed>1.860000</speed>
</trkpt>
<trkpt lat="32.730491638" lon="35.052715302">
  <ele>524.333008</ele>
  <time>2011-08-20T06:36:47Z</time>
  <speed>1.670000</speed>
</trkpt>
<trkpt lat="32.730522156" lon="35.052719116">
  <ele>524.583008</ele>
  <time>2011-08-20T06:36:49Z</time>
  <speed>1.810000</speed>
</trkpt>
<trkpt lat="32.730560303" lon="35.052726746">
  <ele>525.004883</ele>
  <time>2011-08-20T06:36:51Z</time>
  <speed>1.680000</speed>
</trkpt>
<trkpt lat="32.730602264" lon="35.052726746">
  <ele>524.911133</ele>
  <time>2011-08-20T06:36:53Z</time>
  <speed>2.040000</speed>
</trkpt>
<trkpt lat="32.730625153" lon="35.052738190">
  <ele>526.801758</ele>
  <time>2011-08-20T06:36:55Z</time>
  <speed>1.650000</speed>
</trkpt>
<trkpt lat="32.730667114" lon="35.052722931">
  <ele>528.286133</ele>
  <time>2011-08-20T06:36:57Z</time>
  <speed>2.050000</speed>
</trkpt>
<trkpt lat="32.730697632" lon="35.052711487">
  <ele>528.676758</ele>
  <time>2011-08-20T06:36:59Z</time>
  <speed>1.950000</speed>
</trkpt>
<trkpt lat="32.730728149" lon="35.052715302">
  <ele>528.442383</ele>
  <time>2011-08-20T06:37:01Z</time>
  <speed>1.670000</speed>
</trkpt>
<trkpt lat="32.730762482" lon="35.052707672">
  <ele>528.098633</ele>
  <time>2011-08-20T06:37:03Z</time>
  <speed>1.790000</speed>
</trkpt>
<trkpt lat="32.730800629" lon="35.052692413">
  <ele>527.973633</ele>
  <time>2011-08-20T06:37:05Z</time>
  <speed>1.970000</speed>
</trkpt>
<trkpt lat="32.730834961" lon="35.052677155">
  <ele>528.879883</ele>
  <time>2011-08-20T06:37:07Z</time>
  <speed>2.240000</speed>
</trkpt>
<trkpt lat="32.730880737" lon="35.052677155">
  <ele>528.520508</ele>
  <time>2011-08-20T06:37:09Z</time>
  <speed>2.200000</speed>
</trkpt>
<trkpt lat="32.730926514" lon="35.052673340">
  <ele>528.895508</ele>
  <time>2011-08-20T06:37:11Z</time>
  <speed>2.210000</speed>
</trkpt>
<trkpt lat="32.730972290" lon="35.052658081">
  <ele>528.879883</ele>
  <time>2011-08-20T06:37:13Z</time>
  <speed>2.330000</speed>
</trkpt>
<trkpt lat="32.730998993" lon="35.052658081">
  <ele>529.051758</ele>
  <time>2011-08-20T06:37:14Z</time>
  <speed>2.640000</speed>
</trkpt>
<trkpt lat="32.731025696" lon="35.052650452">
  <ele>529.145508</ele>
  <time>2011-08-20T06:37:15Z</time>
  <speed>2.310000</speed>
</trkpt>
<trkpt lat="32.731075287" lon="35.052635193">
  <ele>529.192383</ele>
  <time>2011-08-20T06:37:17Z</time>
  <speed>2.690000</speed>
</trkpt>
<trkpt lat="32.731124878" lon="35.052631378">
  <ele>529.426758</ele>
  <time>2011-08-20T06:37:19Z</time>
  <speed>2.850000</speed>
</trkpt>
<trkpt lat="32.731151581" lon="35.052623749">
  <ele>529.661133</ele>
  <time>2011-08-20T06:37:20Z</time>
  <speed>3.180000</speed>
</trkpt>
<trkpt lat="32.731174469" lon="35.052604675">
  <ele>529.317383</ele>
  <time>2011-08-20T06:37:21Z</time>
  <speed>3.130000</speed>
</trkpt>
<trkpt lat="32.731204987" lon="35.052600861">
  <ele>529.067383</ele>
  <time>2011-08-20T06:37:22Z</time>
  <speed>3.160000</speed>
</trkpt>
<trkpt lat="32.731258392" lon="35.052597046">
  <ele>528.504883</ele>
  <time>2011-08-20T06:37:24Z</time>
  <speed>3.620000</speed>
</trkpt>
<trkpt lat="32.731292725" lon="35.052597046">
  <ele>528.473633</ele>
  <time>2011-08-20T06:37:25Z</time>
  <speed>3.830000</speed>
</trkpt>
<trkpt lat="32.731327057" lon="35.052600861">
  <ele>528.145508</ele>
  <time>2011-08-20T06:37:26Z</time>
  <speed>3.840000</speed>
</trkpt>
<trkpt lat="32.731365204" lon="35.052608490">
  <ele>527.989258</ele>
  <time>2011-08-20T06:37:27Z</time>
  <speed>4.210000</speed>
</trkpt>
<trkpt lat="32.731403351" lon="35.052616119">
  <ele>528.145508</ele>
  <time>2011-08-20T06:37:28Z</time>
  <speed>4.300000</speed>
</trkpt>
<trkpt lat="32.731452942" lon="35.052631378">
  <ele>528.661133</ele>
  <time>2011-08-20T06:37:29Z</time>
  <speed>4.840000</speed>
</trkpt>
<trkpt lat="32.731506348" lon="35.052650452">
  <ele>527.723633</ele>
  <time>2011-08-20T06:37:30Z</time>
  <speed>5.220000</speed>
</trkpt>
<trkpt lat="32.731552124" lon="35.052677155">
  <ele>526.926758</ele>
  <time>2011-08-20T06:37:31Z</time>
  <speed>5.210000</speed>
</trkpt>
<trkpt lat="32.731601715" lon="35.052703857">
  <ele>526.426758</ele>
  <time>2011-08-20T06:37:32Z</time>
  <speed>5.480000</speed>
</trkpt>
<trkpt lat="32.731651306" lon="35.052726746">
  <ele>525.864258</ele>
  <time>2011-08-20T06:37:33Z</time>
  <speed>5.570000</speed>
</trkpt>
<trkpt lat="32.731700897" lon="35.052745819">
  <ele>525.020508</ele>
  <time>2011-08-20T06:37:34Z</time>
  <speed>5.710000</speed>
</trkpt>
<trkpt lat="32.731750488" lon="35.052764893">
  <ele>524.379883</ele>
  <time>2011-08-20T06:37:35Z</time>
  <speed>5.610000</speed>
</trkpt>
<trkpt lat="32.731796265" lon="35.052780151">
  <ele>524.114258</ele>
  <time>2011-08-20T06:37:36Z</time>
  <speed>5.410000</speed>
</trkpt>
<trkpt lat="32.731845856" lon="35.052795410">
  <ele>524.504883</ele>
  <time>2011-08-20T06:37:37Z</time>
  <speed>5.570000</speed>
</trkpt>
<trkpt lat="32.731891632" lon="35.052822113">
  <ele>524.176758</ele>
  <time>2011-08-20T06:37:38Z</time>
  <speed>5.640000</speed>
</trkpt>
<trkpt lat="32.731933594" lon="35.052852631">
  <ele>524.520508</ele>
  <time>2011-08-20T06:37:39Z</time>
  <speed>5.240000</speed>
</trkpt>
<trkpt lat="32.731979370" lon="35.052890778">
  <ele>524.567383</ele>
  <time>2011-08-20T06:37:40Z</time>
  <speed>5.290000</speed>
</trkpt>
<trkpt lat="32.732013702" lon="35.052921295">
  <ele>523.489258</ele>
  <time>2011-08-20T06:37:41Z</time>
  <speed>4.880000</speed>
</trkpt>
<trkpt lat="32.732048035" lon="35.052944183">
  <ele>524.036133</ele>
  <time>2011-08-20T06:37:42Z</time>
  <speed>4.500000</speed>
</trkpt>
<trkpt lat="32.732082367" lon="35.052970886">
  <ele>524.208008</ele>
  <time>2011-08-20T06:37:43Z</time>
  <speed>4.240000</speed>
</trkpt>
<trkpt lat="32.732120514" lon="35.052986145">
  <ele>524.348633</ele>
  <time>2011-08-20T06:37:44Z</time>
  <speed>4.010000</speed>
</trkpt>
<trkpt lat="32.732151031" lon="35.053005219">
  <ele>524.473633</ele>
  <time>2011-08-20T06:37:45Z</time>
  <speed>3.740000</speed>
</trkpt>
<trkpt lat="32.732185364" lon="35.053020477">
  <ele>524.754883</ele>
  <time>2011-08-20T06:37:46Z</time>
  <speed>3.490000</speed>
</trkpt>
<trkpt lat="32.732212067" lon="35.053035736">
  <ele>524.848633</ele>
  <time>2011-08-20T06:37:47Z</time>
  <speed>3.500000</speed>
</trkpt>
<trkpt lat="32.732242584" lon="35.053054810">
  <ele>523.489258</ele>
  <time>2011-08-20T06:37:48Z</time>
  <speed>3.420000</speed>
</trkpt>
<trkpt lat="32.732261658" lon="35.053081512">
  <ele>523.145508</ele>
  <time>2011-08-20T06:37:49Z</time>
  <speed>2.830000</speed>
</trkpt>
<trkpt lat="32.732284546" lon="35.053096771">
  <ele>522.864258</ele>
  <time>2011-08-20T06:37:50Z</time>
  <speed>2.590000</speed>
</trkpt>
<trkpt lat="32.732318878" lon="35.053119659">
  <ele>523.567383</ele>
  <time>2011-08-20T06:37:52Z</time>
  <speed>1.830000</speed>
</trkpt>
<trkpt lat="32.732353210" lon="35.053115845">
  <ele>524.129883</ele>
  <time>2011-08-20T06:37:54Z</time>
  <speed>1.830000</speed>
</trkpt>
<trkpt lat="32.732391357" lon="35.053100586">
  <ele>524.473633</ele>
  <time>2011-08-20T06:37:56Z</time>
  <speed>2.310000</speed>
</trkpt>
<trkpt lat="32.732444763" lon="35.053092957">
  <ele>524.145508</ele>
  <time>2011-08-20T06:37:58Z</time>
  <speed>2.790000</speed>
</trkpt>
<trkpt lat="32.732486725" lon="35.053077698">
  <ele>525.942383</ele>
  <time>2011-08-20T06:38:00Z</time>
  <speed>2.690000</speed>
</trkpt>
<trkpt lat="32.732517242" lon="35.053062439">
  <ele>526.114258</ele>
  <time>2011-08-20T06:38:01Z</time>
  <speed>2.780000</speed>
</trkpt>
<trkpt lat="32.732543945" lon="35.053047180">
  <ele>526.083008</ele>
  <time>2011-08-20T06:38:02Z</time>
  <speed>2.550000</speed>
</trkpt>
<trkpt lat="32.732578278" lon="35.053005219">
  <ele>525.879883</ele>
  <time>2011-08-20T06:38:04Z</time>
  <speed>2.820000</speed>
</trkpt>
<trkpt lat="32.732601166" lon="35.052982330">
  <ele>525.754883</ele>
  <time>2011-08-20T06:38:05Z</time>
  <speed>2.940000</speed>
</trkpt>
<trkpt lat="32.732639313" lon="35.052936554">
  <ele>525.614258</ele>
  <time>2011-08-20T06:38:07Z</time>
  <speed>2.780000</speed>
</trkpt>
<trkpt lat="32.732654572" lon="35.052909851">
  <ele>525.395508</ele>
  <time>2011-08-20T06:38:08Z</time>
  <speed>2.520000</speed>
</trkpt>
<trkpt lat="32.732681274" lon="35.052864075">
  <ele>525.176758</ele>
  <time>2011-08-20T06:38:10Z</time>
  <speed>2.850000</speed>
</trkpt>
<trkpt lat="32.732696533" lon="35.052829742">
  <ele>525.411133</ele>
  <time>2011-08-20T06:38:11Z</time>
  <speed>2.950000</speed>
</trkpt>
<trkpt lat="32.732711792" lon="35.052803040">
  <ele>525.333008</ele>
  <time>2011-08-20T06:38:12Z</time>
  <speed>2.930000</speed>
</trkpt>
<trkpt lat="32.732727051" lon="35.052776337">
  <ele>525.145508</ele>
  <time>2011-08-20T06:38:13Z</time>
  <speed>3.240000</speed>
</trkpt>
<trkpt lat="32.732742310" lon="35.052745819">
  <ele>524.879883</ele>
  <time>2011-08-20T06:38:14Z</time>
  <speed>3.210000</speed>
</trkpt>
<trkpt lat="32.732757568" lon="35.052715302">
  <ele>524.848633</ele>
  <time>2011-08-20T06:38:15Z</time>
  <speed>3.330000</speed>
</trkpt>
<trkpt lat="32.732776642" lon="35.052684784">
  <ele>524.567383</ele>
  <time>2011-08-20T06:38:16Z</time>
  <speed>3.540000</speed>
</trkpt>
<trkpt lat="32.732791901" lon="35.052650452">
  <ele>524.504883</ele>
  <time>2011-08-20T06:38:17Z</time>
  <speed>3.460000</speed>
</trkpt>
<trkpt lat="32.732807159" lon="35.052619934">
  <ele>524.176758</ele>
  <time>2011-08-20T06:38:18Z</time>
  <speed>3.660000</speed>
</trkpt>
<trkpt lat="32.732822418" lon="35.052589417">
  <ele>523.942383</ele>
  <time>2011-08-20T06:38:19Z</time>
  <speed>3.810000</speed>
</trkpt>
<trkpt lat="32.732841492" lon="35.052558899">
  <ele>523.239258</ele>
  <time>2011-08-20T06:38:20Z</time>
  <speed>3.780000</speed>
</trkpt>
<trkpt lat="32.732856750" lon="35.052524567">
  <ele>522.583008</ele>
  <time>2011-08-20T06:38:21Z</time>
  <speed>3.970000</speed>
</trkpt>
<trkpt lat="32.732872009" lon="35.052482605">
  <ele>522.864258</ele>
  <time>2011-08-20T06:38:22Z</time>
  <speed>4.000000</speed>
</trkpt>
<trkpt lat="32.732887268" lon="35.052452087">
  <ele>522.645508</ele>
  <time>2011-08-20T06:38:23Z</time>
  <speed>4.140000</speed>
</trkpt>
<trkpt lat="32.732898712" lon="35.052406311">
  <ele>522.708008</ele>
  <time>2011-08-20T06:38:24Z</time>
  <speed>4.270000</speed>
</trkpt>
<trkpt lat="32.732917786" lon="35.052368164">
  <ele>522.989258</ele>
  <time>2011-08-20T06:38:25Z</time>
  <speed>4.350000</speed>
</trkpt>
<trkpt lat="32.732940674" lon="35.052333832">
  <ele>522.270508</ele>
  <time>2011-08-20T06:38:26Z</time>
  <speed>4.520000</speed>
</trkpt>
<trkpt lat="32.732963562" lon="35.052288055">
  <ele>522.176758</ele>
  <time>2011-08-20T06:38:27Z</time>
  <speed>4.500000</speed>
</trkpt>
<trkpt lat="32.732986450" lon="35.052242279">
  <ele>521.879883</ele>
  <time>2011-08-20T06:38:28Z</time>
  <speed>4.560000</speed>
</trkpt>
<trkpt lat="32.733005524" lon="35.052200317">
  <ele>521.739258</ele>
  <time>2011-08-20T06:38:29Z</time>
  <speed>4.580000</speed>
</trkpt>
<trkpt lat="32.733024597" lon="35.052154541">
  <ele>522.020508</ele>
  <time>2011-08-20T06:38:30Z</time>
  <speed>4.560000</speed>
</trkpt>
<trkpt lat="32.733047485" lon="35.052112579">
  <ele>521.895508</ele>
  <time>2011-08-20T06:38:31Z</time>
  <speed>4.490000</speed>
</trkpt>
<trkpt lat="32.733070374" lon="35.052078247">
  <ele>521.317383</ele>
  <time>2011-08-20T06:38:32Z</time>
  <speed>4.620000</speed>
</trkpt>
<trkpt lat="32.733089447" lon="35.052036285">
  <ele>521.020508</ele>
  <time>2011-08-20T06:38:33Z</time>
  <speed>4.660000</speed>
</trkpt>
<trkpt lat="32.733108521" lon="35.051998138">
  <ele>520.426758</ele>
  <time>2011-08-20T06:38:34Z</time>
  <speed>4.680000</speed>
</trkpt>
<trkpt lat="32.733127594" lon="35.051952362">
  <ele>520.848633</ele>
  <time>2011-08-20T06:38:35Z</time>
  <speed>4.720000</speed>
</trkpt>
<trkpt lat="32.733154297" lon="35.051902771">
  <ele>520.583008</ele>
  <time>2011-08-20T06:38:36Z</time>
  <speed>4.840000</speed>
</trkpt>
<trkpt lat="32.733173370" lon="35.051856995">
  <ele>520.676758</ele>
  <time>2011-08-20T06:38:37Z</time>
  <speed>4.850000</speed>
</trkpt>
<trkpt lat="32.733196259" lon="35.051811218">
  <ele>520.489258</ele>
  <time>2011-08-20T06:38:38Z</time>
  <speed>5.020000</speed>
</trkpt>
<trkpt lat="32.733219147" lon="35.051765442">
  <ele>520.426758</ele>
  <time>2011-08-20T06:38:39Z</time>
  <speed>5.040000</speed>
</trkpt>
<trkpt lat="32.733242035" lon="35.051712036">
  <ele>520.614258</ele>
  <time>2011-08-20T06:38:40Z</time>
  <speed>5.240000</speed>
</trkpt>
<trkpt lat="32.733268738" lon="35.051666260">
  <ele>520.958008</ele>
  <time>2011-08-20T06:38:41Z</time>
  <speed>5.270000</speed>
</trkpt>
<trkpt lat="32.733299255" lon="35.051616669">
  <ele>521.864258</ele>
  <time>2011-08-20T06:38:42Z</time>
  <speed>5.070000</speed>
</trkpt>
<trkpt lat="32.733325958" lon="35.051567078">
  <ele>522.286133</ele>
  <time>2011-08-20T06:38:43Z</time>
  <speed>5.130000</speed>
</trkpt>
<trkpt lat="32.733352661" lon="35.051525116">
  <ele>522.270508</ele>
  <time>2011-08-20T06:38:44Z</time>
  <speed>5.130000</speed>
</trkpt>
<trkpt lat="32.733379364" lon="35.051479340">
  <ele>521.848633</ele>
  <time>2011-08-20T06:38:45Z</time>
  <speed>5.030000</speed>
</trkpt>
<trkpt lat="32.733409882" lon="35.051437378">
  <ele>521.614258</ele>
  <time>2011-08-20T06:38:46Z</time>
  <speed>4.850000</speed>
</trkpt>
<trkpt lat="32.733428955" lon="35.051387787">
  <ele>522.411133</ele>
  <time>2011-08-20T06:38:47Z</time>
  <speed>4.890000</speed>
</trkpt>
<trkpt lat="32.733459473" lon="35.051357269">
  <ele>523.286133</ele>
  <time>2011-08-20T06:38:48Z</time>
  <speed>4.360000</speed>
</trkpt>
<trkpt lat="32.733489990" lon="35.051338196">
  <ele>523.614258</ele>
  <time>2011-08-20T06:38:49Z</time>
  <speed>3.600000</speed>
</trkpt>
<trkpt lat="32.733520508" lon="35.051334381">
  <ele>523.958008</ele>
  <time>2011-08-20T06:38:50Z</time>
  <speed>3.580000</speed>
</trkpt>
<trkpt lat="32.733551025" lon="35.051334381">
  <ele>523.426758</ele>
  <time>2011-08-20T06:38:51Z</time>
  <speed>4.050000</speed>
</trkpt>
<trkpt lat="32.733585358" lon="35.051322937">
  <ele>523.583008</ele>
  <time>2011-08-20T06:38:52Z</time>
  <speed>3.870000</speed>
</trkpt>
<trkpt lat="32.733612061" lon="35.051303864">
  <ele>523.411133</ele>
  <time>2011-08-20T06:38:53Z</time>
  <speed>3.360000</speed>
</trkpt>
<trkpt lat="32.733634949" lon="35.051292419">
  <ele>523.411133</ele>
  <time>2011-08-20T06:38:54Z</time>
  <speed>3.390000</speed>
</trkpt>
<trkpt lat="32.733661652" lon="35.051277161">
  <ele>523.426758</ele>
  <time>2011-08-20T06:38:55Z</time>
  <speed>3.290000</speed>
</trkpt>
<trkpt lat="32.733688354" lon="35.051258087">
  <ele>523.567383</ele>
  <time>2011-08-20T06:38:56Z</time>
  <speed>3.300000</speed>
</trkpt>
<trkpt lat="32.733715057" lon="35.051239014">
  <ele>523.864258</ele>
  <time>2011-08-20T06:38:57Z</time>
  <speed>3.300000</speed>
</trkpt>
<trkpt lat="32.733741760" lon="35.051208496">
  <ele>524.583008</ele>
  <time>2011-08-20T06:38:58Z</time>
  <speed>3.310000</speed>
</trkpt>
<trkpt lat="32.733757019" lon="35.051177979">
  <ele>524.754883</ele>
  <time>2011-08-20T06:38:59Z</time>
  <speed>2.970000</speed>
</trkpt>
<trkpt lat="32.733772278" lon="35.051143646">
  <ele>525.036133</ele>
  <time>2011-08-20T06:39:00Z</time>
  <speed>2.900000</speed>
</trkpt>
<trkpt lat="32.733791351" lon="35.051120758">
  <ele>525.739258</ele>
  <time>2011-08-20T06:39:01Z</time>
  <speed>3.170000</speed>
</trkpt>
<trkpt lat="32.733837128" lon="35.051097870">
  <ele>527.223633</ele>
  <time>2011-08-20T06:39:03Z</time>
  <speed>2.820000</speed>
</trkpt>
<trkpt lat="32.733894348" lon="35.051090240">
  <ele>527.848633</ele>
  <time>2011-08-20T06:39:05Z</time>
  <speed>3.510000</speed>
</trkpt>
<trkpt lat="32.733928680" lon="35.051086426">
  <ele>527.551758</ele>
  <time>2011-08-20T06:39:06Z</time>
  <speed>3.950000</speed>
</trkpt>
<trkpt lat="32.733974457" lon="35.051082611">
  <ele>527.661133</ele>
  <time>2011-08-20T06:39:07Z</time>
  <speed>4.150000</speed>
</trkpt>
<trkpt lat="32.734016418" lon="35.051071167">
  <ele>527.223633</ele>
  <time>2011-08-20T06:39:08Z</time>
  <speed>4.420000</speed>
</trkpt>
<trkpt lat="32.734058380" lon="35.051063538">
  <ele>527.458008</ele>
  <time>2011-08-20T06:39:09Z</time>
  <speed>4.870000</speed>
</trkpt>
<trkpt lat="32.734107971" lon="35.051063538">
  <ele>527.254883</ele>
  <time>2011-08-20T06:39:10Z</time>
  <speed>5.230000</speed>
</trkpt>
<trkpt lat="32.734157562" lon="35.051055908">
  <ele>527.286133</ele>
  <time>2011-08-20T06:39:11Z</time>
  <speed>5.380000</speed>
</trkpt>
<trkpt lat="32.734210968" lon="35.051048279">
  <ele>526.770508</ele>
  <time>2011-08-20T06:39:12Z</time>
  <speed>5.710000</speed>
</trkpt>
<trkpt lat="32.734260559" lon="35.051048279">
  <ele>526.504883</ele>
  <time>2011-08-20T06:39:13Z</time>
  <speed>5.750000</speed>
</trkpt>
<trkpt lat="32.734313965" lon="35.051048279">
  <ele>526.083008</ele>
  <time>2011-08-20T06:39:14Z</time>
  <speed>6.130000</speed>
</trkpt>
<trkpt lat="32.734363556" lon="35.051040649">
  <ele>525.645508</ele>
  <time>2011-08-20T06:39:15Z</time>
  <speed>5.950000</speed>
</trkpt>
<trkpt lat="32.734420776" lon="35.051025391">
  <ele>525.754883</ele>
  <time>2011-08-20T06:39:16Z</time>
  <speed>5.760000</speed>
</trkpt>
<trkpt lat="32.734466553" lon="35.051010132">
  <ele>526.176758</ele>
  <time>2011-08-20T06:39:17Z</time>
  <speed>5.840000</speed>
</trkpt>
<trkpt lat="32.734519958" lon="35.050998688">
  <ele>526.098633</ele>
  <time>2011-08-20T06:39:18Z</time>
  <speed>5.940000</speed>
</trkpt>
<trkpt lat="32.734573364" lon="35.050975800">
  <ele>526.395508</ele>
  <time>2011-08-20T06:39:19Z</time>
  <speed>6.020000</speed>
</trkpt>
<trkpt lat="32.734622955" lon="35.050952911">
  <ele>526.676758</ele>
  <time>2011-08-20T06:39:20Z</time>
  <speed>5.850000</speed>
</trkpt>
<trkpt lat="32.734668732" lon="35.050930023">
  <ele>526.489258</ele>
  <time>2011-08-20T06:39:21Z</time>
  <speed>5.900000</speed>
</trkpt>
<trkpt lat="32.734718323" lon="35.050899506">
  <ele>526.614258</ele>
  <time>2011-08-20T06:39:22Z</time>
  <speed>6.170000</speed>
</trkpt>
<trkpt lat="32.734767914" lon="35.050884247">
  <ele>526.645508</ele>
  <time>2011-08-20T06:39:23Z</time>
  <speed>5.850000</speed>
</trkpt>
<trkpt lat="32.734821320" lon="35.050865173">
  <ele>526.629883</ele>
  <time>2011-08-20T06:39:24Z</time>
  <speed>6.130000</speed>
</trkpt>
<trkpt lat="32.734870911" lon="35.050846100">
  <ele>526.645508</ele>
  <time>2011-08-20T06:39:25Z</time>
  <speed>5.720000</speed>
</trkpt>
<trkpt lat="32.734916687" lon="35.050827026">
  <ele>526.723633</ele>
  <time>2011-08-20T06:39:26Z</time>
  <speed>5.410000</speed>
</trkpt>
<trkpt lat="32.734958649" lon="35.050807953">
  <ele>527.098633</ele>
  <time>2011-08-20T06:39:27Z</time>
  <speed>5.030000</speed>
</trkpt>
<trkpt lat="32.735004425" lon="35.050811768">
  <ele>526.926758</ele>
  <time>2011-08-20T06:39:28Z</time>
  <speed>4.580000</speed>
</trkpt>
<trkpt lat="32.735046387" lon="35.050811768">
  <ele>527.301758</ele>
  <time>2011-08-20T06:39:29Z</time>
  <speed>5.170000</speed>
</trkpt>
<trkpt lat="32.735095978" lon="35.050819397">
  <ele>526.911133</ele>
  <time>2011-08-20T06:39:30Z</time>
  <speed>5.580000</speed>
</trkpt>
<trkpt lat="32.735149384" lon="35.050838470">
  <ele>526.286133</ele>
  <time>2011-08-20T06:39:31Z</time>
  <speed>6.220000</speed>
</trkpt>
<trkpt lat="32.735202789" lon="35.050880432">
  <ele>525.567383</ele>
  <time>2011-08-20T06:39:32Z</time>
  <speed>6.460000</speed>
</trkpt>
<trkpt lat="32.735252380" lon="35.050914764">
  <ele>525.411133</ele>
  <time>2011-08-20T06:39:33Z</time>
  <speed>6.390000</speed>
</trkpt>
<trkpt lat="32.735298157" lon="35.050952911">
  <ele>525.208008</ele>
  <time>2011-08-20T06:39:34Z</time>
  <speed>6.620000</speed>
</trkpt>
<trkpt lat="32.735351563" lon="35.051002502">
  <ele>525.739258</ele>
  <time>2011-08-20T06:39:35Z</time>
  <speed>6.450000</speed>
</trkpt>
<trkpt lat="32.735401154" lon="35.051044464">
  <ele>524.348633</ele>
  <time>2011-08-20T06:39:36Z</time>
  <speed>6.340000</speed>
</trkpt>
<trkpt lat="32.735450745" lon="35.051082611">
  <ele>524.723633</ele>
  <time>2011-08-20T06:39:37Z</time>
  <speed>6.400000</speed>
</trkpt>
<trkpt lat="32.735500336" lon="35.051120758">
  <ele>524.192383</ele>
  <time>2011-08-20T06:39:38Z</time>
  <speed>6.360000</speed>
</trkpt>
<trkpt lat="32.735553741" lon="35.051162720">
  <ele>523.989258</ele>
  <time>2011-08-20T06:39:39Z</time>
  <speed>6.580000</speed>
</trkpt>
<trkpt lat="32.735614777" lon="35.051197052">
  <ele>522.348633</ele>
  <time>2011-08-20T06:39:40Z</time>
  <speed>6.150000</speed>
</trkpt>
<trkpt lat="32.735664368" lon="35.051223755">
  <ele>522.458008</ele>
  <time>2011-08-20T06:39:41Z</time>
  <speed>6.400000</speed>
</trkpt>
<trkpt lat="32.735717773" lon="35.051254272">
  <ele>521.833008</ele>
  <time>2011-08-20T06:39:42Z</time>
  <speed>6.300000</speed>
</trkpt>
<trkpt lat="32.735774994" lon="35.051269531">
  <ele>520.598633</ele>
  <time>2011-08-20T06:39:43Z</time>
  <speed>6.770000</speed>
</trkpt>
<trkpt lat="32.735836029" lon="35.051284790">
  <ele>519.629883</ele>
  <time>2011-08-20T06:39:44Z</time>
  <speed>7.160000</speed>
</trkpt>
<trkpt lat="32.735900879" lon="35.051307678">
  <ele>518.489258</ele>
  <time>2011-08-20T06:39:45Z</time>
  <speed>7.770000</speed>
</trkpt>
<trkpt lat="32.735969543" lon="35.051326752">
  <ele>517.020508</ele>
  <time>2011-08-20T06:39:46Z</time>
  <speed>7.800000</speed>
</trkpt>
<trkpt lat="32.736034393" lon="35.051342010">
  <ele>517.473633</ele>
  <time>2011-08-20T06:39:47Z</time>
  <speed>6.960000</speed>
</trkpt>
<trkpt lat="32.736099243" lon="35.051357269">
  <ele>517.286133</ele>
  <time>2011-08-20T06:39:48Z</time>
  <speed>7.200000</speed>
</trkpt>
<trkpt lat="32.736167908" lon="35.051364899">
  <ele>516.895508</ele>
  <time>2011-08-20T06:39:49Z</time>
  <speed>7.700000</speed>
</trkpt>
<trkpt lat="32.736228943" lon="35.051368713">
  <ele>516.067383</ele>
  <time>2011-08-20T06:39:50Z</time>
  <speed>6.900000</speed>
</trkpt>
<trkpt lat="32.736293793" lon="35.051368713">
  <ele>516.333008</ele>
  <time>2011-08-20T06:39:51Z</time>
  <speed>6.560000</speed>
</trkpt>
<trkpt lat="32.736347198" lon="35.051364899">
  <ele>516.223633</ele>
  <time>2011-08-20T06:39:52Z</time>
  <speed>5.780000</speed>
</trkpt>
<trkpt lat="32.736392975" lon="35.051368713">
  <ele>516.551758</ele>
  <time>2011-08-20T06:39:53Z</time>
  <speed>5.650000</speed>
</trkpt>
<trkpt lat="32.736442566" lon="35.051364899">
  <ele>516.661133</ele>
  <time>2011-08-20T06:39:54Z</time>
  <speed>5.280000</speed>
</trkpt>
<trkpt lat="32.736488342" lon="35.051357269">
  <ele>516.364258</ele>
  <time>2011-08-20T06:39:55Z</time>
  <speed>4.760000</speed>
</trkpt>
<trkpt lat="32.736526489" lon="35.051357269">
  <ele>516.926758</ele>
  <time>2011-08-20T06:39:56Z</time>
  <speed>4.150000</speed>
</trkpt>
<trkpt lat="32.736560822" lon="35.051345825">
  <ele>516.958008</ele>
  <time>2011-08-20T06:39:57Z</time>
  <speed>3.420000</speed>
</trkpt>
<trkpt lat="32.736595154" lon="35.051353455">
  <ele>517.567383</ele>
  <time>2011-08-20T06:39:58Z</time>
  <speed>3.160000</speed>
</trkpt>
<trkpt lat="32.736633301" lon="35.051334381">
  <ele>518.629883</ele>
  <time>2011-08-20T06:40:00Z</time>
  <speed>2.510000</speed>
</trkpt>
<trkpt lat="32.736682892" lon="35.051311493">
  <ele>519.645508</ele>
  <time>2011-08-20T06:40:02Z</time>
  <speed>2.370000</speed>
</trkpt>
<trkpt lat="32.736713409" lon="35.051303864">
  <ele>520.317383</ele>
  <time>2011-08-20T06:40:03Z</time>
  <speed>2.670000</speed>
</trkpt>
<trkpt lat="32.736759186" lon="35.051280975">
  <ele>520.504883</ele>
  <time>2011-08-20T06:40:05Z</time>
  <speed>2.860000</speed>
</trkpt>
<trkpt lat="32.736789703" lon="35.051273346">
  <ele>521.098633</ele>
  <time>2011-08-20T06:40:06Z</time>
  <speed>2.880000</speed>
</trkpt>
<trkpt lat="32.736827850" lon="35.051269531">
  <ele>520.942383</ele>
  <time>2011-08-20T06:40:08Z</time>
  <speed>2.260000</speed>
</trkpt>
<trkpt lat="32.736854553" lon="35.051250458">
  <ele>520.817383</ele>
  <time>2011-08-20T06:40:09Z</time>
  <speed>2.630000</speed>
</trkpt>
<trkpt lat="32.736881256" lon="35.051239014">
  <ele>521.364258</ele>
  <time>2011-08-20T06:40:10Z</time>
  <speed>2.590000</speed>
</trkpt>
<trkpt lat="32.736907959" lon="35.051231384">
  <ele>521.317383</ele>
  <time>2011-08-20T06:40:11Z</time>
  <speed>2.710000</speed>
</trkpt>
<trkpt lat="32.736942291" lon="35.051227570">
  <ele>521.661133</ele>
  <time>2011-08-20T06:40:12Z</time>
  <speed>3.000000</speed>
</trkpt>
<trkpt lat="32.736995697" lon="35.051223755">
  <ele>521.551758</ele>
  <time>2011-08-20T06:40:14Z</time>
  <speed>3.310000</speed>
</trkpt>
<trkpt lat="32.737030029" lon="35.051216125">
  <ele>521.895508</ele>
  <time>2011-08-20T06:40:15Z</time>
  <speed>2.890000</speed>
</trkpt>
<trkpt lat="32.737060547" lon="35.051212311">
  <ele>521.739258</ele>
  <time>2011-08-20T06:40:16Z</time>
  <speed>3.190000</speed>
</trkpt>
<trkpt lat="32.737091064" lon="35.051212311">
  <ele>521.317383</ele>
  <time>2011-08-20T06:40:17Z</time>
  <speed>3.150000</speed>
</trkpt>
<trkpt lat="32.737121582" lon="35.051200867">
  <ele>520.958008</ele>
  <time>2011-08-20T06:40:18Z</time>
  <speed>3.110000</speed>
</trkpt>
<trkpt lat="32.737148285" lon="35.051189423">
  <ele>521.801758</ele>
  <time>2011-08-20T06:40:19Z</time>
  <speed>2.920000</speed>
</trkpt>
<trkpt lat="32.737178802" lon="35.051177979">
  <ele>521.942383</ele>
  <time>2011-08-20T06:40:20Z</time>
  <speed>3.020000</speed>
</trkpt>
<trkpt lat="32.737209320" lon="35.051170349">
  <ele>521.629883</ele>
  <time>2011-08-20T06:40:21Z</time>
  <speed>3.460000</speed>
</trkpt>
<trkpt lat="32.737243652" lon="35.051170349">
  <ele>521.223633</ele>
  <time>2011-08-20T06:40:22Z</time>
  <speed>3.780000</speed>
</trkpt>
<trkpt lat="32.737277985" lon="35.051170349">
  <ele>520.833008</ele>
  <time>2011-08-20T06:40:23Z</time>
  <speed>3.740000</speed>
</trkpt>
<trkpt lat="32.737308502" lon="35.051166534">
  <ele>520.520508</ele>
  <time>2011-08-20T06:40:24Z</time>
  <speed>3.520000</speed>
</trkpt>
<trkpt lat="32.737339020" lon="35.051158905">
  <ele>520.239258</ele>
  <time>2011-08-20T06:40:25Z</time>
  <speed>3.200000</speed>
</trkpt>
<trkpt lat="32.737373352" lon="35.051155090">
  <ele>520.067383</ele>
  <time>2011-08-20T06:40:26Z</time>
  <speed>3.490000</speed>
</trkpt>
<trkpt lat="32.737403870" lon="35.051132202">
  <ele>520.536133</ele>
  <time>2011-08-20T06:40:27Z</time>
  <speed>3.600000</speed>
</trkpt>
<trkpt lat="32.737430573" lon="35.051113129">
  <ele>520.598633</ele>
  <time>2011-08-20T06:40:28Z</time>
  <speed>3.540000</speed>
</trkpt>
<trkpt lat="32.737487793" lon="35.051109314">
  <ele>520.942383</ele>
  <time>2011-08-20T06:40:30Z</time>
  <speed>3.330000</speed>
</trkpt>
<trkpt lat="32.737518311" lon="35.051101685">
  <ele>520.911133</ele>
  <time>2011-08-20T06:40:31Z</time>
  <speed>3.150000</speed>
</trkpt>
<trkpt lat="32.737567902" lon="35.051082611">
  <ele>520.145508</ele>
  <time>2011-08-20T06:40:33Z</time>
  <speed>3.310000</speed>
</trkpt>
<trkpt lat="32.737598419" lon="35.051074982">
  <ele>519.598633</ele>
  <time>2011-08-20T06:40:34Z</time>
  <speed>3.420000</speed>
</trkpt>
<trkpt lat="32.737632751" lon="35.051082611">
  <ele>518.473633</ele>
  <time>2011-08-20T06:40:35Z</time>
  <speed>3.870000</speed>
</trkpt>
<trkpt lat="32.737663269" lon="35.051086426">
  <ele>518.379883</ele>
  <time>2011-08-20T06:40:36Z</time>
  <speed>3.650000</speed>
</trkpt>
<trkpt lat="32.737693787" lon="35.051094055">
  <ele>518.129883</ele>
  <time>2011-08-20T06:40:37Z</time>
  <speed>3.330000</speed>
</trkpt>
<trkpt lat="32.737720490" lon="35.051101685">
  <ele>517.364258</ele>
  <time>2011-08-20T06:40:38Z</time>
  <speed>3.380000</speed>
</trkpt>
<trkpt lat="32.737751007" lon="35.051109314">
  <ele>517.254883</ele>
  <time>2011-08-20T06:40:39Z</time>
  <speed>3.100000</speed>
</trkpt>
<trkpt lat="32.737781525" lon="35.051113129">
  <ele>516.973633</ele>
  <time>2011-08-20T06:40:40Z</time>
  <speed>3.000000</speed>
</trkpt>
<trkpt lat="32.737831116" lon="35.051132202">
  <ele>517.348633</ele>
  <time>2011-08-20T06:40:42Z</time>
  <speed>2.860000</speed>
</trkpt>
<trkpt lat="32.737873077" lon="35.051136017">
  <ele>515.801758</ele>
  <time>2011-08-20T06:40:44Z</time>
  <speed>2.370000</speed>
</trkpt>
<trkpt lat="32.737915039" lon="35.051139832">
  <ele>515.442383</ele>
  <time>2011-08-20T06:40:46Z</time>
  <speed>2.300000</speed>
</trkpt>
<trkpt lat="32.737960815" lon="35.051139832">
  <ele>516.114258</ele>
  <time>2011-08-20T06:40:48Z</time>
  <speed>2.590000</speed>
</trkpt>
<trkpt lat="32.737995148" lon="35.051147461">
  <ele>516.208008</ele>
  <time>2011-08-20T06:40:50Z</time>
  <speed>1.240000</speed>
</trkpt>
<trkpt lat="32.738025665" lon="35.051158905">
  <ele>517.583008</ele>
  <time>2011-08-20T06:40:51Z</time>
  <speed>2.790000</speed>
</trkpt>
<trkpt lat="32.738067627" lon="35.051170349">
  <ele>518.051758</ele>
  <time>2011-08-20T06:40:53Z</time>
  <speed>1.510000</speed>
</trkpt>
<trkpt lat="32.738117218" lon="35.051177979">
  <ele>517.489258</ele>
  <time>2011-08-20T06:40:55Z</time>
  <speed>2.400000</speed>
</trkpt>
<trkpt lat="32.738166809" lon="35.051181793">
  <ele>516.067383</ele>
  <time>2011-08-20T06:40:57Z</time>
  <speed>2.410000</speed>
</trkpt>
<trkpt lat="32.738204956" lon="35.051193237">
  <ele>515.958008</ele>
  <time>2011-08-20T06:40:59Z</time>
  <speed>1.520000</speed>
</trkpt>
<trkpt lat="32.738235474" lon="35.051185608">
  <ele>515.583008</ele>
  <time>2011-08-20T06:41:01Z</time>
  <speed>1.550000</speed>
</trkpt>
<trkpt lat="32.738285065" lon="35.051208496">
  <ele>515.958008</ele>
  <time>2011-08-20T06:41:03Z</time>
  <speed>2.130000</speed>
</trkpt>
<trkpt lat="32.738327026" lon="35.051227570">
  <ele>514.614258</ele>
  <time>2011-08-20T06:41:04Z</time>
  <speed>2.770000</speed>
</trkpt>
<trkpt lat="32.738357544" lon="35.051231384">
  <ele>513.879883</ele>
  <time>2011-08-20T06:41:05Z</time>
  <speed>2.860000</speed>
</trkpt>
<trkpt lat="32.738395691" lon="35.051242828">
  <ele>514.036133</ele>
  <time>2011-08-20T06:41:06Z</time>
  <speed>2.660000</speed>
</trkpt>
<trkpt lat="32.738433838" lon="35.051250458">
  <ele>514.833008</ele>
  <time>2011-08-20T06:41:08Z</time>
  <speed>1.660000</speed>
</trkpt>
<trkpt lat="32.738475800" lon="35.051258087">
  <ele>514.817383</ele>
  <time>2011-08-20T06:41:09Z</time>
  <speed>3.120000</speed>
</trkpt>
<trkpt lat="32.738510132" lon="35.051261902">
  <ele>514.942383</ele>
  <time>2011-08-20T06:41:10Z</time>
  <speed>3.030000</speed>
</trkpt>
<trkpt lat="32.738536835" lon="35.051269531">
  <ele>514.411133</ele>
  <time>2011-08-20T06:41:11Z</time>
  <speed>2.660000</speed>
</trkpt>
<trkpt lat="32.738597870" lon="35.051296234">
  <ele>514.692383</ele>
  <time>2011-08-20T06:41:13Z</time>
  <speed>2.710000</speed>
</trkpt>
<trkpt lat="32.738639832" lon="35.051326752">
  <ele>514.129883</ele>
  <time>2011-08-20T06:41:15Z</time>
  <speed>2.200000</speed>
</trkpt>
<trkpt lat="32.738674164" lon="35.051342010">
  <ele>514.395508</ele>
  <time>2011-08-20T06:41:17Z</time>
  <speed>2.220000</speed>
</trkpt>
<trkpt lat="32.738712311" lon="35.051345825">
  <ele>514.754883</ele>
  <time>2011-08-20T06:41:19Z</time>
  <speed>2.040000</speed>
</trkpt>
<trkpt lat="32.738761902" lon="35.051368713">
  <ele>513.364258</ele>
  <time>2011-08-20T06:41:21Z</time>
  <speed>3.050000</speed>
</trkpt>
<trkpt lat="32.738788605" lon="35.051387787">
  <ele>513.395508</ele>
  <time>2011-08-20T06:41:22Z</time>
  <speed>2.970000</speed>
</trkpt>
<trkpt lat="32.738819122" lon="35.051418304">
  <ele>514.270508</ele>
  <time>2011-08-20T06:41:23Z</time>
  <speed>3.470000</speed>
</trkpt>
<trkpt lat="32.738845825" lon="35.051437378">
  <ele>514.176758</ele>
  <time>2011-08-20T06:41:24Z</time>
  <speed>3.260000</speed>
</trkpt>
<trkpt lat="32.738876343" lon="35.051448822">
  <ele>513.801758</ele>
  <time>2011-08-20T06:41:25Z</time>
  <speed>3.300000</speed>
</trkpt>
<trkpt lat="32.738903046" lon="35.051460266">
  <ele>513.520508</ele>
  <time>2011-08-20T06:41:26Z</time>
  <speed>3.600000</speed>
</trkpt>
<trkpt lat="32.738937378" lon="35.051475525">
  <ele>513.676758</ele>
  <time>2011-08-20T06:41:27Z</time>
  <speed>3.380000</speed>
</trkpt>
<trkpt lat="32.738983154" lon="35.051494598">
  <ele>514.004883</ele>
  <time>2011-08-20T06:41:28Z</time>
  <speed>3.870000</speed>
</trkpt>
<trkpt lat="32.739013672" lon="35.051513672">
  <ele>513.645508</ele>
  <time>2011-08-20T06:41:29Z</time>
  <speed>3.950000</speed>
</trkpt>
<trkpt lat="32.739044189" lon="35.051536560">
  <ele>513.801758</ele>
  <time>2011-08-20T06:41:30Z</time>
  <speed>3.410000</speed>
</trkpt>
<trkpt lat="32.739074707" lon="35.051555634">
  <ele>513.520508</ele>
  <time>2011-08-20T06:41:31Z</time>
  <speed>3.650000</speed>
</trkpt>
<trkpt lat="32.739101410" lon="35.051578522">
  <ele>513.301758</ele>
  <time>2011-08-20T06:41:32Z</time>
  <speed>3.300000</speed>
</trkpt>
<trkpt lat="32.739124298" lon="35.051597595">
  <ele>514.254883</ele>
  <time>2011-08-20T06:41:33Z</time>
  <speed>2.920000</speed>
</trkpt>
<trkpt lat="32.739166260" lon="35.051631927">
  <ele>514.395508</ele>
  <time>2011-08-20T06:41:35Z</time>
  <speed>3.230000</speed>
</trkpt>
<trkpt lat="32.739200592" lon="35.051647186">
  <ele>514.208008</ele>
  <time>2011-08-20T06:41:36Z</time>
  <speed>3.010000</speed>
</trkpt>
<trkpt lat="32.739227295" lon="35.051662445">
  <ele>513.145508</ele>
  <time>2011-08-20T06:41:37Z</time>
  <speed>3.200000</speed>
</trkpt>
<trkpt lat="32.739261627" lon="35.051673889">
  <ele>513.598633</ele>
  <time>2011-08-20T06:41:38Z</time>
  <speed>3.250000</speed>
</trkpt>
<trkpt lat="32.739307404" lon="35.051700592">
  <ele>514.129883</ele>
  <time>2011-08-20T06:41:39Z</time>
  <speed>3.570000</speed>
</trkpt>
<trkpt lat="32.739337921" lon="35.051715851">
  <ele>514.426758</ele>
  <time>2011-08-20T06:41:40Z</time>
  <speed>3.580000</speed>
</trkpt>
<trkpt lat="32.739376068" lon="35.051715851">
  <ele>513.536133</ele>
  <time>2011-08-20T06:41:41Z</time>
  <speed>3.660000</speed>
</trkpt>
<trkpt lat="32.739398956" lon="35.051727295">
  <ele>513.239258</ele>
  <time>2011-08-20T06:41:42Z</time>
  <speed>3.390000</speed>
</trkpt>
<trkpt lat="32.739429474" lon="35.051742554">
  <ele>513.223633</ele>
  <time>2011-08-20T06:41:43Z</time>
  <speed>3.100000</speed>
</trkpt>
<trkpt lat="32.739456177" lon="35.051757813">
  <ele>512.458008</ele>
  <time>2011-08-20T06:41:44Z</time>
  <speed>3.140000</speed>
</trkpt>
<trkpt lat="32.739482880" lon="35.051765442">
  <ele>512.911133</ele>
  <time>2011-08-20T06:41:45Z</time>
  <speed>2.960000</speed>
</trkpt>
<trkpt lat="32.739532471" lon="35.051773071">
  <ele>513.114258</ele>
  <time>2011-08-20T06:41:46Z</time>
  <speed>3.410000</speed>
</trkpt>
<trkpt lat="32.739593506" lon="35.051803589">
  <ele>514.817383</ele>
  <time>2011-08-20T06:41:47Z</time>
  <speed>3.240000</speed>
</trkpt>
<trkpt lat="32.739639282" lon="35.051818848">
  <ele>514.911133</ele>
  <time>2011-08-20T06:41:48Z</time>
  <speed>3.180000</speed>
</trkpt>
<trkpt lat="32.739669800" lon="35.051841736">
  <ele>514.864258</ele>
  <time>2011-08-20T06:41:49Z</time>
  <speed>3.340000</speed>
</trkpt>
<trkpt lat="32.739688873" lon="35.051860809">
  <ele>514.208008</ele>
  <time>2011-08-20T06:41:50Z</time>
  <speed>2.260000</speed>
</trkpt>
<trkpt lat="32.739711761" lon="35.051879883">
  <ele>514.411133</ele>
  <time>2011-08-20T06:41:51Z</time>
  <speed>2.510000</speed>
</trkpt>
<trkpt lat="32.739765167" lon="35.051898956">
  <ele>513.473633</ele>
  <time>2011-08-20T06:41:53Z</time>
  <speed>2.500000</speed>
</trkpt>
<trkpt lat="32.739788055" lon="35.051914215">
  <ele>513.036133</ele>
  <time>2011-08-20T06:41:54Z</time>
  <speed>2.440000</speed>
</trkpt>
<trkpt lat="32.739833832" lon="35.051937103">
  <ele>512.145508</ele>
  <time>2011-08-20T06:41:56Z</time>
  <speed>2.800000</speed>
</trkpt>
<trkpt lat="32.739860535" lon="35.051933289">
  <ele>510.814941</ele>
  <time>2011-08-20T06:41:57Z</time>
  <speed>1.950000</speed>
</trkpt>
<trkpt lat="32.739894867" lon="35.051956177">
  <ele>512.442383</ele>
  <time>2011-08-20T06:41:59Z</time>
  <speed>2.070000</speed>
</trkpt>
<trkpt lat="32.739940643" lon="35.051975250">
  <ele>512.348633</ele>
  <time>2011-08-20T06:42:01Z</time>
  <speed>2.150000</speed>
</trkpt>
<trkpt lat="32.739994049" lon="35.051994324">
  <ele>511.463379</ele>
  <time>2011-08-20T06:42:03Z</time>
  <speed>1.960000</speed>
</trkpt>
<trkpt lat="32.740039825" lon="35.052005768">
  <ele>510.963379</ele>
  <time>2011-08-20T06:42:05Z</time>
  <speed>1.460000</speed>
</trkpt>
<trkpt lat="32.740062714" lon="35.052017212">
  <ele>510.697754</ele>
  <time>2011-08-20T06:42:06Z</time>
  <speed>1.470000</speed>
</trkpt>
<trkpt lat="32.740100861" lon="35.052036285">
  <ele>511.041504</ele>
  <time>2011-08-20T06:42:08Z</time>
  <speed>1.900000</speed>
</trkpt>
<trkpt lat="32.740150452" lon="35.052059174">
  <ele>511.814941</ele>
  <time>2011-08-20T06:42:09Z</time>
  <speed>2.340000</speed>
</trkpt>
<trkpt lat="32.740184784" lon="35.052070618">
  <ele>511.916504</ele>
  <time>2011-08-20T06:42:10Z</time>
  <speed>2.620000</speed>
</trkpt>
<trkpt lat="32.740211487" lon="35.052082062">
  <ele>512.239258</ele>
  <time>2011-08-20T06:42:11Z</time>
  <speed>2.580000</speed>
</trkpt>
<trkpt lat="32.740245819" lon="35.052082062">
  <ele>512.645508</ele>
  <time>2011-08-20T06:42:12Z</time>
  <speed>2.660000</speed>
</trkpt>
<trkpt lat="32.740287781" lon="35.052082062">
  <ele>512.833008</ele>
  <time>2011-08-20T06:42:14Z</time>
  <speed>2.180000</speed>
</trkpt>
<trkpt lat="32.740325928" lon="35.052070618">
  <ele>514.723633</ele>
  <time>2011-08-20T06:42:16Z</time>
  <speed>2.240000</speed>
</trkpt>
<trkpt lat="32.740360260" lon="35.052066803">
  <ele>515.067383</ele>
  <time>2011-08-20T06:42:17Z</time>
  <speed>2.300000</speed>
</trkpt>
<trkpt lat="32.740402222" lon="35.052062988">
  <ele>516.473633</ele>
  <time>2011-08-20T06:42:18Z</time>
  <speed>2.360000</speed>
</trkpt>
<trkpt lat="32.740436554" lon="35.052059174">
  <ele>518.426758</ele>
  <time>2011-08-20T06:42:20Z</time>
  <speed>2.200000</speed>
</trkpt>
<trkpt lat="32.740463257" lon="35.052055359">
  <ele>518.786133</ele>
  <time>2011-08-20T06:42:21Z</time>
  <speed>2.130000</speed>
</trkpt>
<trkpt lat="32.740509033" lon="35.052040100">
  <ele>520.645508</ele>
  <time>2011-08-20T06:42:23Z</time>
  <speed>2.210000</speed>
</trkpt>
<trkpt lat="32.740562439" lon="35.052028656">
  <ele>521.551758</ele>
  <time>2011-08-20T06:42:25Z</time>
  <speed>2.400000</speed>
</trkpt>
<trkpt lat="32.740604401" lon="35.052005768">
  <ele>523.036133</ele>
  <time>2011-08-20T06:42:27Z</time>
  <speed>2.040000</speed>
</trkpt>
<trkpt lat="32.740642548" lon="35.052001953">
  <ele>525.333008</ele>
  <time>2011-08-20T06:42:29Z</time>
  <speed>2.380000</speed>
</trkpt>
<trkpt lat="32.740669250" lon="35.051994324">
  <ele>526.129883</ele>
  <time>2011-08-20T06:42:30Z</time>
  <speed>2.320000</speed>
</trkpt>
<trkpt lat="32.740715027" lon="35.051979065">
  <ele>526.192383</ele>
  <time>2011-08-20T06:42:32Z</time>
  <speed>3.020000</speed>
</trkpt>
<trkpt lat="32.740741730" lon="35.051967621">
  <ele>526.301758</ele>
  <time>2011-08-20T06:42:33Z</time>
  <speed>2.560000</speed>
</trkpt>
<trkpt lat="32.740795135" lon="35.051937103">
  <ele>526.926758</ele>
  <time>2011-08-20T06:42:35Z</time>
  <speed>3.090000</speed>
</trkpt>
<trkpt lat="32.740844727" lon="35.051921844">
  <ele>528.176758</ele>
  <time>2011-08-20T06:42:37Z</time>
  <speed>2.900000</speed>
</trkpt>
<trkpt lat="32.740871429" lon="35.051918030">
  <ele>528.067383</ele>
  <time>2011-08-20T06:42:38Z</time>
  <speed>2.970000</speed>
</trkpt>
<trkpt lat="32.740913391" lon="35.051895142">
  <ele>529.129883</ele>
  <time>2011-08-20T06:42:40Z</time>
  <speed>2.380000</speed>
</trkpt>
<trkpt lat="32.740943909" lon="35.051864624">
  <ele>530.520508</ele>
  <time>2011-08-20T06:42:42Z</time>
  <speed>2.430000</speed>
</trkpt>
<trkpt lat="32.740974426" lon="35.051860809">
  <ele>530.208008</ele>
  <time>2011-08-20T06:42:44Z</time>
  <speed>1.500000</speed>
</trkpt>
<trkpt lat="32.740993500" lon="35.051868439">
  <ele>532.129883</ele>
  <time>2011-08-20T06:42:57Z</time>
  <speed>0.130000</speed>
</trkpt>
<trkpt lat="32.741024017" lon="35.051860809">
  <ele>531.301758</ele>
  <time>2011-08-20T06:43:10Z</time>
  <speed>1.290000</speed>
</trkpt>
<trkpt lat="32.741058350" lon="35.051837921">
  <ele>530.098633</ele>
  <time>2011-08-20T06:43:12Z</time>
  <speed>2.330000</speed>
</trkpt>
<trkpt lat="32.741088867" lon="35.051830292">
  <ele>529.708008</ele>
  <time>2011-08-20T06:43:13Z</time>
  <speed>3.180000</speed>
</trkpt>
<trkpt lat="32.741123199" lon="35.051826477">
  <ele>529.161133</ele>
  <time>2011-08-20T06:43:14Z</time>
  <speed>3.610000</speed>
</trkpt>
<trkpt lat="32.741210938" lon="35.051853180">
  <ele>530.098633</ele>
  <time>2011-08-20T06:43:15Z</time>
  <speed>4.720000</speed>
</trkpt>
<trkpt lat="32.741249084" lon="35.051872253">
  <ele>529.739258</ele>
  <time>2011-08-20T06:43:16Z</time>
  <speed>4.360000</speed>
</trkpt>
<trkpt lat="32.741275787" lon="35.051902771">
  <ele>529.254883</ele>
  <time>2011-08-20T06:43:17Z</time>
  <speed>4.150000</speed>
</trkpt>
<trkpt lat="32.741310120" lon="35.051933289">
  <ele>528.239258</ele>
  <time>2011-08-20T06:43:18Z</time>
  <speed>4.390000</speed>
</trkpt>
<trkpt lat="32.741352081" lon="35.051948547">
  <ele>527.567383</ele>
  <time>2011-08-20T06:43:19Z</time>
  <speed>4.740000</speed>
</trkpt>
<trkpt lat="32.741390228" lon="35.051982880">
  <ele>527.004883</ele>
  <time>2011-08-20T06:43:20Z</time>
  <speed>4.970000</speed>
</trkpt>
<trkpt lat="32.741420746" lon="35.052036285">
  <ele>526.489258</ele>
  <time>2011-08-20T06:43:21Z</time>
  <speed>5.520000</speed>
</trkpt>
<trkpt lat="32.741439819" lon="35.052093506">
  <ele>526.004883</ele>
  <time>2011-08-20T06:43:22Z</time>
  <speed>5.930000</speed>
</trkpt>
<trkpt lat="32.741474152" lon="35.052154541">
  <ele>525.348633</ele>
  <time>2011-08-20T06:43:23Z</time>
  <speed>7.070000</speed>
</trkpt>
<trkpt lat="32.741500854" lon="35.052230835">
  <ele>524.473633</ele>
  <time>2011-08-20T06:43:24Z</time>
  <speed>8.500000</speed>
</trkpt>
<trkpt lat="32.741527557" lon="35.052330017">
  <ele>523.176758</ele>
  <time>2011-08-20T06:43:25Z</time>
  <speed>9.200000</speed>
</trkpt>
<trkpt lat="32.741546631" lon="35.052417755">
  <ele>522.379883</ele>
  <time>2011-08-20T06:43:26Z</time>
  <speed>9.180000</speed>
</trkpt>
<trkpt lat="32.741577148" lon="35.052505493">
  <ele>521.770508</ele>
  <time>2011-08-20T06:43:27Z</time>
  <speed>8.550000</speed>
</trkpt>
<trkpt lat="32.741611481" lon="35.052577972">
  <ele>521.020508</ele>
  <time>2011-08-20T06:43:28Z</time>
  <speed>5.930000</speed>
</trkpt>
<trkpt lat="32.741661072" lon="35.052612305">
  <ele>520.098633</ele>
  <time>2011-08-20T06:43:29Z</time>
  <speed>5.140000</speed>
</trkpt>
<trkpt lat="32.741710663" lon="35.052639008">
  <ele>519.176758</ele>
  <time>2011-08-20T06:43:30Z</time>
  <speed>4.410000</speed>
</trkpt>
<trkpt lat="32.741756439" lon="35.052665710">
  <ele>518.614258</ele>
  <time>2011-08-20T06:43:31Z</time>
  <speed>4.560000</speed>
</trkpt>
<trkpt lat="32.741802216" lon="35.052703857">
  <ele>517.786133</ele>
  <time>2011-08-20T06:43:32Z</time>
  <speed>4.260000</speed>
</trkpt>
<trkpt lat="32.741840363" lon="35.052730560">
  <ele>517.083008</ele>
  <time>2011-08-20T06:43:33Z</time>
  <speed>3.060000</speed>
</trkpt>
<trkpt lat="32.741882324" lon="35.052722931">
  <ele>515.754883</ele>
  <time>2011-08-20T06:43:34Z</time>
  <speed>1.990000</speed>
</trkpt>
<trkpt lat="32.741928101" lon="35.052711487">
  <ele>514.942383</ele>
  <time>2011-08-20T06:43:35Z</time>
  <speed>2.180000</speed>
</trkpt>
<trkpt lat="32.741950989" lon="35.052692413">
  <ele>513.926758</ele>
  <time>2011-08-20T06:43:36Z</time>
  <speed>2.610000</speed>
</trkpt>
<trkpt lat="32.741954803" lon="35.052661896">
  <ele>512.645508</ele>
  <time>2011-08-20T06:43:37Z</time>
  <speed>1.970000</speed>
</trkpt>
<trkpt lat="32.742012024" lon="35.052700043">
  <ele>510.994629</ele>
  <time>2011-08-20T06:43:39Z</time>
  <speed>2.360000</speed>
</trkpt>
<trkpt lat="32.742034912" lon="35.052738190">
  <ele>511.033691</ele>
  <time>2011-08-20T06:43:40Z</time>
  <speed>2.580000</speed>
</trkpt>
<trkpt lat="32.742076874" lon="35.052757263">
  <ele>510.307129</ele>
  <time>2011-08-20T06:43:41Z</time>
  <speed>3.060000</speed>
</trkpt>
<trkpt lat="32.742126465" lon="35.052772522">
  <ele>509.314941</ele>
  <time>2011-08-20T06:43:42Z</time>
  <speed>3.040000</speed>
</trkpt>
<trkpt lat="32.742168427" lon="35.052791595">
  <ele>508.346191</ele>
  <time>2011-08-20T06:43:43Z</time>
  <speed>3.680000</speed>
</trkpt>
<trkpt lat="32.742198944" lon="35.052803040">
  <ele>507.596191</ele>
  <time>2011-08-20T06:43:44Z</time>
  <speed>3.170000</speed>
</trkpt>
<trkpt lat="32.742244720" lon="35.052803040">
  <ele>504.189941</ele>
  <time>2011-08-20T06:43:46Z</time>
  <speed>2.990000</speed>
</trkpt>
<trkpt lat="32.742290497" lon="35.052814484">
  <ele>503.619629</ele>
  <time>2011-08-20T06:43:47Z</time>
  <speed>3.480000</speed>
</trkpt>
<trkpt lat="32.742328644" lon="35.052806854">
  <ele>501.775879</ele>
  <time>2011-08-20T06:43:48Z</time>
  <speed>3.910000</speed>
</trkpt>
<trkpt lat="32.742374420" lon="35.052806854">
  <ele>501.705566</ele>
  <time>2011-08-20T06:43:49Z</time>
  <speed>4.400000</speed>
</trkpt>
<trkpt lat="32.742420197" lon="35.052822113">
  <ele>501.525879</ele>
  <time>2011-08-20T06:43:50Z</time>
  <speed>4.160000</speed>
</trkpt>
<trkpt lat="32.742450714" lon="35.052848816">
  <ele>500.955566</ele>
  <time>2011-08-20T06:43:51Z</time>
  <speed>3.930000</speed>
</trkpt>
<trkpt lat="32.742557526" lon="35.052898407">
  <ele>501.557129</ele>
  <time>2011-08-20T06:43:52Z</time>
  <speed>3.930000</speed>
</trkpt>
<trkpt lat="32.742603302" lon="35.052913666">
  <ele>500.111816</ele>
  <time>2011-08-20T06:43:53Z</time>
  <speed>5.040000</speed>
</trkpt>
<trkpt lat="32.742656708" lon="35.052913666">
  <ele>499.025879</ele>
  <time>2011-08-20T06:43:54Z</time>
  <speed>5.780000</speed>
</trkpt>
<trkpt lat="32.742733002" lon="35.052921295">
  <ele>498.018066</ele>
  <time>2011-08-20T06:43:55Z</time>
  <speed>6.790000</speed>
</trkpt>
<trkpt lat="32.742786407" lon="35.052940369">
  <ele>496.354004</ele>
  <time>2011-08-20T06:43:56Z</time>
  <speed>5.750000</speed>
</trkpt>
<trkpt lat="32.742816925" lon="35.052974701">
  <ele>496.807129</ele>
  <time>2011-08-20T06:43:57Z</time>
  <speed>4.400000</speed>
</trkpt>
<trkpt lat="32.742843628" lon="35.053012848">
  <ele>497.213379</ele>
  <time>2011-08-20T06:43:58Z</time>
  <speed>4.370000</speed>
</trkpt>
<trkpt lat="32.742870331" lon="35.053047180">
  <ele>496.994629</ele>
  <time>2011-08-20T06:43:59Z</time>
  <speed>3.950000</speed>
</trkpt>
<trkpt lat="32.742885590" lon="35.053077698">
  <ele>497.900879</ele>
  <time>2011-08-20T06:44:00Z</time>
  <speed>2.910000</speed>
</trkpt>
<trkpt lat="32.742916107" lon="35.053123474">
  <ele>497.650879</ele>
  <time>2011-08-20T06:44:02Z</time>
  <speed>3.160000</speed>
</trkpt>
<trkpt lat="32.742938995" lon="35.053150177">
  <ele>497.744629</ele>
  <time>2011-08-20T06:44:03Z</time>
  <speed>3.400000</speed>
</trkpt>
<trkpt lat="32.742965698" lon="35.053180695">
  <ele>497.877441</ele>
  <time>2011-08-20T06:44:04Z</time>
  <speed>3.500000</speed>
</trkpt>
<trkpt lat="32.743011475" lon="35.053211212">
  <ele>498.447754</ele>
  <time>2011-08-20T06:44:05Z</time>
  <speed>3.180000</speed>
</trkpt>
<trkpt lat="32.743041992" lon="35.053222656">
  <ele>498.283691</ele>
  <time>2011-08-20T06:44:06Z</time>
  <speed>3.550000</speed>
</trkpt>
<trkpt lat="32.743076324" lon="35.053218842">
  <ele>498.182129</ele>
  <time>2011-08-20T06:44:07Z</time>
  <speed>3.980000</speed>
</trkpt>
<trkpt lat="32.743125916" lon="35.053188324">
  <ele>496.619629</ele>
  <time>2011-08-20T06:44:08Z</time>
  <speed>3.810000</speed>
</trkpt>
<trkpt lat="32.743156433" lon="35.053153992">
  <ele>496.002441</ele>
  <time>2011-08-20T06:44:09Z</time>
  <speed>3.220000</speed>
</trkpt>
<trkpt lat="32.743194580" lon="35.053096771">
  <ele>494.564941</ele>
  <time>2011-08-20T06:44:11Z</time>
  <speed>3.250000</speed>
</trkpt>
<trkpt lat="32.743221283" lon="35.053062439">
  <ele>493.924316</ele>
  <time>2011-08-20T06:44:12Z</time>
  <speed>3.620000</speed>
</trkpt>
<trkpt lat="32.743255615" lon="35.053031921">
  <ele>493.150879</ele>
  <time>2011-08-20T06:44:13Z</time>
  <speed>3.780000</speed>
</trkpt>
<trkpt lat="32.743282318" lon="35.053001404">
  <ele>492.260254</ele>
  <time>2011-08-20T06:44:14Z</time>
  <speed>3.330000</speed>
</trkpt>
<trkpt lat="32.743301392" lon="35.052970886">
  <ele>491.768066</ele>
  <time>2011-08-20T06:44:15Z</time>
  <speed>3.870000</speed>
</trkpt>
<trkpt lat="32.743331909" lon="35.052940369">
  <ele>491.150879</ele>
  <time>2011-08-20T06:44:16Z</time>
  <speed>2.870000</speed>
</trkpt>
<trkpt lat="32.743370056" lon="35.052917480">
  <ele>491.244629</ele>
  <time>2011-08-20T06:44:17Z</time>
  <speed>2.810000</speed>
</trkpt>
<trkpt lat="32.743392944" lon="35.052894592">
  <ele>490.846191</ele>
  <time>2011-08-20T06:44:18Z</time>
  <speed>2.550000</speed>
</trkpt>
<trkpt lat="32.743412018" lon="35.052875519">
  <ele>489.807129</ele>
  <time>2011-08-20T06:44:19Z</time>
  <speed>2.800000</speed>
</trkpt>
<trkpt lat="32.743434906" lon="35.052856445">
  <ele>489.010254</ele>
  <time>2011-08-20T06:44:20Z</time>
  <speed>2.740000</speed>
</trkpt>
<trkpt lat="32.743461609" lon="35.052829742">
  <ele>488.057129</ele>
  <time>2011-08-20T06:44:21Z</time>
  <speed>3.160000</speed>
</trkpt>
<trkpt lat="32.743484497" lon="35.052806854">
  <ele>486.791504</ele>
  <time>2011-08-20T06:44:22Z</time>
  <speed>2.890000</speed>
</trkpt>
<trkpt lat="32.743515015" lon="35.052795410">
  <ele>485.471191</ele>
  <time>2011-08-20T06:44:23Z</time>
  <speed>2.720000</speed>
</trkpt>
<trkpt lat="32.743537903" lon="35.052764893">
  <ele>484.979004</ele>
  <time>2011-08-20T06:44:24Z</time>
  <speed>2.510000</speed>
</trkpt>
<trkpt lat="32.743579865" lon="35.052757263">
  <ele>483.486816</ele>
  <time>2011-08-20T06:44:26Z</time>
  <speed>2.630000</speed>
</trkpt>
<trkpt lat="32.743602753" lon="35.052738190">
  <ele>483.650879</ele>
  <time>2011-08-20T06:44:27Z</time>
  <speed>2.530000</speed>
</trkpt>
<trkpt lat="32.743629456" lon="35.052738190">
  <ele>482.479004</ele>
  <time>2011-08-20T06:44:28Z</time>
  <speed>3.450000</speed>
</trkpt>
<trkpt lat="32.743667603" lon="35.052764893">
  <ele>481.064941</ele>
  <time>2011-08-20T06:44:29Z</time>
  <speed>4.480000</speed>
</trkpt>
<trkpt lat="32.743705750" lon="35.052772522">
  <ele>480.096191</ele>
  <time>2011-08-20T06:44:30Z</time>
  <speed>4.640000</speed>
</trkpt>
<trkpt lat="32.743747711" lon="35.052780151">
  <ele>480.518066</ele>
  <time>2011-08-20T06:44:31Z</time>
  <speed>4.660000</speed>
</trkpt>
<trkpt lat="32.743782043" lon="35.052803040">
  <ele>479.088379</ele>
  <time>2011-08-20T06:44:32Z</time>
  <speed>3.950000</speed>
</trkpt>
<trkpt lat="32.743816376" lon="35.052814484">
  <ele>478.033691</ele>
  <time>2011-08-20T06:44:33Z</time>
  <speed>3.110000</speed>
</trkpt>
<trkpt lat="32.743843079" lon="35.052806854">
  <ele>476.979004</ele>
  <time>2011-08-20T06:44:34Z</time>
  <speed>2.140000</speed>
</trkpt>
<trkpt lat="32.743904114" lon="35.052814484">
  <ele>476.768066</ele>
  <time>2011-08-20T06:44:35Z</time>
  <speed>2.390000</speed>
</trkpt>
<trkpt lat="32.743957520" lon="35.052791595">
  <ele>474.924316</ele>
  <time>2011-08-20T06:44:37Z</time>
  <speed>3.350000</speed>
</trkpt>
<trkpt lat="32.743995667" lon="35.052783966">
  <ele>473.330566</ele>
  <time>2011-08-20T06:44:38Z</time>
  <speed>3.990000</speed>
</trkpt>
<trkpt lat="32.744033813" lon="35.052803040">
  <ele>473.588379</ele>
  <time>2011-08-20T06:44:39Z</time>
  <speed>4.240000</speed>
</trkpt>
<trkpt lat="32.744075775" lon="35.052822113">
  <ele>473.354004</ele>
  <time>2011-08-20T06:44:40Z</time>
  <speed>3.220000</speed>
</trkpt>
<trkpt lat="32.744129181" lon="35.052837372">
  <ele>474.057129</ele>
  <time>2011-08-20T06:44:41Z</time>
  <speed>2.210000</speed>
</trkpt>
<trkpt lat="32.744163513" lon="35.052829742">
  <ele>473.525879</ele>
  <time>2011-08-20T06:44:43Z</time>
  <speed>2.150000</speed>
</trkpt>
<trkpt lat="32.744190216" lon="35.052822113">
  <ele>472.518066</ele>
  <time>2011-08-20T06:44:44Z</time>
  <speed>2.840000</speed>
</trkpt>
<trkpt lat="32.744220734" lon="35.052806854">
  <ele>471.369629</ele>
  <time>2011-08-20T06:44:45Z</time>
  <speed>3.430000</speed>
</trkpt>
<trkpt lat="32.744285583" lon="35.052803040">
  <ele>470.924316</ele>
  <time>2011-08-20T06:44:46Z</time>
  <speed>4.170000</speed>
</trkpt>
<trkpt lat="32.744327545" lon="35.052799225">
  <ele>470.369629</ele>
  <time>2011-08-20T06:44:47Z</time>
  <speed>4.170000</speed>
</trkpt>
<trkpt lat="32.744384766" lon="35.052799225">
  <ele>469.627441</ele>
  <time>2011-08-20T06:44:48Z</time>
  <speed>5.220000</speed>
</trkpt>
<trkpt lat="32.744426727" lon="35.052795410">
  <ele>469.166504</ele>
  <time>2011-08-20T06:44:49Z</time>
  <speed>4.530000</speed>
</trkpt>
<trkpt lat="32.744468689" lon="35.052783966">
  <ele>468.229004</ele>
  <time>2011-08-20T06:44:50Z</time>
  <speed>3.780000</speed>
</trkpt>
<trkpt lat="32.744514465" lon="35.052776337">
  <ele>466.736816</ele>
  <time>2011-08-20T06:44:51Z</time>
  <speed>4.540000</speed>
</trkpt>
<trkpt lat="32.744552612" lon="35.052757263">
  <ele>466.174316</ele>
  <time>2011-08-20T06:44:52Z</time>
  <speed>4.450000</speed>
</trkpt>
<trkpt lat="32.744586945" lon="35.052745819">
  <ele>465.299316</ele>
  <time>2011-08-20T06:44:53Z</time>
  <speed>4.070000</speed>
</trkpt>
<trkpt lat="32.744621277" lon="35.052719116">
  <ele>465.166504</ele>
  <time>2011-08-20T06:44:54Z</time>
  <speed>3.960000</speed>
</trkpt>
<trkpt lat="32.744663239" lon="35.052703857">
  <ele>464.979004</ele>
  <time>2011-08-20T06:44:55Z</time>
  <speed>2.430000</speed>
</trkpt>
<trkpt lat="32.744693756" lon="35.052696228">
  <ele>464.479004</ele>
  <time>2011-08-20T06:44:56Z</time>
  <speed>2.850000</speed>
</trkpt>
<trkpt lat="32.744735718" lon="35.052711487">
  <ele>462.314941</ele>
  <time>2011-08-20T06:44:58Z</time>
  <speed>1.990000</speed>
</trkpt>
<trkpt lat="32.744773865" lon="35.052745819">
  <ele>462.861816</ele>
  <time>2011-08-20T06:44:59Z</time>
  <speed>2.250000</speed>
</trkpt>
<trkpt lat="32.744754791" lon="35.052780151">
  <ele>460.729004</ele>
  <time>2011-08-20T06:45:01Z</time>
  <speed>2.750000</speed>
</trkpt>
<trkpt lat="32.744701385" lon="35.052791595">
  <ele>459.244629</ele>
  <time>2011-08-20T06:45:03Z</time>
  <speed>3.320000</speed>
</trkpt>
<trkpt lat="32.744663239" lon="35.052791595">
  <ele>458.322754</ele>
  <time>2011-08-20T06:45:04Z</time>
  <speed>3.790000</speed>
</trkpt>
<trkpt lat="32.744632721" lon="35.052806854">
  <ele>457.564941</ele>
  <time>2011-08-20T06:45:05Z</time>
  <speed>3.870000</speed>
</trkpt>
<trkpt lat="32.744590759" lon="35.052825928">
  <ele>456.900879</ele>
  <time>2011-08-20T06:45:06Z</time>
  <speed>4.440000</speed>
</trkpt>
<trkpt lat="32.744556427" lon="35.052848816">
  <ele>455.369629</ele>
  <time>2011-08-20T06:45:07Z</time>
  <speed>3.890000</speed>
</trkpt>
<trkpt lat="32.744533539" lon="35.052875519">
  <ele>454.135254</ele>
  <time>2011-08-20T06:45:08Z</time>
  <speed>2.610000</speed>
</trkpt>
<trkpt lat="32.744522095" lon="35.052906036">
  <ele>452.939941</ele>
  <time>2011-08-20T06:45:09Z</time>
  <speed>2.900000</speed>
</trkpt>
<trkpt lat="32.744514465" lon="35.052940369">
  <ele>451.885254</ele>
  <time>2011-08-20T06:45:10Z</time>
  <speed>2.310000</speed>
</trkpt>
<trkpt lat="32.744533539" lon="35.052982330">
  <ele>451.494629</ele>
  <time>2011-08-20T06:45:12Z</time>
  <speed>2.030000</speed>
</trkpt>
<trkpt lat="32.744560242" lon="35.053005219">
  <ele>450.807129</ele>
  <time>2011-08-20T06:45:13Z</time>
  <speed>2.860000</speed>
</trkpt>
<trkpt lat="32.744590759" lon="35.053020477">
  <ele>450.072754</ele>
  <time>2011-08-20T06:45:14Z</time>
  <speed>3.400000</speed>
</trkpt>
<trkpt lat="32.744628906" lon="35.053012848">
  <ele>449.861816</ele>
  <time>2011-08-20T06:45:15Z</time>
  <speed>4.340000</speed>
</trkpt>
<trkpt lat="32.744667053" lon="35.053016663">
  <ele>448.932129</ele>
  <time>2011-08-20T06:45:16Z</time>
  <speed>4.090000</speed>
</trkpt>
<trkpt lat="32.744716644" lon="35.053028107">
  <ele>448.166504</ele>
  <time>2011-08-20T06:45:17Z</time>
  <speed>4.420000</speed>
</trkpt>
<trkpt lat="32.744762421" lon="35.053035736">
  <ele>447.885254</ele>
  <time>2011-08-20T06:45:18Z</time>
  <speed>4.600000</speed>
</trkpt>
<trkpt lat="32.744804382" lon="35.053035736">
  <ele>447.518066</ele>
  <time>2011-08-20T06:45:19Z</time>
  <speed>4.280000</speed>
</trkpt>
<trkpt lat="32.744850159" lon="35.053031921">
  <ele>447.510254</ele>
  <time>2011-08-20T06:45:20Z</time>
  <speed>4.470000</speed>
</trkpt>
<trkpt lat="32.744888306" lon="35.053039551">
  <ele>447.518066</ele>
  <time>2011-08-20T06:45:21Z</time>
  <speed>3.890000</speed>
</trkpt>
<trkpt lat="32.744941711" lon="35.053050995">
  <ele>447.416504</ele>
  <time>2011-08-20T06:45:22Z</time>
  <speed>4.850000</speed>
</trkpt>
<trkpt lat="32.744987488" lon="35.053054810">
  <ele>447.158691</ele>
  <time>2011-08-20T06:45:23Z</time>
  <speed>4.140000</speed>
</trkpt>
<trkpt lat="32.745025635" lon="35.053050995">
  <ele>447.041504</ele>
  <time>2011-08-20T06:45:24Z</time>
  <speed>3.450000</speed>
</trkpt>
<trkpt lat="32.745067596" lon="35.053054810">
  <ele>446.963379</ele>
  <time>2011-08-20T06:45:25Z</time>
  <speed>3.260000</speed>
</trkpt>
<trkpt lat="32.745101929" lon="35.053058624">
  <ele>446.783691</ele>
  <time>2011-08-20T06:45:26Z</time>
  <speed>2.770000</speed>
</trkpt>
<trkpt lat="32.745140076" lon="35.053062439">
  <ele>446.619629</ele>
  <time>2011-08-20T06:45:27Z</time>
  <speed>2.550000</speed>
</trkpt>
<trkpt lat="32.745193481" lon="35.053089142">
  <ele>445.869629</ele>
  <time>2011-08-20T06:45:28Z</time>
  <speed>3.070000</speed>
</trkpt>
<trkpt lat="32.745239258" lon="35.053108215">
  <ele>446.033691</ele>
  <time>2011-08-20T06:45:29Z</time>
  <speed>2.640000</speed>
</trkpt>
<trkpt lat="32.745269775" lon="35.053153992">
  <ele>446.447754</ele>
  <time>2011-08-20T06:45:30Z</time>
  <speed>3.280000</speed>
</trkpt>
<trkpt lat="32.745307922" lon="35.053215027">
  <ele>446.354004</ele>
  <time>2011-08-20T06:45:31Z</time>
  <speed>4.130000</speed>
</trkpt>
<trkpt lat="32.745357513" lon="35.053249359">
  <ele>446.119629</ele>
  <time>2011-08-20T06:45:32Z</time>
  <speed>4.230000</speed>
</trkpt>
<trkpt lat="32.745384216" lon="35.053279877">
  <ele>445.822754</ele>
  <time>2011-08-20T06:45:33Z</time>
  <speed>4.160000</speed>
</trkpt>
<trkpt lat="32.745399475" lon="35.053329468">
  <ele>445.244629</ele>
  <time>2011-08-20T06:45:34Z</time>
  <speed>4.140000</speed>
</trkpt>
<trkpt lat="32.745426178" lon="35.053371429">
  <ele>444.658691</ele>
  <time>2011-08-20T06:45:35Z</time>
  <speed>3.990000</speed>
</trkpt>
<trkpt lat="32.745452881" lon="35.053413391">
  <ele>444.533691</ele>
  <time>2011-08-20T06:45:36Z</time>
  <speed>3.460000</speed>
</trkpt>
<trkpt lat="32.745491028" lon="35.053440094">
  <ele>443.885254</ele>
  <time>2011-08-20T06:45:37Z</time>
  <speed>3.200000</speed>
</trkpt>
<trkpt lat="32.745517731" lon="35.053462982">
  <ele>443.549316</ele>
  <time>2011-08-20T06:45:38Z</time>
  <speed>3.180000</speed>
</trkpt>
<trkpt lat="32.745552063" lon="35.053485870">
  <ele>443.525879</ele>
  <time>2011-08-20T06:45:39Z</time>
  <speed>3.210000</speed>
</trkpt>
<trkpt lat="32.745647430" lon="35.053546906">
  <ele>444.166504</ele>
  <time>2011-08-20T06:45:41Z</time>
  <speed>1.690000</speed>
</trkpt>
<trkpt lat="32.745613098" lon="35.053550720">
  <ele>443.229004</ele>
  <time>2011-08-20T06:45:44Z</time>
  <speed>2.330000</speed>
</trkpt>
<trkpt lat="32.745582581" lon="35.053535461">
  <ele>443.174316</ele>
  <time>2011-08-20T06:45:45Z</time>
  <speed>2.590000</speed>
</trkpt>
<trkpt lat="32.745532990" lon="35.053539276">
  <ele>443.455566</ele>
  <time>2011-08-20T06:45:46Z</time>
  <speed>3.200000</speed>
</trkpt>
<trkpt lat="32.745498657" lon="35.053531647">
  <ele>443.127441</ele>
  <time>2011-08-20T06:45:47Z</time>
  <speed>3.590000</speed>
</trkpt>
<trkpt lat="32.745471954" lon="35.053524017">
  <ele>442.604004</ele>
  <time>2011-08-20T06:45:48Z</time>
  <speed>3.110000</speed>
</trkpt>
<trkpt lat="32.745445251" lon="35.053516388">
  <ele>441.947754</ele>
  <time>2011-08-20T06:45:49Z</time>
  <speed>3.680000</speed>
</trkpt>
<trkpt lat="32.745407104" lon="35.053493500">
  <ele>441.596191</ele>
  <time>2011-08-20T06:45:50Z</time>
  <speed>3.760000</speed>
</trkpt>
<trkpt lat="32.745380402" lon="35.053478241">
  <ele>440.994629</ele>
  <time>2011-08-20T06:45:51Z</time>
  <speed>3.380000</speed>
</trkpt>
<trkpt lat="32.745338440" lon="35.053470612">
  <ele>440.416504</ele>
  <time>2011-08-20T06:45:52Z</time>
  <speed>3.610000</speed>
</trkpt>
<trkpt lat="32.745288849" lon="35.053470612">
  <ele>439.947754</ele>
  <time>2011-08-20T06:45:53Z</time>
  <speed>3.190000</speed>
</trkpt>
<trkpt lat="32.745265961" lon="35.053478241">
  <ele>439.393066</ele>
  <time>2011-08-20T06:45:54Z</time>
  <speed>2.830000</speed>
</trkpt>
<trkpt lat="32.745231628" lon="35.053531647">
  <ele>437.705566</ele>
  <time>2011-08-20T06:45:56Z</time>
  <speed>2.820000</speed>
</trkpt>
<trkpt lat="32.745204926" lon="35.053565979">
  <ele>436.705566</ele>
  <time>2011-08-20T06:45:57Z</time>
  <speed>3.290000</speed>
</trkpt>
<trkpt lat="32.745178223" lon="35.053596497">
  <ele>435.721191</ele>
  <time>2011-08-20T06:45:58Z</time>
  <speed>3.360000</speed>
</trkpt>
<trkpt lat="32.745143890" lon="35.053607941">
  <ele>435.088379</ele>
  <time>2011-08-20T06:45:59Z</time>
  <speed>3.010000</speed>
</trkpt>
<trkpt lat="32.745109558" lon="35.053623199">
  <ele>434.674316</ele>
  <time>2011-08-20T06:46:00Z</time>
  <speed>2.640000</speed>
</trkpt>
<trkpt lat="32.745086670" lon="35.053649902">
  <ele>434.025879</ele>
  <time>2011-08-20T06:46:01Z</time>
  <speed>2.920000</speed>
</trkpt>
<trkpt lat="32.745067596" lon="35.053695679">
  <ele>433.150879</ele>
  <time>2011-08-20T06:46:02Z</time>
  <speed>3.970000</speed>
</trkpt>
<trkpt lat="32.745052338" lon="35.053745270">
  <ele>431.846191</ele>
  <time>2011-08-20T06:46:03Z</time>
  <speed>3.920000</speed>
</trkpt>
<trkpt lat="32.745037079" lon="35.053817749">
  <ele>430.236816</ele>
  <time>2011-08-20T06:46:04Z</time>
  <speed>3.130000</speed>
</trkpt>
<trkpt lat="32.745056152" lon="35.053871155">
  <ele>428.424316</ele>
  <time>2011-08-20T06:46:06Z</time>
  <speed>3.250000</speed>
</trkpt>
<trkpt lat="32.745079041" lon="35.053897858">
  <ele>427.752441</ele>
  <time>2011-08-20T06:46:07Z</time>
  <speed>3.300000</speed>
</trkpt>
<trkpt lat="32.745101929" lon="35.053932190">
  <ele>426.580566</ele>
  <time>2011-08-20T06:46:08Z</time>
  <speed>3.020000</speed>
</trkpt>
<trkpt lat="32.745136261" lon="35.053947449">
  <ele>426.018066</ele>
  <time>2011-08-20T06:46:09Z</time>
  <speed>4.750000</speed>
</trkpt>
<trkpt lat="32.745189667" lon="35.053962708">
  <ele>426.447754</ele>
  <time>2011-08-20T06:46:10Z</time>
  <speed>5.140000</speed>
</trkpt>
<trkpt lat="32.745239258" lon="35.053970337">
  <ele>425.971191</ele>
  <time>2011-08-20T06:46:11Z</time>
  <speed>4.590000</speed>
</trkpt>
<trkpt lat="32.745281219" lon="35.053977966">
  <ele>425.564941</ele>
  <time>2011-08-20T06:46:12Z</time>
  <speed>3.580000</speed>
</trkpt>
<trkpt lat="32.745307922" lon="35.053974152">
  <ele>425.182129</ele>
  <time>2011-08-20T06:46:13Z</time>
  <speed>2.750000</speed>
</trkpt>
<trkpt lat="32.745349884" lon="35.053966522">
  <ele>425.432129</ele>
  <time>2011-08-20T06:46:15Z</time>
  <speed>1.760000</speed>
</trkpt>
<trkpt lat="32.745384216" lon="35.053958893">
  <ele>426.314941</ele>
  <time>2011-08-20T06:46:17Z</time>
  <speed>1.870000</speed>
</trkpt>
<trkpt lat="32.745414734" lon="35.053966522">
  <ele>428.580566</ele>
  <time>2011-08-20T06:46:19Z</time>
  <speed>1.760000</speed>
</trkpt>
<trkpt lat="32.745418549" lon="35.053943634">
  <ele>432.080566</ele>
  <time>2011-08-20T06:46:21Z</time>
  <speed>1.090000</speed>
</trkpt>
<trkpt lat="32.745441437" lon="35.053924561">
  <ele>433.072754</ele>
  <time>2011-08-20T06:46:23Z</time>
  <speed>1.400000</speed>
</trkpt>
<trkpt lat="32.745464325" lon="35.053916931">
  <ele>434.299316</ele>
  <time>2011-08-20T06:46:24Z</time>
  <speed>1.630000</speed>
</trkpt>
<trkpt lat="32.745506287" lon="35.053913116">
  <ele>435.158691</ele>
  <time>2011-08-20T06:46:25Z</time>
  <speed>1.740000</speed>
</trkpt>
<trkpt lat="32.745540619" lon="35.053920746">
  <ele>437.760254</ele>
  <time>2011-08-20T06:46:27Z</time>
  <speed>1.610000</speed>
</trkpt>
<trkpt lat="32.745574951" lon="35.053913116">
  <ele>438.650879</ele>
  <time>2011-08-20T06:46:29Z</time>
  <speed>1.470000</speed>
</trkpt>
<trkpt lat="32.745605469" lon="35.053897858">
  <ele>439.455566</ele>
  <time>2011-08-20T06:46:31Z</time>
  <speed>1.500000</speed>
</trkpt>
<trkpt lat="32.745647430" lon="35.053886414">
  <ele>440.689941</ele>
  <time>2011-08-20T06:46:33Z</time>
  <speed>1.800000</speed>
</trkpt>
<trkpt lat="32.745697021" lon="35.053886414">
  <ele>441.572754</ele>
  <time>2011-08-20T06:46:35Z</time>
  <speed>1.780000</speed>
</trkpt>
<trkpt lat="32.745735168" lon="35.053894043">
  <ele>439.580566</ele>
  <time>2011-08-20T06:46:37Z</time>
  <speed>1.720000</speed>
</trkpt>
<trkpt lat="32.745769501" lon="35.053894043">
  <ele>440.471191</ele>
  <time>2011-08-20T06:46:39Z</time>
  <speed>1.400000</speed>
</trkpt>
<trkpt lat="32.745822906" lon="35.053882599">
  <ele>439.361816</ele>
  <time>2011-08-20T06:46:41Z</time>
  <speed>1.500000</speed>
</trkpt>
<trkpt lat="32.745857239" lon="35.053874969">
  <ele>438.838379</ele>
  <time>2011-08-20T06:46:44Z</time>
  <speed>1.030000</speed>
</trkpt>
<trkpt lat="32.745906830" lon="35.053867340">
  <ele>438.479004</ele>
  <time>2011-08-20T06:46:46Z</time>
  <speed>1.370000</speed>
</trkpt>
<trkpt lat="32.745944977" lon="35.053859711">
  <ele>437.463379</ele>
  <time>2011-08-20T06:46:48Z</time>
  <speed>0.780000</speed>
</trkpt>
<trkpt lat="32.745971680" lon="35.053855896">
  <ele>436.064941</ele>
  <time>2011-08-20T06:47:00Z</time>
  <speed>0.900000</speed>
</trkpt>
<trkpt lat="32.746006012" lon="35.053855896">
  <ele>438.010254</ele>
  <time>2011-08-20T06:47:03Z</time>
  <speed>0.870000</speed>
</trkpt>
<trkpt lat="32.746036530" lon="35.053848267">
  <ele>439.408691</ele>
  <time>2011-08-20T06:47:05Z</time>
  <speed>1.390000</speed>
</trkpt>
<trkpt lat="32.746078491" lon="35.053844452">
  <ele>439.689941</ele>
  <time>2011-08-20T06:47:07Z</time>
  <speed>1.460000</speed>
</trkpt>
<trkpt lat="32.746105194" lon="35.053848267">
  <ele>439.174316</ele>
  <time>2011-08-20T06:47:09Z</time>
  <speed>1.240000</speed>
</trkpt>
<trkpt lat="32.746143341" lon="35.053844452">
  <ele>439.900879</ele>
  <time>2011-08-20T06:47:11Z</time>
  <speed>1.370000</speed>
</trkpt>
<trkpt lat="32.746189117" lon="35.053840637">
  <ele>440.439941</ele>
  <time>2011-08-20T06:47:13Z</time>
  <speed>1.650000</speed>
</trkpt>
<trkpt lat="32.746219635" lon="35.053848267">
  <ele>441.080566</ele>
  <time>2011-08-20T06:47:14Z</time>
  <speed>2.180000</speed>
</trkpt>
<trkpt lat="32.746246338" lon="35.053848267">
  <ele>441.432129</ele>
  <time>2011-08-20T06:47:15Z</time>
  <speed>2.230000</speed>
</trkpt>
<trkpt lat="32.746284485" lon="35.053840637">
  <ele>440.814941</ele>
  <time>2011-08-20T06:47:17Z</time>
  <speed>1.580000</speed>
</trkpt>
<trkpt lat="32.746318817" lon="35.053821564">
  <ele>440.604004</ele>
  <time>2011-08-20T06:47:19Z</time>
  <speed>1.180000</speed>
</trkpt>
<trkpt lat="32.746387482" lon="35.053817749">
  <ele>440.518066</ele>
  <time>2011-08-20T06:47:21Z</time>
  <speed>2.160000</speed>
</trkpt>
<trkpt lat="32.746429443" lon="35.053817749">
  <ele>441.932129</ele>
  <time>2011-08-20T06:47:23Z</time>
  <speed>2.060000</speed>
</trkpt>
<trkpt lat="32.746467590" lon="35.053829193">
  <ele>442.283691</ele>
  <time>2011-08-20T06:47:25Z</time>
  <speed>2.150000</speed>
</trkpt>
<trkpt lat="32.746505737" lon="35.053821564">
  <ele>442.939941</ele>
  <time>2011-08-20T06:47:27Z</time>
  <speed>2.410000</speed>
</trkpt>
<trkpt lat="32.746543884" lon="35.053829193">
  <ele>442.463379</ele>
  <time>2011-08-20T06:47:29Z</time>
  <speed>1.960000</speed>
</trkpt>
<trkpt lat="32.746574402" lon="35.053840637">
  <ele>443.197754</ele>
  <time>2011-08-20T06:47:30Z</time>
  <speed>2.180000</speed>
</trkpt>
<trkpt lat="32.746604919" lon="35.053833008">
  <ele>443.330566</ele>
  <time>2011-08-20T06:47:32Z</time>
  <speed>1.590000</speed>
</trkpt>
<trkpt lat="32.746635437" lon="35.053836823">
  <ele>443.150879</ele>
  <time>2011-08-20T06:47:34Z</time>
  <speed>1.450000</speed>
</trkpt>
<trkpt lat="32.746677399" lon="35.053852081">
  <ele>441.518066</ele>
  <time>2011-08-20T06:47:36Z</time>
  <speed>1.740000</speed>
</trkpt>
<trkpt lat="32.746707916" lon="35.053855896">
  <ele>440.924316</ele>
  <time>2011-08-20T06:47:38Z</time>
  <speed>1.680000</speed>
</trkpt>
<trkpt lat="32.746753693" lon="35.053867340">
  <ele>440.650879</ele>
  <time>2011-08-20T06:47:40Z</time>
  <speed>1.890000</speed>
</trkpt>
<trkpt lat="32.746780396" lon="35.053878784">
  <ele>440.221191</ele>
  <time>2011-08-20T06:47:41Z</time>
  <speed>1.860000</speed>
</trkpt>
<trkpt lat="32.746822357" lon="35.053897858">
  <ele>439.768066</ele>
  <time>2011-08-20T06:47:43Z</time>
  <speed>2.110000</speed>
</trkpt>
<trkpt lat="32.746856689" lon="35.053894043">
  <ele>441.135254</ele>
  <time>2011-08-20T06:47:45Z</time>
  <speed>1.880000</speed>
</trkpt>
<trkpt lat="32.746894836" lon="35.053894043">
  <ele>443.869629</ele>
  <time>2011-08-20T06:47:47Z</time>
  <speed>2.140000</speed>
</trkpt>
<trkpt lat="32.746925354" lon="35.053897858">
  <ele>443.143066</ele>
  <time>2011-08-20T06:47:48Z</time>
  <speed>1.930000</speed>
</trkpt>
<trkpt lat="32.746955872" lon="35.053886414">
  <ele>443.986816</ele>
  <time>2011-08-20T06:47:50Z</time>
  <speed>1.700000</speed>
</trkpt>
<trkpt lat="32.746990204" lon="35.053882599">
  <ele>443.314941</ele>
  <time>2011-08-20T06:47:52Z</time>
  <speed>1.680000</speed>
</trkpt>
<trkpt lat="32.747020721" lon="35.053882599">
  <ele>443.643066</ele>
  <time>2011-08-20T06:47:53Z</time>
  <speed>1.970000</speed>
</trkpt>
<trkpt lat="32.747055054" lon="35.053859711">
  <ele>443.385254</ele>
  <time>2011-08-20T06:47:55Z</time>
  <speed>1.820000</speed>
</trkpt>
<trkpt lat="32.747100830" lon="35.053852081">
  <ele>444.916504</ele>
  <time>2011-08-20T06:47:58Z</time>
  <speed>2.020000</speed>
</trkpt>
<trkpt lat="32.747135162" lon="35.053836823">
  <ele>445.025879</ele>
  <time>2011-08-20T06:48:00Z</time>
  <speed>1.270000</speed>
</trkpt>
<trkpt lat="32.747161865" lon="35.053802490">
  <ele>445.736816</ele>
  <time>2011-08-20T06:48:02Z</time>
  <speed>1.530000</speed>
</trkpt>
<trkpt lat="32.747192383" lon="35.053771973">
  <ele>446.189941</ele>
  <time>2011-08-20T06:48:04Z</time>
  <speed>1.810000</speed>
</trkpt>
<trkpt lat="32.747226715" lon="35.053745270">
  <ele>446.111816</ele>
  <time>2011-08-20T06:48:06Z</time>
  <speed>2.020000</speed>
</trkpt>
<trkpt lat="32.747253418" lon="35.053722382">
  <ele>446.354004</ele>
  <time>2011-08-20T06:48:08Z</time>
  <speed>2.200000</speed>
</trkpt>
<trkpt lat="32.747291565" lon="35.053695679">
  <ele>446.854004</ele>
  <time>2011-08-20T06:48:10Z</time>
  <speed>1.880000</speed>
</trkpt>
<trkpt lat="32.747333527" lon="35.053672791">
  <ele>447.627441</ele>
  <time>2011-08-20T06:48:12Z</time>
  <speed>1.940000</speed>
</trkpt>
<trkpt lat="32.747364044" lon="35.053646088">
  <ele>447.861816</ele>
  <time>2011-08-20T06:48:14Z</time>
  <speed>2.100000</speed>
</trkpt>
<trkpt lat="32.747394562" lon="35.053638458">
  <ele>448.182129</ele>
  <time>2011-08-20T06:48:15Z</time>
  <speed>1.910000</speed>
</trkpt>
<trkpt lat="32.747440338" lon="35.053615570">
  <ele>448.205566</ele>
  <time>2011-08-20T06:48:17Z</time>
  <speed>2.140000</speed>
</trkpt>
<trkpt lat="32.747470856" lon="35.053592682">
  <ele>447.643066</ele>
  <time>2011-08-20T06:48:19Z</time>
  <speed>1.890000</speed>
</trkpt>
<trkpt lat="32.747493744" lon="35.053554535">
  <ele>447.510254</ele>
  <time>2011-08-20T06:48:21Z</time>
  <speed>2.190000</speed>
</trkpt>
<trkpt lat="32.747516632" lon="35.053516388">
  <ele>447.299316</ele>
  <time>2011-08-20T06:48:23Z</time>
  <speed>2.220000</speed>
</trkpt>
<trkpt lat="32.747524261" lon="35.053470612">
  <ele>446.893066</ele>
  <time>2011-08-20T06:48:25Z</time>
  <speed>1.990000</speed>
</trkpt>
<trkpt lat="32.747528076" lon="35.053428650">
  <ele>447.010254</ele>
  <time>2011-08-20T06:48:27Z</time>
  <speed>1.880000</speed>
</trkpt>
<trkpt lat="32.747535706" lon="35.053382874">
  <ele>447.291504</ele>
  <time>2011-08-20T06:48:29Z</time>
  <speed>2.250000</speed>
</trkpt>
<trkpt lat="32.747535706" lon="35.053325653">
  <ele>447.393066</ele>
  <time>2011-08-20T06:48:31Z</time>
  <speed>2.430000</speed>
</trkpt>
<trkpt lat="32.747520447" lon="35.053276062">
  <ele>446.791504</ele>
  <time>2011-08-20T06:48:33Z</time>
  <speed>2.190000</speed>
</trkpt>
<trkpt lat="32.747493744" lon="35.053211212">
  <ele>447.236816</ele>
  <time>2011-08-20T06:48:35Z</time>
  <speed>2.120000</speed>
</trkpt>
<trkpt lat="32.747478485" lon="35.053184509">
  <ele>447.322754</ele>
  <time>2011-08-20T06:48:36Z</time>
  <speed>2.270000</speed>
</trkpt>
<trkpt lat="32.747436523" lon="35.053153992">
  <ele>447.322754</ele>
  <time>2011-08-20T06:48:38Z</time>
  <speed>2.210000</speed>
</trkpt>
<trkpt lat="32.747409821" lon="35.053146362">
  <ele>447.385254</ele>
  <time>2011-08-20T06:48:39Z</time>
  <speed>2.300000</speed>
</trkpt>
<trkpt lat="32.747371674" lon="35.053119659">
  <ele>446.682129</ele>
  <time>2011-08-20T06:48:41Z</time>
  <speed>2.130000</speed>
</trkpt>
<trkpt lat="32.747325897" lon="35.053089142">
  <ele>447.041504</ele>
  <time>2011-08-20T06:48:43Z</time>
  <speed>2.210000</speed>
</trkpt>
<trkpt lat="32.747287750" lon="35.053058624">
  <ele>447.189941</ele>
  <time>2011-08-20T06:48:45Z</time>
  <speed>2.020000</speed>
</trkpt>
<trkpt lat="32.747249603" lon="35.053054810">
  <ele>445.885254</ele>
  <time>2011-08-20T06:48:47Z</time>
  <speed>2.020000</speed>
</trkpt>
<trkpt lat="32.747215271" lon="35.053039551">
  <ele>447.354004</ele>
  <time>2011-08-20T06:48:49Z</time>
  <speed>1.870000</speed>
</trkpt>
<trkpt lat="32.747173309" lon="35.053028107">
  <ele>448.182129</ele>
  <time>2011-08-20T06:48:51Z</time>
  <speed>2.190000</speed>
</trkpt>
<trkpt lat="32.747131348" lon="35.053009033">
  <ele>448.463379</ele>
  <time>2011-08-20T06:48:53Z</time>
  <speed>2.170000</speed>
</trkpt>
<trkpt lat="32.747089386" lon="35.052993774">
  <ele>448.025879</ele>
  <time>2011-08-20T06:48:55Z</time>
  <speed>2.050000</speed>
</trkpt>
<trkpt lat="32.747051239" lon="35.052982330">
  <ele>447.846191</ele>
  <time>2011-08-20T06:48:57Z</time>
  <speed>2.250000</speed>
</trkpt>
<trkpt lat="32.747016907" lon="35.052970886">
  <ele>448.189941</ele>
  <time>2011-08-20T06:48:59Z</time>
  <speed>2.060000</speed>
</trkpt>
<trkpt lat="32.746978760" lon="35.052959442">
  <ele>448.275879</ele>
  <time>2011-08-20T06:49:01Z</time>
  <speed>2.040000</speed>
</trkpt>
<trkpt lat="32.746932983" lon="35.052947998">
  <ele>449.260254</ele>
  <time>2011-08-20T06:49:03Z</time>
  <speed>1.980000</speed>
</trkpt>
<trkpt lat="32.746898651" lon="35.052951813">
  <ele>448.752441</ele>
  <time>2011-08-20T06:49:05Z</time>
  <speed>2.340000</speed>
</trkpt>
<trkpt lat="32.746864319" lon="35.052944183">
  <ele>448.861816</ele>
  <time>2011-08-20T06:49:07Z</time>
  <speed>1.870000</speed>
</trkpt>
<trkpt lat="32.746826172" lon="35.052940369">
  <ele>449.682129</ele>
  <time>2011-08-20T06:49:09Z</time>
  <speed>1.690000</speed>
</trkpt>
<trkpt lat="32.746795654" lon="35.052940369">
  <ele>449.244629</ele>
  <time>2011-08-20T06:49:11Z</time>
  <speed>1.970000</speed>
</trkpt>
<trkpt lat="32.746757507" lon="35.052925110">
  <ele>449.307129</ele>
  <time>2011-08-20T06:49:13Z</time>
  <speed>1.960000</speed>
</trkpt>
<trkpt lat="32.746715546" lon="35.052913666">
  <ele>449.604004</ele>
  <time>2011-08-20T06:49:15Z</time>
  <speed>2.030000</speed>
</trkpt>
<trkpt lat="32.746681213" lon="35.052913666">
  <ele>448.908691</ele>
  <time>2011-08-20T06:49:17Z</time>
  <speed>1.770000</speed>
</trkpt>
<trkpt lat="32.746646881" lon="35.052917480">
  <ele>449.260254</ele>
  <time>2011-08-20T06:49:19Z</time>
  <speed>2.010000</speed>
</trkpt>
<trkpt lat="32.746612549" lon="35.052913666">
  <ele>448.838379</ele>
  <time>2011-08-20T06:49:21Z</time>
  <speed>1.980000</speed>
</trkpt>
<trkpt lat="32.746574402" lon="35.052921295">
  <ele>448.846191</ele>
  <time>2011-08-20T06:49:23Z</time>
  <speed>2.020000</speed>
</trkpt>
<trkpt lat="32.746532440" lon="35.052917480">
  <ele>449.354004</ele>
  <time>2011-08-20T06:49:25Z</time>
  <speed>1.980000</speed>
</trkpt>
<trkpt lat="32.746501923" lon="35.052928925">
  <ele>449.260254</ele>
  <time>2011-08-20T06:49:27Z</time>
  <speed>1.030000</speed>
</trkpt>
<trkpt lat="32.746482849" lon="35.052951813">
  <ele>449.205566</ele>
  <time>2011-08-20T06:49:29Z</time>
  <speed>1.230000</speed>
</trkpt>
<trkpt lat="32.746444702" lon="35.052974701">
  <ele>449.229004</ele>
  <time>2011-08-20T06:49:32Z</time>
  <speed>1.580000</speed>
</trkpt>
<trkpt lat="32.746417999" lon="35.052978516">
  <ele>448.932129</ele>
  <time>2011-08-20T06:49:34Z</time>
  <speed>1.820000</speed>
</trkpt>
<trkpt lat="32.746383667" lon="35.052993774">
  <ele>449.002441</ele>
  <time>2011-08-20T06:49:36Z</time>
  <speed>1.740000</speed>
</trkpt>
<trkpt lat="32.746353149" lon="35.053001404">
  <ele>449.080566</ele>
  <time>2011-08-20T06:49:38Z</time>
  <speed>1.870000</speed>
</trkpt>
<trkpt lat="32.746318817" lon="35.053005219">
  <ele>449.494629</ele>
  <time>2011-08-20T06:49:40Z</time>
  <speed>1.670000</speed>
</trkpt>
<trkpt lat="32.746284485" lon="35.053005219">
  <ele>449.588379</ele>
  <time>2011-08-20T06:49:42Z</time>
  <speed>1.520000</speed>
</trkpt>
<trkpt lat="32.746253967" lon="35.053012848">
  <ele>450.619629</ele>
  <time>2011-08-20T06:49:44Z</time>
  <speed>1.750000</speed>
</trkpt>
<trkpt lat="32.746215820" lon="35.053028107">
  <ele>452.330566</ele>
  <time>2011-08-20T06:49:46Z</time>
  <speed>1.690000</speed>
</trkpt>
<trkpt lat="32.746192932" lon="35.053043365">
  <ele>453.682129</ele>
  <time>2011-08-20T06:49:48Z</time>
  <speed>1.550000</speed>
</trkpt>
<trkpt lat="32.746162415" lon="35.053043365">
  <ele>454.174316</ele>
  <time>2011-08-20T06:49:50Z</time>
  <speed>1.300000</speed>
</trkpt>
<trkpt lat="32.746128082" lon="35.053035736">
  <ele>454.119629</ele>
  <time>2011-08-20T06:49:53Z</time>
  <speed>1.680000</speed>
</trkpt>
<trkpt lat="32.746089935" lon="35.053035736">
  <ele>454.018066</ele>
  <time>2011-08-20T06:49:56Z</time>
  <speed>1.360000</speed>
</trkpt>
<trkpt lat="32.746051788" lon="35.053028107">
  <ele>453.822754</ele>
  <time>2011-08-20T06:49:59Z</time>
  <speed>1.090000</speed>
</trkpt>
<trkpt lat="32.746013641" lon="35.053016663">
  <ele>454.205566</ele>
  <time>2011-08-20T06:50:02Z</time>
  <speed>1.440000</speed>
</trkpt>
<trkpt lat="32.745979309" lon="35.053020477">
  <ele>454.752441</ele>
  <time>2011-08-20T06:50:04Z</time>
  <speed>1.380000</speed>
</trkpt>
<trkpt lat="32.745941162" lon="35.053024292">
  <ele>455.979004</ele>
  <time>2011-08-20T06:50:06Z</time>
  <speed>1.190000</speed>
</trkpt>
<trkpt lat="32.745914459" lon="35.053012848">
  <ele>457.377441</ele>
  <time>2011-08-20T06:50:08Z</time>
  <speed>1.600000</speed>
</trkpt>
<trkpt lat="32.745876312" lon="35.053012848">
  <ele>457.877441</ele>
  <time>2011-08-20T06:50:11Z</time>
  <speed>1.370000</speed>
</trkpt>
<trkpt lat="32.745841980" lon="35.053012848">
  <ele>458.072754</ele>
  <time>2011-08-20T06:50:14Z</time>
  <speed>1.540000</speed>
</trkpt>
<trkpt lat="32.745811462" lon="35.053009033">
  <ele>457.893066</ele>
  <time>2011-08-20T06:50:16Z</time>
  <speed>1.440000</speed>
</trkpt>
<trkpt lat="32.745777130" lon="35.053001404">
  <ele>458.119629</ele>
  <time>2011-08-20T06:50:19Z</time>
  <speed>1.540000</speed>
</trkpt>
<trkpt lat="32.745750427" lon="35.052974701">
  <ele>457.752441</ele>
  <time>2011-08-20T06:50:21Z</time>
  <speed>1.590000</speed>
</trkpt>
<trkpt lat="32.745712280" lon="35.052951813">
  <ele>457.799316</ele>
  <time>2011-08-20T06:50:23Z</time>
  <speed>1.730000</speed>
</trkpt>
<trkpt lat="32.745681763" lon="35.052925110">
  <ele>458.057129</ele>
  <time>2011-08-20T06:50:25Z</time>
  <speed>1.640000</speed>
</trkpt>
<trkpt lat="32.745658875" lon="35.052906036">
  <ele>458.244629</ele>
  <time>2011-08-20T06:50:27Z</time>
  <speed>1.550000</speed>
</trkpt>
<trkpt lat="32.745635986" lon="35.052886963">
  <ele>458.166504</ele>
  <time>2011-08-20T06:50:29Z</time>
  <speed>1.380000</speed>
</trkpt>
<trkpt lat="32.745613098" lon="35.052867889">
  <ele>458.143066</ele>
  <time>2011-08-20T06:50:31Z</time>
  <speed>1.360000</speed>
</trkpt>
<trkpt lat="32.745582581" lon="35.052837372">
  <ele>457.979004</ele>
  <time>2011-08-20T06:50:34Z</time>
  <speed>1.750000</speed>
</trkpt>
<trkpt lat="32.745552063" lon="35.052822113">
  <ele>458.604004</ele>
  <time>2011-08-20T06:50:36Z</time>
  <speed>1.130000</speed>
</trkpt>
<trkpt lat="32.745513916" lon="35.052799225">
  <ele>459.104004</ele>
  <time>2011-08-20T06:50:39Z</time>
  <speed>1.480000</speed>
</trkpt>
<trkpt lat="32.745479584" lon="35.052776337">
  <ele>459.572754</ele>
  <time>2011-08-20T06:50:41Z</time>
  <speed>1.650000</speed>
</trkpt>
<trkpt lat="32.745449066" lon="35.052757263">
  <ele>460.572754</ele>
  <time>2011-08-20T06:50:43Z</time>
  <speed>1.600000</speed>
</trkpt>
<trkpt lat="32.745426178" lon="35.052730560">
  <ele>461.393066</ele>
  <time>2011-08-20T06:50:45Z</time>
  <speed>1.410000</speed>
</trkpt>
<trkpt lat="32.745403290" lon="35.052707672">
  <ele>461.307129</ele>
  <time>2011-08-20T06:50:47Z</time>
  <speed>1.420000</speed>
</trkpt>
<trkpt lat="32.745372772" lon="35.052677155">
  <ele>461.338379</ele>
  <time>2011-08-20T06:50:50Z</time>
  <speed>1.620000</speed>
</trkpt>
<trkpt lat="32.745346069" lon="35.052654266">
  <ele>461.580566</ele>
  <time>2011-08-20T06:50:52Z</time>
  <speed>1.600000</speed>
</trkpt>
<trkpt lat="32.745326996" lon="35.052623749">
  <ele>462.158691</ele>
  <time>2011-08-20T06:50:54Z</time>
  <speed>1.570000</speed>
</trkpt>
<trkpt lat="32.745307922" lon="35.052600861">
  <ele>462.604004</ele>
  <time>2011-08-20T06:50:56Z</time>
  <speed>1.480000</speed>
</trkpt>
<trkpt lat="32.745277405" lon="35.052581787">
  <ele>463.557129</ele>
  <time>2011-08-20T06:50:58Z</time>
  <speed>1.590000</speed>
</trkpt>
<trkpt lat="32.745250702" lon="35.052562714">
  <ele>464.541504</ele>
  <time>2011-08-20T06:51:00Z</time>
  <speed>1.500000</speed>
</trkpt>
<trkpt lat="32.745220184" lon="35.052543640">
  <ele>465.635254</ele>
  <time>2011-08-20T06:51:02Z</time>
  <speed>1.540000</speed>
</trkpt>
<trkpt lat="32.745189667" lon="35.052532196">
  <ele>466.588379</ele>
  <time>2011-08-20T06:51:04Z</time>
  <speed>1.660000</speed>
</trkpt>
<trkpt lat="32.745159149" lon="35.052520752">
  <ele>467.463379</ele>
  <time>2011-08-20T06:51:06Z</time>
  <speed>1.700000</speed>
</trkpt>
<trkpt lat="32.745132446" lon="35.052509308">
  <ele>468.025879</ele>
  <time>2011-08-20T06:51:08Z</time>
  <speed>1.640000</speed>
</trkpt>
<trkpt lat="32.745101929" lon="35.052494049">
  <ele>468.057129</ele>
  <time>2011-08-20T06:51:10Z</time>
  <speed>1.510000</speed>
</trkpt>
<trkpt lat="32.745071411" lon="35.052482605">
  <ele>468.518066</ele>
  <time>2011-08-20T06:51:12Z</time>
  <speed>1.460000</speed>
</trkpt>
<trkpt lat="32.745033264" lon="35.052474976">
  <ele>468.275879</ele>
  <time>2011-08-20T06:51:15Z</time>
  <speed>1.810000</speed>
</trkpt>
<trkpt lat="32.745002747" lon="35.052471161">
  <ele>468.619629</ele>
  <time>2011-08-20T06:51:17Z</time>
  <speed>1.710000</speed>
</trkpt>
<trkpt lat="32.744968414" lon="35.052474976">
  <ele>468.650879</ele>
  <time>2011-08-20T06:51:19Z</time>
  <speed>1.630000</speed>
</trkpt>
<trkpt lat="32.744934082" lon="35.052478790">
  <ele>468.744629</ele>
  <time>2011-08-20T06:51:21Z</time>
  <speed>1.720000</speed>
</trkpt>
<trkpt lat="32.744899750" lon="35.052486420">
  <ele>467.971191</ele>
  <time>2011-08-20T06:51:23Z</time>
  <speed>1.530000</speed>
</trkpt>
<trkpt lat="32.744869232" lon="35.052486420">
  <ele>467.830566</ele>
  <time>2011-08-20T06:51:25Z</time>
  <speed>1.550000</speed>
</trkpt>
<trkpt lat="32.744823456" lon="35.052497864">
  <ele>467.057129</ele>
  <time>2011-08-20T06:51:28Z</time>
  <speed>1.670000</speed>
</trkpt>
<trkpt lat="32.744781494" lon="35.052501678">
  <ele>466.666504</ele>
  <time>2011-08-20T06:51:31Z</time>
  <speed>1.370000</speed>
</trkpt>
<trkpt lat="32.744754791" lon="35.052513123">
  <ele>466.135254</ele>
  <time>2011-08-20T06:51:33Z</time>
  <speed>1.480000</speed>
</trkpt>
<trkpt lat="32.744728088" lon="35.052536011">
  <ele>466.502441</ele>
  <time>2011-08-20T06:51:35Z</time>
  <speed>1.470000</speed>
</trkpt>
<trkpt lat="32.744693756" lon="35.052555084">
  <ele>466.158691</ele>
  <time>2011-08-20T06:51:38Z</time>
  <speed>1.600000</speed>
</trkpt>
<trkpt lat="32.744655609" lon="35.052570343">
  <ele>465.432129</ele>
  <time>2011-08-20T06:51:41Z</time>
  <speed>1.410000</speed>
</trkpt>
<trkpt lat="32.744628906" lon="35.052577972">
  <ele>465.166504</ele>
  <time>2011-08-20T06:51:43Z</time>
  <speed>1.600000</speed>
</trkpt>
<trkpt lat="32.744598389" lon="35.052581787">
  <ele>464.838379</ele>
  <time>2011-08-20T06:51:45Z</time>
  <speed>1.560000</speed>
</trkpt>
<trkpt lat="32.744571686" lon="35.052600861">
  <ele>464.838379</ele>
  <time>2011-08-20T06:51:47Z</time>
  <speed>1.400000</speed>
</trkpt>
<trkpt lat="32.744541168" lon="35.052597046">
  <ele>465.135254</ele>
  <time>2011-08-20T06:51:49Z</time>
  <speed>1.660000</speed>
</trkpt>
<trkpt lat="32.744506836" lon="35.052604675">
  <ele>464.768066</ele>
  <time>2011-08-20T06:51:51Z</time>
  <speed>1.530000</speed>
</trkpt>
<trkpt lat="32.744468689" lon="35.052593231">
  <ele>464.627441</ele>
  <time>2011-08-20T06:51:53Z</time>
  <speed>1.660000</speed>
</trkpt>
<trkpt lat="32.744438171" lon="35.052593231">
  <ele>465.244629</ele>
  <time>2011-08-20T06:51:55Z</time>
  <speed>1.710000</speed>
</trkpt>
<trkpt lat="32.744407654" lon="35.052608490">
  <ele>466.986816</ele>
  <time>2011-08-20T06:51:57Z</time>
  <speed>1.550000</speed>
</trkpt>
<trkpt lat="32.744373322" lon="35.052604675">
  <ele>469.275879</ele>
  <time>2011-08-20T06:51:59Z</time>
  <speed>1.740000</speed>
</trkpt>
<trkpt lat="32.744338989" lon="35.052604675">
  <ele>470.205566</ele>
  <time>2011-08-20T06:52:01Z</time>
  <speed>1.810000</speed>
</trkpt>
<trkpt lat="32.744304657" lon="35.052604675">
  <ele>470.674316</ele>
  <time>2011-08-20T06:52:03Z</time>
  <speed>1.470000</speed>
</trkpt>
<trkpt lat="32.744277954" lon="35.052597046">
  <ele>470.182129</ele>
  <time>2011-08-20T06:52:05Z</time>
  <speed>1.880000</speed>
</trkpt>
<trkpt lat="32.744232178" lon="35.052600861">
  <ele>470.416504</ele>
  <time>2011-08-20T06:52:08Z</time>
  <speed>1.450000</speed>
</trkpt>
<trkpt lat="32.744205475" lon="35.052600861">
  <ele>471.557129</ele>
  <time>2011-08-20T06:52:11Z</time>
  <speed>1.290000</speed>
</trkpt>
<trkpt lat="32.744178772" lon="35.052604675">
  <ele>471.455566</ele>
  <time>2011-08-20T06:52:13Z</time>
  <speed>1.250000</speed>
</trkpt>
<trkpt lat="32.744152069" lon="35.052600861">
  <ele>471.971191</ele>
  <time>2011-08-20T06:52:15Z</time>
  <speed>1.440000</speed>
</trkpt>
<trkpt lat="32.744117737" lon="35.052612305">
  <ele>472.471191</ele>
  <time>2011-08-20T06:52:18Z</time>
  <speed>1.400000</speed>
</trkpt>
<trkpt lat="32.744091034" lon="35.052616119">
  <ele>472.869629</ele>
  <time>2011-08-20T06:52:20Z</time>
  <speed>1.210000</speed>
</trkpt>
<trkpt lat="32.744064331" lon="35.052612305">
  <ele>472.979004</ele>
  <time>2011-08-20T06:52:22Z</time>
  <speed>1.440000</speed>
</trkpt>
<trkpt lat="32.744033813" lon="35.052604675">
  <ele>472.979004</ele>
  <time>2011-08-20T06:52:24Z</time>
  <speed>1.060000</speed>
</trkpt>
<trkpt lat="32.743999481" lon="35.052600861">
  <ele>474.025879</ele>
  <time>2011-08-20T06:52:27Z</time>
  <speed>1.830000</speed>
</trkpt>
<trkpt lat="32.743961334" lon="35.052597046">
  <ele>474.713379</ele>
  <time>2011-08-20T06:52:29Z</time>
  <speed>1.660000</speed>
</trkpt>
<trkpt lat="32.743927002" lon="35.052593231">
  <ele>475.932129</ele>
  <time>2011-08-20T06:52:31Z</time>
  <speed>1.550000</speed>
</trkpt>
<trkpt lat="32.743900299" lon="35.052593231">
  <ele>477.104004</ele>
  <time>2011-08-20T06:52:33Z</time>
  <speed>1.260000</speed>
</trkpt>
<trkpt lat="32.743873596" lon="35.052593231">
  <ele>478.197754</ele>
  <time>2011-08-20T06:52:35Z</time>
  <speed>1.630000</speed>
</trkpt>
<trkpt lat="32.743846893" lon="35.052574158">
  <ele>478.658691</ele>
  <time>2011-08-20T06:52:37Z</time>
  <speed>1.580000</speed>
</trkpt>
<trkpt lat="32.743812561" lon="35.052581787">
  <ele>479.572754</ele>
  <time>2011-08-20T06:52:39Z</time>
  <speed>1.210000</speed>
</trkpt>
<trkpt lat="32.743785858" lon="35.052581787">
  <ele>480.275879</ele>
  <time>2011-08-20T06:52:41Z</time>
  <speed>1.670000</speed>
</trkpt>
<trkpt lat="32.743755341" lon="35.052581787">
  <ele>480.760254</ele>
  <time>2011-08-20T06:52:43Z</time>
  <speed>1.400000</speed>
</trkpt>
<trkpt lat="32.743724823" lon="35.052555084">
  <ele>481.010254</ele>
  <time>2011-08-20T06:52:45Z</time>
  <speed>1.600000</speed>
</trkpt>
<trkpt lat="32.743679047" lon="35.052536011">
  <ele>481.346191</ele>
  <time>2011-08-20T06:52:48Z</time>
  <speed>1.410000</speed>
</trkpt>
<trkpt lat="32.743640900" lon="35.052509308">
  <ele>481.588379</ele>
  <time>2011-08-20T06:52:51Z</time>
  <speed>1.500000</speed>
</trkpt>
<trkpt lat="32.743606567" lon="35.052482605">
  <ele>481.721191</ele>
  <time>2011-08-20T06:52:53Z</time>
  <speed>1.580000</speed>
</trkpt>
<trkpt lat="32.743576050" lon="35.052478790">
  <ele>482.018066</ele>
  <time>2011-08-20T06:52:55Z</time>
  <speed>1.600000</speed>
</trkpt>
<trkpt lat="32.743545532" lon="35.052486420">
  <ele>482.299316</ele>
  <time>2011-08-20T06:52:57Z</time>
  <speed>1.510000</speed>
</trkpt>
<trkpt lat="32.743511200" lon="35.052486420">
  <ele>482.744629</ele>
  <time>2011-08-20T06:52:59Z</time>
  <speed>1.360000</speed>
</trkpt>
<trkpt lat="32.743476868" lon="35.052490234">
  <ele>482.783691</ele>
  <time>2011-08-20T06:53:02Z</time>
  <speed>1.720000</speed>
</trkpt>
<trkpt lat="32.743438721" lon="35.052505493">
  <ele>483.057129</ele>
  <time>2011-08-20T06:53:05Z</time>
  <speed>1.690000</speed>
</trkpt>
<trkpt lat="32.743408203" lon="35.052516937">
  <ele>483.268066</ele>
  <time>2011-08-20T06:53:07Z</time>
  <speed>1.610000</speed>
</trkpt>
<trkpt lat="32.743373871" lon="35.052524567">
  <ele>483.385254</ele>
  <time>2011-08-20T06:53:10Z</time>
  <speed>1.370000</speed>
</trkpt>
<trkpt lat="32.743343353" lon="35.052520752">
  <ele>483.205566</ele>
  <time>2011-08-20T06:53:12Z</time>
  <speed>1.640000</speed>
</trkpt>
<trkpt lat="32.743301392" lon="35.052505493">
  <ele>483.666504</ele>
  <time>2011-08-20T06:53:15Z</time>
  <speed>1.470000</speed>
</trkpt>
<trkpt lat="32.743270874" lon="35.052497864">
  <ele>483.502441</ele>
  <time>2011-08-20T06:53:17Z</time>
  <speed>1.540000</speed>
</trkpt>
<trkpt lat="32.743244171" lon="35.052497864">
  <ele>483.221191</ele>
  <time>2011-08-20T06:53:19Z</time>
  <speed>1.660000</speed>
</trkpt>
<trkpt lat="32.743209839" lon="35.052509308">
  <ele>483.393066</ele>
  <time>2011-08-20T06:53:21Z</time>
  <speed>1.460000</speed>
</trkpt>
<trkpt lat="32.743183136" lon="35.052509308">
  <ele>483.807129</ele>
  <time>2011-08-20T06:53:23Z</time>
  <speed>1.600000</speed>
</trkpt>
<trkpt lat="32.743148804" lon="35.052513123">
  <ele>483.830566</ele>
  <time>2011-08-20T06:53:25Z</time>
  <speed>1.540000</speed>
</trkpt>
<trkpt lat="32.743118286" lon="35.052501678">
  <ele>483.729004</ele>
  <time>2011-08-20T06:53:27Z</time>
  <speed>1.710000</speed>
</trkpt>
<trkpt lat="32.743080139" lon="35.052509308">
  <ele>483.814941</ele>
  <time>2011-08-20T06:53:30Z</time>
  <speed>1.400000</speed>
</trkpt>
<trkpt lat="32.743057251" lon="35.052536011">
  <ele>484.088379</ele>
  <time>2011-08-20T06:53:32Z</time>
  <speed>1.300000</speed>
</trkpt>
<trkpt lat="32.743026733" lon="35.052539825">
  <ele>484.111816</ele>
  <time>2011-08-20T06:53:34Z</time>
  <speed>1.640000</speed>
</trkpt>
<trkpt lat="32.742992401" lon="35.052543640">
  <ele>484.127441</ele>
  <time>2011-08-20T06:53:37Z</time>
  <speed>1.240000</speed>
</trkpt>
<trkpt lat="32.742961884" lon="35.052543640">
  <ele>484.143066</ele>
  <time>2011-08-20T06:53:39Z</time>
  <speed>1.440000</speed>
</trkpt>
<trkpt lat="32.742927551" lon="35.052543640">
  <ele>484.268066</ele>
  <time>2011-08-20T06:53:41Z</time>
  <speed>1.420000</speed>
</trkpt>
<trkpt lat="32.742889404" lon="35.052543640">
  <ele>484.338379</ele>
  <time>2011-08-20T06:53:44Z</time>
  <speed>1.220000</speed>
</trkpt>
<trkpt lat="32.742855072" lon="35.052524567">
  <ele>484.830566</ele>
  <time>2011-08-20T06:53:46Z</time>
  <speed>1.500000</speed>
</trkpt>
<trkpt lat="32.742813110" lon="35.052539825">
  <ele>485.260254</ele>
  <time>2011-08-20T06:53:49Z</time>
  <speed>1.640000</speed>
</trkpt>
<trkpt lat="32.742782593" lon="35.052536011">
  <ele>485.104004</ele>
  <time>2011-08-20T06:53:51Z</time>
  <speed>1.710000</speed>
</trkpt>
<trkpt lat="32.742740631" lon="35.052539825">
  <ele>484.963379</ele>
  <time>2011-08-20T06:53:54Z</time>
  <speed>1.400000</speed>
</trkpt>
<trkpt lat="32.742710114" lon="35.052536011">
  <ele>484.705566</ele>
  <time>2011-08-20T06:53:57Z</time>
  <speed>1.290000</speed>
</trkpt>
<trkpt lat="32.742679596" lon="35.052528381">
  <ele>485.018066</ele>
  <time>2011-08-20T06:53:59Z</time>
  <speed>1.130000</speed>
</trkpt>
<trkpt lat="32.742645264" lon="35.052524567">
  <ele>484.119629</ele>
  <time>2011-08-20T06:54:01Z</time>
  <speed>1.430000</speed>
</trkpt>
<trkpt lat="32.742610931" lon="35.052528381">
  <ele>484.002441</ele>
  <time>2011-08-20T06:54:04Z</time>
  <speed>1.220000</speed>
</trkpt>
<trkpt lat="32.742584229" lon="35.052536011">
  <ele>483.932129</ele>
  <time>2011-08-20T06:54:06Z</time>
  <speed>1.300000</speed>
</trkpt>
<trkpt lat="32.742557526" lon="35.052536011">
  <ele>483.604004</ele>
  <time>2011-08-20T06:54:08Z</time>
  <speed>1.270000</speed>
</trkpt>
<trkpt lat="32.742530823" lon="35.052520752">
  <ele>482.939941</ele>
  <time>2011-08-20T06:54:11Z</time>
  <speed>0.830000</speed>
</trkpt>
<trkpt lat="32.742507935" lon="35.052497864">
  <ele>483.447754</ele>
  <time>2011-08-20T06:54:13Z</time>
  <speed>1.250000</speed>
</trkpt>
<trkpt lat="32.742477417" lon="35.052494049">
  <ele>484.275879</ele>
  <time>2011-08-20T06:54:15Z</time>
  <speed>1.090000</speed>
</trkpt>
<trkpt lat="32.742454529" lon="35.052471161">
  <ele>484.658691</ele>
  <time>2011-08-20T06:54:17Z</time>
  <speed>1.100000</speed>
</trkpt>
<trkpt lat="32.742420197" lon="35.052452087">
  <ele>484.127441</ele>
  <time>2011-08-20T06:54:20Z</time>
  <speed>0.860000</speed>
</trkpt>
<trkpt lat="32.742389679" lon="35.052448273">
  <ele>484.564941</ele>
  <time>2011-08-20T06:54:22Z</time>
  <speed>0.970000</speed>
</trkpt>
<trkpt lat="32.742336273" lon="35.052467346">
  <ele>486.166504</ele>
  <time>2011-08-20T06:54:24Z</time>
  <speed>0.820000</speed>
</trkpt>
<trkpt lat="32.742298126" lon="35.052452087">
  <ele>486.799316</ele>
  <time>2011-08-20T06:54:27Z</time>
  <speed>0.870000</speed>
</trkpt>
<trkpt lat="32.742271423" lon="35.052433014">
  <ele>486.439941</ele>
  <time>2011-08-20T06:54:29Z</time>
  <speed>1.210000</speed>
</trkpt>
<trkpt lat="32.742237091" lon="35.052421570">
  <ele>486.252441</ele>
  <time>2011-08-20T06:54:32Z</time>
  <speed>1.130000</speed>
</trkpt>
<trkpt lat="32.742202759" lon="35.052410126">
  <ele>486.080566</ele>
  <time>2011-08-20T06:54:35Z</time>
  <speed>1.100000</speed>
</trkpt>
<trkpt lat="32.742187500" lon="35.052383423">
  <ele>485.916504</ele>
  <time>2011-08-20T06:54:37Z</time>
  <speed>1.090000</speed>
</trkpt>
<trkpt lat="32.742160797" lon="35.052356720">
  <ele>485.908691</ele>
  <time>2011-08-20T06:54:40Z</time>
  <speed>1.080000</speed>
</trkpt>
<trkpt lat="32.742134094" lon="35.052345276">
  <ele>486.033691</ele>
  <time>2011-08-20T06:54:42Z</time>
  <speed>1.140000</speed>
</trkpt>
<trkpt lat="32.742099762" lon="35.052333832">
  <ele>486.291504</ele>
  <time>2011-08-20T06:54:44Z</time>
  <speed>1.320000</speed>
</trkpt>
<trkpt lat="32.742076874" lon="35.052310944">
  <ele>486.166504</ele>
  <time>2011-08-20T06:54:46Z</time>
  <speed>1.360000</speed>
</trkpt>
<trkpt lat="32.742061615" lon="35.052272797">
  <ele>485.557129</ele>
  <time>2011-08-20T06:54:48Z</time>
  <speed>1.320000</speed>
</trkpt>
<trkpt lat="32.742065430" lon="35.052230835">
  <ele>486.025879</ele>
  <time>2011-08-20T06:54:52Z</time>
  <speed>0.960000</speed>
</trkpt>
<trkpt lat="32.742095947" lon="35.052200317">
  <ele>485.807129</ele>
  <time>2011-08-20T06:54:55Z</time>
  <speed>1.510000</speed>
</trkpt>
<trkpt lat="32.742122650" lon="35.052173615">
  <ele>485.588379</ele>
  <time>2011-08-20T06:54:57Z</time>
  <speed>1.370000</speed>
</trkpt>
<trkpt lat="32.742149353" lon="35.052143097">
  <ele>485.814941</ele>
  <time>2011-08-20T06:55:00Z</time>
  <speed>1.230000</speed>
</trkpt>
<trkpt lat="32.742149353" lon="35.052082062">
  <ele>486.057129</ele>
  <time>2011-08-20T06:55:03Z</time>
  <speed>1.060000</speed>
</trkpt>
<trkpt lat="32.742168427" lon="35.052055359">
  <ele>486.760254</ele>
  <time>2011-08-20T06:55:05Z</time>
  <speed>1.110000</speed>
</trkpt>
<trkpt lat="32.742198944" lon="35.052021027">
  <ele>486.955566</ele>
  <time>2011-08-20T06:55:08Z</time>
  <speed>1.090000</speed>
</trkpt>
<trkpt lat="32.742176056" lon="35.051944733">
  <ele>486.994629</ele>
  <time>2011-08-20T06:55:10Z</time>
  <speed>1.200000</speed>
</trkpt>
<trkpt lat="32.742202759" lon="35.051925659">
  <ele>487.127441</ele>
  <time>2011-08-20T06:55:12Z</time>
  <speed>1.290000</speed>
</trkpt>
<trkpt lat="32.742233276" lon="35.051906586">
  <ele>487.900879</ele>
  <time>2011-08-20T06:55:15Z</time>
  <speed>1.440000</speed>
</trkpt>
<trkpt lat="32.742248535" lon="35.051872253">
  <ele>490.080566</ele>
  <time>2011-08-20T06:55:18Z</time>
  <speed>0.930000</speed>
</trkpt>
<trkpt lat="32.742279053" lon="35.051860809">
  <ele>491.955566</ele>
  <time>2011-08-20T06:55:21Z</time>
  <speed>1.060000</speed>
</trkpt>
<trkpt lat="32.742298126" lon="35.051837921">
  <ele>494.096191</ele>
  <time>2011-08-20T06:55:24Z</time>
  <speed>1.210000</speed>
</trkpt>
<trkpt lat="32.742332458" lon="35.051818848">
  <ele>493.338379</ele>
  <time>2011-08-20T06:55:27Z</time>
  <speed>0.740000</speed>
</trkpt>
<trkpt lat="32.742347717" lon="35.051799774">
  <ele>494.393066</ele>
  <time>2011-08-20T06:55:29Z</time>
  <speed>0.690000</speed>
</trkpt>
<trkpt lat="32.742359161" lon="35.051761627">
  <ele>494.322754</ele>
  <time>2011-08-20T06:55:31Z</time>
  <speed>0.940000</speed>
</trkpt>
<trkpt lat="32.742382050" lon="35.051734924">
  <ele>494.924316</ele>
  <time>2011-08-20T06:55:33Z</time>
  <speed>0.930000</speed>
</trkpt>
<trkpt lat="32.742424011" lon="35.051719666">
  <ele>494.791504</ele>
  <time>2011-08-20T06:55:35Z</time>
  <speed>1.100000</speed>
</trkpt>
<trkpt lat="32.742454529" lon="35.051719666">
  <ele>496.424316</ele>
  <time>2011-08-20T06:55:37Z</time>
  <speed>1.300000</speed>
</trkpt>
<trkpt lat="32.742492676" lon="35.051704407">
  <ele>496.525879</ele>
  <time>2011-08-20T06:55:39Z</time>
  <speed>1.710000</speed>
</trkpt>
<trkpt lat="32.742553711" lon="35.051681519">
  <ele>497.564941</ele>
  <time>2011-08-20T06:55:41Z</time>
  <speed>1.620000</speed>
</trkpt>
<trkpt lat="32.742572784" lon="35.051647186">
  <ele>498.104004</ele>
  <time>2011-08-20T06:55:43Z</time>
  <speed>1.590000</speed>
</trkpt>
<trkpt lat="32.742603302" lon="35.051639557">
  <ele>498.463379</ele>
  <time>2011-08-20T06:55:44Z</time>
  <speed>1.670000</speed>
</trkpt>
<trkpt lat="32.742626190" lon="35.051620483">
  <ele>499.369629</ele>
  <time>2011-08-20T06:55:46Z</time>
  <speed>1.420000</speed>
</trkpt>
<trkpt lat="32.742641449" lon="35.051593781">
  <ele>499.596191</ele>
  <time>2011-08-20T06:55:48Z</time>
  <speed>1.470000</speed>
</trkpt>
<trkpt lat="32.742656708" lon="35.051563263">
  <ele>500.104004</ele>
  <time>2011-08-20T06:55:50Z</time>
  <speed>1.420000</speed>
</trkpt>
<trkpt lat="32.742675781" lon="35.051532745">
  <ele>500.346191</ele>
  <time>2011-08-20T06:55:53Z</time>
  <speed>1.320000</speed>
</trkpt>
<trkpt lat="32.742675781" lon="35.051498413">
  <ele>500.182129</ele>
  <time>2011-08-20T06:55:55Z</time>
  <speed>1.340000</speed>
</trkpt>
<trkpt lat="32.742664337" lon="35.051467896">
  <ele>499.752441</ele>
  <time>2011-08-20T06:55:56Z</time>
  <speed>1.480000</speed>
</trkpt>
<trkpt lat="32.742649078" lon="35.051425934">
  <ele>499.807129</ele>
  <time>2011-08-20T06:55:58Z</time>
  <speed>1.020000</speed>
</trkpt>
<trkpt lat="32.742622375" lon="35.051387787">
  <ele>499.885254</ele>
  <time>2011-08-20T06:56:00Z</time>
  <speed>1.500000</speed>
</trkpt>
<trkpt lat="32.742603302" lon="35.051361084">
  <ele>499.955566</ele>
  <time>2011-08-20T06:56:02Z</time>
  <speed>1.240000</speed>
</trkpt>
<trkpt lat="32.742576599" lon="35.051345825">
  <ele>499.549316</ele>
  <time>2011-08-20T06:56:05Z</time>
  <speed>1.040000</speed>
</trkpt>
<trkpt lat="32.742534637" lon="35.051322937">
  <ele>499.260254</ele>
  <time>2011-08-20T06:56:08Z</time>
  <speed>1.510000</speed>
</trkpt>
<trkpt lat="32.742500305" lon="35.051322937">
  <ele>498.799316</ele>
  <time>2011-08-20T06:56:11Z</time>
  <speed>1.270000</speed>
</trkpt>
<trkpt lat="32.742462158" lon="35.051330566">
  <ele>499.549316</ele>
  <time>2011-08-20T06:56:13Z</time>
  <speed>1.350000</speed>
</trkpt>
<trkpt lat="32.742420197" lon="35.051315308">
  <ele>499.455566</ele>
  <time>2011-08-20T06:56:15Z</time>
  <speed>1.230000</speed>
</trkpt>
<trkpt lat="32.742397308" lon="35.051292419">
  <ele>499.572754</ele>
  <time>2011-08-20T06:56:16Z</time>
  <speed>1.390000</speed>
</trkpt>
<trkpt lat="32.742362976" lon="35.051277161">
  <ele>500.674316</ele>
  <time>2011-08-20T06:56:19Z</time>
  <speed>1.280000</speed>
</trkpt>
<trkpt lat="32.742336273" lon="35.051277161">
  <ele>501.314941</ele>
  <time>2011-08-20T06:56:21Z</time>
  <speed>1.480000</speed>
</trkpt>
<trkpt lat="32.742301941" lon="35.051277161">
  <ele>502.260254</ele>
  <time>2011-08-20T06:56:23Z</time>
  <speed>1.260000</speed>
</trkpt>
<trkpt lat="32.742267609" lon="35.051269531">
  <ele>502.877441</ele>
  <time>2011-08-20T06:56:26Z</time>
  <speed>1.290000</speed>
</trkpt>
<trkpt lat="32.742233276" lon="35.051269531">
  <ele>503.510254</ele>
  <time>2011-08-20T06:56:29Z</time>
  <speed>1.430000</speed>
</trkpt>
<trkpt lat="32.742198944" lon="35.051261902">
  <ele>503.439941</ele>
  <time>2011-08-20T06:56:31Z</time>
  <speed>1.690000</speed>
</trkpt>
<trkpt lat="32.742168427" lon="35.051254272">
  <ele>504.018066</ele>
  <time>2011-08-20T06:56:33Z</time>
  <speed>1.760000</speed>
</trkpt>
<trkpt lat="32.742134094" lon="35.051235199">
  <ele>505.135254</ele>
  <time>2011-08-20T06:56:34Z</time>
  <speed>1.950000</speed>
</trkpt>
<trkpt lat="32.742111206" lon="35.051231384">
  <ele>506.244629</ele>
  <time>2011-08-20T06:56:36Z</time>
  <speed>1.320000</speed>
</trkpt>
<trkpt lat="32.742073059" lon="35.051246643">
  <ele>507.510254</ele>
  <time>2011-08-20T06:56:38Z</time>
  <speed>1.680000</speed>
</trkpt>
<trkpt lat="32.742042542" lon="35.051246643">
  <ele>507.854004</ele>
  <time>2011-08-20T06:56:40Z</time>
  <speed>1.490000</speed>
</trkpt>
<trkpt lat="32.742012024" lon="35.051246643">
  <ele>508.135254</ele>
  <time>2011-08-20T06:56:42Z</time>
  <speed>1.570000</speed>
</trkpt>
<trkpt lat="32.741973877" lon="35.051246643">
  <ele>508.127441</ele>
  <time>2011-08-20T06:56:44Z</time>
  <speed>1.610000</speed>
</trkpt>
<trkpt lat="32.741943359" lon="35.051239014">
  <ele>508.002441</ele>
  <time>2011-08-20T06:56:46Z</time>
  <speed>1.440000</speed>
</trkpt>
<trkpt lat="32.741901398" lon="35.051239014">
  <ele>508.564941</ele>
  <time>2011-08-20T06:56:49Z</time>
  <speed>1.510000</speed>
</trkpt>
<trkpt lat="32.741874695" lon="35.051239014">
  <ele>508.885254</ele>
  <time>2011-08-20T06:56:51Z</time>
  <speed>1.490000</speed>
</trkpt>
<trkpt lat="32.741832733" lon="35.051239014">
  <ele>509.908691</ele>
  <time>2011-08-20T06:56:54Z</time>
  <speed>1.880000</speed>
</trkpt>
<trkpt lat="32.741798401" lon="35.051239014">
  <ele>509.994629</ele>
  <time>2011-08-20T06:56:56Z</time>
  <speed>1.550000</speed>
</trkpt>
<trkpt lat="32.741771698" lon="35.051242828">
  <ele>510.260254</ele>
  <time>2011-08-20T06:56:58Z</time>
  <speed>1.790000</speed>
</trkpt>
<trkpt lat="32.741737366" lon="35.051254272">
  <ele>511.150879</ele>
  <time>2011-08-20T06:57:00Z</time>
  <speed>1.760000</speed>
</trkpt>
<trkpt lat="32.741710663" lon="35.051269531">
  <ele>511.729004</ele>
  <time>2011-08-20T06:57:03Z</time>
  <speed>1.520000</speed>
</trkpt>
<trkpt lat="32.741672516" lon="35.051277161">
  <ele>511.666504</ele>
  <time>2011-08-20T06:57:06Z</time>
  <speed>1.050000</speed>
</trkpt>
<trkpt lat="32.741634369" lon="35.051280975">
  <ele>511.268066</ele>
  <time>2011-08-20T06:57:09Z</time>
  <speed>1.370000</speed>
</trkpt>
<trkpt lat="32.741600037" lon="35.051284790">
  <ele>510.939941</ele>
  <time>2011-08-20T06:57:12Z</time>
  <speed>1.240000</speed>
</trkpt>
<trkpt lat="32.741561890" lon="35.051277161">
  <ele>512.739258</ele>
  <time>2011-08-20T06:57:14Z</time>
  <speed>1.530000</speed>
</trkpt>
<trkpt lat="32.741539001" lon="35.051292419">
  <ele>512.348633</ele>
  <time>2011-08-20T06:57:16Z</time>
  <speed>1.660000</speed>
</trkpt>
<trkpt lat="32.741512299" lon="35.051303864">
  <ele>511.119629</ele>
  <time>2011-08-20T06:57:18Z</time>
  <speed>1.320000</speed>
</trkpt>
<trkpt lat="32.741477966" lon="35.051326752">
  <ele>511.736816</ele>
  <time>2011-08-20T06:57:21Z</time>
  <speed>1.210000</speed>
</trkpt>
<trkpt lat="32.741451263" lon="35.051334381">
  <ele>512.786133</ele>
  <time>2011-08-20T06:57:23Z</time>
  <speed>1.460000</speed>
</trkpt>
<trkpt lat="32.741416931" lon="35.051342010">
  <ele>513.442383</ele>
  <time>2011-08-20T06:57:25Z</time>
  <speed>1.590000</speed>
</trkpt>
<trkpt lat="32.741382599" lon="35.051349640">
  <ele>513.411133</ele>
  <time>2011-08-20T06:57:27Z</time>
  <speed>1.640000</speed>
</trkpt>
<trkpt lat="32.741348267" lon="35.051361084">
  <ele>513.317383</ele>
  <time>2011-08-20T06:57:29Z</time>
  <speed>1.590000</speed>
</trkpt>
<trkpt lat="32.741321564" lon="35.051380157">
  <ele>513.051758</ele>
  <time>2011-08-20T06:57:31Z</time>
  <speed>1.540000</speed>
</trkpt>
<trkpt lat="32.741291046" lon="35.051395416">
  <ele>512.926758</ele>
  <time>2011-08-20T06:57:33Z</time>
  <speed>1.530000</speed>
</trkpt>
<trkpt lat="32.741264343" lon="35.051406860">
  <ele>512.817383</ele>
  <time>2011-08-20T06:57:35Z</time>
  <speed>1.740000</speed>
</trkpt>
<trkpt lat="32.741237640" lon="35.051425934">
  <ele>512.645508</ele>
  <time>2011-08-20T06:57:37Z</time>
  <speed>1.640000</speed>
</trkpt>
<trkpt lat="32.741210938" lon="35.051433563">
  <ele>511.955566</ele>
  <time>2011-08-20T06:57:39Z</time>
  <speed>1.590000</speed>
</trkpt>
<trkpt lat="32.741180420" lon="35.051445007">
  <ele>512.004883</ele>
  <time>2011-08-20T06:57:41Z</time>
  <speed>1.740000</speed>
</trkpt>
<trkpt lat="32.741153717" lon="35.051464081">
  <ele>512.192383</ele>
  <time>2011-08-20T06:57:43Z</time>
  <speed>1.330000</speed>
</trkpt>
<trkpt lat="32.741130829" lon="35.051483154">
  <ele>511.807129</ele>
  <time>2011-08-20T06:57:45Z</time>
  <speed>1.450000</speed>
</trkpt>
<trkpt lat="32.741104126" lon="35.051498413">
  <ele>513.036133</ele>
  <time>2011-08-20T06:57:47Z</time>
  <speed>1.490000</speed>
</trkpt>
<trkpt lat="32.741081238" lon="35.051525116">
  <ele>513.598633</ele>
  <time>2011-08-20T06:57:49Z</time>
  <speed>1.620000</speed>
</trkpt>
<trkpt lat="32.741065979" lon="35.051563263">
  <ele>514.708008</ele>
  <time>2011-08-20T06:57:51Z</time>
  <speed>1.780000</speed>
</trkpt>
<trkpt lat="32.741043091" lon="35.051589966">
  <ele>515.426758</ele>
  <time>2011-08-20T06:57:53Z</time>
  <speed>1.880000</speed>
</trkpt>
<trkpt lat="32.741024017" lon="35.051635742">
  <ele>514.458008</ele>
  <time>2011-08-20T06:57:55Z</time>
  <speed>1.920000</speed>
</trkpt>
<trkpt lat="32.741012573" lon="35.051677704">
  <ele>515.176758</ele>
  <time>2011-08-20T06:57:57Z</time>
  <speed>1.760000</speed>
</trkpt>
<trkpt lat="32.740993500" lon="35.051712036">
  <ele>514.895508</ele>
  <time>2011-08-20T06:58:00Z</time>
  <speed>1.510000</speed>
</trkpt>
<trkpt lat="32.740982056" lon="35.051746368">
  <ele>514.379883</ele>
  <time>2011-08-20T06:58:02Z</time>
  <speed>1.560000</speed>
</trkpt>
<trkpt lat="32.740962982" lon="35.051776886">
  <ele>514.504883</ele>
  <time>2011-08-20T06:58:04Z</time>
  <speed>1.850000</speed>
</trkpt>
<trkpt lat="32.740951538" lon="35.051803589">
  <ele>514.786133</ele>
  <time>2011-08-20T06:58:06Z</time>
  <speed>1.680000</speed>
</trkpt>
<trkpt lat="32.740936279" lon="35.051834106">
  <ele>514.817383</ele>
  <time>2011-08-20T06:58:08Z</time>
  <speed>1.480000</speed>
</trkpt>
<trkpt lat="32.740917206" lon="35.051856995">
  <ele>514.801758</ele>
  <time>2011-08-20T06:58:10Z</time>
  <speed>1.540000</speed>
</trkpt>
<trkpt lat="32.740898132" lon="35.051887512">
  <ele>514.536133</ele>
  <time>2011-08-20T06:58:13Z</time>
  <speed>1.580000</speed>
</trkpt>
<trkpt lat="32.740863800" lon="35.051902771">
  <ele>514.083008</ele>
  <time>2011-08-20T06:58:15Z</time>
  <speed>2.050000</speed>
</trkpt>
<trkpt lat="32.740837097" lon="35.051921844">
  <ele>513.926758</ele>
  <time>2011-08-20T06:58:17Z</time>
  <speed>1.590000</speed>
</trkpt>
<trkpt lat="32.740818024" lon="35.051948547">
  <ele>514.223633</ele>
  <time>2011-08-20T06:58:19Z</time>
  <speed>1.720000</speed>
</trkpt>
<trkpt lat="32.740783691" lon="35.051979065">
  <ele>514.004883</ele>
  <time>2011-08-20T06:58:22Z</time>
  <speed>1.710000</speed>
</trkpt>
<trkpt lat="32.740760803" lon="35.051994324">
  <ele>514.442383</ele>
  <time>2011-08-20T06:58:24Z</time>
  <speed>1.770000</speed>
</trkpt>
<trkpt lat="32.740741730" lon="35.052028656">
  <ele>514.036133</ele>
  <time>2011-08-20T06:58:26Z</time>
  <speed>1.530000</speed>
</trkpt>
<trkpt lat="32.740718842" lon="35.052066803">
  <ele>513.317383</ele>
  <time>2011-08-20T06:58:28Z</time>
  <speed>2.400000</speed>
</trkpt>
<trkpt lat="32.740707397" lon="35.052112579">
  <ele>512.176758</ele>
  <time>2011-08-20T06:58:30Z</time>
  <speed>2.220000</speed>
</trkpt>
<trkpt lat="32.740688324" lon="35.052158356">
  <ele>511.588379</ele>
  <time>2011-08-20T06:58:32Z</time>
  <speed>3.070000</speed>
</trkpt>
<trkpt lat="32.740684509" lon="35.052192688">
  <ele>512.286133</ele>
  <time>2011-08-20T06:58:33Z</time>
  <speed>2.980000</speed>
</trkpt>
<trkpt lat="32.740680695" lon="35.052227020">
  <ele>511.893066</ele>
  <time>2011-08-20T06:58:34Z</time>
  <speed>2.980000</speed>
</trkpt>
<trkpt lat="32.740646362" lon="35.052272797">
  <ele>512.114258</ele>
  <time>2011-08-20T06:58:36Z</time>
  <speed>3.280000</speed>
</trkpt>
<trkpt lat="32.740615845" lon="35.052299500">
  <ele>513.239258</ele>
  <time>2011-08-20T06:58:37Z</time>
  <speed>4.220000</speed>
</trkpt>
<trkpt lat="32.740570068" lon="35.052307129">
  <ele>512.364258</ele>
  <time>2011-08-20T06:58:38Z</time>
  <speed>5.110000</speed>
</trkpt>
<trkpt lat="32.740528107" lon="35.052307129">
  <ele>512.129883</ele>
  <time>2011-08-20T06:58:39Z</time>
  <speed>3.760000</speed>
</trkpt>
<trkpt lat="32.740493774" lon="35.052314758">
  <ele>511.549316</ele>
  <time>2011-08-20T06:58:40Z</time>
  <speed>4.100000</speed>
</trkpt>
<trkpt lat="32.740463257" lon="35.052326202">
  <ele>511.291504</ele>
  <time>2011-08-20T06:58:41Z</time>
  <speed>3.020000</speed>
</trkpt>
<trkpt lat="32.740432739" lon="35.052352905">
  <ele>510.838379</ele>
  <time>2011-08-20T06:58:43Z</time>
  <speed>2.340000</speed>
</trkpt>
<trkpt lat="32.740383148" lon="35.052371979">
  <ele>510.830566</ele>
  <time>2011-08-20T06:58:45Z</time>
  <speed>3.530000</speed>
</trkpt>
<trkpt lat="32.740329742" lon="35.052356720">
  <ele>509.635254</ele>
  <time>2011-08-20T06:58:46Z</time>
  <speed>4.190000</speed>
</trkpt>
<trkpt lat="32.740291595" lon="35.052349091">
  <ele>509.807129</ele>
  <time>2011-08-20T06:58:47Z</time>
  <speed>5.050000</speed>
</trkpt>
<trkpt lat="32.740226746" lon="35.052341461">
  <ele>509.385254</ele>
  <time>2011-08-20T06:58:48Z</time>
  <speed>5.500000</speed>
</trkpt>
<trkpt lat="32.740184784" lon="35.052322388">
  <ele>509.885254</ele>
  <time>2011-08-20T06:58:49Z</time>
  <speed>5.340000</speed>
</trkpt>
<trkpt lat="32.740135193" lon="35.052299500">
  <ele>509.127441</ele>
  <time>2011-08-20T06:58:50Z</time>
  <speed>5.020000</speed>
</trkpt>
<trkpt lat="32.740104675" lon="35.052272797">
  <ele>508.260254</ele>
  <time>2011-08-20T06:58:51Z</time>
  <speed>4.780000</speed>
</trkpt>
<trkpt lat="32.740070343" lon="35.052242279">
  <ele>508.252441</ele>
  <time>2011-08-20T06:58:52Z</time>
  <speed>4.550000</speed>
</trkpt>
<trkpt lat="32.740032196" lon="35.052211761">
  <ele>507.736816</ele>
  <time>2011-08-20T06:58:53Z</time>
  <speed>4.850000</speed>
</trkpt>
<trkpt lat="32.739994049" lon="35.052177429">
  <ele>507.549316</ele>
  <time>2011-08-20T06:58:54Z</time>
  <speed>4.720000</speed>
</trkpt>
<trkpt lat="32.739963531" lon="35.052139282">
  <ele>507.486816</ele>
  <time>2011-08-20T06:58:55Z</time>
  <speed>4.250000</speed>
</trkpt>
<trkpt lat="32.739940643" lon="35.052112579">
  <ele>507.307129</ele>
  <time>2011-08-20T06:58:56Z</time>
  <speed>3.880000</speed>
</trkpt>
<trkpt lat="32.739913940" lon="35.052078247">
  <ele>507.229004</ele>
  <time>2011-08-20T06:58:57Z</time>
  <speed>3.810000</speed>
</trkpt>
<trkpt lat="32.739875793" lon="35.052059174">
  <ele>507.330566</ele>
  <time>2011-08-20T06:58:58Z</time>
  <speed>4.030000</speed>
</trkpt>
<trkpt lat="32.739841461" lon="35.052032471">
  <ele>507.197754</ele>
  <time>2011-08-20T06:58:59Z</time>
  <speed>3.900000</speed>
</trkpt>
<trkpt lat="32.739810944" lon="35.052009583">
  <ele>507.869629</ele>
  <time>2011-08-20T06:59:00Z</time>
  <speed>3.610000</speed>
</trkpt>
<trkpt lat="32.739780426" lon="35.052005768">
  <ele>508.119629</ele>
  <time>2011-08-20T06:59:01Z</time>
  <speed>3.560000</speed>
</trkpt>
<trkpt lat="32.739749908" lon="35.052001953">
  <ele>507.814941</ele>
  <time>2011-08-20T06:59:02Z</time>
  <speed>3.320000</speed>
</trkpt>
<trkpt lat="32.739719391" lon="35.052001953">
  <ele>507.518066</ele>
  <time>2011-08-20T06:59:03Z</time>
  <speed>3.540000</speed>
</trkpt>
<trkpt lat="32.739685059" lon="35.052009583">
  <ele>507.338379</ele>
  <time>2011-08-20T06:59:04Z</time>
  <speed>3.880000</speed>
</trkpt>
<trkpt lat="32.739654541" lon="35.052009583">
  <ele>507.197754</ele>
  <time>2011-08-20T06:59:05Z</time>
  <speed>3.460000</speed>
</trkpt>
<trkpt lat="32.739635468" lon="35.051986694">
  <ele>507.877441</ele>
  <time>2011-08-20T06:59:06Z</time>
  <speed>3.050000</speed>
</trkpt>
<trkpt lat="32.739604950" lon="35.051959991">
  <ele>507.119629</ele>
  <time>2011-08-20T06:59:08Z</time>
  <speed>2.160000</speed>
</trkpt>
<trkpt lat="32.739578247" lon="35.051933289">
  <ele>507.346191</ele>
  <time>2011-08-20T06:59:10Z</time>
  <speed>2.200000</speed>
</trkpt>
<trkpt lat="32.739547729" lon="35.051898956">
  <ele>507.189941</ele>
  <time>2011-08-20T06:59:12Z</time>
  <speed>2.090000</speed>
</trkpt>
<trkpt lat="32.739528656" lon="35.051853180">
  <ele>506.627441</ele>
  <time>2011-08-20T06:59:14Z</time>
  <speed>2.010000</speed>
</trkpt>
<trkpt lat="32.739513397" lon="35.051822662">
  <ele>506.744629</ele>
  <time>2011-08-20T06:59:16Z</time>
  <speed>1.480000</speed>
</trkpt>
<trkpt lat="32.739524841" lon="35.051780701">
  <ele>506.682129</ele>
  <time>2011-08-20T06:59:18Z</time>
  <speed>1.840000</speed>
</trkpt>
<trkpt lat="32.739498138" lon="35.051727295">
  <ele>507.213379</ele>
  <time>2011-08-20T06:59:20Z</time>
  <speed>2.470000</speed>
</trkpt>
<trkpt lat="32.739475250" lon="35.051700592">
  <ele>507.268066</ele>
  <time>2011-08-20T06:59:21Z</time>
  <speed>2.710000</speed>
</trkpt>
<trkpt lat="32.739429474" lon="35.051670074">
  <ele>506.674316</ele>
  <time>2011-08-20T06:59:23Z</time>
  <speed>2.250000</speed>
</trkpt>
<trkpt lat="32.739387512" lon="35.051654816">
  <ele>505.900879</ele>
  <time>2011-08-20T06:59:25Z</time>
  <speed>2.330000</speed>
</trkpt>
<trkpt lat="32.739349365" lon="35.051639557">
  <ele>505.822754</ele>
  <time>2011-08-20T06:59:27Z</time>
  <speed>2.510000</speed>
</trkpt>
<trkpt lat="32.739307404" lon="35.051628113">
  <ele>505.768066</ele>
  <time>2011-08-20T06:59:29Z</time>
  <speed>2.550000</speed>
</trkpt>
<trkpt lat="32.739265442" lon="35.051616669">
  <ele>506.018066</ele>
  <time>2011-08-20T06:59:31Z</time>
  <speed>2.210000</speed>
</trkpt>
<trkpt lat="32.739231110" lon="35.051609039">
  <ele>506.666504</ele>
  <time>2011-08-20T06:59:33Z</time>
  <speed>2.380000</speed>
</trkpt>
<trkpt lat="32.739181519" lon="35.051586151">
  <ele>506.885254</ele>
  <time>2011-08-20T06:59:35Z</time>
  <speed>2.460000</speed>
</trkpt>
<trkpt lat="32.739139557" lon="35.051574707">
  <ele>507.963379</ele>
  <time>2011-08-20T06:59:37Z</time>
  <speed>2.690000</speed>
</trkpt>
<trkpt lat="32.739097595" lon="35.051555634">
  <ele>507.744629</ele>
  <time>2011-08-20T06:59:39Z</time>
  <speed>2.480000</speed>
</trkpt>
<trkpt lat="32.739067078" lon="35.051544189">
  <ele>508.268066</ele>
  <time>2011-08-20T06:59:40Z</time>
  <speed>2.460000</speed>
</trkpt>
<trkpt lat="32.739044189" lon="35.051528931">
  <ele>508.197754</ele>
  <time>2011-08-20T06:59:41Z</time>
  <speed>2.470000</speed>
</trkpt>
<trkpt lat="32.739002228" lon="35.051502228">
  <ele>508.346191</ele>
  <time>2011-08-20T06:59:43Z</time>
  <speed>2.540000</speed>
</trkpt>
<trkpt lat="32.738971710" lon="35.051490784">
  <ele>508.150879</ele>
  <time>2011-08-20T06:59:44Z</time>
  <speed>2.640000</speed>
</trkpt>
<trkpt lat="32.738941193" lon="35.051475525">
  <ele>509.010254</ele>
  <time>2011-08-20T06:59:45Z</time>
  <speed>2.510000</speed>
</trkpt>
<trkpt lat="32.738895416" lon="35.051448822">
  <ele>510.463379</ele>
  <time>2011-08-20T06:59:47Z</time>
  <speed>2.600000</speed>
</trkpt>
<trkpt lat="32.738845825" lon="35.051418304">
  <ele>510.838379</ele>
  <time>2011-08-20T06:59:49Z</time>
  <speed>2.740000</speed>
</trkpt>
<trkpt lat="32.738803864" lon="35.051399231">
  <ele>512.629883</ele>
  <time>2011-08-20T06:59:51Z</time>
  <speed>2.490000</speed>
</trkpt>
<trkpt lat="32.738758087" lon="35.051376343">
  <ele>513.583008</ele>
  <time>2011-08-20T06:59:53Z</time>
  <speed>2.520000</speed>
</trkpt>
<trkpt lat="32.738719940" lon="35.051353455">
  <ele>513.208008</ele>
  <time>2011-08-20T06:59:55Z</time>
  <speed>2.500000</speed>
</trkpt>
<trkpt lat="32.738677979" lon="35.051334381">
  <ele>512.629883</ele>
  <time>2011-08-20T06:59:57Z</time>
  <speed>2.930000</speed>
</trkpt>
<trkpt lat="32.738632202" lon="35.051319122">
  <ele>512.036133</ele>
  <time>2011-08-20T06:59:59Z</time>
  <speed>2.930000</speed>
</trkpt>
<trkpt lat="32.738605499" lon="35.051303864">
  <ele>511.354004</ele>
  <time>2011-08-20T07:00:00Z</time>
  <speed>2.440000</speed>
</trkpt>
<trkpt lat="32.738555908" lon="35.051277161">
  <ele>511.455566</ele>
  <time>2011-08-20T07:00:02Z</time>
  <speed>2.870000</speed>
</trkpt>
<trkpt lat="32.738513947" lon="35.051258087">
  <ele>510.236816</ele>
  <time>2011-08-20T07:00:04Z</time>
  <speed>2.700000</speed>
</trkpt>
<trkpt lat="32.738468170" lon="35.051239014">
  <ele>509.400879</ele>
  <time>2011-08-20T07:00:06Z</time>
  <speed>2.730000</speed>
</trkpt>
<trkpt lat="32.738422394" lon="35.051219940">
  <ele>508.963379</ele>
  <time>2011-08-20T07:00:08Z</time>
  <speed>2.900000</speed>
</trkpt>
<trkpt lat="32.738395691" lon="35.051212311">
  <ele>508.166504</ele>
  <time>2011-08-20T07:00:09Z</time>
  <speed>2.950000</speed>
</trkpt>
<trkpt lat="32.738365173" lon="35.051204681">
  <ele>508.143066</ele>
  <time>2011-08-20T07:00:10Z</time>
  <speed>2.630000</speed>
</trkpt>
<trkpt lat="32.738334656" lon="35.051197052">
  <ele>508.244629</ele>
  <time>2011-08-20T07:00:11Z</time>
  <speed>2.890000</speed>
</trkpt>
<trkpt lat="32.738307953" lon="35.051181793">
  <ele>508.182129</ele>
  <time>2011-08-20T07:00:12Z</time>
  <speed>2.870000</speed>
</trkpt>
<trkpt lat="32.738250732" lon="35.051158905">
  <ele>507.127441</ele>
  <time>2011-08-20T07:00:14Z</time>
  <speed>2.930000</speed>
</trkpt>
<trkpt lat="32.738189697" lon="35.051151276">
  <ele>505.666504</ele>
  <time>2011-08-20T07:00:16Z</time>
  <speed>3.020000</speed>
</trkpt>
<trkpt lat="32.738140106" lon="35.051174164">
  <ele>505.846191</ele>
  <time>2011-08-20T07:00:18Z</time>
  <speed>2.320000</speed>
</trkpt>
<trkpt lat="32.738109589" lon="35.051185608">
  <ele>505.807129</ele>
  <time>2011-08-20T07:00:19Z</time>
  <speed>2.300000</speed>
</trkpt>
<trkpt lat="32.738082886" lon="35.051193237">
  <ele>505.986816</ele>
  <time>2011-08-20T07:00:20Z</time>
  <speed>2.060000</speed>
</trkpt>
<trkpt lat="32.738044739" lon="35.051223755">
  <ele>506.236816</ele>
  <time>2011-08-20T07:00:22Z</time>
  <speed>1.070000</speed>
</trkpt>
<trkpt lat="32.738029480" lon="35.051246643">
  <ele>507.768066</ele>
  <time>2011-08-20T07:00:26Z</time>
  <speed>0.060000</speed>
</trkpt>
<trkpt lat="32.738006592" lon="35.051277161">
  <ele>507.455566</ele>
  <time>2011-08-20T07:00:33Z</time>
  <speed>2.970000</speed>
</trkpt>
<trkpt lat="32.737979889" lon="35.051300049">
  <ele>507.846191</ele>
  <time>2011-08-20T07:00:34Z</time>
  <speed>2.770000</speed>
</trkpt>
<trkpt lat="32.737968445" lon="35.051334381">
  <ele>508.189941</ele>
  <time>2011-08-20T07:00:35Z</time>
  <speed>2.570000</speed>
</trkpt>
<trkpt lat="32.737957001" lon="35.051380157">
  <ele>509.908691</ele>
  <time>2011-08-20T07:00:36Z</time>
  <speed>2.980000</speed>
</trkpt>
<trkpt lat="32.737945557" lon="35.051422119">
  <ele>510.791504</ele>
  <time>2011-08-20T07:00:37Z</time>
  <speed>2.390000</speed>
</trkpt>
<trkpt lat="32.737930298" lon="35.051475525">
  <ele>511.229004</ele>
  <time>2011-08-20T07:00:39Z</time>
  <speed>2.110000</speed>
</trkpt>
<trkpt lat="32.737922668" lon="35.051506042">
  <ele>512.301758</ele>
  <time>2011-08-20T07:00:40Z</time>
  <speed>1.960000</speed>
</trkpt>
<trkpt lat="32.737907410" lon="35.051548004">
  <ele>512.301758</ele>
  <time>2011-08-20T07:00:42Z</time>
  <speed>1.290000</speed>
</trkpt>
<trkpt lat="32.737884521" lon="35.051582336">
  <ele>512.379883</ele>
  <time>2011-08-20T07:00:44Z</time>
  <speed>2.440000</speed>
</trkpt>
<trkpt lat="32.737846375" lon="35.051624298">
  <ele>512.723633</ele>
  <time>2011-08-20T07:00:46Z</time>
  <speed>2.670000</speed>
</trkpt>
<trkpt lat="32.737812042" lon="35.051666260">
  <ele>512.254883</ele>
  <time>2011-08-20T07:00:48Z</time>
  <speed>2.490000</speed>
</trkpt>
<trkpt lat="32.737785339" lon="35.051700592">
  <ele>512.442383</ele>
  <time>2011-08-20T07:00:50Z</time>
  <speed>2.530000</speed>
</trkpt>
<trkpt lat="32.737762451" lon="35.051734924">
  <ele>511.197754</ele>
  <time>2011-08-20T07:00:52Z</time>
  <speed>2.630000</speed>
</trkpt>
<trkpt lat="32.737731934" lon="35.051780701">
  <ele>512.333008</ele>
  <time>2011-08-20T07:00:54Z</time>
  <speed>2.060000</speed>
</trkpt>
<trkpt lat="32.737716675" lon="35.051803589">
  <ele>513.145508</ele>
  <time>2011-08-20T07:00:55Z</time>
  <speed>2.090000</speed>
</trkpt>
<trkpt lat="32.737693787" lon="35.051830292">
  <ele>513.223633</ele>
  <time>2011-08-20T07:00:57Z</time>
  <speed>1.620000</speed>
</trkpt>
<trkpt lat="32.737678528" lon="35.051868439">
  <ele>512.645508</ele>
  <time>2011-08-20T07:01:00Z</time>
  <speed>2.070000</speed>
</trkpt>
<trkpt lat="32.737655640" lon="35.051918030">
  <ele>512.801758</ele>
  <time>2011-08-20T07:01:02Z</time>
  <speed>2.180000</speed>
</trkpt>
<trkpt lat="32.737636566" lon="35.051959991">
  <ele>513.083008</ele>
  <time>2011-08-20T07:01:04Z</time>
  <speed>2.030000</speed>
</trkpt>
<trkpt lat="32.737621307" lon="35.052005768">
  <ele>513.473633</ele>
  <time>2011-08-20T07:01:06Z</time>
  <speed>2.020000</speed>
</trkpt>
<trkpt lat="32.737613678" lon="35.052051544">
  <ele>514.551758</ele>
  <time>2011-08-20T07:01:08Z</time>
  <speed>2.260000</speed>
</trkpt>
<trkpt lat="32.737606049" lon="35.052097321">
  <ele>514.958008</ele>
  <time>2011-08-20T07:01:10Z</time>
  <speed>1.840000</speed>
</trkpt>
<trkpt lat="32.737586975" lon="35.052131653">
  <ele>515.004883</ele>
  <time>2011-08-20T07:01:12Z</time>
  <speed>1.870000</speed>
</trkpt>
<trkpt lat="32.737583160" lon="35.052188873">
  <ele>515.083008</ele>
  <time>2011-08-20T07:01:14Z</time>
  <speed>2.040000</speed>
</trkpt>
<trkpt lat="32.737571716" lon="35.052234650">
  <ele>515.020508</ele>
  <time>2011-08-20T07:01:16Z</time>
  <speed>2.010000</speed>
</trkpt>
<trkpt lat="32.737560272" lon="35.052280426">
  <ele>515.879883</ele>
  <time>2011-08-20T07:01:18Z</time>
  <speed>2.070000</speed>
</trkpt>
<trkpt lat="32.737529755" lon="35.052314758">
  <ele>515.692383</ele>
  <time>2011-08-20T07:01:20Z</time>
  <speed>2.300000</speed>
</trkpt>
<trkpt lat="32.737518311" lon="35.052345276">
  <ele>516.458008</ele>
  <time>2011-08-20T07:01:21Z</time>
  <speed>2.300000</speed>
</trkpt>
<trkpt lat="32.737499237" lon="35.052383423">
  <ele>517.489258</ele>
  <time>2011-08-20T07:01:23Z</time>
  <speed>2.140000</speed>
</trkpt>
<trkpt lat="32.737476349" lon="35.052410126">
  <ele>518.254883</ele>
  <time>2011-08-20T07:01:25Z</time>
  <speed>1.740000</speed>
</trkpt>
<trkpt lat="32.737464905" lon="35.052440643">
  <ele>517.942383</ele>
  <time>2011-08-20T07:01:27Z</time>
  <speed>1.600000</speed>
</trkpt>
<trkpt lat="32.737445831" lon="35.052482605">
  <ele>519.239258</ele>
  <time>2011-08-20T07:01:29Z</time>
  <speed>2.140000</speed>
</trkpt>
<trkpt lat="32.737430573" lon="35.052524567">
  <ele>518.286133</ele>
  <time>2011-08-20T07:01:31Z</time>
  <speed>2.380000</speed>
</trkpt>
<trkpt lat="32.737403870" lon="35.052562714">
  <ele>516.489258</ele>
  <time>2011-08-20T07:01:33Z</time>
  <speed>2.680000</speed>
</trkpt>
<trkpt lat="32.737373352" lon="35.052600861">
  <ele>514.551758</ele>
  <time>2011-08-20T07:01:35Z</time>
  <speed>2.490000</speed>
</trkpt>
<trkpt lat="32.737369537" lon="35.052661896">
  <ele>514.973633</ele>
  <time>2011-08-20T07:01:37Z</time>
  <speed>2.440000</speed>
</trkpt>
<trkpt lat="32.737380981" lon="35.052703857">
  <ele>513.504883</ele>
  <time>2011-08-20T07:01:39Z</time>
  <speed>2.120000</speed>
</trkpt>
<trkpt lat="32.737415314" lon="35.052719116">
  <ele>513.239258</ele>
  <time>2011-08-20T07:01:40Z</time>
  <speed>2.530000</speed>
</trkpt>
<trkpt lat="32.737445831" lon="35.052722931">
  <ele>512.301758</ele>
  <time>2011-08-20T07:01:41Z</time>
  <speed>3.250000</speed>
</trkpt>
<trkpt lat="32.737480164" lon="35.052719116">
  <ele>511.025879</ele>
  <time>2011-08-20T07:01:42Z</time>
  <speed>3.460000</speed>
</trkpt>
<trkpt lat="32.737514496" lon="35.052707672">
  <ele>510.025879</ele>
  <time>2011-08-20T07:01:43Z</time>
  <speed>2.930000</speed>
</trkpt>
<trkpt lat="32.737556458" lon="35.052692413">
  <ele>508.400879</ele>
  <time>2011-08-20T07:01:45Z</time>
  <speed>2.360000</speed>
</trkpt>
<trkpt lat="32.737586975" lon="35.052692413">
  <ele>507.799316</ele>
  <time>2011-08-20T07:01:46Z</time>
  <speed>2.610000</speed>
</trkpt>
<trkpt lat="32.737644196" lon="35.052692413">
  <ele>505.705566</ele>
  <time>2011-08-20T07:01:48Z</time>
  <speed>3.630000</speed>
</trkpt>
<trkpt lat="32.737682343" lon="35.052669525">
  <ele>504.197754</ele>
  <time>2011-08-20T07:01:49Z</time>
  <speed>3.400000</speed>
</trkpt>
<trkpt lat="32.737712860" lon="35.052639008">
  <ele>503.525879</ele>
  <time>2011-08-20T07:01:50Z</time>
  <speed>2.900000</speed>
</trkpt>
<trkpt lat="32.737728119" lon="35.052593231">
  <ele>502.674316</ele>
  <time>2011-08-20T07:01:51Z</time>
  <speed>2.730000</speed>
</trkpt>
<trkpt lat="32.737743378" lon="35.052566528">
  <ele>501.650879</ele>
  <time>2011-08-20T07:01:52Z</time>
  <speed>2.870000</speed>
</trkpt>
<trkpt lat="32.737777710" lon="35.052501678">
  <ele>500.260254</ele>
  <time>2011-08-20T07:01:54Z</time>
  <speed>3.800000</speed>
</trkpt>
<trkpt lat="32.737800598" lon="35.052455902">
  <ele>499.439941</ele>
  <time>2011-08-20T07:01:55Z</time>
  <speed>4.060000</speed>
</trkpt>
<trkpt lat="32.737823486" lon="35.052375793">
  <ele>499.744629</ele>
  <time>2011-08-20T07:01:56Z</time>
  <speed>4.240000</speed>
</trkpt>
<trkpt lat="32.737842560" lon="35.052318573">
  <ele>499.369629</ele>
  <time>2011-08-20T07:01:57Z</time>
  <speed>4.500000</speed>
</trkpt>
<trkpt lat="32.737873077" lon="35.052280426">
  <ele>498.682129</ele>
  <time>2011-08-20T07:01:58Z</time>
  <speed>4.170000</speed>
</trkpt>
<trkpt lat="32.737907410" lon="35.052246094">
  <ele>498.010254</ele>
  <time>2011-08-20T07:01:59Z</time>
  <speed>4.320000</speed>
</trkpt>
<trkpt lat="32.737937927" lon="35.052215576">
  <ele>497.150879</ele>
  <time>2011-08-20T07:02:00Z</time>
  <speed>3.980000</speed>
</trkpt>
<trkpt lat="32.738006592" lon="35.052154541">
  <ele>496.408691</ele>
  <time>2011-08-20T07:02:01Z</time>
  <speed>3.920000</speed>
</trkpt>
<trkpt lat="32.738014221" lon="35.052085876">
  <ele>497.166504</ele>
  <time>2011-08-20T07:02:02Z</time>
  <speed>3.340000</speed>
</trkpt>
<trkpt lat="32.738037109" lon="35.052051544">
  <ele>496.775879</ele>
  <time>2011-08-20T07:02:03Z</time>
  <speed>3.840000</speed>
</trkpt>
<trkpt lat="32.738075256" lon="35.052024841">
  <ele>496.557129</ele>
  <time>2011-08-20T07:02:04Z</time>
  <speed>4.350000</speed>
</trkpt>
<trkpt lat="32.738094330" lon="35.051982880">
  <ele>495.994629</ele>
  <time>2011-08-20T07:02:05Z</time>
  <speed>4.650000</speed>
</trkpt>
<trkpt lat="32.738121033" lon="35.051940918">
  <ele>495.338379</ele>
  <time>2011-08-20T07:02:06Z</time>
  <speed>4.990000</speed>
</trkpt>
<trkpt lat="32.738151550" lon="35.051895142">
  <ele>495.322754</ele>
  <time>2011-08-20T07:02:07Z</time>
  <speed>4.660000</speed>
</trkpt>
<trkpt lat="32.738170624" lon="35.051856995">
  <ele>495.588379</ele>
  <time>2011-08-20T07:02:08Z</time>
  <speed>3.980000</speed>
</trkpt>
<trkpt lat="32.738185883" lon="35.051811218">
  <ele>497.189941</ele>
  <time>2011-08-20T07:02:09Z</time>
  <speed>3.430000</speed>
</trkpt>
<trkpt lat="32.738204956" lon="35.051773071">
  <ele>498.393066</ele>
  <time>2011-08-20T07:02:10Z</time>
  <speed>2.600000</speed>
</trkpt>
<trkpt lat="32.738254547" lon="35.051761627">
  <ele>499.229004</ele>
  <time>2011-08-20T07:02:12Z</time>
  <speed>2.460000</speed>
</trkpt>
<trkpt lat="32.738262177" lon="35.051788330">
  <ele>496.807129</ele>
  <time>2011-08-20T07:02:13Z</time>
  <speed>2.310000</speed>
</trkpt>
<trkpt lat="32.738277435" lon="35.051815033">
  <ele>495.627441</ele>
  <time>2011-08-20T07:02:14Z</time>
  <speed>1.930000</speed>
</trkpt>
<trkpt lat="32.738277435" lon="35.051868439">
  <ele>495.205566</ele>
  <time>2011-08-20T07:02:16Z</time>
  <speed>2.000000</speed>
</trkpt>
<trkpt lat="32.738292694" lon="35.051925659">
  <ele>494.822754</ele>
  <time>2011-08-20T07:02:18Z</time>
  <speed>2.410000</speed>
</trkpt>
<trkpt lat="32.738292694" lon="35.051990509">
  <ele>493.221191</ele>
  <time>2011-08-20T07:02:20Z</time>
  <speed>3.060000</speed>
</trkpt>
<trkpt lat="32.738285065" lon="35.052028656">
  <ele>493.135254</ele>
  <time>2011-08-20T07:02:21Z</time>
  <speed>3.880000</speed>
</trkpt>
<trkpt lat="32.738265991" lon="35.052078247">
  <ele>492.814941</ele>
  <time>2011-08-20T07:02:22Z</time>
  <speed>5.060000</speed>
</trkpt>
<trkpt lat="32.738254547" lon="35.052131653">
  <ele>492.611816</ele>
  <time>2011-08-20T07:02:23Z</time>
  <speed>5.180000</speed>
</trkpt>
<trkpt lat="32.738239288" lon="35.052192688">
  <ele>491.479004</ele>
  <time>2011-08-20T07:02:24Z</time>
  <speed>5.680000</speed>
</trkpt>
<trkpt lat="32.738216400" lon="35.052249908">
  <ele>490.736816</ele>
  <time>2011-08-20T07:02:25Z</time>
  <speed>5.070000</speed>
</trkpt>
<trkpt lat="32.738197327" lon="35.052299500">
  <ele>490.213379</ele>
  <time>2011-08-20T07:02:26Z</time>
  <speed>4.850000</speed>
</trkpt>
<trkpt lat="32.738182068" lon="35.052345276">
  <ele>489.494629</ele>
  <time>2011-08-20T07:02:27Z</time>
  <speed>4.230000</speed>
</trkpt>
<trkpt lat="32.738170624" lon="35.052391052">
  <ele>488.783691</ele>
  <time>2011-08-20T07:02:28Z</time>
  <speed>4.120000</speed>
</trkpt>
<trkpt lat="32.738151550" lon="35.052433014">
  <ele>488.111816</ele>
  <time>2011-08-20T07:02:29Z</time>
  <speed>4.000000</speed>
</trkpt>
<trkpt lat="32.738136292" lon="35.052467346">
  <ele>487.705566</ele>
  <time>2011-08-20T07:02:30Z</time>
  <speed>2.520000</speed>
</trkpt>
<trkpt lat="32.738132477" lon="35.052433014">
  <ele>487.447754</ele>
  <time>2011-08-20T07:02:49Z</time>
  <speed>0.940000</speed>
</trkpt>
<trkpt lat="32.738159180" lon="35.052410126">
  <ele>487.400879</ele>
  <time>2011-08-20T07:02:51Z</time>
  <speed>1.100000</speed>
</trkpt>
<trkpt lat="32.738166809" lon="35.052379608">
  <ele>487.588379</ele>
  <time>2011-08-20T07:02:53Z</time>
  <speed>0.860000</speed>
</trkpt>
<trkpt lat="32.738189697" lon="35.052341461">
  <ele>487.385254</ele>
  <time>2011-08-20T07:02:55Z</time>
  <speed>1.200000</speed>
</trkpt>
<trkpt lat="32.738227844" lon="35.052345276">
  <ele>486.564941</ele>
  <time>2011-08-20T07:02:57Z</time>
  <speed>1.400000</speed>
</trkpt>
<trkpt lat="32.738250732" lon="35.052398682">
  <ele>485.143066</ele>
  <time>2011-08-20T07:03:00Z</time>
  <speed>2.990000</speed>
</trkpt>
<trkpt lat="32.738254547" lon="35.052444458">
  <ele>484.104004</ele>
  <time>2011-08-20T07:03:02Z</time>
  <speed>2.990000</speed>
</trkpt>
<trkpt lat="32.738254547" lon="35.052482605">
  <ele>483.736816</ele>
  <time>2011-08-20T07:03:03Z</time>
  <speed>3.350000</speed>
</trkpt>
<trkpt lat="32.738250732" lon="35.052532196">
  <ele>483.213379</ele>
  <time>2011-08-20T07:03:04Z</time>
  <speed>4.530000</speed>
</trkpt>
<trkpt lat="32.738243103" lon="35.052589417">
  <ele>482.541504</ele>
  <time>2011-08-20T07:03:05Z</time>
  <speed>4.910000</speed>
</trkpt>
<trkpt lat="32.738239288" lon="35.052661896">
  <ele>481.877441</ele>
  <time>2011-08-20T07:03:06Z</time>
  <speed>5.120000</speed>
</trkpt>
<trkpt lat="32.738235474" lon="35.052711487">
  <ele>481.424316</ele>
  <time>2011-08-20T07:03:07Z</time>
  <speed>4.870000</speed>
</trkpt>
<trkpt lat="32.738239288" lon="35.052761078">
  <ele>481.377441</ele>
  <time>2011-08-20T07:03:08Z</time>
  <speed>3.250000</speed>
</trkpt>
<trkpt lat="32.738250732" lon="35.052795410">
  <ele>480.947754</ele>
  <time>2011-08-20T07:03:09Z</time>
  <speed>2.990000</speed>
</trkpt>
<trkpt lat="32.738262177" lon="35.052852631">
  <ele>479.963379</ele>
  <time>2011-08-20T07:03:11Z</time>
  <speed>2.530000</speed>
</trkpt>
<trkpt lat="32.738258362" lon="35.052894592">
  <ele>479.502441</ele>
  <time>2011-08-20T07:03:12Z</time>
  <speed>3.530000</speed>
</trkpt>
<trkpt lat="32.738243103" lon="35.052921295">
  <ele>478.760254</ele>
  <time>2011-08-20T07:03:13Z</time>
  <speed>3.380000</speed>
</trkpt>
<trkpt lat="32.738224030" lon="35.052947998">
  <ele>478.322754</ele>
  <time>2011-08-20T07:03:14Z</time>
  <speed>2.880000</speed>
</trkpt>
<trkpt lat="32.738227844" lon="35.052993774">
  <ele>478.057129</ele>
  <time>2011-08-20T07:03:15Z</time>
  <speed>2.470000</speed>
</trkpt>
<trkpt lat="32.738243103" lon="35.053039551">
  <ele>475.236816</ele>
  <time>2011-08-20T07:03:17Z</time>
  <speed>2.880000</speed>
</trkpt>
<trkpt lat="32.738239288" lon="35.053073883">
  <ele>474.377441</ele>
  <time>2011-08-20T07:03:18Z</time>
  <speed>3.380000</speed>
</trkpt>
<trkpt lat="32.738235474" lon="35.053115845">
  <ele>473.846191</ele>
  <time>2011-08-20T07:03:19Z</time>
  <speed>4.310000</speed>
</trkpt>
<trkpt lat="32.738231659" lon="35.053157806">
  <ele>473.182129</ele>
  <time>2011-08-20T07:03:20Z</time>
  <speed>3.910000</speed>
</trkpt>
<trkpt lat="32.738227844" lon="35.053215027">
  <ele>472.549316</ele>
  <time>2011-08-20T07:03:21Z</time>
  <speed>4.160000</speed>
</trkpt>
<trkpt lat="32.738220215" lon="35.053256989">
  <ele>471.846191</ele>
  <time>2011-08-20T07:03:22Z</time>
  <speed>3.990000</speed>
</trkpt>
<trkpt lat="32.738208771" lon="35.053295135">
  <ele>471.049316</ele>
  <time>2011-08-20T07:03:23Z</time>
  <speed>3.670000</speed>
</trkpt>
<trkpt lat="32.738201141" lon="35.053340912">
  <ele>470.268066</ele>
  <time>2011-08-20T07:03:24Z</time>
  <speed>4.280000</speed>
</trkpt>
<trkpt lat="32.738185883" lon="35.053379059">
  <ele>469.236816</ele>
  <time>2011-08-20T07:03:25Z</time>
  <speed>4.290000</speed>
</trkpt>
<trkpt lat="32.738178253" lon="35.053424835">
  <ele>468.783691</ele>
  <time>2011-08-20T07:03:26Z</time>
  <speed>4.370000</speed>
</trkpt>
<trkpt lat="32.738166809" lon="35.053478241">
  <ele>468.182129</ele>
  <time>2011-08-20T07:03:27Z</time>
  <speed>4.460000</speed>
</trkpt>
<trkpt lat="32.738151550" lon="35.053516388">
  <ele>466.783691</ele>
  <time>2011-08-20T07:03:28Z</time>
  <speed>3.580000</speed>
</trkpt>
<trkpt lat="32.738143921" lon="35.053558350">
  <ele>465.822754</ele>
  <time>2011-08-20T07:03:29Z</time>
  <speed>3.230000</speed>
</trkpt>
<trkpt lat="32.738162994" lon="35.053607941">
  <ele>465.346191</ele>
  <time>2011-08-20T07:03:30Z</time>
  <speed>3.880000</speed>
</trkpt>
<trkpt lat="32.738159180" lon="35.053665161">
  <ele>464.236816</ele>
  <time>2011-08-20T07:03:31Z</time>
  <speed>4.020000</speed>
</trkpt>
<trkpt lat="32.738170624" lon="35.053710938">
  <ele>463.158691</ele>
  <time>2011-08-20T07:03:32Z</time>
  <speed>4.170000</speed>
</trkpt>
<trkpt lat="32.738185883" lon="35.053756714">
  <ele>463.018066</ele>
  <time>2011-08-20T07:03:33Z</time>
  <speed>4.540000</speed>
</trkpt>
<trkpt lat="32.738189697" lon="35.053806305">
  <ele>461.838379</ele>
  <time>2011-08-20T07:03:34Z</time>
  <speed>4.620000</speed>
</trkpt>
<trkpt lat="32.738201141" lon="35.053855896">
  <ele>461.229004</ele>
  <time>2011-08-20T07:03:35Z</time>
  <speed>4.780000</speed>
</trkpt>
<trkpt lat="32.738208771" lon="35.053905487">
  <ele>460.299316</ele>
  <time>2011-08-20T07:03:36Z</time>
  <speed>4.210000</speed>
</trkpt>
<trkpt lat="32.738231659" lon="35.053951263">
  <ele>459.393066</ele>
  <time>2011-08-20T07:03:37Z</time>
  <speed>3.690000</speed>
</trkpt>
<trkpt lat="32.738277435" lon="35.053939819">
  <ele>456.424316</ele>
  <time>2011-08-20T07:03:38Z</time>
  <speed>4.580000</speed>
</trkpt>
<trkpt lat="32.738319397" lon="35.053916931">
  <ele>453.502441</ele>
  <time>2011-08-20T07:03:39Z</time>
  <speed>3.320000</speed>
</trkpt>
<trkpt lat="32.738365173" lon="35.053886414">
  <ele>451.471191</ele>
  <time>2011-08-20T07:03:41Z</time>
  <speed>1.220000</speed>
</trkpt>
<trkpt lat="32.738330841" lon="35.053878784">
  <ele>448.627441</ele>
  <time>2011-08-20T07:03:46Z</time>
  <speed>1.430000</speed>
</trkpt>
<trkpt lat="32.738296509" lon="35.053886414">
  <ele>447.525879</ele>
  <time>2011-08-20T07:03:48Z</time>
  <speed>2.190000</speed>
</trkpt>
<trkpt lat="32.738254547" lon="35.053886414">
  <ele>446.760254</ele>
  <time>2011-08-20T07:03:50Z</time>
  <speed>1.830000</speed>
</trkpt>
<trkpt lat="32.738212585" lon="35.053886414">
  <ele>445.736816</ele>
  <time>2011-08-20T07:03:52Z</time>
  <speed>1.720000</speed>
</trkpt>
<trkpt lat="32.738185883" lon="35.053958893">
  <ele>447.486816</ele>
  <time>2011-08-20T07:03:53Z</time>
  <speed>1.080000</speed>
</trkpt>
<trkpt lat="32.738208771" lon="35.053962708">
  <ele>445.291504</ele>
  <time>2011-08-20T07:03:58Z</time>
  <speed>0.830000</speed>
</trkpt>
<trkpt lat="32.738243103" lon="35.053955078">
  <ele>445.463379</ele>
  <time>2011-08-20T07:04:00Z</time>
  <speed>1.570000</speed>
</trkpt>
<trkpt lat="32.738273621" lon="35.053951263">
  <ele>445.643066</ele>
  <time>2011-08-20T07:04:01Z</time>
  <speed>3.490000</speed>
</trkpt>
<trkpt lat="32.738304138" lon="35.053936005">
  <ele>445.752441</ele>
  <time>2011-08-20T07:04:02Z</time>
  <speed>3.860000</speed>
</trkpt>
<trkpt lat="32.738372803" lon="35.053966522">
  <ele>446.564941</ele>
  <time>2011-08-20T07:04:03Z</time>
  <speed>5.050000</speed>
</trkpt>
<trkpt lat="32.738403320" lon="35.053974152">
  <ele>446.447754</ele>
  <time>2011-08-20T07:04:04Z</time>
  <speed>4.840000</speed>
</trkpt>
<trkpt lat="32.738437653" lon="35.054004669">
  <ele>446.260254</ele>
  <time>2011-08-20T07:04:05Z</time>
  <speed>4.900000</speed>
</trkpt>
<trkpt lat="32.738475800" lon="35.054050446">
  <ele>445.932129</ele>
  <time>2011-08-20T07:04:06Z</time>
  <speed>3.950000</speed>
</trkpt>
<trkpt lat="32.738517761" lon="35.054107666">
  <ele>445.385254</ele>
  <time>2011-08-20T07:04:08Z</time>
  <speed>3.940000</speed>
</trkpt>
<trkpt lat="32.738548279" lon="35.054145813">
  <ele>446.330566</ele>
  <time>2011-08-20T07:04:09Z</time>
  <speed>4.120000</speed>
</trkpt>
<trkpt lat="32.738567352" lon="35.054180145">
  <ele>447.572754</ele>
  <time>2011-08-20T07:04:10Z</time>
  <speed>3.850000</speed>
</trkpt>
<trkpt lat="32.738571167" lon="35.054214478">
  <ele>448.346191</ele>
  <time>2011-08-20T07:04:11Z</time>
  <speed>3.960000</speed>
</trkpt>
<trkpt lat="32.738586426" lon="35.054252625">
  <ele>448.518066</ele>
  <time>2011-08-20T07:04:12Z</time>
  <speed>4.020000</speed>
</trkpt>
<trkpt lat="32.738601685" lon="35.054286957">
  <ele>448.760254</ele>
  <time>2011-08-20T07:04:13Z</time>
  <speed>3.710000</speed>
</trkpt>
<trkpt lat="32.738620758" lon="35.054328918">
  <ele>448.775879</ele>
  <time>2011-08-20T07:04:14Z</time>
  <speed>4.020000</speed>
</trkpt>
<trkpt lat="32.738651276" lon="35.054370880">
  <ele>449.666504</ele>
  <time>2011-08-20T07:04:15Z</time>
  <speed>4.480000</speed>
</trkpt>
<trkpt lat="32.738670349" lon="35.054405212">
  <ele>450.221191</ele>
  <time>2011-08-20T07:04:16Z</time>
  <speed>3.650000</speed>
</trkpt>
<trkpt lat="32.738704681" lon="35.054443359">
  <ele>450.236816</ele>
  <time>2011-08-20T07:04:17Z</time>
  <speed>4.570000</speed>
</trkpt>
<trkpt lat="32.738739014" lon="35.054462433">
  <ele>450.416504</ele>
  <time>2011-08-20T07:04:18Z</time>
  <speed>3.470000</speed>
</trkpt>
<trkpt lat="32.738784790" lon="35.054485321">
  <ele>450.783691</ele>
  <time>2011-08-20T07:04:19Z</time>
  <speed>4.800000</speed>
</trkpt>
<trkpt lat="32.738826752" lon="35.054512024">
  <ele>452.346191</ele>
  <time>2011-08-20T07:04:20Z</time>
  <speed>4.350000</speed>
</trkpt>
<trkpt lat="32.738864899" lon="35.054527283">
  <ele>452.369629</ele>
  <time>2011-08-20T07:04:21Z</time>
  <speed>4.410000</speed>
</trkpt>
<trkpt lat="32.738903046" lon="35.054542542">
  <ele>452.025879</ele>
  <time>2011-08-20T07:04:22Z</time>
  <speed>4.870000</speed>
</trkpt>
<trkpt lat="32.738945007" lon="35.054561615">
  <ele>451.814941</ele>
  <time>2011-08-20T07:04:23Z</time>
  <speed>5.220000</speed>
</trkpt>
<trkpt lat="32.738994598" lon="35.054580688">
  <ele>451.963379</ele>
  <time>2011-08-20T07:04:24Z</time>
  <speed>5.660000</speed>
</trkpt>
<trkpt lat="32.739048004" lon="35.054607391">
  <ele>452.268066</ele>
  <time>2011-08-20T07:04:25Z</time>
  <speed>5.950000</speed>
</trkpt>
<trkpt lat="32.739086151" lon="35.054637909">
  <ele>452.010254</ele>
  <time>2011-08-20T07:04:26Z</time>
  <speed>5.750000</speed>
</trkpt>
<trkpt lat="32.739124298" lon="35.054676056">
  <ele>451.877441</ele>
  <time>2011-08-20T07:04:27Z</time>
  <speed>5.620000</speed>
</trkpt>
<trkpt lat="32.739154816" lon="35.054725647">
  <ele>451.650879</ele>
  <time>2011-08-20T07:04:28Z</time>
  <speed>5.020000</speed>
</trkpt>
<trkpt lat="32.739185333" lon="35.054759979">
  <ele>452.205566</ele>
  <time>2011-08-20T07:04:29Z</time>
  <speed>4.770000</speed>
</trkpt>
<trkpt lat="32.739223480" lon="35.054805756">
  <ele>452.533691</ele>
  <time>2011-08-20T07:04:30Z</time>
  <speed>5.110000</speed>
</trkpt>
<trkpt lat="32.739253998" lon="35.054840088">
  <ele>452.502441</ele>
  <time>2011-08-20T07:04:31Z</time>
  <speed>4.830000</speed>
</trkpt>
<trkpt lat="32.739292145" lon="35.054866791">
  <ele>452.408691</ele>
  <time>2011-08-20T07:04:32Z</time>
  <speed>4.850000</speed>
</trkpt>
<trkpt lat="32.739318848" lon="35.054901123">
  <ele>452.064941</ele>
  <time>2011-08-20T07:04:33Z</time>
  <speed>4.370000</speed>
</trkpt>
<trkpt lat="32.739345551" lon="35.054931641">
  <ele>452.400879</ele>
  <time>2011-08-20T07:04:34Z</time>
  <speed>3.880000</speed>
</trkpt>
<trkpt lat="32.739376068" lon="35.054950714">
  <ele>453.010254</ele>
  <time>2011-08-20T07:04:35Z</time>
  <speed>3.350000</speed>
</trkpt>
<trkpt lat="32.739410400" lon="35.054977417">
  <ele>452.541504</ele>
  <time>2011-08-20T07:04:36Z</time>
  <speed>3.340000</speed>
</trkpt>
<trkpt lat="32.739440918" lon="35.054985046">
  <ele>451.572754</ele>
  <time>2011-08-20T07:04:37Z</time>
  <speed>3.190000</speed>
</trkpt>
<trkpt lat="32.739467621" lon="35.054996490">
  <ele>451.627441</ele>
  <time>2011-08-20T07:04:38Z</time>
  <speed>2.940000</speed>
</trkpt>
<trkpt lat="32.739494324" lon="35.055007935">
  <ele>451.494629</ele>
  <time>2011-08-20T07:04:39Z</time>
  <speed>3.030000</speed>
</trkpt>
<trkpt lat="32.739524841" lon="35.055027008">
  <ele>452.158691</ele>
  <time>2011-08-20T07:04:40Z</time>
  <speed>3.070000</speed>
</trkpt>
<trkpt lat="32.739555359" lon="35.055034637">
  <ele>453.197754</ele>
  <time>2011-08-20T07:04:41Z</time>
  <speed>3.100000</speed>
</trkpt>
<trkpt lat="32.739589691" lon="35.055030823">
  <ele>452.283691</ele>
  <time>2011-08-20T07:04:42Z</time>
  <speed>3.300000</speed>
</trkpt>
<trkpt lat="32.739624023" lon="35.055030823">
  <ele>451.541504</ele>
  <time>2011-08-20T07:04:43Z</time>
  <speed>3.490000</speed>
</trkpt>
<trkpt lat="32.739654541" lon="35.055034637">
  <ele>451.674316</ele>
  <time>2011-08-20T07:04:44Z</time>
  <speed>3.310000</speed>
</trkpt>
<trkpt lat="32.739715576" lon="35.055042267">
  <ele>452.971191</ele>
  <time>2011-08-20T07:04:46Z</time>
  <speed>3.600000</speed>
</trkpt>
<trkpt lat="32.739753723" lon="35.055046082">
  <ele>453.072754</ele>
  <time>2011-08-20T07:04:47Z</time>
  <speed>3.810000</speed>
</trkpt>
<trkpt lat="32.739784241" lon="35.055046082">
  <ele>454.064941</ele>
  <time>2011-08-20T07:04:48Z</time>
  <speed>3.830000</speed>
</trkpt>
<trkpt lat="32.739818573" lon="35.055038452">
  <ele>453.924316</ele>
  <time>2011-08-20T07:04:49Z</time>
  <speed>3.510000</speed>
</trkpt>
<trkpt lat="32.739852905" lon="35.055034637">
  <ele>453.549316</ele>
  <time>2011-08-20T07:04:50Z</time>
  <speed>3.690000</speed>
</trkpt>
<trkpt lat="32.739891052" lon="35.055030823">
  <ele>453.439941</ele>
  <time>2011-08-20T07:04:51Z</time>
  <speed>3.880000</speed>
</trkpt>
<trkpt lat="32.739933014" lon="35.055023193">
  <ele>452.354004</ele>
  <time>2011-08-20T07:04:52Z</time>
  <speed>3.760000</speed>
</trkpt>
<trkpt lat="32.739967346" lon="35.055004120">
  <ele>452.564941</ele>
  <time>2011-08-20T07:04:53Z</time>
  <speed>3.070000</speed>
</trkpt>
<trkpt lat="32.739994049" lon="35.054988861">
  <ele>452.299316</ele>
  <time>2011-08-20T07:04:54Z</time>
  <speed>3.410000</speed>
</trkpt>
<trkpt lat="32.740024567" lon="35.054965973">
  <ele>451.354004</ele>
  <time>2011-08-20T07:04:55Z</time>
  <speed>3.210000</speed>
</trkpt>
<trkpt lat="32.740062714" lon="35.054935455">
  <ele>449.814941</ele>
  <time>2011-08-20T07:04:56Z</time>
  <speed>3.280000</speed>
</trkpt>
<trkpt lat="32.740089417" lon="35.054920197">
  <ele>449.479004</ele>
  <time>2011-08-20T07:04:57Z</time>
  <speed>2.980000</speed>
</trkpt>
<trkpt lat="32.740116119" lon="35.054904938">
  <ele>450.025879</ele>
  <time>2011-08-20T07:04:58Z</time>
  <speed>2.680000</speed>
</trkpt>
<trkpt lat="32.740142822" lon="35.054882050">
  <ele>449.221191</ele>
  <time>2011-08-20T07:04:59Z</time>
  <speed>2.790000</speed>
</trkpt>
<trkpt lat="32.740169525" lon="35.054862976">
  <ele>448.775879</ele>
  <time>2011-08-20T07:05:00Z</time>
  <speed>2.630000</speed>
</trkpt>
<trkpt lat="32.740215302" lon="35.054817200">
  <ele>450.291504</ele>
  <time>2011-08-20T07:05:02Z</time>
  <speed>2.820000</speed>
</trkpt>
<trkpt lat="32.740268707" lon="35.054798126">
  <ele>450.283691</ele>
  <time>2011-08-20T07:05:04Z</time>
  <speed>2.400000</speed>
</trkpt>
<trkpt lat="32.740303040" lon="35.054794312">
  <ele>450.275879</ele>
  <time>2011-08-20T07:05:05Z</time>
  <speed>2.600000</speed>
</trkpt>
<trkpt lat="32.740352631" lon="35.054779053">
  <ele>450.072754</ele>
  <time>2011-08-20T07:05:07Z</time>
  <speed>3.070000</speed>
</trkpt>
<trkpt lat="32.740383148" lon="35.054779053">
  <ele>449.955566</ele>
  <time>2011-08-20T07:05:08Z</time>
  <speed>2.810000</speed>
</trkpt>
<trkpt lat="32.740436554" lon="35.054794312">
  <ele>449.205566</ele>
  <time>2011-08-20T07:05:10Z</time>
  <speed>3.020000</speed>
</trkpt>
<trkpt lat="32.740470886" lon="35.054836273">
  <ele>451.518066</ele>
  <time>2011-08-20T07:05:12Z</time>
  <speed>2.180000</speed>
</trkpt>
<trkpt lat="32.740512848" lon="35.054870605">
  <ele>451.158691</ele>
  <time>2011-08-20T07:05:14Z</time>
  <speed>2.440000</speed>
</trkpt>
<trkpt lat="32.740550995" lon="35.054912567">
  <ele>451.213379</ele>
  <time>2011-08-20T07:05:16Z</time>
  <speed>2.450000</speed>
</trkpt>
<trkpt lat="32.740562439" lon="35.054954529">
  <ele>451.166504</ele>
  <time>2011-08-20T07:05:18Z</time>
  <speed>2.650000</speed>
</trkpt>
<trkpt lat="32.740585327" lon="35.054977417">
  <ele>451.346191</ele>
  <time>2011-08-20T07:05:19Z</time>
  <speed>1.990000</speed>
</trkpt>
<trkpt lat="32.740604401" lon="35.055000305">
  <ele>451.049316</ele>
  <time>2011-08-20T07:05:20Z</time>
  <speed>2.380000</speed>
</trkpt>
<trkpt lat="32.740612030" lon="35.055030823">
  <ele>451.580566</ele>
  <time>2011-08-20T07:05:21Z</time>
  <speed>2.750000</speed>
</trkpt>
<trkpt lat="32.740631104" lon="35.055065155">
  <ele>452.268066</ele>
  <time>2011-08-20T07:05:22Z</time>
  <speed>2.950000</speed>
</trkpt>
<trkpt lat="32.740646362" lon="35.055099487">
  <ele>451.854004</ele>
  <time>2011-08-20T07:05:23Z</time>
  <speed>2.870000</speed>
</trkpt>
<trkpt lat="32.740657806" lon="35.055130005">
  <ele>451.775879</ele>
  <time>2011-08-20T07:05:24Z</time>
  <speed>2.960000</speed>
</trkpt>
<trkpt lat="32.740673065" lon="35.055156708">
  <ele>451.354004</ele>
  <time>2011-08-20T07:05:25Z</time>
  <speed>2.840000</speed>
</trkpt>
<trkpt lat="32.740703583" lon="35.055210114">
  <ele>451.096191</ele>
  <time>2011-08-20T07:05:27Z</time>
  <speed>2.720000</speed>
</trkpt>
<trkpt lat="32.740726471" lon="35.055252075">
  <ele>450.072754</ele>
  <time>2011-08-20T07:05:29Z</time>
  <speed>2.520000</speed>
</trkpt>
<trkpt lat="32.740745544" lon="35.055282593">
  <ele>449.596191</ele>
  <time>2011-08-20T07:05:30Z</time>
  <speed>2.910000</speed>
</trkpt>
<trkpt lat="32.740783691" lon="35.055332184">
  <ele>449.713379</ele>
  <time>2011-08-20T07:05:32Z</time>
  <speed>2.920000</speed>
</trkpt>
<trkpt lat="32.740806580" lon="35.055355072">
  <ele>449.838379</ele>
  <time>2011-08-20T07:05:33Z</time>
  <speed>2.680000</speed>
</trkpt>
<trkpt lat="32.740840912" lon="35.055377960">
  <ele>450.408691</ele>
  <time>2011-08-20T07:05:34Z</time>
  <speed>2.450000</speed>
</trkpt>
<trkpt lat="32.740856171" lon="35.055397034">
  <ele>452.143066</ele>
  <time>2011-08-20T07:05:35Z</time>
  <speed>2.650000</speed>
</trkpt>
<trkpt lat="32.740898132" lon="35.055412292">
  <ele>452.463379</ele>
  <time>2011-08-20T07:05:36Z</time>
  <speed>3.240000</speed>
</trkpt>
<trkpt lat="32.740928650" lon="35.055412292">
  <ele>452.346191</ele>
  <time>2011-08-20T07:05:37Z</time>
  <speed>3.040000</speed>
</trkpt>
<trkpt lat="32.740955353" lon="35.055427551">
  <ele>452.900879</ele>
  <time>2011-08-20T07:05:38Z</time>
  <speed>2.870000</speed>
</trkpt>
<trkpt lat="32.740985870" lon="35.055427551">
  <ele>452.611816</ele>
  <time>2011-08-20T07:05:39Z</time>
  <speed>3.250000</speed>
</trkpt>
<trkpt lat="32.741016388" lon="35.055423737">
  <ele>453.729004</ele>
  <time>2011-08-20T07:05:40Z</time>
  <speed>3.550000</speed>
</trkpt>
<trkpt lat="32.741050720" lon="35.055419922">
  <ele>453.861816</ele>
  <time>2011-08-20T07:05:41Z</time>
  <speed>3.880000</speed>
</trkpt>
<trkpt lat="32.741085052" lon="35.055408478">
  <ele>453.814941</ele>
  <time>2011-08-20T07:05:42Z</time>
  <speed>3.960000</speed>
</trkpt>
<trkpt lat="32.741119385" lon="35.055393219">
  <ele>454.221191</ele>
  <time>2011-08-20T07:05:43Z</time>
  <speed>4.270000</speed>
</trkpt>
<trkpt lat="32.741157532" lon="35.055374146">
  <ele>454.150879</ele>
  <time>2011-08-20T07:05:44Z</time>
  <speed>4.220000</speed>
</trkpt>
<trkpt lat="32.741191864" lon="35.055358887">
  <ele>454.260254</ele>
  <time>2011-08-20T07:05:45Z</time>
  <speed>4.190000</speed>
</trkpt>
<trkpt lat="32.741226196" lon="35.055335999">
  <ele>454.189941</ele>
  <time>2011-08-20T07:05:46Z</time>
  <speed>4.230000</speed>
</trkpt>
<trkpt lat="32.741271973" lon="35.055313110">
  <ele>454.189941</ele>
  <time>2011-08-20T07:05:47Z</time>
  <speed>4.490000</speed>
</trkpt>
<trkpt lat="32.741313934" lon="35.055294037">
  <ele>454.330566</ele>
  <time>2011-08-20T07:05:48Z</time>
  <speed>4.730000</speed>
</trkpt>
<trkpt lat="32.741352081" lon="35.055274963">
  <ele>453.643066</ele>
  <time>2011-08-20T07:05:49Z</time>
  <speed>5.280000</speed>
</trkpt>
<trkpt lat="32.741409302" lon="35.055252075">
  <ele>453.744629</ele>
  <time>2011-08-20T07:05:50Z</time>
  <speed>6.160000</speed>
</trkpt>
<trkpt lat="32.741470337" lon="35.055236816">
  <ele>454.275879</ele>
  <time>2011-08-20T07:05:51Z</time>
  <speed>6.530000</speed>
</trkpt>
<trkpt lat="32.741519928" lon="35.055217743">
  <ele>454.533691</ele>
  <time>2011-08-20T07:05:52Z</time>
  <speed>6.030000</speed>
</trkpt>
<trkpt lat="32.741565704" lon="35.055191040">
  <ele>454.385254</ele>
  <time>2011-08-20T07:05:53Z</time>
  <speed>5.510000</speed>
</trkpt>
<trkpt lat="32.741603851" lon="35.055160522">
  <ele>453.799316</ele>
  <time>2011-08-20T07:05:54Z</time>
  <speed>5.600000</speed>
</trkpt>
<trkpt lat="32.741649628" lon="35.055145264">
  <ele>453.221191</ele>
  <time>2011-08-20T07:05:55Z</time>
  <speed>5.390000</speed>
</trkpt>
<trkpt lat="32.741691589" lon="35.055133820">
  <ele>452.768066</ele>
  <time>2011-08-20T07:05:56Z</time>
  <speed>4.870000</speed>
</trkpt>
<trkpt lat="32.741737366" lon="35.055130005">
  <ele>452.361816</ele>
  <time>2011-08-20T07:05:57Z</time>
  <speed>5.290000</speed>
</trkpt>
<trkpt lat="32.741786957" lon="35.055141449">
  <ele>451.924316</ele>
  <time>2011-08-20T07:05:58Z</time>
  <speed>5.040000</speed>
</trkpt>
<trkpt lat="32.741836548" lon="35.055156708">
  <ele>451.518066</ele>
  <time>2011-08-20T07:05:59Z</time>
  <speed>5.480000</speed>
</trkpt>
<trkpt lat="32.741905212" lon="35.055191040">
  <ele>450.775879</ele>
  <time>2011-08-20T07:06:00Z</time>
  <speed>6.820000</speed>
</trkpt>
<trkpt lat="32.741962433" lon="35.055221558">
  <ele>450.236816</ele>
  <time>2011-08-20T07:06:01Z</time>
  <speed>6.490000</speed>
</trkpt>
<trkpt lat="32.742015839" lon="35.055252075">
  <ele>449.752441</ele>
  <time>2011-08-20T07:06:02Z</time>
  <speed>6.200000</speed>
</trkpt>
<trkpt lat="32.742057800" lon="35.055294037">
  <ele>448.893066</ele>
  <time>2011-08-20T07:06:03Z</time>
  <speed>5.530000</speed>
</trkpt>
<trkpt lat="32.742130280" lon="35.055335999">
  <ele>448.721191</ele>
  <time>2011-08-20T07:06:04Z</time>
  <speed>6.240000</speed>
</trkpt>
<trkpt lat="32.742221832" lon="35.055393219">
  <ele>448.557129</ele>
  <time>2011-08-20T07:06:05Z</time>
  <speed>4.570000</speed>
</trkpt>
<trkpt lat="32.742267609" lon="35.055450439">
  <ele>447.838379</ele>
  <time>2011-08-20T07:06:06Z</time>
  <speed>4.430000</speed>
</trkpt>
<trkpt lat="32.742286682" lon="35.055500031">
  <ele>446.916504</ele>
  <time>2011-08-20T07:06:07Z</time>
  <speed>3.910000</speed>
</trkpt>
<trkpt lat="32.742305756" lon="35.055526733">
  <ele>446.916504</ele>
  <time>2011-08-20T07:06:08Z</time>
  <speed>2.880000</speed>
</trkpt>
<trkpt lat="32.742328644" lon="35.055545807">
  <ele>446.150879</ele>
  <time>2011-08-20T07:06:09Z</time>
  <speed>3.000000</speed>
</trkpt>
<trkpt lat="32.742370605" lon="35.055568695">
  <ele>444.572754</ele>
  <time>2011-08-20T07:06:11Z</time>
  <speed>2.590000</speed>
</trkpt>
<trkpt lat="32.742374420" lon="35.055603027">
  <ele>442.244629</ele>
  <time>2011-08-20T07:06:13Z</time>
  <speed>2.170000</speed>
</trkpt>
<trkpt lat="32.742378235" lon="35.055633545">
  <ele>440.572754</ele>
  <time>2011-08-20T07:06:14Z</time>
  <speed>2.560000</speed>
</trkpt>
<trkpt lat="32.742393494" lon="35.055664063">
  <ele>439.354004</ele>
  <time>2011-08-20T07:06:15Z</time>
  <speed>2.920000</speed>
</trkpt>
<trkpt lat="32.742420197" lon="35.055694580">
  <ele>437.760254</ele>
  <time>2011-08-20T07:06:16Z</time>
  <speed>2.520000</speed>
</trkpt>
<trkpt lat="32.742408752" lon="35.055736542">
  <ele>435.393066</ele>
  <time>2011-08-20T07:06:18Z</time>
  <speed>1.840000</speed>
</trkpt>
<trkpt lat="32.742385864" lon="35.055755615">
  <ele>434.518066</ele>
  <time>2011-08-20T07:06:20Z</time>
  <speed>2.170000</speed>
</trkpt>
<trkpt lat="32.742340088" lon="35.055740356">
  <ele>433.846191</ele>
  <time>2011-08-20T07:06:22Z</time>
  <speed>2.420000</speed>
</trkpt>
<trkpt lat="32.742301941" lon="35.055725098">
  <ele>432.619629</ele>
  <time>2011-08-20T07:06:24Z</time>
  <speed>1.640000</speed>
</trkpt>
<trkpt lat="32.742275238" lon="35.055725098">
  <ele>431.361816</ele>
  <time>2011-08-20T07:06:25Z</time>
  <speed>1.280000</speed>
</trkpt>
<trkpt lat="32.742267609" lon="35.055774689">
  <ele>430.119629</ele>
  <time>2011-08-20T07:06:27Z</time>
  <speed>1.730000</speed>
</trkpt>
<trkpt lat="32.742275238" lon="35.055831909">
  <ele>428.182129</ele>
  <time>2011-08-20T07:06:29Z</time>
  <speed>2.310000</speed>
</trkpt>
<trkpt lat="32.742294312" lon="35.055850983">
  <ele>427.564941</ele>
  <time>2011-08-20T07:06:30Z</time>
  <speed>2.520000</speed>
</trkpt>
<trkpt lat="32.742343903" lon="35.055908203">
  <ele>426.799316</ele>
  <time>2011-08-20T07:06:32Z</time>
  <speed>3.460000</speed>
</trkpt>
<trkpt lat="32.742362976" lon="35.055938721">
  <ele>426.057129</ele>
  <time>2011-08-20T07:06:33Z</time>
  <speed>2.570000</speed>
</trkpt>
<trkpt lat="32.742412567" lon="35.055965424">
  <ele>424.979004</ele>
  <time>2011-08-20T07:06:35Z</time>
  <speed>2.840000</speed>
</trkpt>
<trkpt lat="32.742439270" lon="35.055988312">
  <ele>424.643066</ele>
  <time>2011-08-20T07:06:36Z</time>
  <speed>3.110000</speed>
</trkpt>
<trkpt lat="32.742473602" lon="35.056018829">
  <ele>424.268066</ele>
  <time>2011-08-20T07:06:37Z</time>
  <speed>3.450000</speed>
</trkpt>
<trkpt lat="32.742496490" lon="35.056045532">
  <ele>423.182129</ele>
  <time>2011-08-20T07:06:38Z</time>
  <speed>3.300000</speed>
</trkpt>
<trkpt lat="32.742527008" lon="35.056064606">
  <ele>422.541504</ele>
  <time>2011-08-20T07:06:39Z</time>
  <speed>3.170000</speed>
</trkpt>
<trkpt lat="32.742553711" lon="35.056072235">
  <ele>421.947754</ele>
  <time>2011-08-20T07:06:40Z</time>
  <speed>2.470000</speed>
</trkpt>
<trkpt lat="32.742599487" lon="35.056083679">
  <ele>421.205566</ele>
  <time>2011-08-20T07:06:42Z</time>
  <speed>2.400000</speed>
</trkpt>
<trkpt lat="32.742652893" lon="35.056095123">
  <ele>420.924316</ele>
  <time>2011-08-20T07:06:44Z</time>
  <speed>2.280000</speed>
</trkpt>
<trkpt lat="32.742664337" lon="35.056121826">
  <ele>423.299316</ele>
  <time>2011-08-20T07:06:45Z</time>
  <speed>2.470000</speed>
</trkpt>
<trkpt lat="32.742702484" lon="35.056118011">
  <ele>422.721191</ele>
  <time>2011-08-20T07:06:47Z</time>
  <speed>1.080000</speed>
</trkpt>
<trkpt lat="32.742744446" lon="35.056129456">
  <ele>422.088379</ele>
  <time>2011-08-20T07:06:49Z</time>
  <speed>2.790000</speed>
</trkpt>
<trkpt lat="32.742774963" lon="35.056129456">
  <ele>421.697754</ele>
  <time>2011-08-20T07:06:50Z</time>
  <speed>2.720000</speed>
</trkpt>
<trkpt lat="32.742801666" lon="35.056133270">
  <ele>422.119629</ele>
  <time>2011-08-20T07:06:51Z</time>
  <speed>2.720000</speed>
</trkpt>
<trkpt lat="32.742839813" lon="35.056133270">
  <ele>419.885254</ele>
  <time>2011-08-20T07:06:53Z</time>
  <speed>2.310000</speed>
</trkpt>
<trkpt lat="32.742866516" lon="35.056152344">
  <ele>421.947754</ele>
  <time>2011-08-20T07:06:55Z</time>
  <speed>1.630000</speed>
</trkpt>
<trkpt lat="32.742897034" lon="35.056137085">
  <ele>420.338379</ele>
  <time>2011-08-20T07:06:57Z</time>
  <speed>1.640000</speed>
</trkpt>
<trkpt lat="32.742923737" lon="35.056121826">
  <ele>420.744629</ele>
  <time>2011-08-20T07:06:59Z</time>
  <speed>1.000000</speed>
</trkpt>
<trkpt lat="32.742965698" lon="35.056137085">
  <ele>419.346191</ele>
  <time>2011-08-20T07:07:02Z</time>
  <speed>1.660000</speed>
</trkpt>
<trkpt lat="32.743000031" lon="35.056144714">
  <ele>418.447754</ele>
  <time>2011-08-20T07:07:04Z</time>
  <speed>1.650000</speed>
</trkpt>
<trkpt lat="32.743022919" lon="35.056152344">
  <ele>416.596191</ele>
  <time>2011-08-20T07:07:06Z</time>
  <speed>1.680000</speed>
</trkpt>
<trkpt lat="32.743049622" lon="35.056167603">
  <ele>416.424316</ele>
  <time>2011-08-20T07:07:07Z</time>
  <speed>2.140000</speed>
</trkpt>
<trkpt lat="32.743076324" lon="35.056182861">
  <ele>416.611816</ele>
  <time>2011-08-20T07:07:08Z</time>
  <speed>1.940000</speed>
</trkpt>
<trkpt lat="32.743106842" lon="35.056194305">
  <ele>416.314941</ele>
  <time>2011-08-20T07:07:09Z</time>
  <speed>1.620000</speed>
</trkpt>
<trkpt lat="32.743156433" lon="35.056224823">
  <ele>415.635254</ele>
  <time>2011-08-20T07:07:11Z</time>
  <speed>1.570000</speed>
</trkpt>
<trkpt lat="32.743194580" lon="35.056259155">
  <ele>413.713379</ele>
  <time>2011-08-20T07:07:13Z</time>
  <speed>1.550000</speed>
</trkpt>
<trkpt lat="32.743202209" lon="35.056293488">
  <ele>413.088379</ele>
  <time>2011-08-20T07:07:15Z</time>
  <speed>0.780000</speed>
</trkpt>
<trkpt lat="32.743183136" lon="35.056270599">
  <ele>411.580566</ele>
  <time>2011-08-20T07:07:20Z</time>
  <speed>0.820000</speed>
</trkpt>
<trkpt lat="32.743160248" lon="35.056259155">
  <ele>410.307129</ele>
  <time>2011-08-20T07:07:25Z</time>
  <speed>0.270000</speed>
</trkpt>
<trkpt lat="32.743114471" lon="35.056274414">
  <ele>409.502441</ele>
  <time>2011-08-20T07:07:30Z</time>
  <speed>1.900000</speed>
</trkpt>
<trkpt lat="32.743087769" lon="35.056285858">
  <ele>409.385254</ele>
  <time>2011-08-20T07:07:31Z</time>
  <speed>2.540000</speed>
</trkpt>
<trkpt lat="32.743045807" lon="35.056289673">
  <ele>408.908691</ele>
  <time>2011-08-20T07:07:33Z</time>
  <speed>2.110000</speed>
</trkpt>
<trkpt lat="32.743003845" lon="35.056289673">
  <ele>408.518066</ele>
  <time>2011-08-20T07:07:35Z</time>
  <speed>1.930000</speed>
</trkpt>
<trkpt lat="32.742954254" lon="35.056304932">
  <ele>408.119629</ele>
  <time>2011-08-20T07:07:37Z</time>
  <speed>2.570000</speed>
</trkpt>
<trkpt lat="32.742927551" lon="35.056362152">
  <ele>407.658691</ele>
  <time>2011-08-20T07:07:39Z</time>
  <speed>2.530000</speed>
</trkpt>
<trkpt lat="32.742927551" lon="35.056400299">
  <ele>408.096191</ele>
  <time>2011-08-20T07:07:40Z</time>
  <speed>2.340000</speed>
</trkpt>
<trkpt lat="32.742927551" lon="35.056434631">
  <ele>407.791504</ele>
  <time>2011-08-20T07:07:41Z</time>
  <speed>2.100000</speed>
</trkpt>
<trkpt lat="32.742919922" lon="35.056472778">
  <ele>406.799316</ele>
  <time>2011-08-20T07:07:43Z</time>
  <speed>1.870000</speed>
</trkpt>
<trkpt lat="32.742961884" lon="35.056507111">
  <ele>405.838379</ele>
  <time>2011-08-20T07:07:45Z</time>
  <speed>2.360000</speed>
</trkpt>
<trkpt lat="32.742980957" lon="35.056541443">
  <ele>405.229004</ele>
  <time>2011-08-20T07:07:46Z</time>
  <speed>2.140000</speed>
</trkpt>
<trkpt lat="32.742984772" lon="35.056571960">
  <ele>404.135254</ele>
  <time>2011-08-20T07:07:48Z</time>
  <speed>1.430000</speed>
</trkpt>
<trkpt lat="32.742954254" lon="35.056587219">
  <ele>403.994629</ele>
  <time>2011-08-20T07:07:50Z</time>
  <speed>2.180000</speed>
</trkpt>
<trkpt lat="32.742904663" lon="35.056602478">
  <ele>404.057129</ele>
  <time>2011-08-20T07:07:52Z</time>
  <speed>3.370000</speed>
</trkpt>
<trkpt lat="32.742874146" lon="35.056598663">
  <ele>403.908691</ele>
  <time>2011-08-20T07:07:53Z</time>
  <speed>2.790000</speed>
</trkpt>
<trkpt lat="32.742843628" lon="35.056602478">
  <ele>403.205566</ele>
  <time>2011-08-20T07:07:54Z</time>
  <speed>2.740000</speed>
</trkpt>
<trkpt lat="32.742816925" lon="35.056594849">
  <ele>402.971191</ele>
  <time>2011-08-20T07:07:55Z</time>
  <speed>2.410000</speed>
</trkpt>
<trkpt lat="32.742763519" lon="35.056583405">
  <ele>401.549316</ele>
  <time>2011-08-20T07:07:57Z</time>
  <speed>2.510000</speed>
</trkpt>
<trkpt lat="32.742721558" lon="35.056571960">
  <ele>400.166504</ele>
  <time>2011-08-20T07:07:59Z</time>
  <speed>2.560000</speed>
</trkpt>
<trkpt lat="32.742675781" lon="35.056575775">
  <ele>399.752441</ele>
  <time>2011-08-20T07:08:01Z</time>
  <speed>2.210000</speed>
</trkpt>
<trkpt lat="32.742633820" lon="35.056575775">
  <ele>399.229004</ele>
  <time>2011-08-20T07:08:03Z</time>
  <speed>2.040000</speed>
</trkpt>
<trkpt lat="32.742599487" lon="35.056571960">
  <ele>398.971191</ele>
  <time>2011-08-20T07:08:05Z</time>
  <speed>2.030000</speed>
</trkpt>
<trkpt lat="32.742561340" lon="35.056560516">
  <ele>398.838379</ele>
  <time>2011-08-20T07:08:07Z</time>
  <speed>1.950000</speed>
</trkpt>
<trkpt lat="32.742523193" lon="35.056510925">
  <ele>399.213379</ele>
  <time>2011-08-20T07:08:09Z</time>
  <speed>2.350000</speed>
</trkpt>
<trkpt lat="32.742485046" lon="35.056518555">
  <ele>399.088379</ele>
  <time>2011-08-20T07:08:11Z</time>
  <speed>1.460000</speed>
</trkpt>
<trkpt lat="32.742511749" lon="35.056533813">
  <ele>400.588379</ele>
  <time>2011-08-20T07:08:13Z</time>
  <speed>1.480000</speed>
</trkpt>
<trkpt lat="32.742549896" lon="35.056549072">
  <ele>400.643066</ele>
  <time>2011-08-20T07:08:15Z</time>
  <speed>1.800000</speed>
</trkpt>
<trkpt lat="32.742588043" lon="35.056568146">
  <ele>399.846191</ele>
  <time>2011-08-20T07:08:17Z</time>
  <speed>2.390000</speed>
</trkpt>
<trkpt lat="32.742626190" lon="35.056583405">
  <ele>399.025879</ele>
  <time>2011-08-20T07:08:19Z</time>
  <speed>2.720000</speed>
</trkpt>
<trkpt lat="32.742660522" lon="35.056591034">
  <ele>398.807129</ele>
  <time>2011-08-20T07:08:20Z</time>
  <speed>3.200000</speed>
</trkpt>
<trkpt lat="32.742698669" lon="35.056598663">
  <ele>398.924316</ele>
  <time>2011-08-20T07:08:21Z</time>
  <speed>3.290000</speed>
</trkpt>
<trkpt lat="32.742733002" lon="35.056598663">
  <ele>398.893066</ele>
  <time>2011-08-20T07:08:22Z</time>
  <speed>2.570000</speed>
</trkpt>
<trkpt lat="32.742763519" lon="35.056598663">
  <ele>399.111816</ele>
  <time>2011-08-20T07:08:23Z</time>
  <speed>2.260000</speed>
</trkpt>
<trkpt lat="32.742763519" lon="35.056644440">
  <ele>398.143066</ele>
  <time>2011-08-20T07:08:25Z</time>
  <speed>2.370000</speed>
</trkpt>
<trkpt lat="32.742767334" lon="35.056678772">
  <ele>397.424316</ele>
  <time>2011-08-20T07:08:26Z</time>
  <speed>2.370000</speed>
</trkpt>
<trkpt lat="32.742794037" lon="35.056713104">
  <ele>397.338379</ele>
  <time>2011-08-20T07:08:28Z</time>
  <speed>2.420000</speed>
</trkpt>
<trkpt lat="32.742816925" lon="35.056743622">
  <ele>396.291504</ele>
  <time>2011-08-20T07:08:31Z</time>
  <speed>1.860000</speed>
</trkpt>
<trkpt lat="32.742858887" lon="35.056766510">
  <ele>394.588379</ele>
  <time>2011-08-20T07:08:33Z</time>
  <speed>1.350000</speed>
</trkpt>
<trkpt lat="32.742858887" lon="35.056789398">
  <ele>392.338379</ele>
  <time>2011-08-20T07:08:38Z</time>
  <speed>0.300000</speed>
</trkpt>
<trkpt lat="32.742870331" lon="35.056816101">
  <ele>393.572754</ele>
  <time>2011-08-20T07:09:07Z</time>
  <speed>0.710000</speed>
</trkpt>
<trkpt lat="32.742847443" lon="35.056797028">
  <ele>392.994629</ele>
  <time>2011-08-20T07:09:17Z</time>
  <speed>0.380000</speed>
</trkpt>
<trkpt lat="32.742839813" lon="35.056831360">
  <ele>392.807129</ele>
  <time>2011-08-20T07:09:24Z</time>
  <speed>0.960000</speed>
</trkpt>
<trkpt lat="32.742858887" lon="35.056854248">
  <ele>392.838379</ele>
  <time>2011-08-20T07:09:25Z</time>
  <speed>1.540000</speed>
</trkpt>
<trkpt lat="32.742885590" lon="35.056892395">
  <ele>393.486816</ele>
  <time>2011-08-20T07:09:27Z</time>
  <speed>2.250000</speed>
</trkpt>
<trkpt lat="32.742893219" lon="35.056953430">
  <ele>393.783691</ele>
  <time>2011-08-20T07:09:29Z</time>
  <speed>2.830000</speed>
</trkpt>
<trkpt lat="32.742916107" lon="35.056999207">
  <ele>393.619629</ele>
  <time>2011-08-20T07:09:31Z</time>
  <speed>3.080000</speed>
</trkpt>
<trkpt lat="32.742935181" lon="35.057025909">
  <ele>393.814941</ele>
  <time>2011-08-20T07:09:32Z</time>
  <speed>3.780000</speed>
</trkpt>
<trkpt lat="32.742931366" lon="35.057060242">
  <ele>393.963379</ele>
  <time>2011-08-20T07:09:33Z</time>
  <speed>2.710000</speed>
</trkpt>
<trkpt lat="32.742923737" lon="35.057094574">
  <ele>394.760254</ele>
  <time>2011-08-20T07:09:34Z</time>
  <speed>2.920000</speed>
</trkpt>
<trkpt lat="32.742908478" lon="35.057140350">
  <ele>396.314941</ele>
  <time>2011-08-20T07:09:35Z</time>
  <speed>3.060000</speed>
</trkpt>
<trkpt lat="32.742900848" lon="35.057174683">
  <ele>396.275879</ele>
  <time>2011-08-20T07:09:36Z</time>
  <speed>3.230000</speed>
</trkpt>
<trkpt lat="32.742889404" lon="35.057205200">
  <ele>396.291504</ele>
  <time>2011-08-20T07:09:37Z</time>
  <speed>3.580000</speed>
</trkpt>
<trkpt lat="32.742877960" lon="35.057247162">
  <ele>396.072754</ele>
  <time>2011-08-20T07:09:38Z</time>
  <speed>4.150000</speed>
</trkpt>
<trkpt lat="32.742862701" lon="35.057292938">
  <ele>395.432129</ele>
  <time>2011-08-20T07:09:39Z</time>
  <speed>4.280000</speed>
</trkpt>
<trkpt lat="32.742835999" lon="35.057338715">
  <ele>395.018066</ele>
  <time>2011-08-20T07:09:40Z</time>
  <speed>4.200000</speed>
</trkpt>
<trkpt lat="32.742809296" lon="35.057384491">
  <ele>394.596191</ele>
  <time>2011-08-20T07:09:41Z</time>
  <speed>3.960000</speed>
</trkpt>
<trkpt lat="32.742805481" lon="35.057437897">
  <ele>394.369629</ele>
  <time>2011-08-20T07:09:42Z</time>
  <speed>3.400000</speed>
</trkpt>
<trkpt lat="32.742805481" lon="35.057472229">
  <ele>394.057129</ele>
  <time>2011-08-20T07:09:43Z</time>
  <speed>3.600000</speed>
</trkpt>
<trkpt lat="32.742801666" lon="35.057518005">
  <ele>393.580566</ele>
  <time>2011-08-20T07:09:44Z</time>
  <speed>4.440000</speed>
</trkpt>
<trkpt lat="32.742790222" lon="35.057567596">
  <ele>393.088379</ele>
  <time>2011-08-20T07:09:45Z</time>
  <speed>4.570000</speed>
</trkpt>
<trkpt lat="32.742778778" lon="35.057605743">
  <ele>392.096191</ele>
  <time>2011-08-20T07:09:46Z</time>
  <speed>4.070000</speed>
</trkpt>
<trkpt lat="32.742759705" lon="35.057636261">
  <ele>391.674316</ele>
  <time>2011-08-20T07:09:47Z</time>
  <speed>3.850000</speed>
</trkpt>
<trkpt lat="32.742736816" lon="35.057659149">
  <ele>391.064941</ele>
  <time>2011-08-20T07:09:48Z</time>
  <speed>3.620000</speed>
</trkpt>
<trkpt lat="32.742713928" lon="35.057682037">
  <ele>390.299316</ele>
  <time>2011-08-20T07:09:49Z</time>
  <speed>3.060000</speed>
</trkpt>
<trkpt lat="32.742679596" lon="35.057704926">
  <ele>389.619629</ele>
  <time>2011-08-20T07:09:50Z</time>
  <speed>3.470000</speed>
</trkpt>
<trkpt lat="32.742656708" lon="35.057735443">
  <ele>388.494629</ele>
  <time>2011-08-20T07:09:51Z</time>
  <speed>3.620000</speed>
</trkpt>
<trkpt lat="32.742649078" lon="35.057800293">
  <ele>387.869629</ele>
  <time>2011-08-20T07:09:53Z</time>
  <speed>3.470000</speed>
</trkpt>
<trkpt lat="32.742664337" lon="35.057838440">
  <ele>387.994629</ele>
  <time>2011-08-20T07:09:54Z</time>
  <speed>2.950000</speed>
</trkpt>
<trkpt lat="32.742694855" lon="35.057865143">
  <ele>387.525879</ele>
  <time>2011-08-20T07:09:55Z</time>
  <speed>3.340000</speed>
</trkpt>
<trkpt lat="32.742725372" lon="35.057895660">
  <ele>386.299316</ele>
  <time>2011-08-20T07:09:57Z</time>
  <speed>1.700000</speed>
</trkpt>
<trkpt lat="32.742748260" lon="35.057914734">
  <ele>386.291504</ele>
  <time>2011-08-20T07:09:58Z</time>
  <speed>2.370000</speed>
</trkpt>
<trkpt lat="32.742771149" lon="35.057929993">
  <ele>386.814941</ele>
  <time>2011-08-20T07:09:59Z</time>
  <speed>1.700000</speed>
</trkpt>
<trkpt lat="32.742813110" lon="35.057975769">
  <ele>384.510254</ele>
  <time>2011-08-20T07:10:01Z</time>
  <speed>1.990000</speed>
</trkpt>
<trkpt lat="32.742816925" lon="35.058040619">
  <ele>385.729004</ele>
  <time>2011-08-20T07:10:03Z</time>
  <speed>2.900000</speed>
</trkpt>
<trkpt lat="32.742805481" lon="35.058071136">
  <ele>385.127441</ele>
  <time>2011-08-20T07:10:04Z</time>
  <speed>3.020000</speed>
</trkpt>
<trkpt lat="32.742782593" lon="35.058124542">
  <ele>383.682129</ele>
  <time>2011-08-20T07:10:06Z</time>
  <speed>3.050000</speed>
</trkpt>
<trkpt lat="32.742771149" lon="35.058155060">
  <ele>382.971191</ele>
  <time>2011-08-20T07:10:07Z</time>
  <speed>3.400000</speed>
</trkpt>
<trkpt lat="32.742755890" lon="35.058189392">
  <ele>383.963379</ele>
  <time>2011-08-20T07:10:08Z</time>
  <speed>2.700000</speed>
</trkpt>
<trkpt lat="32.742725372" lon="35.058204651">
  <ele>384.643066</ele>
  <time>2011-08-20T07:10:09Z</time>
  <speed>3.340000</speed>
</trkpt>
<trkpt lat="32.742698669" lon="35.058216095">
  <ele>383.510254</ele>
  <time>2011-08-20T07:10:10Z</time>
  <speed>2.280000</speed>
</trkpt>
<trkpt lat="32.742664337" lon="35.058238983">
  <ele>383.361816</ele>
  <time>2011-08-20T07:10:12Z</time>
  <speed>1.810000</speed>
</trkpt>
<trkpt lat="32.742637634" lon="35.058261871">
  <ele>382.479004</ele>
  <time>2011-08-20T07:10:14Z</time>
  <speed>1.980000</speed>
</trkpt>
<trkpt lat="32.742580414" lon="35.058288574">
  <ele>382.010254</ele>
  <time>2011-08-20T07:10:16Z</time>
  <speed>3.160000</speed>
</trkpt>
<trkpt lat="32.742549896" lon="35.058300018">
  <ele>381.432129</ele>
  <time>2011-08-20T07:10:17Z</time>
  <speed>2.710000</speed>
</trkpt>
<trkpt lat="32.742519379" lon="35.058315277">
  <ele>380.822754</ele>
  <time>2011-08-20T07:10:18Z</time>
  <speed>4.070000</speed>
</trkpt>
<trkpt lat="32.742485046" lon="35.058334351">
  <ele>380.197754</ele>
  <time>2011-08-20T07:10:19Z</time>
  <speed>3.930000</speed>
</trkpt>
<trkpt lat="32.742450714" lon="35.058364868">
  <ele>379.439941</ele>
  <time>2011-08-20T07:10:20Z</time>
  <speed>4.110000</speed>
</trkpt>
<trkpt lat="32.742427826" lon="35.058399200">
  <ele>378.924316</ele>
  <time>2011-08-20T07:10:21Z</time>
  <speed>4.210000</speed>
</trkpt>
<trkpt lat="32.742416382" lon="35.058437347">
  <ele>378.307129</ele>
  <time>2011-08-20T07:10:22Z</time>
  <speed>3.450000</speed>
</trkpt>
<trkpt lat="32.742420197" lon="35.058483124">
  <ele>377.908691</ele>
  <time>2011-08-20T07:10:23Z</time>
  <speed>3.470000</speed>
</trkpt>
<trkpt lat="32.742439270" lon="35.058528900">
  <ele>377.533691</ele>
  <time>2011-08-20T07:10:24Z</time>
  <speed>4.070000</speed>
</trkpt>
<trkpt lat="32.742454529" lon="35.058578491">
  <ele>376.494629</ele>
  <time>2011-08-20T07:10:25Z</time>
  <speed>4.100000</speed>
</trkpt>
<trkpt lat="32.742454529" lon="35.058631897">
  <ele>376.033691</ele>
  <time>2011-08-20T07:10:26Z</time>
  <speed>4.150000</speed>
</trkpt>
<trkpt lat="32.742446899" lon="35.058681488">
  <ele>375.174316</ele>
  <time>2011-08-20T07:10:27Z</time>
  <speed>4.400000</speed>
</trkpt>
<trkpt lat="32.742454529" lon="35.058727264">
  <ele>374.619629</ele>
  <time>2011-08-20T07:10:28Z</time>
  <speed>3.840000</speed>
</trkpt>
<trkpt lat="32.742446899" lon="35.058773041">
  <ele>374.244629</ele>
  <time>2011-08-20T07:10:29Z</time>
  <speed>3.730000</speed>
</trkpt>
<trkpt lat="32.742450714" lon="35.058815002">
  <ele>373.299316</ele>
  <time>2011-08-20T07:10:30Z</time>
  <speed>3.820000</speed>
</trkpt>
<trkpt lat="32.742458344" lon="35.058856964">
  <ele>373.197754</ele>
  <time>2011-08-20T07:10:31Z</time>
  <speed>3.870000</speed>
</trkpt>
<trkpt lat="32.742469788" lon="35.058906555">
  <ele>372.885254</ele>
  <time>2011-08-20T07:10:32Z</time>
  <speed>3.650000</speed>
</trkpt>
<trkpt lat="32.742485046" lon="35.058940887">
  <ele>372.572754</ele>
  <time>2011-08-20T07:10:33Z</time>
  <speed>3.070000</speed>
</trkpt>
<trkpt lat="32.742511749" lon="35.058967590">
  <ele>372.314941</ele>
  <time>2011-08-20T07:10:34Z</time>
  <speed>3.540000</speed>
</trkpt>
<trkpt lat="32.742549896" lon="35.058982849">
  <ele>371.721191</ele>
  <time>2011-08-20T07:10:35Z</time>
  <speed>3.740000</speed>
</trkpt>
<trkpt lat="32.742599487" lon="35.058986664">
  <ele>371.369629</ele>
  <time>2011-08-20T07:10:36Z</time>
  <speed>3.600000</speed>
</trkpt>
<trkpt lat="32.742633820" lon="35.058986664">
  <ele>371.650879</ele>
  <time>2011-08-20T07:10:37Z</time>
  <speed>3.350000</speed>
</trkpt>
<trkpt lat="32.742691040" lon="35.059001923">
  <ele>372.650879</ele>
  <time>2011-08-20T07:10:38Z</time>
  <speed>4.770000</speed>
</trkpt>
<trkpt lat="32.742736816" lon="35.059001923">
  <ele>372.838379</ele>
  <time>2011-08-20T07:10:39Z</time>
  <speed>4.930000</speed>
</trkpt>
<trkpt lat="32.742774963" lon="35.058986664">
  <ele>371.916504</ele>
  <time>2011-08-20T07:10:40Z</time>
  <speed>3.800000</speed>
</trkpt>
<trkpt lat="32.742794037" lon="35.058956146">
  <ele>371.010254</ele>
  <time>2011-08-20T07:10:41Z</time>
  <speed>3.570000</speed>
</trkpt>
<trkpt lat="32.742828369" lon="35.058933258">
  <ele>370.893066</ele>
  <time>2011-08-20T07:10:42Z</time>
  <speed>3.010000</speed>
</trkpt>
<trkpt lat="32.742851257" lon="35.058914185">
  <ele>370.744629</ele>
  <time>2011-08-20T07:10:43Z</time>
  <speed>2.620000</speed>
</trkpt>
<trkpt lat="32.742904663" lon="35.058887482">
  <ele>371.166504</ele>
  <time>2011-08-20T07:10:45Z</time>
  <speed>2.350000</speed>
</trkpt>
<trkpt lat="32.742942810" lon="35.058876038">
  <ele>372.479004</ele>
  <time>2011-08-20T07:10:46Z</time>
  <speed>2.590000</speed>
</trkpt>
<trkpt lat="32.742988586" lon="35.058856964">
  <ele>373.869629</ele>
  <time>2011-08-20T07:10:48Z</time>
  <speed>1.990000</speed>
</trkpt>
<trkpt lat="32.743011475" lon="35.058830261">
  <ele>374.111816</ele>
  <time>2011-08-20T07:10:50Z</time>
  <speed>1.090000</speed>
</trkpt>
<trkpt lat="32.743038177" lon="35.058815002">
  <ele>374.080566</ele>
  <time>2011-08-20T07:10:52Z</time>
  <speed>0.760000</speed>
</trkpt>
<trkpt lat="32.743053436" lon="35.058788300">
  <ele>374.604004</ele>
  <time>2011-08-20T07:10:59Z</time>
  <speed>1.180000</speed>
</trkpt>
<trkpt lat="32.743068695" lon="35.058746338">
  <ele>376.479004</ele>
  <time>2011-08-20T07:11:01Z</time>
  <speed>1.670000</speed>
</trkpt>
<trkpt lat="32.743091583" lon="35.058731079">
  <ele>377.385254</ele>
  <time>2011-08-20T07:11:03Z</time>
  <speed>1.750000</speed>
</trkpt>
<trkpt lat="32.743118286" lon="35.058696747">
  <ele>377.994629</ele>
  <time>2011-08-20T07:11:05Z</time>
  <speed>2.100000</speed>
</trkpt>
<trkpt lat="32.743156433" lon="35.058673859">
  <ele>378.096191</ele>
  <time>2011-08-20T07:11:07Z</time>
  <speed>2.540000</speed>
</trkpt>
<trkpt lat="32.743198395" lon="35.058654785">
  <ele>377.979004</ele>
  <time>2011-08-20T07:11:09Z</time>
  <speed>2.240000</speed>
</trkpt>
<trkpt lat="32.743236542" lon="35.058631897">
  <ele>378.096191</ele>
  <time>2011-08-20T07:11:11Z</time>
  <speed>2.380000</speed>
</trkpt>
<trkpt lat="32.743267059" lon="35.058597565">
  <ele>377.783691</ele>
  <time>2011-08-20T07:11:13Z</time>
  <speed>2.520000</speed>
</trkpt>
<trkpt lat="32.743301392" lon="35.058563232">
  <ele>377.744629</ele>
  <time>2011-08-20T07:11:15Z</time>
  <speed>2.580000</speed>
</trkpt>
<trkpt lat="32.743339539" lon="35.058528900">
  <ele>378.096191</ele>
  <time>2011-08-20T07:11:17Z</time>
  <speed>2.700000</speed>
</trkpt>
<trkpt lat="32.743358612" lon="35.058506012">
  <ele>377.924316</ele>
  <time>2011-08-20T07:11:18Z</time>
  <speed>2.700000</speed>
</trkpt>
<trkpt lat="32.743396759" lon="35.058464050">
  <ele>378.104004</ele>
  <time>2011-08-20T07:11:20Z</time>
  <speed>2.700000</speed>
</trkpt>
<trkpt lat="32.743427277" lon="35.058418274">
  <ele>377.963379</ele>
  <time>2011-08-20T07:11:22Z</time>
  <speed>2.950000</speed>
</trkpt>
<trkpt lat="32.743450165" lon="35.058399200">
  <ele>377.799316</ele>
  <time>2011-08-20T07:11:23Z</time>
  <speed>3.140000</speed>
</trkpt>
<trkpt lat="32.743476868" lon="35.058387756">
  <ele>377.986816</ele>
  <time>2011-08-20T07:11:24Z</time>
  <speed>3.160000</speed>
</trkpt>
<trkpt lat="32.743499756" lon="35.058364868">
  <ele>377.768066</ele>
  <time>2011-08-20T07:11:25Z</time>
  <speed>3.060000</speed>
</trkpt>
<trkpt lat="32.743530273" lon="35.058322906">
  <ele>377.111816</ele>
  <time>2011-08-20T07:11:27Z</time>
  <speed>2.810000</speed>
</trkpt>
<trkpt lat="32.743553162" lon="35.058300018">
  <ele>377.166504</ele>
  <time>2011-08-20T07:11:28Z</time>
  <speed>2.760000</speed>
</trkpt>
<trkpt lat="32.743591309" lon="35.058258057">
  <ele>377.041504</ele>
  <time>2011-08-20T07:11:30Z</time>
  <speed>2.700000</speed>
</trkpt>
<trkpt lat="32.743633270" lon="35.058227539">
  <ele>377.299316</ele>
  <time>2011-08-20T07:11:32Z</time>
  <speed>2.890000</speed>
</trkpt>
<trkpt lat="32.743656158" lon="35.058204651">
  <ele>376.986816</ele>
  <time>2011-08-20T07:11:33Z</time>
  <speed>2.960000</speed>
</trkpt>
<trkpt lat="32.743675232" lon="35.058177948">
  <ele>376.955566</ele>
  <time>2011-08-20T07:11:34Z</time>
  <speed>2.850000</speed>
</trkpt>
<trkpt lat="32.743717194" lon="35.058128357">
  <ele>377.807129</ele>
  <time>2011-08-20T07:11:36Z</time>
  <speed>2.580000</speed>
</trkpt>
<trkpt lat="32.743736267" lon="35.058105469">
  <ele>377.658691</ele>
  <time>2011-08-20T07:11:37Z</time>
  <speed>2.870000</speed>
</trkpt>
<trkpt lat="32.743762970" lon="35.058082581">
  <ele>377.799316</ele>
  <time>2011-08-20T07:11:38Z</time>
  <speed>3.020000</speed>
</trkpt>
<trkpt lat="32.743785858" lon="35.058063507">
  <ele>377.580566</ele>
  <time>2011-08-20T07:11:39Z</time>
  <speed>3.010000</speed>
</trkpt>
<trkpt lat="32.743804932" lon="35.058040619">
  <ele>377.783691</ele>
  <time>2011-08-20T07:11:40Z</time>
  <speed>3.170000</speed>
</trkpt>
<trkpt lat="32.743843079" lon="35.058010101">
  <ele>378.471191</ele>
  <time>2011-08-20T07:11:41Z</time>
  <speed>2.970000</speed>
</trkpt>
<trkpt lat="32.743873596" lon="35.057964325">
  <ele>378.229004</ele>
  <time>2011-08-20T07:11:43Z</time>
  <speed>2.950000</speed>
</trkpt>
<trkpt lat="32.743892670" lon="35.057941437">
  <ele>378.400879</ele>
  <time>2011-08-20T07:11:44Z</time>
  <speed>2.890000</speed>
</trkpt>
<trkpt lat="32.743930817" lon="35.057895660">
  <ele>378.596191</ele>
  <time>2011-08-20T07:11:46Z</time>
  <speed>3.150000</speed>
</trkpt>
<trkpt lat="32.743957520" lon="35.057876587">
  <ele>379.307129</ele>
  <time>2011-08-20T07:11:47Z</time>
  <speed>2.950000</speed>
</trkpt>
<trkpt lat="32.743984222" lon="35.057861328">
  <ele>379.354004</ele>
  <time>2011-08-20T07:11:48Z</time>
  <speed>3.070000</speed>
</trkpt>
<trkpt lat="32.744014740" lon="35.057819366">
  <ele>379.072754</ele>
  <time>2011-08-20T07:11:50Z</time>
  <speed>3.070000</speed>
</trkpt>
<trkpt lat="32.744037628" lon="35.057796478">
  <ele>378.900879</ele>
  <time>2011-08-20T07:11:51Z</time>
  <speed>3.100000</speed>
</trkpt>
<trkpt lat="32.744060516" lon="35.057773590">
  <ele>379.143066</ele>
  <time>2011-08-20T07:11:52Z</time>
  <speed>3.280000</speed>
</trkpt>
<trkpt lat="32.744083405" lon="35.057754517">
  <ele>379.127441</ele>
  <time>2011-08-20T07:11:53Z</time>
  <speed>3.320000</speed>
</trkpt>
<trkpt lat="32.744106293" lon="35.057731628">
  <ele>379.518066</ele>
  <time>2011-08-20T07:11:54Z</time>
  <speed>3.400000</speed>
</trkpt>
<trkpt lat="32.744129181" lon="35.057697296">
  <ele>380.252441</ele>
  <time>2011-08-20T07:11:55Z</time>
  <speed>3.580000</speed>
</trkpt>
<trkpt lat="32.744155884" lon="35.057674408">
  <ele>380.088379</ele>
  <time>2011-08-20T07:11:56Z</time>
  <speed>3.760000</speed>
</trkpt>
<trkpt lat="32.744182587" lon="35.057647705">
  <ele>380.400879</ele>
  <time>2011-08-20T07:11:57Z</time>
  <speed>3.980000</speed>
</trkpt>
<trkpt lat="32.744213104" lon="35.057621002">
  <ele>380.424316</ele>
  <time>2011-08-20T07:11:58Z</time>
  <speed>4.300000</speed>
</trkpt>
<trkpt lat="32.744235992" lon="35.057586670">
  <ele>380.674316</ele>
  <time>2011-08-20T07:11:59Z</time>
  <speed>4.290000</speed>
</trkpt>
<trkpt lat="32.744258881" lon="35.057544708">
  <ele>380.354004</ele>
  <time>2011-08-20T07:12:00Z</time>
  <speed>4.400000</speed>
</trkpt>
<trkpt lat="32.744293213" lon="35.057506561">
  <ele>380.791504</ele>
  <time>2011-08-20T07:12:01Z</time>
  <speed>4.190000</speed>
</trkpt>
<trkpt lat="32.744319916" lon="35.057472229">
  <ele>380.869629</ele>
  <time>2011-08-20T07:12:02Z</time>
  <speed>4.200000</speed>
</trkpt>
<trkpt lat="32.744350433" lon="35.057445526">
  <ele>381.127441</ele>
  <time>2011-08-20T07:12:03Z</time>
  <speed>3.960000</speed>
</trkpt>
<trkpt lat="32.744377136" lon="35.057418823">
  <ele>381.252441</ele>
  <time>2011-08-20T07:12:04Z</time>
  <speed>3.840000</speed>
</trkpt>
<trkpt lat="32.744411469" lon="35.057392120">
  <ele>381.096191</ele>
  <time>2011-08-20T07:12:05Z</time>
  <speed>4.270000</speed>
</trkpt>
<trkpt lat="32.744430542" lon="35.057357788">
  <ele>381.088379</ele>
  <time>2011-08-20T07:12:06Z</time>
  <speed>3.870000</speed>
</trkpt>
<trkpt lat="32.744468689" lon="35.057342529">
  <ele>381.869629</ele>
  <time>2011-08-20T07:12:07Z</time>
  <speed>3.790000</speed>
</trkpt>
<trkpt lat="32.744495392" lon="35.057319641">
  <ele>382.072754</ele>
  <time>2011-08-20T07:12:08Z</time>
  <speed>3.940000</speed>
</trkpt>
<trkpt lat="32.744522095" lon="35.057296753">
  <ele>381.947754</ele>
  <time>2011-08-20T07:12:09Z</time>
  <speed>3.960000</speed>
</trkpt>
<trkpt lat="32.744548798" lon="35.057273865">
  <ele>382.127441</ele>
  <time>2011-08-20T07:12:10Z</time>
  <speed>3.900000</speed>
</trkpt>
<trkpt lat="32.744575500" lon="35.057247162">
  <ele>381.877441</ele>
  <time>2011-08-20T07:12:11Z</time>
  <speed>3.760000</speed>
</trkpt>
<trkpt lat="32.744586945" lon="35.057205200">
  <ele>381.807129</ele>
  <time>2011-08-20T07:12:12Z</time>
  <speed>3.570000</speed>
</trkpt>
<trkpt lat="32.744609833" lon="35.057170868">
  <ele>381.604004</ele>
  <time>2011-08-20T07:12:13Z</time>
  <speed>3.580000</speed>
</trkpt>
<trkpt lat="32.744632721" lon="35.057144165">
  <ele>381.768066</ele>
  <time>2011-08-20T07:12:14Z</time>
  <speed>3.490000</speed>
</trkpt>
<trkpt lat="32.744651794" lon="35.057117462">
  <ele>381.760254</ele>
  <time>2011-08-20T07:12:15Z</time>
  <speed>3.340000</speed>
</trkpt>
<trkpt lat="32.744678497" lon="35.057094574">
  <ele>381.486816</ele>
  <time>2011-08-20T07:12:16Z</time>
  <speed>3.260000</speed>
</trkpt>
<trkpt lat="32.744724274" lon="35.057060242">
  <ele>381.283691</ele>
  <time>2011-08-20T07:12:18Z</time>
  <speed>3.230000</speed>
</trkpt>
<trkpt lat="32.744766235" lon="35.057022095">
  <ele>381.533691</ele>
  <time>2011-08-20T07:12:20Z</time>
  <speed>3.230000</speed>
</trkpt>
<trkpt lat="32.744789124" lon="35.056995392">
  <ele>381.400879</ele>
  <time>2011-08-20T07:12:21Z</time>
  <speed>2.910000</speed>
</trkpt>
<trkpt lat="32.744812012" lon="35.056961060">
  <ele>381.877441</ele>
  <time>2011-08-20T07:12:22Z</time>
  <speed>3.460000</speed>
</trkpt>
<trkpt lat="32.744842529" lon="35.056941986">
  <ele>382.119629</ele>
  <time>2011-08-20T07:12:23Z</time>
  <speed>2.940000</speed>
</trkpt>
<trkpt lat="32.744892120" lon="35.056907654">
  <ele>381.877441</ele>
  <time>2011-08-20T07:12:25Z</time>
  <speed>2.950000</speed>
</trkpt>
<trkpt lat="32.744934082" lon="35.056869507">
  <ele>381.244629</ele>
  <time>2011-08-20T07:12:27Z</time>
  <speed>2.710000</speed>
</trkpt>
<trkpt lat="32.744968414" lon="35.056819916">
  <ele>381.096191</ele>
  <time>2011-08-20T07:12:29Z</time>
  <speed>2.880000</speed>
</trkpt>
<trkpt lat="32.744995117" lon="35.056804657">
  <ele>381.291504</ele>
  <time>2011-08-20T07:12:30Z</time>
  <speed>2.680000</speed>
</trkpt>
<trkpt lat="32.745025635" lon="35.056766510">
  <ele>380.439941</ele>
  <time>2011-08-20T07:12:32Z</time>
  <speed>2.680000</speed>
</trkpt>
<trkpt lat="32.745059967" lon="35.056732178">
  <ele>379.830566</ele>
  <time>2011-08-20T07:12:34Z</time>
  <speed>2.550000</speed>
</trkpt>
<trkpt lat="32.745105743" lon="35.056709290">
  <ele>380.189941</ele>
  <time>2011-08-20T07:12:36Z</time>
  <speed>2.210000</speed>
</trkpt>
<trkpt lat="32.745136261" lon="35.056674957">
  <ele>379.869629</ele>
  <time>2011-08-20T07:12:38Z</time>
  <speed>2.350000</speed>
</trkpt>
<trkpt lat="32.745178223" lon="35.056629181">
  <ele>381.338379</ele>
  <time>2011-08-20T07:12:40Z</time>
  <speed>2.360000</speed>
</trkpt>
<trkpt lat="32.745204926" lon="35.056594849">
  <ele>380.580566</ele>
  <time>2011-08-20T07:12:42Z</time>
  <speed>2.450000</speed>
</trkpt>
<trkpt lat="32.745243073" lon="35.056560516">
  <ele>380.416504</ele>
  <time>2011-08-20T07:12:44Z</time>
  <speed>2.390000</speed>
</trkpt>
<trkpt lat="32.745285034" lon="35.056533813">
  <ele>380.971191</ele>
  <time>2011-08-20T07:12:46Z</time>
  <speed>2.300000</speed>
</trkpt>
<trkpt lat="32.745315552" lon="35.056499481">
  <ele>380.330566</ele>
  <time>2011-08-20T07:12:48Z</time>
  <speed>2.110000</speed>
</trkpt>
<trkpt lat="32.745346069" lon="35.056499481">
  <ele>381.041504</ele>
  <time>2011-08-20T07:12:49Z</time>
  <speed>2.370000</speed>
</trkpt>
<trkpt lat="32.745380402" lon="35.056476593">
  <ele>380.807129</ele>
  <time>2011-08-20T07:12:51Z</time>
  <speed>2.370000</speed>
</trkpt>
<trkpt lat="32.745414734" lon="35.056476593">
  <ele>380.822754</ele>
  <time>2011-08-20T07:12:52Z</time>
  <speed>2.620000</speed>
</trkpt>
<trkpt lat="32.745449066" lon="35.056438446">
  <ele>380.854004</ele>
  <time>2011-08-20T07:12:54Z</time>
  <speed>2.630000</speed>
</trkpt>
<trkpt lat="32.745475769" lon="35.056423187">
  <ele>380.939941</ele>
  <time>2011-08-20T07:12:55Z</time>
  <speed>2.680000</speed>
</trkpt>
<trkpt lat="32.745491028" lon="35.056396484">
  <ele>381.650879</ele>
  <time>2011-08-20T07:12:56Z</time>
  <speed>2.530000</speed>
</trkpt>
<trkpt lat="32.745517731" lon="35.056381226">
  <ele>381.588379</ele>
  <time>2011-08-20T07:12:57Z</time>
  <speed>2.760000</speed>
</trkpt>
<trkpt lat="32.745552063" lon="35.056346893">
  <ele>381.338379</ele>
  <time>2011-08-20T07:12:59Z</time>
  <speed>3.050000</speed>
</trkpt>
<trkpt lat="32.745597839" lon="35.056308746">
  <ele>381.174316</ele>
  <time>2011-08-20T07:13:01Z</time>
  <speed>3.300000</speed>
</trkpt>
<trkpt lat="32.745620728" lon="35.056285858">
  <ele>381.127441</ele>
  <time>2011-08-20T07:13:02Z</time>
  <speed>3.560000</speed>
</trkpt>
<trkpt lat="32.745651245" lon="35.056259155">
  <ele>382.041504</ele>
  <time>2011-08-20T07:13:03Z</time>
  <speed>3.540000</speed>
</trkpt>
<trkpt lat="32.745681763" lon="35.056232452">
  <ele>382.158691</ele>
  <time>2011-08-20T07:13:04Z</time>
  <speed>3.690000</speed>
</trkpt>
<trkpt lat="32.745723724" lon="35.056224823">
  <ele>382.979004</ele>
  <time>2011-08-20T07:13:05Z</time>
  <speed>3.740000</speed>
</trkpt>
<trkpt lat="32.745754242" lon="35.056205750">
  <ele>382.494629</ele>
  <time>2011-08-20T07:13:06Z</time>
  <speed>3.750000</speed>
</trkpt>
<trkpt lat="32.745777130" lon="35.056182861">
  <ele>382.096191</ele>
  <time>2011-08-20T07:13:07Z</time>
  <speed>3.320000</speed>
</trkpt>
<trkpt lat="32.745811462" lon="35.056171417">
  <ele>381.744629</ele>
  <time>2011-08-20T07:13:08Z</time>
  <speed>3.380000</speed>
</trkpt>
<trkpt lat="32.745838165" lon="35.056148529">
  <ele>381.721191</ele>
  <time>2011-08-20T07:13:09Z</time>
  <speed>3.510000</speed>
</trkpt>
<trkpt lat="32.745864868" lon="35.056129456">
  <ele>381.455566</ele>
  <time>2011-08-20T07:13:10Z</time>
  <speed>3.610000</speed>
</trkpt>
<trkpt lat="32.745906830" lon="35.056118011">
  <ele>381.729004</ele>
  <time>2011-08-20T07:13:11Z</time>
  <speed>4.010000</speed>
</trkpt>
<trkpt lat="32.745937347" lon="35.056095123">
  <ele>381.393066</ele>
  <time>2011-08-20T07:13:12Z</time>
  <speed>4.010000</speed>
</trkpt>
<trkpt lat="32.745975494" lon="35.056076050">
  <ele>381.182129</ele>
  <time>2011-08-20T07:13:13Z</time>
  <speed>4.330000</speed>
</trkpt>
<trkpt lat="32.746017456" lon="35.056068420">
  <ele>381.330566</ele>
  <time>2011-08-20T07:13:14Z</time>
  <speed>4.300000</speed>
</trkpt>
<trkpt lat="32.746055603" lon="35.056053162">
  <ele>380.846191</ele>
  <time>2011-08-20T07:13:15Z</time>
  <speed>4.810000</speed>
</trkpt>
<trkpt lat="32.746097565" lon="35.056041718">
  <ele>380.635254</ele>
  <time>2011-08-20T07:13:16Z</time>
  <speed>4.700000</speed>
</trkpt>
<trkpt lat="32.746150970" lon="35.056045532">
  <ele>381.893066</ele>
  <time>2011-08-20T07:13:17Z</time>
  <speed>4.650000</speed>
</trkpt>
<trkpt lat="32.746192932" lon="35.056045532">
  <ele>382.439941</ele>
  <time>2011-08-20T07:13:18Z</time>
  <speed>4.940000</speed>
</trkpt>
<trkpt lat="32.746234894" lon="35.056041718">
  <ele>382.494629</ele>
  <time>2011-08-20T07:13:19Z</time>
  <speed>4.460000</speed>
</trkpt>
<trkpt lat="32.746280670" lon="35.056049347">
  <ele>382.314941</ele>
  <time>2011-08-20T07:13:20Z</time>
  <speed>3.830000</speed>
</trkpt>
<trkpt lat="32.746322632" lon="35.056053162">
  <ele>381.939941</ele>
  <time>2011-08-20T07:13:21Z</time>
  <speed>4.220000</speed>
</trkpt>
<trkpt lat="32.746356964" lon="35.056068420">
  <ele>380.729004</ele>
  <time>2011-08-20T07:13:22Z</time>
  <speed>4.270000</speed>
</trkpt>
<trkpt lat="32.746391296" lon="35.056072235">
  <ele>380.994629</ele>
  <time>2011-08-20T07:13:23Z</time>
  <speed>4.160000</speed>
</trkpt>
<trkpt lat="32.746433258" lon="35.056072235">
  <ele>380.963379</ele>
  <time>2011-08-20T07:13:24Z</time>
  <speed>4.360000</speed>
</trkpt>
<trkpt lat="32.746471405" lon="35.056068420">
  <ele>380.689941</ele>
  <time>2011-08-20T07:13:25Z</time>
  <speed>4.410000</speed>
</trkpt>
<trkpt lat="32.746509552" lon="35.056068420">
  <ele>380.635254</ele>
  <time>2011-08-20T07:13:26Z</time>
  <speed>3.940000</speed>
</trkpt>
<trkpt lat="32.746543884" lon="35.056068420">
  <ele>381.393066</ele>
  <time>2011-08-20T07:13:27Z</time>
  <speed>4.040000</speed>
</trkpt>
<trkpt lat="32.746601105" lon="35.056064606">
  <ele>383.291504</ele>
  <time>2011-08-20T07:13:28Z</time>
  <speed>4.290000</speed>
</trkpt>
<trkpt lat="32.746643066" lon="35.056053162">
  <ele>383.791504</ele>
  <time>2011-08-20T07:13:29Z</time>
  <speed>4.530000</speed>
</trkpt>
<trkpt lat="32.746685028" lon="35.056045532">
  <ele>383.041504</ele>
  <time>2011-08-20T07:13:30Z</time>
  <speed>4.450000</speed>
</trkpt>
<trkpt lat="32.746730804" lon="35.056049347">
  <ele>383.541504</ele>
  <time>2011-08-20T07:13:31Z</time>
  <speed>4.500000</speed>
</trkpt>
<trkpt lat="32.746776581" lon="35.056037903">
  <ele>382.768066</ele>
  <time>2011-08-20T07:13:32Z</time>
  <speed>4.710000</speed>
</trkpt>
<trkpt lat="32.746814728" lon="35.056030273">
  <ele>382.877441</ele>
  <time>2011-08-20T07:13:33Z</time>
  <speed>4.740000</speed>
</trkpt>
<trkpt lat="32.746864319" lon="35.056018829">
  <ele>383.252441</ele>
  <time>2011-08-20T07:13:34Z</time>
  <speed>4.770000</speed>
</trkpt>
<trkpt lat="32.746910095" lon="35.055999756">
  <ele>382.635254</ele>
  <time>2011-08-20T07:13:35Z</time>
  <speed>4.900000</speed>
</trkpt>
<trkpt lat="32.746952057" lon="35.055969238">
  <ele>383.525879</ele>
  <time>2011-08-20T07:13:36Z</time>
  <speed>5.100000</speed>
</trkpt>
<trkpt lat="32.746997833" lon="35.055953979">
  <ele>383.877441</ele>
  <time>2011-08-20T07:13:37Z</time>
  <speed>4.900000</speed>
</trkpt>
<trkpt lat="32.747043610" lon="35.055942535">
  <ele>383.721191</ele>
  <time>2011-08-20T07:13:38Z</time>
  <speed>4.970000</speed>
</trkpt>
<trkpt lat="32.747085571" lon="35.055927277">
  <ele>383.525879</ele>
  <time>2011-08-20T07:13:39Z</time>
  <speed>4.530000</speed>
</trkpt>
<trkpt lat="32.747116089" lon="35.055904388">
  <ele>383.408691</ele>
  <time>2011-08-20T07:13:40Z</time>
  <speed>4.240000</speed>
</trkpt>
<trkpt lat="32.747146606" lon="35.055885315">
  <ele>383.244629</ele>
  <time>2011-08-20T07:13:41Z</time>
  <speed>4.020000</speed>
</trkpt>
<trkpt lat="32.747180939" lon="35.055873871">
  <ele>383.635254</ele>
  <time>2011-08-20T07:13:42Z</time>
  <speed>3.850000</speed>
</trkpt>
<trkpt lat="32.747219086" lon="35.055850983">
  <ele>384.486816</ele>
  <time>2011-08-20T07:13:43Z</time>
  <speed>3.830000</speed>
</trkpt>
<trkpt lat="32.747249603" lon="35.055835724">
  <ele>384.439941</ele>
  <time>2011-08-20T07:13:44Z</time>
  <speed>4.150000</speed>
</trkpt>
<trkpt lat="32.747295380" lon="35.055824280">
  <ele>384.869629</ele>
  <time>2011-08-20T07:13:45Z</time>
  <speed>4.050000</speed>
</trkpt>
<trkpt lat="32.747325897" lon="35.055812836">
  <ele>384.525879</ele>
  <time>2011-08-20T07:13:46Z</time>
  <speed>4.130000</speed>
</trkpt>
<trkpt lat="32.747352600" lon="35.055789948">
  <ele>384.947754</ele>
  <time>2011-08-20T07:13:47Z</time>
  <speed>3.990000</speed>
</trkpt>
<trkpt lat="32.747386932" lon="35.055755615">
  <ele>385.385254</ele>
  <time>2011-08-20T07:13:48Z</time>
  <speed>4.130000</speed>
</trkpt>
<trkpt lat="32.747413635" lon="35.055732727">
  <ele>385.455566</ele>
  <time>2011-08-20T07:13:49Z</time>
  <speed>3.820000</speed>
</trkpt>
<trkpt lat="32.747451782" lon="35.055725098">
  <ele>386.564941</ele>
  <time>2011-08-20T07:13:50Z</time>
  <speed>4.040000</speed>
</trkpt>
<trkpt lat="32.747489929" lon="35.055709839">
  <ele>386.619629</ele>
  <time>2011-08-20T07:13:51Z</time>
  <speed>4.170000</speed>
</trkpt>
<trkpt lat="32.747524261" lon="35.055694580">
  <ele>386.619629</ele>
  <time>2011-08-20T07:13:52Z</time>
  <speed>3.890000</speed>
</trkpt>
<trkpt lat="32.747570038" lon="35.055694580">
  <ele>384.096191</ele>
  <time>2011-08-20T07:13:54Z</time>
  <speed>3.640000</speed>
</trkpt>
<trkpt lat="32.747612000" lon="35.055690765">
  <ele>384.541504</ele>
  <time>2011-08-20T07:13:55Z</time>
  <speed>3.780000</speed>
</trkpt>
<trkpt lat="32.747634888" lon="35.055675507">
  <ele>383.939941</ele>
  <time>2011-08-20T07:13:56Z</time>
  <speed>3.600000</speed>
</trkpt>
<trkpt lat="32.747665405" lon="35.055652618">
  <ele>383.557129</ele>
  <time>2011-08-20T07:13:57Z</time>
  <speed>3.520000</speed>
</trkpt>
<trkpt lat="32.747692108" lon="35.055633545">
  <ele>383.572754</ele>
  <time>2011-08-20T07:13:58Z</time>
  <speed>3.700000</speed>
</trkpt>
<trkpt lat="32.747726440" lon="35.055606842">
  <ele>383.455566</ele>
  <time>2011-08-20T07:13:59Z</time>
  <speed>3.790000</speed>
</trkpt>
<trkpt lat="32.747753143" lon="35.055576324">
  <ele>383.807129</ele>
  <time>2011-08-20T07:14:00Z</time>
  <speed>3.400000</speed>
</trkpt>
<trkpt lat="32.747768402" lon="35.055545807">
  <ele>383.150879</ele>
  <time>2011-08-20T07:14:01Z</time>
  <speed>3.520000</speed>
</trkpt>
<trkpt lat="32.747806549" lon="35.055522919">
  <ele>383.877441</ele>
  <time>2011-08-20T07:14:02Z</time>
  <speed>3.500000</speed>
</trkpt>
<trkpt lat="32.747837067" lon="35.055500031">
  <ele>383.916504</ele>
  <time>2011-08-20T07:14:03Z</time>
  <speed>3.580000</speed>
</trkpt>
<trkpt lat="32.747856140" lon="35.055469513">
  <ele>384.244629</ele>
  <time>2011-08-20T07:14:04Z</time>
  <speed>3.640000</speed>
</trkpt>
<trkpt lat="32.747886658" lon="35.055450439">
  <ele>384.275879</ele>
  <time>2011-08-20T07:14:05Z</time>
  <speed>3.520000</speed>
</trkpt>
<trkpt lat="32.747909546" lon="35.055427551">
  <ele>384.494629</ele>
  <time>2011-08-20T07:14:06Z</time>
  <speed>3.580000</speed>
</trkpt>
<trkpt lat="32.747932434" lon="35.055404663">
  <ele>384.018066</ele>
  <time>2011-08-20T07:14:07Z</time>
  <speed>3.530000</speed>
</trkpt>
<trkpt lat="32.747959137" lon="35.055381775">
  <ele>384.072754</ele>
  <time>2011-08-20T07:14:08Z</time>
  <speed>3.680000</speed>
</trkpt>
<trkpt lat="32.747985840" lon="35.055355072">
  <ele>383.869629</ele>
  <time>2011-08-20T07:14:09Z</time>
  <speed>3.630000</speed>
</trkpt>
<trkpt lat="32.748016357" lon="35.055335999">
  <ele>383.846191</ele>
  <time>2011-08-20T07:14:10Z</time>
  <speed>3.340000</speed>
</trkpt>
<trkpt lat="32.748035431" lon="35.055313110">
  <ele>383.822754</ele>
  <time>2011-08-20T07:14:11Z</time>
  <speed>3.560000</speed>
</trkpt>
<trkpt lat="32.748062134" lon="35.055286407">
  <ele>383.783691</ele>
  <time>2011-08-20T07:14:12Z</time>
  <speed>3.490000</speed>
</trkpt>
<trkpt lat="32.748081207" lon="35.055255890">
  <ele>383.369629</ele>
  <time>2011-08-20T07:14:13Z</time>
  <speed>3.600000</speed>
</trkpt>
<trkpt lat="32.748100281" lon="35.055229187">
  <ele>382.252441</ele>
  <time>2011-08-20T07:14:14Z</time>
  <speed>3.590000</speed>
</trkpt>
<trkpt lat="32.748126984" lon="35.055206299">
  <ele>382.260254</ele>
  <time>2011-08-20T07:14:15Z</time>
  <speed>3.690000</speed>
</trkpt>
<trkpt lat="32.748157501" lon="35.055183411">
  <ele>382.135254</ele>
  <time>2011-08-20T07:14:16Z</time>
  <speed>4.010000</speed>
</trkpt>
<trkpt lat="32.748199463" lon="35.055160522">
  <ele>383.143066</ele>
  <time>2011-08-20T07:14:17Z</time>
  <speed>4.070000</speed>
</trkpt>
<trkpt lat="32.748229980" lon="35.055133820">
  <ele>383.291504</ele>
  <time>2011-08-20T07:14:18Z</time>
  <speed>4.070000</speed>
</trkpt>
<trkpt lat="32.748252869" lon="35.055103302">
  <ele>383.135254</ele>
  <time>2011-08-20T07:14:19Z</time>
  <speed>4.180000</speed>
</trkpt>
<trkpt lat="32.748283386" lon="35.055076599">
  <ele>383.307129</ele>
  <time>2011-08-20T07:14:20Z</time>
  <speed>4.330000</speed>
</trkpt>
<trkpt lat="32.748317719" lon="35.055049896">
  <ele>383.252441</ele>
  <time>2011-08-20T07:14:21Z</time>
  <speed>4.450000</speed>
</trkpt>
<trkpt lat="32.748355865" lon="35.055027008">
  <ele>383.408691</ele>
  <time>2011-08-20T07:14:22Z</time>
  <speed>4.130000</speed>
</trkpt>
<trkpt lat="32.748386383" lon="35.055004120">
  <ele>383.229004</ele>
  <time>2011-08-20T07:14:23Z</time>
  <speed>4.350000</speed>
</trkpt>
<trkpt lat="32.748428345" lon="35.054981232">
  <ele>383.205566</ele>
  <time>2011-08-20T07:14:24Z</time>
  <speed>4.470000</speed>
</trkpt>
<trkpt lat="32.748466492" lon="35.054962158">
  <ele>382.916504</ele>
  <time>2011-08-20T07:14:25Z</time>
  <speed>4.680000</speed>
</trkpt>
<trkpt lat="32.748497009" lon="35.054927826">
  <ele>382.760254</ele>
  <time>2011-08-20T07:14:26Z</time>
  <speed>4.950000</speed>
</trkpt>
<trkpt lat="32.748538971" lon="35.054897308">
  <ele>382.494629</ele>
  <time>2011-08-20T07:14:27Z</time>
  <speed>5.200000</speed>
</trkpt>
<trkpt lat="32.748573303" lon="35.054859161">
  <ele>382.330566</ele>
  <time>2011-08-20T07:14:28Z</time>
  <speed>5.410000</speed>
</trkpt>
<trkpt lat="32.748619080" lon="35.054828644">
  <ele>382.479004</ele>
  <time>2011-08-20T07:14:29Z</time>
  <speed>5.220000</speed>
</trkpt>
<trkpt lat="32.748657227" lon="35.054798126">
  <ele>382.377441</ele>
  <time>2011-08-20T07:14:30Z</time>
  <speed>5.330000</speed>
</trkpt>
<trkpt lat="32.748699188" lon="35.054759979">
  <ele>382.025879</ele>
  <time>2011-08-20T07:14:31Z</time>
  <speed>5.340000</speed>
</trkpt>
<trkpt lat="32.748737335" lon="35.054729462">
  <ele>381.822754</ele>
  <time>2011-08-20T07:14:32Z</time>
  <speed>5.090000</speed>
</trkpt>
<trkpt lat="32.748771667" lon="35.054691315">
  <ele>381.236816</ele>
  <time>2011-08-20T07:14:33Z</time>
  <speed>4.870000</speed>
</trkpt>
<trkpt lat="32.748806000" lon="35.054656982">
  <ele>381.166504</ele>
  <time>2011-08-20T07:14:34Z</time>
  <speed>5.000000</speed>
</trkpt>
<trkpt lat="32.748836517" lon="35.054618835">
  <ele>380.799316</ele>
  <time>2011-08-20T07:14:35Z</time>
  <speed>5.030000</speed>
</trkpt>
<trkpt lat="32.748878479" lon="35.054588318">
  <ele>380.885254</ele>
  <time>2011-08-20T07:14:36Z</time>
  <speed>5.120000</speed>
</trkpt>
<trkpt lat="32.748912811" lon="35.054546356">
  <ele>380.557129</ele>
  <time>2011-08-20T07:14:37Z</time>
  <speed>5.360000</speed>
</trkpt>
<trkpt lat="32.748947144" lon="35.054508209">
  <ele>380.275879</ele>
  <time>2011-08-20T07:14:38Z</time>
  <speed>5.300000</speed>
</trkpt>
<trkpt lat="32.748981476" lon="35.054466248">
  <ele>380.322754</ele>
  <time>2011-08-20T07:14:39Z</time>
  <speed>5.060000</speed>
</trkpt>
<trkpt lat="32.749008179" lon="35.054420471">
  <ele>380.143066</ele>
  <time>2011-08-20T07:14:40Z</time>
  <speed>5.160000</speed>
</trkpt>
<trkpt lat="32.749042511" lon="35.054382324">
  <ele>380.143066</ele>
  <time>2011-08-20T07:14:41Z</time>
  <speed>5.230000</speed>
</trkpt>
<trkpt lat="32.749073029" lon="35.054336548">
  <ele>379.963379</ele>
  <time>2011-08-20T07:14:42Z</time>
  <speed>5.020000</speed>
</trkpt>
<trkpt lat="32.749111176" lon="35.054306030">
  <ele>379.955566</ele>
  <time>2011-08-20T07:14:43Z</time>
  <speed>4.910000</speed>
</trkpt>
<trkpt lat="32.749137878" lon="35.054260254">
  <ele>379.783691</ele>
  <time>2011-08-20T07:14:44Z</time>
  <speed>4.790000</speed>
</trkpt>
<trkpt lat="32.749168396" lon="35.054222107">
  <ele>379.447754</ele>
  <time>2011-08-20T07:14:45Z</time>
  <speed>4.640000</speed>
</trkpt>
<trkpt lat="32.749198914" lon="35.054180145">
  <ele>379.127441</ele>
  <time>2011-08-20T07:14:46Z</time>
  <speed>4.750000</speed>
</trkpt>
<trkpt lat="32.749225616" lon="35.054141998">
  <ele>379.447754</ele>
  <time>2011-08-20T07:14:47Z</time>
  <speed>4.570000</speed>
</trkpt>
<trkpt lat="32.749252319" lon="35.054100037">
  <ele>379.221191</ele>
  <time>2011-08-20T07:14:48Z</time>
  <speed>4.790000</speed>
</trkpt>
<trkpt lat="32.749275208" lon="35.054058075">
  <ele>379.408691</ele>
  <time>2011-08-20T07:14:49Z</time>
  <speed>4.700000</speed>
</trkpt>
<trkpt lat="32.749305725" lon="35.054019928">
  <ele>379.322754</ele>
  <time>2011-08-20T07:14:50Z</time>
  <speed>4.800000</speed>
</trkpt>
<trkpt lat="32.749328613" lon="35.053977966">
  <ele>379.033691</ele>
  <time>2011-08-20T07:14:51Z</time>
  <speed>4.750000</speed>
</trkpt>
<trkpt lat="32.749362946" lon="35.053939819">
  <ele>379.549316</ele>
  <time>2011-08-20T07:14:52Z</time>
  <speed>4.740000</speed>
</trkpt>
<trkpt lat="32.749393463" lon="35.053901672">
  <ele>379.596191</ele>
  <time>2011-08-20T07:14:53Z</time>
  <speed>4.790000</speed>
</trkpt>
<trkpt lat="32.749420166" lon="35.053863525">
  <ele>379.822754</ele>
  <time>2011-08-20T07:14:54Z</time>
  <speed>4.650000</speed>
</trkpt>
<trkpt lat="32.749450684" lon="35.053817749">
  <ele>380.768066</ele>
  <time>2011-08-20T07:14:55Z</time>
  <speed>4.730000</speed>
</trkpt>
<trkpt lat="32.749477386" lon="35.053775787">
  <ele>380.541504</ele>
  <time>2011-08-20T07:14:56Z</time>
  <speed>4.840000</speed>
</trkpt>
<trkpt lat="32.749515533" lon="35.053741455">
  <ele>381.447754</ele>
  <time>2011-08-20T07:14:57Z</time>
  <speed>5.100000</speed>
</trkpt>
<trkpt lat="32.749542236" lon="35.053699493">
  <ele>381.377441</ele>
  <time>2011-08-20T07:14:58Z</time>
  <speed>4.860000</speed>
</trkpt>
<trkpt lat="32.749568939" lon="35.053665161">
  <ele>381.150879</ele>
  <time>2011-08-20T07:14:59Z</time>
  <speed>4.840000</speed>
</trkpt>
<trkpt lat="32.749591827" lon="35.053615570">
  <ele>381.275879</ele>
  <time>2011-08-20T07:15:00Z</time>
  <speed>4.710000</speed>
</trkpt>
<trkpt lat="32.749618530" lon="35.053573608">
  <ele>381.033691</ele>
  <time>2011-08-20T07:15:01Z</time>
  <speed>4.770000</speed>
</trkpt>
<trkpt lat="32.749645233" lon="35.053531647">
  <ele>381.143066</ele>
  <time>2011-08-20T07:15:02Z</time>
  <speed>5.000000</speed>
</trkpt>
<trkpt lat="32.749671936" lon="35.053493500">
  <ele>380.916504</ele>
  <time>2011-08-20T07:15:03Z</time>
  <speed>4.760000</speed>
</trkpt>
<trkpt lat="32.749702454" lon="35.053455353">
  <ele>380.854004</ele>
  <time>2011-08-20T07:15:04Z</time>
  <speed>4.840000</speed>
</trkpt>
<trkpt lat="32.749732971" lon="35.053424835">
  <ele>380.963379</ele>
  <time>2011-08-20T07:15:05Z</time>
  <speed>4.590000</speed>
</trkpt>
<trkpt lat="32.749759674" lon="35.053382874">
  <ele>381.072754</ele>
  <time>2011-08-20T07:15:06Z</time>
  <speed>4.570000</speed>
</trkpt>
<trkpt lat="32.749790192" lon="35.053344727">
  <ele>381.166504</ele>
  <time>2011-08-20T07:15:07Z</time>
  <speed>4.640000</speed>
</trkpt>
<trkpt lat="32.749813080" lon="35.053306580">
  <ele>380.900879</ele>
  <time>2011-08-20T07:15:08Z</time>
  <speed>4.880000</speed>
</trkpt>
<trkpt lat="32.749843597" lon="35.053268433">
  <ele>380.088379</ele>
  <time>2011-08-20T07:15:09Z</time>
  <speed>4.560000</speed>
</trkpt>
<trkpt lat="32.749866486" lon="35.053222656">
  <ele>380.033691</ele>
  <time>2011-08-20T07:15:10Z</time>
  <speed>4.690000</speed>
</trkpt>
<trkpt lat="32.749893188" lon="35.053180695">
  <ele>379.729004</ele>
  <time>2011-08-20T07:15:11Z</time>
  <speed>4.690000</speed>
</trkpt>
<trkpt lat="32.749919891" lon="35.053142548">
  <ele>379.861816</ele>
  <time>2011-08-20T07:15:12Z</time>
  <speed>4.520000</speed>
</trkpt>
<trkpt lat="32.749946594" lon="35.053104401">
  <ele>379.814941</ele>
  <time>2011-08-20T07:15:13Z</time>
  <speed>4.560000</speed>
</trkpt>
<trkpt lat="32.749969482" lon="35.053062439">
  <ele>378.916504</ele>
  <time>2011-08-20T07:15:14Z</time>
  <speed>5.000000</speed>
</trkpt>
<trkpt lat="32.749992371" lon="35.053012848">
  <ele>378.666504</ele>
  <time>2011-08-20T07:15:15Z</time>
  <speed>5.070000</speed>
</trkpt>
<trkpt lat="32.750015259" lon="35.052967072">
  <ele>378.635254</ele>
  <time>2011-08-20T07:15:16Z</time>
  <speed>5.090000</speed>
</trkpt>
<trkpt lat="32.750038147" lon="35.052913666">
  <ele>378.189941</ele>
  <time>2011-08-20T07:15:17Z</time>
  <speed>5.170000</speed>
</trkpt>
<trkpt lat="32.750064850" lon="35.052867889">
  <ele>378.283691</ele>
  <time>2011-08-20T07:15:18Z</time>
  <speed>5.120000</speed>
</trkpt>
<trkpt lat="32.750091553" lon="35.052822113">
  <ele>378.291504</ele>
  <time>2011-08-20T07:15:19Z</time>
  <speed>4.920000</speed>
</trkpt>
<trkpt lat="32.750114441" lon="35.052776337">
  <ele>377.705566</ele>
  <time>2011-08-20T07:15:20Z</time>
  <speed>4.960000</speed>
</trkpt>
<trkpt lat="32.750133514" lon="35.052730560">
  <ele>377.416504</ele>
  <time>2011-08-20T07:15:21Z</time>
  <speed>5.010000</speed>
</trkpt>
<trkpt lat="32.750152588" lon="35.052680969">
  <ele>377.549316</ele>
  <time>2011-08-20T07:15:22Z</time>
  <speed>5.150000</speed>
</trkpt>
<trkpt lat="32.750171661" lon="35.052635193">
  <ele>377.424316</ele>
  <time>2011-08-20T07:15:23Z</time>
  <speed>4.730000</speed>
</trkpt>
<trkpt lat="32.750194550" lon="35.052585602">
  <ele>377.057129</ele>
  <time>2011-08-20T07:15:24Z</time>
  <speed>4.960000</speed>
</trkpt>
<trkpt lat="32.750217438" lon="35.052539825">
  <ele>377.354004</ele>
  <time>2011-08-20T07:15:25Z</time>
  <speed>5.160000</speed>
</trkpt>
<trkpt lat="32.750232697" lon="35.052486420">
  <ele>377.244629</ele>
  <time>2011-08-20T07:15:26Z</time>
  <speed>5.150000</speed>
</trkpt>
<trkpt lat="32.750251770" lon="35.052436829">
  <ele>377.275879</ele>
  <time>2011-08-20T07:15:27Z</time>
  <speed>5.170000</speed>
</trkpt>
<trkpt lat="32.750270844" lon="35.052379608">
  <ele>377.244629</ele>
  <time>2011-08-20T07:15:28Z</time>
  <speed>5.490000</speed>
</trkpt>
<trkpt lat="32.750293732" lon="35.052326202">
  <ele>377.916504</ele>
  <time>2011-08-20T07:15:29Z</time>
  <speed>5.600000</speed>
</trkpt>
<trkpt lat="32.750316620" lon="35.052276611">
  <ele>378.229004</ele>
  <time>2011-08-20T07:15:30Z</time>
  <speed>5.220000</speed>
</trkpt>
<trkpt lat="32.750331879" lon="35.052223206">
  <ele>377.846191</ele>
  <time>2011-08-20T07:15:31Z</time>
  <speed>5.530000</speed>
</trkpt>
<trkpt lat="32.750347137" lon="35.052169800">
  <ele>377.072754</ele>
  <time>2011-08-20T07:15:32Z</time>
  <speed>5.440000</speed>
</trkpt>
<trkpt lat="32.750366211" lon="35.052116394">
  <ele>377.572754</ele>
  <time>2011-08-20T07:15:33Z</time>
  <speed>5.310000</speed>
</trkpt>
<trkpt lat="32.750385284" lon="35.052066803">
  <ele>377.510254</ele>
  <time>2011-08-20T07:15:34Z</time>
  <speed>5.150000</speed>
</trkpt>
<trkpt lat="32.750400543" lon="35.052009583">
  <ele>378.088379</ele>
  <time>2011-08-20T07:15:35Z</time>
  <speed>5.280000</speed>
</trkpt>
<trkpt lat="32.750419617" lon="35.051959991">
  <ele>377.885254</ele>
  <time>2011-08-20T07:15:36Z</time>
  <speed>5.110000</speed>
</trkpt>
<trkpt lat="32.750438690" lon="35.051906586">
  <ele>377.955566</ele>
  <time>2011-08-20T07:15:37Z</time>
  <speed>5.300000</speed>
</trkpt>
<trkpt lat="32.750453949" lon="35.051856995">
  <ele>378.150879</ele>
  <time>2011-08-20T07:15:38Z</time>
  <speed>5.490000</speed>
</trkpt>
<trkpt lat="32.750469208" lon="35.051803589">
  <ele>377.814941</ele>
  <time>2011-08-20T07:15:39Z</time>
  <speed>5.640000</speed>
</trkpt>
<trkpt lat="32.750480652" lon="35.051746368">
  <ele>377.916504</ele>
  <time>2011-08-20T07:15:40Z</time>
  <speed>5.810000</speed>
</trkpt>
<trkpt lat="32.750499725" lon="35.051689148">
  <ele>377.471191</ele>
  <time>2011-08-20T07:15:41Z</time>
  <speed>5.950000</speed>
</trkpt>
<trkpt lat="32.750518799" lon="35.051631927">
  <ele>377.447754</ele>
  <time>2011-08-20T07:15:42Z</time>
  <speed>5.900000</speed>
</trkpt>
<trkpt lat="32.750541687" lon="35.051567078">
  <ele>377.299316</ele>
  <time>2011-08-20T07:15:43Z</time>
  <speed>6.180000</speed>
</trkpt>
<trkpt lat="32.750560760" lon="35.051506042">
  <ele>377.244629</ele>
  <time>2011-08-20T07:15:44Z</time>
  <speed>6.470000</speed>
</trkpt>
<trkpt lat="32.750576019" lon="35.051441193">
  <ele>375.916504</ele>
  <time>2011-08-20T07:15:45Z</time>
  <speed>6.480000</speed>
</trkpt>
<trkpt lat="32.750598907" lon="35.051380157">
  <ele>375.479004</ele>
  <time>2011-08-20T07:15:46Z</time>
  <speed>6.630000</speed>
</trkpt>
<trkpt lat="32.750625610" lon="35.051319122">
  <ele>375.768066</ele>
  <time>2011-08-20T07:15:47Z</time>
  <speed>6.560000</speed>
</trkpt>
<trkpt lat="32.750644684" lon="35.051250458">
  <ele>375.986816</ele>
  <time>2011-08-20T07:15:48Z</time>
  <speed>6.530000</speed>
</trkpt>
<trkpt lat="32.750667572" lon="35.051181793">
  <ele>375.596191</ele>
  <time>2011-08-20T07:15:49Z</time>
  <speed>6.570000</speed>
</trkpt>
<trkpt lat="32.750682831" lon="35.051113129">
  <ele>374.885254</ele>
  <time>2011-08-20T07:15:50Z</time>
  <speed>6.570000</speed>
</trkpt>
<trkpt lat="32.750705719" lon="35.051052094">
  <ele>374.564941</ele>
  <time>2011-08-20T07:15:51Z</time>
  <speed>6.500000</speed>
</trkpt>
<trkpt lat="32.750728607" lon="35.050987244">
  <ele>374.572754</ele>
  <time>2011-08-20T07:15:52Z</time>
  <speed>6.590000</speed>
</trkpt>
<trkpt lat="32.750751495" lon="35.050922394">
  <ele>374.268066</ele>
  <time>2011-08-20T07:15:53Z</time>
  <speed>6.440000</speed>
</trkpt>
<trkpt lat="32.750778198" lon="35.050861359">
  <ele>373.760254</ele>
  <time>2011-08-20T07:15:54Z</time>
  <speed>6.830000</speed>
</trkpt>
<trkpt lat="32.750804901" lon="35.050788879">
  <ele>373.236816</ele>
  <time>2011-08-20T07:15:55Z</time>
  <speed>6.880000</speed>
</trkpt>
<trkpt lat="32.750831604" lon="35.050720215">
  <ele>373.400879</ele>
  <time>2011-08-20T07:15:56Z</time>
  <speed>7.370000</speed>
</trkpt>
<trkpt lat="32.750854492" lon="35.050643921">
  <ele>373.064941</ele>
  <time>2011-08-20T07:15:57Z</time>
  <speed>7.300000</speed>
</trkpt>
<trkpt lat="32.750877380" lon="35.050571442">
  <ele>372.963379</ele>
  <time>2011-08-20T07:15:58Z</time>
  <speed>7.480000</speed>
</trkpt>
<trkpt lat="32.750900269" lon="35.050487518">
  <ele>372.150879</ele>
  <time>2011-08-20T07:15:59Z</time>
  <speed>8.070000</speed>
</trkpt>
<trkpt lat="32.750926971" lon="35.050411224">
  <ele>372.260254</ele>
  <time>2011-08-20T07:16:00Z</time>
  <speed>8.200000</speed>
</trkpt>
<trkpt lat="32.750957489" lon="35.050331116">
  <ele>371.721191</ele>
  <time>2011-08-20T07:16:01Z</time>
  <speed>8.340000</speed>
</trkpt>
<trkpt lat="32.750988007" lon="35.050247192">
  <ele>371.752441</ele>
  <time>2011-08-20T07:16:02Z</time>
  <speed>8.280000</speed>
</trkpt>
<trkpt lat="32.751014709" lon="35.050163269">
  <ele>371.705566</ele>
  <time>2011-08-20T07:16:03Z</time>
  <speed>8.230000</speed>
</trkpt>
<trkpt lat="32.751045227" lon="35.050079346">
  <ele>371.689941</ele>
  <time>2011-08-20T07:16:04Z</time>
  <speed>8.290000</speed>
</trkpt>
<trkpt lat="32.751068115" lon="35.049995422">
  <ele>371.869629</ele>
  <time>2011-08-20T07:16:05Z</time>
  <speed>8.220000</speed>
</trkpt>
<trkpt lat="32.751091003" lon="35.049911499">
  <ele>371.533691</ele>
  <time>2011-08-20T07:16:06Z</time>
  <speed>8.260000</speed>
</trkpt>
<trkpt lat="32.751117706" lon="35.049827576">
  <ele>372.346191</ele>
  <time>2011-08-20T07:16:07Z</time>
  <speed>8.090000</speed>
</trkpt>
<trkpt lat="32.751144409" lon="35.049751282">
  <ele>372.236816</ele>
  <time>2011-08-20T07:16:08Z</time>
  <speed>7.720000</speed>
</trkpt>
<trkpt lat="32.751167297" lon="35.049671173">
  <ele>371.127441</ele>
  <time>2011-08-20T07:16:09Z</time>
  <speed>7.680000</speed>
</trkpt>
<trkpt lat="32.751186371" lon="35.049591064">
  <ele>370.525879</ele>
  <time>2011-08-20T07:16:10Z</time>
  <speed>7.740000</speed>
</trkpt>
<trkpt lat="32.751205444" lon="35.049518585">
  <ele>370.205566</ele>
  <time>2011-08-20T07:16:11Z</time>
  <speed>7.590000</speed>
</trkpt>
<trkpt lat="32.751235962" lon="35.049449921">
  <ele>369.479004</ele>
  <time>2011-08-20T07:16:12Z</time>
  <speed>7.550000</speed>
</trkpt>
<trkpt lat="32.751262665" lon="35.049377441">
  <ele>368.900879</ele>
  <time>2011-08-20T07:16:13Z</time>
  <speed>7.580000</speed>
</trkpt>
<trkpt lat="32.751285553" lon="35.049301147">
  <ele>368.885254</ele>
  <time>2011-08-20T07:16:14Z</time>
  <speed>7.520000</speed>
</trkpt>
<trkpt lat="32.751308441" lon="35.049221039">
  <ele>368.729004</ele>
  <time>2011-08-20T07:16:15Z</time>
  <speed>7.560000</speed>
</trkpt>
<trkpt lat="32.751335144" lon="35.049137115">
  <ele>368.174316</ele>
  <time>2011-08-20T07:16:16Z</time>
  <speed>8.140000</speed>
</trkpt>
<trkpt lat="32.751361847" lon="35.049060822">
  <ele>368.213379</ele>
  <time>2011-08-20T07:16:17Z</time>
  <speed>8.340000</speed>
</trkpt>
<trkpt lat="32.751388550" lon="35.048976898">
  <ele>367.666504</ele>
  <time>2011-08-20T07:16:18Z</time>
  <speed>8.720000</speed>
</trkpt>
<trkpt lat="32.751419067" lon="35.048881531">
  <ele>367.346191</ele>
  <time>2011-08-20T07:16:19Z</time>
  <speed>8.680000</speed>
</trkpt>
<trkpt lat="32.751441956" lon="35.048797607">
  <ele>367.064941</ele>
  <time>2011-08-20T07:16:20Z</time>
  <speed>8.630000</speed>
</trkpt>
<trkpt lat="32.751468658" lon="35.048713684">
  <ele>366.221191</ele>
  <time>2011-08-20T07:16:21Z</time>
  <speed>8.590000</speed>
</trkpt>
<trkpt lat="32.751502991" lon="35.048637390">
  <ele>365.393066</ele>
  <time>2011-08-20T07:16:22Z</time>
  <speed>8.220000</speed>
</trkpt>
<trkpt lat="32.751529694" lon="35.048557281">
  <ele>364.838379</ele>
  <time>2011-08-20T07:16:23Z</time>
  <speed>8.080000</speed>
</trkpt>
<trkpt lat="32.751552582" lon="35.048480988">
  <ele>364.041504</ele>
  <time>2011-08-20T07:16:24Z</time>
  <speed>7.800000</speed>
</trkpt>
<trkpt lat="32.751575470" lon="35.048404694">
  <ele>363.729004</ele>
  <time>2011-08-20T07:16:25Z</time>
  <speed>7.130000</speed>
</trkpt>
<trkpt lat="32.751590729" lon="35.048332214">
  <ele>362.963379</ele>
  <time>2011-08-20T07:16:26Z</time>
  <speed>6.790000</speed>
</trkpt>
<trkpt lat="32.751602173" lon="35.048263550">
  <ele>363.049316</ele>
  <time>2011-08-20T07:16:27Z</time>
  <speed>6.130000</speed>
</trkpt>
<trkpt lat="32.751609802" lon="35.048206329">
  <ele>362.619629</ele>
  <time>2011-08-20T07:16:28Z</time>
  <speed>5.060000</speed>
</trkpt>
<trkpt lat="32.751579285" lon="35.048194885">
  <ele>362.775879</ele>
  <time>2011-08-20T07:16:37Z</time>
  <speed>0.700000</speed>
</trkpt>
<trkpt lat="32.751548767" lon="35.048202515">
  <ele>362.807129</ele>
  <time>2011-08-20T07:16:41Z</time>
  <speed>1.060000</speed>
</trkpt>
<trkpt lat="32.751514435" lon="35.048179626">
  <ele>362.963379</ele>
  <time>2011-08-20T07:16:43Z</time>
  <speed>1.480000</speed>
</trkpt>
<trkpt lat="32.751487732" lon="35.048160553">
  <ele>362.791504</ele>
  <time>2011-08-20T07:16:45Z</time>
  <speed>1.260000</speed>
</trkpt>
<trkpt lat="32.751464844" lon="35.048133850">
  <ele>363.072754</ele>
  <time>2011-08-20T07:16:47Z</time>
  <speed>1.340000</speed>
</trkpt>
<trkpt lat="32.751426697" lon="35.048107147">
  <ele>364.064941</ele>
  <time>2011-08-20T07:16:49Z</time>
  <speed>1.510000</speed>
</trkpt>
<trkpt lat="32.751392365" lon="35.048103333">
  <ele>364.674316</ele>
  <time>2011-08-20T07:16:51Z</time>
  <speed>1.460000</speed>
</trkpt>
<trkpt lat="32.751365662" lon="35.048107147">
  <ele>365.064941</ele>
  <time>2011-08-20T07:16:53Z</time>
  <speed>1.690000</speed>
</trkpt>
<trkpt lat="32.751331329" lon="35.048103333">
  <ele>365.385254</ele>
  <time>2011-08-20T07:16:55Z</time>
  <speed>1.410000</speed>
</trkpt>
<trkpt lat="32.751308441" lon="35.048088074">
  <ele>365.533691</ele>
  <time>2011-08-20T07:16:58Z</time>
  <speed>0.690000</speed>
</trkpt>
<trkpt lat="32.751277924" lon="35.048084259">
  <ele>366.275879</ele>
  <time>2011-08-20T07:17:00Z</time>
  <speed>0.100000</speed>
</trkpt>
<trkpt lat="32.751262665" lon="35.048057556">
  <ele>367.213379</ele>
  <time>2011-08-20T07:17:18Z</time>
  <speed>0.030000</speed>
</trkpt>
</trkseg>
</trk>
</gpx>
